<?xml version="1.0" encoding="UTF-8" standalone="no" ?>
<gpx xmlns="http://www.topografix.com/GPX/1/1" xmlns:xsi="http://www.w3.org/2001/XMLSchema-instance" xsi:schemaLocation="http://www.topografix.com/GPX/1/1 http://www.topografix.com/GPX/1/1/gpx.xsd" version="1.1" creator="VisuGPX - https://www.visugpx.com">
  <metadata>
    <name>Le grand huit de l'amour</name>
  </metadata>
  <trk>
    <name><![CDATA[Etape 1 : Avrillé - Montsoreau (camping Belle Rive)]]></name>
    <trkseg>
      <trkpt lat="47.51172" lon="-0.59642">
        <ele>55</ele>
        <time>2020-06-19T08:50:01.000Z</time>
      </trkpt>
      <trkpt lat="47.51056" lon="-0.5946">
        <ele>55.09828567505</ele>
        <time>2020-06-19T08:50:01.027Z</time>
      </trkpt>
      <trkpt lat="47.51054" lon="-0.5946">
        <ele>55.09828567505</ele>
        <time>2020-06-19T08:50:01.054Z</time>
      </trkpt>
      <trkpt lat="47.51051" lon="-0.59459">
        <ele>55.11028289795</ele>
        <time>2020-06-19T08:50:01.082Z</time>
      </trkpt>
      <trkpt lat="47.51049" lon="-0.59457">
        <ele>55.13428115845</ele>
        <time>2020-06-19T08:50:01.110Z</time>
      </trkpt>
      <trkpt lat="47.51009" lon="-0.59474">
        <ele>54.93031311035</ele>
        <time>2020-06-19T08:50:01.145Z</time>
      </trkpt>
      <trkpt lat="47.50992" lon="-0.59479">
        <ele>54.47676086426</ele>
        <time>2020-06-19T08:50:01.183Z</time>
      </trkpt>
      <trkpt lat="47.50966" lon="-0.59498">
        <ele>53.0537109375</ele>
        <time>2020-06-19T08:50:01.225Z</time>
      </trkpt>
      <trkpt lat="47.50966" lon="-0.59498">
        <ele>53.02655410767</ele>
        <time>2020-06-19T08:50:01.267Z</time>
      </trkpt>
      <trkpt lat="47.50888" lon="-0.5955">
        <ele>50.03693389893</ele>
        <time>2020-06-19T08:50:01.323Z</time>
      </trkpt>
      <trkpt lat="47.50789" lon="-0.59607">
        <ele>49.33457946777</ele>
        <time>2020-06-19T08:50:01.396Z</time>
      </trkpt>
      <trkpt lat="47.50779" lon="-0.59612">
        <ele>49.27458953857</ele>
        <time>2020-06-19T08:50:01.471Z</time>
      </trkpt>
      <trkpt lat="47.50771" lon="-0.59619">
        <ele>49.19060516357</ele>
        <time>2020-06-19T08:50:01.547Z</time>
      </trkpt>
      <trkpt lat="47.50771" lon="-0.59619">
        <ele>49.18858337402</ele>
        <time>2020-06-19T08:50:01.623Z</time>
      </trkpt>
      <trkpt lat="47.50757" lon="-0.59631">
        <ele>49.04662704468</ele>
        <time>2020-06-19T08:50:01.702Z</time>
      </trkpt>
      <trkpt lat="47.50745" lon="-0.59631">
        <ele>48.69051742554</ele>
        <time>2020-06-19T08:50:01.783Z</time>
      </trkpt>
      <trkpt lat="47.50735" lon="-0.59629">
        <ele>48.09061813354</ele>
        <time>2020-06-19T08:50:01.865Z</time>
      </trkpt>
      <trkpt lat="47.50703" lon="-0.59618">
        <ele>46.17093658447</ele>
        <time>2020-06-19T08:50:01.953Z</time>
      </trkpt>
      <trkpt lat="47.50663" lon="-0.59587">
        <ele>44.57453918457</ele>
        <time>2020-06-19T08:50:02.048Z</time>
      </trkpt>
      <trkpt lat="47.50615" lon="-0.59557">
        <ele>44.93447875977</ele>
        <time>2020-06-19T08:50:02.151Z</time>
      </trkpt>
      <trkpt lat="47.50595" lon="-0.5955">
        <ele>45.05539703369</ele>
        <time>2020-06-19T08:50:02.258Z</time>
      </trkpt>
      <trkpt lat="47.50595" lon="-0.5955">
        <ele>45.05667877197</ele>
        <time>2020-06-19T08:50:02.365Z</time>
      </trkpt>
      <trkpt lat="47.50574" lon="-0.59543">
        <ele>45</ele>
        <time>2020-06-19T08:50:02.475Z</time>
      </trkpt>
      <trkpt lat="47.50557" lon="-0.59542">
        <ele>45</ele>
        <time>2020-06-19T08:50:02.588Z</time>
      </trkpt>
      <trkpt lat="47.50501" lon="-0.59544">
        <ele>45</ele>
        <time>2020-06-19T08:50:02.710Z</time>
      </trkpt>
      <trkpt lat="47.50493" lon="-0.59558">
        <ele>45.16291046143</ele>
        <time>2020-06-19T08:50:02.834Z</time>
      </trkpt>
      <trkpt lat="47.50488" lon="-0.59571">
        <ele>45.37887573242</ele>
        <time>2020-06-19T08:50:02.959Z</time>
      </trkpt>
      <trkpt lat="47.50467" lon="-0.59604">
        <ele>46.02425765991</ele>
        <time>2020-06-19T08:50:03.089Z</time>
      </trkpt>
      <trkpt lat="47.50467" lon="-0.59604">
        <ele>46.02676773071</ele>
        <time>2020-06-19T08:50:03.219Z</time>
      </trkpt>
      <trkpt lat="47.50467" lon="-0.59603">
        <ele>46.01476669312</ele>
        <time>2020-06-19T08:50:03.349Z</time>
      </trkpt>
      <trkpt lat="47.50449" lon="-0.59628">
        <ele>46.53068161011</ele>
        <time>2020-06-19T08:50:03.483Z</time>
      </trkpt>
      <trkpt lat="47.50434" lon="-0.59643">
        <ele>46.69592666626</ele>
        <time>2020-06-19T08:50:03.620Z</time>
      </trkpt>
      <trkpt lat="47.50404" lon="-0.59668">
        <ele>46.29627227783</ele>
        <time>2020-06-19T08:50:03.763Z</time>
      </trkpt>
      <trkpt lat="47.50385" lon="-0.59681">
        <ele>45.68437576294</ele>
        <time>2020-06-19T08:50:03.909Z</time>
      </trkpt>
      <trkpt lat="47.50351" lon="-0.59696">
        <ele>44.74440765381</ele>
        <time>2020-06-19T08:50:04.061Z</time>
      </trkpt>
      <trkpt lat="47.50315" lon="-0.59705">
        <ele>43.87548065186</ele>
        <time>2020-06-19T08:50:04.219Z</time>
      </trkpt>
      <trkpt lat="47.50286" lon="-0.59707">
        <ele>43.12126159668</ele>
        <time>2020-06-19T08:50:04.381Z</time>
      </trkpt>
      <trkpt lat="47.50286" lon="-0.59707">
        <ele>43.1209564209</ele>
        <time>2020-06-19T08:50:04.543Z</time>
      </trkpt>
      <trkpt lat="47.50285" lon="-0.59707">
        <ele>43.10760879517</ele>
        <time>2020-06-19T08:50:04.705Z</time>
      </trkpt>
      <trkpt lat="47.50266" lon="-0.59707">
        <ele>42.65168380737</ele>
        <time>2020-06-19T08:50:04.870Z</time>
      </trkpt>
      <trkpt lat="47.5023" lon="-0.59701">
        <ele>42.20676803589</ele>
        <time>2020-06-19T08:50:05.041Z</time>
      </trkpt>
      <trkpt lat="47.50222" lon="-0.59707">
        <ele>42.13478088379</ele>
        <time>2020-06-19T08:50:05.214Z</time>
      </trkpt>
      <trkpt lat="47.50214" lon="-0.59719">
        <ele>42.00919723511</ele>
        <time>2020-06-19T08:50:05.388Z</time>
      </trkpt>
      <trkpt lat="47.50202" lon="-0.59689">
        <ele>42.3483543396</ele>
        <time>2020-06-19T08:50:05.566Z</time>
      </trkpt>
      <trkpt lat="47.50201" lon="-0.59688">
        <ele>42.36274337769</ele>
        <time>2020-06-19T08:50:05.744Z</time>
      </trkpt>
      <trkpt lat="47.50195" lon="-0.59675">
        <ele>42.15969085693</ele>
        <time>2020-06-19T08:50:05.924Z</time>
      </trkpt>
      <trkpt lat="47.50193" lon="-0.59677">
        <ele>42.13569259644</ele>
        <time>2020-06-19T08:50:06.105Z</time>
      </trkpt>
      <trkpt lat="47.50188" lon="-0.59677">
        <ele>42.01571273804</ele>
        <time>2020-06-19T08:50:06.286Z</time>
      </trkpt>
      <trkpt lat="47.50179" lon="-0.59672">
        <ele>41.73976135254</ele>
        <time>2020-06-19T08:50:06.469Z</time>
      </trkpt>
      <trkpt lat="47.50176" lon="-0.59665">
        <ele>41.58695220947</ele>
        <time>2020-06-19T08:50:06.653Z</time>
      </trkpt>
      <trkpt lat="47.50176" lon="-0.59665">
        <ele>41.58378601074</ele>
        <time>2020-06-19T08:50:06.837Z</time>
      </trkpt>
      <trkpt lat="47.50175" lon="-0.59655">
        <ele>41.43981170654</ele>
        <time>2020-06-19T08:50:07.022Z</time>
      </trkpt>
      <trkpt lat="47.50176" lon="-0.59646">
        <ele>41.35582351685</ele>
        <time>2020-06-19T08:50:07.208Z</time>
      </trkpt>
      <trkpt lat="47.50182" lon="-0.59639">
        <ele>41.41581344604</ele>
        <time>2020-06-19T08:50:07.395Z</time>
      </trkpt>
      <trkpt lat="47.50189" lon="-0.59639">
        <ele>41.58378601074</ele>
        <time>2020-06-19T08:50:07.583Z</time>
      </trkpt>
      <trkpt lat="47.50197" lon="-0.59604">
        <ele>42.09697341919</ele>
        <time>2020-06-19T08:50:07.775Z</time>
      </trkpt>
      <trkpt lat="47.50211" lon="-0.59548">
        <ele>43.10480499268</ele>
        <time>2020-06-19T08:50:07.974Z</time>
      </trkpt>
      <trkpt lat="47.50213" lon="-0.59534">
        <ele>43.32077026367</ele>
        <time>2020-06-19T08:50:08.174Z</time>
      </trkpt>
      <trkpt lat="47.50211" lon="-0.59509">
        <ele>43.57272720337</ele>
        <time>2020-06-19T08:50:08.377Z</time>
      </trkpt>
      <trkpt lat="47.50206" lon="-0.59471">
        <ele>43.41354370117</ele>
        <time>2020-06-19T08:50:08.584Z</time>
      </trkpt>
      <trkpt lat="47.50206" lon="-0.59471">
        <ele>43.41065979004</ele>
        <time>2020-06-19T08:50:08.791Z</time>
      </trkpt>
      <trkpt lat="47.50171" lon="-0.59256">
        <ele>42.9892539978</ele>
        <time>2020-06-19T08:50:09.022Z</time>
      </trkpt>
      <trkpt lat="47.50171" lon="-0.59243">
        <ele>43.3012008667</ele>
        <time>2020-06-19T08:50:09.255Z</time>
      </trkpt>
      <trkpt lat="47.50146" lon="-0.59223">
        <ele>43.26985168457</ele>
        <time>2020-06-19T08:50:09.492Z</time>
      </trkpt>
      <trkpt lat="47.50132" lon="-0.59208">
        <ele>43.16666030884</ele>
        <time>2020-06-19T08:50:09.732Z</time>
      </trkpt>
      <trkpt lat="47.50128" lon="-0.59199">
        <ele>43.07067489624</ele>
        <time>2020-06-19T08:50:09.973Z</time>
      </trkpt>
      <trkpt lat="47.50107" lon="-0.59152">
        <ele>43.0747718811</ele>
        <time>2020-06-19T08:50:10.220Z</time>
      </trkpt>
      <trkpt lat="47.50107" lon="-0.59152">
        <ele>43.07704925537</ele>
        <time>2020-06-19T08:50:10.467Z</time>
      </trkpt>
      <trkpt lat="47.50079" lon="-0.59086">
        <ele>44.11851119995</ele>
        <time>2020-06-19T08:50:10.723Z</time>
      </trkpt>
      <trkpt lat="47.50069" lon="-0.59069">
        <ele>44.40646362305</ele>
        <time>2020-06-19T08:50:10.981Z</time>
      </trkpt>
      <trkpt lat="47.50058" lon="-0.59056">
        <ele>44.33643341064</ele>
        <time>2020-06-19T08:50:11.241Z</time>
      </trkpt>
      <trkpt lat="47.5005" lon="-0.59051">
        <ele>44.19898605347</ele>
        <time>2020-06-19T08:50:11.503Z</time>
      </trkpt>
      <trkpt lat="47.50045" lon="-0.59044">
        <ele>44.07900619507</ele>
        <time>2020-06-19T08:50:11.766Z</time>
      </trkpt>
      <trkpt lat="47.50041" lon="-0.59033">
        <ele>43.98302078247</ele>
        <time>2020-06-19T08:50:12.030Z</time>
      </trkpt>
      <trkpt lat="47.50041" lon="-0.59024">
        <ele>43.98302078247</ele>
        <time>2020-06-19T08:50:12.295Z</time>
      </trkpt>
      <trkpt lat="47.50043" lon="-0.59018">
        <ele>44.03101348877</ele>
        <time>2020-06-19T08:50:12.561Z</time>
      </trkpt>
      <trkpt lat="47.50038" lon="-0.58998">
        <ele>44.09687805176</ele>
        <time>2020-06-19T08:50:12.829Z</time>
      </trkpt>
      <trkpt lat="47.50029" lon="-0.58985">
        <ele>44.14487075806</ele>
        <time>2020-06-19T08:50:13.099Z</time>
      </trkpt>
      <trkpt lat="47.50002" lon="-0.5896">
        <ele>44.04718017578</ele>
        <time>2020-06-19T08:50:13.374Z</time>
      </trkpt>
      <trkpt lat="47.49988" lon="-0.58951">
        <ele>43.85561752319</ele>
        <time>2020-06-19T08:50:13.652Z</time>
      </trkpt>
      <trkpt lat="47.4997" lon="-0.58943">
        <ele>43.6396522522</ele>
        <time>2020-06-19T08:50:13.933Z</time>
      </trkpt>
      <trkpt lat="47.49948" lon="-0.5894">
        <ele>43.3756980896</ele>
        <time>2020-06-19T08:50:14.217Z</time>
      </trkpt>
      <trkpt lat="47.49925" lon="-0.58942">
        <ele>42.88623428345</ele>
        <time>2020-06-19T08:50:14.505Z</time>
      </trkpt>
      <trkpt lat="47.49924" lon="-0.58931">
        <ele>42.73026275635</ele>
        <time>2020-06-19T08:50:14.794Z</time>
      </trkpt>
      <trkpt lat="47.49942" lon="-0.58931">
        <ele>43.16218948364</ele>
        <time>2020-06-19T08:50:15.086Z</time>
      </trkpt>
      <trkpt lat="47.49957" lon="-0.58931">
        <ele>43.48536300659</ele>
        <time>2020-06-19T08:50:15.380Z</time>
      </trkpt>
      <trkpt lat="47.49957" lon="-0.58931">
        <ele>43.48543548584</ele>
        <time>2020-06-19T08:50:15.674Z</time>
      </trkpt>
      <trkpt lat="47.49958" lon="-0.58931">
        <ele>43.495677948</ele>
        <time>2020-06-19T08:50:15.969Z</time>
      </trkpt>
      <trkpt lat="47.4997" lon="-0.58933">
        <ele>43.6396522522</ele>
        <time>2020-06-19T08:50:16.266Z</time>
      </trkpt>
      <trkpt lat="47.49995" lon="-0.58945">
        <ele>43.93960189819</ele>
        <time>2020-06-19T08:50:16.567Z</time>
      </trkpt>
      <trkpt lat="47.50015" lon="-0.5896">
        <ele>44.27684783936</ele>
        <time>2020-06-19T08:50:16.871Z</time>
      </trkpt>
      <trkpt lat="47.50041" lon="-0.58989">
        <ele>44.24085617065</ele>
        <time>2020-06-19T08:50:17.181Z</time>
      </trkpt>
      <trkpt lat="47.50054" lon="-0.59007">
        <ele>44.29497146606</ele>
        <time>2020-06-19T08:50:17.493Z</time>
      </trkpt>
      <trkpt lat="47.50059" lon="-0.59006">
        <ele>44.41495132446</ele>
        <time>2020-06-19T08:50:17.806Z</time>
      </trkpt>
      <trkpt lat="47.50066" lon="-0.5901">
        <ele>44.58292388916</ele>
        <time>2020-06-19T08:50:18.120Z</time>
      </trkpt>
      <trkpt lat="47.50071" lon="-0.59016">
        <ele>44.70290374756</ele>
        <time>2020-06-19T08:50:18.435Z</time>
      </trkpt>
      <trkpt lat="47.50074" lon="-0.59028">
        <ele>44.77489089966</ele>
        <time>2020-06-19T08:50:18.752Z</time>
      </trkpt>
      <trkpt lat="47.50074" lon="-0.59035">
        <ele>44.77489089966</ele>
        <time>2020-06-19T08:50:19.070Z</time>
      </trkpt>
      <trkpt lat="47.50071" lon="-0.59047">
        <ele>44.70290374756</ele>
        <time>2020-06-19T08:50:19.389Z</time>
      </trkpt>
      <trkpt lat="47.50066" lon="-0.59053">
        <ele>44.56439590454</ele>
        <time>2020-06-19T08:50:19.709Z</time>
      </trkpt>
      <trkpt lat="47.50061" lon="-0.59056">
        <ele>44.40842056274</ele>
        <time>2020-06-19T08:50:20.030Z</time>
      </trkpt>
      <trkpt lat="47.50054" lon="-0.59054">
        <ele>44.26444625854</ele>
        <time>2020-06-19T08:50:20.352Z</time>
      </trkpt>
      <trkpt lat="47.50047" lon="-0.59048">
        <ele>44.12699890137</ele>
        <time>2020-06-19T08:50:20.675Z</time>
      </trkpt>
      <trkpt lat="47.50043" lon="-0.5904">
        <ele>44.03101348877</ele>
        <time>2020-06-19T08:50:20.999Z</time>
      </trkpt>
      <trkpt lat="47.50041" lon="-0.59029">
        <ele>43.98302078247</ele>
        <time>2020-06-19T08:50:21.325Z</time>
      </trkpt>
      <trkpt lat="47.50043" lon="-0.5902">
        <ele>44.03101348877</ele>
        <time>2020-06-19T08:50:21.652Z</time>
      </trkpt>
      <trkpt lat="47.50041" lon="-0.59004">
        <ele>44.06088638306</ele>
        <time>2020-06-19T08:50:21.980Z</time>
      </trkpt>
      <trkpt lat="47.50034" lon="-0.58991">
        <ele>44.13287353516</ele>
        <time>2020-06-19T08:50:22.310Z</time>
      </trkpt>
      <trkpt lat="47.5002" lon="-0.58976">
        <ele>44.14487075806</ele>
        <time>2020-06-19T08:50:22.643Z</time>
      </trkpt>
      <trkpt lat="47.50002" lon="-0.5896">
        <ele>44.04718017578</ele>
        <time>2020-06-19T08:50:22.979Z</time>
      </trkpt>
      <trkpt lat="47.49988" lon="-0.58951">
        <ele>43.85561752319</ele>
        <time>2020-06-19T08:50:23.318Z</time>
      </trkpt>
      <trkpt lat="47.49963" lon="-0.58942">
        <ele>43.5556678772</ele>
        <time>2020-06-19T08:50:23.661Z</time>
      </trkpt>
      <trkpt lat="47.49942" lon="-0.5894">
        <ele>43.27017211914</ele>
        <time>2020-06-19T08:50:24.007Z</time>
      </trkpt>
      <trkpt lat="47.49925" lon="-0.58942">
        <ele>42.88623428345</ele>
        <time>2020-06-19T08:50:24.356Z</time>
      </trkpt>
      <trkpt lat="47.49906" lon="-0.58949">
        <ele>43.02717208862</ele>
        <time>2020-06-19T08:50:24.708Z</time>
      </trkpt>
      <trkpt lat="47.49884" lon="-0.58961">
        <ele>43.69906234741</ele>
        <time>2020-06-19T08:50:25.064Z</time>
      </trkpt>
      <trkpt lat="47.49873" lon="-0.58968">
        <ele>44.04700469971</ele>
        <time>2020-06-19T08:50:25.422Z</time>
      </trkpt>
      <trkpt lat="47.49847" lon="-0.58976">
        <ele>44.57751846313</ele>
        <time>2020-06-19T08:50:25.784Z</time>
      </trkpt>
      <trkpt lat="47.49814" lon="-0.58977">
        <ele>45.12535476685</ele>
        <time>2020-06-19T08:50:26.151Z</time>
      </trkpt>
      <trkpt lat="47.498" lon="-0.58974">
        <ele>45.32932281494</ele>
        <time>2020-06-19T08:50:26.521Z</time>
      </trkpt>
      <trkpt lat="47.4978" lon="-0.58966">
        <ele>45.6146697998</ele>
        <time>2020-06-19T08:50:26.894Z</time>
      </trkpt>
      <trkpt lat="47.4975" lon="-0.58946">
        <ele>45.99981307983</ele>
        <time>2020-06-19T08:50:27.272Z</time>
      </trkpt>
      <trkpt lat="47.49661" lon="-0.58878">
        <ele>48.06648635864</ele>
        <time>2020-06-19T08:50:27.666Z</time>
      </trkpt>
      <trkpt lat="47.4966" lon="-0.58877">
        <ele>48.07972717285</ele>
        <time>2020-06-19T08:50:28.060Z</time>
      </trkpt>
      <trkpt lat="47.49555" lon="-0.58794">
        <ele>48.10750579834</ele>
        <time>2020-06-19T08:50:28.474Z</time>
      </trkpt>
      <trkpt lat="47.49551" lon="-0.58798">
        <ele>48.20348739624</ele>
        <time>2020-06-19T08:50:28.888Z</time>
      </trkpt>
      <trkpt lat="47.49547" lon="-0.58798">
        <ele>48.34746551514</ele>
        <time>2020-06-19T08:50:29.303Z</time>
      </trkpt>
      <trkpt lat="47.49543" lon="-0.58792">
        <ele>48.56343078613</ele>
        <time>2020-06-19T08:50:29.719Z</time>
      </trkpt>
      <trkpt lat="47.49541" lon="-0.58784">
        <ele>48.73139953613</ele>
        <time>2020-06-19T08:50:30.136Z</time>
      </trkpt>
      <trkpt lat="47.49488" lon="-0.58734">
        <ele>50.52206802368</ele>
        <time>2020-06-19T08:50:30.563Z</time>
      </trkpt>
      <trkpt lat="47.49402" lon="-0.58629">
        <ele>48.06862640381</ele>
        <time>2020-06-19T08:50:31.008Z</time>
      </trkpt>
      <trkpt lat="47.49397" lon="-0.58629">
        <ele>48.06862640381</ele>
        <time>2020-06-19T08:50:31.454Z</time>
      </trkpt>
      <trkpt lat="47.49393" lon="-0.58623">
        <ele>48.14061355591</ele>
        <time>2020-06-19T08:50:31.900Z</time>
      </trkpt>
      <trkpt lat="47.49392" lon="-0.58615">
        <ele>48.23659515381</ele>
        <time>2020-06-19T08:50:32.347Z</time>
      </trkpt>
      <trkpt lat="47.49392" lon="-0.58612">
        <ele>48.27259063721</ele>
        <time>2020-06-19T08:50:32.795Z</time>
      </trkpt>
      <trkpt lat="47.49355" lon="-0.58566">
        <ele>47.1336517334</ele>
        <time>2020-06-19T08:50:33.250Z</time>
      </trkpt>
      <trkpt lat="47.49318" lon="-0.5852">
        <ele>46.1933631897</ele>
        <time>2020-06-19T08:50:33.713Z</time>
      </trkpt>
      <trkpt lat="47.49278" lon="-0.58476">
        <ele>46.241355896</ele>
        <time>2020-06-19T08:50:34.184Z</time>
      </trkpt>
      <trkpt lat="47.49278" lon="-0.58476">
        <ele>46.24127960205</ele>
        <time>2020-06-19T08:50:34.655Z</time>
      </trkpt>
      <trkpt lat="47.49217" lon="-0.58418">
        <ele>47.01092529297</ele>
        <time>2020-06-19T08:50:35.138Z</time>
      </trkpt>
      <trkpt lat="47.49191" lon="-0.58392">
        <ele>46.70393371582</ele>
        <time>2020-06-19T08:50:35.626Z</time>
      </trkpt>
      <trkpt lat="47.4914" lon="-0.58348">
        <ele>46.88012695312</ele>
        <time>2020-06-19T08:50:36.123Z</time>
      </trkpt>
      <trkpt lat="47.49092" lon="-0.58309">
        <ele>47.81596755981</ele>
        <time>2020-06-19T08:50:36.629Z</time>
      </trkpt>
      <trkpt lat="47.49078" lon="-0.58292">
        <ele>48.22389984131</ele>
        <time>2020-06-19T08:50:37.138Z</time>
      </trkpt>
      <trkpt lat="47.49078" lon="-0.58291">
        <ele>48.24445343018</ele>
        <time>2020-06-19T08:50:37.647Z</time>
      </trkpt>
      <trkpt lat="47.49071" lon="-0.58278">
        <ele>48.5598449707</ele>
        <time>2020-06-19T08:50:38.158Z</time>
      </trkpt>
      <trkpt lat="47.49064" lon="-0.5827">
        <ele>48.7518119812</ele>
        <time>2020-06-19T08:50:38.670Z</time>
      </trkpt>
      <trkpt lat="47.49055" lon="-0.58267">
        <ele>48.823802948</ele>
        <time>2020-06-19T08:50:39.184Z</time>
      </trkpt>
      <trkpt lat="47.49051" lon="-0.5827">
        <ele>48.7518119812</ele>
        <time>2020-06-19T08:50:39.698Z</time>
      </trkpt>
      <trkpt lat="47.49041" lon="-0.58269">
        <ele>48.7758102417</ele>
        <time>2020-06-19T08:50:40.214Z</time>
      </trkpt>
      <trkpt lat="47.49031" lon="-0.58265">
        <ele>48.74706268311</ele>
        <time>2020-06-19T08:50:40.732Z</time>
      </trkpt>
      <trkpt lat="47.49023" lon="-0.58266">
        <ele>48.55509567261</ele>
        <time>2020-06-19T08:50:41.251Z</time>
      </trkpt>
      <trkpt lat="47.4901" lon="-0.58271">
        <ele>48.24314498901</ele>
        <time>2020-06-19T08:50:41.772Z</time>
      </trkpt>
      <trkpt lat="47.49005" lon="-0.58273">
        <ele>48.12316513062</ele>
        <time>2020-06-19T08:50:42.294Z</time>
      </trkpt>
      <trkpt lat="47.48993" lon="-0.58287">
        <ele>48.08239364624</ele>
        <time>2020-06-19T08:50:42.818Z</time>
      </trkpt>
      <trkpt lat="47.48965" lon="-0.58332">
        <ele>48.78630828857</ele>
        <time>2020-06-19T08:50:43.349Z</time>
      </trkpt>
      <trkpt lat="47.48907" lon="-0.58438">
        <ele>48.08072662354</ele>
        <time>2020-06-19T08:50:43.895Z</time>
      </trkpt>
      <trkpt lat="47.48907" lon="-0.58439">
        <ele>48.0578956604</ele>
        <time>2020-06-19T08:50:44.441Z</time>
      </trkpt>
      <trkpt lat="47.48834" lon="-0.58573">
        <ele>43.98014831543</ele>
        <time>2020-06-19T08:50:45.006Z</time>
      </trkpt>
      <trkpt lat="47.4882" lon="-0.586">
        <ele>44.47414016724</ele>
        <time>2020-06-19T08:50:45.574Z</time>
      </trkpt>
      <trkpt lat="47.48815" lon="-0.58618">
        <ele>44.65410995483</ele>
        <time>2020-06-19T08:50:46.144Z</time>
      </trkpt>
      <trkpt lat="47.48805" lon="-0.58692">
        <ele>43.97756958008</ele>
        <time>2020-06-19T08:50:46.723Z</time>
      </trkpt>
      <trkpt lat="47.48806" lon="-0.58695">
        <ele>43.85758972168</ele>
        <time>2020-06-19T08:50:47.302Z</time>
      </trkpt>
      <trkpt lat="47.48808" lon="-0.58703">
        <ele>43.56963729858</ele>
        <time>2020-06-19T08:50:47.882Z</time>
      </trkpt>
      <trkpt lat="47.48807" lon="-0.58707">
        <ele>43.52164459229</ele>
        <time>2020-06-19T08:50:48.462Z</time>
      </trkpt>
      <trkpt lat="47.48807" lon="-0.58707">
        <ele>43.51955413818</ele>
        <time>2020-06-19T08:50:49.042Z</time>
      </trkpt>
      <trkpt lat="47.48805" lon="-0.58714">
        <ele>43.44965744019</ele>
        <time>2020-06-19T08:50:49.623Z</time>
      </trkpt>
      <trkpt lat="47.48801" lon="-0.5872">
        <ele>43.56723022461</ele>
        <time>2020-06-19T08:50:50.205Z</time>
      </trkpt>
      <trkpt lat="47.48796" lon="-0.58722">
        <ele>43.83118438721</ele>
        <time>2020-06-19T08:50:50.788Z</time>
      </trkpt>
      <trkpt lat="47.48791" lon="-0.58721">
        <ele>44.0591468811</ele>
        <time>2020-06-19T08:50:51.372Z</time>
      </trkpt>
      <trkpt lat="47.48787" lon="-0.58716">
        <ele>44.26552200317</ele>
        <time>2020-06-19T08:50:51.957Z</time>
      </trkpt>
      <trkpt lat="47.48784" lon="-0.58709">
        <ele>44.57746887207</ele>
        <time>2020-06-19T08:50:52.542Z</time>
      </trkpt>
      <trkpt lat="47.48783" lon="-0.58701">
        <ele>44.81742858887</ele>
        <time>2020-06-19T08:50:53.128Z</time>
      </trkpt>
      <trkpt lat="47.48783" lon="-0.58699">
        <ele>44.86542129517</ele>
        <time>2020-06-19T08:50:53.715Z</time>
      </trkpt>
      <trkpt lat="47.48757" lon="-0.5866">
        <ele>46.43844985962</ele>
        <time>2020-06-19T08:50:54.307Z</time>
      </trkpt>
      <trkpt lat="47.48736" lon="-0.58627">
        <ele>47.42437744141</ele>
        <time>2020-06-19T08:50:54.904Z</time>
      </trkpt>
      <trkpt lat="47.48735" lon="-0.58625">
        <ele>47.46919250488</ele>
        <time>2020-06-19T08:50:55.502Z</time>
      </trkpt>
      <trkpt lat="47.48707" lon="-0.58585">
        <ele>48.62417984009</ele>
        <time>2020-06-19T08:50:56.106Z</time>
      </trkpt>
      <trkpt lat="47.48681" lon="-0.58552">
        <ele>49.64400863647</ele>
        <time>2020-06-19T08:50:56.715Z</time>
      </trkpt>
      <trkpt lat="47.48661" lon="-0.5853">
        <ele>49.74357223511</ele>
        <time>2020-06-19T08:50:57.328Z</time>
      </trkpt>
      <trkpt lat="47.48628" lon="-0.58498">
        <ele>49.46166229248</ele>
        <time>2020-06-19T08:50:57.948Z</time>
      </trkpt>
      <trkpt lat="47.48575" lon="-0.58453">
        <ele>49.91728591919</ele>
        <time>2020-06-19T08:50:58.577Z</time>
      </trkpt>
      <trkpt lat="47.4852" lon="-0.58411">
        <ele>50.95653152466</ele>
        <time>2020-06-19T08:50:59.216Z</time>
      </trkpt>
      <trkpt lat="47.48492" lon="-0.58391">
        <ele>52.28017425537</ele>
        <time>2020-06-19T08:50:59.860Z</time>
      </trkpt>
      <trkpt lat="47.48491" lon="-0.58393">
        <ele>52.31616592407</ele>
        <time>2020-06-19T08:51:00.505Z</time>
      </trkpt>
      <trkpt lat="47.4849" lon="-0.58395">
        <ele>52.3457069397</ele>
        <time>2020-06-19T08:51:01.150Z</time>
      </trkpt>
      <trkpt lat="47.48482" lon="-0.58396">
        <ele>52.64011383057</ele>
        <time>2020-06-19T08:51:01.796Z</time>
      </trkpt>
      <trkpt lat="47.48475" lon="-0.5839">
        <ele>52.89207077026</ele>
        <time>2020-06-19T08:51:02.443Z</time>
      </trkpt>
      <trkpt lat="47.48473" lon="-0.58377">
        <ele>52.77981948853</ele>
        <time>2020-06-19T08:51:03.092Z</time>
      </trkpt>
      <trkpt lat="47.48474" lon="-0.58371">
        <ele>52.59984970093</ele>
        <time>2020-06-19T08:51:03.742Z</time>
      </trkpt>
      <trkpt lat="47.48467" lon="-0.58343">
        <ele>52.17992019653</ele>
        <time>2020-06-19T08:51:04.395Z</time>
      </trkpt>
      <trkpt lat="47.48446" lon="-0.58296">
        <ele>52.51723861694</ele>
        <time>2020-06-19T08:51:05.054Z</time>
      </trkpt>
      <trkpt lat="47.48382" lon="-0.58182">
        <ele>48.31019592285</ele>
        <time>2020-06-19T08:51:05.729Z</time>
      </trkpt>
      <trkpt lat="47.48326" lon="-0.58109">
        <ele>44.74482345581</ele>
        <time>2020-06-19T08:51:06.416Z</time>
      </trkpt>
      <trkpt lat="47.48283" lon="-0.58057">
        <ele>43.19707870483</ele>
        <time>2020-06-19T08:51:07.112Z</time>
      </trkpt>
      <trkpt lat="47.48273" lon="-0.5804">
        <ele>42.70169448853</ele>
        <time>2020-06-19T08:51:07.810Z</time>
      </trkpt>
      <trkpt lat="47.48265" lon="-0.58027">
        <ele>42.25776672363</ele>
        <time>2020-06-19T08:51:08.510Z</time>
      </trkpt>
      <trkpt lat="47.48244" lon="-0.57984">
        <ele>41.05487442017</ele>
        <time>2020-06-19T08:51:09.216Z</time>
      </trkpt>
      <trkpt lat="47.48237" lon="-0.57969">
        <ele>40.56674575806</ele>
        <time>2020-06-19T08:51:09.924Z</time>
      </trkpt>
      <trkpt lat="47.48236" lon="-0.57967">
        <ele>40.55444717407</ele>
        <time>2020-06-19T08:51:10.632Z</time>
      </trkpt>
      <trkpt lat="47.48221" lon="-0.57916">
        <ele>41.83504867554</ele>
        <time>2020-06-19T08:51:11.346Z</time>
      </trkpt>
      <trkpt lat="47.4821" lon="-0.5786">
        <ele>41.61586380005</ele>
        <time>2020-06-19T08:51:12.067Z</time>
      </trkpt>
      <trkpt lat="47.48203" lon="-0.57816">
        <ele>41.19593429565</ele>
        <time>2020-06-19T08:51:12.792Z</time>
      </trkpt>
      <trkpt lat="47.48189" lon="-0.57697">
        <ele>44.58638000488</ele>
        <time>2020-06-19T08:51:13.531Z</time>
      </trkpt>
      <trkpt lat="47.48147" lon="-0.57472">
        <ele>49.13332366943</ele>
        <time>2020-06-19T08:51:14.295Z</time>
      </trkpt>
      <trkpt lat="47.4814" lon="-0.57443">
        <ele>49.3166885376</ele>
        <time>2020-06-19T08:51:15.062Z</time>
      </trkpt>
      <trkpt lat="47.48125" lon="-0.57411">
        <ele>49.4966583252</ele>
        <time>2020-06-19T08:51:15.833Z</time>
      </trkpt>
      <trkpt lat="47.48104" lon="-0.57377">
        <ele>49.74861526489</ele>
        <time>2020-06-19T08:51:16.609Z</time>
      </trkpt>
      <trkpt lat="47.48102" lon="-0.57376">
        <ele>49.77260971069</ele>
        <time>2020-06-19T08:51:17.386Z</time>
      </trkpt>
      <trkpt lat="47.48099" lon="-0.57375">
        <ele>49.80860519409</ele>
        <time>2020-06-19T08:51:18.163Z</time>
      </trkpt>
      <trkpt lat="47.48097" lon="-0.57373">
        <ele>49.83259963989</ele>
        <time>2020-06-19T08:51:18.941Z</time>
      </trkpt>
      <trkpt lat="47.48095" lon="-0.5737">
        <ele>49.8258934021</ele>
        <time>2020-06-19T08:51:19.719Z</time>
      </trkpt>
      <trkpt lat="47.48094" lon="-0.57367">
        <ele>49.7898979187</ele>
        <time>2020-06-19T08:51:20.498Z</time>
      </trkpt>
      <trkpt lat="47.48094" lon="-0.57361">
        <ele>49.7179107666</ele>
        <time>2020-06-19T08:51:21.277Z</time>
      </trkpt>
      <trkpt lat="47.48059" lon="-0.5731">
        <ele>49</ele>
        <time>2020-06-19T08:51:22.064Z</time>
      </trkpt>
      <trkpt lat="47.48051" lon="-0.57298">
        <ele>48.96203613281</ele>
        <time>2020-06-19T08:51:22.853Z</time>
      </trkpt>
      <trkpt lat="47.48054" lon="-0.57289">
        <ele>48.85405349731</ele>
        <time>2020-06-19T08:51:23.643Z</time>
      </trkpt>
      <trkpt lat="47.48032" lon="-0.57255">
        <ele>48.1134262085</ele>
        <time>2020-06-19T08:51:24.438Z</time>
      </trkpt>
      <trkpt lat="47.48019" lon="-0.57235">
        <ele>47.08159637451</ele>
        <time>2020-06-19T08:51:25.236Z</time>
      </trkpt>
      <trkpt lat="47.48013" lon="-0.57225">
        <ele>46.57768249512</ele>
        <time>2020-06-19T08:51:26.036Z</time>
      </trkpt>
      <trkpt lat="47.48014" lon="-0.57226">
        <ele>46.61946105957</ele>
        <time>2020-06-19T08:51:26.836Z</time>
      </trkpt>
      <trkpt lat="47.48078" lon="-0.57326">
        <ele>49.23741912842</ele>
        <time>2020-06-19T08:51:27.651Z</time>
      </trkpt>
      <trkpt lat="47.48099" lon="-0.57352">
        <ele>49.6099281311</ele>
        <time>2020-06-19T08:51:28.470Z</time>
      </trkpt>
      <trkpt lat="47.481" lon="-0.57351">
        <ele>49.5979309082</ele>
        <time>2020-06-19T08:51:29.289Z</time>
      </trkpt>
      <trkpt lat="47.48102" lon="-0.5735">
        <ele>49.5859336853</ele>
        <time>2020-06-19T08:51:30.109Z</time>
      </trkpt>
      <trkpt lat="47.48105" lon="-0.5735">
        <ele>49.5859336853</ele>
        <time>2020-06-19T08:51:30.929Z</time>
      </trkpt>
      <trkpt lat="47.48109" lon="-0.57353">
        <ele>49.621925354</ele>
        <time>2020-06-19T08:51:31.750Z</time>
      </trkpt>
      <trkpt lat="47.48111" lon="-0.57358">
        <ele>49.66463088989</ele>
        <time>2020-06-19T08:51:32.571Z</time>
      </trkpt>
      <trkpt lat="47.48112" lon="-0.57366">
        <ele>49.65262985229</ele>
        <time>2020-06-19T08:51:33.393Z</time>
      </trkpt>
      <trkpt lat="47.48109" lon="-0.57374">
        <ele>49.68862533569</ele>
        <time>2020-06-19T08:51:34.216Z</time>
      </trkpt>
      <trkpt lat="47.48105" lon="-0.57377">
        <ele>49.73661804199</ele>
        <time>2020-06-19T08:51:35.040Z</time>
      </trkpt>
      <trkpt lat="47.481" lon="-0.57375">
        <ele>49.79660797119</ele>
        <time>2020-06-19T08:51:35.865Z</time>
      </trkpt>
      <trkpt lat="47.48096" lon="-0.57372">
        <ele>49.84460067749</ele>
        <time>2020-06-19T08:51:36.691Z</time>
      </trkpt>
      <trkpt lat="47.48094" lon="-0.57366">
        <ele>49.7779006958</ele>
        <time>2020-06-19T08:51:37.517Z</time>
      </trkpt>
      <trkpt lat="47.48094" lon="-0.57363">
        <ele>49.7419052124</ele>
        <time>2020-06-19T08:51:38.344Z</time>
      </trkpt>
      <trkpt lat="47.48094" lon="-0.57362">
        <ele>49.7299079895</ele>
        <time>2020-06-19T08:51:39.171Z</time>
      </trkpt>
      <trkpt lat="47.48073" lon="-0.57331">
        <ele>49.23741912842</ele>
        <time>2020-06-19T08:51:40.002Z</time>
      </trkpt>
      <trkpt lat="47.48029" lon="-0.57264">
        <ele>48.36538314819</ele>
        <time>2020-06-19T08:51:40.844Z</time>
      </trkpt>
      <trkpt lat="47.48003" lon="-0.57222">
        <ele>46.22974014282</ele>
        <time>2020-06-19T08:51:41.692Z</time>
      </trkpt>
      <trkpt lat="47.47969" lon="-0.57167">
        <ele>45.39030075073</ele>
        <time>2020-06-19T08:51:42.548Z</time>
      </trkpt>
      <trkpt lat="47.47942" lon="-0.57121">
        <ele>44.30770874023</ele>
        <time>2020-06-19T08:51:43.410Z</time>
      </trkpt>
      <trkpt lat="47.47914" lon="-0.57068">
        <ele>43.94353103638</ele>
        <time>2020-06-19T08:51:44.280Z</time>
      </trkpt>
      <trkpt lat="47.47887" lon="-0.57013">
        <ele>40.76170349121</ele>
        <time>2020-06-19T08:51:45.157Z</time>
      </trkpt>
      <trkpt lat="47.47835" lon="-0.56931">
        <ele>38.07176589966</ele>
        <time>2020-06-19T08:51:46.046Z</time>
      </trkpt>
      <trkpt lat="47.478" lon="-0.56873">
        <ele>38.27422714233</ele>
        <time>2020-06-19T08:51:46.944Z</time>
      </trkpt>
      <trkpt lat="47.47777" lon="-0.56839">
        <ele>38.65607833862</ele>
        <time>2020-06-19T08:51:47.847Z</time>
      </trkpt>
      <trkpt lat="47.47754" lon="-0.56814">
        <ele>38.10416793823</ele>
        <time>2020-06-19T08:51:48.754Z</time>
      </trkpt>
      <trkpt lat="47.47752" lon="-0.56814">
        <ele>38.05617523193</ele>
        <time>2020-06-19T08:51:49.662Z</time>
      </trkpt>
      <trkpt lat="47.4775" lon="-0.56813">
        <ele>38.00818634033</ele>
        <time>2020-06-19T08:51:50.570Z</time>
      </trkpt>
      <trkpt lat="47.47747" lon="-0.56809">
        <ele>37.904296875</ele>
        <time>2020-06-19T08:51:51.479Z</time>
      </trkpt>
      <trkpt lat="47.47746" lon="-0.56806">
        <ele>37.8683013916</ele>
        <time>2020-06-19T08:51:52.388Z</time>
      </trkpt>
      <trkpt lat="47.47728" lon="-0.56792">
        <ele>38.21790313721</ele>
        <time>2020-06-19T08:51:53.300Z</time>
      </trkpt>
      <trkpt lat="47.47697" lon="-0.56763">
        <ele>38.9137878418</ele>
        <time>2020-06-19T08:51:54.218Z</time>
      </trkpt>
      <trkpt lat="47.47696" lon="-0.56762">
        <ele>38.93854522705</ele>
        <time>2020-06-19T08:51:55.136Z</time>
      </trkpt>
      <trkpt lat="47.47671" lon="-0.5672">
        <ele>39.94561386108</ele>
        <time>2020-06-19T08:51:56.061Z</time>
      </trkpt>
      <trkpt lat="47.47638" lon="-0.5665">
        <ele>38.60628509521</ele>
        <time>2020-06-19T08:51:56.995Z</time>
      </trkpt>
      <trkpt lat="47.47619" lon="-0.56661">
        <ele>37.65844345093</ele>
        <time>2020-06-19T08:51:57.932Z</time>
      </trkpt>
      <trkpt lat="47.47605" lon="-0.56666">
        <ele>37.03454589844</ele>
        <time>2020-06-19T08:51:58.871Z</time>
      </trkpt>
      <trkpt lat="47.476" lon="-0.56665">
        <ele>36.87857055664</ele>
        <time>2020-06-19T08:51:59.811Z</time>
      </trkpt>
      <trkpt lat="47.47499" lon="-0.56723">
        <ele>31.94421958923</ele>
        <time>2020-06-19T08:52:00.769Z</time>
      </trkpt>
      <trkpt lat="47.47498" lon="-0.56724">
        <ele>31.94166564941</ele>
        <time>2020-06-19T08:52:01.727Z</time>
      </trkpt>
      <trkpt lat="47.47494" lon="-0.56729">
        <ele>31.93222045898</ele>
        <time>2020-06-19T08:52:02.686Z</time>
      </trkpt>
      <trkpt lat="47.47486" lon="-0.56734">
        <ele>31.96821403503</ele>
        <time>2020-06-19T08:52:03.646Z</time>
      </trkpt>
      <trkpt lat="47.47453" lon="-0.56751">
        <ele>31.83981704712</ele>
        <time>2020-06-19T08:52:04.612Z</time>
      </trkpt>
      <trkpt lat="47.4743" lon="-0.56764">
        <ele>31.71983718872</ele>
        <time>2020-06-19T08:52:05.581Z</time>
      </trkpt>
      <trkpt lat="47.47418" lon="-0.56767">
        <ele>31.61185455322</ele>
        <time>2020-06-19T08:52:06.552Z</time>
      </trkpt>
      <trkpt lat="47.47409" lon="-0.56764">
        <ele>31.29342842102</ele>
        <time>2020-06-19T08:52:07.525Z</time>
      </trkpt>
      <trkpt lat="47.47399" lon="-0.5676">
        <ele>30.88549613953</ele>
        <time>2020-06-19T08:52:08.500Z</time>
      </trkpt>
      <trkpt lat="47.4738" lon="-0.56736">
        <ele>30.12966537476</ele>
        <time>2020-06-19T08:52:09.479Z</time>
      </trkpt>
      <trkpt lat="47.47338" lon="-0.56679">
        <ele>29.24366569519</ele>
        <time>2020-06-19T08:52:10.467Z</time>
      </trkpt>
      <trkpt lat="47.47338" lon="-0.56678">
        <ele>29.21728515625</ele>
        <time>2020-06-19T08:52:11.455Z</time>
      </trkpt>
      <trkpt lat="47.47286" lon="-0.56601">
        <ele>27.47347068787</ele>
        <time>2020-06-19T08:52:12.455Z</time>
      </trkpt>
      <trkpt lat="47.47224" lon="-0.56683">
        <ele>26.6931438446</ele>
        <time>2020-06-19T08:52:13.468Z</time>
      </trkpt>
      <trkpt lat="47.47223" lon="-0.56684">
        <ele>26.68610191345</ele>
        <time>2020-06-19T08:52:14.481Z</time>
      </trkpt>
      <trkpt lat="47.47209" lon="-0.567">
        <ele>26.51317405701</ele>
        <time>2020-06-19T08:52:15.497Z</time>
      </trkpt>
      <trkpt lat="47.47206" lon="-0.567">
        <ele>26.47718048096</ele>
        <time>2020-06-19T08:52:16.513Z</time>
      </trkpt>
      <trkpt lat="47.47203" lon="-0.56699">
        <ele>26.44118690491</ele>
        <time>2020-06-19T08:52:17.530Z</time>
      </trkpt>
      <trkpt lat="47.47202" lon="-0.56707">
        <ele>26.42918777466</ele>
        <time>2020-06-19T08:52:18.548Z</time>
      </trkpt>
      <trkpt lat="47.472" lon="-0.56712">
        <ele>26.40519142151</ele>
        <time>2020-06-19T08:52:19.566Z</time>
      </trkpt>
      <trkpt lat="47.47197" lon="-0.56718">
        <ele>26.36280441284</ele>
        <time>2020-06-19T08:52:20.585Z</time>
      </trkpt>
      <trkpt lat="47.47194" lon="-0.56719">
        <ele>26.30281448364</ele>
        <time>2020-06-19T08:52:21.605Z</time>
      </trkpt>
      <trkpt lat="47.47193" lon="-0.56719">
        <ele>26.27672576904</ele>
        <time>2020-06-19T08:52:22.625Z</time>
      </trkpt>
      <trkpt lat="47.47188" lon="-0.56721">
        <ele>26.18283462524</ele>
        <time>2020-06-19T08:52:23.646Z</time>
      </trkpt>
      <trkpt lat="47.47184" lon="-0.5672">
        <ele>26.15883827209</ele>
        <time>2020-06-19T08:52:24.667Z</time>
      </trkpt>
      <trkpt lat="47.47178" lon="-0.56712">
        <ele>26.14123725891</ele>
        <time>2020-06-19T08:52:25.690Z</time>
      </trkpt>
      <trkpt lat="47.47177" lon="-0.56698">
        <ele>26.02171325684</ele>
        <time>2020-06-19T08:52:26.714Z</time>
      </trkpt>
      <trkpt lat="47.47178" lon="-0.56693">
        <ele>25.98571968079</ele>
        <time>2020-06-19T08:52:27.739Z</time>
      </trkpt>
      <trkpt lat="47.47173" lon="-0.56669">
        <ele>25.57778739929</ele>
        <time>2020-06-19T08:52:28.766Z</time>
      </trkpt>
      <trkpt lat="47.47164" lon="-0.56643">
        <ele>25.0498752594</ele>
        <time>2020-06-19T08:52:29.797Z</time>
      </trkpt>
      <trkpt lat="47.47163" lon="-0.56641">
        <ele>25.00951957703</ele>
        <time>2020-06-19T08:52:30.828Z</time>
      </trkpt>
      <trkpt lat="47.47148" lon="-0.56598">
        <ele>24.34557723999</ele>
        <time>2020-06-19T08:52:31.864Z</time>
      </trkpt>
      <trkpt lat="47.47118" lon="-0.5652">
        <ele>23</ele>
        <time>2020-06-19T08:52:32.910Z</time>
      </trkpt>
      <trkpt lat="47.4708" lon="-0.56423">
        <ele>19.8897151947</ele>
        <time>2020-06-19T08:52:33.968Z</time>
      </trkpt>
      <trkpt lat="47.47021" lon="-0.56271">
        <ele>16.56462669373</ele>
        <time>2020-06-19T08:52:35.045Z</time>
      </trkpt>
      <trkpt lat="47.4702" lon="-0.5627">
        <ele>16.62611198425</ele>
        <time>2020-06-19T08:52:36.122Z</time>
      </trkpt>
      <trkpt lat="47.47015" lon="-0.56263">
        <ele>16.99655532837</ele>
        <time>2020-06-19T08:52:37.200Z</time>
      </trkpt>
      <trkpt lat="47.47013" lon="-0.56259">
        <ele>17.18852424622</ele>
        <time>2020-06-19T08:52:38.279Z</time>
      </trkpt>
      <trkpt lat="47.4698" lon="-0.56183">
        <ele>25.13827896118</ele>
        <time>2020-06-19T08:52:39.368Z</time>
      </trkpt>
      <trkpt lat="47.46956" lon="-0.5612">
        <ele>33.24534225464</ele>
        <time>2020-06-19T08:52:40.465Z</time>
      </trkpt>
      <trkpt lat="47.4695" lon="-0.56101">
        <ele>35.9448928833</ele>
        <time>2020-06-19T08:52:41.564Z</time>
      </trkpt>
      <trkpt lat="47.46948" lon="-0.56087">
        <ele>36.18584442139</ele>
        <time>2020-06-19T08:52:42.664Z</time>
      </trkpt>
      <trkpt lat="47.46929" lon="-0.56038">
        <ele>37.92411422729</ele>
        <time>2020-06-19T08:52:43.771Z</time>
      </trkpt>
      <trkpt lat="47.46878" lon="-0.55909">
        <ele>40.05179214478</ele>
        <time>2020-06-19T08:52:44.894Z</time>
      </trkpt>
      <trkpt lat="47.46868" lon="-0.55887">
        <ele>39.64385986328</ele>
        <time>2020-06-19T08:52:46.020Z</time>
      </trkpt>
      <trkpt lat="47.46867" lon="-0.55886">
        <ele>39.61468887329</ele>
        <time>2020-06-19T08:52:47.146Z</time>
      </trkpt>
      <trkpt lat="47.46861" lon="-0.5587">
        <ele>39.83323669434</ele>
        <time>2020-06-19T08:52:48.274Z</time>
      </trkpt>
      <trkpt lat="47.4686" lon="-0.55869">
        <ele>39.85723495483</ele>
        <time>2020-06-19T08:52:49.402Z</time>
      </trkpt>
      <trkpt lat="47.46858" lon="-0.55867">
        <ele>39.90522384644</ele>
        <time>2020-06-19T08:52:50.530Z</time>
      </trkpt>
      <trkpt lat="47.46857" lon="-0.55861">
        <ele>39.98921203613</ele>
        <time>2020-06-19T08:52:51.659Z</time>
      </trkpt>
      <trkpt lat="47.46858" lon="-0.55858">
        <ele>40.02641296387</ele>
        <time>2020-06-19T08:52:52.788Z</time>
      </trkpt>
      <trkpt lat="47.46852" lon="-0.55841">
        <ele>40.57832336426</ele>
        <time>2020-06-19T08:52:53.919Z</time>
      </trkpt>
      <trkpt lat="47.46743" lon="-0.55571">
        <ele>44.98438262939</ele>
        <time>2020-06-19T08:52:55.085Z</time>
      </trkpt>
      <trkpt lat="47.46679" lon="-0.55408">
        <ele>47.7258682251</ele>
        <time>2020-06-19T08:52:56.271Z</time>
      </trkpt>
      <trkpt lat="47.46675" lon="-0.55397">
        <ele>47.4139175415</ele>
        <time>2020-06-19T08:52:57.458Z</time>
      </trkpt>
      <trkpt lat="47.46674" lon="-0.55395">
        <ele>47.36808395386</ele>
        <time>2020-06-19T08:52:58.646Z</time>
      </trkpt>
      <trkpt lat="47.4662" lon="-0.55258">
        <ele>51.0277671814</ele>
        <time>2020-06-19T08:52:59.851Z</time>
      </trkpt>
      <trkpt lat="47.46555" lon="-0.55085">
        <ele>49.07694625854</ele>
        <time>2020-06-19T08:53:01.077Z</time>
      </trkpt>
      <trkpt lat="47.4651" lon="-0.54974">
        <ele>45.53708648682</ele>
        <time>2020-06-19T08:53:02.317Z</time>
      </trkpt>
      <trkpt lat="47.46489" lon="-0.54922">
        <ele>45.92136764526</ele>
        <time>2020-06-19T08:53:03.564Z</time>
      </trkpt>
      <trkpt lat="47.46482" lon="-0.54905">
        <ele>46.37729263306</ele>
        <time>2020-06-19T08:53:04.813Z</time>
      </trkpt>
      <trkpt lat="47.46481" lon="-0.54905">
        <ele>46.41328811646</ele>
        <time>2020-06-19T08:53:06.062Z</time>
      </trkpt>
      <trkpt lat="47.46478" lon="-0.54904">
        <ele>46.51472854614</ele>
        <time>2020-06-19T08:53:07.312Z</time>
      </trkpt>
      <trkpt lat="47.46475" lon="-0.54903">
        <ele>46.58671569824</ele>
        <time>2020-06-19T08:53:08.562Z</time>
      </trkpt>
      <trkpt lat="47.4647" lon="-0.54897">
        <ele>46.70669555664</ele>
        <time>2020-06-19T08:53:09.813Z</time>
      </trkpt>
      <trkpt lat="47.46467" lon="-0.54888">
        <ele>46.77868270874</ele>
        <time>2020-06-19T08:53:11.065Z</time>
      </trkpt>
      <trkpt lat="47.46467" lon="-0.54883">
        <ele>46.77868270874</ele>
        <time>2020-06-19T08:53:12.318Z</time>
      </trkpt>
      <trkpt lat="47.46467" lon="-0.54881">
        <ele>46.77868270874</ele>
        <time>2020-06-19T08:53:13.571Z</time>
      </trkpt>
      <trkpt lat="47.4642" lon="-0.54849">
        <ele>47.15786743164</ele>
        <time>2020-06-19T08:53:14.832Z</time>
      </trkpt>
      <trkpt lat="47.46385" lon="-0.54826">
        <ele>45.85960388184</ele>
        <time>2020-06-19T08:53:16.100Z</time>
      </trkpt>
      <trkpt lat="47.46385" lon="-0.54825">
        <ele>45.83560943604</ele>
        <time>2020-06-19T08:53:17.368Z</time>
      </trkpt>
      <trkpt lat="47.46383" lon="-0.54824">
        <ele>45.77298736572</ele>
        <time>2020-06-19T08:53:18.636Z</time>
      </trkpt>
      <trkpt lat="47.45919" lon="-0.54542">
        <ele>40.03575515747</ele>
        <time>2020-06-19T08:53:19.984Z</time>
      </trkpt>
      <trkpt lat="47.45916" lon="-0.54543">
        <ele>39.99927902222</ele>
        <time>2020-06-19T08:53:21.333Z</time>
      </trkpt>
      <trkpt lat="47.45907" lon="-0.54538">
        <ele>39.67533493042</ele>
        <time>2020-06-19T08:53:22.683Z</time>
      </trkpt>
      <trkpt lat="47.45874" lon="-0.54519">
        <ele>38.48753356934</ele>
        <time>2020-06-19T08:53:24.039Z</time>
      </trkpt>
      <trkpt lat="47.45852" lon="-0.54509">
        <ele>37.42716598511</ele>
        <time>2020-06-19T08:53:25.399Z</time>
      </trkpt>
      <trkpt lat="47.45841" lon="-0.54501">
        <ele>36.80326843262</ele>
        <time>2020-06-19T08:53:26.761Z</time>
      </trkpt>
      <trkpt lat="47.45836" lon="-0.54496">
        <ele>36.50331878662</ele>
        <time>2020-06-19T08:53:28.124Z</time>
      </trkpt>
      <trkpt lat="47.45833" lon="-0.54501">
        <ele>36.41933441162</ele>
        <time>2020-06-19T08:53:29.487Z</time>
      </trkpt>
      <trkpt lat="47.4583" lon="-0.54503">
        <ele>36.45969390869</ele>
        <time>2020-06-19T08:53:30.851Z</time>
      </trkpt>
      <trkpt lat="47.4582" lon="-0.54495">
        <ele>36.48368835449</ele>
        <time>2020-06-19T08:53:32.217Z</time>
      </trkpt>
      <trkpt lat="47.45781" lon="-0.54453">
        <ele>36.51682281494</ele>
        <time>2020-06-19T08:53:33.590Z</time>
      </trkpt>
      <trkpt lat="47.45754" lon="-0.54437">
        <ele>36.78456878662</ele>
        <time>2020-06-19T08:53:34.968Z</time>
      </trkpt>
      <trkpt lat="47.45734" lon="-0.54422">
        <ele>36.90454864502</ele>
        <time>2020-06-19T08:53:36.350Z</time>
      </trkpt>
      <trkpt lat="47.45617" lon="-0.5434">
        <ele>36.88080978394</ele>
        <time>2020-06-19T08:53:37.752Z</time>
      </trkpt>
      <trkpt lat="47.4561" lon="-0.54336">
        <ele>36.80882263184</ele>
        <time>2020-06-19T08:53:39.156Z</time>
      </trkpt>
      <trkpt lat="47.45355" lon="-0.54154">
        <ele>37.25873565674</ele>
        <time>2020-06-19T08:53:40.605Z</time>
      </trkpt>
      <trkpt lat="47.45317" lon="-0.54127">
        <ele>36.27066421509</ele>
        <time>2020-06-19T08:53:42.061Z</time>
      </trkpt>
      <trkpt lat="47.45291" lon="-0.54115">
        <ele>36.72658920288</ele>
        <time>2020-06-19T08:53:43.521Z</time>
      </trkpt>
      <trkpt lat="47.4527" lon="-0.54104">
        <ele>37</ele>
        <time>2020-06-19T08:53:44.985Z</time>
      </trkpt>
      <trkpt lat="47.45265" lon="-0.54105">
        <ele>37</ele>
        <time>2020-06-19T08:53:46.449Z</time>
      </trkpt>
      <trkpt lat="47.45256" lon="-0.54103">
        <ele>37</ele>
        <time>2020-06-19T08:53:47.915Z</time>
      </trkpt>
      <trkpt lat="47.45249" lon="-0.54093">
        <ele>37.01453018188</ele>
        <time>2020-06-19T08:53:49.383Z</time>
      </trkpt>
      <trkpt lat="47.4521" lon="-0.54057">
        <ele>40.14276123047</ele>
        <time>2020-06-19T08:53:50.858Z</time>
      </trkpt>
      <trkpt lat="47.45094" lon="-0.53985">
        <ele>39.65110015869</ele>
        <time>2020-06-19T08:53:52.353Z</time>
      </trkpt>
      <trkpt lat="47.45018" lon="-0.53938">
        <ele>37.90013122559</ele>
        <time>2020-06-19T08:53:53.861Z</time>
      </trkpt>
      <trkpt lat="47.45017" lon="-0.53937">
        <ele>37.93232727051</ele>
        <time>2020-06-19T08:53:55.369Z</time>
      </trkpt>
      <trkpt lat="47.44889" lon="-0.53859">
        <ele>35.63161468506</ele>
        <time>2020-06-19T08:53:56.900Z</time>
      </trkpt>
      <trkpt lat="47.44877" lon="-0.53854">
        <ele>35.31966400146</ele>
        <time>2020-06-19T08:53:58.433Z</time>
      </trkpt>
      <trkpt lat="47.44868" lon="-0.53853">
        <ele>35.01971435547</ele>
        <time>2020-06-19T08:53:59.967Z</time>
      </trkpt>
      <trkpt lat="47.44861" lon="-0.53856">
        <ele>34.69577026367</ele>
        <time>2020-06-19T08:54:01.502Z</time>
      </trkpt>
      <trkpt lat="47.44858" lon="-0.5386">
        <ele>34.49180221558</ele>
        <time>2020-06-19T08:54:03.038Z</time>
      </trkpt>
      <trkpt lat="47.44853" lon="-0.53864">
        <ele>34.21585083008</ele>
        <time>2020-06-19T08:54:04.575Z</time>
      </trkpt>
      <trkpt lat="47.44842" lon="-0.53867">
        <ele>33.65873336792</ele>
        <time>2020-06-19T08:54:06.114Z</time>
      </trkpt>
      <trkpt lat="47.44831" lon="-0.53863">
        <ele>33.3233757019</ele>
        <time>2020-06-19T08:54:07.654Z</time>
      </trkpt>
      <trkpt lat="47.44825" lon="-0.53856">
        <ele>33.6953125</ele>
        <time>2020-06-19T08:54:09.196Z</time>
      </trkpt>
      <trkpt lat="47.44821" lon="-0.53848">
        <ele>33.9832649231</ele>
        <time>2020-06-19T08:54:10.739Z</time>
      </trkpt>
      <trkpt lat="47.44817" lon="-0.53832">
        <ele>34.36720275879</ele>
        <time>2020-06-19T08:54:12.284Z</time>
      </trkpt>
      <trkpt lat="47.44819" lon="-0.53819">
        <ele>34.42719268799</ele>
        <time>2020-06-19T08:54:13.830Z</time>
      </trkpt>
      <trkpt lat="47.44824" lon="-0.53806">
        <ele>34.23209762573</ele>
        <time>2020-06-19T08:54:15.378Z</time>
      </trkpt>
      <trkpt lat="47.4483" lon="-0.53798">
        <ele>34.09199523926</ele>
        <time>2020-06-19T08:54:16.927Z</time>
      </trkpt>
      <trkpt lat="47.44838" lon="-0.53794">
        <ele>34.35565948486</ele>
        <time>2020-06-19T08:54:18.477Z</time>
      </trkpt>
      <trkpt lat="47.44845" lon="-0.53788">
        <ele>34.75159454346</ele>
        <time>2020-06-19T08:54:20.029Z</time>
      </trkpt>
      <trkpt lat="47.4485" lon="-0.5378">
        <ele>35.12353134155</ele>
        <time>2020-06-19T08:54:21.582Z</time>
      </trkpt>
      <trkpt lat="47.44856" lon="-0.53763">
        <ele>35.74742889404</ele>
        <time>2020-06-19T08:54:23.137Z</time>
      </trkpt>
      <trkpt lat="47.44862" lon="-0.53694">
        <ele>36.22533416748</ele>
        <time>2020-06-19T08:54:24.699Z</time>
      </trkpt>
      <trkpt lat="47.44862" lon="-0.53691">
        <ele>36.12229537964</ele>
        <time>2020-06-19T08:54:26.262Z</time>
      </trkpt>
      <trkpt lat="47.44864" lon="-0.53671">
        <ele>35.82315444946</ele>
        <time>2020-06-19T08:54:27.827Z</time>
      </trkpt>
      <trkpt lat="47.44785" lon="-0.53668">
        <ele>35.97927474976</ele>
        <time>2020-06-19T08:54:29.405Z</time>
      </trkpt>
      <trkpt lat="47.44705" lon="-0.53656">
        <ele>35.73550033569</ele>
        <time>2020-06-19T08:54:30.995Z</time>
      </trkpt>
      <trkpt lat="47.44598" lon="-0.5364">
        <ele>34.11304473877</ele>
        <time>2020-06-19T08:54:32.603Z</time>
      </trkpt>
      <trkpt lat="47.44584" lon="-0.53636">
        <ele>33.99306488037</ele>
        <time>2020-06-19T08:54:34.213Z</time>
      </trkpt>
      <trkpt lat="47.44574" lon="-0.53628">
        <ele>34</ele>
        <time>2020-06-19T08:54:35.825Z</time>
      </trkpt>
      <trkpt lat="47.44566" lon="-0.5362">
        <ele>34</ele>
        <time>2020-06-19T08:54:37.438Z</time>
      </trkpt>
      <trkpt lat="47.44562" lon="-0.5361">
        <ele>34</ele>
        <time>2020-06-19T08:54:39.053Z</time>
      </trkpt>
      <trkpt lat="47.44538" lon="-0.53584">
        <ele>33.86798095703</ele>
        <time>2020-06-19T08:54:40.672Z</time>
      </trkpt>
      <trkpt lat="47.44537" lon="-0.53583">
        <ele>33.85121154785</ele>
        <time>2020-06-19T08:54:42.291Z</time>
      </trkpt>
      <trkpt lat="47.44488" lon="-0.53532">
        <ele>33.08904647827</ele>
        <time>2020-06-19T08:54:43.920Z</time>
      </trkpt>
      <trkpt lat="47.44469" lon="-0.53519">
        <ele>33.01705932617</ele>
        <time>2020-06-19T08:54:45.552Z</time>
      </trkpt>
      <trkpt lat="47.44449" lon="-0.53512">
        <ele>32.86108398438</ele>
        <time>2020-06-19T08:54:47.188Z</time>
      </trkpt>
      <trkpt lat="47.44426" lon="-0.5351">
        <ele>32.60912704468</ele>
        <time>2020-06-19T08:54:48.827Z</time>
      </trkpt>
      <trkpt lat="47.444" lon="-0.53513">
        <ele>32.26118469238</ele>
        <time>2020-06-19T08:54:50.471Z</time>
      </trkpt>
      <trkpt lat="47.44365" lon="-0.5352">
        <ele>31.75726890564</ele>
        <time>2020-06-19T08:54:52.120Z</time>
      </trkpt>
      <trkpt lat="47.44337" lon="-0.53522">
        <ele>31.10983467102</ele>
        <time>2020-06-19T08:54:53.774Z</time>
      </trkpt>
      <trkpt lat="47.44336" lon="-0.53522">
        <ele>31.07314491272</ele>
        <time>2020-06-19T08:54:55.428Z</time>
      </trkpt>
      <trkpt lat="47.44336" lon="-0.53522">
        <ele>31.07312965393</ele>
        <time>2020-06-19T08:54:57.082Z</time>
      </trkpt>
      <trkpt lat="47.44317" lon="-0.53519">
        <ele>30.44487190247</ele>
        <time>2020-06-19T08:54:58.739Z</time>
      </trkpt>
      <trkpt lat="47.44275" lon="-0.53507">
        <ele>29.1444644928</ele>
        <time>2020-06-19T08:55:00.403Z</time>
      </trkpt>
      <trkpt lat="47.44234" lon="-0.53486">
        <ele>28.95521736145</ele>
        <time>2020-06-19T08:55:02.074Z</time>
      </trkpt>
      <trkpt lat="47.44217" lon="-0.53478">
        <ele>28.48966598511</ele>
        <time>2020-06-19T08:55:03.748Z</time>
      </trkpt>
      <trkpt lat="47.44214" lon="-0.53479">
        <ele>28.44167327881</ele>
        <time>2020-06-19T08:55:05.422Z</time>
      </trkpt>
      <trkpt lat="47.44143" lon="-0.5344">
        <ele>26.12836265564</ele>
        <time>2020-06-19T08:55:07.108Z</time>
      </trkpt>
      <trkpt lat="47.44125" lon="-0.5343">
        <ele>25.5764541626</ele>
        <time>2020-06-19T08:55:08.797Z</time>
      </trkpt>
      <trkpt lat="47.44096" lon="-0.5341">
        <ele>25.16339874268</ele>
        <time>2020-06-19T08:55:10.491Z</time>
      </trkpt>
      <trkpt lat="47.44038" lon="-0.53359">
        <ele>25</ele>
        <time>2020-06-19T08:55:12.196Z</time>
      </trkpt>
      <trkpt lat="47.44037" lon="-0.53358">
        <ele>25</ele>
        <time>2020-06-19T08:55:13.902Z</time>
      </trkpt>
      <trkpt lat="47.43902" lon="-0.53242">
        <ele>23.17893600464</ele>
        <time>2020-06-19T08:55:15.632Z</time>
      </trkpt>
      <trkpt lat="47.43827" lon="-0.53191">
        <ele>20.69156265259</ele>
        <time>2020-06-19T08:55:17.376Z</time>
      </trkpt>
      <trkpt lat="47.43794" lon="-0.53171">
        <ele>21.54000282288</ele>
        <time>2020-06-19T08:55:19.125Z</time>
      </trkpt>
      <trkpt lat="47.43748" lon="-0.53147">
        <ele>20.98809432983</ele>
        <time>2020-06-19T08:55:20.882Z</time>
      </trkpt>
      <trkpt lat="47.43711" lon="-0.5313">
        <ele>20.4985408783</ele>
        <time>2020-06-19T08:55:22.645Z</time>
      </trkpt>
      <trkpt lat="47.4371" lon="-0.53131">
        <ele>20.4985408783</ele>
        <time>2020-06-19T08:55:24.409Z</time>
      </trkpt>
      <trkpt lat="47.43708" lon="-0.53131">
        <ele>20.47454452515</ele>
        <time>2020-06-19T08:55:26.173Z</time>
      </trkpt>
      <trkpt lat="47.43706" lon="-0.53131">
        <ele>20.450548172</ele>
        <time>2020-06-19T08:55:27.937Z</time>
      </trkpt>
      <trkpt lat="47.43702" lon="-0.53128">
        <ele>20.36656188965</ele>
        <time>2020-06-19T08:55:29.702Z</time>
      </trkpt>
      <trkpt lat="47.43701" lon="-0.53126">
        <ele>20.3305683136</ele>
        <time>2020-06-19T08:55:31.467Z</time>
      </trkpt>
      <trkpt lat="47.43689" lon="-0.53119">
        <ele>20.10260772705</ele>
        <time>2020-06-19T08:55:33.234Z</time>
      </trkpt>
      <trkpt lat="47.43661" lon="-0.5311">
        <ele>20.34132003784</ele>
        <time>2020-06-19T08:55:35.006Z</time>
      </trkpt>
      <trkpt lat="47.43658" lon="-0.53107">
        <ele>20.41330718994</ele>
        <time>2020-06-19T08:55:36.778Z</time>
      </trkpt>
      <trkpt lat="47.43635" lon="-0.53101">
        <ele>20.76124954224</ele>
        <time>2020-06-19T08:55:38.554Z</time>
      </trkpt>
      <trkpt lat="47.43614" lon="-0.53093">
        <ele>20.89080810547</ele>
        <time>2020-06-19T08:55:40.334Z</time>
      </trkpt>
      <trkpt lat="47.43604" lon="-0.5309">
        <ele>20.73483467102</ele>
        <time>2020-06-19T08:55:42.115Z</time>
      </trkpt>
      <trkpt lat="47.43603" lon="-0.5309">
        <ele>20.72283744812</ele>
        <time>2020-06-19T08:55:43.896Z</time>
      </trkpt>
      <trkpt lat="47.43603" lon="-0.5309">
        <ele>20.71409606934</ele>
        <time>2020-06-19T08:55:45.678Z</time>
      </trkpt>
      <trkpt lat="47.4357" lon="-0.53078">
        <ele>20.18292617798</ele>
        <time>2020-06-19T08:55:47.465Z</time>
      </trkpt>
      <trkpt lat="47.43464" lon="-0.53021">
        <ele>21.35341072083</ele>
        <time>2020-06-19T08:55:49.270Z</time>
      </trkpt>
      <trkpt lat="47.43445" lon="-0.53013">
        <ele>21.35270118713</ele>
        <time>2020-06-19T08:55:51.078Z</time>
      </trkpt>
      <trkpt lat="47.43427" lon="-0.53002">
        <ele>21.13673782349</ele>
        <time>2020-06-19T08:55:52.889Z</time>
      </trkpt>
      <trkpt lat="47.43419" lon="-0.52998">
        <ele>21.04075241089</ele>
        <time>2020-06-19T08:55:54.702Z</time>
      </trkpt>
      <trkpt lat="47.43381" lon="-0.52976">
        <ele>21</ele>
        <time>2020-06-19T08:55:56.521Z</time>
      </trkpt>
      <trkpt lat="47.4337" lon="-0.52965">
        <ele>21.02529907227</ele>
        <time>2020-06-19T08:55:58.342Z</time>
      </trkpt>
      <trkpt lat="47.4336" lon="-0.52965">
        <ele>21.02529907227</ele>
        <time>2020-06-19T08:56:00.165Z</time>
      </trkpt>
      <trkpt lat="47.4335" lon="-0.52958">
        <ele>21.10928535461</ele>
        <time>2020-06-19T08:56:01.990Z</time>
      </trkpt>
      <trkpt lat="47.43346" lon="-0.52955">
        <ele>21.14527893066</ele>
        <time>2020-06-19T08:56:03.815Z</time>
      </trkpt>
      <trkpt lat="47.43343" lon="-0.52957">
        <ele>21.12128257751</ele>
        <time>2020-06-19T08:56:05.641Z</time>
      </trkpt>
      <trkpt lat="47.43337" lon="-0.52955">
        <ele>21.05691719055</ele>
        <time>2020-06-19T08:56:07.468Z</time>
      </trkpt>
      <trkpt lat="47.4331" lon="-0.52938">
        <ele>21.26702880859</ele>
        <time>2020-06-19T08:56:09.300Z</time>
      </trkpt>
      <trkpt lat="47.43208" lon="-0.52883">
        <ele>22.00008201599</ele>
        <time>2020-06-19T08:56:11.149Z</time>
      </trkpt>
      <trkpt lat="47.43166" lon="-0.5286">
        <ele>21</ele>
        <time>2020-06-19T08:56:13.005Z</time>
      </trkpt>
      <trkpt lat="47.43146" lon="-0.52852">
        <ele>20.53059768677</ele>
        <time>2020-06-19T08:56:14.864Z</time>
      </trkpt>
      <trkpt lat="47.4308" lon="-0.52829">
        <ele>19.02656936646</ele>
        <time>2020-06-19T08:56:16.734Z</time>
      </trkpt>
      <trkpt lat="47.43073" lon="-0.52827">
        <ele>19.11050224304</ele>
        <time>2020-06-19T08:56:18.605Z</time>
      </trkpt>
      <trkpt lat="47.43073" lon="-0.52828">
        <ele>19.11221313477</ele>
        <time>2020-06-19T08:56:20.477Z</time>
      </trkpt>
      <trkpt lat="47.43073" lon="-0.52828">
        <ele>19.1127166748</ele>
        <time>2020-06-19T08:56:22.349Z</time>
      </trkpt>
      <trkpt lat="47.43046" lon="-0.52818">
        <ele>19.43824768066</ele>
        <time>2020-06-19T08:56:24.225Z</time>
      </trkpt>
      <trkpt lat="47.42981" lon="-0.52796">
        <ele>20</ele>
        <time>2020-06-19T08:56:26.112Z</time>
      </trkpt>
      <trkpt lat="47.42986" lon="-0.52739">
        <ele>20</ele>
        <time>2020-06-19T08:56:28.005Z</time>
      </trkpt>
      <trkpt lat="47.42986" lon="-0.52739">
        <ele>20</ele>
        <time>2020-06-19T08:56:29.898Z</time>
      </trkpt>
      <trkpt lat="47.42986" lon="-0.52739">
        <ele>20</ele>
        <time>2020-06-19T08:56:31.791Z</time>
      </trkpt>
      <trkpt lat="47.42986" lon="-0.52739">
        <ele>20</ele>
        <time>2020-06-19T08:56:33.684Z</time>
      </trkpt>
      <trkpt lat="47.42986" lon="-0.52739">
        <ele>20</ele>
        <time>2020-06-19T08:56:35.577Z</time>
      </trkpt>
      <trkpt lat="47.4299" lon="-0.52711">
        <ele>20.21523284912</ele>
        <time>2020-06-19T08:56:37.473Z</time>
      </trkpt>
      <trkpt lat="47.4296" lon="-0.52698">
        <ele>20.93588829041</ele>
        <time>2020-06-19T08:56:39.374Z</time>
      </trkpt>
      <trkpt lat="47.42944" lon="-0.52687">
        <ele>21.30240631104</ele>
        <time>2020-06-19T08:56:41.278Z</time>
      </trkpt>
      <trkpt lat="47.42916" lon="-0.52644">
        <ele>21.12219238281</ele>
        <time>2020-06-19T08:56:43.188Z</time>
      </trkpt>
      <trkpt lat="47.42915" lon="-0.52642">
        <ele>21.09685325623</ele>
        <time>2020-06-19T08:56:45.099Z</time>
      </trkpt>
      <trkpt lat="47.42915" lon="-0.52641">
        <ele>21.09423446655</ele>
        <time>2020-06-19T08:56:47.010Z</time>
      </trkpt>
      <trkpt lat="47.42915" lon="-0.52642">
        <ele>21.09453582764</ele>
        <time>2020-06-19T08:56:48.921Z</time>
      </trkpt>
      <trkpt lat="47.42913" lon="-0.52626">
        <ele>20.90754508972</ele>
        <time>2020-06-19T08:56:50.833Z</time>
      </trkpt>
      <trkpt lat="47.4292" lon="-0.52587">
        <ele>20.38846206665</ele>
        <time>2020-06-19T08:56:52.750Z</time>
      </trkpt>
      <trkpt lat="47.42848" lon="-0.52614">
        <ele>20.72511482239</ele>
        <time>2020-06-19T08:56:54.679Z</time>
      </trkpt>
      <trkpt lat="47.42838" lon="-0.52599">
        <ele>20.23606109619</ele>
        <time>2020-06-19T08:56:56.610Z</time>
      </trkpt>
      <trkpt lat="47.42838" lon="-0.52599">
        <ele>20.23596191406</ele>
        <time>2020-06-19T08:56:58.541Z</time>
      </trkpt>
      <trkpt lat="47.42834" lon="-0.52594">
        <ele>20.06861877441</ele>
        <time>2020-06-19T08:57:00.473Z</time>
      </trkpt>
      <trkpt lat="47.42847" lon="-0.52542">
        <ele>19.07591629028</ele>
        <time>2020-06-19T08:57:02.411Z</time>
      </trkpt>
      <trkpt lat="47.42847" lon="-0.52542">
        <ele>19.0742855072</ele>
        <time>2020-06-19T08:57:04.349Z</time>
      </trkpt>
      <trkpt lat="47.42847" lon="-0.52542">
        <ele>19.07448768616</ele>
        <time>2020-06-19T08:57:06.287Z</time>
      </trkpt>
      <trkpt lat="47.42883" lon="-0.52398">
        <ele>19.60513877869</ele>
        <time>2020-06-19T08:57:08.241Z</time>
      </trkpt>
      <trkpt lat="47.42891" lon="-0.5233">
        <ele>19.70811843872</ele>
        <time>2020-06-19T08:57:10.203Z</time>
      </trkpt>
      <trkpt lat="47.42885" lon="-0.52211">
        <ele>19.44983673096</ele>
        <time>2020-06-19T08:57:12.178Z</time>
      </trkpt>
      <trkpt lat="47.42868" lon="-0.51947">
        <ele>19.09353256226</ele>
        <time>2020-06-19T08:57:14.182Z</time>
      </trkpt>
      <trkpt lat="47.42861" lon="-0.51843">
        <ele>16.48934936523</ele>
        <time>2020-06-19T08:57:16.197Z</time>
      </trkpt>
      <trkpt lat="47.42861" lon="-0.51843">
        <ele>16.48934936523</ele>
        <time>2020-06-19T08:57:18.212Z</time>
      </trkpt>
      <trkpt lat="47.42853" lon="-0.51722">
        <ele>18.39845657349</ele>
        <time>2020-06-19T08:57:20.240Z</time>
      </trkpt>
      <trkpt lat="47.42826" lon="-0.5163">
        <ele>19.07710266113</ele>
        <time>2020-06-19T08:57:22.279Z</time>
      </trkpt>
      <trkpt lat="47.42801" lon="-0.51586">
        <ele>19.37316894531</ele>
        <time>2020-06-19T08:57:24.324Z</time>
      </trkpt>
      <trkpt lat="47.42546" lon="-0.51226">
        <ele>19.09246635437</ele>
        <time>2020-06-19T08:57:26.426Z</time>
      </trkpt>
      <trkpt lat="47.42461" lon="-0.51054">
        <ele>17.90747642517</ele>
        <time>2020-06-19T08:57:28.551Z</time>
      </trkpt>
      <trkpt lat="47.42432" lon="-0.50965">
        <ele>20.16339111328</ele>
        <time>2020-06-19T08:57:30.687Z</time>
      </trkpt>
      <trkpt lat="47.42432" lon="-0.50964">
        <ele>20.16383171082</ele>
        <time>2020-06-19T08:57:32.823Z</time>
      </trkpt>
      <trkpt lat="47.42432" lon="-0.50964">
        <ele>20.1641330719</ele>
        <time>2020-06-19T08:57:34.959Z</time>
      </trkpt>
      <trkpt lat="47.42461" lon="-0.51054">
        <ele>17.90747642517</ele>
        <time>2020-06-19T08:57:37.106Z</time>
      </trkpt>
      <trkpt lat="47.42546" lon="-0.51226">
        <ele>19.09246635437</ele>
        <time>2020-06-19T08:57:39.276Z</time>
      </trkpt>
      <trkpt lat="47.42801" lon="-0.51586">
        <ele>19.37316894531</ele>
        <time>2020-06-19T08:57:41.502Z</time>
      </trkpt>
      <trkpt lat="47.42826" lon="-0.5163">
        <ele>19.07710266113</ele>
        <time>2020-06-19T08:57:43.734Z</time>
      </trkpt>
      <trkpt lat="47.42853" lon="-0.51722">
        <ele>18.39845657349</ele>
        <time>2020-06-19T08:57:45.977Z</time>
      </trkpt>
      <trkpt lat="47.42861" lon="-0.51843">
        <ele>16.48934936523</ele>
        <time>2020-06-19T08:57:48.233Z</time>
      </trkpt>
      <trkpt lat="47.42861" lon="-0.51843">
        <ele>16.48934936523</ele>
        <time>2020-06-19T08:57:50.489Z</time>
      </trkpt>
      <trkpt lat="47.42868" lon="-0.51947">
        <ele>19.09353256226</ele>
        <time>2020-06-19T08:57:52.757Z</time>
      </trkpt>
      <trkpt lat="47.42885" lon="-0.52211">
        <ele>19.44983673096</ele>
        <time>2020-06-19T08:57:55.054Z</time>
      </trkpt>
      <trkpt lat="47.42891" lon="-0.5233">
        <ele>19.70811843872</ele>
        <time>2020-06-19T08:57:57.364Z</time>
      </trkpt>
      <trkpt lat="47.42888" lon="-0.52355">
        <ele>19.66946029663</ele>
        <time>2020-06-19T08:57:59.676Z</time>
      </trkpt>
      <trkpt lat="47.42888" lon="-0.52356">
        <ele>19.66899681091</ele>
        <time>2020-06-19T08:58:01.988Z</time>
      </trkpt>
      <trkpt lat="47.42888" lon="-0.52356">
        <ele>19.66899681091</ele>
        <time>2020-06-19T08:58:04.300Z</time>
      </trkpt>
      <trkpt lat="47.42891" lon="-0.5233">
        <ele>19.70811843872</ele>
        <time>2020-06-19T08:58:06.615Z</time>
      </trkpt>
      <trkpt lat="47.42885" lon="-0.52211">
        <ele>19.44983673096</ele>
        <time>2020-06-19T08:58:08.943Z</time>
      </trkpt>
      <trkpt lat="47.42868" lon="-0.51947">
        <ele>19.09353256226</ele>
        <time>2020-06-19T08:58:11.300Z</time>
      </trkpt>
      <trkpt lat="47.42861" lon="-0.51843">
        <ele>16.48934936523</ele>
        <time>2020-06-19T08:58:13.668Z</time>
      </trkpt>
      <trkpt lat="47.42861" lon="-0.51843">
        <ele>16.48934936523</ele>
        <time>2020-06-19T08:58:16.036Z</time>
      </trkpt>
      <trkpt lat="47.42853" lon="-0.51722">
        <ele>18.39845657349</ele>
        <time>2020-06-19T08:58:18.418Z</time>
      </trkpt>
      <trkpt lat="47.42826" lon="-0.5163">
        <ele>19.07710266113</ele>
        <time>2020-06-19T08:58:20.810Z</time>
      </trkpt>
      <trkpt lat="47.42801" lon="-0.51586">
        <ele>19.37316894531</ele>
        <time>2020-06-19T08:58:23.209Z</time>
      </trkpt>
      <trkpt lat="47.42546" lon="-0.51226">
        <ele>19.09246635437</ele>
        <time>2020-06-19T08:58:25.664Z</time>
      </trkpt>
      <trkpt lat="47.42461" lon="-0.51054">
        <ele>17.90747642517</ele>
        <time>2020-06-19T08:58:28.142Z</time>
      </trkpt>
      <trkpt lat="47.42412" lon="-0.509">
        <ele>18.49573898315</ele>
        <time>2020-06-19T08:58:30.639Z</time>
      </trkpt>
      <trkpt lat="47.42412" lon="-0.509">
        <ele>18.4955368042</ele>
        <time>2020-06-19T08:58:33.136Z</time>
      </trkpt>
      <trkpt lat="47.42375" lon="-0.5077">
        <ele>16.63819313049</ele>
        <time>2020-06-19T08:58:35.648Z</time>
      </trkpt>
      <trkpt lat="47.42338" lon="-0.50573">
        <ele>20.13759994507</ele>
        <time>2020-06-19T08:58:38.182Z</time>
      </trkpt>
      <trkpt lat="47.42337" lon="-0.50428">
        <ele>18.4149646759</ele>
        <time>2020-06-19T08:58:40.732Z</time>
      </trkpt>
      <trkpt lat="47.42338" lon="-0.50407">
        <ele>18.64676856995</ele>
        <time>2020-06-19T08:58:43.284Z</time>
      </trkpt>
      <trkpt lat="47.42343" lon="-0.5036">
        <ele>19.29759025574</ele>
        <time>2020-06-19T08:58:45.842Z</time>
      </trkpt>
      <trkpt lat="47.42347" lon="-0.5034">
        <ele>19.68356132507</ele>
        <time>2020-06-19T08:58:48.402Z</time>
      </trkpt>
      <trkpt lat="47.42393" lon="-0.50147">
        <ele>18.79380607605</ele>
        <time>2020-06-19T08:58:50.984Z</time>
      </trkpt>
      <trkpt lat="47.42406" lon="-0.50088">
        <ele>18.33069992065</ele>
        <time>2020-06-19T08:58:53.573Z</time>
      </trkpt>
      <trkpt lat="47.4242" lon="-0.49975">
        <ele>17.1568107605</ele>
        <time>2020-06-19T08:58:56.174Z</time>
      </trkpt>
      <trkpt lat="47.42405" lon="-0.49778">
        <ele>18.87689399719</ele>
        <time>2020-06-19T08:58:58.797Z</time>
      </trkpt>
      <trkpt lat="47.42405" lon="-0.49778">
        <ele>18.87699508667</ele>
        <time>2020-06-19T08:59:01.420Z</time>
      </trkpt>
      <trkpt lat="47.42357" lon="-0.49689">
        <ele>18</ele>
        <time>2020-06-19T08:59:04.055Z</time>
      </trkpt>
      <trkpt lat="47.42268" lon="-0.4959">
        <ele>17.81380271912</ele>
        <time>2020-06-19T08:59:06.708Z</time>
      </trkpt>
      <trkpt lat="47.42268" lon="-0.4959">
        <ele>17.81370162964</ele>
        <time>2020-06-19T08:59:09.361Z</time>
      </trkpt>
      <trkpt lat="47.42192" lon="-0.49503">
        <ele>21.43581962585</ele>
        <time>2020-06-19T08:59:12.030Z</time>
      </trkpt>
      <trkpt lat="47.42153" lon="-0.49415">
        <ele>23.303565979</ele>
        <time>2020-06-19T08:59:14.710Z</time>
      </trkpt>
      <trkpt lat="47.42143" lon="-0.49353">
        <ele>22.21141052246</ele>
        <time>2020-06-19T08:59:17.397Z</time>
      </trkpt>
      <trkpt lat="47.42128" lon="-0.49117">
        <ele>20.62840461731</ele>
        <time>2020-06-19T08:59:20.110Z</time>
      </trkpt>
      <trkpt lat="47.42043" lon="-0.48867">
        <ele>19.42198944092</ele>
        <time>2020-06-19T08:59:22.853Z</time>
      </trkpt>
      <trkpt lat="47.42043" lon="-0.48867">
        <ele>19.42168807983</ele>
        <time>2020-06-19T08:59:25.596Z</time>
      </trkpt>
      <trkpt lat="47.41929" lon="-0.48474">
        <ele>21.35390853882</ele>
        <time>2020-06-19T08:59:28.385Z</time>
      </trkpt>
      <trkpt lat="47.41916" lon="-0.48365">
        <ele>20.20039558411</ele>
        <time>2020-06-19T08:59:31.187Z</time>
      </trkpt>
      <trkpt lat="47.41897" lon="-0.48161">
        <ele>18.09289932251</ele>
        <time>2020-06-19T08:59:34.011Z</time>
      </trkpt>
      <trkpt lat="47.41882" lon="-0.4799">
        <ele>17.92936325073</ele>
        <time>2020-06-19T08:59:36.854Z</time>
      </trkpt>
      <trkpt lat="47.41854" lon="-0.47501">
        <ele>20.41581344604</ele>
        <time>2020-06-19T08:59:39.750Z</time>
      </trkpt>
      <trkpt lat="47.41854" lon="-0.47501">
        <ele>20.41581344604</ele>
        <time>2020-06-19T08:59:42.646Z</time>
      </trkpt>
      <trkpt lat="47.41842" lon="-0.47255">
        <ele>20.82625198364</ele>
        <time>2020-06-19T08:59:45.569Z</time>
      </trkpt>
      <trkpt lat="47.41867" lon="-0.47018">
        <ele>22.4342212677</ele>
        <time>2020-06-19T08:59:48.518Z</time>
      </trkpt>
      <trkpt lat="47.41881" lon="-0.4668">
        <ele>17.23587036133</ele>
        <time>2020-06-19T08:59:51.504Z</time>
      </trkpt>
      <trkpt lat="47.41881" lon="-0.4668">
        <ele>17.24568939209</ele>
        <time>2020-06-19T08:59:54.490Z</time>
      </trkpt>
      <trkpt lat="47.41881" lon="-0.4668">
        <ele>17.24528694153</ele>
        <time>2020-06-19T08:59:57.476Z</time>
      </trkpt>
      <trkpt lat="47.41887" lon="-0.46535">
        <ele>17.46688461304</ele>
        <time>2020-06-19T09:00:00.477Z</time>
      </trkpt>
      <trkpt lat="47.41933" lon="-0.46278">
        <ele>20.04577636719</ele>
        <time>2020-06-19T09:00:03.507Z</time>
      </trkpt>
      <trkpt lat="47.4197" lon="-0.45868">
        <ele>16.60270500183</ele>
        <time>2020-06-19T09:00:06.582Z</time>
      </trkpt>
      <trkpt lat="47.41976" lon="-0.45439">
        <ele>17.63955688477</ele>
        <time>2020-06-19T09:00:09.704Z</time>
      </trkpt>
      <trkpt lat="47.41972" lon="-0.45365">
        <ele>17.38210678101</ele>
        <time>2020-06-19T09:00:12.834Z</time>
      </trkpt>
      <trkpt lat="47.41988" lon="-0.45257">
        <ele>18.34754180908</ele>
        <time>2020-06-19T09:00:15.976Z</time>
      </trkpt>
      <trkpt lat="47.42013" lon="-0.45188">
        <ele>19.48488235474</ele>
        <time>2020-06-19T09:00:19.127Z</time>
      </trkpt>
      <trkpt lat="47.42014" lon="-0.45187">
        <ele>19.50145721436</ele>
        <time>2020-06-19T09:00:22.278Z</time>
      </trkpt>
      <trkpt lat="47.42014" lon="-0.45187">
        <ele>19.50581932068</ele>
        <time>2020-06-19T09:00:25.429Z</time>
      </trkpt>
      <trkpt lat="47.42014" lon="-0.45187">
        <ele>19.50602149963</ele>
        <time>2020-06-19T09:00:28.580Z</time>
      </trkpt>
      <trkpt lat="47.42051" lon="-0.45086">
        <ele>19.25083732605</ele>
        <time>2020-06-19T09:00:31.743Z</time>
      </trkpt>
      <trkpt lat="47.42068" lon="-0.45069">
        <ele>18.63286018372</ele>
        <time>2020-06-19T09:00:34.909Z</time>
      </trkpt>
      <trkpt lat="47.42032" lon="-0.44974">
        <ele>18.80507087708</ele>
        <time>2020-06-19T09:00:38.087Z</time>
      </trkpt>
      <trkpt lat="47.4201" lon="-0.44923">
        <ele>19.37677192688</ele>
        <time>2020-06-19T09:00:41.272Z</time>
      </trkpt>
      <trkpt lat="47.42007" lon="-0.44913">
        <ele>19.53134346008</ele>
        <time>2020-06-19T09:00:44.458Z</time>
      </trkpt>
      <trkpt lat="47.41998" lon="-0.44907">
        <ele>19.63659095764</ele>
        <time>2020-06-19T09:00:47.646Z</time>
      </trkpt>
      <trkpt lat="47.41995" lon="-0.44885">
        <ele>19.75769233704</ele>
        <time>2020-06-19T09:00:50.836Z</time>
      </trkpt>
      <trkpt lat="47.42002" lon="-0.44878">
        <ele>19.92609786987</ele>
        <time>2020-06-19T09:00:54.027Z</time>
      </trkpt>
      <trkpt lat="47.42011" lon="-0.44877">
        <ele>19.77707862854</ele>
        <time>2020-06-19T09:00:57.220Z</time>
      </trkpt>
      <trkpt lat="47.42011" lon="-0.44864">
        <ele>19.69459533691</ele>
        <time>2020-06-19T09:01:00.414Z</time>
      </trkpt>
      <trkpt lat="47.42021" lon="-0.44685">
        <ele>18.92659759521</ele>
        <time>2020-06-19T09:01:03.628Z</time>
      </trkpt>
      <trkpt lat="47.42021" lon="-0.44685">
        <ele>18.9478263855</ele>
        <time>2020-06-19T09:01:06.842Z</time>
      </trkpt>
      <trkpt lat="47.42021" lon="-0.44685">
        <ele>18.9466342926</ele>
        <time>2020-06-19T09:01:10.056Z</time>
      </trkpt>
      <trkpt lat="47.42021" lon="-0.44685">
        <ele>18.94683456421</ele>
        <time>2020-06-19T09:01:13.270Z</time>
      </trkpt>
      <trkpt lat="47.42024" lon="-0.44622">
        <ele>20.19947624207</ele>
        <time>2020-06-19T09:01:16.491Z</time>
      </trkpt>
      <trkpt lat="47.42024" lon="-0.44622">
        <ele>20.19917488098</ele>
        <time>2020-06-19T09:01:19.712Z</time>
      </trkpt>
      <trkpt lat="47.42022" lon="-0.44581">
        <ele>20.43694496155</ele>
        <time>2020-06-19T09:01:22.937Z</time>
      </trkpt>
      <trkpt lat="47.42016" lon="-0.44544">
        <ele>20.59161567688</ele>
        <time>2020-06-19T09:01:26.166Z</time>
      </trkpt>
      <trkpt lat="47.41937" lon="-0.44262">
        <ele>21.735496521</ele>
        <time>2020-06-19T09:01:29.428Z</time>
      </trkpt>
      <trkpt lat="47.41921" lon="-0.43904">
        <ele>22.20500946045</ele>
        <time>2020-06-19T09:01:32.729Z</time>
      </trkpt>
      <trkpt lat="47.41932" lon="-0.43802">
        <ele>22.59951782227</ele>
        <time>2020-06-19T09:01:36.042Z</time>
      </trkpt>
      <trkpt lat="47.41934" lon="-0.43752">
        <ele>22.21345901489</ele>
        <time>2020-06-19T09:01:39.360Z</time>
      </trkpt>
      <trkpt lat="47.41935" lon="-0.43675">
        <ele>21.5126285553</ele>
        <time>2020-06-19T09:01:42.686Z</time>
      </trkpt>
      <trkpt lat="47.41937" lon="-0.43536">
        <ele>19.47079277039</ele>
        <time>2020-06-19T09:01:46.028Z</time>
      </trkpt>
      <trkpt lat="47.41939" lon="-0.43442">
        <ele>20.44856834412</ele>
        <time>2020-06-19T09:01:49.380Z</time>
      </trkpt>
      <trkpt lat="47.41924" lon="-0.43319">
        <ele>21.04445075989</ele>
        <time>2020-06-19T09:01:52.745Z</time>
      </trkpt>
      <trkpt lat="47.41916" lon="-0.43261">
        <ele>21</ele>
        <time>2020-06-19T09:01:56.117Z</time>
      </trkpt>
      <trkpt lat="47.41916" lon="-0.4326">
        <ele>21</ele>
        <time>2020-06-19T09:01:59.489Z</time>
      </trkpt>
      <trkpt lat="47.41916" lon="-0.4326">
        <ele>21</ele>
        <time>2020-06-19T09:02:02.861Z</time>
      </trkpt>
      <trkpt lat="47.41916" lon="-0.4326">
        <ele>21</ele>
        <time>2020-06-19T09:02:06.233Z</time>
      </trkpt>
      <trkpt lat="47.41908" lon="-0.43205">
        <ele>20.91694641113</ele>
        <time>2020-06-19T09:02:09.611Z</time>
      </trkpt>
      <trkpt lat="47.41905" lon="-0.43178">
        <ele>20.87842941284</ele>
        <time>2020-06-19T09:02:12.992Z</time>
      </trkpt>
      <trkpt lat="47.419" lon="-0.43141">
        <ele>20.73007774353</ele>
        <time>2020-06-19T09:02:16.377Z</time>
      </trkpt>
      <trkpt lat="47.4194" lon="-0.43128">
        <ele>20.94767570496</ele>
        <time>2020-06-19T09:02:19.769Z</time>
      </trkpt>
      <trkpt lat="47.41964" lon="-0.43129">
        <ele>20.95587348938</ele>
        <time>2020-06-19T09:02:23.165Z</time>
      </trkpt>
      <trkpt lat="47.41965" lon="-0.43129">
        <ele>20.95611381531</ele>
        <time>2020-06-19T09:02:26.561Z</time>
      </trkpt>
      <trkpt lat="47.41965" lon="-0.43129">
        <ele>20.95622253418</ele>
        <time>2020-06-19T09:02:29.957Z</time>
      </trkpt>
      <trkpt lat="47.41965" lon="-0.43129">
        <ele>20.95622253418</ele>
        <time>2020-06-19T09:02:33.353Z</time>
      </trkpt>
      <trkpt lat="47.42018" lon="-0.4313">
        <ele>20.56670570374</ele>
        <time>2020-06-19T09:02:36.757Z</time>
      </trkpt>
      <trkpt lat="47.42034" lon="-0.4292">
        <ele>18.1539516449</ele>
        <time>2020-06-19T09:02:40.184Z</time>
      </trkpt>
      <trkpt lat="47.42034" lon="-0.42895">
        <ele>18.15982627869</ele>
        <time>2020-06-19T09:02:43.614Z</time>
      </trkpt>
      <trkpt lat="47.42034" lon="-0.42894">
        <ele>18.16008377075</ele>
        <time>2020-06-19T09:02:47.044Z</time>
      </trkpt>
      <trkpt lat="47.42034" lon="-0.42894">
        <ele>18.16018676758</ele>
        <time>2020-06-19T09:02:50.474Z</time>
      </trkpt>
      <trkpt lat="47.42034" lon="-0.42894">
        <ele>18.16018676758</ele>
        <time>2020-06-19T09:02:53.904Z</time>
      </trkpt>
      <trkpt lat="47.42033" lon="-0.42809">
        <ele>18.17969703674</ele>
        <time>2020-06-19T09:02:57.343Z</time>
      </trkpt>
      <trkpt lat="47.42065" lon="-0.42817">
        <ele>17.40734863281</ele>
        <time>2020-06-19T09:03:00.787Z</time>
      </trkpt>
      <trkpt lat="47.42044" lon="-0.42669">
        <ele>18.5438117981</ele>
        <time>2020-06-19T09:03:04.248Z</time>
      </trkpt>
      <trkpt lat="47.42044" lon="-0.42668">
        <ele>18.54201316833</ele>
        <time>2020-06-19T09:03:07.709Z</time>
      </trkpt>
      <trkpt lat="47.42044" lon="-0.42668">
        <ele>18.54179191589</ele>
        <time>2020-06-19T09:03:11.170Z</time>
      </trkpt>
      <trkpt lat="47.42044" lon="-0.42668">
        <ele>18.54179191589</ele>
        <time>2020-06-19T09:03:14.631Z</time>
      </trkpt>
      <trkpt lat="47.42031" lon="-0.42576">
        <ele>18.95313072205</ele>
        <time>2020-06-19T09:03:18.102Z</time>
      </trkpt>
      <trkpt lat="47.42101" lon="-0.42498">
        <ele>19</ele>
        <time>2020-06-19T09:03:21.587Z</time>
      </trkpt>
      <trkpt lat="47.42102" lon="-0.42497">
        <ele>19</ele>
        <time>2020-06-19T09:03:25.072Z</time>
      </trkpt>
      <trkpt lat="47.42102" lon="-0.42497">
        <ele>19</ele>
        <time>2020-06-19T09:03:28.557Z</time>
      </trkpt>
      <trkpt lat="47.42102" lon="-0.42497">
        <ele>19</ele>
        <time>2020-06-19T09:03:32.042Z</time>
      </trkpt>
      <trkpt lat="47.42135" lon="-0.4246">
        <ele>19</ele>
        <time>2020-06-19T09:03:35.534Z</time>
      </trkpt>
      <trkpt lat="47.42151" lon="-0.42456">
        <ele>19</ele>
        <time>2020-06-19T09:03:39.029Z</time>
      </trkpt>
      <trkpt lat="47.42178" lon="-0.424">
        <ele>18.70413398743</ele>
        <time>2020-06-19T09:03:42.531Z</time>
      </trkpt>
      <trkpt lat="47.42281" lon="-0.42344">
        <ele>17.38368988037</ele>
        <time>2020-06-19T09:03:46.051Z</time>
      </trkpt>
      <trkpt lat="47.42302" lon="-0.42311">
        <ele>17.64123916626</ele>
        <time>2020-06-19T09:03:49.576Z</time>
      </trkpt>
      <trkpt lat="47.42389" lon="-0.42215">
        <ele>17.31619262695</ele>
        <time>2020-06-19T09:03:53.118Z</time>
      </trkpt>
      <trkpt lat="47.42409" lon="-0.42193">
        <ele>17.07609367371</ele>
        <time>2020-06-19T09:03:56.664Z</time>
      </trkpt>
      <trkpt lat="47.4241" lon="-0.42193">
        <ele>17.06903266907</ele>
        <time>2020-06-19T09:04:00.210Z</time>
      </trkpt>
      <trkpt lat="47.4241" lon="-0.42192">
        <ele>17.06538009644</ele>
        <time>2020-06-19T09:04:03.756Z</time>
      </trkpt>
      <trkpt lat="47.4241" lon="-0.42192">
        <ele>17.06528091431</ele>
        <time>2020-06-19T09:04:07.302Z</time>
      </trkpt>
      <trkpt lat="47.42466" lon="-0.42132">
        <ele>17</ele>
        <time>2020-06-19T09:04:10.859Z</time>
      </trkpt>
      <trkpt lat="47.42684" lon="-0.42024">
        <ele>18</ele>
        <time>2020-06-19T09:04:14.453Z</time>
      </trkpt>
      <trkpt lat="47.42741" lon="-0.42011">
        <ele>17.54657936096</ele>
        <time>2020-06-19T09:04:18.056Z</time>
      </trkpt>
      <trkpt lat="47.42786" lon="-0.41588">
        <ele>17.10676574707</ele>
        <time>2020-06-19T09:04:21.706Z</time>
      </trkpt>
      <trkpt lat="47.42786" lon="-0.41567">
        <ele>17.10656547546</ele>
        <time>2020-06-19T09:04:25.358Z</time>
      </trkpt>
      <trkpt lat="47.42793" lon="-0.41013">
        <ele>15</ele>
        <time>2020-06-19T09:04:29.070Z</time>
      </trkpt>
      <trkpt lat="47.42793" lon="-0.41012">
        <ele>15</ele>
        <time>2020-06-19T09:04:32.782Z</time>
      </trkpt>
      <trkpt lat="47.42793" lon="-0.41013">
        <ele>15</ele>
        <time>2020-06-19T09:04:36.494Z</time>
      </trkpt>
      <trkpt lat="47.42793" lon="-0.41013">
        <ele>15</ele>
        <time>2020-06-19T09:04:40.206Z</time>
      </trkpt>
      <trkpt lat="47.42795" lon="-0.40891">
        <ele>15.34170246124</ele>
        <time>2020-06-19T09:04:43.932Z</time>
      </trkpt>
      <trkpt lat="47.42795" lon="-0.40801">
        <ele>16.5496006012</ele>
        <time>2020-06-19T09:04:47.667Z</time>
      </trkpt>
      <trkpt lat="47.42795" lon="-0.40799">
        <ele>16.5495967865</ele>
        <time>2020-06-19T09:04:51.403Z</time>
      </trkpt>
      <trkpt lat="47.42795" lon="-0.40798">
        <ele>16.54623794556</ele>
        <time>2020-06-19T09:04:55.139Z</time>
      </trkpt>
      <trkpt lat="47.42795" lon="-0.40732">
        <ele>16</ele>
        <time>2020-06-19T09:04:58.882Z</time>
      </trkpt>
      <trkpt lat="47.42605" lon="-0.40683">
        <ele>17</ele>
        <time>2020-06-19T09:05:02.656Z</time>
      </trkpt>
      <trkpt lat="47.42605" lon="-0.40683">
        <ele>17</ele>
        <time>2020-06-19T09:05:06.430Z</time>
      </trkpt>
      <trkpt lat="47.42366" lon="-0.40619">
        <ele>18</ele>
        <time>2020-06-19T09:05:10.243Z</time>
      </trkpt>
      <trkpt lat="47.42364" lon="-0.40618">
        <ele>18</ele>
        <time>2020-06-19T09:05:14.056Z</time>
      </trkpt>
      <trkpt lat="47.42364" lon="-0.40618">
        <ele>18</ele>
        <time>2020-06-19T09:05:17.869Z</time>
      </trkpt>
      <trkpt lat="47.42364" lon="-0.40618">
        <ele>18</ele>
        <time>2020-06-19T09:05:21.682Z</time>
      </trkpt>
      <trkpt lat="47.42257" lon="-0.40589">
        <ele>18.10049438477</ele>
        <time>2020-06-19T09:05:25.512Z</time>
      </trkpt>
      <trkpt lat="47.42206" lon="-0.40541">
        <ele>19.12258720398</ele>
        <time>2020-06-19T09:05:29.352Z</time>
      </trkpt>
      <trkpt lat="47.42268" lon="-0.40346">
        <ele>18.79871177673</ele>
        <time>2020-06-19T09:05:33.216Z</time>
      </trkpt>
      <trkpt lat="47.4237" lon="-0.40043">
        <ele>17.54779624939</ele>
        <time>2020-06-19T09:05:37.116Z</time>
      </trkpt>
      <trkpt lat="47.424" lon="-0.39953">
        <ele>17.14192771912</ele>
        <time>2020-06-19T09:05:41.027Z</time>
      </trkpt>
      <trkpt lat="47.4244" lon="-0.39839">
        <ele>18.22393226624</ele>
        <time>2020-06-19T09:05:44.952Z</time>
      </trkpt>
      <trkpt lat="47.42441" lon="-0.39836">
        <ele>18.24364280701</ele>
        <time>2020-06-19T09:05:48.877Z</time>
      </trkpt>
      <trkpt lat="47.42441" lon="-0.39836">
        <ele>18.24635696411</ele>
        <time>2020-06-19T09:05:52.803Z</time>
      </trkpt>
      <trkpt lat="47.42441" lon="-0.39836">
        <ele>18.2461566925</ele>
        <time>2020-06-19T09:05:56.729Z</time>
      </trkpt>
      <trkpt lat="47.42492" lon="-0.39688">
        <ele>18</ele>
        <time>2020-06-19T09:06:00.673Z</time>
      </trkpt>
      <trkpt lat="47.42492" lon="-0.39688">
        <ele>18</ele>
        <time>2020-06-19T09:06:04.617Z</time>
      </trkpt>
      <trkpt lat="47.42519" lon="-0.39608">
        <ele>18.28685951233</ele>
        <time>2020-06-19T09:06:08.570Z</time>
      </trkpt>
      <trkpt lat="47.42537" lon="-0.3955">
        <ele>18.98197174072</ele>
        <time>2020-06-19T09:06:12.530Z</time>
      </trkpt>
      <trkpt lat="47.42533" lon="-0.39476">
        <ele>21.04358482361</ele>
        <time>2020-06-19T09:06:16.498Z</time>
      </trkpt>
      <trkpt lat="47.42514" lon="-0.3936">
        <ele>19.7396030426</ele>
        <time>2020-06-19T09:06:20.479Z</time>
      </trkpt>
      <trkpt lat="47.425" lon="-0.39255">
        <ele>18.47810173035</ele>
        <time>2020-06-19T09:06:24.472Z</time>
      </trkpt>
      <trkpt lat="47.42492" lon="-0.39176">
        <ele>18</ele>
        <time>2020-06-19T09:06:28.474Z</time>
      </trkpt>
      <trkpt lat="47.42487" lon="-0.39151">
        <ele>18</ele>
        <time>2020-06-19T09:06:32.478Z</time>
      </trkpt>
      <trkpt lat="47.42486" lon="-0.39149">
        <ele>18</ele>
        <time>2020-06-19T09:06:36.483Z</time>
      </trkpt>
      <trkpt lat="47.42486" lon="-0.39148">
        <ele>18</ele>
        <time>2020-06-19T09:06:40.488Z</time>
      </trkpt>
      <trkpt lat="47.42486" lon="-0.39148">
        <ele>18</ele>
        <time>2020-06-19T09:06:44.493Z</time>
      </trkpt>
      <trkpt lat="47.42476" lon="-0.39098">
        <ele>18.27342224121</ele>
        <time>2020-06-19T09:06:48.503Z</time>
      </trkpt>
      <trkpt lat="47.42463" lon="-0.39">
        <ele>17.42789268494</ele>
        <time>2020-06-19T09:06:52.524Z</time>
      </trkpt>
      <trkpt lat="47.42465" lon="-0.38917">
        <ele>17.97887039185</ele>
        <time>2020-06-19T09:06:56.554Z</time>
      </trkpt>
      <trkpt lat="47.42475" lon="-0.38702">
        <ele>20</ele>
        <time>2020-06-19T09:07:00.608Z</time>
      </trkpt>
      <trkpt lat="47.42481" lon="-0.38655">
        <ele>20</ele>
        <time>2020-06-19T09:07:04.667Z</time>
      </trkpt>
      <trkpt lat="47.42496" lon="-0.38472">
        <ele>18.91879272461</ele>
        <time>2020-06-19T09:07:08.746Z</time>
      </trkpt>
      <trkpt lat="47.4249" lon="-0.38381">
        <ele>19.21244239807</ele>
        <time>2020-06-19T09:07:12.835Z</time>
      </trkpt>
      <trkpt lat="47.42511" lon="-0.38367">
        <ele>19.01615333557</ele>
        <time>2020-06-19T09:07:16.928Z</time>
      </trkpt>
      <trkpt lat="47.42518" lon="-0.38361">
        <ele>19.01615333557</ele>
        <time>2020-06-19T09:07:21.022Z</time>
      </trkpt>
      <trkpt lat="47.42523" lon="-0.3834">
        <ele>19.20923995972</ele>
        <time>2020-06-19T09:07:25.118Z</time>
      </trkpt>
      <trkpt lat="47.42524" lon="-0.38268">
        <ele>19.2738609314</ele>
        <time>2020-06-19T09:07:29.222Z</time>
      </trkpt>
      <trkpt lat="47.42524" lon="-0.38265">
        <ele>19.20585823059</ele>
        <time>2020-06-19T09:07:33.326Z</time>
      </trkpt>
      <trkpt lat="47.42524" lon="-0.38264">
        <ele>19.19364738464</ele>
        <time>2020-06-19T09:07:37.430Z</time>
      </trkpt>
      <trkpt lat="47.42544" lon="-0.3818">
        <ele>18</ele>
        <time>2020-06-19T09:07:41.544Z</time>
      </trkpt>
      <trkpt lat="47.42516" lon="-0.38061">
        <ele>17.20275688171</ele>
        <time>2020-06-19T09:07:45.672Z</time>
      </trkpt>
      <trkpt lat="47.42495" lon="-0.3784">
        <ele>18</ele>
        <time>2020-06-19T09:07:49.824Z</time>
      </trkpt>
      <trkpt lat="47.42494" lon="-0.37797">
        <ele>18</ele>
        <time>2020-06-19T09:07:53.981Z</time>
      </trkpt>
      <trkpt lat="47.42494" lon="-0.37795">
        <ele>18</ele>
        <time>2020-06-19T09:07:58.138Z</time>
      </trkpt>
      <trkpt lat="47.42494" lon="-0.37794">
        <ele>18</ele>
        <time>2020-06-19T09:08:02.295Z</time>
      </trkpt>
      <trkpt lat="47.42494" lon="-0.37794">
        <ele>18</ele>
        <time>2020-06-19T09:08:06.452Z</time>
      </trkpt>
      <trkpt lat="47.42486" lon="-0.37579">
        <ele>16.37132263184</ele>
        <time>2020-06-19T09:08:10.632Z</time>
      </trkpt>
      <trkpt lat="47.42469" lon="-0.37497">
        <ele>16</ele>
        <time>2020-06-19T09:08:14.822Z</time>
      </trkpt>
      <trkpt lat="47.42396" lon="-0.37288">
        <ele>17.8828868866</ele>
        <time>2020-06-19T09:08:19.037Z</time>
      </trkpt>
      <trkpt lat="47.42354" lon="-0.37118">
        <ele>16.25901603699</ele>
        <time>2020-06-19T09:08:23.272Z</time>
      </trkpt>
      <trkpt lat="47.42297" lon="-0.36796">
        <ele>18.02731704712</ele>
        <time>2020-06-19T09:08:27.543Z</time>
      </trkpt>
      <trkpt lat="47.42297" lon="-0.36793">
        <ele>18.06023979187</ele>
        <time>2020-06-19T09:08:31.814Z</time>
      </trkpt>
      <trkpt lat="47.42297" lon="-0.36793">
        <ele>18.05895996094</ele>
        <time>2020-06-19T09:08:36.085Z</time>
      </trkpt>
      <trkpt lat="47.42297" lon="-0.36793">
        <ele>18.05875778198</ele>
        <time>2020-06-19T09:08:40.356Z</time>
      </trkpt>
      <trkpt lat="47.42294" lon="-0.36774">
        <ele>18.28302001953</ele>
        <time>2020-06-19T09:08:44.630Z</time>
      </trkpt>
      <trkpt lat="47.42172" lon="-0.36827">
        <ele>19.15201759338</ele>
        <time>2020-06-19T09:08:48.924Z</time>
      </trkpt>
      <trkpt lat="47.4217" lon="-0.36827">
        <ele>19.17914009094</ele>
        <time>2020-06-19T09:08:53.218Z</time>
      </trkpt>
      <trkpt lat="47.4217" lon="-0.36828">
        <ele>19.18607139587</ele>
        <time>2020-06-19T09:08:57.512Z</time>
      </trkpt>
      <trkpt lat="47.4217" lon="-0.36828">
        <ele>19.18627357483</ele>
        <time>2020-06-19T09:09:01.806Z</time>
      </trkpt>
      <trkpt lat="47.42132" lon="-0.36844">
        <ele>18.89262199402</ele>
        <time>2020-06-19T09:09:06.107Z</time>
      </trkpt>
      <trkpt lat="47.42063" lon="-0.36504">
        <ele>18</ele>
        <time>2020-06-19T09:09:10.446Z</time>
      </trkpt>
      <trkpt lat="47.42013" lon="-0.36259">
        <ele>18.83320236206</ele>
        <time>2020-06-19T09:09:14.813Z</time>
      </trkpt>
      <trkpt lat="47.42012" lon="-0.36256">
        <ele>18.8404006958</ele>
        <time>2020-06-19T09:09:19.180Z</time>
      </trkpt>
      <trkpt lat="47.42012" lon="-0.36255">
        <ele>18.84076118469</ele>
        <time>2020-06-19T09:09:23.547Z</time>
      </trkpt>
      <trkpt lat="47.42012" lon="-0.36255">
        <ele>18.84076118469</ele>
        <time>2020-06-19T09:09:27.914Z</time>
      </trkpt>
      <trkpt lat="47.4196" lon="-0.36002">
        <ele>17.46517562866</ele>
        <time>2020-06-19T09:09:32.310Z</time>
      </trkpt>
      <trkpt lat="47.4203" lon="-0.3601">
        <ele>18.66639137268</ele>
        <time>2020-06-19T09:09:36.717Z</time>
      </trkpt>
      <trkpt lat="47.42073" lon="-0.36003">
        <ele>19.07663536072</ele>
        <time>2020-06-19T09:09:41.131Z</time>
      </trkpt>
      <trkpt lat="47.42062" lon="-0.3592">
        <ele>19.27312278748</ele>
        <time>2020-06-19T09:09:45.554Z</time>
      </trkpt>
      <trkpt lat="47.42051" lon="-0.35745">
        <ele>18.00127601624</ele>
        <time>2020-06-19T09:09:49.997Z</time>
      </trkpt>
      <trkpt lat="47.42047" lon="-0.35727">
        <ele>18.26692008972</ele>
        <time>2020-06-19T09:09:54.442Z</time>
      </trkpt>
      <trkpt lat="47.42047" lon="-0.35724">
        <ele>18.3094291687</ele>
        <time>2020-06-19T09:09:58.887Z</time>
      </trkpt>
      <trkpt lat="47.42046" lon="-0.35723">
        <ele>18.31983184814</ele>
        <time>2020-06-19T09:10:03.332Z</time>
      </trkpt>
      <trkpt lat="47.42016" lon="-0.35583">
        <ele>18.16286277771</ele>
        <time>2020-06-19T09:10:07.793Z</time>
      </trkpt>
      <trkpt lat="47.41993" lon="-0.35477">
        <ele>19.77979278564</ele>
        <time>2020-06-19T09:10:12.266Z</time>
      </trkpt>
      <trkpt lat="47.41946" lon="-0.35225">
        <ele>18.8679523468</ele>
        <time>2020-06-19T09:10:16.767Z</time>
      </trkpt>
      <trkpt lat="47.41945" lon="-0.35222">
        <ele>18.90327835083</ele>
        <time>2020-06-19T09:10:21.269Z</time>
      </trkpt>
      <trkpt lat="47.41945" lon="-0.35222">
        <ele>18.90514183044</ele>
        <time>2020-06-19T09:10:25.771Z</time>
      </trkpt>
      <trkpt lat="47.41945" lon="-0.35222">
        <ele>18.90524291992</ele>
        <time>2020-06-19T09:10:30.273Z</time>
      </trkpt>
      <trkpt lat="47.41935" lon="-0.35168">
        <ele>19</ele>
        <time>2020-06-19T09:10:34.781Z</time>
      </trkpt>
      <trkpt lat="47.41913" lon="-0.35111">
        <ele>19</ele>
        <time>2020-06-19T09:10:39.296Z</time>
      </trkpt>
      <trkpt lat="47.41898" lon="-0.35102">
        <ele>19</ele>
        <time>2020-06-19T09:10:43.814Z</time>
      </trkpt>
      <trkpt lat="47.41771" lon="-0.35099">
        <ele>18.26927185059</ele>
        <time>2020-06-19T09:10:48.352Z</time>
      </trkpt>
      <trkpt lat="47.41716" lon="-0.34752">
        <ele>18.45563316345</ele>
        <time>2020-06-19T09:10:52.929Z</time>
      </trkpt>
      <trkpt lat="47.41716" lon="-0.34749">
        <ele>18.41994667053</ele>
        <time>2020-06-19T09:10:57.506Z</time>
      </trkpt>
      <trkpt lat="47.41716" lon="-0.34749">
        <ele>18.42081832886</ele>
        <time>2020-06-19T09:11:02.083Z</time>
      </trkpt>
      <trkpt lat="47.41716" lon="-0.34749">
        <ele>18.4213218689</ele>
        <time>2020-06-19T09:11:06.660Z</time>
      </trkpt>
      <trkpt lat="47.41681" lon="-0.34532">
        <ele>18.99847221375</ele>
        <time>2020-06-19T09:11:11.261Z</time>
      </trkpt>
      <trkpt lat="47.41638" lon="-0.34495">
        <ele>19</ele>
        <time>2020-06-19T09:11:15.870Z</time>
      </trkpt>
      <trkpt lat="47.41575" lon="-0.34393">
        <ele>19.08638763428</ele>
        <time>2020-06-19T09:11:20.494Z</time>
      </trkpt>
      <trkpt lat="47.41557" lon="-0.3438">
        <ele>19.62478637695</ele>
        <time>2020-06-19T09:11:25.122Z</time>
      </trkpt>
      <trkpt lat="47.41615" lon="-0.34314">
        <ele>19.79956626892</ele>
        <time>2020-06-19T09:11:29.761Z</time>
      </trkpt>
      <trkpt lat="47.41643" lon="-0.34303">
        <ele>19.9282913208</ele>
        <time>2020-06-19T09:11:34.405Z</time>
      </trkpt>
      <trkpt lat="47.4163" lon="-0.34238">
        <ele>19.28648948669</ele>
        <time>2020-06-19T09:11:39.056Z</time>
      </trkpt>
      <trkpt lat="47.41593" lon="-0.34123">
        <ele>17.86954689026</ele>
        <time>2020-06-19T09:11:43.721Z</time>
      </trkpt>
      <trkpt lat="47.41592" lon="-0.3412">
        <ele>17.88066291809</ele>
        <time>2020-06-19T09:11:48.387Z</time>
      </trkpt>
      <trkpt lat="47.41592" lon="-0.3412">
        <ele>17.8827419281</ele>
        <time>2020-06-19T09:11:53.053Z</time>
      </trkpt>
      <trkpt lat="47.41592" lon="-0.3412">
        <ele>17.88264083862</ele>
        <time>2020-06-19T09:11:57.719Z</time>
      </trkpt>
      <trkpt lat="47.41428" lon="-0.33607">
        <ele>18.56739807129</ele>
        <time>2020-06-19T09:12:02.446Z</time>
      </trkpt>
      <trkpt lat="47.41411" lon="-0.33581">
        <ele>18.40854454041</ele>
        <time>2020-06-19T09:12:07.177Z</time>
      </trkpt>
      <trkpt lat="47.41355" lon="-0.3357">
        <ele>18.72514152527</ele>
        <time>2020-06-19T09:12:11.917Z</time>
      </trkpt>
      <trkpt lat="47.41355" lon="-0.3357">
        <ele>18.72524261475</ele>
        <time>2020-06-19T09:12:16.657Z</time>
      </trkpt>
      <trkpt lat="47.41318" lon="-0.33529">
        <ele>19.16277122498</ele>
        <time>2020-06-19T09:12:21.405Z</time>
      </trkpt>
      <trkpt lat="47.41317" lon="-0.33527">
        <ele>19.18353462219</ele>
        <time>2020-06-19T09:12:26.153Z</time>
      </trkpt>
      <trkpt lat="47.41316" lon="-0.33526">
        <ele>19.18915367126</ele>
        <time>2020-06-19T09:12:30.901Z</time>
      </trkpt>
      <trkpt lat="47.41316" lon="-0.33526">
        <ele>19.18905258179</ele>
        <time>2020-06-19T09:12:35.649Z</time>
      </trkpt>
      <trkpt lat="47.41309" lon="-0.33518">
        <ele>19.27875709534</ele>
        <time>2020-06-19T09:12:40.398Z</time>
      </trkpt>
      <trkpt lat="47.41317" lon="-0.33342">
        <ele>20.35155677795</ele>
        <time>2020-06-19T09:12:45.167Z</time>
      </trkpt>
      <trkpt lat="47.41475" lon="-0.33309">
        <ele>21</ele>
        <time>2020-06-19T09:12:49.961Z</time>
      </trkpt>
      <trkpt lat="47.41476" lon="-0.33169">
        <ele>20.65964508057</ele>
        <time>2020-06-19T09:12:54.770Z</time>
      </trkpt>
      <trkpt lat="47.41476" lon="-0.33166">
        <ele>20.62222290039</ele>
        <time>2020-06-19T09:12:59.580Z</time>
      </trkpt>
      <trkpt lat="47.41476" lon="-0.33166">
        <ele>20.61564445496</ele>
        <time>2020-06-19T09:13:04.390Z</time>
      </trkpt>
      <trkpt lat="47.41476" lon="-0.33166">
        <ele>20.616147995</ele>
        <time>2020-06-19T09:13:09.200Z</time>
      </trkpt>
      <trkpt lat="47.41477" lon="-0.33068">
        <ele>19.74221801758</ele>
        <time>2020-06-19T09:13:14.020Z</time>
      </trkpt>
      <trkpt lat="47.41471" lon="-0.32798">
        <ele>18.33501625061</ele>
        <time>2020-06-19T09:13:18.870Z</time>
      </trkpt>
      <trkpt lat="47.41436" lon="-0.32668">
        <ele>18</ele>
        <time>2020-06-19T09:13:23.735Z</time>
      </trkpt>
      <trkpt lat="47.4139" lon="-0.32496">
        <ele>19.61549377441</ele>
        <time>2020-06-19T09:13:28.620Z</time>
      </trkpt>
      <trkpt lat="47.41389" lon="-0.32493">
        <ele>19.65119743347</ele>
        <time>2020-06-19T09:13:33.505Z</time>
      </trkpt>
      <trkpt lat="47.41389" lon="-0.32492">
        <ele>19.65750312805</ele>
        <time>2020-06-19T09:13:38.390Z</time>
      </trkpt>
      <trkpt lat="47.41389" lon="-0.32492">
        <ele>19.65710067749</ele>
        <time>2020-06-19T09:13:43.275Z</time>
      </trkpt>
      <trkpt lat="47.41358" lon="-0.32379">
        <ele>18.58399200439</ele>
        <time>2020-06-19T09:13:48.174Z</time>
      </trkpt>
      <trkpt lat="47.41318" lon="-0.32226">
        <ele>19.68646430969</ele>
        <time>2020-06-19T09:13:53.090Z</time>
      </trkpt>
      <trkpt lat="47.4128" lon="-0.32072">
        <ele>20.29699707031</ele>
        <time>2020-06-19T09:13:58.024Z</time>
      </trkpt>
      <trkpt lat="47.4128" lon="-0.32072">
        <ele>20.29699707031</ele>
        <time>2020-06-19T09:14:02.958Z</time>
      </trkpt>
      <trkpt lat="47.4126" lon="-0.31995">
        <ele>20</ele>
        <time>2020-06-19T09:14:07.901Z</time>
      </trkpt>
      <trkpt lat="47.4126" lon="-0.31995">
        <ele>20</ele>
        <time>2020-06-19T09:14:12.844Z</time>
      </trkpt>
      <trkpt lat="47.4125" lon="-0.31951">
        <ele>20.13984680176</ele>
        <time>2020-06-19T09:14:17.792Z</time>
      </trkpt>
      <trkpt lat="47.41249" lon="-0.31948">
        <ele>20.18488883972</ele>
        <time>2020-06-19T09:14:22.741Z</time>
      </trkpt>
      <trkpt lat="47.41249" lon="-0.31947">
        <ele>20.19783401489</ele>
        <time>2020-06-19T09:14:27.690Z</time>
      </trkpt>
      <trkpt lat="47.41249" lon="-0.31947">
        <ele>20.19743347168</ele>
        <time>2020-06-19T09:14:32.639Z</time>
      </trkpt>
      <trkpt lat="47.41238" lon="-0.31903">
        <ele>20.85231971741</ele>
        <time>2020-06-19T09:14:37.593Z</time>
      </trkpt>
      <trkpt lat="47.41212" lon="-0.31908">
        <ele>21.10966682434</ele>
        <time>2020-06-19T09:14:42.551Z</time>
      </trkpt>
      <trkpt lat="47.4108" lon="-0.31943">
        <ele>22.77279281616</ele>
        <time>2020-06-19T09:14:47.530Z</time>
      </trkpt>
      <trkpt lat="47.41069" lon="-0.31946">
        <ele>22.94013404846</ele>
        <time>2020-06-19T09:14:52.511Z</time>
      </trkpt>
      <trkpt lat="47.40991" lon="-0.31964">
        <ele>24.18756103516</ele>
        <time>2020-06-19T09:14:57.505Z</time>
      </trkpt>
      <trkpt lat="47.40939" lon="-0.32">
        <ele>25.87405395508</ele>
        <time>2020-06-19T09:15:02.508Z</time>
      </trkpt>
      <trkpt lat="47.40939" lon="-0.32">
        <ele>25.87385177612</ele>
        <time>2020-06-19T09:15:07.511Z</time>
      </trkpt>
      <trkpt lat="47.40926" lon="-0.32009">
        <ele>26.28699874878</ele>
        <time>2020-06-19T09:15:12.516Z</time>
      </trkpt>
      <trkpt lat="47.40924" lon="-0.32011">
        <ele>26.35080718994</ele>
        <time>2020-06-19T09:15:17.522Z</time>
      </trkpt>
      <trkpt lat="47.40924" lon="-0.32011">
        <ele>26.37205696106</ele>
        <time>2020-06-19T09:15:22.528Z</time>
      </trkpt>
      <trkpt lat="47.40923" lon="-0.32009">
        <ele>26.35711860657</ele>
        <time>2020-06-19T09:15:27.534Z</time>
      </trkpt>
      <trkpt lat="47.40913" lon="-0.32014">
        <ele>26.26353263855</ele>
        <time>2020-06-19T09:15:32.542Z</time>
      </trkpt>
      <trkpt lat="47.4091" lon="-0.32004">
        <ele>25.67593383789</ele>
        <time>2020-06-19T09:15:37.551Z</time>
      </trkpt>
      <trkpt lat="47.40909" lon="-0.32001">
        <ele>25.5058555603</ele>
        <time>2020-06-19T09:15:42.560Z</time>
      </trkpt>
      <trkpt lat="47.40908" lon="-0.31997">
        <ele>25.27969551086</ele>
        <time>2020-06-19T09:15:47.570Z</time>
      </trkpt>
      <trkpt lat="47.40881" lon="-0.31902">
        <ele>21.07793807983</ele>
        <time>2020-06-19T09:15:52.591Z</time>
      </trkpt>
      <trkpt lat="47.40874" lon="-0.31871">
        <ele>20.0252456665</ele>
        <time>2020-06-19T09:15:57.616Z</time>
      </trkpt>
      <trkpt lat="47.40873" lon="-0.31868">
        <ele>19.92211151123</ele>
        <time>2020-06-19T09:16:02.641Z</time>
      </trkpt>
      <trkpt lat="47.40872" lon="-0.31864">
        <ele>19.78215408325</ele>
        <time>2020-06-19T09:16:07.666Z</time>
      </trkpt>
      <trkpt lat="47.40863" lon="-0.3184">
        <ele>18.48637008667</ele>
        <time>2020-06-19T09:16:12.694Z</time>
      </trkpt>
      <trkpt lat="47.40862" lon="-0.31839">
        <ele>18.34239387512</ele>
        <time>2020-06-19T09:16:17.723Z</time>
      </trkpt>
      <trkpt lat="47.4086" lon="-0.31838">
        <ele>18.05444335938</ele>
        <time>2020-06-19T09:16:22.752Z</time>
      </trkpt>
      <trkpt lat="47.40858" lon="-0.31833">
        <ele>17.76649093628</ele>
        <time>2020-06-19T09:16:27.782Z</time>
      </trkpt>
      <trkpt lat="47.40846" lon="-0.31831">
        <ele>16.03877830505</ele>
        <time>2020-06-19T09:16:32.813Z</time>
      </trkpt>
      <trkpt lat="47.40713" lon="-0.31863">
        <ele>14</ele>
        <time>2020-06-19T09:16:37.866Z</time>
      </trkpt>
      <trkpt lat="47.40567" lon="-0.31898">
        <ele>15.77543830872</ele>
        <time>2020-06-19T09:16:42.943Z</time>
      </trkpt>
      <trkpt lat="47.40539" lon="-0.31905">
        <ele>17.02117156982</ele>
        <time>2020-06-19T09:16:48.024Z</time>
      </trkpt>
      <trkpt lat="47.40537" lon="-0.31906">
        <ele>17.08896446228</ele>
        <time>2020-06-19T09:16:53.106Z</time>
      </trkpt>
      <trkpt lat="47.40533" lon="-0.31907">
        <ele>17.20810508728</ele>
        <time>2020-06-19T09:16:58.188Z</time>
      </trkpt>
      <trkpt lat="47.40494" lon="-0.31916">
        <ele>18.39472198486</ele>
        <time>2020-06-19T09:17:03.277Z</time>
      </trkpt>
      <trkpt lat="47.40426" lon="-0.31933">
        <ele>23.72163200378</ele>
        <time>2020-06-19T09:17:08.377Z</time>
      </trkpt>
      <trkpt lat="47.4043" lon="-0.31941">
        <ele>23.57765769958</ele>
        <time>2020-06-19T09:17:13.478Z</time>
      </trkpt>
      <trkpt lat="47.40434" lon="-0.31943">
        <ele>23.21771621704</ele>
        <time>2020-06-19T09:17:18.579Z</time>
      </trkpt>
      <trkpt lat="47.40452" lon="-0.31941">
        <ele>22.37821388245</ele>
        <time>2020-06-19T09:17:23.683Z</time>
      </trkpt>
      <trkpt lat="47.40454" lon="-0.3194">
        <ele>22.29257202148</ele>
        <time>2020-06-19T09:17:28.788Z</time>
      </trkpt>
      <trkpt lat="47.40457" lon="-0.3194">
        <ele>22.16209411621</ele>
        <time>2020-06-19T09:17:33.893Z</time>
      </trkpt>
      <trkpt lat="47.4049" lon="-0.31937">
        <ele>21.01028633118</ele>
        <time>2020-06-19T09:17:39.003Z</time>
      </trkpt>
      <trkpt lat="47.40492" lon="-0.3194">
        <ele>21.32223320007</ele>
        <time>2020-06-19T09:17:44.114Z</time>
      </trkpt>
      <trkpt lat="47.40496" lon="-0.31954">
        <ele>22.90596961975</ele>
        <time>2020-06-19T09:17:49.226Z</time>
      </trkpt>
      <trkpt lat="47.40498" lon="-0.3194">
        <ele>21.17825698853</ele>
        <time>2020-06-19T09:17:54.340Z</time>
      </trkpt>
      <trkpt lat="47.40498" lon="-0.31935">
        <ele>20.57835769653</ele>
        <time>2020-06-19T09:17:59.455Z</time>
      </trkpt>
      <trkpt lat="47.40492" lon="-0.31907">
        <ele>17.36289405823</ele>
        <time>2020-06-19T09:18:04.573Z</time>
      </trkpt>
      <trkpt lat="47.40491" lon="-0.31904">
        <ele>17.02694892883</ele>
        <time>2020-06-19T09:18:09.691Z</time>
      </trkpt>
      <trkpt lat="47.4048" lon="-0.31903">
        <ele>17.17092514038</ele>
        <time>2020-06-19T09:18:14.811Z</time>
      </trkpt>
      <trkpt lat="47.40472" lon="-0.31902">
        <ele>17.63675880432</ele>
        <time>2020-06-19T09:18:19.932Z</time>
      </trkpt>
      <trkpt lat="47.4047" lon="-0.31901">
        <ele>17.85772514343</ele>
        <time>2020-06-19T09:18:25.054Z</time>
      </trkpt>
      <trkpt lat="47.40467" lon="-0.31901">
        <ele>18.14256286621</ele>
        <time>2020-06-19T09:18:30.176Z</time>
      </trkpt>
      <trkpt lat="47.40427" lon="-0.31893">
        <ele>22.1738910675</ele>
        <time>2020-06-19T09:18:35.304Z</time>
      </trkpt>
      <trkpt lat="47.40415" lon="-0.31895">
        <ele>23.53050422668</ele>
        <time>2020-06-19T09:18:40.434Z</time>
      </trkpt>
      <trkpt lat="47.40387" lon="-0.31888">
        <ele>23.5228805542</ele>
        <time>2020-06-19T09:18:45.569Z</time>
      </trkpt>
      <trkpt lat="47.40364" lon="-0.31876">
        <ele>23.30637359619</ele>
        <time>2020-06-19T09:18:50.708Z</time>
      </trkpt>
      <trkpt lat="47.40327" lon="-0.31856">
        <ele>24</ele>
        <time>2020-06-19T09:18:55.853Z</time>
      </trkpt>
      <trkpt lat="47.40325" lon="-0.31854">
        <ele>24</ele>
        <time>2020-06-19T09:19:00.999Z</time>
      </trkpt>
      <trkpt lat="47.40322" lon="-0.31853">
        <ele>24</ele>
        <time>2020-06-19T09:19:06.145Z</time>
      </trkpt>
      <trkpt lat="47.40292" lon="-0.31839">
        <ele>24</ele>
        <time>2020-06-19T09:19:11.296Z</time>
      </trkpt>
      <trkpt lat="47.40226" lon="-0.31817">
        <ele>22.9524230957</ele>
        <time>2020-06-19T09:19:16.458Z</time>
      </trkpt>
      <trkpt lat="47.40155" lon="-0.31804">
        <ele>21</ele>
        <time>2020-06-19T09:19:21.631Z</time>
      </trkpt>
      <trkpt lat="47.40068" lon="-0.31794">
        <ele>21.65818405151</ele>
        <time>2020-06-19T09:19:26.818Z</time>
      </trkpt>
      <trkpt lat="47.40011" lon="-0.31788">
        <ele>24.39372825623</ele>
        <time>2020-06-19T09:19:32.014Z</time>
      </trkpt>
      <trkpt lat="47.39982" lon="-0.31783">
        <ele>25.21940994263</ele>
        <time>2020-06-19T09:19:37.215Z</time>
      </trkpt>
      <trkpt lat="47.3998" lon="-0.31782">
        <ele>25.26636123657</ele>
        <time>2020-06-19T09:19:42.416Z</time>
      </trkpt>
      <trkpt lat="47.39978" lon="-0.31782">
        <ele>25.30979347229</ele>
        <time>2020-06-19T09:19:47.618Z</time>
      </trkpt>
      <trkpt lat="47.3996" lon="-0.31781">
        <ele>25.72972297668</ele>
        <time>2020-06-19T09:19:52.823Z</time>
      </trkpt>
      <trkpt lat="47.3996" lon="-0.31774">
        <ele>25.64454841614</ele>
        <time>2020-06-19T09:19:58.028Z</time>
      </trkpt>
      <trkpt lat="47.3996" lon="-0.31772">
        <ele>25.62174034119</ele>
        <time>2020-06-19T09:20:03.234Z</time>
      </trkpt>
      <trkpt lat="47.39959" lon="-0.31771">
        <ele>25.63034248352</ele>
        <time>2020-06-19T09:20:08.440Z</time>
      </trkpt>
      <trkpt lat="47.39957" lon="-0.31769">
        <ele>25.65773391724</ele>
        <time>2020-06-19T09:20:13.646Z</time>
      </trkpt>
      <trkpt lat="47.39954" lon="-0.31768">
        <ele>25.71772384644</ele>
        <time>2020-06-19T09:20:18.853Z</time>
      </trkpt>
      <trkpt lat="47.39928" lon="-0.31764">
        <ele>26.29362869263</ele>
        <time>2020-06-19T09:20:24.064Z</time>
      </trkpt>
      <trkpt lat="47.39891" lon="-0.31737">
        <ele>26.27410888672</ele>
        <time>2020-06-19T09:20:29.282Z</time>
      </trkpt>
      <trkpt lat="47.39891" lon="-0.31737">
        <ele>26.27104759216</ele>
        <time>2020-06-19T09:20:34.500Z</time>
      </trkpt>
      <trkpt lat="47.39889" lon="-0.31736">
        <ele>26.21304702759</ele>
        <time>2020-06-19T09:20:39.718Z</time>
      </trkpt>
      <trkpt lat="47.39887" lon="-0.31734">
        <ele>26.15412902832</ele>
        <time>2020-06-19T09:20:44.936Z</time>
      </trkpt>
      <trkpt lat="47.3986" lon="-0.31717">
        <ele>25.42225074768</ele>
        <time>2020-06-19T09:20:50.159Z</time>
      </trkpt>
      <trkpt lat="47.3983" lon="-0.31704">
        <ele>25.06021118164</ele>
        <time>2020-06-19T09:20:55.387Z</time>
      </trkpt>
      <trkpt lat="47.39829" lon="-0.31683">
        <ele>25.09620475769</ele>
        <time>2020-06-19T09:21:00.617Z</time>
      </trkpt>
      <trkpt lat="47.39828" lon="-0.31669">
        <ele>25.14743041992</ele>
        <time>2020-06-19T09:21:05.849Z</time>
      </trkpt>
      <trkpt lat="47.39827" lon="-0.31666">
        <ele>25.15883827209</ele>
        <time>2020-06-19T09:21:11.081Z</time>
      </trkpt>
      <trkpt lat="47.39827" lon="-0.31663">
        <ele>25.16819190979</ele>
        <time>2020-06-19T09:21:16.313Z</time>
      </trkpt>
      <trkpt lat="47.39822" lon="-0.31614">
        <ele>25.58027076721</ele>
        <time>2020-06-19T09:21:21.551Z</time>
      </trkpt>
      <trkpt lat="47.3982" lon="-0.31612">
        <ele>25.70025062561</ele>
        <time>2020-06-19T09:21:26.789Z</time>
      </trkpt>
      <trkpt lat="47.3982" lon="-0.31612">
        <ele>25.72603607178</ele>
        <time>2020-06-19T09:21:32.027Z</time>
      </trkpt>
      <trkpt lat="47.39817" lon="-0.31612">
        <ele>25.85613059998</ele>
        <time>2020-06-19T09:21:37.266Z</time>
      </trkpt>
      <trkpt lat="47.39816" lon="-0.31612">
        <ele>25.94021034241</ele>
        <time>2020-06-19T09:21:42.505Z</time>
      </trkpt>
      <trkpt lat="47.39767" lon="-0.31616">
        <ele>28.87972068787</ele>
        <time>2020-06-19T09:21:47.752Z</time>
      </trkpt>
      <trkpt lat="47.39765" lon="-0.31586">
        <ele>29.3021030426</ele>
        <time>2020-06-19T09:21:53.002Z</time>
      </trkpt>
      <trkpt lat="47.39765" lon="-0.31583">
        <ele>29.35318183899</ele>
        <time>2020-06-19T09:21:58.252Z</time>
      </trkpt>
      <trkpt lat="47.39765" lon="-0.3158">
        <ele>29.40217590332</ele>
        <time>2020-06-19T09:22:03.503Z</time>
      </trkpt>
      <trkpt lat="47.3976" lon="-0.31527">
        <ele>30.38307189941</ele>
        <time>2020-06-19T09:22:08.759Z</time>
      </trkpt>
      <trkpt lat="47.39775" lon="-0.31513">
        <ele>29.86715698242</ele>
        <time>2020-06-19T09:22:14.018Z</time>
      </trkpt>
      <trkpt lat="47.39791" lon="-0.31496">
        <ele>29.26573944092</ele>
        <time>2020-06-19T09:22:19.280Z</time>
      </trkpt>
      <trkpt lat="47.39793" lon="-0.31494">
        <ele>29.19999504089</ele>
        <time>2020-06-19T09:22:24.543Z</time>
      </trkpt>
      <trkpt lat="47.39795" lon="-0.31492">
        <ele>29.12328147888</ele>
        <time>2020-06-19T09:22:29.806Z</time>
      </trkpt>
      <trkpt lat="47.39802" lon="-0.31483">
        <ele>28.82333183289</ele>
        <time>2020-06-19T09:22:35.071Z</time>
      </trkpt>
      <trkpt lat="47.39805" lon="-0.31477">
        <ele>28.64336013794</ele>
        <time>2020-06-19T09:22:40.337Z</time>
      </trkpt>
      <trkpt lat="47.39807" lon="-0.31457">
        <ele>28.1394443512</ele>
        <time>2020-06-19T09:22:45.605Z</time>
      </trkpt>
      <trkpt lat="47.39811" lon="-0.31425">
        <ele>27.32358169556</ele>
        <time>2020-06-19T09:22:50.876Z</time>
      </trkpt>
      <trkpt lat="47.39812" lon="-0.31403">
        <ele>26.78367042542</ele>
        <time>2020-06-19T09:22:56.150Z</time>
      </trkpt>
      <trkpt lat="47.39808" lon="-0.3136">
        <ele>26.08386039734</ele>
        <time>2020-06-19T09:23:01.428Z</time>
      </trkpt>
      <trkpt lat="47.39801" lon="-0.31318">
        <ele>25.4656085968</ele>
        <time>2020-06-19T09:23:06.711Z</time>
      </trkpt>
      <trkpt lat="47.39801" lon="-0.31315">
        <ele>25.49001121521</ele>
        <time>2020-06-19T09:23:11.994Z</time>
      </trkpt>
      <trkpt lat="47.398" lon="-0.31311">
        <ele>25.52004051208</ele>
        <time>2020-06-19T09:23:17.278Z</time>
      </trkpt>
      <trkpt lat="47.39793" lon="-0.31265">
        <ele>25.85598373413</ele>
        <time>2020-06-19T09:23:22.567Z</time>
      </trkpt>
      <trkpt lat="47.39785" lon="-0.31235">
        <ele>26.23991966248</ele>
        <time>2020-06-19T09:23:27.859Z</time>
      </trkpt>
      <trkpt lat="47.39782" lon="-0.31229">
        <ele>26.38389587402</ele>
        <time>2020-06-19T09:23:33.152Z</time>
      </trkpt>
      <trkpt lat="47.39784" lon="-0.31202">
        <ele>26.01235389709</ele>
        <time>2020-06-19T09:23:38.448Z</time>
      </trkpt>
      <trkpt lat="47.39787" lon="-0.31136">
        <ele>25.22659492493</ele>
        <time>2020-06-19T09:23:43.751Z</time>
      </trkpt>
      <trkpt lat="47.39787" lon="-0.31133">
        <ele>25.216588974</ele>
        <time>2020-06-19T09:23:49.055Z</time>
      </trkpt>
      <trkpt lat="47.39787" lon="-0.31133">
        <ele>25.21590423584</ele>
        <time>2020-06-19T09:23:54.359Z</time>
      </trkpt>
      <trkpt lat="47.39787" lon="-0.31128">
        <ele>25.26716804504</ele>
        <time>2020-06-19T09:23:59.663Z</time>
      </trkpt>
      <trkpt lat="47.39785" lon="-0.30986">
        <ele>25.52924919128</ele>
        <time>2020-06-19T09:24:04.983Z</time>
      </trkpt>
      <trkpt lat="47.39784" lon="-0.30964">
        <ele>25.85319519043</ele>
        <time>2020-06-19T09:24:10.305Z</time>
      </trkpt>
      <trkpt lat="47.39778" lon="-0.30903">
        <ele>26.23294448853</ele>
        <time>2020-06-19T09:24:15.634Z</time>
      </trkpt>
      <trkpt lat="47.39764" lon="-0.30766">
        <ele>27.06690597534</ele>
        <time>2020-06-19T09:24:20.978Z</time>
      </trkpt>
      <trkpt lat="47.39758" lon="-0.30709">
        <ele>26.7052192688</ele>
        <time>2020-06-19T09:24:26.328Z</time>
      </trkpt>
      <trkpt lat="47.39758" lon="-0.30706">
        <ele>26.75511360168</ele>
        <time>2020-06-19T09:24:31.679Z</time>
      </trkpt>
      <trkpt lat="47.39757" lon="-0.30699">
        <ele>26.65445137024</ele>
        <time>2020-06-19T09:24:37.030Z</time>
      </trkpt>
      <trkpt lat="47.39748" lon="-0.30644">
        <ele>25.34248542786</ele>
        <time>2020-06-19T09:24:42.387Z</time>
      </trkpt>
      <trkpt lat="47.39729" lon="-0.30586">
        <ele>27.21643638611</ele>
        <time>2020-06-19T09:24:47.751Z</time>
      </trkpt>
      <trkpt lat="47.39717" lon="-0.30539">
        <ele>27.28339004517</ele>
        <time>2020-06-19T09:24:53.121Z</time>
      </trkpt>
      <trkpt lat="47.39712" lon="-0.30509">
        <ele>26.98344039917</ele>
        <time>2020-06-19T09:24:58.494Z</time>
      </trkpt>
      <trkpt lat="47.3971" lon="-0.30477">
        <ele>26.91966056824</ele>
        <time>2020-06-19T09:25:03.871Z</time>
      </trkpt>
      <trkpt lat="47.39708" lon="-0.3042">
        <ele>26.96765136719</ele>
        <time>2020-06-19T09:25:09.254Z</time>
      </trkpt>
      <trkpt lat="47.39707" lon="-0.30382">
        <ele>26.99164772034</ele>
        <time>2020-06-19T09:25:14.641Z</time>
      </trkpt>
      <trkpt lat="47.39701" lon="-0.30292">
        <ele>29.03064537048</ele>
        <time>2020-06-19T09:25:20.038Z</time>
      </trkpt>
      <trkpt lat="47.39687" lon="-0.302">
        <ele>30.92761802673</ele>
        <time>2020-06-19T09:25:25.445Z</time>
      </trkpt>
      <trkpt lat="47.39664" lon="-0.30043">
        <ele>29.99524307251</ele>
        <time>2020-06-19T09:25:30.870Z</time>
      </trkpt>
      <trkpt lat="47.39649" lon="-0.29953">
        <ele>29.28710174561</ele>
        <time>2020-06-19T09:25:36.305Z</time>
      </trkpt>
      <trkpt lat="47.39642" lon="-0.29913">
        <ele>28.99914932251</ele>
        <time>2020-06-19T09:25:41.744Z</time>
      </trkpt>
      <trkpt lat="47.39621" lon="-0.2984">
        <ele>28.74216079712</ele>
        <time>2020-06-19T09:25:47.192Z</time>
      </trkpt>
      <trkpt lat="47.39601" lon="-0.29773">
        <ele>30.47435379028</ele>
        <time>2020-06-19T09:25:52.648Z</time>
      </trkpt>
      <trkpt lat="47.39578" lon="-0.29706">
        <ele>34.32242202759</ele>
        <time>2020-06-19T09:25:58.112Z</time>
      </trkpt>
      <trkpt lat="47.39577" lon="-0.29703">
        <ele>34.42658233643</ele>
        <time>2020-06-19T09:26:03.576Z</time>
      </trkpt>
      <trkpt lat="47.39574" lon="-0.29696">
        <ele>34.68820953369</ele>
        <time>2020-06-19T09:26:09.041Z</time>
      </trkpt>
      <trkpt lat="47.39538" lon="-0.29604">
        <ele>35.49405288696</ele>
        <time>2020-06-19T09:26:14.518Z</time>
      </trkpt>
      <trkpt lat="47.39535" lon="-0.29597">
        <ele>35.14611053467</ele>
        <time>2020-06-19T09:26:19.996Z</time>
      </trkpt>
      <trkpt lat="47.39528" lon="-0.29571">
        <ele>35.50426483154</ele>
        <time>2020-06-19T09:26:25.477Z</time>
      </trkpt>
      <trkpt lat="47.39521" lon="-0.29534">
        <ele>35.64083099365</ele>
        <time>2020-06-19T09:26:30.962Z</time>
      </trkpt>
      <trkpt lat="47.39521" lon="-0.29498">
        <ele>36.20399475098</ele>
        <time>2020-06-19T09:26:36.451Z</time>
      </trkpt>
      <trkpt lat="47.39527" lon="-0.29428">
        <ele>35.56512451172</ele>
        <time>2020-06-19T09:26:41.947Z</time>
      </trkpt>
      <trkpt lat="47.39526" lon="-0.29396">
        <ele>36.15302658081</ele>
        <time>2020-06-19T09:26:47.447Z</time>
      </trkpt>
      <trkpt lat="47.39519" lon="-0.29358">
        <ele>37.45836639404</ele>
        <time>2020-06-19T09:26:52.951Z</time>
      </trkpt>
      <trkpt lat="47.39495" lon="-0.29289">
        <ele>36.55776596069</ele>
        <time>2020-06-19T09:26:58.464Z</time>
      </trkpt>
      <trkpt lat="47.39494" lon="-0.29286">
        <ele>36.35803985596</ele>
        <time>2020-06-19T09:27:03.977Z</time>
      </trkpt>
      <trkpt lat="47.39491" lon="-0.29278">
        <ele>35.78913879395</ele>
        <time>2020-06-19T09:27:09.491Z</time>
      </trkpt>
      <trkpt lat="47.39483" lon="-0.29256">
        <ele>34.27738952637</ele>
        <time>2020-06-19T09:27:15.008Z</time>
      </trkpt>
      <trkpt lat="47.39459" lon="-0.29186">
        <ele>30.61321258545</ele>
        <time>2020-06-19T09:27:20.533Z</time>
      </trkpt>
      <trkpt lat="47.39451" lon="-0.29163">
        <ele>30.43532752991</ele>
        <time>2020-06-19T09:27:26.061Z</time>
      </trkpt>
      <trkpt lat="47.39423" lon="-0.2908">
        <ele>31.83749008179</ele>
        <time>2020-06-19T09:27:31.599Z</time>
      </trkpt>
      <trkpt lat="47.39408" lon="-0.29041">
        <ele>33.05201721191</ele>
        <time>2020-06-19T09:27:37.142Z</time>
      </trkpt>
      <trkpt lat="47.3939" lon="-0.28982">
        <ele>34.1678314209</ele>
        <time>2020-06-19T09:27:42.692Z</time>
      </trkpt>
      <trkpt lat="47.39337" lon="-0.28824">
        <ele>34.19339370728</ele>
        <time>2020-06-19T09:27:48.261Z</time>
      </trkpt>
      <trkpt lat="47.3929" lon="-0.2868">
        <ele>35.58912658691</ele>
        <time>2020-06-19T09:27:53.848Z</time>
      </trkpt>
      <trkpt lat="47.39275" lon="-0.28632">
        <ele>36.22960281372</ele>
        <time>2020-06-19T09:27:59.440Z</time>
      </trkpt>
      <trkpt lat="47.39263" lon="-0.28583">
        <ele>36.1349067688</ele>
        <time>2020-06-19T09:28:05.038Z</time>
      </trkpt>
      <trkpt lat="47.39259" lon="-0.28542">
        <ele>33.96326828003</ele>
        <time>2020-06-19T09:28:10.640Z</time>
      </trkpt>
      <trkpt lat="47.39253" lon="-0.28501">
        <ele>32.42290115356</ele>
        <time>2020-06-19T09:28:16.247Z</time>
      </trkpt>
      <trkpt lat="47.39249" lon="-0.28471">
        <ele>31.31908416748</ele>
        <time>2020-06-19T09:28:21.857Z</time>
      </trkpt>
      <trkpt lat="47.3924" lon="-0.28436">
        <ele>29.62027168274</ele>
        <time>2020-06-19T09:28:27.471Z</time>
      </trkpt>
      <trkpt lat="47.3922" lon="-0.28382">
        <ele>26.93367767334</ele>
        <time>2020-06-19T09:28:33.092Z</time>
      </trkpt>
      <trkpt lat="47.39202" lon="-0.28329">
        <ele>26.57104873657</ele>
        <time>2020-06-19T09:28:38.720Z</time>
      </trkpt>
      <trkpt lat="47.39184" lon="-0.28285">
        <ele>23.9955406189</ele>
        <time>2020-06-19T09:28:44.353Z</time>
      </trkpt>
      <trkpt lat="47.39165" lon="-0.28246">
        <ele>25.98488426208</ele>
        <time>2020-06-19T09:28:49.991Z</time>
      </trkpt>
      <trkpt lat="47.39146" lon="-0.28213">
        <ele>27.36041069031</ele>
        <time>2020-06-19T09:28:55.634Z</time>
      </trkpt>
      <trkpt lat="47.39133" lon="-0.28193">
        <ele>27.81653213501</ele>
        <time>2020-06-19T09:29:01.280Z</time>
      </trkpt>
      <trkpt lat="47.39112" lon="-0.28158">
        <ele>28.48842048645</ele>
        <time>2020-06-19T09:29:06.931Z</time>
      </trkpt>
      <trkpt lat="47.39067" lon="-0.28084">
        <ele>29.35680961609</ele>
        <time>2020-06-19T09:29:12.593Z</time>
      </trkpt>
      <trkpt lat="47.39015" lon="-0.28012">
        <ele>35.70976257324</ele>
        <time>2020-06-19T09:29:18.266Z</time>
      </trkpt>
      <trkpt lat="47.38932" lon="-0.27917">
        <ele>37.9158821106</ele>
        <time>2020-06-19T09:29:23.956Z</time>
      </trkpt>
      <trkpt lat="47.38897" lon="-0.2788">
        <ele>38.52861022949</ele>
        <time>2020-06-19T09:29:29.653Z</time>
      </trkpt>
      <trkpt lat="47.38866" lon="-0.27853">
        <ele>37.91217041016</ele>
        <time>2020-06-19T09:29:35.356Z</time>
      </trkpt>
      <trkpt lat="47.38785" lon="-0.27798">
        <ele>40.13716125488</ele>
        <time>2020-06-19T09:29:41.073Z</time>
      </trkpt>
      <trkpt lat="47.38749" lon="-0.27772">
        <ele>39.67638397217</ele>
        <time>2020-06-19T09:29:46.797Z</time>
      </trkpt>
      <trkpt lat="47.38747" lon="-0.27771">
        <ele>39.6946182251</ele>
        <time>2020-06-19T09:29:52.521Z</time>
      </trkpt>
      <trkpt lat="47.38739" lon="-0.27765">
        <ele>39.42546844482</ele>
        <time>2020-06-19T09:29:58.246Z</time>
      </trkpt>
      <trkpt lat="47.38699" lon="-0.27735">
        <ele>39.48900222778</ele>
        <time>2020-06-19T09:30:03.978Z</time>
      </trkpt>
      <trkpt lat="47.38668" lon="-0.2771">
        <ele>40.99112319946</ele>
        <time>2020-06-19T09:30:09.716Z</time>
      </trkpt>
      <trkpt lat="47.38592" lon="-0.27639">
        <ele>42.1240234375</ele>
        <time>2020-06-19T09:30:15.469Z</time>
      </trkpt>
      <trkpt lat="47.38546" lon="-0.27602">
        <ele>41.4453086853</ele>
        <time>2020-06-19T09:30:21.230Z</time>
      </trkpt>
      <trkpt lat="47.38458" lon="-0.27531">
        <ele>38.62587356567</ele>
        <time>2020-06-19T09:30:27.007Z</time>
      </trkpt>
      <trkpt lat="47.38341" lon="-0.27428">
        <ele>44.24716949463</ele>
        <time>2020-06-19T09:30:32.806Z</time>
      </trkpt>
      <trkpt lat="47.3827" lon="-0.27369">
        <ele>45.89056777954</ele>
        <time>2020-06-19T09:30:38.618Z</time>
      </trkpt>
      <trkpt lat="47.38232" lon="-0.27338">
        <ele>45.38516998291</ele>
        <time>2020-06-19T09:30:44.437Z</time>
      </trkpt>
      <trkpt lat="47.38189" lon="-0.27307">
        <ele>45.19557952881</ele>
        <time>2020-06-19T09:30:50.264Z</time>
      </trkpt>
      <trkpt lat="47.38119" lon="-0.27263">
        <ele>43.62395477295</ele>
        <time>2020-06-19T09:30:56.103Z</time>
      </trkpt>
      <trkpt lat="47.38041" lon="-0.27208">
        <ele>44.79578781128</ele>
        <time>2020-06-19T09:31:01.956Z</time>
      </trkpt>
      <trkpt lat="47.37976" lon="-0.27161">
        <ele>45.78941726685</ele>
        <time>2020-06-19T09:31:07.820Z</time>
      </trkpt>
      <trkpt lat="47.37903" lon="-0.27114">
        <ele>45.96644973755</ele>
        <time>2020-06-19T09:31:13.697Z</time>
      </trkpt>
      <trkpt lat="47.37826" lon="-0.27056">
        <ele>47.63354873657</ele>
        <time>2020-06-19T09:31:19.588Z</time>
      </trkpt>
      <trkpt lat="47.37717" lon="-0.2697">
        <ele>46.38306045532</ele>
        <time>2020-06-19T09:31:25.499Z</time>
      </trkpt>
      <trkpt lat="47.37689" lon="-0.26949">
        <ele>47.29342269897</ele>
        <time>2020-06-19T09:31:31.415Z</time>
      </trkpt>
      <trkpt lat="47.37668" lon="-0.26935">
        <ele>45.41791152954</ele>
        <time>2020-06-19T09:31:37.334Z</time>
      </trkpt>
      <trkpt lat="47.37666" lon="-0.26933">
        <ele>45.12268447876</ele>
        <time>2020-06-19T09:31:43.254Z</time>
      </trkpt>
      <trkpt lat="47.37658" lon="-0.26928">
        <ele>44.79655075073</ele>
        <time>2020-06-19T09:31:49.175Z</time>
      </trkpt>
      <trkpt lat="47.37609" lon="-0.26897">
        <ele>47.03343582153</ele>
        <time>2020-06-19T09:31:55.105Z</time>
      </trkpt>
      <trkpt lat="47.37553" lon="-0.26855">
        <ele>50.57166671753</ele>
        <time>2020-06-19T09:32:01.045Z</time>
      </trkpt>
      <trkpt lat="47.37489" lon="-0.26804">
        <ele>47.20204925537</ele>
        <time>2020-06-19T09:32:06.996Z</time>
      </trkpt>
      <trkpt lat="47.37451" lon="-0.26775">
        <ele>47.80485534668</ele>
        <time>2020-06-19T09:32:12.954Z</time>
      </trkpt>
      <trkpt lat="47.37415" lon="-0.26743">
        <ele>42.10771179199</ele>
        <time>2020-06-19T09:32:18.919Z</time>
      </trkpt>
      <trkpt lat="47.37377" lon="-0.26702">
        <ele>37.19618606567</ele>
        <time>2020-06-19T09:32:24.891Z</time>
      </trkpt>
      <trkpt lat="47.37328" lon="-0.26652">
        <ele>35.02142333984</ele>
        <time>2020-06-19T09:32:30.873Z</time>
      </trkpt>
      <trkpt lat="47.37301" lon="-0.26625">
        <ele>31.05270957947</ele>
        <time>2020-06-19T09:32:36.860Z</time>
      </trkpt>
      <trkpt lat="47.37276" lon="-0.26606">
        <ele>26.94939422607</ele>
        <time>2020-06-19T09:32:42.852Z</time>
      </trkpt>
      <trkpt lat="47.37185" lon="-0.26551">
        <ele>28.0523853302</ele>
        <time>2020-06-19T09:32:48.859Z</time>
      </trkpt>
      <trkpt lat="47.37147" lon="-0.26523">
        <ele>28.84281921387</ele>
        <time>2020-06-19T09:32:54.873Z</time>
      </trkpt>
      <trkpt lat="47.37088" lon="-0.26481">
        <ele>30.27649497986</ele>
        <time>2020-06-19T09:33:00.898Z</time>
      </trkpt>
      <trkpt lat="47.3703" lon="-0.26439">
        <ele>29.1387424469</ele>
        <time>2020-06-19T09:33:06.933Z</time>
      </trkpt>
      <trkpt lat="47.36897" lon="-0.26356">
        <ele>29.51912307739</ele>
        <time>2020-06-19T09:33:12.991Z</time>
      </trkpt>
      <trkpt lat="47.36876" lon="-0.26347">
        <ele>28.47529792786</ele>
        <time>2020-06-19T09:33:19.053Z</time>
      </trkpt>
      <trkpt lat="47.36849" lon="-0.26337">
        <ele>30.13890457153</ele>
        <time>2020-06-19T09:33:25.119Z</time>
      </trkpt>
      <trkpt lat="47.36817" lon="-0.2633">
        <ele>32.24967193604</ele>
        <time>2020-06-19T09:33:31.190Z</time>
      </trkpt>
      <trkpt lat="47.36793" lon="-0.26327">
        <ele>32.17768478394</ele>
        <time>2020-06-19T09:33:37.265Z</time>
      </trkpt>
      <trkpt lat="47.36759" lon="-0.2632">
        <ele>31.74575614929</ele>
        <time>2020-06-19T09:33:43.346Z</time>
      </trkpt>
      <trkpt lat="47.36734" lon="-0.26317">
        <ele>30.52461242676</ele>
        <time>2020-06-19T09:33:49.431Z</time>
      </trkpt>
      <trkpt lat="47.36631" lon="-0.26306">
        <ele>28.07836914062</ele>
        <time>2020-06-19T09:33:55.532Z</time>
      </trkpt>
      <trkpt lat="47.3661" lon="-0.26306">
        <ele>27.82641220093</ele>
        <time>2020-06-19T09:34:01.637Z</time>
      </trkpt>
      <trkpt lat="47.36583" lon="-0.26308">
        <ele>27.59844970703</ele>
        <time>2020-06-19T09:34:07.746Z</time>
      </trkpt>
      <trkpt lat="47.3655" lon="-0.26308">
        <ele>26.97301101685</ele>
        <time>2020-06-19T09:34:13.860Z</time>
      </trkpt>
      <trkpt lat="47.36525" lon="-0.26304">
        <ele>26.13315010071</ele>
        <time>2020-06-19T09:34:19.978Z</time>
      </trkpt>
      <trkpt lat="47.36448" lon="-0.26292">
        <ele>24.95203781128</ele>
        <time>2020-06-19T09:34:26.109Z</time>
      </trkpt>
      <trkpt lat="47.36409" lon="-0.26284">
        <ele>24.80431175232</ele>
        <time>2020-06-19T09:34:32.246Z</time>
      </trkpt>
      <trkpt lat="47.36383" lon="-0.26275">
        <ele>23.86846733093</ele>
        <time>2020-06-19T09:34:38.387Z</time>
      </trkpt>
      <trkpt lat="47.36321" lon="-0.26251">
        <ele>23.861743927</ele>
        <time>2020-06-19T09:34:44.538Z</time>
      </trkpt>
      <trkpt lat="47.36298" lon="-0.2624">
        <ele>24.60299301147</ele>
        <time>2020-06-19T09:34:50.693Z</time>
      </trkpt>
      <trkpt lat="47.36267" lon="-0.2622">
        <ele>24.23105430603</ele>
        <time>2020-06-19T09:34:56.854Z</time>
      </trkpt>
      <trkpt lat="47.36232" lon="-0.26196">
        <ele>25.32318687439</ele>
        <time>2020-06-19T09:35:03.021Z</time>
      </trkpt>
      <trkpt lat="47.3623" lon="-0.26194">
        <ele>25.48061752319</ele>
        <time>2020-06-19T09:35:09.188Z</time>
      </trkpt>
      <trkpt lat="47.36223" lon="-0.26189">
        <ele>26.06489944458</ele>
        <time>2020-06-19T09:35:15.357Z</time>
      </trkpt>
      <trkpt lat="47.36184" lon="-0.2616">
        <ele>29.22037315369</ele>
        <time>2020-06-19T09:35:21.533Z</time>
      </trkpt>
      <trkpt lat="47.36121" lon="-0.26119">
        <ele>30.38192367554</ele>
        <time>2020-06-19T09:35:27.720Z</time>
      </trkpt>
      <trkpt lat="47.36064" lon="-0.26073">
        <ele>29.5870475769</ele>
        <time>2020-06-19T09:35:33.917Z</time>
      </trkpt>
      <trkpt lat="47.36037" lon="-0.26048">
        <ele>29.15507698059</ele>
        <time>2020-06-19T09:35:40.119Z</time>
      </trkpt>
      <trkpt lat="47.36019" lon="-0.26029">
        <ele>28.87859344482</ele>
        <time>2020-06-19T09:35:46.325Z</time>
      </trkpt>
      <trkpt lat="47.36006" lon="-0.26011">
        <ele>28.86247062683</ele>
        <time>2020-06-19T09:35:52.534Z</time>
      </trkpt>
      <trkpt lat="47.35995" lon="-0.25994">
        <ele>28.9476776123</ele>
        <time>2020-06-19T09:35:58.745Z</time>
      </trkpt>
      <trkpt lat="47.3598" lon="-0.25974">
        <ele>29.32048797607</ele>
        <time>2020-06-19T09:36:04.959Z</time>
      </trkpt>
      <trkpt lat="47.35922" lon="-0.25905">
        <ele>28.14350509644</ele>
        <time>2020-06-19T09:36:11.185Z</time>
      </trkpt>
      <trkpt lat="47.35852" lon="-0.25823">
        <ele>26.82120704651</ele>
        <time>2020-06-19T09:36:17.426Z</time>
      </trkpt>
      <trkpt lat="47.35838" lon="-0.25803">
        <ele>26.91719055176</ele>
        <time>2020-06-19T09:36:23.670Z</time>
      </trkpt>
      <trkpt lat="47.3582" lon="-0.25769">
        <ele>26.80913543701</ele>
        <time>2020-06-19T09:36:29.918Z</time>
      </trkpt>
      <trkpt lat="47.35782" lon="-0.25687">
        <ele>26</ele>
        <time>2020-06-19T09:36:36.177Z</time>
      </trkpt>
      <trkpt lat="47.35752" lon="-0.25644">
        <ele>25.22941970825</ele>
        <time>2020-06-19T09:36:42.443Z</time>
      </trkpt>
      <trkpt lat="47.35709" lon="-0.25536">
        <ele>23.65461921692</ele>
        <time>2020-06-19T09:36:48.723Z</time>
      </trkpt>
      <trkpt lat="47.35643" lon="-0.25378">
        <ele>26.80401611328</ele>
        <time>2020-06-19T09:36:55.023Z</time>
      </trkpt>
      <trkpt lat="47.35625" lon="-0.25348">
        <ele>28.67570495605</ele>
        <time>2020-06-19T09:37:01.327Z</time>
      </trkpt>
      <trkpt lat="47.35595" lon="-0.25288">
        <ele>28.49480438232</ele>
        <time>2020-06-19T09:37:07.639Z</time>
      </trkpt>
      <trkpt lat="47.35547" lon="-0.252">
        <ele>27.18068885803</ele>
        <time>2020-06-19T09:37:13.963Z</time>
      </trkpt>
      <trkpt lat="47.35529" lon="-0.25173">
        <ele>27.16755485535</ele>
        <time>2020-06-19T09:37:20.292Z</time>
      </trkpt>
      <trkpt lat="47.35528" lon="-0.25171">
        <ele>27.20405387878</ele>
        <time>2020-06-19T09:37:26.621Z</time>
      </trkpt>
      <trkpt lat="47.35521" lon="-0.25161">
        <ele>27.36186790466</ele>
        <time>2020-06-19T09:37:32.951Z</time>
      </trkpt>
      <trkpt lat="47.35493" lon="-0.25121">
        <ele>28.72016906738</ele>
        <time>2020-06-19T09:37:39.288Z</time>
      </trkpt>
      <trkpt lat="47.35475" lon="-0.251">
        <ele>31.52770042419</ele>
        <time>2020-06-19T09:37:45.628Z</time>
      </trkpt>
      <trkpt lat="47.35462" lon="-0.25088">
        <ele>33.55536270142</ele>
        <time>2020-06-19T09:37:51.971Z</time>
      </trkpt>
      <trkpt lat="47.35396" lon="-0.25035">
        <ele>35.54264450073</ele>
        <time>2020-06-19T09:37:58.326Z</time>
      </trkpt>
      <trkpt lat="47.35362" lon="-0.25009">
        <ele>34.11305618286</ele>
        <time>2020-06-19T09:38:04.687Z</time>
      </trkpt>
      <trkpt lat="47.35319" lon="-0.24968">
        <ele>34.82093811035</ele>
        <time>2020-06-19T09:38:11.056Z</time>
      </trkpt>
      <trkpt lat="47.35269" lon="-0.24911">
        <ele>35.52009963989</ele>
        <time>2020-06-19T09:38:17.435Z</time>
      </trkpt>
      <trkpt lat="47.35227" lon="-0.24858">
        <ele>32.47520828247</ele>
        <time>2020-06-19T09:38:23.823Z</time>
      </trkpt>
      <trkpt lat="47.35195" lon="-0.24806">
        <ele>30.01524734497</ele>
        <time>2020-06-19T09:38:30.219Z</time>
      </trkpt>
      <trkpt lat="47.35146" lon="-0.24712">
        <ele>35.56876754761</ele>
        <time>2020-06-19T09:38:36.628Z</time>
      </trkpt>
      <trkpt lat="47.35102" lon="-0.24627">
        <ele>45.96156692505</ele>
        <time>2020-06-19T09:38:43.048Z</time>
      </trkpt>
      <trkpt lat="47.35067" lon="-0.2455">
        <ele>45.8581161499</ele>
        <time>2020-06-19T09:38:49.478Z</time>
      </trkpt>
      <trkpt lat="47.35053" lon="-0.2452">
        <ele>41.62284088135</ele>
        <time>2020-06-19T09:38:55.912Z</time>
      </trkpt>
      <trkpt lat="47.35039" lon="-0.24481">
        <ele>36.7084236145</ele>
        <time>2020-06-19T09:39:02.351Z</time>
      </trkpt>
      <trkpt lat="47.35024" lon="-0.24454">
        <ele>39.15625</ele>
        <time>2020-06-19T09:39:08.794Z</time>
      </trkpt>
      <trkpt lat="47.35009" lon="-0.24433">
        <ele>41.51521682739</ele>
        <time>2020-06-19T09:39:15.240Z</time>
      </trkpt>
      <trkpt lat="47.34967" lon="-0.24381">
        <ele>41.22303009033</ele>
        <time>2020-06-19T09:39:21.695Z</time>
      </trkpt>
      <trkpt lat="47.34911" lon="-0.24319">
        <ele>39.66379928589</ele>
        <time>2020-06-19T09:39:28.161Z</time>
      </trkpt>
      <trkpt lat="47.34852" lon="-0.24251">
        <ele>43.18164825439</ele>
        <time>2020-06-19T09:39:34.639Z</time>
      </trkpt>
      <trkpt lat="47.34812" lon="-0.24197">
        <ele>41.88753890991</ele>
        <time>2020-06-19T09:39:41.126Z</time>
      </trkpt>
      <trkpt lat="47.34788" lon="-0.24157">
        <ele>39.63301086426</ele>
        <time>2020-06-19T09:39:47.619Z</time>
      </trkpt>
      <trkpt lat="47.34772" lon="-0.24128">
        <ele>41.86136245728</ele>
        <time>2020-06-19T09:39:54.116Z</time>
      </trkpt>
      <trkpt lat="47.34753" lon="-0.24084">
        <ele>37.92961883545</ele>
        <time>2020-06-19T09:40:00.618Z</time>
      </trkpt>
      <trkpt lat="47.34704" lon="-0.23958">
        <ele>30.57082748413</ele>
        <time>2020-06-19T09:40:07.136Z</time>
      </trkpt>
      <trkpt lat="47.34698" lon="-0.23943">
        <ele>30.77198028564</ele>
        <time>2020-06-19T09:40:13.656Z</time>
      </trkpt>
      <trkpt lat="47.34697" lon="-0.2394">
        <ele>30.80800056458</ele>
        <time>2020-06-19T09:40:20.177Z</time>
      </trkpt>
      <trkpt lat="47.34691" lon="-0.23926">
        <ele>30.31261253357</ele>
        <time>2020-06-19T09:40:26.699Z</time>
      </trkpt>
      <trkpt lat="47.34653" lon="-0.23826">
        <ele>24.99475097656</ele>
        <time>2020-06-19T09:40:33.234Z</time>
      </trkpt>
      <trkpt lat="47.34623" lon="-0.23756">
        <ele>22.14405822754</ele>
        <time>2020-06-19T09:40:39.778Z</time>
      </trkpt>
      <trkpt lat="47.34597" lon="-0.23703">
        <ele>25.88883781433</ele>
        <time>2020-06-19T09:40:46.329Z</time>
      </trkpt>
      <trkpt lat="47.34559" lon="-0.23632">
        <ele>31.40864944458</ele>
        <time>2020-06-19T09:40:52.890Z</time>
      </trkpt>
      <trkpt lat="47.34535" lon="-0.23581">
        <ele>32.07136535645</ele>
        <time>2020-06-19T09:40:59.457Z</time>
      </trkpt>
      <trkpt lat="47.34489" lon="-0.2347">
        <ele>31.7449016571</ele>
        <time>2020-06-19T09:41:06.039Z</time>
      </trkpt>
      <trkpt lat="47.34474" lon="-0.23434">
        <ele>35.24100494385</ele>
        <time>2020-06-19T09:41:12.625Z</time>
      </trkpt>
      <trkpt lat="47.34472" lon="-0.23431">
        <ele>35.60582351685</ele>
        <time>2020-06-19T09:41:19.212Z</time>
      </trkpt>
      <trkpt lat="47.34466" lon="-0.23416">
        <ele>37.61046218872</ele>
        <time>2020-06-19T09:41:25.801Z</time>
      </trkpt>
      <trkpt lat="47.34418" lon="-0.23301">
        <ele>32.06885528564</ele>
        <time>2020-06-19T09:41:32.404Z</time>
      </trkpt>
      <trkpt lat="47.34371" lon="-0.23196">
        <ele>35.43076705933</ele>
        <time>2020-06-19T09:41:39.021Z</time>
      </trkpt>
      <trkpt lat="47.34362" lon="-0.23207">
        <ele>37.2544631958</ele>
        <time>2020-06-19T09:41:45.640Z</time>
      </trkpt>
      <trkpt lat="47.34356" lon="-0.23213">
        <ele>38.43685531616</ele>
        <time>2020-06-19T09:41:52.260Z</time>
      </trkpt>
      <trkpt lat="47.3435" lon="-0.23215">
        <ele>39.46868515015</ele>
        <time>2020-06-19T09:41:58.881Z</time>
      </trkpt>
      <trkpt lat="47.34335" lon="-0.23214">
        <ele>41.54433822632</ele>
        <time>2020-06-19T09:42:05.504Z</time>
      </trkpt>
      <trkpt lat="47.34316" lon="-0.23209">
        <ele>44.66957855225</ele>
        <time>2020-06-19T09:42:12.130Z</time>
      </trkpt>
      <trkpt lat="47.34331" lon="-0.23185">
        <ele>39.04778289795</ele>
        <time>2020-06-19T09:42:18.760Z</time>
      </trkpt>
      <trkpt lat="47.3433" lon="-0.23181">
        <ele>38.79056167603</ele>
        <time>2020-06-19T09:42:25.390Z</time>
      </trkpt>
      <trkpt lat="47.3432" lon="-0.23175">
        <ele>40.18232727051</ele>
        <time>2020-06-19T09:42:32.022Z</time>
      </trkpt>
      <trkpt lat="47.34309" lon="-0.23167">
        <ele>41.56209945679</ele>
        <time>2020-06-19T09:42:38.656Z</time>
      </trkpt>
      <trkpt lat="47.34306" lon="-0.23165">
        <ele>41.95803070068</ele>
        <time>2020-06-19T09:42:45.291Z</time>
      </trkpt>
      <trkpt lat="47.34306" lon="-0.2316">
        <ele>41.41812133789</ele>
        <time>2020-06-19T09:42:51.926Z</time>
      </trkpt>
      <trkpt lat="47.34319" lon="-0.23134">
        <ele>34.93597793579</ele>
        <time>2020-06-19T09:42:58.565Z</time>
      </trkpt>
      <trkpt lat="47.34288" lon="-0.231">
        <ele>32.63290405273</ele>
        <time>2020-06-19T09:43:05.210Z</time>
      </trkpt>
      <trkpt lat="47.34256" lon="-0.23069">
        <ele>29.72175979614</ele>
        <time>2020-06-19T09:43:11.861Z</time>
      </trkpt>
      <trkpt lat="47.34242" lon="-0.23053">
        <ele>27.71046829224</ele>
        <time>2020-06-19T09:43:18.515Z</time>
      </trkpt>
      <trkpt lat="47.34224" lon="-0.23029">
        <ele>27.19743728638</ele>
        <time>2020-06-19T09:43:25.173Z</time>
      </trkpt>
      <trkpt lat="47.34207" lon="-0.2299">
        <ele>27.51517486572</ele>
        <time>2020-06-19T09:43:31.836Z</time>
      </trkpt>
      <trkpt lat="47.34201" lon="-0.22981">
        <ele>27.44318580627</ele>
        <time>2020-06-19T09:43:38.500Z</time>
      </trkpt>
      <trkpt lat="47.34183" lon="-0.22942">
        <ele>26.93179702759</ele>
        <time>2020-06-19T09:43:45.169Z</time>
      </trkpt>
      <trkpt lat="47.34181" lon="-0.22939">
        <ele>26.79266929626</ele>
        <time>2020-06-19T09:43:51.839Z</time>
      </trkpt>
      <trkpt lat="47.34176" lon="-0.22928">
        <ele>26.20200538635</ele>
        <time>2020-06-19T09:43:58.510Z</time>
      </trkpt>
      <trkpt lat="47.34175" lon="-0.22926">
        <ele>26.09402275085</ele>
        <time>2020-06-19T09:44:05.181Z</time>
      </trkpt>
      <trkpt lat="47.34167" lon="-0.22919">
        <ele>25.55411338806</ele>
        <time>2020-06-19T09:44:11.854Z</time>
      </trkpt>
      <trkpt lat="47.34161" lon="-0.22918">
        <ele>25.44909095764</ele>
        <time>2020-06-19T09:44:18.528Z</time>
      </trkpt>
      <trkpt lat="47.34154" lon="-0.22926">
        <ele>25.82102775574</ele>
        <time>2020-06-19T09:44:25.203Z</time>
      </trkpt>
      <trkpt lat="47.34139" lon="-0.22952">
        <ele>26.93684196472</ele>
        <time>2020-06-19T09:44:31.882Z</time>
      </trkpt>
      <trkpt lat="47.34129" lon="-0.22978">
        <ele>27.22854423523</ele>
        <time>2020-06-19T09:44:38.564Z</time>
      </trkpt>
      <trkpt lat="47.34128" lon="-0.22981">
        <ele>27.20799636841</ele>
        <time>2020-06-19T09:44:45.247Z</time>
      </trkpt>
      <trkpt lat="47.34124" lon="-0.22991">
        <ele>27.13401985168</ele>
        <time>2020-06-19T09:44:51.931Z</time>
      </trkpt>
      <trkpt lat="47.34123" lon="-0.22995">
        <ele>27.09802627563</ele>
        <time>2020-06-19T09:44:58.615Z</time>
      </trkpt>
      <trkpt lat="47.34104" lon="-0.23056">
        <ele>27.12650871277</ele>
        <time>2020-06-19T09:45:05.307Z</time>
      </trkpt>
      <trkpt lat="47.34095" lon="-0.23064">
        <ele>27.22249412537</ele>
        <time>2020-06-19T09:45:12.000Z</time>
      </trkpt>
      <trkpt lat="47.34107" lon="-0.23113">
        <ele>28.5650138855</ele>
        <time>2020-06-19T09:45:18.699Z</time>
      </trkpt>
      <trkpt lat="47.34112" lon="-0.23132">
        <ele>30.52068710327</ele>
        <time>2020-06-19T09:45:25.400Z</time>
      </trkpt>
      <trkpt lat="47.34112" lon="-0.23148">
        <ele>31.86446380615</ele>
        <time>2020-06-19T09:45:32.103Z</time>
      </trkpt>
      <trkpt lat="47.34113" lon="-0.2315">
        <ele>32.10442352295</ele>
        <time>2020-06-19T09:45:38.806Z</time>
      </trkpt>
      <trkpt lat="47.34113" lon="-0.23152">
        <ele>32.27239608765</ele>
        <time>2020-06-19T09:45:45.509Z</time>
      </trkpt>
      <trkpt lat="47.34113" lon="-0.23156">
        <ele>32.60834121704</ele>
        <time>2020-06-19T09:45:52.213Z</time>
      </trkpt>
      <trkpt lat="47.34112" lon="-0.23159">
        <ele>32.78831100464</ele>
        <time>2020-06-19T09:45:58.917Z</time>
      </trkpt>
      <trkpt lat="47.34108" lon="-0.23163">
        <ele>32.83629989624</ele>
        <time>2020-06-19T09:46:05.622Z</time>
      </trkpt>
      <trkpt lat="47.34105" lon="-0.23162">
        <ele>32.53635025024</ele>
        <time>2020-06-19T09:46:12.328Z</time>
      </trkpt>
      <trkpt lat="47.34104" lon="-0.23161">
        <ele>32.38037872314</ele>
        <time>2020-06-19T09:46:19.034Z</time>
      </trkpt>
      <trkpt lat="47.34093" lon="-0.23164">
        <ele>31.840467453</ele>
        <time>2020-06-19T09:46:25.742Z</time>
      </trkpt>
      <trkpt lat="47.34084" lon="-0.23167">
        <ele>31.44453430176</ele>
        <time>2020-06-19T09:46:32.451Z</time>
      </trkpt>
      <trkpt lat="47.34026" lon="-0.23222">
        <ele>31.19552612305</ele>
        <time>2020-06-19T09:46:39.171Z</time>
      </trkpt>
      <trkpt lat="47.34024" lon="-0.23224">
        <ele>31.08534622192</ele>
        <time>2020-06-19T09:46:45.891Z</time>
      </trkpt>
      <trkpt lat="47.34017" lon="-0.23231">
        <ele>30.63948249817</ele>
        <time>2020-06-19T09:46:52.613Z</time>
      </trkpt>
      <trkpt lat="47.33934" lon="-0.23305">
        <ele>30.11401176453</ele>
        <time>2020-06-19T09:46:59.350Z</time>
      </trkpt>
      <trkpt lat="47.33923" lon="-0.2332">
        <ele>30.29398155212</ele>
        <time>2020-06-19T09:47:06.090Z</time>
      </trkpt>
      <trkpt lat="47.33919" lon="-0.23327">
        <ele>30.37796783447</ele>
        <time>2020-06-19T09:47:12.831Z</time>
      </trkpt>
      <trkpt lat="47.33912" lon="-0.23358">
        <ele>30.71775054932</ele>
        <time>2020-06-19T09:47:19.575Z</time>
      </trkpt>
      <trkpt lat="47.33911" lon="-0.23361">
        <ele>30.74554634094</ele>
        <time>2020-06-19T09:47:26.320Z</time>
      </trkpt>
      <trkpt lat="47.33908" lon="-0.23374">
        <ele>30.86964607239</ele>
        <time>2020-06-19T09:47:33.066Z</time>
      </trkpt>
      <trkpt lat="47.33901" lon="-0.23408">
        <ele>31.23096847534</ele>
        <time>2020-06-19T09:47:39.816Z</time>
      </trkpt>
      <trkpt lat="47.33901" lon="-0.23412">
        <ele>31.32695388794</ele>
        <time>2020-06-19T09:47:46.566Z</time>
      </trkpt>
      <trkpt lat="47.33899" lon="-0.23412">
        <ele>31.25586128235</ele>
        <time>2020-06-19T09:47:53.317Z</time>
      </trkpt>
      <trkpt lat="47.33897" lon="-0.23411">
        <ele>31.16378211975</ele>
        <time>2020-06-19T09:48:00.068Z</time>
      </trkpt>
      <trkpt lat="47.33888" lon="-0.23408">
        <ele>30.76304626465</ele>
        <time>2020-06-19T09:48:06.821Z</time>
      </trkpt>
      <trkpt lat="47.3388" lon="-0.23405">
        <ele>30.59182739258</ele>
        <time>2020-06-19T09:48:13.575Z</time>
      </trkpt>
      <trkpt lat="47.3388" lon="-0.23406">
        <ele>30.58653640747</ele>
        <time>2020-06-19T09:48:20.329Z</time>
      </trkpt>
      <trkpt lat="47.33878" lon="-0.23409">
        <ele>30.57263183594</ele>
        <time>2020-06-19T09:48:27.083Z</time>
      </trkpt>
      <trkpt lat="47.33874" lon="-0.23419">
        <ele>30.52308654785</ele>
        <time>2020-06-19T09:48:33.839Z</time>
      </trkpt>
      <trkpt lat="47.3387" lon="-0.23432">
        <ele>30.69105911255</ele>
        <time>2020-06-19T09:48:40.596Z</time>
      </trkpt>
      <trkpt lat="47.33866" lon="-0.23449">
        <ele>30.9550151825</ele>
        <time>2020-06-19T09:48:47.355Z</time>
      </trkpt>
      <trkpt lat="47.33842" lon="-0.23431">
        <ele>30.13507652283</ele>
        <time>2020-06-19T09:48:54.119Z</time>
      </trkpt>
      <trkpt lat="47.3384" lon="-0.2343">
        <ele>30.1118850708</ele>
        <time>2020-06-19T09:49:00.883Z</time>
      </trkpt>
      <trkpt lat="47.3384" lon="-0.2343">
        <ele>30.11190795898</ele>
        <time>2020-06-19T09:49:07.647Z</time>
      </trkpt>
      <trkpt lat="47.33826" lon="-0.23423">
        <ele>29.94393539429</ele>
        <time>2020-06-19T09:49:14.413Z</time>
      </trkpt>
      <trkpt lat="47.3382" lon="-0.23422">
        <ele>29.87194824219</ele>
        <time>2020-06-19T09:49:21.180Z</time>
      </trkpt>
      <trkpt lat="47.3381" lon="-0.23433">
        <ele>29.75196838379</ele>
        <time>2020-06-19T09:49:27.949Z</time>
      </trkpt>
      <trkpt lat="47.33797" lon="-0.23414">
        <ele>29.59599304199</ele>
        <time>2020-06-19T09:49:34.721Z</time>
      </trkpt>
      <trkpt lat="47.33787" lon="-0.23412">
        <ele>29.60220146179</ele>
        <time>2020-06-19T09:49:41.495Z</time>
      </trkpt>
      <trkpt lat="47.33783" lon="-0.23411">
        <ele>29.61420059204</ele>
        <time>2020-06-19T09:49:48.269Z</time>
      </trkpt>
      <trkpt lat="47.33766" lon="-0.23408">
        <ele>29.65019416809</ele>
        <time>2020-06-19T09:49:55.046Z</time>
      </trkpt>
      <trkpt lat="47.33752" lon="-0.23411">
        <ele>29.61420059204</ele>
        <time>2020-06-19T09:50:01.825Z</time>
      </trkpt>
      <trkpt lat="47.33751" lon="-0.23412">
        <ele>29.60879135132</ele>
        <time>2020-06-19T09:50:08.605Z</time>
      </trkpt>
      <trkpt lat="47.33747" lon="-0.23413">
        <ele>29.60192298889</ele>
        <time>2020-06-19T09:50:15.385Z</time>
      </trkpt>
      <trkpt lat="47.33692" lon="-0.23437">
        <ele>31.29364013672</ele>
        <time>2020-06-19T09:50:22.174Z</time>
      </trkpt>
      <trkpt lat="47.3366" lon="-0.23453">
        <ele>32.93291473389</ele>
        <time>2020-06-19T09:50:28.969Z</time>
      </trkpt>
      <trkpt lat="47.33656" lon="-0.23455">
        <ele>33.30239486694</ele>
        <time>2020-06-19T09:50:35.765Z</time>
      </trkpt>
      <trkpt lat="47.33572" lon="-0.23496">
        <ele>43.44978713989</ele>
        <time>2020-06-19T09:50:42.575Z</time>
      </trkpt>
      <trkpt lat="47.33556" lon="-0.23502">
        <ele>46.13734054565</ele>
        <time>2020-06-19T09:50:49.387Z</time>
      </trkpt>
      <trkpt lat="47.33544" lon="-0.23471">
        <ele>47.15154266357</ele>
        <time>2020-06-19T09:50:56.203Z</time>
      </trkpt>
      <trkpt lat="47.33497" lon="-0.23384">
        <ele>51.16955566406</ele>
        <time>2020-06-19T09:51:03.031Z</time>
      </trkpt>
      <trkpt lat="47.33494" lon="-0.23379">
        <ele>51.2813911438</ele>
        <time>2020-06-19T09:51:09.860Z</time>
      </trkpt>
      <trkpt lat="47.33478" lon="-0.23349">
        <ele>51.90342330933</ele>
        <time>2020-06-19T09:51:16.693Z</time>
      </trkpt>
      <trkpt lat="47.33458" lon="-0.23322">
        <ele>52.78190231323</ele>
        <time>2020-06-19T09:51:23.531Z</time>
      </trkpt>
      <trkpt lat="47.33454" lon="-0.23323">
        <ele>53.10585021973</ele>
        <time>2020-06-19T09:51:30.369Z</time>
      </trkpt>
      <trkpt lat="47.33447" lon="-0.23319">
        <ele>53.46578979492</ele>
        <time>2020-06-19T09:51:37.208Z</time>
      </trkpt>
      <trkpt lat="47.33443" lon="-0.23311">
        <ele>53.46578979492</ele>
        <time>2020-06-19T09:51:44.049Z</time>
      </trkpt>
      <trkpt lat="47.33441" lon="-0.233">
        <ele>53.21382904053</ele>
        <time>2020-06-19T09:51:50.891Z</time>
      </trkpt>
      <trkpt lat="47.33444" lon="-0.2329">
        <ele>52.96771621704</ele>
        <time>2020-06-19T09:51:57.734Z</time>
      </trkpt>
      <trkpt lat="47.33445" lon="-0.23288">
        <ele>52.94372177124</ele>
        <time>2020-06-19T09:52:04.577Z</time>
      </trkpt>
      <trkpt lat="47.33442" lon="-0.23257">
        <ele>53.6531867981</ele>
        <time>2020-06-19T09:52:11.424Z</time>
      </trkpt>
      <trkpt lat="47.33417" lon="-0.23177">
        <ele>54.50476074219</ele>
        <time>2020-06-19T09:52:18.280Z</time>
      </trkpt>
      <trkpt lat="47.33387" lon="-0.23071">
        <ele>55.27220535278</ele>
        <time>2020-06-19T09:52:25.149Z</time>
      </trkpt>
      <trkpt lat="47.33385" lon="-0.23065">
        <ele>55.16334915161</ele>
        <time>2020-06-19T09:52:32.018Z</time>
      </trkpt>
      <trkpt lat="47.33375" lon="-0.23027">
        <ele>54.93432617188</ele>
        <time>2020-06-19T09:52:38.892Z</time>
      </trkpt>
      <trkpt lat="47.3337" lon="-0.23022">
        <ele>55.05430603027</ele>
        <time>2020-06-19T09:52:45.767Z</time>
      </trkpt>
      <trkpt lat="47.33368" lon="-0.23016">
        <ele>55.10229492188</ele>
        <time>2020-06-19T09:52:52.643Z</time>
      </trkpt>
      <trkpt lat="47.33368" lon="-0.23008">
        <ele>55.10229492188</ele>
        <time>2020-06-19T09:52:59.519Z</time>
      </trkpt>
      <trkpt lat="47.33346" lon="-0.22985">
        <ele>55.63020706177</ele>
        <time>2020-06-19T09:53:06.400Z</time>
      </trkpt>
      <trkpt lat="47.33317" lon="-0.22932">
        <ele>56</ele>
        <time>2020-06-19T09:53:13.288Z</time>
      </trkpt>
      <trkpt lat="47.33258" lon="-0.22819">
        <ele>57.32202529907</ele>
        <time>2020-06-19T09:53:20.192Z</time>
      </trkpt>
      <trkpt lat="47.33255" lon="-0.22812">
        <ele>57.52177047729</ele>
        <time>2020-06-19T09:53:27.097Z</time>
      </trkpt>
      <trkpt lat="47.33182" lon="-0.22694">
        <ele>58.69802856445</ele>
        <time>2020-06-19T09:53:34.019Z</time>
      </trkpt>
      <trkpt lat="47.3314" lon="-0.22638">
        <ele>60.11134719849</ele>
        <time>2020-06-19T09:53:40.950Z</time>
      </trkpt>
      <trkpt lat="47.33126" lon="-0.22613">
        <ele>60.37720870972</ele>
        <time>2020-06-19T09:53:47.885Z</time>
      </trkpt>
      <trkpt lat="47.33108" lon="-0.22574">
        <ele>60.33158874512</ele>
        <time>2020-06-19T09:53:54.825Z</time>
      </trkpt>
      <trkpt lat="47.33097" lon="-0.22545">
        <ele>59.61005401611</ele>
        <time>2020-06-19T09:54:01.768Z</time>
      </trkpt>
      <trkpt lat="47.33087" lon="-0.22505">
        <ele>59.54189682007</ele>
        <time>2020-06-19T09:54:08.716Z</time>
      </trkpt>
      <trkpt lat="47.33075" lon="-0.22412">
        <ele>63.46766662598</ele>
        <time>2020-06-19T09:54:15.674Z</time>
      </trkpt>
      <trkpt lat="47.33054" lon="-0.22231">
        <ele>73.9525604248</ele>
        <time>2020-06-19T09:54:22.652Z</time>
      </trkpt>
      <trkpt lat="47.33042" lon="-0.2217">
        <ele>73.9175567627</ele>
        <time>2020-06-19T09:54:29.637Z</time>
      </trkpt>
      <trkpt lat="47.33015" lon="-0.22064">
        <ele>74.22449493408</ele>
        <time>2020-06-19T09:54:36.634Z</time>
      </trkpt>
      <trkpt lat="47.33006" lon="-0.22025">
        <ele>74.03227996826</ele>
        <time>2020-06-19T09:54:43.636Z</time>
      </trkpt>
      <trkpt lat="47.33001" lon="-0.21991">
        <ele>74.56018829346</ele>
        <time>2020-06-19T09:54:50.642Z</time>
      </trkpt>
      <trkpt lat="47.32997" lon="-0.2196">
        <ele>74.97891998291</ele>
        <time>2020-06-19T09:54:57.651Z</time>
      </trkpt>
      <trkpt lat="47.32995" lon="-0.21949">
        <ele>74.87112426758</ele>
        <time>2020-06-19T09:55:04.661Z</time>
      </trkpt>
      <trkpt lat="47.32992" lon="-0.2192">
        <ele>74.55918121338</ele>
        <time>2020-06-19T09:55:11.675Z</time>
      </trkpt>
      <trkpt lat="47.32986" lon="-0.21892">
        <ele>74.29521942139</ele>
        <time>2020-06-19T09:55:18.692Z</time>
      </trkpt>
      <trkpt lat="47.32967" lon="-0.21832">
        <ele>76.00843048096</ele>
        <time>2020-06-19T09:55:25.716Z</time>
      </trkpt>
      <trkpt lat="47.3295" lon="-0.21781">
        <ele>77.04081726074</ele>
        <time>2020-06-19T09:55:32.746Z</time>
      </trkpt>
      <trkpt lat="47.32933" lon="-0.2171">
        <ele>77.77027893066</ele>
        <time>2020-06-19T09:55:39.784Z</time>
      </trkpt>
      <trkpt lat="47.32917" lon="-0.21656">
        <ele>77.96224975586</ele>
        <time>2020-06-19T09:55:46.829Z</time>
      </trkpt>
      <trkpt lat="47.32901" lon="-0.21617">
        <ele>78.16981506348</ele>
        <time>2020-06-19T09:55:53.879Z</time>
      </trkpt>
      <trkpt lat="47.32879" lon="-0.21558">
        <ele>77.4605178833</ele>
        <time>2020-06-19T09:56:00.936Z</time>
      </trkpt>
      <trkpt lat="47.32871" lon="-0.21532">
        <ele>77</ele>
        <time>2020-06-19T09:56:07.996Z</time>
      </trkpt>
      <trkpt lat="47.3286" lon="-0.21513">
        <ele>76.90238952637</ele>
        <time>2020-06-19T09:56:15.059Z</time>
      </trkpt>
      <trkpt lat="47.32846" lon="-0.21495">
        <ele>75.75057983398</ele>
        <time>2020-06-19T09:56:22.125Z</time>
      </trkpt>
      <trkpt lat="47.32801" lon="-0.21444">
        <ele>73.86025238037</ele>
        <time>2020-06-19T09:56:29.200Z</time>
      </trkpt>
      <trkpt lat="47.32779" lon="-0.21425">
        <ele>73.82425689697</ele>
        <time>2020-06-19T09:56:36.279Z</time>
      </trkpt>
      <trkpt lat="47.32764" lon="-0.21417">
        <ele>73.74027252197</ele>
        <time>2020-06-19T09:56:43.361Z</time>
      </trkpt>
      <trkpt lat="47.32757" lon="-0.21412">
        <ele>73.71627807617</ele>
        <time>2020-06-19T09:56:50.444Z</time>
      </trkpt>
      <trkpt lat="47.32749" lon="-0.21398">
        <ele>73.78826141357</ele>
        <time>2020-06-19T09:56:57.529Z</time>
      </trkpt>
      <trkpt lat="47.32741" lon="-0.21381">
        <ele>74.07389068604</ele>
        <time>2020-06-19T09:57:04.616Z</time>
      </trkpt>
      <trkpt lat="47.32728" lon="-0.21361">
        <ele>74.22986602783</ele>
        <time>2020-06-19T09:57:11.706Z</time>
      </trkpt>
      <trkpt lat="47.32708" lon="-0.21338">
        <ele>74.46982574463</ele>
        <time>2020-06-19T09:57:18.800Z</time>
      </trkpt>
      <trkpt lat="47.32671" lon="-0.21278">
        <ele>76.12012481689</ele>
        <time>2020-06-19T09:57:25.903Z</time>
      </trkpt>
      <trkpt lat="47.32666" lon="-0.2127">
        <ele>76.2756652832</ele>
        <time>2020-06-19T09:57:33.007Z</time>
      </trkpt>
      <trkpt lat="47.32657" lon="-0.21259">
        <ele>76.27044677734</ele>
        <time>2020-06-19T09:57:40.113Z</time>
      </trkpt>
      <trkpt lat="47.32629" lon="-0.2123">
        <ele>76.14600372314</ele>
        <time>2020-06-19T09:57:47.224Z</time>
      </trkpt>
      <trkpt lat="47.32612" lon="-0.21219">
        <ele>76.20600128174</ele>
        <time>2020-06-19T09:57:54.338Z</time>
      </trkpt>
      <trkpt lat="47.32602" lon="-0.21211">
        <ele>76.25838470459</ele>
        <time>2020-06-19T09:58:01.454Z</time>
      </trkpt>
      <trkpt lat="47.32591" lon="-0.21202">
        <ele>76.12640380859</ele>
        <time>2020-06-19T09:58:08.572Z</time>
      </trkpt>
      <trkpt lat="47.32573" lon="-0.21191">
        <ele>75.48155975342</ele>
        <time>2020-06-19T09:58:15.693Z</time>
      </trkpt>
      <trkpt lat="47.32562" lon="-0.2118">
        <ele>74.95365142822</ele>
        <time>2020-06-19T09:58:22.817Z</time>
      </trkpt>
      <trkpt lat="47.32512" lon="-0.21094">
        <ele>73.35712432861</ele>
        <time>2020-06-19T09:58:29.953Z</time>
      </trkpt>
      <trkpt lat="47.32497" lon="-0.21064">
        <ele>73.00003051758</ele>
        <time>2020-06-19T09:58:37.093Z</time>
      </trkpt>
      <trkpt lat="47.32493" lon="-0.21055">
        <ele>72.95059967041</ele>
        <time>2020-06-19T09:58:44.234Z</time>
      </trkpt>
      <trkpt lat="47.32461" lon="-0.20986">
        <ele>70.9906463623</ele>
        <time>2020-06-19T09:58:51.384Z</time>
      </trkpt>
      <trkpt lat="47.32411" lon="-0.20875">
        <ele>68.04113006592</ele>
        <time>2020-06-19T09:58:58.549Z</time>
      </trkpt>
      <trkpt lat="47.32403" lon="-0.20851">
        <ele>68.32907867432</ele>
        <time>2020-06-19T09:59:05.717Z</time>
      </trkpt>
      <trkpt lat="47.32406" lon="-0.20849">
        <ele>68.35308074951</ele>
        <time>2020-06-19T09:59:12.885Z</time>
      </trkpt>
      <trkpt lat="47.32402" lon="-0.20838">
        <ele>68.48505401611</ele>
        <time>2020-06-19T09:59:20.054Z</time>
      </trkpt>
      <trkpt lat="47.32394" lon="-0.20823">
        <ele>68.66502380371</ele>
        <time>2020-06-19T09:59:27.226Z</time>
      </trkpt>
      <trkpt lat="47.32373" lon="-0.20786">
        <ele>68.23958587646</ele>
        <time>2020-06-19T09:59:34.403Z</time>
      </trkpt>
      <trkpt lat="47.32356" lon="-0.20754">
        <ele>68.22750091553</ele>
        <time>2020-06-19T09:59:41.584Z</time>
      </trkpt>
      <trkpt lat="47.3235" lon="-0.20737">
        <ele>67.93955230713</ele>
        <time>2020-06-19T09:59:48.767Z</time>
      </trkpt>
      <trkpt lat="47.32328" lon="-0.20684">
        <ele>68.36005401611</ele>
        <time>2020-06-19T09:59:55.957Z</time>
      </trkpt>
      <trkpt lat="47.32308" lon="-0.20639">
        <ele>70.90134429932</ele>
        <time>2020-06-19T10:00:03.153Z</time>
      </trkpt>
      <trkpt lat="47.32276" lon="-0.20575">
        <ele>75.50857543945</ele>
        <time>2020-06-19T10:00:10.358Z</time>
      </trkpt>
      <trkpt lat="47.32257" lon="-0.20543">
        <ele>77.79581451416</ele>
        <time>2020-06-19T10:00:17.567Z</time>
      </trkpt>
      <trkpt lat="47.32251" lon="-0.20534">
        <ele>78.20899963379</ele>
        <time>2020-06-19T10:00:24.778Z</time>
      </trkpt>
      <trkpt lat="47.32218" lon="-0.20494">
        <ele>79.13940429688</ele>
        <time>2020-06-19T10:00:31.995Z</time>
      </trkpt>
      <trkpt lat="47.3219" lon="-0.2046">
        <ele>78.94562530518</ele>
        <time>2020-06-19T10:00:39.218Z</time>
      </trkpt>
      <trkpt lat="47.32173" lon="-0.20427">
        <ele>78.63871765137</ele>
        <time>2020-06-19T10:00:46.446Z</time>
      </trkpt>
      <trkpt lat="47.32159" lon="-0.20389">
        <ele>78.92888641357</ele>
        <time>2020-06-19T10:00:53.678Z</time>
      </trkpt>
      <trkpt lat="47.32147" lon="-0.20358">
        <ele>79.88960266113</ele>
        <time>2020-06-19T10:01:00.914Z</time>
      </trkpt>
      <trkpt lat="47.32133" lon="-0.20318">
        <ele>81</ele>
        <time>2020-06-19T10:01:08.155Z</time>
      </trkpt>
      <trkpt lat="47.3212" lon="-0.2029">
        <ele>81</ele>
        <time>2020-06-19T10:01:15.400Z</time>
      </trkpt>
      <trkpt lat="47.32097" lon="-0.20256">
        <ele>81.26850128174</ele>
        <time>2020-06-19T10:01:22.650Z</time>
      </trkpt>
      <trkpt lat="47.32068" lon="-0.20218">
        <ele>81.99617767334</ele>
        <time>2020-06-19T10:01:29.906Z</time>
      </trkpt>
      <trkpt lat="47.32033" lon="-0.20172">
        <ele>83</ele>
        <time>2020-06-19T10:01:37.170Z</time>
      </trkpt>
      <trkpt lat="47.32006" lon="-0.2013">
        <ele>83</ele>
        <time>2020-06-19T10:01:44.440Z</time>
      </trkpt>
      <trkpt lat="47.31981" lon="-0.20083">
        <ele>84.08708953857</ele>
        <time>2020-06-19T10:01:51.717Z</time>
      </trkpt>
      <trkpt lat="47.31966" lon="-0.20043">
        <ele>84.58072662354</ele>
        <time>2020-06-19T10:01:58.999Z</time>
      </trkpt>
      <trkpt lat="47.31955" lon="-0.19993">
        <ele>83.24894714355</ele>
        <time>2020-06-19T10:02:06.286Z</time>
      </trkpt>
      <trkpt lat="47.31943" lon="-0.1994">
        <ele>81.31466674805</ele>
        <time>2020-06-19T10:02:13.579Z</time>
      </trkpt>
      <trkpt lat="47.31938" lon="-0.19906">
        <ele>79.62294769287</ele>
        <time>2020-06-19T10:02:20.876Z</time>
      </trkpt>
      <trkpt lat="47.31921" lon="-0.19865">
        <ele>77.76952362061</ele>
        <time>2020-06-19T10:02:28.178Z</time>
      </trkpt>
      <trkpt lat="47.31916" lon="-0.19849">
        <ele>77.32559967041</ele>
        <time>2020-06-19T10:02:35.482Z</time>
      </trkpt>
      <trkpt lat="47.31905" lon="-0.19805">
        <ele>75.92935180664</ele>
        <time>2020-06-19T10:02:42.791Z</time>
      </trkpt>
      <trkpt lat="47.31898" lon="-0.19773">
        <ele>75.62358093262</ele>
        <time>2020-06-19T10:02:50.104Z</time>
      </trkpt>
      <trkpt lat="47.31882" lon="-0.19728">
        <ele>75.05663299561</ele>
        <time>2020-06-19T10:02:57.423Z</time>
      </trkpt>
      <trkpt lat="47.31863" lon="-0.19683">
        <ele>73.83283996582</ele>
        <time>2020-06-19T10:03:04.747Z</time>
      </trkpt>
      <trkpt lat="47.3185" lon="-0.19644">
        <ele>73.47177124023</ele>
        <time>2020-06-19T10:03:12.076Z</time>
      </trkpt>
      <trkpt lat="47.31839" lon="-0.1961">
        <ele>73.10391235352</ele>
        <time>2020-06-19T10:03:19.409Z</time>
      </trkpt>
      <trkpt lat="47.31799" lon="-0.19529">
        <ele>73.19043731689</ele>
        <time>2020-06-19T10:03:26.753Z</time>
      </trkpt>
      <trkpt lat="47.31769" lon="-0.19471">
        <ele>73.26792907715</ele>
        <time>2020-06-19T10:03:34.105Z</time>
      </trkpt>
      <trkpt lat="47.31764" lon="-0.1946">
        <ele>73.16745758057</ele>
        <time>2020-06-19T10:03:41.458Z</time>
      </trkpt>
      <trkpt lat="47.31746" lon="-0.19425">
        <ele>72.53796386719</ele>
        <time>2020-06-19T10:03:48.816Z</time>
      </trkpt>
      <trkpt lat="47.31727" lon="-0.19384">
        <ele>71.76013183594</ele>
        <time>2020-06-19T10:03:56.180Z</time>
      </trkpt>
      <trkpt lat="47.31699" lon="-0.19313">
        <ele>71.84838104248</ele>
        <time>2020-06-19T10:04:03.553Z</time>
      </trkpt>
      <trkpt lat="47.31685" lon="-0.19275">
        <ele>70.32278442383</ele>
        <time>2020-06-19T10:04:10.930Z</time>
      </trkpt>
      <trkpt lat="47.31668" lon="-0.19216">
        <ele>69.05612182617</ele>
        <time>2020-06-19T10:04:18.314Z</time>
      </trkpt>
      <trkpt lat="47.31653" lon="-0.19155">
        <ele>66.83921051025</ele>
        <time>2020-06-19T10:04:25.705Z</time>
      </trkpt>
      <trkpt lat="47.31638" lon="-0.19085">
        <ele>64.96489715576</ele>
        <time>2020-06-19T10:04:33.104Z</time>
      </trkpt>
      <trkpt lat="47.31614" lon="-0.19017">
        <ele>64</ele>
        <time>2020-06-19T10:04:40.512Z</time>
      </trkpt>
      <trkpt lat="47.31595" lon="-0.18965">
        <ele>65.56182861328</ele>
        <time>2020-06-19T10:04:47.926Z</time>
      </trkpt>
      <trkpt lat="47.31576" lon="-0.18925">
        <ele>66.87445831299</ele>
        <time>2020-06-19T10:04:55.345Z</time>
      </trkpt>
      <trkpt lat="47.31524" lon="-0.18829">
        <ele>67.03366088867</ele>
        <time>2020-06-19T10:05:02.778Z</time>
      </trkpt>
      <trkpt lat="47.31474" lon="-0.18719">
        <ele>65.64371490479</ele>
        <time>2020-06-19T10:05:10.225Z</time>
      </trkpt>
      <trkpt lat="47.31466" lon="-0.18696">
        <ele>66.11403656006</ele>
        <time>2020-06-19T10:05:17.675Z</time>
      </trkpt>
      <trkpt lat="47.31449" lon="-0.18635">
        <ele>66.23397064209</ele>
        <time>2020-06-19T10:05:25.132Z</time>
      </trkpt>
      <trkpt lat="47.31433" lon="-0.18581">
        <ele>67.76274108887</ele>
        <time>2020-06-19T10:05:32.596Z</time>
      </trkpt>
      <trkpt lat="47.31419" lon="-0.18552">
        <ele>69.47845458984</ele>
        <time>2020-06-19T10:05:40.063Z</time>
      </trkpt>
      <trkpt lat="47.31409" lon="-0.18536">
        <ele>70.32537841797</ele>
        <time>2020-06-19T10:05:47.533Z</time>
      </trkpt>
      <trkpt lat="47.31377" lon="-0.18496">
        <ele>72.31749725342</ele>
        <time>2020-06-19T10:05:55.010Z</time>
      </trkpt>
      <trkpt lat="47.31349" lon="-0.18454">
        <ele>73.3253326416</ele>
        <time>2020-06-19T10:06:02.493Z</time>
      </trkpt>
      <trkpt lat="47.31334" lon="-0.18427">
        <ele>74.59986877441</ele>
        <time>2020-06-19T10:06:09.980Z</time>
      </trkpt>
      <trkpt lat="47.31311" lon="-0.18373">
        <ele>76.69310760498</ele>
        <time>2020-06-19T10:06:17.474Z</time>
      </trkpt>
      <trkpt lat="47.31296" lon="-0.1834">
        <ele>77.25124359131</ele>
        <time>2020-06-19T10:06:24.972Z</time>
      </trkpt>
      <trkpt lat="47.3129" lon="-0.18328">
        <ele>77.44898223877</ele>
        <time>2020-06-19T10:06:32.472Z</time>
      </trkpt>
      <trkpt lat="47.31281" lon="-0.18308">
        <ele>77.77292633057</ele>
        <time>2020-06-19T10:06:39.974Z</time>
      </trkpt>
      <trkpt lat="47.3126" lon="-0.18273">
        <ele>78.63166046143</ele>
        <time>2020-06-19T10:06:47.481Z</time>
      </trkpt>
      <trkpt lat="47.31241" lon="-0.1824">
        <ele>79.79765319824</ele>
        <time>2020-06-19T10:06:54.993Z</time>
      </trkpt>
      <trkpt lat="47.31207" lon="-0.1818">
        <ele>79.24851989746</ele>
        <time>2020-06-19T10:07:02.514Z</time>
      </trkpt>
      <trkpt lat="47.31181" lon="-0.18131">
        <ele>79.58155059814</ele>
        <time>2020-06-19T10:07:10.041Z</time>
      </trkpt>
      <trkpt lat="47.31165" lon="-0.18105">
        <ele>79.67263793945</ele>
        <time>2020-06-19T10:07:17.572Z</time>
      </trkpt>
      <trkpt lat="47.31146" lon="-0.18067">
        <ele>79.68989562988</ele>
        <time>2020-06-19T10:07:25.108Z</time>
      </trkpt>
      <trkpt lat="47.3113" lon="-0.18023">
        <ele>80.06477355957</ele>
        <time>2020-06-19T10:07:32.650Z</time>
      </trkpt>
      <trkpt lat="47.31105" lon="-0.17952">
        <ele>81.73909759521</ele>
        <time>2020-06-19T10:07:40.200Z</time>
      </trkpt>
      <trkpt lat="47.31077" lon="-0.17884">
        <ele>81.96143341064</ele>
        <time>2020-06-19T10:07:47.759Z</time>
      </trkpt>
      <trkpt lat="47.31035" lon="-0.17803">
        <ele>81.34045410156</ele>
        <time>2020-06-19T10:07:55.329Z</time>
      </trkpt>
      <trkpt lat="47.3101" lon="-0.17767">
        <ele>81.68486785889</ele>
        <time>2020-06-19T10:08:02.905Z</time>
      </trkpt>
      <trkpt lat="47.30995" lon="-0.17748">
        <ele>82</ele>
        <time>2020-06-19T10:08:10.484Z</time>
      </trkpt>
      <trkpt lat="47.30981" lon="-0.17721">
        <ele>82</ele>
        <time>2020-06-19T10:08:18.067Z</time>
      </trkpt>
      <trkpt lat="47.30952" lon="-0.17654">
        <ele>82.22500610352</ele>
        <time>2020-06-19T10:08:25.658Z</time>
      </trkpt>
      <trkpt lat="47.30941" lon="-0.17629">
        <ele>82.65693664551</ele>
        <time>2020-06-19T10:08:33.253Z</time>
      </trkpt>
      <trkpt lat="47.30917" lon="-0.17575">
        <ele>82.91649627686</ele>
        <time>2020-06-19T10:08:40.855Z</time>
      </trkpt>
      <trkpt lat="47.30902" lon="-0.17541">
        <ele>83</ele>
        <time>2020-06-19T10:08:48.461Z</time>
      </trkpt>
      <trkpt lat="47.30875" lon="-0.17465">
        <ele>83.41647338867</ele>
        <time>2020-06-19T10:08:56.076Z</time>
      </trkpt>
      <trkpt lat="47.3086" lon="-0.1742">
        <ele>83.14791107178</ele>
        <time>2020-06-19T10:09:03.697Z</time>
      </trkpt>
      <trkpt lat="47.30848" lon="-0.17385">
        <ele>82.87195587158</ele>
        <time>2020-06-19T10:09:11.322Z</time>
      </trkpt>
      <trkpt lat="47.30815" lon="-0.17297">
        <ele>83.36408996582</ele>
        <time>2020-06-19T10:09:18.958Z</time>
      </trkpt>
      <trkpt lat="47.30791" lon="-0.17223">
        <ele>83.08216094971</ele>
        <time>2020-06-19T10:09:26.603Z</time>
      </trkpt>
      <trkpt lat="47.30782" lon="-0.17188">
        <ele>82.3226852417</ele>
        <time>2020-06-19T10:09:34.252Z</time>
      </trkpt>
      <trkpt lat="47.30765" lon="-0.17158">
        <ele>80.81151580811</ele>
        <time>2020-06-19T10:09:41.905Z</time>
      </trkpt>
      <trkpt lat="47.3072" lon="-0.17118">
        <ele>77.12450408936</ele>
        <time>2020-06-19T10:09:49.567Z</time>
      </trkpt>
      <trkpt lat="47.30685" lon="-0.17085">
        <ele>74.23294830322</ele>
        <time>2020-06-19T10:09:57.235Z</time>
      </trkpt>
      <trkpt lat="47.30675" lon="-0.17076">
        <ele>73.89517211914</ele>
        <time>2020-06-19T10:10:04.905Z</time>
      </trkpt>
      <trkpt lat="47.30641" lon="-0.1704">
        <ele>73.26969146729</ele>
        <time>2020-06-19T10:10:12.582Z</time>
      </trkpt>
      <trkpt lat="47.30607" lon="-0.17">
        <ele>73.25561523438</ele>
        <time>2020-06-19T10:10:20.266Z</time>
      </trkpt>
      <trkpt lat="47.30588" lon="-0.16975">
        <ele>72.42774963379</ele>
        <time>2020-06-19T10:10:27.954Z</time>
      </trkpt>
      <trkpt lat="47.3058" lon="-0.16956">
        <ele>71.75482940674</ele>
        <time>2020-06-19T10:10:35.644Z</time>
      </trkpt>
      <trkpt lat="47.30575" lon="-0.16924">
        <ele>70.21908569336</ele>
        <time>2020-06-19T10:10:43.338Z</time>
      </trkpt>
      <trkpt lat="47.30571" lon="-0.16846">
        <ele>67.72848510742</ele>
        <time>2020-06-19T10:10:51.040Z</time>
      </trkpt>
      <trkpt lat="47.30568" lon="-0.16816">
        <ele>67.40453338623</ele>
        <time>2020-06-19T10:10:58.746Z</time>
      </trkpt>
      <trkpt lat="47.30557" lon="-0.16773">
        <ele>66.18801879883</ele>
        <time>2020-06-19T10:11:06.457Z</time>
      </trkpt>
      <trkpt lat="47.30544" lon="-0.16742">
        <ele>65.25466918945</ele>
        <time>2020-06-19T10:11:14.172Z</time>
      </trkpt>
      <trkpt lat="47.30502" lon="-0.16669">
        <ele>58.98650741577</ele>
        <time>2020-06-19T10:11:21.897Z</time>
      </trkpt>
      <trkpt lat="47.30489" lon="-0.16651">
        <ele>57.37099456787</ele>
        <time>2020-06-19T10:11:29.625Z</time>
      </trkpt>
      <trkpt lat="47.30475" lon="-0.1664">
        <ele>56.02117919922</ele>
        <time>2020-06-19T10:11:37.356Z</time>
      </trkpt>
      <trkpt lat="47.3046" lon="-0.1663">
        <ele>54.46143722534</ele>
        <time>2020-06-19T10:11:45.089Z</time>
      </trkpt>
      <trkpt lat="47.30439" lon="-0.16621">
        <ele>52.67900848389</ele>
        <time>2020-06-19T10:11:52.826Z</time>
      </trkpt>
      <trkpt lat="47.30434" lon="-0.16603">
        <ele>51.8871383667</ele>
        <time>2020-06-19T10:12:00.565Z</time>
      </trkpt>
      <trkpt lat="47.304" lon="-0.16521">
        <ele>49.16121292114</ele>
        <time>2020-06-19T10:12:08.314Z</time>
      </trkpt>
      <trkpt lat="47.30394" lon="-0.16502">
        <ele>49.23320007324</ele>
        <time>2020-06-19T10:12:16.066Z</time>
      </trkpt>
      <trkpt lat="47.3039" lon="-0.16481">
        <ele>49.23965835571</ele>
        <time>2020-06-19T10:12:23.820Z</time>
      </trkpt>
      <trkpt lat="47.30392" lon="-0.16463">
        <ele>49.02369308472</ele>
        <time>2020-06-19T10:12:31.576Z</time>
      </trkpt>
      <trkpt lat="47.30412" lon="-0.16406">
        <ele>51.6407699585</ele>
        <time>2020-06-19T10:12:39.339Z</time>
      </trkpt>
      <trkpt lat="47.3042" lon="-0.16382">
        <ele>52.39884567261</ele>
        <time>2020-06-19T10:12:47.105Z</time>
      </trkpt>
      <trkpt lat="47.30404" lon="-0.16392">
        <ele>52.31266021729</ele>
        <time>2020-06-19T10:12:54.874Z</time>
      </trkpt>
      <trkpt lat="47.30386" lon="-0.16407">
        <ele>51.5927772522</ele>
        <time>2020-06-19T10:13:02.646Z</time>
      </trkpt>
      <trkpt lat="47.30376" lon="-0.16413">
        <ele>51.40631484985</ele>
        <time>2020-06-19T10:13:10.420Z</time>
      </trkpt>
      <trkpt lat="47.30359" lon="-0.16417">
        <ele>51.83824157715</ele>
        <time>2020-06-19T10:13:18.196Z</time>
      </trkpt>
      <trkpt lat="47.3035" lon="-0.16418">
        <ele>52.17418670654</ele>
        <time>2020-06-19T10:13:25.974Z</time>
      </trkpt>
      <trkpt lat="47.3033" lon="-0.16414">
        <ele>53.52010726929</ele>
        <time>2020-06-19T10:13:33.755Z</time>
      </trkpt>
      <trkpt lat="47.30309" lon="-0.164">
        <ele>56.37563323975</ele>
        <time>2020-06-19T10:13:41.540Z</time>
      </trkpt>
      <trkpt lat="47.303" lon="-0.1639">
        <ele>56.49114608765</ele>
        <time>2020-06-19T10:13:49.327Z</time>
      </trkpt>
      <trkpt lat="47.3027" lon="-0.16354">
        <ele>58.83080291748</ele>
        <time>2020-06-19T10:13:57.120Z</time>
      </trkpt>
      <trkpt lat="47.3024" lon="-0.16325">
        <ele>61.54160308838</ele>
        <time>2020-06-19T10:14:04.918Z</time>
      </trkpt>
      <trkpt lat="47.30226" lon="-0.16308">
        <ele>64.18116760254</ele>
        <time>2020-06-19T10:14:12.719Z</time>
      </trkpt>
      <trkpt lat="47.30187" lon="-0.1624">
        <ele>73.14696502686</ele>
        <time>2020-06-19T10:14:20.530Z</time>
      </trkpt>
      <trkpt lat="47.30172" lon="-0.16217">
        <ele>76.0272064209</ele>
        <time>2020-06-19T10:14:28.345Z</time>
      </trkpt>
      <trkpt lat="47.30165" lon="-0.16206">
        <ele>77.28173065186</ele>
        <time>2020-06-19T10:14:36.161Z</time>
      </trkpt>
      <trkpt lat="47.30115" lon="-0.16143">
        <ele>82.05068969727</ele>
        <time>2020-06-19T10:14:43.988Z</time>
      </trkpt>
      <trkpt lat="47.30059" lon="-0.16063">
        <ele>80.46689605713</ele>
        <time>2020-06-19T10:14:51.827Z</time>
      </trkpt>
      <trkpt lat="47.29928" lon="-0.15844">
        <ele>80.5244140625</ele>
        <time>2020-06-19T10:14:59.698Z</time>
      </trkpt>
      <trkpt lat="47.29867" lon="-0.15749">
        <ele>81.18478393555</ele>
        <time>2020-06-19T10:15:07.583Z</time>
      </trkpt>
      <trkpt lat="47.29736" lon="-0.15575">
        <ele>84.73893737793</ele>
        <time>2020-06-19T10:15:15.496Z</time>
      </trkpt>
      <trkpt lat="47.29658" lon="-0.15468">
        <ele>85.1494140625</ele>
        <time>2020-06-19T10:15:23.427Z</time>
      </trkpt>
      <trkpt lat="47.29594" lon="-0.15384">
        <ele>83.74105072021</ele>
        <time>2020-06-19T10:15:31.371Z</time>
      </trkpt>
      <trkpt lat="47.29483" lon="-0.15235">
        <ele>85.12014770508</ele>
        <time>2020-06-19T10:15:39.339Z</time>
      </trkpt>
      <trkpt lat="47.29475" lon="-0.15224">
        <ele>85</ele>
        <time>2020-06-19T10:15:47.309Z</time>
      </trkpt>
      <trkpt lat="47.2935" lon="-0.15055">
        <ele>83.75911712646</ele>
        <time>2020-06-19T10:15:55.306Z</time>
      </trkpt>
      <trkpt lat="47.29239" lon="-0.14916">
        <ele>80.90663146973</ele>
        <time>2020-06-19T10:16:03.327Z</time>
      </trkpt>
      <trkpt lat="47.2923" lon="-0.14905">
        <ele>80.80112457275</ele>
        <time>2020-06-19T10:16:11.350Z</time>
      </trkpt>
      <trkpt lat="47.29174" lon="-0.14836">
        <ele>78.75553131104</ele>
        <time>2020-06-19T10:16:19.384Z</time>
      </trkpt>
      <trkpt lat="47.29111" lon="-0.14754">
        <ele>77.26583862305</ele>
        <time>2020-06-19T10:16:27.432Z</time>
      </trkpt>
      <trkpt lat="47.29117" lon="-0.1475">
        <ele>77.36182403564</ele>
        <time>2020-06-19T10:16:35.481Z</time>
      </trkpt>
      <trkpt lat="47.29131" lon="-0.14711">
        <ele>77.22984313965</ele>
        <time>2020-06-19T10:16:43.535Z</time>
      </trkpt>
      <trkpt lat="47.2917" lon="-0.14612">
        <ele>74.83750915527</ele>
        <time>2020-06-19T10:16:51.601Z</time>
      </trkpt>
      <trkpt lat="47.29182" lon="-0.14591">
        <ele>74.54534912109</ele>
        <time>2020-06-19T10:16:59.670Z</time>
      </trkpt>
      <trkpt lat="47.2919" lon="-0.14577">
        <ele>74.35758972168</ele>
        <time>2020-06-19T10:17:07.741Z</time>
      </trkpt>
      <trkpt lat="47.29211" lon="-0.14555">
        <ele>73.85366821289</ele>
        <time>2020-06-19T10:17:15.816Z</time>
      </trkpt>
      <trkpt lat="47.29247" lon="-0.14525">
        <ele>72.08627319336</ele>
        <time>2020-06-19T10:17:23.898Z</time>
      </trkpt>
      <trkpt lat="47.29291" lon="-0.14495">
        <ele>70.64651489258</ele>
        <time>2020-06-19T10:17:31.988Z</time>
      </trkpt>
      <trkpt lat="47.29341" lon="-0.14449">
        <ele>67.641456604</ele>
        <time>2020-06-19T10:17:40.087Z</time>
      </trkpt>
      <trkpt lat="47.29366" lon="-0.14434">
        <ele>65.91011047363</ele>
        <time>2020-06-19T10:17:48.190Z</time>
      </trkpt>
      <trkpt lat="47.29387" lon="-0.14427">
        <ele>65.23822784424</ele>
        <time>2020-06-19T10:17:56.297Z</time>
      </trkpt>
      <trkpt lat="47.29406" lon="-0.14424">
        <ele>65.07025146484</ele>
        <time>2020-06-19T10:18:04.407Z</time>
      </trkpt>
      <trkpt lat="47.29426" lon="-0.14418">
        <ele>65.74021911621</ele>
        <time>2020-06-19T10:18:12.520Z</time>
      </trkpt>
      <trkpt lat="47.29437" lon="-0.14408">
        <ele>65.60823822021</ele>
        <time>2020-06-19T10:18:20.635Z</time>
      </trkpt>
      <trkpt lat="47.2953" lon="-0.14302">
        <ele>61.66090011597</ele>
        <time>2020-06-19T10:18:28.769Z</time>
      </trkpt>
      <trkpt lat="47.29543" lon="-0.14275">
        <ele>60.64091491699</ele>
        <time>2020-06-19T10:18:36.907Z</time>
      </trkpt>
      <trkpt lat="47.29553" lon="-0.14244">
        <ele>59.48910903931</ele>
        <time>2020-06-19T10:18:45.048Z</time>
      </trkpt>
      <trkpt lat="47.29565" lon="-0.142">
        <ele>58.61866378784</ele>
        <time>2020-06-19T10:18:53.194Z</time>
      </trkpt>
      <trkpt lat="47.29574" lon="-0.14178">
        <ele>56.72297668457</ele>
        <time>2020-06-19T10:19:01.343Z</time>
      </trkpt>
      <trkpt lat="47.29588" lon="-0.14165">
        <ele>57.06446456909</ele>
        <time>2020-06-19T10:19:09.495Z</time>
      </trkpt>
      <trkpt lat="47.29606" lon="-0.14149">
        <ele>58.76818084717</ele>
        <time>2020-06-19T10:19:17.650Z</time>
      </trkpt>
      <trkpt lat="47.29615" lon="-0.14122">
        <ele>57.35096740723</ele>
        <time>2020-06-19T10:19:25.809Z</time>
      </trkpt>
      <trkpt lat="47.29621" lon="-0.14097">
        <ele>53.93153762817</ele>
        <time>2020-06-19T10:19:33.970Z</time>
      </trkpt>
      <trkpt lat="47.2963" lon="-0.14048">
        <ele>48.09544372559</ele>
        <time>2020-06-19T10:19:42.137Z</time>
      </trkpt>
      <trkpt lat="47.29633" lon="-0.1403">
        <ele>44.65069580078</ele>
        <time>2020-06-19T10:19:50.306Z</time>
      </trkpt>
      <trkpt lat="47.29639" lon="-0.13993">
        <ele>36.56404495239</ele>
        <time>2020-06-19T10:19:58.479Z</time>
      </trkpt>
      <trkpt lat="47.29647" lon="-0.13951">
        <ele>31.38872337341</ele>
        <time>2020-06-19T10:20:06.657Z</time>
      </trkpt>
      <trkpt lat="47.29604" lon="-0.13915">
        <ele>29.13997459412</ele>
        <time>2020-06-19T10:20:14.843Z</time>
      </trkpt>
      <trkpt lat="47.29565" lon="-0.13875">
        <ele>28.89358520508</ele>
        <time>2020-06-19T10:20:23.036Z</time>
      </trkpt>
      <trkpt lat="47.29544" lon="-0.13857">
        <ele>31.01723098755</ele>
        <time>2020-06-19T10:20:31.233Z</time>
      </trkpt>
      <trkpt lat="47.2947" lon="-0.13803">
        <ele>33.97199249268</ele>
        <time>2020-06-19T10:20:39.444Z</time>
      </trkpt>
      <trkpt lat="47.2941" lon="-0.13756">
        <ele>33.34927368164</ele>
        <time>2020-06-19T10:20:47.665Z</time>
      </trkpt>
      <trkpt lat="47.29328" lon="-0.13695">
        <ele>32.55281829834</ele>
        <time>2020-06-19T10:20:55.901Z</time>
      </trkpt>
      <trkpt lat="47.29355" lon="-0.1366">
        <ele>29.36968803406</ele>
        <time>2020-06-19T10:21:04.143Z</time>
      </trkpt>
      <trkpt lat="47.29368" lon="-0.13647">
        <ele>28.12189674377</ele>
        <time>2020-06-19T10:21:12.387Z</time>
      </trkpt>
      <trkpt lat="47.29373" lon="-0.1364">
        <ele>27.54599189758</ele>
        <time>2020-06-19T10:21:20.633Z</time>
      </trkpt>
      <trkpt lat="47.29375" lon="-0.13633">
        <ele>27.11406517029</ele>
        <time>2020-06-19T10:21:28.879Z</time>
      </trkpt>
      <trkpt lat="47.29375" lon="-0.13622">
        <ele>26.39827537537</ele>
        <time>2020-06-19T10:21:37.127Z</time>
      </trkpt>
      <trkpt lat="47.2937" lon="-0.1361">
        <ele>25.63040351868</ele>
        <time>2020-06-19T10:21:45.376Z</time>
      </trkpt>
      <trkpt lat="47.2933" lon="-0.13545">
        <ele>29.97535514832</ele>
        <time>2020-06-19T10:21:53.635Z</time>
      </trkpt>
      <trkpt lat="47.29276" lon="-0.13442">
        <ele>23.96033859253</ele>
        <time>2020-06-19T10:22:01.908Z</time>
      </trkpt>
      <trkpt lat="47.29206" lon="-0.13307">
        <ele>21.07895851135</ele>
        <time>2020-06-19T10:22:10.199Z</time>
      </trkpt>
      <trkpt lat="47.2918" lon="-0.13249">
        <ele>22.79264259338</ele>
        <time>2020-06-19T10:22:18.498Z</time>
      </trkpt>
      <trkpt lat="47.29124" lon="-0.13115">
        <ele>20.82397079468</ele>
        <time>2020-06-19T10:22:26.814Z</time>
      </trkpt>
      <trkpt lat="47.29121" lon="-0.13108">
        <ele>21.03442573547</ele>
        <time>2020-06-19T10:22:35.131Z</time>
      </trkpt>
      <trkpt lat="47.29114" lon="-0.13091">
        <ele>21.54384994507</ele>
        <time>2020-06-19T10:22:43.450Z</time>
      </trkpt>
      <trkpt lat="47.29084" lon="-0.13025">
        <ele>22.64740943909</ele>
        <time>2020-06-19T10:22:51.778Z</time>
      </trkpt>
      <trkpt lat="47.29021" lon="-0.12896">
        <ele>23.67762184143</ele>
        <time>2020-06-19T10:23:00.123Z</time>
      </trkpt>
      <trkpt lat="47.28994" lon="-0.12846">
        <ele>27.74614715576</ele>
        <time>2020-06-19T10:23:08.475Z</time>
      </trkpt>
      <trkpt lat="47.28946" lon="-0.12766">
        <ele>27.12156105042</ele>
        <time>2020-06-19T10:23:16.839Z</time>
      </trkpt>
      <trkpt lat="47.28909" lon="-0.127">
        <ele>27.89953613281</ele>
        <time>2020-06-19T10:23:25.212Z</time>
      </trkpt>
      <trkpt lat="47.2888" lon="-0.12645">
        <ele>27.38649749756</ele>
        <time>2020-06-19T10:23:33.592Z</time>
      </trkpt>
      <trkpt lat="47.28859" lon="-0.12601">
        <ele>26.41211700439</ele>
        <time>2020-06-19T10:23:41.978Z</time>
      </trkpt>
      <trkpt lat="47.2882" lon="-0.12515">
        <ele>28.38624572754</ele>
        <time>2020-06-19T10:23:50.376Z</time>
      </trkpt>
      <trkpt lat="47.28739" lon="-0.12357">
        <ele>26.12950706482</ele>
        <time>2020-06-19T10:23:58.795Z</time>
      </trkpt>
      <trkpt lat="47.28682" lon="-0.1224">
        <ele>23.35494232178</ele>
        <time>2020-06-19T10:24:07.230Z</time>
      </trkpt>
      <trkpt lat="47.28646" lon="-0.12161">
        <ele>23.61400222778</ele>
        <time>2020-06-19T10:24:15.675Z</time>
      </trkpt>
      <trkpt lat="47.28599" lon="-0.12041">
        <ele>24.75366783142</ele>
        <time>2020-06-19T10:24:24.135Z</time>
      </trkpt>
      <trkpt lat="47.28576" lon="-0.11988">
        <ele>26</ele>
        <time>2020-06-19T10:24:32.602Z</time>
      </trkpt>
      <trkpt lat="47.28541" lon="-0.11927">
        <ele>22.3406162262</ele>
        <time>2020-06-19T10:24:41.078Z</time>
      </trkpt>
      <trkpt lat="47.28488" lon="-0.11847">
        <ele>25.07906723022</ele>
        <time>2020-06-19T10:24:49.566Z</time>
      </trkpt>
      <trkpt lat="47.28459" lon="-0.11804">
        <ele>24</ele>
        <time>2020-06-19T10:24:58.061Z</time>
      </trkpt>
      <trkpt lat="47.2842" lon="-0.11754">
        <ele>23.50352287292</ele>
        <time>2020-06-19T10:25:06.564Z</time>
      </trkpt>
      <trkpt lat="47.28369" lon="-0.11678">
        <ele>22.20872306824</ele>
        <time>2020-06-19T10:25:15.078Z</time>
      </trkpt>
      <trkpt lat="47.2832" lon="-0.116">
        <ele>29.20552825928</ele>
        <time>2020-06-19T10:25:23.604Z</time>
      </trkpt>
      <trkpt lat="47.28308" lon="-0.11585">
        <ele>29.24152183533</ele>
        <time>2020-06-19T10:25:32.133Z</time>
      </trkpt>
      <trkpt lat="47.28286" lon="-0.11548">
        <ele>28.47856330872</ele>
        <time>2020-06-19T10:25:40.667Z</time>
      </trkpt>
      <trkpt lat="47.28259" lon="-0.11487">
        <ele>25.64038848877</ele>
        <time>2020-06-19T10:25:49.209Z</time>
      </trkpt>
      <trkpt lat="47.28233" lon="-0.11419">
        <ele>26.35647964478</ele>
        <time>2020-06-19T10:25:57.759Z</time>
      </trkpt>
      <trkpt lat="47.28201" lon="-0.1134">
        <ele>21.93180656433</ele>
        <time>2020-06-19T10:26:06.319Z</time>
      </trkpt>
      <trkpt lat="47.28192" lon="-0.11311">
        <ele>23.45519065857</ele>
        <time>2020-06-19T10:26:14.883Z</time>
      </trkpt>
      <trkpt lat="47.28182" lon="-0.11288">
        <ele>24.95500183105</ele>
        <time>2020-06-19T10:26:23.450Z</time>
      </trkpt>
      <trkpt lat="47.28173" lon="-0.11275">
        <ele>26.02953147888</ele>
        <time>2020-06-19T10:26:32.019Z</time>
      </trkpt>
      <trkpt lat="47.28167" lon="-0.1127">
        <ele>26.80940246582</ele>
        <time>2020-06-19T10:26:40.589Z</time>
      </trkpt>
      <trkpt lat="47.28162" lon="-0.11273">
        <ele>27.24592781067</ele>
        <time>2020-06-19T10:26:49.160Z</time>
      </trkpt>
      <trkpt lat="47.28151" lon="-0.11284">
        <ele>27.11395072937</ele>
        <time>2020-06-19T10:26:57.733Z</time>
      </trkpt>
      <trkpt lat="47.28092" lon="-0.11383">
        <ele>26.55749320984</ele>
        <time>2020-06-19T10:27:06.320Z</time>
      </trkpt>
      <trkpt lat="47.28051" lon="-0.11448">
        <ele>26.9957447052</ele>
        <time>2020-06-19T10:27:14.917Z</time>
      </trkpt>
      <trkpt lat="47.2804" lon="-0.11466">
        <ele>27.173412323</ele>
        <time>2020-06-19T10:27:23.517Z</time>
      </trkpt>
      <trkpt lat="47.27894" lon="-0.11702">
        <ele>25.56678581238</ele>
        <time>2020-06-19T10:27:32.151Z</time>
      </trkpt>
      <trkpt lat="47.27871" lon="-0.1174">
        <ele>27.73921203613</ele>
        <time>2020-06-19T10:27:40.791Z</time>
      </trkpt>
      <trkpt lat="47.27864" lon="-0.11753">
        <ele>28.55507659912</ele>
        <time>2020-06-19T10:27:49.433Z</time>
      </trkpt>
      <trkpt lat="47.27866" lon="-0.11756">
        <ele>28.48308753967</ele>
        <time>2020-06-19T10:27:58.075Z</time>
      </trkpt>
      <trkpt lat="47.2785" lon="-0.1178">
        <ele>30.2108001709</ele>
        <time>2020-06-19T10:28:06.721Z</time>
      </trkpt>
      <trkpt lat="47.27825" lon="-0.11818">
        <ele>33.91342163086</ele>
        <time>2020-06-19T10:28:15.372Z</time>
      </trkpt>
      <trkpt lat="47.278" lon="-0.11855">
        <ele>38.53265380859</ele>
        <time>2020-06-19T10:28:24.029Z</time>
      </trkpt>
      <trkpt lat="47.27768" lon="-0.11881">
        <ele>43.06616973877</ele>
        <time>2020-06-19T10:28:32.692Z</time>
      </trkpt>
      <trkpt lat="47.27728" lon="-0.11906">
        <ele>46.26229476929</ele>
        <time>2020-06-19T10:28:41.362Z</time>
      </trkpt>
      <trkpt lat="47.27712" lon="-0.11916">
        <ele>46.81819534302</ele>
        <time>2020-06-19T10:28:50.035Z</time>
      </trkpt>
      <trkpt lat="47.27682" lon="-0.11934">
        <ele>48.34819793701</ele>
        <time>2020-06-19T10:28:58.713Z</time>
      </trkpt>
      <trkpt lat="47.27671" lon="-0.11945">
        <ele>48.8761100769</ele>
        <time>2020-06-19T10:29:07.393Z</time>
      </trkpt>
      <trkpt lat="47.27656" lon="-0.11955">
        <ele>48.77124404907</ele>
        <time>2020-06-19T10:29:16.076Z</time>
      </trkpt>
      <trkpt lat="47.27628" lon="-0.11983">
        <ele>47.17430114746</ele>
        <time>2020-06-19T10:29:24.764Z</time>
      </trkpt>
      <trkpt lat="47.27615" lon="-0.12002">
        <ele>46.62239456177</ele>
        <time>2020-06-19T10:29:33.455Z</time>
      </trkpt>
      <trkpt lat="47.27597" lon="-0.11978">
        <ele>45.24175643921</ele>
        <time>2020-06-19T10:29:42.150Z</time>
      </trkpt>
      <trkpt lat="47.27584" lon="-0.1196">
        <ele>44.27199554443</ele>
        <time>2020-06-19T10:29:50.848Z</time>
      </trkpt>
      <trkpt lat="47.27544" lon="-0.11903">
        <ele>43.74779891968</ele>
        <time>2020-06-19T10:29:59.555Z</time>
      </trkpt>
      <trkpt lat="47.27526" lon="-0.11876">
        <ele>42.20600891113</ele>
        <time>2020-06-19T10:30:08.266Z</time>
      </trkpt>
      <trkpt lat="47.27496" lon="-0.11822">
        <ele>41.32486343384</ele>
        <time>2020-06-19T10:30:16.984Z</time>
      </trkpt>
      <trkpt lat="47.27454" lon="-0.11746">
        <ele>43.2580871582</ele>
        <time>2020-06-19T10:30:25.713Z</time>
      </trkpt>
      <trkpt lat="47.27433" lon="-0.11689">
        <ele>40.68003845215</ele>
        <time>2020-06-19T10:30:34.449Z</time>
      </trkpt>
      <trkpt lat="47.27427" lon="-0.11676">
        <ele>39.78018951416</ele>
        <time>2020-06-19T10:30:43.187Z</time>
      </trkpt>
      <trkpt lat="47.27404" lon="-0.11646">
        <ele>37.47353363037</ele>
        <time>2020-06-19T10:30:51.930Z</time>
      </trkpt>
      <trkpt lat="47.27359" lon="-0.1159">
        <ele>33.76200866699</ele>
        <time>2020-06-19T10:31:00.682Z</time>
      </trkpt>
      <trkpt lat="47.27344" lon="-0.11569">
        <ele>33.4380607605</ele>
        <time>2020-06-19T10:31:09.438Z</time>
      </trkpt>
      <trkpt lat="47.27335" lon="-0.11598">
        <ele>34.24192810059</ele>
        <time>2020-06-19T10:31:18.197Z</time>
      </trkpt>
      <trkpt lat="47.27324" lon="-0.11625">
        <ele>35.1947593689</ele>
        <time>2020-06-19T10:31:26.959Z</time>
      </trkpt>
      <trkpt lat="47.27315" lon="-0.11648">
        <ele>35.93500900269</ele>
        <time>2020-06-19T10:31:35.724Z</time>
      </trkpt>
      <trkpt lat="47.27216" lon="-0.11902">
        <ele>46.23878097534</ele>
        <time>2020-06-19T10:31:44.521Z</time>
      </trkpt>
      <trkpt lat="47.27187" lon="-0.11975">
        <ele>48.39764022827</ele>
        <time>2020-06-19T10:31:53.327Z</time>
      </trkpt>
      <trkpt lat="47.2715" lon="-0.12077">
        <ele>49.62689208984</ele>
        <time>2020-06-19T10:32:02.146Z</time>
      </trkpt>
      <trkpt lat="47.27147" lon="-0.1209">
        <ele>49.60289764404</ele>
        <time>2020-06-19T10:32:10.967Z</time>
      </trkpt>
      <trkpt lat="47.2714" lon="-0.12092">
        <ele>49.20696258545</ele>
        <time>2020-06-19T10:32:19.789Z</time>
      </trkpt>
      <trkpt lat="47.27123" lon="-0.12113">
        <ele>48.43909072876</ele>
        <time>2020-06-19T10:32:28.614Z</time>
      </trkpt>
      <trkpt lat="47.27116" lon="-0.12117">
        <ele>48.06715393066</ele>
        <time>2020-06-19T10:32:37.440Z</time>
      </trkpt>
      <trkpt lat="47.27109" lon="-0.12114">
        <ele>47.61122894287</ele>
        <time>2020-06-19T10:32:46.268Z</time>
      </trkpt>
      <trkpt lat="47.27099" lon="-0.12103">
        <ele>46.82514953613</ele>
        <time>2020-06-19T10:32:55.098Z</time>
      </trkpt>
      <trkpt lat="47.27087" lon="-0.12084">
        <ele>45.50537109375</ele>
        <time>2020-06-19T10:33:03.930Z</time>
      </trkpt>
      <trkpt lat="47.2707" lon="-0.12043">
        <ele>44.10708618164</ele>
        <time>2020-06-19T10:33:12.768Z</time>
      </trkpt>
      <trkpt lat="47.27058" lon="-0.12003">
        <ele>43.77114105225</ele>
        <time>2020-06-19T10:33:21.610Z</time>
      </trkpt>
      <trkpt lat="47.27046" lon="-0.11949">
        <ele>43.25966644287</ele>
        <time>2020-06-19T10:33:30.459Z</time>
      </trkpt>
      <trkpt lat="47.27045" lon="-0.11943">
        <ele>43.20723724365</ele>
        <time>2020-06-19T10:33:39.308Z</time>
      </trkpt>
      <trkpt lat="47.27041" lon="-0.11923">
        <ele>43.01526641846</ele>
        <time>2020-06-19T10:33:48.160Z</time>
      </trkpt>
      <trkpt lat="47.2703" lon="-0.11891">
        <ele>42.76330947876</ele>
        <time>2020-06-19T10:33:57.015Z</time>
      </trkpt>
      <trkpt lat="47.27022" lon="-0.11876">
        <ele>42.69046020508</ele>
        <time>2020-06-19T10:34:05.873Z</time>
      </trkpt>
      <trkpt lat="47.27011" lon="-0.1186">
        <ele>42.82243728638</ele>
        <time>2020-06-19T10:34:14.733Z</time>
      </trkpt>
      <trkpt lat="47.26987" lon="-0.11829">
        <ele>43.22077560425</ele>
        <time>2020-06-19T10:34:23.598Z</time>
      </trkpt>
      <trkpt lat="47.26972" lon="-0.11816">
        <ele>43.58071517944</ele>
        <time>2020-06-19T10:34:32.466Z</time>
      </trkpt>
      <trkpt lat="47.26959" lon="-0.11807">
        <ele>43.89266586304</ele>
        <time>2020-06-19T10:34:41.336Z</time>
      </trkpt>
      <trkpt lat="47.26937" lon="-0.11791">
        <ele>44.54443359375</ele>
        <time>2020-06-19T10:34:50.210Z</time>
      </trkpt>
      <trkpt lat="47.26926" lon="-0.11774">
        <ele>45.4698600769</ele>
        <time>2020-06-19T10:34:59.087Z</time>
      </trkpt>
      <trkpt lat="47.26905" lon="-0.11733">
        <ele>46.64214706421</ele>
        <time>2020-06-19T10:35:07.969Z</time>
      </trkpt>
      <trkpt lat="47.26897" lon="-0.11708">
        <ele>47.65102005005</ele>
        <time>2020-06-19T10:35:16.854Z</time>
      </trkpt>
      <trkpt lat="47.26889" lon="-0.1168">
        <ele>48.94680404663</ele>
        <time>2020-06-19T10:35:25.743Z</time>
      </trkpt>
      <trkpt lat="47.26878" lon="-0.11639">
        <ele>50</ele>
        <time>2020-06-19T10:35:34.636Z</time>
      </trkpt>
      <trkpt lat="47.26872" lon="-0.11617">
        <ele>50.35585021973</ele>
        <time>2020-06-19T10:35:43.532Z</time>
      </trkpt>
      <trkpt lat="47.26872" lon="-0.11613">
        <ele>50.49982452393</ele>
        <time>2020-06-19T10:35:52.428Z</time>
      </trkpt>
      <trkpt lat="47.26865" lon="-0.11514">
        <ele>53.92855453491</ele>
        <time>2020-06-19T10:36:01.335Z</time>
      </trkpt>
      <trkpt lat="47.26858" lon="-0.11459">
        <ele>56.06019210815</ele>
        <time>2020-06-19T10:36:10.248Z</time>
      </trkpt>
      <trkpt lat="47.26854" lon="-0.11418">
        <ele>58.51865386963</ele>
        <time>2020-06-19T10:36:19.166Z</time>
      </trkpt>
      <trkpt lat="47.26856" lon="-0.11389">
        <ele>59.56199264526</ele>
        <time>2020-06-19T10:36:28.087Z</time>
      </trkpt>
      <trkpt lat="47.26858" lon="-0.11362">
        <ele>60.5343170166</ele>
        <time>2020-06-19T10:36:37.011Z</time>
      </trkpt>
      <trkpt lat="47.26859" lon="-0.11354">
        <ele>60.8222694397</ele>
        <time>2020-06-19T10:36:45.936Z</time>
      </trkpt>
      <trkpt lat="47.26861" lon="-0.11323">
        <ele>62.20624923706</ele>
        <time>2020-06-19T10:36:54.864Z</time>
      </trkpt>
      <trkpt lat="47.2686" lon="-0.11301">
        <ele>63.27407073975</ele>
        <time>2020-06-19T10:37:03.795Z</time>
      </trkpt>
      <trkpt lat="47.26875" lon="-0.11286">
        <ele>63.54411697388</ele>
        <time>2020-06-19T10:37:12.729Z</time>
      </trkpt>
      <trkpt lat="47.26888" lon="-0.1127">
        <ele>63.58011245728</ele>
        <time>2020-06-19T10:37:21.665Z</time>
      </trkpt>
      <trkpt lat="47.26928" lon="-0.11221">
        <ele>64.23328399658</ele>
        <time>2020-06-19T10:37:30.610Z</time>
      </trkpt>
      <trkpt lat="47.26914" lon="-0.11197">
        <ele>64.15345001221</ele>
        <time>2020-06-19T10:37:39.558Z</time>
      </trkpt>
      <trkpt lat="47.26901" lon="-0.11177">
        <ele>64.82438659668</ele>
        <time>2020-06-19T10:37:48.509Z</time>
      </trkpt>
      <trkpt lat="47.26823" lon="-0.11049">
        <ele>67.46836090088</ele>
        <time>2020-06-19T10:37:57.479Z</time>
      </trkpt>
      <trkpt lat="47.26805" lon="-0.11024">
        <ele>68.2972869873</ele>
        <time>2020-06-19T10:38:06.453Z</time>
      </trkpt>
      <trkpt lat="47.26793" lon="-0.11012">
        <ele>68.8731918335</ele>
        <time>2020-06-19T10:38:15.429Z</time>
      </trkpt>
      <trkpt lat="47.2679" lon="-0.11009">
        <ele>69.03524780273</ele>
        <time>2020-06-19T10:38:24.406Z</time>
      </trkpt>
      <trkpt lat="47.26774" lon="-0.10993">
        <ele>70.0563659668</ele>
        <time>2020-06-19T10:38:33.386Z</time>
      </trkpt>
      <trkpt lat="47.26755" lon="-0.10977">
        <ele>71.46013641357</ele>
        <time>2020-06-19T10:38:42.369Z</time>
      </trkpt>
      <trkpt lat="47.26747" lon="-0.10965">
        <ele>71.98804473877</ele>
        <time>2020-06-19T10:38:51.354Z</time>
      </trkpt>
      <trkpt lat="47.26744" lon="-0.10951">
        <ele>71.50538635254</ele>
        <time>2020-06-19T10:39:00.341Z</time>
      </trkpt>
      <trkpt lat="47.26747" lon="-0.10933">
        <ele>70.33338928223</ele>
        <time>2020-06-19T10:39:09.330Z</time>
      </trkpt>
      <trkpt lat="47.26755" lon="-0.10908">
        <ele>68.44970703125</ele>
        <time>2020-06-19T10:39:18.322Z</time>
      </trkpt>
      <trkpt lat="47.26773" lon="-0.10849">
        <ele>63.71335983276</ele>
        <time>2020-06-19T10:39:27.321Z</time>
      </trkpt>
      <trkpt lat="47.26785" lon="-0.10785">
        <ele>58.93403244019</ele>
        <time>2020-06-19T10:39:36.327Z</time>
      </trkpt>
      <trkpt lat="47.26795" lon="-0.10706">
        <ele>56.87484359741</ele>
        <time>2020-06-19T10:39:45.342Z</time>
      </trkpt>
      <trkpt lat="47.26795" lon="-0.10693">
        <ele>56.25094985962</ele>
        <time>2020-06-19T10:39:54.358Z</time>
      </trkpt>
      <trkpt lat="47.26789" lon="-0.1068">
        <ele>55.98699188232</ele>
        <time>2020-06-19T10:40:03.376Z</time>
      </trkpt>
      <trkpt lat="47.26763" lon="-0.1066">
        <ele>56.98553466797</ele>
        <time>2020-06-19T10:40:12.399Z</time>
      </trkpt>
      <trkpt lat="47.26733" lon="-0.10641">
        <ele>56.88248443604</ele>
        <time>2020-06-19T10:40:21.427Z</time>
      </trkpt>
      <trkpt lat="47.26692" lon="-0.10616">
        <ele>53.23654937744</ele>
        <time>2020-06-19T10:40:30.462Z</time>
      </trkpt>
      <trkpt lat="47.26646" lon="-0.10594">
        <ele>50.21717071533</ele>
        <time>2020-06-19T10:40:39.505Z</time>
      </trkpt>
      <trkpt lat="47.2663" lon="-0.10589">
        <ele>49.46129608154</ele>
        <time>2020-06-19T10:40:48.550Z</time>
      </trkpt>
      <trkpt lat="47.26629" lon="-0.1059">
        <ele>49.46129608154</ele>
        <time>2020-06-19T10:40:57.596Z</time>
      </trkpt>
      <trkpt lat="47.26628" lon="-0.10591">
        <ele>49.46129608154</ele>
        <time>2020-06-19T10:41:06.642Z</time>
      </trkpt>
      <trkpt lat="47.26627" lon="-0.10593">
        <ele>49.49728775024</ele>
        <time>2020-06-19T10:41:15.688Z</time>
      </trkpt>
      <trkpt lat="47.26625" lon="-0.10593">
        <ele>49.42530059814</ele>
        <time>2020-06-19T10:41:24.734Z</time>
      </trkpt>
      <trkpt lat="47.26621" lon="-0.10591">
        <ele>49.20933532715</ele>
        <time>2020-06-19T10:41:33.781Z</time>
      </trkpt>
      <trkpt lat="47.2662" lon="-0.10586">
        <ele>48.99116516113</ele>
        <time>2020-06-19T10:41:42.829Z</time>
      </trkpt>
      <trkpt lat="47.26621" lon="-0.10581">
        <ele>48.79919433594</ele>
        <time>2020-06-19T10:41:51.877Z</time>
      </trkpt>
      <trkpt lat="47.26624" lon="-0.10578">
        <ele>48.79919433594</ele>
        <time>2020-06-19T10:42:00.926Z</time>
      </trkpt>
      <trkpt lat="47.26626" lon="-0.10579">
        <ele>48.94317245483</ele>
        <time>2020-06-19T10:42:09.975Z</time>
      </trkpt>
      <trkpt lat="47.26628" lon="-0.10555">
        <ele>47.88734817505</ele>
        <time>2020-06-19T10:42:19.027Z</time>
      </trkpt>
      <trkpt lat="47.26624" lon="-0.10503">
        <ele>45.19979476929</ele>
        <time>2020-06-19T10:42:28.084Z</time>
      </trkpt>
      <trkpt lat="47.26622" lon="-0.10452">
        <ele>43.82810974121</ele>
        <time>2020-06-19T10:42:37.147Z</time>
      </trkpt>
      <trkpt lat="47.26628" lon="-0.1041">
        <ele>42.98212814331</ele>
        <time>2020-06-19T10:42:46.215Z</time>
      </trkpt>
      <trkpt lat="47.26642" lon="-0.1033">
        <ele>42.18754959106</ele>
        <time>2020-06-19T10:42:55.292Z</time>
      </trkpt>
      <trkpt lat="47.26643" lon="-0.10322">
        <ele>42.10627365112</ele>
        <time>2020-06-19T10:43:04.370Z</time>
      </trkpt>
      <trkpt lat="47.26643" lon="-0.10304">
        <ele>41.89030838013</ele>
        <time>2020-06-19T10:43:13.450Z</time>
      </trkpt>
      <trkpt lat="47.26637" lon="-0.10277">
        <ele>40.71062850952</ele>
        <time>2020-06-19T10:43:22.533Z</time>
      </trkpt>
      <trkpt lat="47.26628" lon="-0.10256">
        <ele>39.34285736084</ele>
        <time>2020-06-19T10:43:31.618Z</time>
      </trkpt>
      <trkpt lat="47.26603" lon="-0.10215">
        <ele>36.58331680298</ele>
        <time>2020-06-19T10:43:40.709Z</time>
      </trkpt>
      <trkpt lat="47.26586" lon="-0.10188">
        <ele>35.0518951416</ele>
        <time>2020-06-19T10:43:49.804Z</time>
      </trkpt>
      <trkpt lat="47.26586" lon="-0.10185">
        <ele>34.95220184326</ele>
        <time>2020-06-19T10:43:58.900Z</time>
      </trkpt>
      <trkpt lat="47.26586" lon="-0.10184">
        <ele>34.9079208374</ele>
        <time>2020-06-19T10:44:07.996Z</time>
      </trkpt>
      <trkpt lat="47.26589" lon="-0.10175">
        <ele>34.51256561279</ele>
        <time>2020-06-19T10:44:17.093Z</time>
      </trkpt>
      <trkpt lat="47.2659" lon="-0.10171">
        <ele>34.34401321411</ele>
        <time>2020-06-19T10:44:26.190Z</time>
      </trkpt>
      <trkpt lat="47.26594" lon="-0.10161">
        <ele>33.88809204102</ele>
        <time>2020-06-19T10:44:35.289Z</time>
      </trkpt>
      <trkpt lat="47.26595" lon="-0.10159">
        <ele>33.80056762695</ele>
        <time>2020-06-19T10:44:44.388Z</time>
      </trkpt>
      <trkpt lat="47.26597" lon="-0.1015">
        <ele>33.44623947144</ele>
        <time>2020-06-19T10:44:53.488Z</time>
      </trkpt>
      <trkpt lat="47.26586" lon="-0.1014">
        <ele>33.32395935059</ele>
        <time>2020-06-19T10:45:02.590Z</time>
      </trkpt>
      <trkpt lat="47.2658" lon="-0.10106">
        <ele>32.48251724243</ele>
        <time>2020-06-19T10:45:11.696Z</time>
      </trkpt>
      <trkpt lat="47.26575" lon="-0.1008">
        <ele>31.93697929382</ele>
        <time>2020-06-19T10:45:20.805Z</time>
      </trkpt>
      <trkpt lat="47.26584" lon="-0.10075">
        <ele>31.47435760498</ele>
        <time>2020-06-19T10:45:29.915Z</time>
      </trkpt>
      <trkpt lat="47.26601" lon="-0.10066">
        <ele>30.2913608551</ele>
        <time>2020-06-19T10:45:39.028Z</time>
      </trkpt>
      <trkpt lat="47.26602" lon="-0.10066">
        <ele>30.20892333984</ele>
        <time>2020-06-19T10:45:48.141Z</time>
      </trkpt>
      <trkpt lat="47.26619" lon="-0.10065">
        <ele>29.1669921875</ele>
        <time>2020-06-19T10:45:57.257Z</time>
      </trkpt>
      <trkpt lat="47.26646" lon="-0.10008">
        <ele>27.03433227539</ele>
        <time>2020-06-19T10:46:06.380Z</time>
      </trkpt>
      <trkpt lat="47.26656" lon="-0.09986">
        <ele>26.40900993347</ele>
        <time>2020-06-19T10:46:15.506Z</time>
      </trkpt>
      <trkpt lat="47.2663" lon="-0.09936">
        <ele>26.88991165161</ele>
        <time>2020-06-19T10:46:24.639Z</time>
      </trkpt>
      <trkpt lat="47.26619" lon="-0.09914">
        <ele>27.03212738037</ele>
        <time>2020-06-19T10:46:33.775Z</time>
      </trkpt>
      <trkpt lat="47.26619" lon="-0.09914">
        <ele>27.02574729919</ele>
        <time>2020-06-19T10:46:42.911Z</time>
      </trkpt>
      <trkpt lat="47.26613" lon="-0.09895">
        <ele>27.01374816895</ele>
        <time>2020-06-19T10:46:52.049Z</time>
      </trkpt>
      <trkpt lat="47.26602" lon="-0.0985">
        <ele>27.14882278442</ele>
        <time>2020-06-19T10:47:01.193Z</time>
      </trkpt>
      <trkpt lat="47.26595" lon="-0.09824">
        <ele>26.99617767334</ele>
        <time>2020-06-19T10:47:10.340Z</time>
      </trkpt>
      <trkpt lat="47.26589" lon="-0.09798">
        <ele>26.82820701599</ele>
        <time>2020-06-19T10:47:19.490Z</time>
      </trkpt>
      <trkpt lat="47.26591" lon="-0.09786">
        <ele>26.72319221497</ele>
        <time>2020-06-19T10:47:28.641Z</time>
      </trkpt>
      <trkpt lat="47.266" lon="-0.09776">
        <ele>26.50722885132</ele>
        <time>2020-06-19T10:47:37.794Z</time>
      </trkpt>
      <trkpt lat="47.26606" lon="-0.0976">
        <ele>26.20219421387</ele>
        <time>2020-06-19T10:47:46.949Z</time>
      </trkpt>
      <trkpt lat="47.26606" lon="-0.09721">
        <ele>25.26634979248</ele>
        <time>2020-06-19T10:47:56.108Z</time>
      </trkpt>
      <trkpt lat="47.26604" lon="-0.09637">
        <ele>24.12534332275</ele>
        <time>2020-06-19T10:48:05.276Z</time>
      </trkpt>
      <trkpt lat="47.26603" lon="-0.09564">
        <ele>24.83078765869</ele>
        <time>2020-06-19T10:48:14.452Z</time>
      </trkpt>
      <trkpt lat="47.26602" lon="-0.09536">
        <ele>24.72468948364</ele>
        <time>2020-06-19T10:48:23.631Z</time>
      </trkpt>
      <trkpt lat="47.266" lon="-0.09464">
        <ele>24.49277114868</ele>
        <time>2020-06-19T10:48:32.818Z</time>
      </trkpt>
      <trkpt lat="47.26582" lon="-0.0946">
        <ele>24.06084251404</ele>
        <time>2020-06-19T10:48:42.008Z</time>
      </trkpt>
      <trkpt lat="47.26581" lon="-0.09451">
        <ele>24.42514038086</ele>
        <time>2020-06-19T10:48:51.199Z</time>
      </trkpt>
      <trkpt lat="47.26578" lon="-0.09441">
        <ele>24.96315956116</ele>
        <time>2020-06-19T10:49:00.391Z</time>
      </trkpt>
      <trkpt lat="47.26572" lon="-0.09424">
        <ele>25.98959922791</ele>
        <time>2020-06-19T10:49:09.585Z</time>
      </trkpt>
      <trkpt lat="47.2657" lon="-0.09417">
        <ele>26.3975315094</ele>
        <time>2020-06-19T10:49:18.780Z</time>
      </trkpt>
      <trkpt lat="47.26565" lon="-0.09393">
        <ele>27.72930908203</ele>
        <time>2020-06-19T10:49:27.978Z</time>
      </trkpt>
      <trkpt lat="47.26568" lon="-0.09366">
        <ele>28.25222969055</ele>
        <time>2020-06-19T10:49:37.179Z</time>
      </trkpt>
      <trkpt lat="47.26575" lon="-0.09337">
        <ele>28.94811439514</ele>
        <time>2020-06-19T10:49:46.383Z</time>
      </trkpt>
      <trkpt lat="47.26593" lon="-0.09303">
        <ele>29.92637825012</ele>
        <time>2020-06-19T10:49:55.592Z</time>
      </trkpt>
      <trkpt lat="47.2661" lon="-0.09283">
        <ele>30.36459541321</ele>
        <time>2020-06-19T10:50:04.804Z</time>
      </trkpt>
      <trkpt lat="47.26617" lon="-0.09274">
        <ele>30.45035171509</ele>
        <time>2020-06-19T10:50:14.018Z</time>
      </trkpt>
      <trkpt lat="47.26623" lon="-0.09264">
        <ele>30.52233886719</ele>
        <time>2020-06-19T10:50:23.233Z</time>
      </trkpt>
      <trkpt lat="47.26582" lon="-0.09204">
        <ele>31.00894737244</ele>
        <time>2020-06-19T10:50:32.458Z</time>
      </trkpt>
      <trkpt lat="47.26587" lon="-0.09198">
        <ele>30.96095657349</ele>
        <time>2020-06-19T10:50:41.684Z</time>
      </trkpt>
      <trkpt lat="47.2661" lon="-0.09177">
        <ele>30.66100692749</ele>
        <time>2020-06-19T10:50:50.914Z</time>
      </trkpt>
      <trkpt lat="47.26629" lon="-0.0916">
        <ele>30.40592193604</ele>
        <time>2020-06-19T10:51:00.148Z</time>
      </trkpt>
      <trkpt lat="47.26646" lon="-0.09146">
        <ele>30.23432540894</ele>
        <time>2020-06-19T10:51:09.385Z</time>
      </trkpt>
      <trkpt lat="47.26654" lon="-0.09128">
        <ele>30.1930847168</ele>
        <time>2020-06-19T10:51:18.624Z</time>
      </trkpt>
      <trkpt lat="47.26667" lon="-0.09106">
        <ele>30.05025100708</ele>
        <time>2020-06-19T10:51:27.866Z</time>
      </trkpt>
      <trkpt lat="47.26691" lon="-0.09075">
        <ele>30.33820343018</ele>
        <time>2020-06-19T10:51:37.113Z</time>
      </trkpt>
      <trkpt lat="47.2675" lon="-0.08991">
        <ele>31.57927894592</ele>
        <time>2020-06-19T10:51:46.373Z</time>
      </trkpt>
      <trkpt lat="47.26793" lon="-0.08925">
        <ele>31.43799972534</ele>
        <time>2020-06-19T10:51:55.643Z</time>
      </trkpt>
      <trkpt lat="47.26806" lon="-0.08908">
        <ele>31.28202629089</ele>
        <time>2020-06-19T10:52:04.916Z</time>
      </trkpt>
      <trkpt lat="47.26812" lon="-0.08884">
        <ele>31.21003913879</ele>
        <time>2020-06-19T10:52:14.192Z</time>
      </trkpt>
      <trkpt lat="47.26825" lon="-0.0886">
        <ele>31.054063797</ele>
        <time>2020-06-19T10:52:23.471Z</time>
      </trkpt>
      <trkpt lat="47.26833" lon="-0.08836">
        <ele>30.53888511658</ele>
        <time>2020-06-19T10:52:32.753Z</time>
      </trkpt>
      <trkpt lat="47.26834" lon="-0.08808">
        <ele>30.40690612793</ele>
        <time>2020-06-19T10:52:42.038Z</time>
      </trkpt>
      <trkpt lat="47.26825" lon="-0.08743">
        <ele>24.42769432068</ele>
        <time>2020-06-19T10:52:51.331Z</time>
      </trkpt>
      <trkpt lat="47.26824" lon="-0.08738">
        <ele>23.73054885864</ele>
        <time>2020-06-19T10:53:00.624Z</time>
      </trkpt>
      <trkpt lat="47.26817" lon="-0.08718">
        <ele>21.49793052673</ele>
        <time>2020-06-19T10:53:09.920Z</time>
      </trkpt>
      <trkpt lat="47.26815" lon="-0.08714">
        <ele>21.54670906067</ele>
        <time>2020-06-19T10:53:19.216Z</time>
      </trkpt>
      <trkpt lat="47.26806" lon="-0.08696">
        <ele>22.24264526367</ele>
        <time>2020-06-19T10:53:28.514Z</time>
      </trkpt>
      <trkpt lat="47.26804" lon="-0.08691">
        <ele>22.48095703125</ele>
        <time>2020-06-19T10:53:37.813Z</time>
      </trkpt>
      <trkpt lat="47.26801" lon="-0.0867">
        <ele>22.76047325134</ele>
        <time>2020-06-19T10:53:47.115Z</time>
      </trkpt>
      <trkpt lat="47.26729" lon="-0.08583">
        <ele>24.06205558777</ele>
        <time>2020-06-19T10:53:56.431Z</time>
      </trkpt>
      <trkpt lat="47.26714" lon="-0.08565">
        <ele>23.44730377197</ele>
        <time>2020-06-19T10:54:05.751Z</time>
      </trkpt>
      <trkpt lat="47.26528" lon="-0.08326">
        <ele>26.92839241028</ele>
        <time>2020-06-19T10:54:15.110Z</time>
      </trkpt>
      <trkpt lat="47.26514" lon="-0.08308">
        <ele>28.24618339539</ele>
        <time>2020-06-19T10:54:24.472Z</time>
      </trkpt>
      <trkpt lat="47.26464" lon="-0.08239">
        <ele>23.85095214844</ele>
        <time>2020-06-19T10:54:33.845Z</time>
      </trkpt>
      <trkpt lat="47.2645" lon="-0.0822">
        <ele>26.20985794067</ele>
        <time>2020-06-19T10:54:43.221Z</time>
      </trkpt>
      <trkpt lat="47.26388" lon="-0.08113">
        <ele>27.4242477417</ele>
        <time>2020-06-19T10:54:52.612Z</time>
      </trkpt>
      <trkpt lat="47.26376" lon="-0.08092">
        <ele>25.23478126526</ele>
        <time>2020-06-19T10:55:02.006Z</time>
      </trkpt>
      <trkpt lat="47.26372" lon="-0.08096">
        <ele>25.60223770142</ele>
        <time>2020-06-19T10:55:11.401Z</time>
      </trkpt>
      <trkpt lat="47.26354" lon="-0.08063">
        <ele>27.32975387573</ele>
        <time>2020-06-19T10:55:20.801Z</time>
      </trkpt>
      <trkpt lat="47.26343" lon="-0.08047">
        <ele>29.22543907166</ele>
        <time>2020-06-19T10:55:30.203Z</time>
      </trkpt>
      <trkpt lat="47.26323" lon="-0.08011">
        <ele>29.84978294373</ele>
        <time>2020-06-19T10:55:39.610Z</time>
      </trkpt>
      <trkpt lat="47.26289" lon="-0.07961">
        <ele>30.39157485962</ele>
        <time>2020-06-19T10:55:49.025Z</time>
      </trkpt>
      <trkpt lat="47.26273" lon="-0.0793">
        <ele>29.38215827942</ele>
        <time>2020-06-19T10:55:58.444Z</time>
      </trkpt>
      <trkpt lat="47.26267" lon="-0.07911">
        <ele>29.57412719727</ele>
        <time>2020-06-19T10:56:07.866Z</time>
      </trkpt>
      <trkpt lat="47.26235" lon="-0.07855">
        <ele>31.0106754303</ele>
        <time>2020-06-19T10:56:17.296Z</time>
      </trkpt>
      <trkpt lat="47.26222" lon="-0.0783">
        <ele>31.02773284912</ele>
        <time>2020-06-19T10:56:26.729Z</time>
      </trkpt>
      <trkpt lat="47.26207" lon="-0.07802">
        <ele>32.1261177063</ele>
        <time>2020-06-19T10:56:36.166Z</time>
      </trkpt>
      <trkpt lat="47.26187" lon="-0.07765">
        <ele>31.25795555115</ele>
        <time>2020-06-19T10:56:45.608Z</time>
      </trkpt>
      <trkpt lat="47.26168" lon="-0.07738">
        <ele>34.77336883545</ele>
        <time>2020-06-19T10:56:55.054Z</time>
      </trkpt>
      <trkpt lat="47.26157" lon="-0.0772">
        <ele>35.87590408325</ele>
        <time>2020-06-19T10:57:04.503Z</time>
      </trkpt>
      <trkpt lat="47.26142" lon="-0.07694">
        <ele>35.25291442871</ele>
        <time>2020-06-19T10:57:13.956Z</time>
      </trkpt>
      <trkpt lat="47.26134" lon="-0.07684">
        <ele>34.77299499512</ele>
        <time>2020-06-19T10:57:23.410Z</time>
      </trkpt>
      <trkpt lat="47.26132" lon="-0.07684">
        <ele>34.77299499512</ele>
        <time>2020-06-19T10:57:32.865Z</time>
      </trkpt>
      <trkpt lat="47.26129" lon="-0.07682">
        <ele>34.67700958252</ele>
        <time>2020-06-19T10:57:42.320Z</time>
      </trkpt>
      <trkpt lat="47.26126" lon="-0.07679">
        <ele>34.53303527832</ele>
        <time>2020-06-19T10:57:51.776Z</time>
      </trkpt>
      <trkpt lat="47.26125" lon="-0.07678">
        <ele>34.48504257202</ele>
        <time>2020-06-19T10:58:01.232Z</time>
      </trkpt>
      <trkpt lat="47.26123" lon="-0.07679">
        <ele>34.53303527832</ele>
        <time>2020-06-19T10:58:10.688Z</time>
      </trkpt>
      <trkpt lat="47.26107" lon="-0.07694">
        <ele>35.25551223755</ele>
        <time>2020-06-19T10:58:20.147Z</time>
      </trkpt>
      <trkpt lat="47.26093" lon="-0.07708">
        <ele>35.9248008728</ele>
        <time>2020-06-19T10:58:29.609Z</time>
      </trkpt>
      <trkpt lat="47.2609" lon="-0.07703">
        <ele>35.68484115601</ele>
        <time>2020-06-19T10:58:39.072Z</time>
      </trkpt>
      <trkpt lat="47.26073" lon="-0.07662">
        <ele>36.07656097412</ele>
        <time>2020-06-19T10:58:48.540Z</time>
      </trkpt>
      <trkpt lat="47.26049" lon="-0.07602">
        <ele>35.71268081665</ele>
        <time>2020-06-19T10:58:58.016Z</time>
      </trkpt>
      <trkpt lat="47.26038" lon="-0.07575">
        <ele>35.49649047852</ele>
        <time>2020-06-19T10:59:07.495Z</time>
      </trkpt>
      <trkpt lat="47.26033" lon="-0.07563">
        <ele>35.55905151367</ele>
        <time>2020-06-19T10:59:16.976Z</time>
      </trkpt>
      <trkpt lat="47.26021" lon="-0.07535">
        <ele>35.32264328003</ele>
        <time>2020-06-19T10:59:26.460Z</time>
      </trkpt>
      <trkpt lat="47.26005" lon="-0.07495">
        <ele>34.52145767212</ele>
        <time>2020-06-19T10:59:35.949Z</time>
      </trkpt>
      <trkpt lat="47.25994" lon="-0.07467">
        <ele>34.15496063232</ele>
        <time>2020-06-19T10:59:45.442Z</time>
      </trkpt>
      <trkpt lat="47.25985" lon="-0.07443">
        <ele>33.80234527588</ele>
        <time>2020-06-19T10:59:54.938Z</time>
      </trkpt>
      <trkpt lat="47.25973" lon="-0.07451">
        <ele>34.52222442627</ele>
        <time>2020-06-19T11:00:04.436Z</time>
      </trkpt>
      <trkpt lat="47.25957" lon="-0.07464">
        <ele>35.29761123657</ele>
        <time>2020-06-19T11:00:13.937Z</time>
      </trkpt>
      <trkpt lat="47.25944" lon="-0.07472">
        <ele>35.60023117065</ele>
        <time>2020-06-19T11:00:23.440Z</time>
      </trkpt>
      <trkpt lat="47.25923" lon="-0.07483">
        <ele>36.06548309326</ele>
        <time>2020-06-19T11:00:32.947Z</time>
      </trkpt>
      <trkpt lat="47.25908" lon="-0.07488">
        <ele>36.65410232544</ele>
        <time>2020-06-19T11:00:42.456Z</time>
      </trkpt>
      <trkpt lat="47.25905" lon="-0.0749">
        <ele>36.8143119812</ele>
        <time>2020-06-19T11:00:51.965Z</time>
      </trkpt>
      <trkpt lat="47.259" lon="-0.07493">
        <ele>37.11002731323</ele>
        <time>2020-06-19T11:01:01.475Z</time>
      </trkpt>
      <trkpt lat="47.25892" lon="-0.07492">
        <ele>37.70992660522</ele>
        <time>2020-06-19T11:01:10.987Z</time>
      </trkpt>
      <trkpt lat="47.25884" lon="-0.07489">
        <ele>38.35781860352</ele>
        <time>2020-06-19T11:01:20.500Z</time>
      </trkpt>
      <trkpt lat="47.25882" lon="-0.07489">
        <ele>38.48725509644</ele>
        <time>2020-06-19T11:01:30.013Z</time>
      </trkpt>
      <trkpt lat="47.2587" lon="-0.07476">
        <ele>39.36310958862</ele>
        <time>2020-06-19T11:01:39.529Z</time>
      </trkpt>
      <trkpt lat="47.2587" lon="-0.07475">
        <ele>39.40003585815</ele>
        <time>2020-06-19T11:01:49.045Z</time>
      </trkpt>
      <trkpt lat="47.2586" lon="-0.07456">
        <ele>40.16067504883</ele>
        <time>2020-06-19T11:01:58.563Z</time>
      </trkpt>
      <trkpt lat="47.25855" lon="-0.07446">
        <ele>40.46062469482</ele>
        <time>2020-06-19T11:02:08.083Z</time>
      </trkpt>
      <trkpt lat="47.25843" lon="-0.07427">
        <ele>41.63317871094</ele>
        <time>2020-06-19T11:02:17.606Z</time>
      </trkpt>
      <trkpt lat="47.25843" lon="-0.07403">
        <ele>42.20908355713</ele>
        <time>2020-06-19T11:02:27.131Z</time>
      </trkpt>
      <trkpt lat="47.25841" lon="-0.0739">
        <ele>42.68900299072</ele>
        <time>2020-06-19T11:02:36.658Z</time>
      </trkpt>
      <trkpt lat="47.25826" lon="-0.07329">
        <ele>42.86280822754</ele>
        <time>2020-06-19T11:02:46.192Z</time>
      </trkpt>
      <trkpt lat="47.25807" lon="-0.0728">
        <ele>46.18250656128</ele>
        <time>2020-06-19T11:02:55.732Z</time>
      </trkpt>
      <trkpt lat="47.25806" lon="-0.07278">
        <ele>46.27088928223</ele>
        <time>2020-06-19T11:03:05.272Z</time>
      </trkpt>
      <trkpt lat="47.25797" lon="-0.07261">
        <ele>47.62666320801</ele>
        <time>2020-06-19T11:03:14.814Z</time>
      </trkpt>
      <trkpt lat="47.25792" lon="-0.07251">
        <ele>48.3465461731</ele>
        <time>2020-06-19T11:03:24.358Z</time>
      </trkpt>
      <trkpt lat="47.25768" lon="-0.07197">
        <ele>55.57111740112</ele>
        <time>2020-06-19T11:03:33.909Z</time>
      </trkpt>
      <trkpt lat="47.25759" lon="-0.07172">
        <ele>53.48182296753</ele>
        <time>2020-06-19T11:03:43.463Z</time>
      </trkpt>
      <trkpt lat="47.25736" lon="-0.07118">
        <ele>48.07405853271</ele>
        <time>2020-06-19T11:03:53.024Z</time>
      </trkpt>
      <trkpt lat="47.25718" lon="-0.07074">
        <ele>49.3458480835</ele>
        <time>2020-06-19T11:04:02.590Z</time>
      </trkpt>
      <trkpt lat="47.25714" lon="-0.0706">
        <ele>48.74181747437</ele>
        <time>2020-06-19T11:04:12.158Z</time>
      </trkpt>
      <trkpt lat="47.2571" lon="-0.07046">
        <ele>47.93538665771</ele>
        <time>2020-06-19T11:04:21.728Z</time>
      </trkpt>
      <trkpt lat="47.2571" lon="-0.07045">
        <ele>47.90195846558</ele>
        <time>2020-06-19T11:04:31.298Z</time>
      </trkpt>
      <trkpt lat="47.25696" lon="-0.07015">
        <ele>49.32906723022</ele>
        <time>2020-06-19T11:04:40.872Z</time>
      </trkpt>
      <trkpt lat="47.25683" lon="-0.06992">
        <ele>47.78244018555</ele>
        <time>2020-06-19T11:04:50.449Z</time>
      </trkpt>
      <trkpt lat="47.2568" lon="-0.06988">
        <ele>47.46849822998</ele>
        <time>2020-06-19T11:05:00.027Z</time>
      </trkpt>
      <trkpt lat="47.2567" lon="-0.06973">
        <ele>46.30668640137</ele>
        <time>2020-06-19T11:05:09.607Z</time>
      </trkpt>
      <trkpt lat="47.25663" lon="-0.06962">
        <ele>45.38283920288</ele>
        <time>2020-06-19T11:05:19.189Z</time>
      </trkpt>
      <trkpt lat="47.25654" lon="-0.0694">
        <ele>46.21975708008</ele>
        <time>2020-06-19T11:05:28.773Z</time>
      </trkpt>
      <trkpt lat="47.25654" lon="-0.06939">
        <ele>46.10089492798</ele>
        <time>2020-06-19T11:05:38.358Z</time>
      </trkpt>
      <trkpt lat="47.25653" lon="-0.06926">
        <ele>45.09194564819</ele>
        <time>2020-06-19T11:05:47.944Z</time>
      </trkpt>
      <trkpt lat="47.25658" lon="-0.06903">
        <ele>40.68867874146</ele>
        <time>2020-06-19T11:05:57.533Z</time>
      </trkpt>
      <trkpt lat="47.25661" lon="-0.06888">
        <ele>37.91714096069</ele>
        <time>2020-06-19T11:06:07.123Z</time>
      </trkpt>
      <trkpt lat="47.25647" lon="-0.06871">
        <ele>41.15019989014</ele>
        <time>2020-06-19T11:06:16.716Z</time>
      </trkpt>
      <trkpt lat="47.25641" lon="-0.06863">
        <ele>42.69113540649</ele>
        <time>2020-06-19T11:06:26.311Z</time>
      </trkpt>
      <trkpt lat="47.25629" lon="-0.06846">
        <ele>45.58265304565</ele>
        <time>2020-06-19T11:06:35.908Z</time>
      </trkpt>
      <trkpt lat="47.25629" lon="-0.06847">
        <ele>45.66664123535</ele>
        <time>2020-06-19T11:06:45.505Z</time>
      </trkpt>
      <trkpt lat="47.25544" lon="-0.06737">
        <ele>49.13103103638</ele>
        <time>2020-06-19T11:06:55.120Z</time>
      </trkpt>
      <trkpt lat="47.25535" lon="-0.06726">
        <ele>47.87815093994</ele>
        <time>2020-06-19T11:07:04.737Z</time>
      </trkpt>
      <trkpt lat="47.2553" lon="-0.06745">
        <ele>54.48905181885</ele>
        <time>2020-06-19T11:07:14.357Z</time>
      </trkpt>
      <trkpt lat="47.25529" lon="-0.06757">
        <ele>58.1724357605</ele>
        <time>2020-06-19T11:07:23.978Z</time>
      </trkpt>
      <trkpt lat="47.25531" lon="-0.0678">
        <ele>61.39603805542</ele>
        <time>2020-06-19T11:07:33.601Z</time>
      </trkpt>
      <trkpt lat="47.25539" lon="-0.06797">
        <ele>60.86194229126</ele>
        <time>2020-06-19T11:07:43.227Z</time>
      </trkpt>
      <trkpt lat="47.25551" lon="-0.06808">
        <ele>57.46650695801</ele>
        <time>2020-06-19T11:07:52.855Z</time>
      </trkpt>
      <trkpt lat="47.25556" lon="-0.06813">
        <ele>56.14883041382</ele>
        <time>2020-06-19T11:08:02.484Z</time>
      </trkpt>
      <trkpt lat="47.25564" lon="-0.06821">
        <ele>55.89971160889</ele>
        <time>2020-06-19T11:08:12.114Z</time>
      </trkpt>
      <trkpt lat="47.25576" lon="-0.06836">
        <ele>57.05152130127</ele>
        <time>2020-06-19T11:08:21.747Z</time>
      </trkpt>
      <trkpt lat="47.25588" lon="-0.0686">
        <ele>60.36296844482</ele>
        <time>2020-06-19T11:08:31.383Z</time>
      </trkpt>
      <trkpt lat="47.25596" lon="-0.06881">
        <ele>60.6356010437</ele>
        <time>2020-06-19T11:08:41.022Z</time>
      </trkpt>
      <trkpt lat="47.25643" lon="-0.06981">
        <ele>52.628074646</ele>
        <time>2020-06-19T11:08:50.674Z</time>
      </trkpt>
      <trkpt lat="47.25656" lon="-0.07014">
        <ele>55.51959228516</ele>
        <time>2020-06-19T11:09:00.330Z</time>
      </trkpt>
      <trkpt lat="47.25661" lon="-0.07033">
        <ele>57.69123077393</ele>
        <time>2020-06-19T11:09:09.988Z</time>
      </trkpt>
      <trkpt lat="47.25666" lon="-0.07066">
        <ele>60.97977828979</ele>
        <time>2020-06-19T11:09:19.650Z</time>
      </trkpt>
      <trkpt lat="47.25666" lon="-0.07091">
        <ele>63.97927856445</ele>
        <time>2020-06-19T11:09:29.315Z</time>
      </trkpt>
      <trkpt lat="47.25663" lon="-0.07111">
        <ele>67.09876251221</ele>
        <time>2020-06-19T11:09:38.982Z</time>
      </trkpt>
      <trkpt lat="47.25656" lon="-0.07134">
        <ele>69.14621734619</ele>
        <time>2020-06-19T11:09:48.652Z</time>
      </trkpt>
      <trkpt lat="47.25651" lon="-0.07146">
        <ele>69.91403198242</ele>
        <time>2020-06-19T11:09:58.323Z</time>
      </trkpt>
      <trkpt lat="47.25637" lon="-0.07177">
        <ele>72.02573394775</ele>
        <time>2020-06-19T11:10:07.998Z</time>
      </trkpt>
      <trkpt lat="47.2558" lon="-0.07301">
        <ele>63.80171966553</ele>
        <time>2020-06-19T11:10:17.690Z</time>
      </trkpt>
      <trkpt lat="47.25566" lon="-0.07332">
        <ele>63.0687828064</ele>
        <time>2020-06-19T11:10:27.386Z</time>
      </trkpt>
      <trkpt lat="47.25551" lon="-0.07364">
        <ele>62.4568862915</ele>
        <time>2020-06-19T11:10:37.086Z</time>
      </trkpt>
      <trkpt lat="47.2556" lon="-0.07376">
        <ele>61.70101165771</ele>
        <time>2020-06-19T11:10:46.788Z</time>
      </trkpt>
      <trkpt lat="47.25559" lon="-0.07386">
        <ele>61.02353286743</ele>
        <time>2020-06-19T11:10:56.491Z</time>
      </trkpt>
      <trkpt lat="47.25553" lon="-0.0739">
        <ele>60.95154571533</ele>
        <time>2020-06-19T11:11:06.195Z</time>
      </trkpt>
      <trkpt lat="47.25539" lon="-0.07379">
        <ele>62.24732971191</ele>
        <time>2020-06-19T11:11:15.902Z</time>
      </trkpt>
      <trkpt lat="47.25533" lon="-0.07373">
        <ele>62.7808303833</ele>
        <time>2020-06-19T11:11:25.610Z</time>
      </trkpt>
      <trkpt lat="47.25531" lon="-0.07365">
        <ele>63.1407699585</ele>
        <time>2020-06-19T11:11:35.319Z</time>
      </trkpt>
      <trkpt lat="47.25532" lon="-0.07362">
        <ele>63.21276092529</ele>
        <time>2020-06-19T11:11:45.028Z</time>
      </trkpt>
      <trkpt lat="47.25513" lon="-0.07348">
        <ele>64.40055847168</ele>
        <time>2020-06-19T11:11:54.741Z</time>
      </trkpt>
      <trkpt lat="47.25509" lon="-0.07345">
        <ele>64.64363861084</ele>
        <time>2020-06-19T11:12:04.454Z</time>
      </trkpt>
      <trkpt lat="47.25493" lon="-0.07334">
        <ele>65.48275756836</ele>
        <time>2020-06-19T11:12:14.170Z</time>
      </trkpt>
      <trkpt lat="47.25485" lon="-0.07327">
        <ele>65.63872528076</ele>
        <time>2020-06-19T11:12:23.888Z</time>
      </trkpt>
      <trkpt lat="47.25479" lon="-0.07317">
        <ele>65.92668151855</ele>
        <time>2020-06-19T11:12:33.607Z</time>
      </trkpt>
      <trkpt lat="47.25479" lon="-0.073">
        <ele>66.89064788818</ele>
        <time>2020-06-19T11:12:43.328Z</time>
      </trkpt>
      <trkpt lat="47.25482" lon="-0.0729">
        <ele>67.47061157227</ele>
        <time>2020-06-19T11:12:53.050Z</time>
      </trkpt>
      <trkpt lat="47.25516" lon="-0.07235">
        <ele>69.29431152344</ele>
        <time>2020-06-19T11:13:02.780Z</time>
      </trkpt>
      <trkpt lat="47.25525" lon="-0.07227">
        <ele>69.46228027344</ele>
        <time>2020-06-19T11:13:12.512Z</time>
      </trkpt>
      <trkpt lat="47.25524" lon="-0.07224">
        <ele>69.63024902344</ele>
        <time>2020-06-19T11:13:22.244Z</time>
      </trkpt>
      <trkpt lat="47.25524" lon="-0.07219">
        <ele>69.87020874023</ele>
        <time>2020-06-19T11:13:31.977Z</time>
      </trkpt>
      <trkpt lat="47.25525" lon="-0.07213">
        <ele>70.13417053223</ele>
        <time>2020-06-19T11:13:41.710Z</time>
      </trkpt>
      <trkpt lat="47.25527" lon="-0.07208">
        <ele>70.32613372803</ele>
        <time>2020-06-19T11:13:51.444Z</time>
      </trkpt>
      <trkpt lat="47.25531" lon="-0.07206">
        <ele>70.32613372803</ele>
        <time>2020-06-19T11:14:01.179Z</time>
      </trkpt>
      <trkpt lat="47.25535" lon="-0.07206">
        <ele>70.23015594482</ele>
        <time>2020-06-19T11:14:10.914Z</time>
      </trkpt>
      <trkpt lat="47.25536" lon="-0.07206">
        <ele>70.20615386963</ele>
        <time>2020-06-19T11:14:20.650Z</time>
      </trkpt>
      <trkpt lat="47.25545" lon="-0.07184">
        <ele>71.04601287842</ele>
        <time>2020-06-19T11:14:30.388Z</time>
      </trkpt>
      <trkpt lat="47.25557" lon="-0.07155">
        <ele>72.17615509033</ele>
        <time>2020-06-19T11:14:40.130Z</time>
      </trkpt>
      <trkpt lat="47.2557" lon="-0.07121">
        <ele>73.40798950195</ele>
        <time>2020-06-19T11:14:49.876Z</time>
      </trkpt>
      <trkpt lat="47.25585" lon="-0.07081">
        <ele>73.46157836914</ele>
        <time>2020-06-19T11:14:59.627Z</time>
      </trkpt>
      <trkpt lat="47.25595" lon="-0.07052">
        <ele>72.46574401855</ele>
        <time>2020-06-19T11:15:09.382Z</time>
      </trkpt>
      <trkpt lat="47.25593" lon="-0.07021">
        <ele>71.00065612793</ele>
        <time>2020-06-19T11:15:19.140Z</time>
      </trkpt>
      <trkpt lat="47.25579" lon="-0.06985">
        <ele>76.70764160156</ele>
        <time>2020-06-19T11:15:28.903Z</time>
      </trkpt>
      <trkpt lat="47.25558" lon="-0.06933">
        <ele>75.04343414307</ele>
        <time>2020-06-19T11:15:38.672Z</time>
      </trkpt>
      <trkpt lat="47.25542" lon="-0.06911">
        <ele>73.65886688232</ele>
        <time>2020-06-19T11:15:48.445Z</time>
      </trkpt>
      <trkpt lat="47.25522" lon="-0.06884">
        <ele>77.6867980957</ele>
        <time>2020-06-19T11:15:58.222Z</time>
      </trkpt>
      <trkpt lat="47.25503" lon="-0.06862">
        <ele>79.27886962891</ele>
        <time>2020-06-19T11:16:08.003Z</time>
      </trkpt>
      <trkpt lat="47.25485" lon="-0.06836">
        <ele>79.89537811279</ele>
        <time>2020-06-19T11:16:17.788Z</time>
      </trkpt>
      <trkpt lat="47.25428" lon="-0.06752">
        <ele>79.62200927734</ele>
        <time>2020-06-19T11:16:27.586Z</time>
      </trkpt>
      <trkpt lat="47.25376" lon="-0.06675">
        <ele>77.44912719727</ele>
        <time>2020-06-19T11:16:37.396Z</time>
      </trkpt>
      <trkpt lat="47.25349" lon="-0.06644">
        <ele>81.81004333496</ele>
        <time>2020-06-19T11:16:47.211Z</time>
      </trkpt>
      <trkpt lat="47.2534" lon="-0.06632">
        <ele>84.22164154053</ele>
        <time>2020-06-19T11:16:57.028Z</time>
      </trkpt>
      <trkpt lat="47.25332" lon="-0.06619">
        <ele>84.96216583252</ele>
        <time>2020-06-19T11:17:06.847Z</time>
      </trkpt>
      <trkpt lat="47.25326" lon="-0.06609">
        <ele>84.71031188965</ele>
        <time>2020-06-19T11:17:16.668Z</time>
      </trkpt>
      <trkpt lat="47.25315" lon="-0.06587">
        <ele>81.67481994629</ele>
        <time>2020-06-19T11:17:26.492Z</time>
      </trkpt>
      <trkpt lat="47.25303" lon="-0.06559">
        <ele>79.26972961426</ele>
        <time>2020-06-19T11:17:36.319Z</time>
      </trkpt>
      <trkpt lat="47.25291" lon="-0.06521">
        <ele>78.96556091309</ele>
        <time>2020-06-19T11:17:46.151Z</time>
      </trkpt>
      <trkpt lat="47.25287" lon="-0.06509">
        <ele>78.3416595459</ele>
        <time>2020-06-19T11:17:55.984Z</time>
      </trkpt>
      <trkpt lat="47.25273" lon="-0.06486">
        <ele>81.53488922119</ele>
        <time>2020-06-19T11:18:05.821Z</time>
      </trkpt>
      <trkpt lat="47.25227" lon="-0.06419">
        <ele>88.51577758789</ele>
        <time>2020-06-19T11:18:15.668Z</time>
      </trkpt>
      <trkpt lat="47.25189" lon="-0.06364">
        <ele>89.14594268799</ele>
        <time>2020-06-19T11:18:25.524Z</time>
      </trkpt>
      <trkpt lat="47.25181" lon="-0.06352">
        <ele>88.74851989746</ele>
        <time>2020-06-19T11:18:35.381Z</time>
      </trkpt>
      <trkpt lat="47.25161" lon="-0.06329">
        <ele>92.5640411377</ele>
        <time>2020-06-19T11:18:45.242Z</time>
      </trkpt>
      <trkpt lat="47.2514" lon="-0.06311">
        <ele>92.78000640869</ele>
        <time>2020-06-19T11:18:55.107Z</time>
      </trkpt>
      <trkpt lat="47.25108" lon="-0.06287">
        <ele>92.66020965576</ele>
        <time>2020-06-19T11:19:04.978Z</time>
      </trkpt>
      <trkpt lat="47.25091" lon="-0.06273">
        <ele>92.19845581055</ele>
        <time>2020-06-19T11:19:14.852Z</time>
      </trkpt>
      <trkpt lat="47.25081" lon="-0.06257">
        <ele>92.48641204834</ele>
        <time>2020-06-19T11:19:24.729Z</time>
      </trkpt>
      <trkpt lat="47.2506" lon="-0.06204">
        <ele>90.95027923584</ele>
        <time>2020-06-19T11:19:34.612Z</time>
      </trkpt>
      <trkpt lat="47.25046" lon="-0.06173">
        <ele>89.53451538086</ele>
        <time>2020-06-19T11:19:44.499Z</time>
      </trkpt>
      <trkpt lat="47.2503" lon="-0.06136">
        <ele>89.75931549072</ele>
        <time>2020-06-19T11:19:54.391Z</time>
      </trkpt>
      <trkpt lat="47.25008" lon="-0.06084">
        <ele>87.9739151001</ele>
        <time>2020-06-19T11:20:04.290Z</time>
      </trkpt>
      <trkpt lat="47.24986" lon="-0.06027">
        <ele>87.03318786621</ele>
        <time>2020-06-19T11:20:14.196Z</time>
      </trkpt>
      <trkpt lat="47.24965" lon="-0.05999">
        <ele>85.10150909424</ele>
        <time>2020-06-19T11:20:24.106Z</time>
      </trkpt>
      <trkpt lat="47.24957" lon="-0.05989">
        <ele>84.91790771484</ele>
        <time>2020-06-19T11:20:34.018Z</time>
      </trkpt>
      <trkpt lat="47.24935" lon="-0.05964">
        <ele>85.8299331665</ele>
        <time>2020-06-19T11:20:43.935Z</time>
      </trkpt>
      <trkpt lat="47.24897" lon="-0.05916">
        <ele>84.65712738037</ele>
        <time>2020-06-19T11:20:53.860Z</time>
      </trkpt>
      <trkpt lat="47.24877" lon="-0.05887">
        <ele>84.6587600708</ele>
        <time>2020-06-19T11:21:03.789Z</time>
      </trkpt>
      <trkpt lat="47.24867" lon="-0.05877">
        <ele>85.25865936279</ele>
        <time>2020-06-19T11:21:13.720Z</time>
      </trkpt>
      <trkpt lat="47.24843" lon="-0.05769">
        <ele>85.95112609863</ele>
        <time>2020-06-19T11:21:23.663Z</time>
      </trkpt>
      <trkpt lat="47.24834" lon="-0.05726">
        <ele>86.68299865723</ele>
        <time>2020-06-19T11:21:33.611Z</time>
      </trkpt>
      <trkpt lat="47.24824" lon="-0.05697">
        <ele>87.12412261963</ele>
        <time>2020-06-19T11:21:43.563Z</time>
      </trkpt>
      <trkpt lat="47.24797" lon="-0.05628">
        <ele>88.1326675415</ele>
        <time>2020-06-19T11:21:53.524Z</time>
      </trkpt>
      <trkpt lat="47.2478" lon="-0.05588">
        <ele>87.12982940674</ele>
        <time>2020-06-19T11:22:03.490Z</time>
      </trkpt>
      <trkpt lat="47.2473" lon="-0.05476">
        <ele>90</ele>
        <time>2020-06-19T11:22:13.470Z</time>
      </trkpt>
      <trkpt lat="47.24687" lon="-0.05372">
        <ele>92.20962524414</ele>
        <time>2020-06-19T11:22:23.464Z</time>
      </trkpt>
      <trkpt lat="47.24663" lon="-0.05318">
        <ele>92.30597686768</ele>
        <time>2020-06-19T11:22:33.465Z</time>
      </trkpt>
      <trkpt lat="47.24637" lon="-0.05257">
        <ele>90.77724456787</ele>
        <time>2020-06-19T11:22:43.473Z</time>
      </trkpt>
      <trkpt lat="47.24614" lon="-0.05208">
        <ele>90.82291412354</ele>
        <time>2020-06-19T11:22:53.488Z</time>
      </trkpt>
      <trkpt lat="47.24597" lon="-0.05182">
        <ele>90.10303497314</ele>
        <time>2020-06-19T11:23:03.507Z</time>
      </trkpt>
      <trkpt lat="47.24598" lon="-0.05165">
        <ele>89.92306518555</ele>
        <time>2020-06-19T11:23:13.528Z</time>
      </trkpt>
      <trkpt lat="47.24593" lon="-0.05138">
        <ele>89.47913360596</ele>
        <time>2020-06-19T11:23:23.552Z</time>
      </trkpt>
      <trkpt lat="47.24566" lon="-0.05032">
        <ele>88.84245300293</ele>
        <time>2020-06-19T11:23:33.588Z</time>
      </trkpt>
      <trkpt lat="47.24548" lon="-0.04957">
        <ele>88.97470092773</ele>
        <time>2020-06-19T11:23:43.633Z</time>
      </trkpt>
      <trkpt lat="47.24531" lon="-0.04892">
        <ele>88.57747650146</ele>
        <time>2020-06-19T11:23:53.685Z</time>
      </trkpt>
      <trkpt lat="47.24514" lon="-0.04797">
        <ele>87.84331512451</ele>
        <time>2020-06-19T11:24:03.748Z</time>
      </trkpt>
      <trkpt lat="47.24512" lon="-0.04789">
        <ele>87.72351074219</ele>
        <time>2020-06-19T11:24:13.812Z</time>
      </trkpt>
      <trkpt lat="47.24505" lon="-0.04756">
        <ele>87.01563262939</ele>
        <time>2020-06-19T11:24:23.880Z</time>
      </trkpt>
      <trkpt lat="47.24496" lon="-0.04725">
        <ele>86.379737854</ele>
        <time>2020-06-19T11:24:33.951Z</time>
      </trkpt>
      <trkpt lat="47.24485" lon="-0.04698">
        <ele>85.47227478027</ele>
        <time>2020-06-19T11:24:44.026Z</time>
      </trkpt>
      <trkpt lat="47.24453" lon="-0.04631">
        <ele>82.67674255371</ele>
        <time>2020-06-19T11:24:54.110Z</time>
      </trkpt>
      <trkpt lat="47.2443" lon="-0.04578">
        <ele>80.49310302734</ele>
        <time>2020-06-19T11:25:04.201Z</time>
      </trkpt>
      <trkpt lat="47.24418" lon="-0.04534">
        <ele>78.89954376221</ele>
        <time>2020-06-19T11:25:14.297Z</time>
      </trkpt>
      <trkpt lat="47.24414" lon="-0.04512">
        <ele>78.63558959961</ele>
        <time>2020-06-19T11:25:24.395Z</time>
      </trkpt>
      <trkpt lat="47.24401" lon="-0.04397">
        <ele>77.72556304932</ele>
        <time>2020-06-19T11:25:34.506Z</time>
      </trkpt>
      <trkpt lat="47.24395" lon="-0.04345">
        <ele>78.1085357666</ele>
        <time>2020-06-19T11:25:44.623Z</time>
      </trkpt>
      <trkpt lat="47.24387" lon="-0.04278">
        <ele>80.03868865967</ele>
        <time>2020-06-19T11:25:54.747Z</time>
      </trkpt>
      <trkpt lat="47.24381" lon="-0.04241">
        <ele>80.85455322266</ele>
        <time>2020-06-19T11:26:04.875Z</time>
      </trkpt>
      <trkpt lat="47.24374" lon="-0.04177">
        <ele>83.22863769531</ele>
        <time>2020-06-19T11:26:15.010Z</time>
      </trkpt>
      <trkpt lat="47.2437" lon="-0.04149">
        <ele>84.17736053467</ele>
        <time>2020-06-19T11:26:25.148Z</time>
      </trkpt>
      <trkpt lat="47.2435" lon="-0.04116">
        <ele>85.26699829102</ele>
        <time>2020-06-19T11:26:35.291Z</time>
      </trkpt>
      <trkpt lat="47.24347" lon="-0.04112">
        <ele>85.25521087646</ele>
        <time>2020-06-19T11:26:45.435Z</time>
      </trkpt>
      <trkpt lat="47.24323" lon="-0.04085">
        <ele>84.65958404541</ele>
        <time>2020-06-19T11:26:55.584Z</time>
      </trkpt>
      <trkpt lat="47.24311" lon="-0.04072">
        <ele>83.62775421143</ele>
        <time>2020-06-19T11:27:05.735Z</time>
      </trkpt>
      <trkpt lat="47.24292" lon="-0.04048">
        <ele>83.04148101807</ele>
        <time>2020-06-19T11:27:15.890Z</time>
      </trkpt>
      <trkpt lat="47.24269" lon="-0.04016">
        <ele>82.38815307617</ele>
        <time>2020-06-19T11:27:26.050Z</time>
      </trkpt>
      <trkpt lat="47.24254" lon="-0.04004">
        <ele>83.18002319336</ele>
        <time>2020-06-19T11:27:36.213Z</time>
      </trkpt>
      <trkpt lat="47.2424" lon="-0.03994">
        <ele>83.73812103271</ele>
        <time>2020-06-19T11:27:46.378Z</time>
      </trkpt>
      <trkpt lat="47.24204" lon="-0.0397">
        <ele>84.23382568359</ele>
        <time>2020-06-19T11:27:56.550Z</time>
      </trkpt>
      <trkpt lat="47.24155" lon="-0.0393">
        <ele>85.30790710449</ele>
        <time>2020-06-19T11:28:06.731Z</time>
      </trkpt>
      <trkpt lat="47.24129" lon="-0.03908">
        <ele>87.02375030518</ele>
        <time>2020-06-19T11:28:16.917Z</time>
      </trkpt>
      <trkpt lat="47.24117" lon="-0.03893">
        <ele>87.67163848877</ele>
        <time>2020-06-19T11:28:27.105Z</time>
      </trkpt>
      <trkpt lat="47.2409" lon="-0.03851">
        <ele>88.70491027832</ele>
        <time>2020-06-19T11:28:37.299Z</time>
      </trkpt>
      <trkpt lat="47.24061" lon="-0.03809">
        <ele>88.6340713501</ele>
        <time>2020-06-19T11:28:47.500Z</time>
      </trkpt>
      <trkpt lat="47.24039" lon="-0.03791">
        <ele>88.94602203369</ele>
        <time>2020-06-19T11:28:57.705Z</time>
      </trkpt>
      <trkpt lat="47.24019" lon="-0.03779">
        <ele>89.28196716309</ele>
        <time>2020-06-19T11:29:07.913Z</time>
      </trkpt>
      <trkpt lat="47.23978" lon="-0.03762">
        <ele>88.84944152832</ele>
        <time>2020-06-19T11:29:18.128Z</time>
      </trkpt>
      <trkpt lat="47.23947" lon="-0.03757">
        <ele>88.01441955566</ele>
        <time>2020-06-19T11:29:28.348Z</time>
      </trkpt>
      <trkpt lat="47.23912" lon="-0.03753">
        <ele>88.92906188965</ele>
        <time>2020-06-19T11:29:38.574Z</time>
      </trkpt>
      <trkpt lat="47.2388" lon="-0.03751">
        <ele>87.82524871826</ele>
        <time>2020-06-19T11:29:48.805Z</time>
      </trkpt>
      <trkpt lat="47.23855" lon="-0.03747">
        <ele>87.02137756348</ele>
        <time>2020-06-19T11:29:59.040Z</time>
      </trkpt>
      <trkpt lat="47.23839" lon="-0.03743">
        <ele>86.54145812988</ele>
        <time>2020-06-19T11:30:09.278Z</time>
      </trkpt>
      <trkpt lat="47.23795" lon="-0.03727">
        <ele>85.36798095703</ele>
        <time>2020-06-19T11:30:19.523Z</time>
      </trkpt>
      <trkpt lat="47.23749" lon="-0.03719">
        <ele>83.16034698486</ele>
        <time>2020-06-19T11:30:29.775Z</time>
      </trkpt>
      <trkpt lat="47.23725" lon="-0.03711">
        <ele>82.97480773926</ele>
        <time>2020-06-19T11:30:40.031Z</time>
      </trkpt>
      <trkpt lat="47.23705" lon="-0.03696">
        <ele>82.84522247314</ele>
        <time>2020-06-19T11:30:50.291Z</time>
      </trkpt>
      <trkpt lat="47.23691" lon="-0.0368">
        <ele>82.65579986572</ele>
        <time>2020-06-19T11:31:00.554Z</time>
      </trkpt>
      <trkpt lat="47.23671" lon="-0.03652">
        <ele>82.89575958252</ele>
        <time>2020-06-19T11:31:10.821Z</time>
      </trkpt>
      <trkpt lat="47.23656" lon="-0.03626">
        <ele>83.07572937012</ele>
        <time>2020-06-19T11:31:21.092Z</time>
      </trkpt>
      <trkpt lat="47.23644" lon="-0.03593">
        <ele>83.61027526855</ele>
        <time>2020-06-19T11:31:31.367Z</time>
      </trkpt>
      <trkpt lat="47.2364" lon="-0.03577">
        <ele>83.85023498535</ele>
        <time>2020-06-19T11:31:41.644Z</time>
      </trkpt>
      <trkpt lat="47.23633" lon="-0.03535">
        <ele>84.87040710449</ele>
        <time>2020-06-19T11:31:51.925Z</time>
      </trkpt>
      <trkpt lat="47.2363" lon="-0.03479">
        <ele>88.20764160156</ele>
        <time>2020-06-19T11:32:02.213Z</time>
      </trkpt>
      <trkpt lat="47.23625" lon="-0.03454">
        <ele>88.09275054932</ele>
        <time>2020-06-19T11:32:12.503Z</time>
      </trkpt>
      <trkpt lat="47.23619" lon="-0.03438">
        <ele>87.42086029053</ele>
        <time>2020-06-19T11:32:22.795Z</time>
      </trkpt>
      <trkpt lat="47.23611" lon="-0.03425">
        <ele>86.7905960083</ele>
        <time>2020-06-19T11:32:33.089Z</time>
      </trkpt>
      <trkpt lat="47.23591" lon="-0.0339">
        <ele>86.9705657959</ele>
        <time>2020-06-19T11:32:43.388Z</time>
      </trkpt>
      <trkpt lat="47.23581" lon="-0.0337">
        <ele>86.8677520752</ele>
        <time>2020-06-19T11:32:53.690Z</time>
      </trkpt>
      <trkpt lat="47.2358" lon="-0.03368">
        <ele>86.82362365723</ele>
        <time>2020-06-19T11:33:03.992Z</time>
      </trkpt>
      <trkpt lat="47.23573" lon="-0.03346">
        <ele>86.2202835083</ele>
        <time>2020-06-19T11:33:14.297Z</time>
      </trkpt>
      <trkpt lat="47.23569" lon="-0.03328">
        <ele>85.74036407471</ele>
        <time>2020-06-19T11:33:24.604Z</time>
      </trkpt>
      <trkpt lat="47.23553" lon="-0.03267">
        <ele>85.3115234375</ele>
        <time>2020-06-19T11:33:34.918Z</time>
      </trkpt>
      <trkpt lat="47.23543" lon="-0.03237">
        <ele>85.52486419678</ele>
        <time>2020-06-19T11:33:45.236Z</time>
      </trkpt>
      <trkpt lat="47.23531" lon="-0.03209">
        <ele>86.14875793457</ele>
        <time>2020-06-19T11:33:55.557Z</time>
      </trkpt>
      <trkpt lat="47.23511" lon="-0.03168">
        <ele>85.7154006958</ele>
        <time>2020-06-19T11:34:05.884Z</time>
      </trkpt>
      <trkpt lat="47.23478" lon="-0.03096">
        <ele>83.64642333984</ele>
        <time>2020-06-19T11:34:16.220Z</time>
      </trkpt>
      <trkpt lat="47.23473" lon="-0.03083">
        <ele>83.49044799805</ele>
        <time>2020-06-19T11:34:26.558Z</time>
      </trkpt>
      <trkpt lat="47.23468" lon="-0.03058">
        <ele>83.33135223389</ele>
        <time>2020-06-19T11:34:36.899Z</time>
      </trkpt>
      <trkpt lat="47.23461" lon="-0.0298">
        <ele>82.40669250488</ele>
        <time>2020-06-19T11:34:47.248Z</time>
      </trkpt>
      <trkpt lat="47.23448" lon="-0.02825">
        <ele>78.19262695312</ele>
        <time>2020-06-19T11:34:57.614Z</time>
      </trkpt>
      <trkpt lat="47.23446" lon="-0.02741">
        <ele>71.87133026123</ele>
        <time>2020-06-19T11:35:07.990Z</time>
      </trkpt>
      <trkpt lat="47.23454" lon="-0.02672">
        <ele>65.35562133789</ele>
        <time>2020-06-19T11:35:18.373Z</time>
      </trkpt>
      <trkpt lat="47.2346" lon="-0.02633">
        <ele>63.22006607056</ele>
        <time>2020-06-19T11:35:28.761Z</time>
      </trkpt>
      <trkpt lat="47.2347" lon="-0.02594">
        <ele>61.10841751099</ele>
        <time>2020-06-19T11:35:39.153Z</time>
      </trkpt>
      <trkpt lat="47.23481" lon="-0.02566">
        <ele>59.50068664551</ele>
        <time>2020-06-19T11:35:49.549Z</time>
      </trkpt>
      <trkpt lat="47.23499" lon="-0.02512">
        <ele>57.27918243408</ele>
        <time>2020-06-19T11:35:59.951Z</time>
      </trkpt>
      <trkpt lat="47.23505" lon="-0.02456">
        <ele>55.9354057312</ele>
        <time>2020-06-19T11:36:10.359Z</time>
      </trkpt>
      <trkpt lat="47.23515" lon="-0.02373">
        <ele>54.7674446106</ele>
        <time>2020-06-19T11:36:20.777Z</time>
      </trkpt>
      <trkpt lat="47.23522" lon="-0.02331">
        <ele>54.6834602356</ele>
        <time>2020-06-19T11:36:31.199Z</time>
      </trkpt>
      <trkpt lat="47.23524" lon="-0.02299">
        <ele>54.6594619751</ele>
        <time>2020-06-19T11:36:41.625Z</time>
      </trkpt>
      <trkpt lat="47.23522" lon="-0.02262">
        <ele>54.55335235596</ele>
        <time>2020-06-19T11:36:52.055Z</time>
      </trkpt>
      <trkpt lat="47.23516" lon="-0.02223">
        <ele>53.00561141968</ele>
        <time>2020-06-19T11:37:02.489Z</time>
      </trkpt>
      <trkpt lat="47.23505" lon="-0.02175">
        <ele>52.11257553101</ele>
        <time>2020-06-19T11:37:12.929Z</time>
      </trkpt>
      <trkpt lat="47.23479" lon="-0.02083">
        <ele>51.8013458252</ele>
        <time>2020-06-19T11:37:23.380Z</time>
      </trkpt>
      <trkpt lat="47.23467" lon="-0.0204">
        <ele>51.31330108643</ele>
        <time>2020-06-19T11:37:33.836Z</time>
      </trkpt>
      <trkpt lat="47.23447" lon="-0.01966">
        <ele>50.33875274658</ele>
        <time>2020-06-19T11:37:44.300Z</time>
      </trkpt>
      <trkpt lat="47.2342" lon="-0.01882">
        <ele>47.43993377686</ele>
        <time>2020-06-19T11:37:54.774Z</time>
      </trkpt>
      <trkpt lat="47.23395" lon="-0.01814">
        <ele>44.17334365845</ele>
        <time>2020-06-19T11:38:05.257Z</time>
      </trkpt>
      <trkpt lat="47.23362" lon="-0.01747">
        <ele>42.79372024536</ele>
        <time>2020-06-19T11:38:15.749Z</time>
      </trkpt>
      <trkpt lat="47.23346" lon="-0.01702">
        <ele>42.33099365234</ele>
        <time>2020-06-19T11:38:26.246Z</time>
      </trkpt>
      <trkpt lat="47.23327" lon="-0.01644">
        <ele>41.22532653809</ele>
        <time>2020-06-19T11:38:36.750Z</time>
      </trkpt>
      <trkpt lat="47.23307" lon="-0.01569">
        <ele>40.73696899414</ele>
        <time>2020-06-19T11:38:47.263Z</time>
      </trkpt>
      <trkpt lat="47.2327" lon="-0.01436">
        <ele>38.50505828857</ele>
        <time>2020-06-19T11:38:57.792Z</time>
      </trkpt>
      <trkpt lat="47.23231" lon="-0.01317">
        <ele>38.74579620361</ele>
        <time>2020-06-19T11:39:08.335Z</time>
      </trkpt>
      <trkpt lat="47.23211" lon="-0.01263">
        <ele>39.62289810181</ele>
        <time>2020-06-19T11:39:18.885Z</time>
      </trkpt>
      <trkpt lat="47.23172" lon="-0.01199">
        <ele>44.11670303345</ele>
        <time>2020-06-19T11:39:29.444Z</time>
      </trkpt>
      <trkpt lat="47.23171" lon="-0.01198">
        <ele>44.12578201294</ele>
        <time>2020-06-19T11:39:40.004Z</time>
      </trkpt>
      <trkpt lat="47.23153" lon="-0.01164">
        <ele>44.53371429443</ele>
        <time>2020-06-19T11:39:50.568Z</time>
      </trkpt>
      <trkpt lat="47.23151" lon="-0.0116">
        <ele>44.58170700073</ele>
        <time>2020-06-19T11:40:01.133Z</time>
      </trkpt>
      <trkpt lat="47.23135" lon="-0.01125">
        <ele>44.67985534668</ele>
        <time>2020-06-19T11:40:11.702Z</time>
      </trkpt>
      <trkpt lat="47.23127" lon="-0.01101">
        <ele>45.73567962646</ele>
        <time>2020-06-19T11:40:22.274Z</time>
      </trkpt>
      <trkpt lat="47.2311" lon="-0.0105">
        <ele>49.56367111206</ele>
        <time>2020-06-19T11:40:32.852Z</time>
      </trkpt>
      <trkpt lat="47.23103" lon="-0.01024">
        <ele>51.48841094971</ele>
        <time>2020-06-19T11:40:43.433Z</time>
      </trkpt>
      <trkpt lat="47.23096" lon="-0.00986">
        <ele>52.54410934448</ele>
        <time>2020-06-19T11:40:54.019Z</time>
      </trkpt>
      <trkpt lat="47.23095" lon="-0.00953">
        <ele>53.12810134888</ele>
        <time>2020-06-19T11:41:04.608Z</time>
      </trkpt>
      <trkpt lat="47.231" lon="-0.00941">
        <ele>53.04411697388</ele>
        <time>2020-06-19T11:41:15.199Z</time>
      </trkpt>
      <trkpt lat="47.23135" lon="-0.009">
        <ele>53.02787017822</ele>
        <time>2020-06-19T11:41:25.797Z</time>
      </trkpt>
      <trkpt lat="47.2314" lon="-0.00891">
        <ele>53.07586288452</ele>
        <time>2020-06-19T11:41:36.396Z</time>
      </trkpt>
      <trkpt lat="47.23145" lon="-0.00872">
        <ele>53.20670700073</ele>
        <time>2020-06-19T11:41:46.998Z</time>
      </trkpt>
      <trkpt lat="47.23146" lon="-0.00854">
        <ele>53.19470596313</ele>
        <time>2020-06-19T11:41:57.602Z</time>
      </trkpt>
      <trkpt lat="47.23143" lon="-0.00838">
        <ele>53.23070144653</ele>
        <time>2020-06-19T11:42:08.207Z</time>
      </trkpt>
      <trkpt lat="47.23138" lon="-0.00828">
        <ele>53.29069137573</ele>
        <time>2020-06-19T11:42:18.814Z</time>
      </trkpt>
      <trkpt lat="47.23129" lon="-0.00816">
        <ele>53.50636672974</ele>
        <time>2020-06-19T11:42:29.423Z</time>
      </trkpt>
      <trkpt lat="47.23113" lon="-0.00785">
        <ele>54.01937103271</ele>
        <time>2020-06-19T11:42:40.036Z</time>
      </trkpt>
      <trkpt lat="47.23093" lon="-0.00734">
        <ele>54.84586334229</ele>
        <time>2020-06-19T11:42:50.655Z</time>
      </trkpt>
      <trkpt lat="47.23073" lon="-0.00672">
        <ele>55.92943954468</ele>
        <time>2020-06-19T11:43:01.282Z</time>
      </trkpt>
      <trkpt lat="47.23055" lon="-0.0062">
        <ele>55.59222412109</ele>
        <time>2020-06-19T11:43:11.915Z</time>
      </trkpt>
      <trkpt lat="47.23044" lon="-0.00597">
        <ele>54.9083366394</ele>
        <time>2020-06-19T11:43:22.551Z</time>
      </trkpt>
      <trkpt lat="47.23026" lon="-0.00566">
        <ele>54.97745513916</ele>
        <time>2020-06-19T11:43:33.192Z</time>
      </trkpt>
      <trkpt lat="47.22997" lon="-0.00514">
        <ele>55.94722747803</ele>
        <time>2020-06-19T11:43:43.840Z</time>
      </trkpt>
      <trkpt lat="47.22974" lon="-0.0045">
        <ele>56.41644287109</ele>
        <time>2020-06-19T11:43:54.496Z</time>
      </trkpt>
      <trkpt lat="47.22957" lon="-0.00381">
        <ele>55.9965133667</ele>
        <time>2020-06-19T11:44:05.160Z</time>
      </trkpt>
      <trkpt lat="47.22932" lon="-0.00296">
        <ele>57</ele>
        <time>2020-06-19T11:44:15.834Z</time>
      </trkpt>
      <trkpt lat="47.22905" lon="-0.00219">
        <ele>56.91377258301</ele>
        <time>2020-06-19T11:44:26.517Z</time>
      </trkpt>
      <trkpt lat="47.22883" lon="-0.00163">
        <ele>57.54124069214</ele>
        <time>2020-06-19T11:44:37.207Z</time>
      </trkpt>
      <trkpt lat="47.22866" lon="-0.00119">
        <ele>57.92837524414</ele>
        <time>2020-06-19T11:44:47.903Z</time>
      </trkpt>
      <trkpt lat="47.2284" lon="-0.00051">
        <ele>57.86609649658</ele>
        <time>2020-06-19T11:44:58.607Z</time>
      </trkpt>
      <trkpt lat="47.22825" lon="-0.00012">
        <ele>58.4475402832</ele>
        <time>2020-06-19T11:45:09.316Z</time>
      </trkpt>
      <trkpt lat="47.22837" lon="0">
        <ele>57.50061416626</ele>
        <time>2020-06-19T11:45:20.028Z</time>
      </trkpt>
      <trkpt lat="47.22887" lon="0.00035">
        <ele>57.08068466187</ele>
        <time>2020-06-19T11:45:30.749Z</time>
      </trkpt>
      <trkpt lat="47.22943" lon="0.00065">
        <ele>57.05180740356</ele>
        <time>2020-06-19T11:45:41.479Z</time>
      </trkpt>
      <trkpt lat="47.22979" lon="0.00082">
        <ele>55.14412307739</ele>
        <time>2020-06-19T11:45:52.215Z</time>
      </trkpt>
      <trkpt lat="47.23012" lon="0.001">
        <ele>53.30842971802</ele>
        <time>2020-06-19T11:46:02.957Z</time>
      </trkpt>
      <trkpt lat="47.23037" lon="0.00111">
        <ele>52.01264572144</ele>
        <time>2020-06-19T11:46:13.703Z</time>
      </trkpt>
      <trkpt lat="47.23057" lon="0.00119">
        <ele>51.00481414795</ele>
        <time>2020-06-19T11:46:24.452Z</time>
      </trkpt>
      <trkpt lat="47.23088" lon="0.00136">
        <ele>49.67186355591</ele>
        <time>2020-06-19T11:46:35.207Z</time>
      </trkpt>
      <trkpt lat="47.23107" lon="0.00145">
        <ele>48.79243087769</ele>
        <time>2020-06-19T11:46:45.965Z</time>
      </trkpt>
      <trkpt lat="47.23126" lon="0.00151">
        <ele>47.7965965271</ele>
        <time>2020-06-19T11:46:56.726Z</time>
      </trkpt>
      <trkpt lat="47.23142" lon="0.00154">
        <ele>46.90874481201</ele>
        <time>2020-06-19T11:47:07.489Z</time>
      </trkpt>
      <trkpt lat="47.2315" lon="0.00158">
        <ele>46.52480697632</ele>
        <time>2020-06-19T11:47:18.254Z</time>
      </trkpt>
      <trkpt lat="47.23158" lon="0.00165">
        <ele>46.21286010742</ele>
        <time>2020-06-19T11:47:29.020Z</time>
      </trkpt>
      <trkpt lat="47.23174" lon="0.00187">
        <ele>47.19300460815</ele>
        <time>2020-06-19T11:47:39.790Z</time>
      </trkpt>
      <trkpt lat="47.23186" lon="0.00202">
        <ele>48.27282714844</ele>
        <time>2020-06-19T11:47:50.562Z</time>
      </trkpt>
      <trkpt lat="47.23194" lon="0.00215">
        <ele>49.14412307739</ele>
        <time>2020-06-19T11:48:01.336Z</time>
      </trkpt>
      <trkpt lat="47.23196" lon="0.00224">
        <ele>49.58804702759</ele>
        <time>2020-06-19T11:48:12.111Z</time>
      </trkpt>
      <trkpt lat="47.23198" lon="0.00254">
        <ele>51.02423095703</ele>
        <time>2020-06-19T11:48:22.890Z</time>
      </trkpt>
      <trkpt lat="47.23198" lon="0.00309">
        <ele>52.66575622559</ele>
        <time>2020-06-19T11:48:33.675Z</time>
      </trkpt>
      <trkpt lat="47.23195" lon="0.00417">
        <ele>51.8667755127</ele>
        <time>2020-06-19T11:48:44.471Z</time>
      </trkpt>
      <trkpt lat="47.23187" lon="0.00511">
        <ele>54.43479156494</ele>
        <time>2020-06-19T11:48:55.278Z</time>
      </trkpt>
      <trkpt lat="47.23186" lon="0.0053">
        <ele>55.29864501953</ele>
        <time>2020-06-19T11:49:06.087Z</time>
      </trkpt>
      <trkpt lat="47.23189" lon="0.00538">
        <ele>55.04668807983</ele>
        <time>2020-06-19T11:49:16.897Z</time>
      </trkpt>
      <trkpt lat="47.23196" lon="0.00543">
        <ele>53.81914138794</ele>
        <time>2020-06-19T11:49:27.708Z</time>
      </trkpt>
      <trkpt lat="47.23204" lon="0.0055">
        <ele>51.79147720337</ele>
        <time>2020-06-19T11:49:38.521Z</time>
      </trkpt>
      <trkpt lat="47.2321" lon="0.00558">
        <ele>50.03977203369</ele>
        <time>2020-06-19T11:49:49.335Z</time>
      </trkpt>
      <trkpt lat="47.2321" lon="0.00574">
        <ele>48.69599533081</ele>
        <time>2020-06-19T11:50:00.151Z</time>
      </trkpt>
      <trkpt lat="47.23206" lon="0.0059">
        <ele>48.4468460083</ele>
        <time>2020-06-19T11:50:10.968Z</time>
      </trkpt>
      <trkpt lat="47.23196" lon="0.0065">
        <ele>49.5936126709</ele>
        <time>2020-06-19T11:50:21.792Z</time>
      </trkpt>
      <trkpt lat="47.23193" lon="0.00675">
        <ele>48.88573074341</ele>
        <time>2020-06-19T11:50:32.619Z</time>
      </trkpt>
      <trkpt lat="47.23191" lon="0.00689">
        <ele>48.57378387451</ele>
        <time>2020-06-19T11:50:43.447Z</time>
      </trkpt>
      <trkpt lat="47.23181" lon="0.00725">
        <ele>49.88604354858</ele>
        <time>2020-06-19T11:50:54.280Z</time>
      </trkpt>
      <trkpt lat="47.2317" lon="0.00763">
        <ele>50.05046081543</ele>
        <time>2020-06-19T11:51:05.117Z</time>
      </trkpt>
      <trkpt lat="47.23167" lon="0.00775">
        <ele>49.97847366333</ele>
        <time>2020-06-19T11:51:15.956Z</time>
      </trkpt>
      <trkpt lat="47.23163" lon="0.0079">
        <ele>49.94247817993</ele>
        <time>2020-06-19T11:51:26.796Z</time>
      </trkpt>
      <trkpt lat="47.23155" lon="0.00802">
        <ele>49.8895072937</ele>
        <time>2020-06-19T11:51:37.638Z</time>
      </trkpt>
      <trkpt lat="47.2315" lon="0.00801">
        <ele>50.58539199829</ele>
        <time>2020-06-19T11:51:48.481Z</time>
      </trkpt>
      <trkpt lat="47.23144" lon="0.00796">
        <ele>51.78519058228</ele>
        <time>2020-06-19T11:51:59.325Z</time>
      </trkpt>
      <trkpt lat="47.23134" lon="0.0079">
        <ele>53.36540603638</ele>
        <time>2020-06-19T11:52:10.171Z</time>
      </trkpt>
      <trkpt lat="47.23125" lon="0.0079">
        <ele>54.44522476196</ele>
        <time>2020-06-19T11:52:21.018Z</time>
      </trkpt>
      <trkpt lat="47.23118" lon="0.00798">
        <ele>54.71270370483</ele>
        <time>2020-06-19T11:52:31.867Z</time>
      </trkpt>
      <trkpt lat="47.23114" lon="0.00809">
        <ele>54.13679885864</ele>
        <time>2020-06-19T11:52:42.717Z</time>
      </trkpt>
      <trkpt lat="47.23118" lon="0.00829">
        <ele>51.73720169067</ele>
        <time>2020-06-19T11:52:53.569Z</time>
      </trkpt>
      <trkpt lat="47.23118" lon="0.00837">
        <ele>51.62511825562</ele>
        <time>2020-06-19T11:53:04.422Z</time>
      </trkpt>
      <trkpt lat="47.23117" lon="0.00847">
        <ele>51.99401473999</ele>
        <time>2020-06-19T11:53:15.276Z</time>
      </trkpt>
      <trkpt lat="47.23111" lon="0.00899">
        <ele>51.96230316162</ele>
        <time>2020-06-19T11:53:26.136Z</time>
      </trkpt>
      <trkpt lat="47.23112" lon="0.00926">
        <ele>50.64136505127</ele>
        <time>2020-06-19T11:53:36.999Z</time>
      </trkpt>
      <trkpt lat="47.23102" lon="0.00984">
        <ele>51.58908843994</ele>
        <time>2020-06-19T11:53:47.869Z</time>
      </trkpt>
      <trkpt lat="47.23081" lon="0.0105">
        <ele>50.67071914673</ele>
        <time>2020-06-19T11:53:58.746Z</time>
      </trkpt>
      <trkpt lat="47.23051" lon="0.01116">
        <ele>47.69093322754</ele>
        <time>2020-06-19T11:54:09.632Z</time>
      </trkpt>
      <trkpt lat="47.23037" lon="0.01155">
        <ele>48.18998336792</ele>
        <time>2020-06-19T11:54:20.523Z</time>
      </trkpt>
      <trkpt lat="47.2303" lon="0.01168">
        <ele>48.72193908691</ele>
        <time>2020-06-19T11:54:31.416Z</time>
      </trkpt>
      <trkpt lat="47.23022" lon="0.01179">
        <ele>49.8137550354</ele>
        <time>2020-06-19T11:54:42.311Z</time>
      </trkpt>
      <trkpt lat="47.23012" lon="0.01204">
        <ele>50.23368835449</ele>
        <time>2020-06-19T11:54:53.209Z</time>
      </trkpt>
      <trkpt lat="47.23003" lon="0.0123">
        <ele>50.09402084351</ele>
        <time>2020-06-19T11:55:04.110Z</time>
      </trkpt>
      <trkpt lat="47.22994" lon="0.0125">
        <ele>48.6396484375</ele>
        <time>2020-06-19T11:55:15.013Z</time>
      </trkpt>
      <trkpt lat="47.22983" lon="0.01263">
        <ele>47.71580123901</ele>
        <time>2020-06-19T11:55:25.919Z</time>
      </trkpt>
      <trkpt lat="47.2297" lon="0.01275">
        <ele>48.31223297119</ele>
        <time>2020-06-19T11:55:36.827Z</time>
      </trkpt>
      <trkpt lat="47.22937" lon="0.01295">
        <ele>55.30631637573</ele>
        <time>2020-06-19T11:55:47.741Z</time>
      </trkpt>
      <trkpt lat="47.22917" lon="0.01315">
        <ele>57.24644851685</ele>
        <time>2020-06-19T11:55:58.659Z</time>
      </trkpt>
      <trkpt lat="47.22882" lon="0.01374">
        <ele>55.66991424561</ele>
        <time>2020-06-19T11:56:09.585Z</time>
      </trkpt>
      <trkpt lat="47.22865" lon="0.01403">
        <ele>54.69668960571</ele>
        <time>2020-06-19T11:56:20.515Z</time>
      </trkpt>
      <trkpt lat="47.22856" lon="0.01406">
        <ele>56.05015182495</ele>
        <time>2020-06-19T11:56:31.447Z</time>
      </trkpt>
      <trkpt lat="47.22854" lon="0.01404">
        <ele>56.62605667114</ele>
        <time>2020-06-19T11:56:42.379Z</time>
      </trkpt>
      <trkpt lat="47.22839" lon="0.01388">
        <ele>60.98133087158</ele>
        <time>2020-06-19T11:56:53.314Z</time>
      </trkpt>
      <trkpt lat="47.22828" lon="0.01374">
        <ele>63.9803237915</ele>
        <time>2020-06-19T11:57:04.252Z</time>
      </trkpt>
      <trkpt lat="47.22771" lon="0.01313">
        <ele>63.20045471191</ele>
        <time>2020-06-19T11:57:15.201Z</time>
      </trkpt>
      <trkpt lat="47.22686" lon="0.01222">
        <ele>63.58905029297</ele>
        <time>2020-06-19T11:57:26.167Z</time>
      </trkpt>
      <trkpt lat="47.22681" lon="0.01214">
        <ele>63.61304473877</ele>
        <time>2020-06-19T11:57:37.134Z</time>
      </trkpt>
      <trkpt lat="47.22681" lon="0.01214">
        <ele>63.61754989624</ele>
        <time>2020-06-19T11:57:48.101Z</time>
      </trkpt>
      <trkpt lat="47.22673" lon="0.01205">
        <ele>63.78213119507</ele>
        <time>2020-06-19T11:57:59.070Z</time>
      </trkpt>
      <trkpt lat="47.2265" lon="0.01184">
        <ele>64.44025421143</ele>
        <time>2020-06-19T11:58:10.043Z</time>
      </trkpt>
      <trkpt lat="47.22636" lon="0.01173">
        <ele>64.74020385742</ele>
        <time>2020-06-19T11:58:21.018Z</time>
      </trkpt>
      <trkpt lat="47.22597" lon="0.01137">
        <ele>65.64005279541</ele>
        <time>2020-06-19T11:58:32.001Z</time>
      </trkpt>
      <trkpt lat="47.22576" lon="0.01114">
        <ele>66.16796875</ele>
        <time>2020-06-19T11:58:42.988Z</time>
      </trkpt>
      <trkpt lat="47.22552" lon="0.01084">
        <ele>66.81585693359</ele>
        <time>2020-06-19T11:58:53.980Z</time>
      </trkpt>
      <trkpt lat="47.22531" lon="0.01059">
        <ele>67.36776733398</ele>
        <time>2020-06-19T11:59:04.976Z</time>
      </trkpt>
      <trkpt lat="47.225" lon="0.01032">
        <ele>67.70903778076</ele>
        <time>2020-06-19T11:59:15.978Z</time>
      </trkpt>
      <trkpt lat="47.22484" lon="0.01022">
        <ele>67.38621520996</ele>
        <time>2020-06-19T11:59:26.983Z</time>
      </trkpt>
      <trkpt lat="47.22464" lon="0.01002">
        <ele>66.66633605957</ele>
        <time>2020-06-19T11:59:37.992Z</time>
      </trkpt>
      <trkpt lat="47.22444" lon="0.0097">
        <ele>65.65132141113</ele>
        <time>2020-06-19T11:59:49.006Z</time>
      </trkpt>
      <trkpt lat="47.22444" lon="0.00969">
        <ele>65.63450622559</ele>
        <time>2020-06-19T12:00:00.020Z</time>
      </trkpt>
      <trkpt lat="47.22422" lon="0.00926">
        <ele>64.72872161865</ele>
        <time>2020-06-19T12:00:11.040Z</time>
      </trkpt>
      <trkpt lat="47.22398" lon="0.00881">
        <ele>63.05464935303</ele>
        <time>2020-06-19T12:00:22.066Z</time>
      </trkpt>
      <trkpt lat="47.2239" lon="0.00862">
        <ele>62.88224411011</ele>
        <time>2020-06-19T12:00:33.094Z</time>
      </trkpt>
      <trkpt lat="47.22374" lon="0.00872">
        <ele>61.37049865723</ele>
        <time>2020-06-19T12:00:44.125Z</time>
      </trkpt>
      <trkpt lat="47.22339" lon="0.00903">
        <ele>59.07131576538</ele>
        <time>2020-06-19T12:00:55.163Z</time>
      </trkpt>
      <trkpt lat="47.22314" lon="0.00935">
        <ele>57.6555519104</ele>
        <time>2020-06-19T12:01:06.206Z</time>
      </trkpt>
      <trkpt lat="47.223" lon="0.00956">
        <ele>56.26969146729</ele>
        <time>2020-06-19T12:01:17.252Z</time>
      </trkpt>
      <trkpt lat="47.22272" lon="0.00988">
        <ele>53.23307800293</ele>
        <time>2020-06-19T12:01:28.304Z</time>
      </trkpt>
      <trkpt lat="47.22243" lon="0.01016">
        <ele>50.94213867188</ele>
        <time>2020-06-19T12:01:39.361Z</time>
      </trkpt>
      <trkpt lat="47.22219" lon="0.01039">
        <ele>50.36623382568</ele>
        <time>2020-06-19T12:01:50.423Z</time>
      </trkpt>
      <trkpt lat="47.22242" lon="0.0108">
        <ele>50.00274276733</ele>
        <time>2020-06-19T12:02:01.491Z</time>
      </trkpt>
      <trkpt lat="47.22252" lon="0.01102">
        <ele>50.18909835815</ele>
        <time>2020-06-19T12:02:12.562Z</time>
      </trkpt>
      <trkpt lat="47.22273" lon="0.01147">
        <ele>49.55555343628</ele>
        <time>2020-06-19T12:02:23.638Z</time>
      </trkpt>
      <trkpt lat="47.22289" lon="0.01188">
        <ele>48.76949310303</ele>
        <time>2020-06-19T12:02:34.720Z</time>
      </trkpt>
      <trkpt lat="47.2231" lon="0.0124">
        <ele>47.64279937744</ele>
        <time>2020-06-19T12:02:45.808Z</time>
      </trkpt>
      <trkpt lat="47.22328" lon="0.01267">
        <ele>46.88692474365</ele>
        <time>2020-06-19T12:02:56.900Z</time>
      </trkpt>
      <trkpt lat="47.22338" lon="0.01279">
        <ele>46.68585586548</ele>
        <time>2020-06-19T12:03:07.994Z</time>
      </trkpt>
      <trkpt lat="47.22379" lon="0.01318">
        <ele>46.26592636108</ele>
        <time>2020-06-19T12:03:19.096Z</time>
      </trkpt>
      <trkpt lat="47.22444" lon="0.01381">
        <ele>47.01961517334</ele>
        <time>2020-06-19T12:03:30.211Z</time>
      </trkpt>
      <trkpt lat="47.22473" lon="0.01412">
        <ele>47.61951446533</ele>
        <time>2020-06-19T12:03:41.331Z</time>
      </trkpt>
      <trkpt lat="47.22492" lon="0.01435">
        <ele>47.88958358765</ele>
        <time>2020-06-19T12:03:52.455Z</time>
      </trkpt>
      <trkpt lat="47.22521" lon="0.0147">
        <ele>47.30029296875</ele>
        <time>2020-06-19T12:04:03.585Z</time>
      </trkpt>
      <trkpt lat="47.22558" lon="0.01512">
        <ele>44.98468017578</ele>
        <time>2020-06-19T12:04:14.723Z</time>
      </trkpt>
      <trkpt lat="47.22577" lon="0.01532">
        <ele>43.9648475647</ele>
        <time>2020-06-19T12:04:25.865Z</time>
      </trkpt>
      <trkpt lat="47.22591" lon="0.01541">
        <ele>43.1010055542</ele>
        <time>2020-06-19T12:04:37.009Z</time>
      </trkpt>
      <trkpt lat="47.22618" lon="0.01555">
        <ele>42.37300491333</ele>
        <time>2020-06-19T12:04:48.158Z</time>
      </trkpt>
      <trkpt lat="47.22655" lon="0.01577">
        <ele>41.31718063354</ele>
        <time>2020-06-19T12:04:59.313Z</time>
      </trkpt>
      <trkpt lat="47.22695" lon="0.01596">
        <ele>38.82867050171</ele>
        <time>2020-06-19T12:05:10.475Z</time>
      </trkpt>
      <trkpt lat="47.22718" lon="0.01608">
        <ele>37.14895248413</ele>
        <time>2020-06-19T12:05:21.641Z</time>
      </trkpt>
      <trkpt lat="47.22725" lon="0.01614">
        <ele>36.52505493164</ele>
        <time>2020-06-19T12:05:32.808Z</time>
      </trkpt>
      <trkpt lat="47.22745" lon="0.01635">
        <ele>34.79056167603</ele>
        <time>2020-06-19T12:05:43.979Z</time>
      </trkpt>
      <trkpt lat="47.22757" lon="0.01652">
        <ele>34.08280563354</ele>
        <time>2020-06-19T12:05:55.153Z</time>
      </trkpt>
      <trkpt lat="47.22781" lon="0.01694">
        <ele>32.49907302856</ele>
        <time>2020-06-19T12:06:06.333Z</time>
      </trkpt>
      <trkpt lat="47.22786" lon="0.01702">
        <ele>32.18712234497</ele>
        <time>2020-06-19T12:06:17.514Z</time>
      </trkpt>
      <trkpt lat="47.22764" lon="0.01744">
        <ele>32.94095230103</ele>
        <time>2020-06-19T12:06:28.701Z</time>
      </trkpt>
      <trkpt lat="47.2275" lon="0.01776">
        <ele>35.1005897522</ele>
        <time>2020-06-19T12:06:39.892Z</time>
      </trkpt>
      <trkpt lat="47.22746" lon="0.01793">
        <ele>35.92650604248</ele>
        <time>2020-06-19T12:06:51.085Z</time>
      </trkpt>
      <trkpt lat="47.22729" lon="0.01874">
        <ele>35.94757080078</ele>
        <time>2020-06-19T12:07:02.287Z</time>
      </trkpt>
      <trkpt lat="47.22712" lon="0.01926">
        <ele>39.7615737915</ele>
        <time>2020-06-19T12:07:13.495Z</time>
      </trkpt>
      <trkpt lat="47.22669" lon="0.02028">
        <ele>35.67445373535</ele>
        <time>2020-06-19T12:07:24.716Z</time>
      </trkpt>
      <trkpt lat="47.2265" lon="0.02074">
        <ele>35.63284301758</ele>
        <time>2020-06-19T12:07:35.943Z</time>
      </trkpt>
      <trkpt lat="47.22626" lon="0.02128">
        <ele>35.80654525757</ele>
        <time>2020-06-19T12:07:47.177Z</time>
      </trkpt>
      <trkpt lat="47.22594" lon="0.02185">
        <ele>37.38616943359</ele>
        <time>2020-06-19T12:07:58.419Z</time>
      </trkpt>
      <trkpt lat="47.22565" lon="0.02254">
        <ele>35.93877410889</ele>
        <time>2020-06-19T12:08:09.670Z</time>
      </trkpt>
      <trkpt lat="47.22554" lon="0.0228">
        <ele>36.17864608765</ele>
        <time>2020-06-19T12:08:20.924Z</time>
      </trkpt>
      <trkpt lat="47.22545" lon="0.023">
        <ele>36.67749023438</ele>
        <time>2020-06-19T12:08:32.181Z</time>
      </trkpt>
      <trkpt lat="47.22539" lon="0.02318">
        <ele>37.68532180786</ele>
        <time>2020-06-19T12:08:43.440Z</time>
      </trkpt>
      <trkpt lat="47.22535" lon="0.02329">
        <ele>38.35720825195</ele>
        <time>2020-06-19T12:08:54.701Z</time>
      </trkpt>
      <trkpt lat="47.22532" lon="0.02331">
        <ele>38.8037109375</ele>
        <time>2020-06-19T12:09:05.962Z</time>
      </trkpt>
      <trkpt lat="47.2253" lon="0.02334">
        <ele>39.0196762085</ele>
        <time>2020-06-19T12:09:17.224Z</time>
      </trkpt>
      <trkpt lat="47.22517" lon="0.02374">
        <ele>39.93152236938</ele>
        <time>2020-06-19T12:09:28.490Z</time>
      </trkpt>
      <trkpt lat="47.2251" lon="0.02393">
        <ele>40.68634796143</ele>
        <time>2020-06-19T12:09:39.759Z</time>
      </trkpt>
      <trkpt lat="47.22505" lon="0.02402">
        <ele>40.39839553833</ele>
        <time>2020-06-19T12:09:51.029Z</time>
      </trkpt>
      <trkpt lat="47.22495" lon="0.0244">
        <ele>38.45338821411</ele>
        <time>2020-06-19T12:10:02.303Z</time>
      </trkpt>
      <trkpt lat="47.22483" lon="0.02478">
        <ele>39.3634262085</ele>
        <time>2020-06-19T12:10:13.582Z</time>
      </trkpt>
      <trkpt lat="47.22466" lon="0.0252">
        <ele>41.57042694092</ele>
        <time>2020-06-19T12:10:24.866Z</time>
      </trkpt>
      <trkpt lat="47.22448" lon="0.02567">
        <ele>43.51875305176</ele>
        <time>2020-06-19T12:10:36.156Z</time>
      </trkpt>
      <trkpt lat="47.22447" lon="0.0257">
        <ele>43.76736068726</ele>
        <time>2020-06-19T12:10:47.447Z</time>
      </trkpt>
      <trkpt lat="47.22436" lon="0.02598">
        <ele>43.57847595215</ele>
        <time>2020-06-19T12:10:58.741Z</time>
      </trkpt>
      <trkpt lat="47.22433" lon="0.0262">
        <ele>42.19870758057</ele>
        <time>2020-06-19T12:11:10.038Z</time>
      </trkpt>
      <trkpt lat="47.22427" lon="0.02666">
        <ele>39.85687255859</ele>
        <time>2020-06-19T12:11:21.340Z</time>
      </trkpt>
      <trkpt lat="47.22421" lon="0.0269">
        <ele>38.05717086792</ele>
        <time>2020-06-19T12:11:32.644Z</time>
      </trkpt>
      <trkpt lat="47.22412" lon="0.02713">
        <ele>36.76179122925</ele>
        <time>2020-06-19T12:11:43.951Z</time>
      </trkpt>
      <trkpt lat="47.22398" lon="0.02751">
        <ele>36.32986450195</ele>
        <time>2020-06-19T12:11:55.263Z</time>
      </trkpt>
      <trkpt lat="47.22386" lon="0.02765">
        <ele>37.07373809814</ele>
        <time>2020-06-19T12:12:06.577Z</time>
      </trkpt>
      <trkpt lat="47.22377" lon="0.02772">
        <ele>36.76452255249</ele>
        <time>2020-06-19T12:12:17.893Z</time>
      </trkpt>
      <trkpt lat="47.2236" lon="0.0278">
        <ele>36.72853088379</ele>
        <time>2020-06-19T12:12:29.212Z</time>
      </trkpt>
      <trkpt lat="47.22352" lon="0.02786">
        <ele>36.4165802002</ele>
        <time>2020-06-19T12:12:40.532Z</time>
      </trkpt>
      <trkpt lat="47.22347" lon="0.02795">
        <ele>35.9056930542</ele>
        <time>2020-06-19T12:12:51.854Z</time>
      </trkpt>
      <trkpt lat="47.22341" lon="0.02805">
        <ele>36.24350357056</ele>
        <time>2020-06-19T12:13:03.177Z</time>
      </trkpt>
      <trkpt lat="47.2234" lon="0.02805">
        <ele>36.26740264893</ele>
        <time>2020-06-19T12:13:14.500Z</time>
      </trkpt>
      <trkpt lat="47.22325" lon="0.02805">
        <ele>36.5372505188</ele>
        <time>2020-06-19T12:13:25.826Z</time>
      </trkpt>
      <trkpt lat="47.22322" lon="0.02804">
        <ele>36.5732460022</ele>
        <time>2020-06-19T12:13:37.152Z</time>
      </trkpt>
      <trkpt lat="47.22319" lon="0.02808">
        <ele>36.4292678833</ele>
        <time>2020-06-19T12:13:48.479Z</time>
      </trkpt>
      <trkpt lat="47.22317" lon="0.02816">
        <ele>36.14131546021</ele>
        <time>2020-06-19T12:13:59.807Z</time>
      </trkpt>
      <trkpt lat="47.22314" lon="0.02829">
        <ele>35.67339706421</ele>
        <time>2020-06-19T12:14:11.136Z</time>
      </trkpt>
      <trkpt lat="47.22305" lon="0.02869">
        <ele>35.4766960144</ele>
        <time>2020-06-19T12:14:22.470Z</time>
      </trkpt>
      <trkpt lat="47.223" lon="0.02885">
        <ele>36.29845046997</ele>
        <time>2020-06-19T12:14:33.806Z</time>
      </trkpt>
      <trkpt lat="47.22307" lon="0.02887">
        <ele>35.84252548218</ele>
        <time>2020-06-19T12:14:45.143Z</time>
      </trkpt>
      <trkpt lat="47.22383" lon="0.0292">
        <ele>32.69842147827</ele>
        <time>2020-06-19T12:14:56.493Z</time>
      </trkpt>
      <trkpt lat="47.22411" lon="0.02931">
        <ele>32.02491378784</ele>
        <time>2020-06-19T12:15:07.847Z</time>
      </trkpt>
      <trkpt lat="47.22448" lon="0.02945">
        <ele>31.56934165955</ele>
        <time>2020-06-19T12:15:19.207Z</time>
      </trkpt>
      <trkpt lat="47.22484" lon="0.0296">
        <ele>31.15135192871</ele>
        <time>2020-06-19T12:15:30.573Z</time>
      </trkpt>
      <trkpt lat="47.22494" lon="0.02961">
        <ele>31.04337120056</ele>
        <time>2020-06-19T12:15:41.941Z</time>
      </trkpt>
      <trkpt lat="47.22512" lon="0.02962">
        <ele>30.60293769836</ele>
        <time>2020-06-19T12:15:53.312Z</time>
      </trkpt>
      <trkpt lat="47.22518" lon="0.02958">
        <ele>30.44890594482</ele>
        <time>2020-06-19T12:16:04.684Z</time>
      </trkpt>
      <trkpt lat="47.22525" lon="0.02956">
        <ele>30.25693702698</ele>
        <time>2020-06-19T12:16:16.057Z</time>
      </trkpt>
      <trkpt lat="47.22532" lon="0.02959">
        <ele>30.12301826477</ele>
        <time>2020-06-19T12:16:27.431Z</time>
      </trkpt>
      <trkpt lat="47.22536" lon="0.02967">
        <ele>30.02703475952</ele>
        <time>2020-06-19T12:16:38.806Z</time>
      </trkpt>
      <trkpt lat="47.22538" lon="0.02971">
        <ele>29.97904205322</ele>
        <time>2020-06-19T12:16:50.182Z</time>
      </trkpt>
      <trkpt lat="47.22543" lon="0.0298">
        <ele>29.85906219482</ele>
        <time>2020-06-19T12:17:01.559Z</time>
      </trkpt>
      <trkpt lat="47.22553" lon="0.02989">
        <ele>29.61910247803</ele>
        <time>2020-06-19T12:17:12.938Z</time>
      </trkpt>
      <trkpt lat="47.22566" lon="0.02994">
        <ele>29.30715370178</ele>
        <time>2020-06-19T12:17:24.319Z</time>
      </trkpt>
      <trkpt lat="47.22604" lon="0.03007">
        <ele>29.30234718323</ele>
        <time>2020-06-19T12:17:35.706Z</time>
      </trkpt>
      <trkpt lat="47.2264" lon="0.03017">
        <ele>29.77072525024</ele>
        <time>2020-06-19T12:17:47.099Z</time>
      </trkpt>
      <trkpt lat="47.22661" lon="0.0302">
        <ele>30.23864746094</ele>
        <time>2020-06-19T12:17:58.496Z</time>
      </trkpt>
      <trkpt lat="47.22677" lon="0.03025">
        <ele>30.03748703003</ele>
        <time>2020-06-19T12:18:09.895Z</time>
      </trkpt>
      <trkpt lat="47.22703" lon="0.03032">
        <ele>29.63205528259</ele>
        <time>2020-06-19T12:18:21.298Z</time>
      </trkpt>
      <trkpt lat="47.22713" lon="0.03034">
        <ele>29.48807907104</ele>
        <time>2020-06-19T12:18:32.703Z</time>
      </trkpt>
      <trkpt lat="47.2278" lon="0.03051">
        <ele>30.85846138</ele>
        <time>2020-06-19T12:18:44.119Z</time>
      </trkpt>
      <trkpt lat="47.22807" lon="0.03057">
        <ele>32.33421325684</ele>
        <time>2020-06-19T12:18:55.539Z</time>
      </trkpt>
      <trkpt lat="47.22824" lon="0.03063">
        <ele>33.21006774902</ele>
        <time>2020-06-19T12:19:06.962Z</time>
      </trkpt>
      <trkpt lat="47.22844" lon="0.03073">
        <ele>32.35123825073</ele>
        <time>2020-06-19T12:19:18.389Z</time>
      </trkpt>
      <trkpt lat="47.22892" lon="0.03104">
        <ele>28.77619934082</ele>
        <time>2020-06-19T12:19:29.824Z</time>
      </trkpt>
      <trkpt lat="47.2292" lon="0.03127">
        <ele>27</ele>
        <time>2020-06-19T12:19:41.264Z</time>
      </trkpt>
      <trkpt lat="47.2291" lon="0.03163">
        <ele>27.13132476807</ele>
        <time>2020-06-19T12:19:52.708Z</time>
      </trkpt>
      <trkpt lat="47.22901" lon="0.03188">
        <ele>27.67123413086</ele>
        <time>2020-06-19T12:20:04.155Z</time>
      </trkpt>
      <trkpt lat="47.22888" lon="0.03211">
        <ele>28.45110321045</ele>
        <time>2020-06-19T12:20:15.606Z</time>
      </trkpt>
      <trkpt lat="47.22876" lon="0.03225">
        <ele>29.17098426819</ele>
        <time>2020-06-19T12:20:27.059Z</time>
      </trkpt>
      <trkpt lat="47.22868" lon="0.03231">
        <ele>29.65090370178</ele>
        <time>2020-06-19T12:20:38.514Z</time>
      </trkpt>
      <trkpt lat="47.22843" lon="0.03242">
        <ele>30.01312065125</ele>
        <time>2020-06-19T12:20:49.973Z</time>
      </trkpt>
      <trkpt lat="47.22831" lon="0.03249">
        <ele>29.59319114685</ele>
        <time>2020-06-19T12:21:01.434Z</time>
      </trkpt>
      <trkpt lat="47.22809" lon="0.03286">
        <ele>27.62554931641</ele>
        <time>2020-06-19T12:21:12.900Z</time>
      </trkpt>
      <trkpt lat="47.22806" lon="0.03292">
        <ele>27.56274223328</ele>
        <time>2020-06-19T12:21:24.367Z</time>
      </trkpt>
      <trkpt lat="47.22782" lon="0.03333">
        <ele>28.12401771545</ele>
        <time>2020-06-19T12:21:35.840Z</time>
      </trkpt>
      <trkpt lat="47.22775" lon="0.03347">
        <ele>28.29199028015</ele>
        <time>2020-06-19T12:21:47.315Z</time>
      </trkpt>
      <trkpt lat="47.22728" lon="0.03459">
        <ele>27.83960342407</ele>
        <time>2020-06-19T12:21:58.804Z</time>
      </trkpt>
      <trkpt lat="47.22697" lon="0.03549">
        <ele>28.74551582336</ele>
        <time>2020-06-19T12:22:10.304Z</time>
      </trkpt>
      <trkpt lat="47.22676" lon="0.03611">
        <ele>30.81826019287</ele>
        <time>2020-06-19T12:22:21.812Z</time>
      </trkpt>
      <trkpt lat="47.22671" lon="0.0363">
        <ele>31.46893501282</ele>
        <time>2020-06-19T12:22:33.322Z</time>
      </trkpt>
      <trkpt lat="47.22654" lon="0.03719">
        <ele>31.39789009094</ele>
        <time>2020-06-19T12:22:44.842Z</time>
      </trkpt>
      <trkpt lat="47.22642" lon="0.03772">
        <ele>28.21842002869</ele>
        <time>2020-06-19T12:22:56.368Z</time>
      </trkpt>
      <trkpt lat="47.22642" lon="0.03772">
        <ele>28.21096038818</ele>
        <time>2020-06-19T12:23:07.894Z</time>
      </trkpt>
      <trkpt lat="47.22628" lon="0.03822">
        <ele>28.63880348206</ele>
        <time>2020-06-19T12:23:19.426Z</time>
      </trkpt>
      <trkpt lat="47.22618" lon="0.0386">
        <ele>27.75144004822</ele>
        <time>2020-06-19T12:23:30.962Z</time>
      </trkpt>
      <trkpt lat="47.226" lon="0.03929">
        <ele>27.77129364014</ele>
        <time>2020-06-19T12:23:42.506Z</time>
      </trkpt>
      <trkpt lat="47.22575" lon="0.03989">
        <ele>28.37142562866</ele>
        <time>2020-06-19T12:23:54.058Z</time>
      </trkpt>
      <trkpt lat="47.2257" lon="0.04001">
        <ele>28.20345306396</ele>
        <time>2020-06-19T12:24:05.612Z</time>
      </trkpt>
      <trkpt lat="47.22565" lon="0.04009">
        <ele>28.13146591187</ele>
        <time>2020-06-19T12:24:17.167Z</time>
      </trkpt>
      <trkpt lat="47.22562" lon="0.04022">
        <ele>27.89150619507</ele>
        <time>2020-06-19T12:24:28.723Z</time>
      </trkpt>
      <trkpt lat="47.22553" lon="0.04044">
        <ele>28.23820304871</ele>
        <time>2020-06-19T12:24:40.282Z</time>
      </trkpt>
      <trkpt lat="47.22538" lon="0.04072">
        <ele>28.95808410645</ele>
        <time>2020-06-19T12:24:51.845Z</time>
      </trkpt>
      <trkpt lat="47.22525" lon="0.04095">
        <ele>29.02764892578</ele>
        <time>2020-06-19T12:25:03.411Z</time>
      </trkpt>
      <trkpt lat="47.22514" lon="0.0411">
        <ele>28.93166542053</ele>
        <time>2020-06-19T12:25:14.980Z</time>
      </trkpt>
      <trkpt lat="47.22479" lon="0.04183">
        <ele>28.2172203064</ele>
        <time>2020-06-19T12:25:26.558Z</time>
      </trkpt>
      <trkpt lat="47.22463" lon="0.04209">
        <ele>28.55804252625</ele>
        <time>2020-06-19T12:25:38.140Z</time>
      </trkpt>
      <trkpt lat="47.22429" lon="0.04259">
        <ele>30.18921089172</ele>
        <time>2020-06-19T12:25:49.730Z</time>
      </trkpt>
      <trkpt lat="47.22421" lon="0.04271">
        <ele>30.57314682007</ele>
        <time>2020-06-19T12:26:01.322Z</time>
      </trkpt>
      <trkpt lat="47.22413" lon="0.04294">
        <ele>30.92291259766</ele>
        <time>2020-06-19T12:26:12.917Z</time>
      </trkpt>
      <trkpt lat="47.224" lon="0.04342">
        <ele>28.89519500732</ele>
        <time>2020-06-19T12:26:24.517Z</time>
      </trkpt>
      <trkpt lat="47.22399" lon="0.04346">
        <ele>28.74181365967</ele>
        <time>2020-06-19T12:26:36.118Z</time>
      </trkpt>
      <trkpt lat="47.22395" lon="0.04396">
        <ele>28.6418800354</ele>
        <time>2020-06-19T12:26:47.724Z</time>
      </trkpt>
      <trkpt lat="47.22393" lon="0.04422">
        <ele>28.8338470459</ele>
        <time>2020-06-19T12:26:59.333Z</time>
      </trkpt>
      <trkpt lat="47.22366" lon="0.04506">
        <ele>30.08701133728</ele>
        <time>2020-06-19T12:27:10.952Z</time>
      </trkpt>
      <trkpt lat="47.22356" lon="0.04524">
        <ele>30.13500404358</ele>
        <time>2020-06-19T12:27:22.574Z</time>
      </trkpt>
      <trkpt lat="47.2235" lon="0.04553">
        <ele>29.98057937622</ele>
        <time>2020-06-19T12:27:34.199Z</time>
      </trkpt>
      <trkpt lat="47.22343" lon="0.04567">
        <ele>29.82109451294</ele>
        <time>2020-06-19T12:27:45.826Z</time>
      </trkpt>
      <trkpt lat="47.22312" lon="0.04605">
        <ele>28.60060691833</ele>
        <time>2020-06-19T12:27:57.459Z</time>
      </trkpt>
      <trkpt lat="47.22294" lon="0.04624">
        <ele>29.12794113159</ele>
        <time>2020-06-19T12:28:09.096Z</time>
      </trkpt>
      <trkpt lat="47.22284" lon="0.0464">
        <ele>29.6850643158</ele>
        <time>2020-06-19T12:28:20.735Z</time>
      </trkpt>
      <trkpt lat="47.22271" lon="0.04658">
        <ele>30.22634124756</ele>
        <time>2020-06-19T12:28:32.377Z</time>
      </trkpt>
      <trkpt lat="47.22258" lon="0.0469">
        <ele>29.38648223877</ele>
        <time>2020-06-19T12:28:44.023Z</time>
      </trkpt>
      <trkpt lat="47.22253" lon="0.04695">
        <ele>29.32649230957</ele>
        <time>2020-06-19T12:28:55.670Z</time>
      </trkpt>
      <trkpt lat="47.22223" lon="0.04742">
        <ele>28.75929832458</ele>
        <time>2020-06-19T12:29:07.324Z</time>
      </trkpt>
      <trkpt lat="47.22196" lon="0.04783">
        <ele>27.45482254028</ele>
        <time>2020-06-19T12:29:18.984Z</time>
      </trkpt>
      <trkpt lat="47.22173" lon="0.04813">
        <ele>27</ele>
        <time>2020-06-19T12:29:30.649Z</time>
      </trkpt>
      <trkpt lat="47.22161" lon="0.04826">
        <ele>27.08936882019</ele>
        <time>2020-06-19T12:29:42.317Z</time>
      </trkpt>
      <trkpt lat="47.22148" lon="0.04835">
        <ele>28.18118667603</ele>
        <time>2020-06-19T12:29:53.987Z</time>
      </trkpt>
      <trkpt lat="47.22135" lon="0.04853">
        <ele>29.12039756775</ele>
        <time>2020-06-19T12:30:05.660Z</time>
      </trkpt>
      <trkpt lat="47.22116" lon="0.04875">
        <ele>29.24037742615</ele>
        <time>2020-06-19T12:30:17.337Z</time>
      </trkpt>
      <trkpt lat="47.221" lon="0.04893">
        <ele>29.97858047485</ele>
        <time>2020-06-19T12:30:29.017Z</time>
      </trkpt>
      <trkpt lat="47.22069" lon="0.04925">
        <ele>28.98970794678</ele>
        <time>2020-06-19T12:30:40.703Z</time>
      </trkpt>
      <trkpt lat="47.22061" lon="0.04934">
        <ele>28.84573173523</ele>
        <time>2020-06-19T12:30:52.391Z</time>
      </trkpt>
      <trkpt lat="47.22048" lon="0.04944">
        <ele>29.20676040649</ele>
        <time>2020-06-19T12:31:04.081Z</time>
      </trkpt>
      <trkpt lat="47.2203" lon="0.04958">
        <ele>29.95063591003</ele>
        <time>2020-06-19T12:31:15.774Z</time>
      </trkpt>
      <trkpt lat="47.22018" lon="0.04974">
        <ele>30.64240455627</ele>
        <time>2020-06-19T12:31:27.470Z</time>
      </trkpt>
      <trkpt lat="47.22002" lon="0.05002">
        <ele>29.43071937561</ele>
        <time>2020-06-19T12:31:39.170Z</time>
      </trkpt>
      <trkpt lat="47.21988" lon="0.05032">
        <ele>27.71944046021</ele>
        <time>2020-06-19T12:31:50.874Z</time>
      </trkpt>
      <trkpt lat="47.21983" lon="0.05048">
        <ele>27.76610183716</ele>
        <time>2020-06-19T12:32:02.580Z</time>
      </trkpt>
      <trkpt lat="47.21979" lon="0.05059">
        <ele>27.98201560974</ele>
        <time>2020-06-19T12:32:14.287Z</time>
      </trkpt>
      <trkpt lat="47.21965" lon="0.05087">
        <ele>28.82187461853</ele>
        <time>2020-06-19T12:32:25.998Z</time>
      </trkpt>
      <trkpt lat="47.21961" lon="0.05096">
        <ele>29.00779914856</ele>
        <time>2020-06-19T12:32:37.710Z</time>
      </trkpt>
      <trkpt lat="47.21946" lon="0.05128">
        <ele>29.369348526</ele>
        <time>2020-06-19T12:32:49.426Z</time>
      </trkpt>
      <trkpt lat="47.2194" lon="0.05138">
        <ele>29.6573009491</ele>
        <time>2020-06-19T12:33:01.144Z</time>
      </trkpt>
      <trkpt lat="47.21934" lon="0.05139">
        <ele>29.94525146484</ele>
        <time>2020-06-19T12:33:12.863Z</time>
      </trkpt>
      <trkpt lat="47.21923" lon="0.05129">
        <ele>30.47316360474</ele>
        <time>2020-06-19T12:33:24.584Z</time>
      </trkpt>
      <trkpt lat="47.21913" lon="0.05119">
        <ele>31.03546142578</ele>
        <time>2020-06-19T12:33:36.307Z</time>
      </trkpt>
      <trkpt lat="47.21899" lon="0.05088">
        <ele>33.95420455933</ele>
        <time>2020-06-19T12:33:48.034Z</time>
      </trkpt>
      <trkpt lat="47.21886" lon="0.0506">
        <ele>36.78573226929</ele>
        <time>2020-06-19T12:33:59.764Z</time>
      </trkpt>
      <trkpt lat="47.2188" lon="0.05053">
        <ele>38.02152633667</ele>
        <time>2020-06-19T12:34:11.496Z</time>
      </trkpt>
      <trkpt lat="47.21872" lon="0.05052">
        <ele>39.58069229126</ele>
        <time>2020-06-19T12:34:23.229Z</time>
      </trkpt>
      <trkpt lat="47.21869" lon="0.05052">
        <ele>40.14517211914</ele>
        <time>2020-06-19T12:34:34.962Z</time>
      </trkpt>
      <trkpt lat="47.21863" lon="0.05072">
        <ele>41.05702209473</ele>
        <time>2020-06-19T12:34:46.698Z</time>
      </trkpt>
      <trkpt lat="47.21855" lon="0.05099">
        <ele>39.01246261597</ele>
        <time>2020-06-19T12:34:58.437Z</time>
      </trkpt>
      <trkpt lat="47.2178" lon="0.05339">
        <ele>34.73001098633</ele>
        <time>2020-06-19T12:35:10.205Z</time>
      </trkpt>
      <trkpt lat="47.21764" lon="0.0539">
        <ele>32.0404624939</ele>
        <time>2020-06-19T12:35:21.979Z</time>
      </trkpt>
      <trkpt lat="47.21719" lon="0.05532">
        <ele>33</ele>
        <time>2020-06-19T12:35:33.770Z</time>
      </trkpt>
      <trkpt lat="47.21706" lon="0.05571">
        <ele>30.92733192444</ele>
        <time>2020-06-19T12:35:45.566Z</time>
      </trkpt>
      <trkpt lat="47.21702" lon="0.05583">
        <ele>30.11909484863</ele>
        <time>2020-06-19T12:35:57.363Z</time>
      </trkpt>
      <trkpt lat="47.21712" lon="0.05591">
        <ele>29.53652763367</ele>
        <time>2020-06-19T12:36:09.162Z</time>
      </trkpt>
      <trkpt lat="47.21728" lon="0.05604">
        <ele>28.57992935181</ele>
        <time>2020-06-19T12:36:20.964Z</time>
      </trkpt>
      <trkpt lat="47.21727" lon="0.05615">
        <ele>28.31874656677</ele>
        <time>2020-06-19T12:36:32.767Z</time>
      </trkpt>
      <trkpt lat="47.21725" lon="0.05633">
        <ele>28.46556663513</ele>
        <time>2020-06-19T12:36:44.572Z</time>
      </trkpt>
      <trkpt lat="47.21717" lon="0.0567">
        <ele>29.04262161255</ele>
        <time>2020-06-19T12:36:56.381Z</time>
      </trkpt>
      <trkpt lat="47.21717" lon="0.05671">
        <ele>29.03946685791</ele>
        <time>2020-06-19T12:37:08.191Z</time>
      </trkpt>
      <trkpt lat="47.21717" lon="0.05671">
        <ele>29.0392742157</ele>
        <time>2020-06-19T12:37:20.001Z</time>
      </trkpt>
      <trkpt lat="47.21691" lon="0.05714">
        <ele>29.60730934143</ele>
        <time>2020-06-19T12:37:31.817Z</time>
      </trkpt>
      <trkpt lat="47.21683" lon="0.05731">
        <ele>29.99124526978</ele>
        <time>2020-06-19T12:37:43.635Z</time>
      </trkpt>
      <trkpt lat="47.21679" lon="0.05757">
        <ele>30.18321228027</ele>
        <time>2020-06-19T12:37:55.456Z</time>
      </trkpt>
      <trkpt lat="47.21669" lon="0.05819">
        <ele>29.96711540222</ele>
        <time>2020-06-19T12:38:07.284Z</time>
      </trkpt>
      <trkpt lat="47.21665" lon="0.05822">
        <ele>29.90712547302</ele>
        <time>2020-06-19T12:38:19.113Z</time>
      </trkpt>
      <trkpt lat="47.21662" lon="0.05826">
        <ele>29.79914283752</ele>
        <time>2020-06-19T12:38:30.942Z</time>
      </trkpt>
      <trkpt lat="47.21656" lon="0.0586">
        <ele>29.72369384766</ele>
        <time>2020-06-19T12:38:42.775Z</time>
      </trkpt>
      <trkpt lat="47.21649" lon="0.05859">
        <ele>31.10346412659</ele>
        <time>2020-06-19T12:38:54.609Z</time>
      </trkpt>
      <trkpt lat="47.21643" lon="0.05909">
        <ele>31.93085098267</ele>
        <time>2020-06-19T12:39:06.449Z</time>
      </trkpt>
      <trkpt lat="47.21638" lon="0.05947">
        <ele>32.3391494751</ele>
        <time>2020-06-19T12:39:18.293Z</time>
      </trkpt>
      <trkpt lat="47.21638" lon="0.05947">
        <ele>32.33536148071</ele>
        <time>2020-06-19T12:39:30.137Z</time>
      </trkpt>
      <trkpt lat="47.21631" lon="0.05952">
        <ele>33.583152771</ele>
        <time>2020-06-19T12:39:41.982Z</time>
      </trkpt>
      <trkpt lat="47.21626" lon="0.05954">
        <ele>34.53099441528</ele>
        <time>2020-06-19T12:39:53.828Z</time>
      </trkpt>
      <trkpt lat="47.21612" lon="0.05979">
        <ele>37.19437789917</ele>
        <time>2020-06-19T12:40:05.678Z</time>
      </trkpt>
      <trkpt lat="47.2161" lon="0.05983">
        <ele>37.60231018066</ele>
        <time>2020-06-19T12:40:17.528Z</time>
      </trkpt>
      <trkpt lat="47.21602" lon="0.06004">
        <ele>38.46752929688</ele>
        <time>2020-06-19T12:40:29.381Z</time>
      </trkpt>
      <trkpt lat="47.216" lon="0.06023">
        <ele>38.11959075928</ele>
        <time>2020-06-19T12:40:41.236Z</time>
      </trkpt>
      <trkpt lat="47.21596" lon="0.06033">
        <ele>38.43153762817</ele>
        <time>2020-06-19T12:40:53.092Z</time>
      </trkpt>
      <trkpt lat="47.2159" lon="0.06038">
        <ele>39.25939941406</ele>
        <time>2020-06-19T12:41:04.949Z</time>
      </trkpt>
      <trkpt lat="47.21562" lon="0.06088">
        <ele>44.10358428955</ele>
        <time>2020-06-19T12:41:16.813Z</time>
      </trkpt>
      <trkpt lat="47.21538" lon="0.06131">
        <ele>46.25321960449</ele>
        <time>2020-06-19T12:41:28.683Z</time>
      </trkpt>
      <trkpt lat="47.21506" lon="0.06181">
        <ele>48.71992111206</ele>
        <time>2020-06-19T12:41:40.561Z</time>
      </trkpt>
      <trkpt lat="47.21493" lon="0.06202">
        <ele>49.10731506348</ele>
        <time>2020-06-19T12:41:52.442Z</time>
      </trkpt>
      <trkpt lat="47.21486" lon="0.06221">
        <ele>50.06092453003</ele>
        <time>2020-06-19T12:42:04.325Z</time>
      </trkpt>
      <trkpt lat="47.21485" lon="0.06228">
        <ele>50.14491271973</ele>
        <time>2020-06-19T12:42:16.209Z</time>
      </trkpt>
      <trkpt lat="47.21482" lon="0.06318">
        <ele>47.35324478149</ele>
        <time>2020-06-19T12:42:28.103Z</time>
      </trkpt>
      <trkpt lat="47.2149" lon="0.06362">
        <ele>42.98596954346</ele>
        <time>2020-06-19T12:42:40.002Z</time>
      </trkpt>
      <trkpt lat="47.21492" lon="0.06378">
        <ele>41.48545837402</ele>
        <time>2020-06-19T12:42:51.903Z</time>
      </trkpt>
      <trkpt lat="47.21488" lon="0.06418">
        <ele>38.46196365356</ele>
        <time>2020-06-19T12:43:03.808Z</time>
      </trkpt>
      <trkpt lat="47.21475" lon="0.06478">
        <ele>34.21946716309</ele>
        <time>2020-06-19T12:43:15.720Z</time>
      </trkpt>
      <trkpt lat="47.21459" lon="0.06517">
        <ele>31.54970169067</ele>
        <time>2020-06-19T12:43:27.637Z</time>
      </trkpt>
      <trkpt lat="47.21442" lon="0.06571">
        <ele>30.5219669342</ele>
        <time>2020-06-19T12:43:39.560Z</time>
      </trkpt>
      <trkpt lat="47.21436" lon="0.06591">
        <ele>30.79977035522</ele>
        <time>2020-06-19T12:43:51.486Z</time>
      </trkpt>
      <trkpt lat="47.21428" lon="0.06625">
        <ele>30.72778320312</ele>
        <time>2020-06-19T12:44:03.416Z</time>
      </trkpt>
      <trkpt lat="47.2142" lon="0.06656">
        <ele>32.41971206665</ele>
        <time>2020-06-19T12:44:15.349Z</time>
      </trkpt>
      <trkpt lat="47.21423" lon="0.06674">
        <ele>32.20374679565</ele>
        <time>2020-06-19T12:44:27.284Z</time>
      </trkpt>
      <trkpt lat="47.21424" lon="0.06693">
        <ele>32.13175964355</ele>
        <time>2020-06-19T12:44:39.221Z</time>
      </trkpt>
      <trkpt lat="47.21421" lon="0.06722">
        <ele>32.09749984741</ele>
        <time>2020-06-19T12:44:51.162Z</time>
      </trkpt>
      <trkpt lat="47.21421" lon="0.06753">
        <ele>29.86587142944</ele>
        <time>2020-06-19T12:45:03.106Z</time>
      </trkpt>
      <trkpt lat="47.2142" lon="0.06754">
        <ele>29.79388237</ele>
        <time>2020-06-19T12:45:15.050Z</time>
      </trkpt>
      <trkpt lat="47.21419" lon="0.06756">
        <ele>29.64990615845</ele>
        <time>2020-06-19T12:45:26.994Z</time>
      </trkpt>
      <trkpt lat="47.21419" lon="0.06758">
        <ele>29.5059299469</ele>
        <time>2020-06-19T12:45:38.939Z</time>
      </trkpt>
      <trkpt lat="47.21418" lon="0.06763">
        <ele>29.1459903717</ele>
        <time>2020-06-19T12:45:50.884Z</time>
      </trkpt>
      <trkpt lat="47.2142" lon="0.06767">
        <ele>28.85803794861</ele>
        <time>2020-06-19T12:46:02.830Z</time>
      </trkpt>
      <trkpt lat="47.21422" lon="0.0677">
        <ele>28.64207458496</ele>
        <time>2020-06-19T12:46:14.776Z</time>
      </trkpt>
      <trkpt lat="47.21394" lon="0.06872">
        <ele>32.00024795532</ele>
        <time>2020-06-19T12:46:26.734Z</time>
      </trkpt>
      <trkpt lat="47.2136" lon="0.06943">
        <ele>37.50653839111</ele>
        <time>2020-06-19T12:46:38.702Z</time>
      </trkpt>
      <trkpt lat="47.21347" lon="0.06969">
        <ele>37.94807434082</ele>
        <time>2020-06-19T12:46:50.673Z</time>
      </trkpt>
      <trkpt lat="47.21323" lon="0.07016">
        <ele>32.85222244263</ele>
        <time>2020-06-19T12:47:02.651Z</time>
      </trkpt>
      <trkpt lat="47.21276" lon="0.07116">
        <ele>37.32155609131</ele>
        <time>2020-06-19T12:47:14.642Z</time>
      </trkpt>
      <trkpt lat="47.21257" lon="0.07155">
        <ele>38.45281600952</ele>
        <time>2020-06-19T12:47:26.638Z</time>
      </trkpt>
      <trkpt lat="47.21237" lon="0.07198">
        <ele>37.25569534302</ele>
        <time>2020-06-19T12:47:38.640Z</time>
      </trkpt>
      <trkpt lat="47.21204" lon="0.07289">
        <ele>37.68726348877</ele>
        <time>2020-06-19T12:47:50.653Z</time>
      </trkpt>
      <trkpt lat="47.2117" lon="0.07376">
        <ele>38.74199295044</ele>
        <time>2020-06-19T12:48:02.677Z</time>
      </trkpt>
      <trkpt lat="47.21152" lon="0.07422">
        <ele>38.87267684937</ele>
        <time>2020-06-19T12:48:14.707Z</time>
      </trkpt>
      <trkpt lat="47.21135" lon="0.07459">
        <ele>37.98569107056</ele>
        <time>2020-06-19T12:48:26.742Z</time>
      </trkpt>
      <trkpt lat="47.2109" lon="0.07534">
        <ele>35.40686798096</ele>
        <time>2020-06-19T12:48:38.788Z</time>
      </trkpt>
      <trkpt lat="47.21071" lon="0.07573">
        <ele>34.56204223633</ele>
        <time>2020-06-19T12:48:50.839Z</time>
      </trkpt>
      <trkpt lat="47.2104" lon="0.07619">
        <ele>34.03649520874</ele>
        <time>2020-06-19T12:49:02.897Z</time>
      </trkpt>
      <trkpt lat="47.20976" lon="0.0771">
        <ele>37.30797195435</ele>
        <time>2020-06-19T12:49:14.969Z</time>
      </trkpt>
      <trkpt lat="47.20947" lon="0.07752">
        <ele>35.0682144165</ele>
        <time>2020-06-19T12:49:27.048Z</time>
      </trkpt>
      <trkpt lat="47.20924" lon="0.07786">
        <ele>34.42032241821</ele>
        <time>2020-06-19T12:49:39.132Z</time>
      </trkpt>
      <trkpt lat="47.2091" lon="0.07808">
        <ele>34.9734916687</ele>
        <time>2020-06-19T12:49:51.219Z</time>
      </trkpt>
      <trkpt lat="47.20895" lon="0.07826">
        <ele>37.24111175537</ele>
        <time>2020-06-19T12:50:03.309Z</time>
      </trkpt>
      <trkpt lat="47.20871" lon="0.07859">
        <ele>38.50510406494</ele>
        <time>2020-06-19T12:50:15.405Z</time>
      </trkpt>
      <trkpt lat="47.20841" lon="0.079">
        <ele>37.3807144165</ele>
        <time>2020-06-19T12:50:27.507Z</time>
      </trkpt>
      <trkpt lat="47.20794" lon="0.0796">
        <ele>36.62460327148</ele>
        <time>2020-06-19T12:50:39.619Z</time>
      </trkpt>
      <trkpt lat="47.20732" lon="0.08047">
        <ele>34.53132629395</ele>
        <time>2020-06-19T12:50:51.745Z</time>
      </trkpt>
      <trkpt lat="47.20727" lon="0.08055">
        <ele>35.041015625</ele>
        <time>2020-06-19T12:51:03.872Z</time>
      </trkpt>
      <trkpt lat="47.20698" lon="0.08099">
        <ele>36.32421875</ele>
        <time>2020-06-19T12:51:16.006Z</time>
      </trkpt>
      <trkpt lat="47.20689" lon="0.0811">
        <ele>35.59233856201</ele>
        <time>2020-06-19T12:51:28.142Z</time>
      </trkpt>
      <trkpt lat="47.20688" lon="0.08109">
        <ele>35.72431945801</ele>
        <time>2020-06-19T12:51:40.278Z</time>
      </trkpt>
      <trkpt lat="47.20685" lon="0.08107">
        <ele>36.024269104</ele>
        <time>2020-06-19T12:51:52.414Z</time>
      </trkpt>
      <trkpt lat="47.20679" lon="0.08109">
        <ele>36.0482635498</ele>
        <time>2020-06-19T12:52:04.551Z</time>
      </trkpt>
      <trkpt lat="47.20675" lon="0.08115">
        <ele>35.61633682251</ele>
        <time>2020-06-19T12:52:16.689Z</time>
      </trkpt>
      <trkpt lat="47.20675" lon="0.08123">
        <ele>34.84846496582</ele>
        <time>2020-06-19T12:52:28.828Z</time>
      </trkpt>
      <trkpt lat="47.20678" lon="0.08131">
        <ele>34.13940811157</ele>
        <time>2020-06-19T12:52:40.968Z</time>
      </trkpt>
      <trkpt lat="47.20684" lon="0.08133">
        <ele>33.80346298218</ele>
        <time>2020-06-19T12:52:53.109Z</time>
      </trkpt>
      <trkpt lat="47.20689" lon="0.0813">
        <ele>33.80346298218</ele>
        <time>2020-06-19T12:53:05.251Z</time>
      </trkpt>
      <trkpt lat="47.20696" lon="0.08135">
        <ele>33.25155639648</ele>
        <time>2020-06-19T12:53:17.394Z</time>
      </trkpt>
      <trkpt lat="47.20699" lon="0.08136">
        <ele>33.08358383179</ele>
        <time>2020-06-19T12:53:29.538Z</time>
      </trkpt>
      <trkpt lat="47.20704" lon="0.08133">
        <ele>33.08358383179</ele>
        <time>2020-06-19T12:53:41.682Z</time>
      </trkpt>
      <trkpt lat="47.20705" lon="0.08132">
        <ele>33.11728286743</ele>
        <time>2020-06-19T12:53:53.827Z</time>
      </trkpt>
      <trkpt lat="47.20709" lon="0.08128">
        <ele>33.20356369019</ele>
        <time>2020-06-19T09:34:51.000Z</time>
      </trkpt>
      <trkpt lat="47.20709" lon="0.08128">
        <ele>33.20356369019</ele>
        <time>2020-06-19T09:34:51.000Z</time>
      </trkpt>
      <trkpt lat="47.207" lon="0.08135">
        <ele>33.10757827759</ele>
        <time>2020-06-19T09:34:51.002Z</time>
      </trkpt>
      <trkpt lat="47.20697" lon="0.08135">
        <ele>33.21556091309</ele>
        <time>2020-06-19T09:34:51.004Z</time>
      </trkpt>
      <trkpt lat="47.20691" lon="0.08128">
        <ele>33.85145568848</ele>
        <time>2020-06-19T09:34:51.007Z</time>
      </trkpt>
      <trkpt lat="47.20691" lon="0.08127">
        <ele>33.91144561768</ele>
        <time>2020-06-19T09:34:51.010Z</time>
      </trkpt>
      <trkpt lat="47.20692" lon="0.08123">
        <ele>34.23656463623</ele>
        <time>2020-06-19T09:34:51.014Z</time>
      </trkpt>
      <trkpt lat="47.20692" lon="0.08118">
        <ele>34.71648788452</ele>
        <time>2020-06-19T09:34:51.018Z</time>
      </trkpt>
      <trkpt lat="47.2069" lon="0.08111">
        <ele>35.46036148071</ele>
        <time>2020-06-19T09:34:51.023Z</time>
      </trkpt>
      <trkpt lat="47.20742" lon="0.08032">
        <ele>34.28630065918</ele>
        <time>2020-06-19T09:34:51.040Z</time>
      </trkpt>
      <trkpt lat="47.20802" lon="0.07949">
        <ele>37.68060302734</ele>
        <time>2020-06-19T09:34:51.070Z</time>
      </trkpt>
      <trkpt lat="47.20845" lon="0.07893">
        <ele>37.41670608521</ele>
        <time>2020-06-19T09:34:51.110Z</time>
      </trkpt>
      <trkpt lat="47.20847" lon="0.07891">
        <ele>37.43519592285</ele>
        <time>2020-06-19T09:34:51.150Z</time>
      </trkpt>
      <trkpt lat="47.20895" lon="0.07826">
        <ele>37.24111175537</ele>
        <time>2020-06-19T09:34:51.201Z</time>
      </trkpt>
      <trkpt lat="47.2091" lon="0.07808">
        <ele>34.9734916687</ele>
        <time>2020-06-19T09:34:51.255Z</time>
      </trkpt>
      <trkpt lat="47.20922" lon="0.07825">
        <ele>33.50131607056</ele>
        <time>2020-06-19T09:34:51.311Z</time>
      </trkpt>
      <trkpt lat="47.20931" lon="0.07839">
        <ele>32.51747894287</ele>
        <time>2020-06-19T09:34:51.369Z</time>
      </trkpt>
      <trkpt lat="47.20944" lon="0.07859">
        <ele>31.10171508789</ele>
        <time>2020-06-19T09:34:51.430Z</time>
      </trkpt>
      <trkpt lat="47.21013" lon="0.07966">
        <ele>26.92407035828</ele>
        <time>2020-06-19T09:34:51.507Z</time>
      </trkpt>
      <trkpt lat="47.21032" lon="0.07996">
        <ele>26.56413078308</ele>
        <time>2020-06-19T09:34:51.589Z</time>
      </trkpt>
      <trkpt lat="47.21034" lon="0.07999">
        <ele>26.5364151001</ele>
        <time>2020-06-19T09:34:51.671Z</time>
      </trkpt>
      <trkpt lat="47.211" lon="0.08102">
        <ele>30.50329780579</ele>
        <time>2020-06-19T09:34:51.769Z</time>
      </trkpt>
      <trkpt lat="47.21102" lon="0.08105">
        <ele>30.71137237549</ele>
        <time>2020-06-19T09:34:51.867Z</time>
      </trkpt>
      <trkpt lat="47.21117" lon="0.08129">
        <ele>32.46131896973</ele>
        <time>2020-06-19T09:34:51.969Z</time>
      </trkpt>
      <trkpt lat="47.21115" lon="0.08132">
        <ele>32.4425239563</ele>
        <time>2020-06-19T09:34:52.071Z</time>
      </trkpt>
      <trkpt lat="47.21093" lon="0.08174">
        <ele>31.38675880432</ele>
        <time>2020-06-19T09:34:52.179Z</time>
      </trkpt>
      <trkpt lat="47.21094" lon="0.08174">
        <ele>31.41307258606</ele>
        <time>2020-06-19T09:34:52.287Z</time>
      </trkpt>
      <trkpt lat="47.21093" lon="0.08176">
        <ele>31.32048797607</ele>
        <time>2020-06-19T09:34:52.395Z</time>
      </trkpt>
      <trkpt lat="47.21065" lon="0.0823">
        <ele>29.75659942627</ele>
        <time>2020-06-19T09:34:52.511Z</time>
      </trkpt>
      <trkpt lat="47.21049" lon="0.08264">
        <ele>29.34279060364</ele>
        <time>2020-06-19T09:34:52.631Z</time>
      </trkpt>
      <trkpt lat="47.21036" lon="0.08301">
        <ele>28.39422416687</ele>
        <time>2020-06-19T09:34:52.756Z</time>
      </trkpt>
      <trkpt lat="47.21035" lon="0.08303">
        <ele>28.35700035095</ele>
        <time>2020-06-19T09:34:52.881Z</time>
      </trkpt>
      <trkpt lat="47.21024" lon="0.08326">
        <ele>28.04970359802</ele>
        <time>2020-06-19T09:34:53.009Z</time>
      </trkpt>
      <trkpt lat="47.21018" lon="0.08337">
        <ele>28.25366973877</ele>
        <time>2020-06-19T09:34:53.139Z</time>
      </trkpt>
      <trkpt lat="47.21008" lon="0.08348">
        <ele>28.50562667847</ele>
        <time>2020-06-19T09:34:53.271Z</time>
      </trkpt>
      <trkpt lat="47.20994" lon="0.08364">
        <ele>28.85113334656</ele>
        <time>2020-06-19T09:34:53.406Z</time>
      </trkpt>
      <trkpt lat="47.20981" lon="0.08385">
        <ele>28.8295917511</ele>
        <time>2020-06-19T09:34:53.544Z</time>
      </trkpt>
      <trkpt lat="47.20972" lon="0.08408">
        <ele>28.72161102295</ele>
        <time>2020-06-19T09:34:53.685Z</time>
      </trkpt>
      <trkpt lat="47.20961" lon="0.08434">
        <ele>28.6909942627</ele>
        <time>2020-06-19T09:34:53.829Z</time>
      </trkpt>
      <trkpt lat="47.20935" lon="0.08503">
        <ele>29.51885604858</ele>
        <time>2020-06-19T09:34:53.982Z</time>
      </trkpt>
      <trkpt lat="47.20928" lon="0.08524">
        <ele>29.77081298828</ele>
        <time>2020-06-19T09:34:54.137Z</time>
      </trkpt>
      <trkpt lat="47.20928" lon="0.08526">
        <ele>29.78910255432</ele>
        <time>2020-06-19T09:34:54.292Z</time>
      </trkpt>
      <trkpt lat="47.20889" lon="0.08652">
        <ele>30.51611328125</ele>
        <time>2020-06-19T09:34:54.462Z</time>
      </trkpt>
      <trkpt lat="47.2084" lon="0.08839">
        <ele>32.21157455444</ele>
        <time>2020-06-19T09:34:54.654Z</time>
      </trkpt>
      <trkpt lat="47.20819" lon="0.08924">
        <ele>30.31590270996</ele>
        <time>2020-06-19T09:34:54.856Z</time>
      </trkpt>
      <trkpt lat="47.20807" lon="0.08963">
        <ele>29.96206474304</ele>
        <time>2020-06-19T09:34:55.063Z</time>
      </trkpt>
      <trkpt lat="47.20798" lon="0.0899">
        <ele>29.6381187439</ele>
        <time>2020-06-19T09:34:55.273Z</time>
      </trkpt>
      <trkpt lat="47.20788" lon="0.09015">
        <ele>29.78172683716</ele>
        <time>2020-06-19T09:34:55.486Z</time>
      </trkpt>
      <trkpt lat="47.20758" lon="0.09091">
        <ele>30.54456329346</ele>
        <time>2020-06-19T09:34:55.709Z</time>
      </trkpt>
      <trkpt lat="47.20667" lon="0.09304">
        <ele>29.6744594574</ele>
        <time>2020-06-19T09:34:55.959Z</time>
      </trkpt>
      <trkpt lat="47.20609" lon="0.09443">
        <ele>30.33163070679</ele>
        <time>2020-06-19T09:34:56.227Z</time>
      </trkpt>
      <trkpt lat="47.20597" lon="0.09474">
        <ele>31.61730003357</ele>
        <time>2020-06-19T09:34:56.499Z</time>
      </trkpt>
      <trkpt lat="47.20593" lon="0.0949">
        <ele>32.01214599609</ele>
        <time>2020-06-19T09:34:56.773Z</time>
      </trkpt>
      <trkpt lat="47.20591" lon="0.0951">
        <ele>32.30009841919</ele>
        <time>2020-06-19T09:34:57.049Z</time>
      </trkpt>
      <trkpt lat="47.20593" lon="0.09516">
        <ele>32.32409286499</ele>
        <time>2020-06-19T09:34:57.326Z</time>
      </trkpt>
      <trkpt lat="47.2059" lon="0.09521">
        <ele>32.45606994629</ele>
        <time>2020-06-19T09:34:57.603Z</time>
      </trkpt>
      <trkpt lat="47.20587" lon="0.09529">
        <ele>32.62404251099</ele>
        <time>2020-06-19T09:34:57.881Z</time>
      </trkpt>
      <trkpt lat="47.20582" lon="0.09551">
        <ele>32.82246017456</ele>
        <time>2020-06-19T09:34:58.162Z</time>
      </trkpt>
      <trkpt lat="47.20583" lon="0.09578">
        <ele>32.47451782227</ele>
        <time>2020-06-19T09:34:58.446Z</time>
      </trkpt>
      <trkpt lat="47.20582" lon="0.09593">
        <ele>32.31854248047</ele>
        <time>2020-06-19T09:34:58.732Z</time>
      </trkpt>
      <trkpt lat="47.20576" lon="0.09615">
        <ele>32.1393699646</ele>
        <time>2020-06-19T09:34:59.020Z</time>
      </trkpt>
      <trkpt lat="47.20562" lon="0.09664">
        <ele>31.80243110657</ele>
        <time>2020-06-19T09:34:59.314Z</time>
      </trkpt>
      <trkpt lat="47.20542" lon="0.09733">
        <ele>30.57214927673</ele>
        <time>2020-06-19T09:34:59.616Z</time>
      </trkpt>
      <trkpt lat="47.2052" lon="0.098">
        <ele>29.21825218201</ele>
        <time>2020-06-19T09:34:59.926Z</time>
      </trkpt>
      <trkpt lat="47.20488" lon="0.09887">
        <ele>28.20950889587</ele>
        <time>2020-06-19T09:35:00.247Z</time>
      </trkpt>
      <trkpt lat="47.20459" lon="0.09973">
        <ele>29.74519538879</ele>
        <time>2020-06-19T09:35:00.578Z</time>
      </trkpt>
      <trkpt lat="47.20446" lon="0.10008">
        <ele>30.41066169739</ele>
        <time>2020-06-19T09:35:00.914Z</time>
      </trkpt>
      <trkpt lat="47.20409" lon="0.10099">
        <ele>29.29907226562</ele>
        <time>2020-06-19T09:35:01.261Z</time>
      </trkpt>
      <trkpt lat="47.20384" lon="0.10163">
        <ele>28.90648651123</ele>
        <time>2020-06-19T09:35:01.616Z</time>
      </trkpt>
      <trkpt lat="47.20383" lon="0.10164">
        <ele>28.89767837524</ele>
        <time>2020-06-19T09:35:01.972Z</time>
      </trkpt>
      <trkpt lat="47.20271" lon="0.10436">
        <ele>35.51201248169</ele>
        <time>2020-06-19T09:35:02.362Z</time>
      </trkpt>
      <trkpt lat="47.20267" lon="0.10423">
        <ele>36.43585968018</ele>
        <time>2020-06-19T09:35:02.754Z</time>
      </trkpt>
      <trkpt lat="47.20206" lon="0.10309">
        <ele>37.31181335449</ele>
        <time>2020-06-19T09:35:03.162Z</time>
      </trkpt>
      <trkpt lat="47.20142" lon="0.10214">
        <ele>34.0474357605</ele>
        <time>2020-06-19T09:35:03.584Z</time>
      </trkpt>
      <trkpt lat="47.20075" lon="0.10155">
        <ele>34.0811920166</ele>
        <time>2020-06-19T09:35:04.019Z</time>
      </trkpt>
      <trkpt lat="47.20049" lon="0.1013">
        <ele>34.70508575439</ele>
        <time>2020-06-19T09:35:04.459Z</time>
      </trkpt>
      <trkpt lat="47.20015" lon="0.10113">
        <ele>35.3565864563</ele>
        <time>2020-06-19T09:35:04.904Z</time>
      </trkpt>
      <trkpt lat="47.19998" lon="0.10109">
        <ele>35.71652603149</ele>
        <time>2020-06-19T09:35:05.352Z</time>
      </trkpt>
      <trkpt lat="47.19978" lon="0.10109">
        <ele>35.17443847656</ele>
        <time>2020-06-19T09:35:05.803Z</time>
      </trkpt>
      <trkpt lat="47.19958" lon="0.10115">
        <ele>34.52654647827</ele>
        <time>2020-06-19T09:35:06.258Z</time>
      </trkpt>
      <trkpt lat="47.19933" lon="0.1013">
        <ele>33.68786239624</ele>
        <time>2020-06-19T09:35:06.717Z</time>
      </trkpt>
      <trkpt lat="47.19915" lon="0.10142">
        <ele>32.61706542969</ele>
        <time>2020-06-19T09:35:07.179Z</time>
      </trkpt>
      <trkpt lat="47.19914" lon="0.10143">
        <ele>32.52417755127</ele>
        <time>2020-06-19T09:35:07.641Z</time>
      </trkpt>
      <trkpt lat="47.19886" lon="0.10163">
        <ele>32.00160980225</ele>
        <time>2020-06-19T09:35:08.108Z</time>
      </trkpt>
      <trkpt lat="47.19863" lon="0.10186">
        <ele>31.4497013092</ele>
        <time>2020-06-19T09:35:08.580Z</time>
      </trkpt>
      <trkpt lat="47.19824" lon="0.10236">
        <ele>30.06583023071</ele>
        <time>2020-06-19T09:35:09.060Z</time>
      </trkpt>
      <trkpt lat="47.198" lon="0.10261">
        <ele>29.16597938538</ele>
        <time>2020-06-19T09:35:09.545Z</time>
      </trkpt>
      <trkpt lat="47.19784" lon="0.10275">
        <ele>29.59604072571</ele>
        <time>2020-06-19T09:35:10.033Z</time>
      </trkpt>
      <trkpt lat="47.19759" lon="0.10291">
        <ele>30.49589157104</ele>
        <time>2020-06-19T09:35:10.525Z</time>
      </trkpt>
      <trkpt lat="47.19737" lon="0.10303">
        <ele>31.0765838623</ele>
        <time>2020-06-19T09:35:11.021Z</time>
      </trkpt>
      <trkpt lat="47.19705" lon="0.10317">
        <ele>31.6764831543</ele>
        <time>2020-06-19T09:35:11.522Z</time>
      </trkpt>
      <trkpt lat="47.19616" lon="0.10359">
        <ele>31.21285629272</ele>
        <time>2020-06-19T09:35:12.038Z</time>
      </trkpt>
      <trkpt lat="47.19573" lon="0.10386">
        <ele>30.84141159058</ele>
        <time>2020-06-19T09:35:12.562Z</time>
      </trkpt>
      <trkpt lat="47.19501" lon="0.10436">
        <ele>33.69765853882</ele>
        <time>2020-06-19T09:35:13.098Z</time>
      </trkpt>
      <trkpt lat="47.19472" lon="0.10458">
        <ele>34.62439346313</ele>
        <time>2020-06-19T09:35:13.640Z</time>
      </trkpt>
      <trkpt lat="47.19454" lon="0.10475">
        <ele>35.40320587158</ele>
        <time>2020-06-19T09:35:14.185Z</time>
      </trkpt>
      <trkpt lat="47.19436" lon="0.10497">
        <ele>35.90627670288</ele>
        <time>2020-06-19T09:35:14.734Z</time>
      </trkpt>
      <trkpt lat="47.19405" lon="0.1054">
        <ele>34.72101593018</ele>
        <time>2020-06-19T09:35:15.290Z</time>
      </trkpt>
      <trkpt lat="47.1939" lon="0.10558">
        <ele>34.0475769043</ele>
        <time>2020-06-19T09:35:15.849Z</time>
      </trkpt>
      <trkpt lat="47.19373" lon="0.10569">
        <ele>33.30369949341</ele>
        <time>2020-06-19T09:35:16.411Z</time>
      </trkpt>
      <trkpt lat="47.19353" lon="0.10582">
        <ele>32.42784500122</ele>
        <time>2020-06-19T09:35:16.976Z</time>
      </trkpt>
      <trkpt lat="47.1933" lon="0.10602">
        <ele>31.36002349854</ele>
        <time>2020-06-19T09:35:17.546Z</time>
      </trkpt>
      <trkpt lat="47.19306" lon="0.1062">
        <ele>30.91862297058</ele>
        <time>2020-06-19T09:35:18.120Z</time>
      </trkpt>
      <trkpt lat="47.19287" lon="0.10632">
        <ele>31</ele>
        <time>2020-06-19T09:35:18.697Z</time>
      </trkpt>
      <trkpt lat="47.19271" lon="0.10648">
        <ele>31</ele>
        <time>2020-06-19T09:35:19.277Z</time>
      </trkpt>
      <trkpt lat="47.19239" lon="0.1068">
        <ele>31.63850212097</ele>
        <time>2020-06-19T09:35:19.863Z</time>
      </trkpt>
      <trkpt lat="47.19216" lon="0.10707">
        <ele>32.27177429199</ele>
        <time>2020-06-19T09:35:20.454Z</time>
      </trkpt>
      <trkpt lat="47.19191" lon="0.10737">
        <ele>32.64682769775</ele>
        <time>2020-06-19T09:35:21.050Z</time>
      </trkpt>
      <trkpt lat="47.19176" lon="0.1075">
        <ele>32.82679748535</ele>
        <time>2020-06-19T09:35:21.649Z</time>
      </trkpt>
      <trkpt lat="47.19174" lon="0.10753">
        <ele>32.85733413696</ele>
        <time>2020-06-19T09:35:22.249Z</time>
      </trkpt>
      <trkpt lat="47.19172" lon="0.10754">
        <ele>32.87479019165</ele>
        <time>2020-06-19T09:35:22.849Z</time>
      </trkpt>
      <trkpt lat="47.1913" lon="0.10792">
        <ele>32.9822769165</ele>
        <time>2020-06-19T09:35:23.457Z</time>
      </trkpt>
      <trkpt lat="47.19112" lon="0.10813">
        <ele>33.2342376709</ele>
        <time>2020-06-19T09:35:24.068Z</time>
      </trkpt>
      <trkpt lat="47.1909" lon="0.10849">
        <ele>33.66616439819</ele>
        <time>2020-06-19T09:35:24.685Z</time>
      </trkpt>
      <trkpt lat="47.19068" lon="0.10876">
        <ele>33.61247253418</ele>
        <time>2020-06-19T09:35:25.306Z</time>
      </trkpt>
      <trkpt lat="47.19047" lon="0.10909">
        <ele>32.87638092041</ele>
        <time>2020-06-19T09:35:25.932Z</time>
      </trkpt>
      <trkpt lat="47.19039" lon="0.10925">
        <ele>32.68550109863</ele>
        <time>2020-06-19T09:35:26.560Z</time>
      </trkpt>
      <trkpt lat="47.1903" lon="0.10942">
        <ele>32.98545074463</ele>
        <time>2020-06-19T09:35:27.191Z</time>
      </trkpt>
      <trkpt lat="47.19014" lon="0.10968">
        <ele>33.22952651978</ele>
        <time>2020-06-19T09:35:27.826Z</time>
      </trkpt>
      <trkpt lat="47.18988" lon="0.11009">
        <ele>32.00204467773</ele>
        <time>2020-06-19T09:35:28.467Z</time>
      </trkpt>
      <trkpt lat="47.18956" lon="0.11059">
        <ele>30.78667068481</ele>
        <time>2020-06-19T09:35:29.115Z</time>
      </trkpt>
      <trkpt lat="47.18932" lon="0.11107">
        <ele>32.0465927124</ele>
        <time>2020-06-19T09:35:29.770Z</time>
      </trkpt>
      <trkpt lat="47.18882" lon="0.11208">
        <ele>33.25550460815</ele>
        <time>2020-06-19T09:35:30.438Z</time>
      </trkpt>
      <trkpt lat="47.18851" lon="0.11288">
        <ele>32.02869415283</ele>
        <time>2020-06-19T09:35:31.116Z</time>
      </trkpt>
      <trkpt lat="47.18799" lon="0.11424">
        <ele>34.07989501953</ele>
        <time>2020-06-19T09:35:31.811Z</time>
      </trkpt>
      <trkpt lat="47.18757" lon="0.11537">
        <ele>35.21422576904</ele>
        <time>2020-06-19T09:35:32.520Z</time>
      </trkpt>
      <trkpt lat="47.18756" lon="0.1154">
        <ele>35.22486495972</ele>
        <time>2020-06-19T09:35:33.230Z</time>
      </trkpt>
      <trkpt lat="47.1874" lon="0.11587">
        <ele>34.59451675415</ele>
        <time>2020-06-19T09:35:33.946Z</time>
      </trkpt>
      <trkpt lat="47.18734" lon="0.11628">
        <ele>34.06538772583</ele>
        <time>2020-06-19T09:35:34.666Z</time>
      </trkpt>
      <trkpt lat="47.18724" lon="0.11675">
        <ele>32.09771728516</ele>
        <time>2020-06-19T09:35:35.391Z</time>
      </trkpt>
      <trkpt lat="47.1871" lon="0.11745">
        <ele>30.07941818237</ele>
        <time>2020-06-19T09:35:36.124Z</time>
      </trkpt>
      <trkpt lat="47.1871" lon="0.11755">
        <ele>29.71947860718</ele>
        <time>2020-06-19T09:35:36.859Z</time>
      </trkpt>
      <trkpt lat="47.18703" lon="0.1177">
        <ele>29.71632194519</ele>
        <time>2020-06-19T09:35:37.596Z</time>
      </trkpt>
      <trkpt lat="47.18692" lon="0.11794">
        <ele>30.01709747314</ele>
        <time>2020-06-19T09:35:38.336Z</time>
      </trkpt>
      <trkpt lat="47.18683" lon="0.11813">
        <ele>30.92894554138</ele>
        <time>2020-06-19T09:35:39.078Z</time>
      </trkpt>
      <trkpt lat="47.1867" lon="0.11844">
        <ele>32.41669845581</ele>
        <time>2020-06-19T09:35:39.824Z</time>
      </trkpt>
      <trkpt lat="47.18657" lon="0.11888">
        <ele>34.23497772217</ele>
        <time>2020-06-19T09:35:40.575Z</time>
      </trkpt>
      <trkpt lat="47.18635" lon="0.11966">
        <ele>35.41141891479</ele>
        <time>2020-06-19T09:35:41.336Z</time>
      </trkpt>
      <trkpt lat="47.18627" lon="0.11984">
        <ele>34.9314994812</ele>
        <time>2020-06-19T09:35:42.099Z</time>
      </trkpt>
      <trkpt lat="47.18618" lon="0.12013">
        <ele>34.54510879517</ele>
        <time>2020-06-19T09:35:42.865Z</time>
      </trkpt>
      <trkpt lat="47.18616" lon="0.12045">
        <ele>34.81728744507</ele>
        <time>2020-06-19T09:35:43.635Z</time>
      </trkpt>
      <trkpt lat="47.18611" lon="0.12075">
        <ele>34.57732772827</ele>
        <time>2020-06-19T09:35:44.408Z</time>
      </trkpt>
      <trkpt lat="47.18603" lon="0.12096">
        <ele>34.19338989258</ele>
        <time>2020-06-19T09:35:45.184Z</time>
      </trkpt>
      <trkpt lat="47.18584" lon="0.12174">
        <ele>33.77467346191</ele>
        <time>2020-06-19T09:35:45.969Z</time>
      </trkpt>
      <trkpt lat="47.18558" lon="0.12262">
        <ele>33.75843811035</ele>
        <time>2020-06-19T09:35:46.764Z</time>
      </trkpt>
      <trkpt lat="47.18544" lon="0.12321">
        <ele>32.77139663696</ele>
        <time>2020-06-19T09:35:47.566Z</time>
      </trkpt>
      <trkpt lat="47.18538" lon="0.12349">
        <ele>32.55543518066</ele>
        <time>2020-06-19T09:35:48.371Z</time>
      </trkpt>
      <trkpt lat="47.18535" lon="0.12384">
        <ele>32.44745254517</ele>
        <time>2020-06-19T09:35:49.180Z</time>
      </trkpt>
      <trkpt lat="47.18528" lon="0.12443">
        <ele>33.37292861938</ele>
        <time>2020-06-19T09:35:49.996Z</time>
      </trkpt>
      <trkpt lat="47.18522" lon="0.12478">
        <ele>33.78909301758</ele>
        <time>2020-06-19T09:35:50.816Z</time>
      </trkpt>
      <trkpt lat="47.18514" lon="0.12524">
        <ele>33.23718643188</ele>
        <time>2020-06-19T09:35:51.641Z</time>
      </trkpt>
      <trkpt lat="47.18497" lon="0.12573">
        <ele>33.43039703369</ele>
        <time>2020-06-19T09:35:52.472Z</time>
      </trkpt>
      <trkpt lat="47.18483" lon="0.12625">
        <ele>34.3480758667</ele>
        <time>2020-06-19T09:35:53.309Z</time>
      </trkpt>
      <trkpt lat="47.18462" lon="0.12722">
        <ele>37.35167694092</ele>
        <time>2020-06-19T09:35:54.157Z</time>
      </trkpt>
      <trkpt lat="47.18455" lon="0.12742">
        <ele>37.42366790771</ele>
        <time>2020-06-19T09:35:55.008Z</time>
      </trkpt>
      <trkpt lat="47.18447" lon="0.12777">
        <ele>36.90832901001</ele>
        <time>2020-06-19T09:35:55.863Z</time>
      </trkpt>
      <trkpt lat="47.18442" lon="0.12814">
        <ele>35.98220825195</ele>
        <time>2020-06-19T09:35:56.722Z</time>
      </trkpt>
      <trkpt lat="47.18441" lon="0.12849">
        <ele>35.70934295654</ele>
        <time>2020-06-19T09:35:57.585Z</time>
      </trkpt>
      <trkpt lat="47.1844" lon="0.12871">
        <ele>35.68534851074</ele>
        <time>2020-06-19T09:35:58.450Z</time>
      </trkpt>
      <trkpt lat="47.18434" lon="0.12906">
        <ele>35.81205749512</ele>
        <time>2020-06-19T09:35:59.319Z</time>
      </trkpt>
      <trkpt lat="47.18413" lon="0.12973">
        <ele>35.09363937378</ele>
        <time>2020-06-19T09:36:00.196Z</time>
      </trkpt>
      <trkpt lat="47.18401" lon="0.13034">
        <ele>35.11820602417</ele>
        <time>2020-06-19T09:36:01.080Z</time>
      </trkpt>
      <trkpt lat="47.18394" lon="0.13092">
        <ele>35</ele>
        <time>2020-06-19T09:36:01.970Z</time>
      </trkpt>
      <trkpt lat="47.18389" lon="0.13128">
        <ele>34.99039459229</ele>
        <time>2020-06-19T09:36:02.864Z</time>
      </trkpt>
      <trkpt lat="47.18383" lon="0.13183">
        <ele>34.29837417603</ele>
        <time>2020-06-19T09:36:03.764Z</time>
      </trkpt>
      <trkpt lat="47.18374" lon="0.13265">
        <ele>32.53453063965</ele>
        <time>2020-06-19T09:36:04.674Z</time>
      </trkpt>
      <trkpt lat="47.18373" lon="0.13271">
        <ele>32.42990875244</ele>
        <time>2020-06-19T09:36:05.584Z</time>
      </trkpt>
      <trkpt lat="47.18362" lon="0.13374">
        <ele>32.03414916992</ele>
        <time>2020-06-19T09:36:06.506Z</time>
      </trkpt>
      <trkpt lat="47.1835" lon="0.13455">
        <ele>31.98436737061</ele>
        <time>2020-06-19T09:36:07.437Z</time>
      </trkpt>
      <trkpt lat="47.18345" lon="0.13533">
        <ele>31.81145477295</ele>
        <time>2020-06-19T09:36:08.376Z</time>
      </trkpt>
      <trkpt lat="47.1833" lon="0.13626">
        <ele>32.99211502075</ele>
        <time>2020-06-19T09:36:09.326Z</time>
      </trkpt>
      <trkpt lat="47.18317" lon="0.13737">
        <ele>32.41744995117</ele>
        <time>2020-06-19T09:36:10.288Z</time>
      </trkpt>
      <trkpt lat="47.18304" lon="0.1383">
        <ele>32.14315032959</ele>
        <time>2020-06-19T09:36:11.260Z</time>
      </trkpt>
      <trkpt lat="47.18298" lon="0.13891">
        <ele>32.24503707886</ele>
        <time>2020-06-19T09:36:12.239Z</time>
      </trkpt>
      <trkpt lat="47.18283" lon="0.13969">
        <ele>33.67673873901</ele>
        <time>2020-06-19T09:36:13.227Z</time>
      </trkpt>
      <trkpt lat="47.1827" lon="0.14056">
        <ele>33.96183395386</ele>
        <time>2020-06-19T09:36:14.225Z</time>
      </trkpt>
      <trkpt lat="47.18251" lon="0.14194">
        <ele>32.50073242188</ele>
        <time>2020-06-19T09:36:15.238Z</time>
      </trkpt>
      <trkpt lat="47.1824" lon="0.14269">
        <ele>31.12989616394</ele>
        <time>2020-06-19T09:36:16.259Z</time>
      </trkpt>
      <trkpt lat="47.18232" lon="0.14333">
        <ele>31.16137695312</ele>
        <time>2020-06-19T09:36:17.287Z</time>
      </trkpt>
      <trkpt lat="47.18224" lon="0.14394">
        <ele>31.65146827698</ele>
        <time>2020-06-19T09:36:18.322Z</time>
      </trkpt>
      <trkpt lat="47.18214" lon="0.14451">
        <ele>32.65929794312</ele>
        <time>2020-06-19T09:36:19.364Z</time>
      </trkpt>
      <trkpt lat="47.18195" lon="0.14547">
        <ele>31.54224205017</ele>
        <time>2020-06-19T09:36:20.417Z</time>
      </trkpt>
      <trkpt lat="47.18185" lon="0.1462">
        <ele>35.55311584473</ele>
        <time>2020-06-19T09:36:21.478Z</time>
      </trkpt>
      <trkpt lat="47.18168" lon="0.14758">
        <ele>33.51287078857</ele>
        <time>2020-06-19T09:36:22.554Z</time>
      </trkpt>
      <trkpt lat="47.18159" lon="0.14828">
        <ele>33.34867858887</ele>
        <time>2020-06-19T09:36:23.638Z</time>
      </trkpt>
      <trkpt lat="47.18156" lon="0.14875">
        <ele>33.73598098755</ele>
        <time>2020-06-19T09:36:24.727Z</time>
      </trkpt>
      <trkpt lat="47.18144" lon="0.14959">
        <ele>32.35174179077</ele>
        <time>2020-06-19T09:36:25.825Z</time>
      </trkpt>
      <trkpt lat="47.18133" lon="0.1506">
        <ele>32.46954345703</ele>
        <time>2020-06-19T09:36:26.934Z</time>
      </trkpt>
      <trkpt lat="47.18119" lon="0.15138">
        <ele>32.24583435059</ele>
        <time>2020-06-19T09:36:28.052Z</time>
      </trkpt>
      <trkpt lat="47.18117" lon="0.15148">
        <ele>32.49113464355</ele>
        <time>2020-06-19T09:36:29.171Z</time>
      </trkpt>
      <trkpt lat="47.18104" lon="0.15226">
        <ele>34.18141174316</ele>
        <time>2020-06-19T09:36:30.299Z</time>
      </trkpt>
      <trkpt lat="47.18096" lon="0.15293">
        <ele>32.67552947998</ele>
        <time>2020-06-19T09:36:31.435Z</time>
      </trkpt>
      <trkpt lat="47.18092" lon="0.15328">
        <ele>32.83684921265</ele>
        <time>2020-06-19T09:36:32.574Z</time>
      </trkpt>
      <trkpt lat="47.18093" lon="0.15345">
        <ele>32.89683914185</ele>
        <time>2020-06-19T09:36:33.715Z</time>
      </trkpt>
      <trkpt lat="47.18098" lon="0.15365">
        <ele>33.19678878784</ele>
        <time>2020-06-19T09:36:34.859Z</time>
      </trkpt>
      <trkpt lat="47.18104" lon="0.1539">
        <ele>33.55672836304</ele>
        <time>2020-06-19T09:36:36.005Z</time>
      </trkpt>
      <trkpt lat="47.18106" lon="0.1545">
        <ele>34.21033096313</ele>
        <time>2020-06-19T09:36:37.158Z</time>
      </trkpt>
      <trkpt lat="47.18108" lon="0.15477">
        <ele>34.24444198608</ele>
        <time>2020-06-19T09:36:38.314Z</time>
      </trkpt>
      <trkpt lat="47.18112" lon="0.15506">
        <ele>34.35551071167</ele>
        <time>2020-06-19T09:36:39.473Z</time>
      </trkpt>
      <trkpt lat="47.18121" lon="0.1553">
        <ele>34.85942840576</ele>
        <time>2020-06-19T09:36:40.635Z</time>
      </trkpt>
      <trkpt lat="47.18109" lon="0.15526">
        <ele>34.52348327637</ele>
        <time>2020-06-19T09:36:41.799Z</time>
      </trkpt>
      <trkpt lat="47.18101" lon="0.15526">
        <ele>34.33151626587</ele>
        <time>2020-06-19T09:36:42.964Z</time>
      </trkpt>
      <trkpt lat="47.18098" lon="0.15531">
        <ele>34.31951522827</ele>
        <time>2020-06-19T09:36:44.130Z</time>
      </trkpt>
      <trkpt lat="47.18097" lon="0.15541">
        <ele>34.41550064087</ele>
        <time>2020-06-19T09:36:45.297Z</time>
      </trkpt>
      <trkpt lat="47.18095" lon="0.15575">
        <ele>33.63128662109</ele>
        <time>2020-06-19T09:36:46.468Z</time>
      </trkpt>
      <trkpt lat="47.18092" lon="0.15653">
        <ele>32.80244827271</ele>
        <time>2020-06-19T09:36:47.648Z</time>
      </trkpt>
      <trkpt lat="47.18085" lon="0.15712">
        <ele>33.74984741211</ele>
        <time>2020-06-19T09:36:48.834Z</time>
      </trkpt>
      <trkpt lat="47.18065" lon="0.15823">
        <ele>33.15657806396</ele>
        <time>2020-06-19T09:36:50.033Z</time>
      </trkpt>
      <trkpt lat="47.18054" lon="0.15871">
        <ele>32.87120056152</ele>
        <time>2020-06-19T09:36:51.237Z</time>
      </trkpt>
      <trkpt lat="47.18051" lon="0.15899">
        <ele>33.18758392334</ele>
        <time>2020-06-19T09:36:52.444Z</time>
      </trkpt>
      <trkpt lat="47.18041" lon="0.15936">
        <ele>33.81093597412</ele>
        <time>2020-06-19T09:36:53.656Z</time>
      </trkpt>
      <trkpt lat="47.18021" lon="0.16006">
        <ele>34.07970428467</ele>
        <time>2020-06-19T09:36:54.876Z</time>
      </trkpt>
      <trkpt lat="47.17964" lon="0.16201">
        <ele>32.51108932495</ele>
        <time>2020-06-19T09:36:56.119Z</time>
      </trkpt>
      <trkpt lat="47.17926" lon="0.16302">
        <ele>32</ele>
        <time>2020-06-19T09:36:57.375Z</time>
      </trkpt>
      <trkpt lat="47.17896" lon="0.16388">
        <ele>32.12308883667</ele>
        <time>2020-06-19T09:36:58.641Z</time>
      </trkpt>
      <trkpt lat="47.17866" lon="0.16482">
        <ele>32.45582199097</ele>
        <time>2020-06-19T09:36:59.919Z</time>
      </trkpt>
      <trkpt lat="47.17856" lon="0.16515">
        <ele>32.3345375061</ele>
        <time>2020-06-19T09:37:01.200Z</time>
      </trkpt>
      <trkpt lat="47.17852" lon="0.16528">
        <ele>32.28784942627</ele>
        <time>2020-06-19T09:37:02.483Z</time>
      </trkpt>
      <trkpt lat="47.17833" lon="0.16577">
        <ele>31.72906494141</ele>
        <time>2020-06-19T09:37:03.772Z</time>
      </trkpt>
      <trkpt lat="47.17804" lon="0.16655">
        <ele>31.36505317688</ele>
        <time>2020-06-19T09:37:05.071Z</time>
      </trkpt>
      <trkpt lat="47.17797" lon="0.1667">
        <ele>31.64100837708</ele>
        <time>2020-06-19T09:37:06.372Z</time>
      </trkpt>
      <trkpt lat="47.17791" lon="0.16678">
        <ele>31.66791534424</ele>
        <time>2020-06-19T09:37:07.674Z</time>
      </trkpt>
      <trkpt lat="47.17786" lon="0.16688">
        <ele>31.48794364929</ele>
        <time>2020-06-19T09:37:08.977Z</time>
      </trkpt>
      <trkpt lat="47.17776" lon="0.1671">
        <ele>31.1280040741</ele>
        <time>2020-06-19T09:37:10.283Z</time>
      </trkpt>
      <trkpt lat="47.17755" lon="0.16766">
        <ele>31.19262123108</ele>
        <time>2020-06-19T09:37:11.596Z</time>
      </trkpt>
      <trkpt lat="47.17731" lon="0.16827">
        <ele>31.34436607361</ele>
        <time>2020-06-19T09:37:12.917Z</time>
      </trkpt>
      <trkpt lat="47.17707" lon="0.16889">
        <ele>30.51033210754</ele>
        <time>2020-06-19T09:37:14.246Z</time>
      </trkpt>
      <trkpt lat="47.17678" lon="0.16973">
        <ele>32.88344192505</ele>
        <time>2020-06-19T09:37:15.585Z</time>
      </trkpt>
      <trkpt lat="47.1764" lon="0.17106">
        <ele>31.7870426178</ele>
        <time>2020-06-19T09:37:16.940Z</time>
      </trkpt>
      <trkpt lat="47.17574" lon="0.1737">
        <ele>34.76234054565</ele>
        <time>2020-06-19T09:37:18.326Z</time>
      </trkpt>
      <trkpt lat="47.17548" lon="0.17494">
        <ele>35.06666946411</ele>
        <time>2020-06-19T09:37:19.726Z</time>
      </trkpt>
      <trkpt lat="47.17529" lon="0.17613">
        <ele>33.9549331665</ele>
        <time>2020-06-19T09:37:21.139Z</time>
      </trkpt>
      <trkpt lat="47.17528" lon="0.17627">
        <ele>33.24705123901</ele>
        <time>2020-06-19T09:37:22.554Z</time>
      </trkpt>
      <trkpt lat="47.17517" lon="0.17656">
        <ele>31.93196678162</ele>
        <time>2020-06-19T09:37:23.972Z</time>
      </trkpt>
      <trkpt lat="47.17512" lon="0.17674">
        <ele>31.65601348877</ele>
        <time>2020-06-19T09:37:25.392Z</time>
      </trkpt>
      <trkpt lat="47.17495" lon="0.17737">
        <ele>31.30382728577</ele>
        <time>2020-06-19T09:37:26.820Z</time>
      </trkpt>
      <trkpt lat="47.17486" lon="0.17809">
        <ele>32.13765716553</ele>
        <time>2020-06-19T09:37:28.256Z</time>
      </trkpt>
      <trkpt lat="47.17481" lon="0.17851">
        <ele>33.02550888062</ele>
        <time>2020-06-19T09:37:29.696Z</time>
      </trkpt>
      <trkpt lat="47.17475" lon="0.17932">
        <ele>33.70641326904</ele>
        <time>2020-06-19T09:37:31.145Z</time>
      </trkpt>
      <trkpt lat="47.17469" lon="0.18028">
        <ele>31.49242401123</ele>
        <time>2020-06-19T09:37:32.605Z</time>
      </trkpt>
      <trkpt lat="47.17464" lon="0.18091">
        <ele>31.08365249634</ele>
        <time>2020-06-19T09:37:34.072Z</time>
      </trkpt>
      <trkpt lat="47.17463" lon="0.18108">
        <ele>31</ele>
        <time>2020-06-19T09:37:35.541Z</time>
      </trkpt>
      <trkpt lat="47.17462" lon="0.18172">
        <ele>31.52752113342</ele>
        <time>2020-06-19T09:37:37.017Z</time>
      </trkpt>
      <trkpt lat="47.17461" lon="0.182">
        <ele>31.32979774475</ele>
        <time>2020-06-19T09:37:38.496Z</time>
      </trkpt>
      <trkpt lat="47.17458" lon="0.18215">
        <ele>31.16470909119</ele>
        <time>2020-06-19T09:37:39.976Z</time>
      </trkpt>
      <trkpt lat="47.17452" lon="0.18265">
        <ele>31.46594810486</ele>
        <time>2020-06-19T09:37:41.462Z</time>
      </trkpt>
      <trkpt lat="47.17452" lon="0.18354">
        <ele>31.95459747314</ele>
        <time>2020-06-19T09:37:42.958Z</time>
      </trkpt>
      <trkpt lat="47.1745" lon="0.18386">
        <ele>31.66842842102</ele>
        <time>2020-06-19T09:37:44.457Z</time>
      </trkpt>
      <trkpt lat="47.17445" lon="0.18421">
        <ele>31.14040565491</ele>
        <time>2020-06-19T09:37:45.960Z</time>
      </trkpt>
      <trkpt lat="47.17439" lon="0.1849">
        <ele>31.97134590149</ele>
        <time>2020-06-19T09:37:47.471Z</time>
      </trkpt>
      <trkpt lat="47.17436" lon="0.18547">
        <ele>30.02677154541</ele>
        <time>2020-06-19T09:37:48.988Z</time>
      </trkpt>
      <trkpt lat="47.17434" lon="0.18617">
        <ele>30.27268600464</ele>
        <time>2020-06-19T09:37:50.512Z</time>
      </trkpt>
      <trkpt lat="47.17438" lon="0.187">
        <ele>32.26671600342</ele>
        <time>2020-06-19T09:37:52.046Z</time>
      </trkpt>
      <trkpt lat="47.17432" lon="0.18714">
        <ele>32.81218338013</ele>
        <time>2020-06-19T09:37:53.581Z</time>
      </trkpt>
      <trkpt lat="47.17427" lon="0.18729">
        <ele>33.25382232666</ele>
        <time>2020-06-19T09:37:55.118Z</time>
      </trkpt>
      <trkpt lat="47.17422" lon="0.18764">
        <ele>34.63359069824</ele>
        <time>2020-06-19T09:37:56.659Z</time>
      </trkpt>
      <trkpt lat="47.17417" lon="0.18816">
        <ele>36.18551254272</ele>
        <time>2020-06-19T09:37:58.206Z</time>
      </trkpt>
      <trkpt lat="47.1741" lon="0.18895">
        <ele>36.14590072632</ele>
        <time>2020-06-19T09:37:59.762Z</time>
      </trkpt>
      <trkpt lat="47.17407" lon="0.1896">
        <ele>33.05126190186</ele>
        <time>2020-06-19T09:38:01.325Z</time>
      </trkpt>
      <trkpt lat="47.174" lon="0.19053">
        <ele>30.09775924683</ele>
        <time>2020-06-19T09:38:02.898Z</time>
      </trkpt>
      <trkpt lat="47.17399" lon="0.19118">
        <ele>30.75326156616</ele>
        <time>2020-06-19T09:38:04.478Z</time>
      </trkpt>
      <trkpt lat="47.17404" lon="0.1913">
        <ele>30.60693740845</ele>
        <time>2020-06-19T09:38:06.059Z</time>
      </trkpt>
      <trkpt lat="47.17409" lon="0.19135">
        <ele>31.02686691284</ele>
        <time>2020-06-19T09:38:07.641Z</time>
      </trkpt>
      <trkpt lat="47.1742" lon="0.1914">
        <ele>31.07374382019</ele>
        <time>2020-06-19T09:38:09.225Z</time>
      </trkpt>
      <trkpt lat="47.17451" lon="0.19154">
        <ele>31.3341884613</ele>
        <time>2020-06-19T09:38:10.814Z</time>
      </trkpt>
      <trkpt lat="47.17472" lon="0.19159">
        <ele>31.71812438965</ele>
        <time>2020-06-19T09:38:12.407Z</time>
      </trkpt>
      <trkpt lat="47.17456" lon="0.192">
        <ele>31.64964675903</ele>
        <time>2020-06-19T09:38:14.005Z</time>
      </trkpt>
      <trkpt lat="47.17432" lon="0.19258">
        <ele>33.49737930298</ele>
        <time>2020-06-19T09:38:15.610Z</time>
      </trkpt>
      <trkpt lat="47.17426" lon="0.19277">
        <ele>33.35340118408</ele>
        <time>2020-06-19T09:38:17.218Z</time>
      </trkpt>
      <trkpt lat="47.17411" lon="0.19331">
        <ele>32.13359451294</ele>
        <time>2020-06-19T09:38:18.832Z</time>
      </trkpt>
      <trkpt lat="47.17394" lon="0.19423">
        <ele>30.79418754578</ele>
        <time>2020-06-19T09:38:20.457Z</time>
      </trkpt>
      <trkpt lat="47.17391" lon="0.1944">
        <ele>30.75677108765</ele>
        <time>2020-06-19T09:38:22.083Z</time>
      </trkpt>
      <trkpt lat="47.17377" lon="0.19516">
        <ele>31.11356544495</ele>
        <time>2020-06-19T09:38:23.718Z</time>
      </trkpt>
      <trkpt lat="47.17363" lon="0.19617">
        <ele>31.99174499512</ele>
        <time>2020-06-19T09:38:25.364Z</time>
      </trkpt>
      <trkpt lat="47.17356" lon="0.19669">
        <ele>32.01052474976</ele>
        <time>2020-06-19T09:38:27.016Z</time>
      </trkpt>
      <trkpt lat="47.17345" lon="0.19737">
        <ele>31.2048625946</ele>
        <time>2020-06-19T09:38:28.676Z</time>
      </trkpt>
      <trkpt lat="47.17325" lon="0.19828">
        <ele>30.96490287781</ele>
        <time>2020-06-19T09:38:30.346Z</time>
      </trkpt>
      <trkpt lat="47.17311" lon="0.19886">
        <ele>30.79693222046</ele>
        <time>2020-06-19T09:38:32.023Z</time>
      </trkpt>
      <trkpt lat="47.17304" lon="0.19922">
        <ele>30.71294593811</ele>
        <time>2020-06-19T09:38:33.704Z</time>
      </trkpt>
      <trkpt lat="47.17307" lon="0.19921">
        <ele>30.74893951416</ele>
        <time>2020-06-19T09:38:35.385Z</time>
      </trkpt>
      <trkpt lat="47.17314" lon="0.19924">
        <ele>30.83292579651</ele>
        <time>2020-06-19T09:38:37.068Z</time>
      </trkpt>
      <trkpt lat="47.17339" lon="0.19946">
        <ele>31</ele>
        <time>2020-06-19T09:38:38.755Z</time>
      </trkpt>
      <trkpt lat="47.17395" lon="0.19997">
        <ele>31</ele>
        <time>2020-06-19T09:38:40.453Z</time>
      </trkpt>
      <trkpt lat="47.17405" lon="0.20012">
        <ele>31</ele>
        <time>2020-06-19T09:38:42.153Z</time>
      </trkpt>
      <trkpt lat="47.1741" lon="0.20034">
        <ele>31</ele>
        <time>2020-06-19T09:38:43.856Z</time>
      </trkpt>
      <trkpt lat="47.17423" lon="0.2006">
        <ele>31.28141403198</ele>
        <time>2020-06-19T09:38:45.562Z</time>
      </trkpt>
      <trkpt lat="47.17441" lon="0.20082">
        <ele>31.71334266663</ele>
        <time>2020-06-19T09:38:47.272Z</time>
      </trkpt>
      <trkpt lat="47.17459" lon="0.20092">
        <ele>32.16317749023</ele>
        <time>2020-06-19T09:38:48.985Z</time>
      </trkpt>
      <trkpt lat="47.1747" lon="0.20093">
        <ele>32.66709518433</ele>
        <time>2020-06-19T09:38:50.700Z</time>
      </trkpt>
      <trkpt lat="47.17495" lon="0.20094">
        <ele>33.83222961426</ele>
        <time>2020-06-19T09:38:52.419Z</time>
      </trkpt>
      <trkpt lat="47.17495" lon="0.20094">
        <ele>33.83222198486</ele>
        <time>2020-06-19T09:38:54.138Z</time>
      </trkpt>
      <trkpt lat="47.17507" lon="0.20094">
        <ele>33.82464599609</ele>
        <time>2020-06-19T09:38:55.859Z</time>
      </trkpt>
      <trkpt lat="47.17508" lon="0.20094">
        <ele>33.82464599609</ele>
        <time>2020-06-19T09:38:57.580Z</time>
      </trkpt>
      <trkpt lat="47.17514" lon="0.20092">
        <ele>33.86716461182</ele>
        <time>2020-06-19T09:38:59.302Z</time>
      </trkpt>
      <trkpt lat="47.17514" lon="0.20092">
        <ele>33.86717987061</ele>
        <time>2020-06-19T09:39:01.024Z</time>
      </trkpt>
      <trkpt lat="47.17522" lon="0.2009">
        <ele>33.92262649536</ele>
        <time>2020-06-19T09:39:02.747Z</time>
      </trkpt>
      <trkpt lat="47.17522" lon="0.2009">
        <ele>33.92264556885</ele>
        <time>2020-06-19T09:39:04.470Z</time>
      </trkpt>
      <trkpt lat="47.17522" lon="0.2009">
        <ele>33.92267227173</ele>
        <time>2020-06-19T09:39:06.193Z</time>
      </trkpt>
      <trkpt lat="47.17526" lon="0.20089">
        <ele>33.95640182495</ele>
        <time>2020-06-19T09:39:07.917Z</time>
      </trkpt>
      <trkpt lat="47.17531" lon="0.20098">
        <ele>33.72469711304</ele>
        <time>2020-06-19T09:39:09.642Z</time>
      </trkpt>
      <trkpt lat="47.17515" lon="0.20115">
        <ele>33.3272857666</ele>
        <time>2020-06-19T09:39:11.370Z</time>
      </trkpt>
      <trkpt lat="47.17515" lon="0.20115">
        <ele>33.32692337036</ele>
        <time>2020-06-19T09:39:13.098Z</time>
      </trkpt>
      <trkpt lat="47.17505" lon="0.20126">
        <ele>33.06820297241</ele>
        <time>2020-06-19T09:39:14.828Z</time>
      </trkpt>
      <trkpt lat="47.17505" lon="0.20125">
        <ele>33.08076858521</ele>
        <time>2020-06-19T09:39:16.558Z</time>
      </trkpt>
      <trkpt lat="47.17495" lon="0.20119">
        <ele>33.2247467041</ele>
        <time>2020-06-19T09:39:18.290Z</time>
      </trkpt>
      <trkpt lat="47.17482" lon="0.20118">
        <ele>32.69717788696</ele>
        <time>2020-06-19T09:39:20.024Z</time>
      </trkpt>
      <trkpt lat="47.17474" lon="0.20121">
        <ele>32.51469802856</ele>
        <time>2020-06-19T09:39:21.759Z</time>
      </trkpt>
      <trkpt lat="47.17474" lon="0.20121">
        <ele>32.51464080811</ele>
        <time>2020-06-19T09:39:23.494Z</time>
      </trkpt>
      <trkpt lat="47.17474" lon="0.20121">
        <ele>32.51427841187</ele>
        <time>2020-06-19T09:39:25.229Z</time>
      </trkpt>
      <trkpt lat="47.1747" lon="0.20122">
        <ele>32.40922546387</ele>
        <time>2020-06-19T09:39:26.965Z</time>
      </trkpt>
      <trkpt lat="47.17462" lon="0.20128">
        <ele>32.21725845337</ele>
        <time>2020-06-19T09:39:28.703Z</time>
      </trkpt>
      <trkpt lat="47.17459" lon="0.20131">
        <ele>32.17687225342</ele>
        <time>2020-06-19T09:39:30.441Z</time>
      </trkpt>
      <trkpt lat="47.17453" lon="0.20131">
        <ele>32.03289794922</ele>
        <time>2020-06-19T09:39:32.180Z</time>
      </trkpt>
      <trkpt lat="47.17446" lon="0.20132">
        <ele>31.87692451477</ele>
        <time>2020-06-19T09:39:33.920Z</time>
      </trkpt>
      <trkpt lat="47.17436" lon="0.20131">
        <ele>31.62496566772</ele>
        <time>2020-06-19T09:39:35.662Z</time>
      </trkpt>
      <trkpt lat="47.17427" lon="0.20127">
        <ele>31.37739944458</ele>
        <time>2020-06-19T09:39:37.405Z</time>
      </trkpt>
      <trkpt lat="47.17386" lon="0.20103">
        <ele>30.69678115845</ele>
        <time>2020-06-19T09:39:39.155Z</time>
      </trkpt>
      <trkpt lat="47.17381" lon="0.201">
        <ele>30.65860939026</ele>
        <time>2020-06-19T09:39:40.906Z</time>
      </trkpt>
      <trkpt lat="47.17381" lon="0.201">
        <ele>30.6584815979</ele>
        <time>2020-06-19T09:39:42.657Z</time>
      </trkpt>
      <trkpt lat="47.17369" lon="0.20092">
        <ele>30.5636806488</ele>
        <time>2020-06-19T09:39:44.410Z</time>
      </trkpt>
      <trkpt lat="47.17331" lon="0.20067">
        <ele>30.26373100281</ele>
        <time>2020-06-19T09:39:46.170Z</time>
      </trkpt>
      <trkpt lat="47.17289" lon="0.20045">
        <ele>30.00022506714</ele>
        <time>2020-06-19T09:39:47.937Z</time>
      </trkpt>
      <trkpt lat="47.17163" lon="0.19993">
        <ele>30.97877311707</ele>
        <time>2020-06-19T09:39:49.725Z</time>
      </trkpt>
      <trkpt lat="47.17025" lon="0.19938">
        <ele>32.19409179688</ele>
        <time>2020-06-19T09:39:51.536Z</time>
      </trkpt>
      <trkpt lat="47.17025" lon="0.19938">
        <ele>32.194480896</ele>
        <time>2020-06-19T09:39:53.347Z</time>
      </trkpt>
      <trkpt lat="47.17012" lon="0.19933">
        <ele>32.47847366333</ele>
        <time>2020-06-19T09:39:55.160Z</time>
      </trkpt>
      <trkpt lat="47.16925" lon="0.19901">
        <ele>32.62157821655</ele>
        <time>2020-06-19T09:39:56.988Z</time>
      </trkpt>
      <trkpt lat="47.16929" lon="0.19887">
        <ele>33.00551223755</ele>
        <time>2020-06-19T09:39:58.817Z</time>
      </trkpt>
      <trkpt lat="47.16935" lon="0.19879">
        <ele>33.26947021484</ele>
        <time>2020-06-19T09:40:00.648Z</time>
      </trkpt>
      <trkpt lat="47.1694" lon="0.19876">
        <ele>33.34567260742</ele>
        <time>2020-06-19T09:40:02.479Z</time>
      </trkpt>
      <trkpt lat="47.16948" lon="0.19876">
        <ele>33.44165802002</ele>
        <time>2020-06-19T09:40:04.312Z</time>
      </trkpt>
      <trkpt lat="47.1699" lon="0.19894">
        <ele>33.56941986084</ele>
        <time>2020-06-19T09:40:06.152Z</time>
      </trkpt>
      <trkpt lat="47.17025" lon="0.19905">
        <ele>32.90349197388</ele>
        <time>2020-06-19T09:40:07.997Z</time>
      </trkpt>
      <trkpt lat="47.17001" lon="0.20016">
        <ele>32.23265457153</ele>
        <time>2020-06-19T09:40:09.855Z</time>
      </trkpt>
      <trkpt lat="47.16979" lon="0.2011">
        <ele>32</ele>
        <time>2020-06-19T09:40:11.724Z</time>
      </trkpt>
      <trkpt lat="47.16979" lon="0.2011">
        <ele>32</ele>
        <time>2020-06-19T09:40:13.593Z</time>
      </trkpt>
      <trkpt lat="47.16975" lon="0.20128">
        <ele>32</ele>
        <time>2020-06-19T09:40:15.464Z</time>
      </trkpt>
      <trkpt lat="47.16976" lon="0.20128">
        <ele>32</ele>
        <time>2020-06-19T09:40:17.335Z</time>
      </trkpt>
      <trkpt lat="47.16961" lon="0.20186">
        <ele>31.30850601196</ele>
        <time>2020-06-19T09:40:19.213Z</time>
      </trkpt>
      <trkpt lat="47.16945" lon="0.2024">
        <ele>31.33938598633</ele>
        <time>2020-06-19T09:40:21.097Z</time>
      </trkpt>
      <trkpt lat="47.16919" lon="0.20326">
        <ele>31.74242591858</ele>
        <time>2020-06-19T09:40:22.992Z</time>
      </trkpt>
      <trkpt lat="47.16904" lon="0.20376">
        <ele>32.74123382568</ele>
        <time>2020-06-19T09:40:24.893Z</time>
      </trkpt>
      <trkpt lat="47.1689" lon="0.20412">
        <ele>31.43123626709</ele>
        <time>2020-06-19T09:40:26.798Z</time>
      </trkpt>
      <trkpt lat="47.16853" lon="0.20498">
        <ele>31.86973953247</ele>
        <time>2020-06-19T09:40:28.714Z</time>
      </trkpt>
      <trkpt lat="47.1683" lon="0.20539">
        <ele>32.85357666016</ele>
        <time>2020-06-19T09:40:30.636Z</time>
      </trkpt>
      <trkpt lat="47.16812" lon="0.20579">
        <ele>32.22186660767</ele>
        <time>2020-06-19T09:40:32.563Z</time>
      </trkpt>
      <trkpt lat="47.16812" lon="0.20579">
        <ele>32.22136688232</ele>
        <time>2020-06-19T09:40:34.490Z</time>
      </trkpt>
      <trkpt lat="47.16809" lon="0.20586">
        <ele>32.05717849731</ele>
        <time>2020-06-19T09:40:36.418Z</time>
      </trkpt>
      <trkpt lat="47.16804" lon="0.20598">
        <ele>31.79322052002</ele>
        <time>2020-06-19T09:40:38.348Z</time>
      </trkpt>
      <trkpt lat="47.16789" lon="0.20638">
        <ele>31.64856529236</ele>
        <time>2020-06-19T09:40:40.283Z</time>
      </trkpt>
      <trkpt lat="47.16771" lon="0.207">
        <ele>32.7169303894</ele>
        <time>2020-06-19T09:40:42.225Z</time>
      </trkpt>
      <trkpt lat="47.16745" lon="0.208">
        <ele>33.10440444946</ele>
        <time>2020-06-19T09:40:44.179Z</time>
      </trkpt>
      <trkpt lat="47.16734" lon="0.20864">
        <ele>34.77819061279</ele>
        <time>2020-06-19T09:40:46.140Z</time>
      </trkpt>
      <trkpt lat="47.16718" lon="0.20915">
        <ele>35</ele>
        <time>2020-06-19T09:40:48.107Z</time>
      </trkpt>
      <trkpt lat="47.16712" lon="0.2094">
        <ele>35.2557144165</ele>
        <time>2020-06-19T09:40:50.077Z</time>
      </trkpt>
      <trkpt lat="47.16704" lon="0.20982">
        <ele>35.97171020508</ele>
        <time>2020-06-19T09:40:52.052Z</time>
      </trkpt>
      <trkpt lat="47.16699" lon="0.21044">
        <ele>35.02844619751</ele>
        <time>2020-06-19T09:40:54.034Z</time>
      </trkpt>
      <trkpt lat="47.16697" lon="0.21071">
        <ele>35</ele>
        <time>2020-06-19T09:40:56.019Z</time>
      </trkpt>
      <trkpt lat="47.16689" lon="0.21122">
        <ele>34.41255187988</ele>
        <time>2020-06-19T09:40:58.009Z</time>
      </trkpt>
      <trkpt lat="47.16677" lon="0.21212">
        <ele>33</ele>
        <time>2020-06-19T09:41:00.009Z</time>
      </trkpt>
      <trkpt lat="47.16671" lon="0.21273">
        <ele>32.38489151001</ele>
        <time>2020-06-19T09:41:02.016Z</time>
      </trkpt>
      <trkpt lat="47.16661" lon="0.21369">
        <ele>30.22974395752</ele>
        <time>2020-06-19T09:41:04.034Z</time>
      </trkpt>
      <trkpt lat="47.16657" lon="0.21428">
        <ele>29.45675086975</ele>
        <time>2020-06-19T09:41:06.058Z</time>
      </trkpt>
      <trkpt lat="47.16657" lon="0.21462">
        <ele>29.10140609741</ele>
        <time>2020-06-19T09:41:08.086Z</time>
      </trkpt>
      <trkpt lat="47.16655" lon="0.21568">
        <ele>32.16467666626</ele>
        <time>2020-06-19T09:41:10.125Z</time>
      </trkpt>
      <trkpt lat="47.1665" lon="0.21743">
        <ele>36.34351730347</ele>
        <time>2020-06-19T09:41:12.183Z</time>
      </trkpt>
      <trkpt lat="47.16652" lon="0.21786">
        <ele>37.44733428955</ele>
        <time>2020-06-19T09:41:14.246Z</time>
      </trkpt>
      <trkpt lat="47.16657" lon="0.21838">
        <ele>37.80095672607</ele>
        <time>2020-06-19T09:41:16.315Z</time>
      </trkpt>
      <trkpt lat="47.16677" lon="0.21954">
        <ele>38.85691833496</ele>
        <time>2020-06-19T09:41:18.397Z</time>
      </trkpt>
      <trkpt lat="47.1668" lon="0.21983">
        <ele>38.77480316162</ele>
        <time>2020-06-19T09:41:20.482Z</time>
      </trkpt>
      <trkpt lat="47.1668" lon="0.21983">
        <ele>38.77380752563</ele>
        <time>2020-06-19T09:41:22.567Z</time>
      </trkpt>
      <trkpt lat="47.16683" lon="0.22009">
        <ele>37.78408050537</ele>
        <time>2020-06-19T09:41:24.655Z</time>
      </trkpt>
      <trkpt lat="47.16683" lon="0.22126">
        <ele>33.39173126221</ele>
        <time>2020-06-19T09:41:26.756Z</time>
      </trkpt>
      <trkpt lat="47.1668" lon="0.22191">
        <ele>33.97367858887</ele>
        <time>2020-06-19T09:41:28.864Z</time>
      </trkpt>
      <trkpt lat="47.16673" lon="0.22266">
        <ele>36.2264175415</ele>
        <time>2020-06-19T09:41:30.980Z</time>
      </trkpt>
      <trkpt lat="47.16659" lon="0.22377">
        <ele>35.90181732178</ele>
        <time>2020-06-19T09:41:33.109Z</time>
      </trkpt>
      <trkpt lat="47.16651" lon="0.22431">
        <ele>35.00774765015</ele>
        <time>2020-06-19T09:41:35.244Z</time>
      </trkpt>
      <trkpt lat="47.16639" lon="0.22503">
        <ele>35.22513580322</ele>
        <time>2020-06-19T09:41:37.387Z</time>
      </trkpt>
      <trkpt lat="47.1663" lon="0.22532">
        <ele>34.8275680542</ele>
        <time>2020-06-19T09:41:39.533Z</time>
      </trkpt>
      <trkpt lat="47.16626" lon="0.22559">
        <ele>34.31320571899</ele>
        <time>2020-06-19T09:41:41.682Z</time>
      </trkpt>
      <trkpt lat="47.16602" lon="0.22654">
        <ele>33.58069992065</ele>
        <time>2020-06-19T09:41:43.842Z</time>
      </trkpt>
      <trkpt lat="47.16567" lon="0.22776">
        <ele>33.76631546021</ele>
        <time>2020-06-19T09:41:46.017Z</time>
      </trkpt>
      <trkpt lat="47.16543" lon="0.22852">
        <ele>36.19942092896</ele>
        <time>2020-06-19T09:41:48.201Z</time>
      </trkpt>
      <trkpt lat="47.16532" lon="0.22887">
        <ele>37.20374298096</ele>
        <time>2020-06-19T09:41:50.389Z</time>
      </trkpt>
      <trkpt lat="47.16532" lon="0.22887">
        <ele>37.20442199707</ele>
        <time>2020-06-19T09:41:52.577Z</time>
      </trkpt>
      <trkpt lat="47.16524" lon="0.22913">
        <ele>37.93913269043</ele>
        <time>2020-06-19T09:41:54.768Z</time>
      </trkpt>
      <trkpt lat="47.16474" lon="0.23066">
        <ele>36.79076766968</ele>
        <time>2020-06-19T09:41:56.978Z</time>
      </trkpt>
      <trkpt lat="47.16432" lon="0.23187">
        <ele>33.50137710571</ele>
        <time>2020-06-19T09:41:59.202Z</time>
      </trkpt>
      <trkpt lat="47.16381" lon="0.23345">
        <ele>34.67680358887</ele>
        <time>2020-06-19T09:42:01.446Z</time>
      </trkpt>
      <trkpt lat="47.16374" lon="0.23371">
        <ele>34.54006958008</ele>
        <time>2020-06-19T09:42:03.693Z</time>
      </trkpt>
      <trkpt lat="47.16367" lon="0.23422">
        <ele>33.9659538269</ele>
        <time>2020-06-19T09:42:05.945Z</time>
      </trkpt>
      <trkpt lat="47.16365" lon="0.23443">
        <ele>33.46203994751</ele>
        <time>2020-06-19T09:42:08.200Z</time>
      </trkpt>
      <trkpt lat="47.16368" lon="0.23466">
        <ele>33.04493331909</ele>
        <time>2020-06-19T09:42:10.457Z</time>
      </trkpt>
      <trkpt lat="47.16373" lon="0.2353">
        <ele>34.08280563354</ele>
        <time>2020-06-19T09:42:12.721Z</time>
      </trkpt>
      <trkpt lat="47.16384" lon="0.23641">
        <ele>34.03604507446</ele>
        <time>2020-06-19T09:42:14.997Z</time>
      </trkpt>
      <trkpt lat="47.16391" lon="0.23771">
        <ele>32.72368621826</ele>
        <time>2020-06-19T09:42:17.288Z</time>
      </trkpt>
      <trkpt lat="47.16391" lon="0.23775">
        <ele>32.71533203125</ele>
        <time>2020-06-19T09:42:19.579Z</time>
      </trkpt>
      <trkpt lat="47.16391" lon="0.23775">
        <ele>32.71527862549</ele>
        <time>2020-06-19T09:42:21.870Z</time>
      </trkpt>
      <trkpt lat="47.16393" lon="0.23806">
        <ele>32.90020751953</ele>
        <time>2020-06-19T09:42:24.165Z</time>
      </trkpt>
      <trkpt lat="47.16394" lon="0.23833">
        <ele>33.51210784912</ele>
        <time>2020-06-19T09:42:26.462Z</time>
      </trkpt>
      <trkpt lat="47.16387" lon="0.23856">
        <ele>34.26247024536</ele>
        <time>2020-06-19T09:42:28.762Z</time>
      </trkpt>
      <trkpt lat="47.16385" lon="0.23863">
        <ele>34.06683349609</ele>
        <time>2020-06-19T09:42:31.063Z</time>
      </trkpt>
      <trkpt lat="47.16385" lon="0.23863">
        <ele>34.06617355347</ele>
        <time>2020-06-19T09:42:33.364Z</time>
      </trkpt>
      <trkpt lat="47.16383" lon="0.2387">
        <ele>33.87853240967</ele>
        <time>2020-06-19T09:42:35.666Z</time>
      </trkpt>
      <trkpt lat="47.16371" lon="0.23885">
        <ele>33.44671630859</ele>
        <time>2020-06-19T09:42:37.970Z</time>
      </trkpt>
      <trkpt lat="47.16357" lon="0.239">
        <ele>33.0987739563</ele>
        <time>2020-06-19T09:42:40.277Z</time>
      </trkpt>
      <trkpt lat="47.16354" lon="0.23915">
        <ele>33</ele>
        <time>2020-06-19T09:42:42.586Z</time>
      </trkpt>
      <trkpt lat="47.16332" lon="0.23972">
        <ele>32.95568466187</ele>
        <time>2020-06-19T09:42:44.902Z</time>
      </trkpt>
      <trkpt lat="47.16331" lon="0.23972">
        <ele>32.95579147339</ele>
        <time>2020-06-19T09:42:47.218Z</time>
      </trkpt>
      <trkpt lat="47.16321" lon="0.23998">
        <ele>33.08108901978</ele>
        <time>2020-06-19T09:42:49.537Z</time>
      </trkpt>
      <trkpt lat="47.16302" lon="0.24037">
        <ele>33.30905151367</ele>
        <time>2020-06-19T09:42:51.862Z</time>
      </trkpt>
      <trkpt lat="47.16288" lon="0.24073">
        <ele>33.14930343628</ele>
        <time>2020-06-19T09:42:54.191Z</time>
      </trkpt>
      <trkpt lat="47.16283" lon="0.24087">
        <ele>33.005443573</ele>
        <time>2020-06-19T09:42:56.522Z</time>
      </trkpt>
      <trkpt lat="47.16283" lon="0.24087">
        <ele>33.00489044189</ele>
        <time>2020-06-19T09:42:58.853Z</time>
      </trkpt>
      <trkpt lat="47.16273" lon="0.24115">
        <ele>32.33672714233</ele>
        <time>2020-06-19T09:43:01.187Z</time>
      </trkpt>
      <trkpt lat="47.1626" lon="0.24153">
        <ele>32.84004592896</ele>
        <time>2020-06-19T09:43:03.526Z</time>
      </trkpt>
      <trkpt lat="47.1626" lon="0.24153">
        <ele>32.84003067017</ele>
        <time>2020-06-19T09:43:05.865Z</time>
      </trkpt>
      <trkpt lat="47.1625" lon="0.24181">
        <ele>32.82466506958</ele>
        <time>2020-06-19T09:43:08.207Z</time>
      </trkpt>
      <trkpt lat="47.16237" lon="0.24217">
        <ele>32.91116714478</ele>
        <time>2020-06-19T09:43:10.554Z</time>
      </trkpt>
      <trkpt lat="47.16237" lon="0.24217">
        <ele>32.91106796265</ele>
        <time>2020-06-19T09:43:12.901Z</time>
      </trkpt>
      <trkpt lat="47.16227" lon="0.24245">
        <ele>32.79109954834</ele>
        <time>2020-06-19T09:43:15.251Z</time>
      </trkpt>
      <trkpt lat="47.16217" lon="0.24275">
        <ele>32.83151626587</ele>
        <time>2020-06-19T09:43:17.605Z</time>
      </trkpt>
      <trkpt lat="47.16211" lon="0.24308">
        <ele>33.25362014771</ele>
        <time>2020-06-19T09:43:19.963Z</time>
      </trkpt>
      <trkpt lat="47.16194" lon="0.24349">
        <ele>32.96566772461</ele>
        <time>2020-06-19T09:43:22.326Z</time>
      </trkpt>
      <trkpt lat="47.16189" lon="0.24357">
        <ele>32.92779159546</ele>
        <time>2020-06-19T09:43:24.690Z</time>
      </trkpt>
      <trkpt lat="47.16189" lon="0.24357">
        <ele>32.92770767212</ele>
        <time>2020-06-19T09:43:27.054Z</time>
      </trkpt>
      <trkpt lat="47.16181" lon="0.2437">
        <ele>32.86968231201</ele>
        <time>2020-06-19T09:43:29.420Z</time>
      </trkpt>
      <trkpt lat="47.16173" lon="0.24378">
        <ele>32.86968231201</ele>
        <time>2020-06-19T09:43:31.788Z</time>
      </trkpt>
      <trkpt lat="47.16123" lon="0.24426">
        <ele>33</ele>
        <time>2020-06-19T09:43:34.165Z</time>
      </trkpt>
      <trkpt lat="47.16123" lon="0.24426">
        <ele>33</ele>
        <time>2020-06-19T09:43:36.542Z</time>
      </trkpt>
      <trkpt lat="47.16105" lon="0.24443">
        <ele>33</ele>
        <time>2020-06-19T09:43:38.923Z</time>
      </trkpt>
      <trkpt lat="47.16041" lon="0.24504">
        <ele>32.06061172485</ele>
        <time>2020-06-19T09:43:41.316Z</time>
      </trkpt>
      <trkpt lat="47.16008" lon="0.24535">
        <ele>29.87821960449</ele>
        <time>2020-06-19T09:43:43.715Z</time>
      </trkpt>
      <trkpt lat="47.15993" lon="0.24541">
        <ele>29.12234687805</ele>
        <time>2020-06-19T09:43:46.117Z</time>
      </trkpt>
      <trkpt lat="47.15955" lon="0.24554">
        <ele>29.09875869751</ele>
        <time>2020-06-19T09:43:48.525Z</time>
      </trkpt>
      <trkpt lat="47.15894" lon="0.2457">
        <ele>30.57137680054</ele>
        <time>2020-06-19T09:43:50.943Z</time>
      </trkpt>
      <trkpt lat="47.15873" lon="0.24575">
        <ele>31.31525421143</ele>
        <time>2020-06-19T09:43:53.364Z</time>
      </trkpt>
      <trkpt lat="47.1586" lon="0.24566">
        <ele>31.19527435303</ele>
        <time>2020-06-19T09:43:55.787Z</time>
      </trkpt>
      <trkpt lat="47.15843" lon="0.24563">
        <ele>31.45922851562</ele>
        <time>2020-06-19T09:43:58.213Z</time>
      </trkpt>
      <trkpt lat="47.15825" lon="0.24566">
        <ele>32.03513336182</ele>
        <time>2020-06-19T09:44:00.642Z</time>
      </trkpt>
      <trkpt lat="47.15814" lon="0.2456">
        <ele>32.01113891602</ele>
        <time>2020-06-19T09:44:03.073Z</time>
      </trkpt>
      <trkpt lat="47.15744" lon="0.24489">
        <ele>33.00786972046</ele>
        <time>2020-06-19T09:44:05.518Z</time>
      </trkpt>
      <trkpt lat="47.15691" lon="0.24435">
        <ele>34.60866165161</ele>
        <time>2020-06-19T09:44:07.973Z</time>
      </trkpt>
      <trkpt lat="47.15666" lon="0.2441">
        <ele>35.5085105896</ele>
        <time>2020-06-19T09:44:10.433Z</time>
      </trkpt>
      <trkpt lat="47.15652" lon="0.24382">
        <ele>35.96489715576</ele>
        <time>2020-06-19T09:44:12.897Z</time>
      </trkpt>
      <trkpt lat="47.15642" lon="0.24394">
        <ele>35.82092285156</ele>
        <time>2020-06-19T09:44:15.363Z</time>
      </trkpt>
      <trkpt lat="47.15596" lon="0.24347">
        <ele>35.23034667969</ele>
        <time>2020-06-19T09:44:17.838Z</time>
      </trkpt>
      <trkpt lat="47.15515" lon="0.24266">
        <ele>32.93000411987</ele>
        <time>2020-06-19T09:44:20.328Z</time>
      </trkpt>
      <trkpt lat="47.15476" lon="0.24228">
        <ele>32.6743812561</ele>
        <time>2020-06-19T09:44:22.826Z</time>
      </trkpt>
      <trkpt lat="47.15476" lon="0.24228">
        <ele>32.67475128174</ele>
        <time>2020-06-19T09:44:25.324Z</time>
      </trkpt>
      <trkpt lat="47.15457" lon="0.2421">
        <ele>33.20825195312</ele>
        <time>2020-06-19T09:44:27.825Z</time>
      </trkpt>
      <trkpt lat="47.15457" lon="0.24209">
        <ele>33.19625473022</ele>
        <time>2020-06-19T09:44:30.326Z</time>
      </trkpt>
      <trkpt lat="47.15282" lon="0.24035">
        <ele>33.8717956543</ele>
        <time>2020-06-19T09:44:32.861Z</time>
      </trkpt>
      <trkpt lat="47.15241" lon="0.23994">
        <ele>33.41053771973</ele>
        <time>2020-06-19T09:44:35.404Z</time>
      </trkpt>
      <trkpt lat="47.15241" lon="0.23994">
        <ele>33.41053390503</ele>
        <time>2020-06-19T09:44:37.947Z</time>
      </trkpt>
      <trkpt lat="47.15223" lon="0.23975">
        <ele>33.4068107605</ele>
        <time>2020-06-19T09:44:40.494Z</time>
      </trkpt>
      <trkpt lat="47.1512" lon="0.23889">
        <ele>35.76783370972</ele>
        <time>2020-06-19T09:44:43.060Z</time>
      </trkpt>
      <trkpt lat="47.1512" lon="0.23889">
        <ele>35.7681350708</ele>
        <time>2020-06-19T09:44:45.626Z</time>
      </trkpt>
      <trkpt lat="47.15101" lon="0.23872">
        <ele>35.92119598389</ele>
        <time>2020-06-19T09:44:48.195Z</time>
      </trkpt>
      <trkpt lat="47.1503" lon="0.23817">
        <ele>35.25662994385</ele>
        <time>2020-06-19T09:44:50.777Z</time>
      </trkpt>
      <trkpt lat="47.1503" lon="0.23817">
        <ele>35.25648880005</ele>
        <time>2020-06-19T09:44:53.359Z</time>
      </trkpt>
      <trkpt lat="47.1501" lon="0.23802">
        <ele>35.07161712646</ele>
        <time>2020-06-19T09:44:55.945Z</time>
      </trkpt>
      <trkpt lat="47.14955" lon="0.23783">
        <ele>34.84976577759</ele>
        <time>2020-06-19T09:44:58.540Z</time>
      </trkpt>
      <trkpt lat="47.14955" lon="0.23783">
        <ele>34.84976196289</ele>
        <time>2020-06-19T09:45:01.135Z</time>
      </trkpt>
      <trkpt lat="47.14933" lon="0.23776">
        <ele>34.76267623901</ele>
        <time>2020-06-19T09:45:03.734Z</time>
      </trkpt>
      <trkpt lat="47.14899" lon="0.23766">
        <ele>34.77663421631</ele>
        <time>2020-06-19T09:45:06.338Z</time>
      </trkpt>
      <trkpt lat="47.14899" lon="0.23766">
        <ele>34.77672958374</ele>
        <time>2020-06-19T09:45:08.942Z</time>
      </trkpt>
      <trkpt lat="47.14899" lon="0.23766">
        <ele>34.77677536011</ele>
        <time>2020-06-19T09:45:11.546Z</time>
      </trkpt>
      <trkpt lat="47.14877" lon="0.23759">
        <ele>34.95794677734</ele>
        <time>2020-06-19T09:45:14.154Z</time>
      </trkpt>
      <trkpt lat="47.14745" lon="0.23777">
        <ele>35.01039123535</ele>
        <time>2020-06-19T09:45:16.783Z</time>
      </trkpt>
      <trkpt lat="47.14745" lon="0.23777">
        <ele>35.00989151001</ele>
        <time>2020-06-19T09:45:19.412Z</time>
      </trkpt>
      <trkpt lat="47.14723" lon="0.2378">
        <ele>35.25721740723</ele>
        <time>2020-06-19T09:45:22.044Z</time>
      </trkpt>
      <trkpt lat="47.14661" lon="0.23808">
        <ele>35.84896087646</ele>
        <time>2020-06-19T09:45:24.687Z</time>
      </trkpt>
      <trkpt lat="47.14661" lon="0.23808">
        <ele>35.84889221191</ele>
        <time>2020-06-19T09:45:27.330Z</time>
      </trkpt>
      <trkpt lat="47.14661" lon="0.23808">
        <ele>35.84886932373</ele>
        <time>2020-06-19T09:45:29.973Z</time>
      </trkpt>
      <trkpt lat="47.1464" lon="0.23818">
        <ele>35.73157501221</ele>
        <time>2020-06-19T09:45:32.619Z</time>
      </trkpt>
      <trkpt lat="47.14518" lon="0.23953">
        <ele>35.03561401367</ele>
        <time>2020-06-19T09:45:35.290Z</time>
      </trkpt>
      <trkpt lat="47.14518" lon="0.23953">
        <ele>35.03629302979</ele>
        <time>2020-06-19T09:45:37.961Z</time>
      </trkpt>
      <trkpt lat="47.145" lon="0.23973">
        <ele>35.94807052612</ele>
        <time>2020-06-19T09:45:40.635Z</time>
      </trkpt>
      <trkpt lat="47.14469" lon="0.24039">
        <ele>35.68271255493</ele>
        <time>2020-06-19T09:45:43.318Z</time>
      </trkpt>
      <trkpt lat="47.14469" lon="0.24039">
        <ele>35.68269729614</ele>
        <time>2020-06-19T09:45:46.001Z</time>
      </trkpt>
      <trkpt lat="47.14457" lon="0.24066">
        <ele>35.90325164795</ele>
        <time>2020-06-19T09:45:48.688Z</time>
      </trkpt>
      <trkpt lat="47.14427" lon="0.24155">
        <ele>36.80709457397</ele>
        <time>2020-06-19T09:45:51.386Z</time>
      </trkpt>
      <trkpt lat="47.14427" lon="0.24155">
        <ele>36.80718612671</ele>
        <time>2020-06-19T09:45:54.084Z</time>
      </trkpt>
      <trkpt lat="47.14417" lon="0.24184">
        <ele>36.92440795898</ele>
        <time>2020-06-19T09:45:56.785Z</time>
      </trkpt>
      <trkpt lat="47.14415" lon="0.24194">
        <ele>36.95557785034</ele>
        <time>2020-06-19T09:45:59.487Z</time>
      </trkpt>
      <trkpt lat="47.14415" lon="0.24194">
        <ele>36.95565032959</ele>
        <time>2020-06-19T09:46:02.189Z</time>
      </trkpt>
      <trkpt lat="47.14406" lon="0.24224">
        <ele>37.10453414917</ele>
        <time>2020-06-19T09:46:04.895Z</time>
      </trkpt>
      <trkpt lat="47.14375" lon="0.24394">
        <ele>37.40644073486</ele>
        <time>2020-06-19T09:46:07.620Z</time>
      </trkpt>
      <trkpt lat="47.14375" lon="0.24394">
        <ele>37.40740585327</ele>
        <time>2020-06-19T09:46:10.345Z</time>
      </trkpt>
      <trkpt lat="47.14369" lon="0.24426">
        <ele>38.61399459839</ele>
        <time>2020-06-19T09:46:13.074Z</time>
      </trkpt>
      <trkpt lat="47.14337" lon="0.24597">
        <ele>40.2735786438</ele>
        <time>2020-06-19T09:46:15.822Z</time>
      </trkpt>
      <trkpt lat="47.14337" lon="0.24597">
        <ele>40.27334976196</ele>
        <time>2020-06-19T09:46:18.570Z</time>
      </trkpt>
      <trkpt lat="47.14331" lon="0.24628">
        <ele>39.9697303772</ele>
        <time>2020-06-19T09:46:21.322Z</time>
      </trkpt>
      <trkpt lat="47.14297" lon="0.24806">
        <ele>39</ele>
        <time>2020-06-19T09:46:24.094Z</time>
      </trkpt>
      <trkpt lat="47.14297" lon="0.24806">
        <ele>39</ele>
        <time>2020-06-19T09:46:26.866Z</time>
      </trkpt>
      <trkpt lat="47.14291" lon="0.24837">
        <ele>39</ele>
        <time>2020-06-19T09:46:29.641Z</time>
      </trkpt>
      <trkpt lat="47.14257" lon="0.25018">
        <ele>38.70240020752</ele>
        <time>2020-06-19T09:46:32.437Z</time>
      </trkpt>
      <trkpt lat="47.14257" lon="0.25018">
        <ele>38.70250701904</ele>
        <time>2020-06-19T09:46:35.233Z</time>
      </trkpt>
      <trkpt lat="47.14251" lon="0.25049">
        <ele>38.84635162354</ele>
        <time>2020-06-19T09:46:38.032Z</time>
      </trkpt>
      <trkpt lat="47.14216" lon="0.2522">
        <ele>39.47959136963</ele>
        <time>2020-06-19T09:46:40.851Z</time>
      </trkpt>
      <trkpt lat="47.14216" lon="0.2522">
        <ele>39.47898483276</ele>
        <time>2020-06-19T09:46:43.670Z</time>
      </trkpt>
      <trkpt lat="47.1421" lon="0.25252">
        <ele>38.65856933594</ele>
        <time>2020-06-19T09:46:46.492Z</time>
      </trkpt>
      <trkpt lat="47.14162" lon="0.25503">
        <ele>39.5097694397</ele>
        <time>2020-06-19T09:46:49.343Z</time>
      </trkpt>
      <trkpt lat="47.14162" lon="0.25504">
        <ele>39.5094909668</ele>
        <time>2020-06-19T09:46:52.194Z</time>
      </trkpt>
      <trkpt lat="47.14156" lon="0.25535">
        <ele>39.25327301025</ele>
        <time>2020-06-19T09:46:55.048Z</time>
      </trkpt>
      <trkpt lat="47.14114" lon="0.25764">
        <ele>39.38619613647</ele>
        <time>2020-06-19T09:46:57.928Z</time>
      </trkpt>
      <trkpt lat="47.14114" lon="0.25764">
        <ele>39.38592529297</ele>
        <time>2020-06-19T09:47:00.808Z</time>
      </trkpt>
      <trkpt lat="47.14108" lon="0.25795">
        <ele>39.01233673096</ele>
        <time>2020-06-19T09:47:03.692Z</time>
      </trkpt>
      <trkpt lat="47.14075" lon="0.25972">
        <ele>39.95122146606</ele>
        <time>2020-06-19T09:47:06.596Z</time>
      </trkpt>
      <trkpt lat="47.14075" lon="0.25972">
        <ele>39.95104980469</ele>
        <time>2020-06-19T09:47:09.500Z</time>
      </trkpt>
      <trkpt lat="47.14069" lon="0.26003">
        <ele>39.71573257446</ele>
        <time>2020-06-19T09:47:12.408Z</time>
      </trkpt>
      <trkpt lat="47.14016" lon="0.26286">
        <ele>39.20185470581</ele>
        <time>2020-06-19T09:47:15.347Z</time>
      </trkpt>
      <trkpt lat="47.14016" lon="0.26286">
        <ele>39.202003479</ele>
        <time>2020-06-19T09:47:18.286Z</time>
      </trkpt>
      <trkpt lat="47.1401" lon="0.26317">
        <ele>39.55690002441</ele>
        <time>2020-06-19T09:47:21.229Z</time>
      </trkpt>
      <trkpt lat="47.13971" lon="0.26523">
        <ele>38.28058624268</ele>
        <time>2020-06-19T09:47:24.195Z</time>
      </trkpt>
      <trkpt lat="47.13971" lon="0.26523">
        <ele>38.28095245361</ele>
        <time>2020-06-19T09:47:27.161Z</time>
      </trkpt>
      <trkpt lat="47.13965" lon="0.26554">
        <ele>38.59850692749</ele>
        <time>2020-06-19T09:47:30.131Z</time>
      </trkpt>
      <trkpt lat="47.13916" lon="0.26813">
        <ele>38</ele>
        <time>2020-06-19T09:47:33.130Z</time>
      </trkpt>
      <trkpt lat="47.13916" lon="0.26813">
        <ele>38</ele>
        <time>2020-06-19T09:47:36.129Z</time>
      </trkpt>
      <trkpt lat="47.13911" lon="0.26844">
        <ele>38.01117706299</ele>
        <time>2020-06-19T09:47:39.132Z</time>
      </trkpt>
      <trkpt lat="47.13879" lon="0.27012">
        <ele>40.86505889893</ele>
        <time>2020-06-19T09:47:42.154Z</time>
      </trkpt>
      <trkpt lat="47.13879" lon="0.27012">
        <ele>40.86483001709</ele>
        <time>2020-06-19T09:47:45.176Z</time>
      </trkpt>
      <trkpt lat="47.13873" lon="0.27043">
        <ele>40.65520858765</ele>
        <time>2020-06-19T09:47:48.201Z</time>
      </trkpt>
      <trkpt lat="47.13821" lon="0.27301">
        <ele>39</ele>
        <time>2020-06-19T09:47:51.256Z</time>
      </trkpt>
      <trkpt lat="47.13821" lon="0.27301">
        <ele>39</ele>
        <time>2020-06-19T09:47:54.311Z</time>
      </trkpt>
      <trkpt lat="47.13815" lon="0.27332">
        <ele>39</ele>
        <time>2020-06-19T09:47:57.369Z</time>
      </trkpt>
      <trkpt lat="47.13718" lon="0.27837">
        <ele>39.83045578003</ele>
        <time>2020-06-19T09:48:00.485Z</time>
      </trkpt>
      <trkpt lat="47.13718" lon="0.27837">
        <ele>39.83012771606</ele>
        <time>2020-06-19T09:48:03.601Z</time>
      </trkpt>
      <trkpt lat="47.13712" lon="0.27867">
        <ele>39.53513717651</ele>
        <time>2020-06-19T09:48:06.720Z</time>
      </trkpt>
      <trkpt lat="47.13645" lon="0.28224">
        <ele>38.815990448</ele>
        <time>2020-06-19T09:48:09.879Z</time>
      </trkpt>
      <trkpt lat="47.13645" lon="0.28224">
        <ele>38.81591796875</ele>
        <time>2020-06-19T09:48:13.038Z</time>
      </trkpt>
      <trkpt lat="47.1364" lon="0.28255">
        <ele>38.74667358398</ele>
        <time>2020-06-19T09:48:16.201Z</time>
      </trkpt>
      <trkpt lat="47.13626" lon="0.28307">
        <ele>38.29705047607</ele>
        <time>2020-06-19T09:48:19.370Z</time>
      </trkpt>
      <trkpt lat="47.13626" lon="0.28307">
        <ele>38.29723739624</ele>
        <time>2020-06-19T09:48:22.539Z</time>
      </trkpt>
      <trkpt lat="47.13618" lon="0.28337">
        <ele>38.47501373291</ele>
        <time>2020-06-19T09:48:25.712Z</time>
      </trkpt>
      <trkpt lat="47.13604" lon="0.28373">
        <ele>37.94630050659</ele>
        <time>2020-06-19T09:48:28.889Z</time>
      </trkpt>
      <trkpt lat="47.13604" lon="0.28373">
        <ele>37.9458694458</ele>
        <time>2020-06-19T09:48:32.066Z</time>
      </trkpt>
      <trkpt lat="47.13592" lon="0.28401">
        <ele>37.51545715332</ele>
        <time>2020-06-19T09:48:35.247Z</time>
      </trkpt>
      <trkpt lat="47.13579" lon="0.28427">
        <ele>38.1293182373</ele>
        <time>2020-06-19T09:48:38.431Z</time>
      </trkpt>
      <trkpt lat="47.13579" lon="0.28427">
        <ele>38.12997055054</ele>
        <time>2020-06-19T09:48:41.615Z</time>
      </trkpt>
      <trkpt lat="47.13566" lon="0.28453">
        <ele>39.39557266235</ele>
        <time>2020-06-19T09:48:44.803Z</time>
      </trkpt>
      <trkpt lat="47.13536" lon="0.28492">
        <ele>39.63505172729</ele>
        <time>2020-06-19T09:48:47.997Z</time>
      </trkpt>
      <trkpt lat="47.13536" lon="0.28492">
        <ele>39.63519287109</ele>
        <time>2020-06-19T09:48:51.191Z</time>
      </trkpt>
      <trkpt lat="47.1352" lon="0.28514">
        <ele>39.7716255188</ele>
        <time>2020-06-19T09:48:54.389Z</time>
      </trkpt>
      <trkpt lat="47.13506" lon="0.28527">
        <ele>39.93489074707</ele>
        <time>2020-06-19T09:48:57.589Z</time>
      </trkpt>
      <trkpt lat="47.13506" lon="0.28527">
        <ele>39.9351234436</ele>
        <time>2020-06-19T09:49:00.789Z</time>
      </trkpt>
      <trkpt lat="47.13488" lon="0.28545">
        <ele>40.10147094727</ele>
        <time>2020-06-19T09:49:03.993Z</time>
      </trkpt>
      <trkpt lat="47.13469" lon="0.28561">
        <ele>39.95408248901</ele>
        <time>2020-06-19T09:49:07.200Z</time>
      </trkpt>
      <trkpt lat="47.13469" lon="0.28561">
        <ele>39.95392227173</ele>
        <time>2020-06-19T09:49:10.407Z</time>
      </trkpt>
      <trkpt lat="47.1345" lon="0.28577">
        <ele>39.79735183716</ele>
        <time>2020-06-19T09:49:13.618Z</time>
      </trkpt>
      <trkpt lat="47.13417" lon="0.28595">
        <ele>40.27144622803</ele>
        <time>2020-06-19T09:49:16.834Z</time>
      </trkpt>
      <trkpt lat="47.13417" lon="0.28595">
        <ele>40.27150726318</ele>
        <time>2020-06-19T09:49:20.050Z</time>
      </trkpt>
      <trkpt lat="47.13417" lon="0.28595">
        <ele>40.27182769775</ele>
        <time>2020-06-19T09:49:23.266Z</time>
      </trkpt>
      <trkpt lat="47.13396" lon="0.28606">
        <ele>40.46433258057</ele>
        <time>2020-06-19T09:49:26.486Z</time>
      </trkpt>
      <trkpt lat="47.13367" lon="0.28615">
        <ele>40.69927978516</ele>
        <time>2020-06-19T09:49:29.711Z</time>
      </trkpt>
      <trkpt lat="47.13367" lon="0.28615">
        <ele>40.6993598938</ele>
        <time>2020-06-19T09:49:32.936Z</time>
      </trkpt>
      <trkpt lat="47.13367" lon="0.28615">
        <ele>40.69946670532</ele>
        <time>2020-06-19T09:49:36.161Z</time>
      </trkpt>
      <trkpt lat="47.13345" lon="0.28622">
        <ele>40.8803062439</ele>
        <time>2020-06-19T09:49:39.389Z</time>
      </trkpt>
      <trkpt lat="47.13307" lon="0.28624">
        <ele>40.96768951416</ele>
        <time>2020-06-19T09:49:42.623Z</time>
      </trkpt>
      <trkpt lat="47.13307" lon="0.28624">
        <ele>40.96743774414</ele>
        <time>2020-06-19T09:49:45.857Z</time>
      </trkpt>
      <trkpt lat="47.13307" lon="0.28624">
        <ele>40.96736907959</ele>
        <time>2020-06-19T09:49:49.091Z</time>
      </trkpt>
      <trkpt lat="47.13284" lon="0.28625">
        <ele>40.65441131592</ele>
        <time>2020-06-19T09:49:52.329Z</time>
      </trkpt>
      <trkpt lat="47.13237" lon="0.28619">
        <ele>40.29331970215</ele>
        <time>2020-06-19T09:49:55.575Z</time>
      </trkpt>
      <trkpt lat="47.13237" lon="0.28619">
        <ele>40.29151916504</ele>
        <time>2020-06-19T09:49:58.821Z</time>
      </trkpt>
      <trkpt lat="47.13115" lon="0.28604">
        <ele>39.28047180176</ele>
        <time>2020-06-19T09:50:02.086Z</time>
      </trkpt>
      <trkpt lat="47.13115" lon="0.28604">
        <ele>39.27294921875</ele>
        <time>2020-06-19T09:50:05.351Z</time>
      </trkpt>
      <trkpt lat="47.12987" lon="0.28588">
        <ele>38.32572555542</ele>
        <time>2020-06-19T09:50:08.637Z</time>
      </trkpt>
      <trkpt lat="47.12986" lon="0.28588">
        <ele>38.3212852478</ele>
        <time>2020-06-19T09:50:11.923Z</time>
      </trkpt>
      <trkpt lat="47.12829" lon="0.28565">
        <ele>36.15554046631</ele>
        <time>2020-06-19T09:50:15.234Z</time>
      </trkpt>
      <trkpt lat="47.12829" lon="0.28565">
        <ele>36.151512146</ele>
        <time>2020-06-19T09:50:18.545Z</time>
      </trkpt>
      <trkpt lat="47.12685" lon="0.28546">
        <ele>37.73450088501</ele>
        <time>2020-06-19T09:50:21.879Z</time>
      </trkpt>
      <trkpt lat="47.12685" lon="0.28546">
        <ele>37.73820114136</ele>
        <time>2020-06-19T09:50:25.213Z</time>
      </trkpt>
      <trkpt lat="47.12551" lon="0.2853">
        <ele>37.53302001953</ele>
        <time>2020-06-19T09:50:28.569Z</time>
      </trkpt>
      <trkpt lat="47.1255" lon="0.2853">
        <ele>37.53849411011</ele>
        <time>2020-06-19T09:50:31.925Z</time>
      </trkpt>
      <trkpt lat="47.12496" lon="0.2852">
        <ele>38.87521743774</ele>
        <time>2020-06-19T09:50:35.290Z</time>
      </trkpt>
      <trkpt lat="47.12495" lon="0.2852">
        <ele>38.87783432007</ele>
        <time>2020-06-19T09:50:38.655Z</time>
      </trkpt>
      <trkpt lat="47.12423" lon="0.2852">
        <ele>41.46097183228</ele>
        <time>2020-06-19T09:50:42.032Z</time>
      </trkpt>
      <trkpt lat="47.12422" lon="0.2852">
        <ele>41.46561813354</ele>
        <time>2020-06-19T09:50:45.409Z</time>
      </trkpt>
      <trkpt lat="47.12384" lon="0.28528">
        <ele>41.31605148315</ele>
        <time>2020-06-19T09:50:48.792Z</time>
      </trkpt>
      <trkpt lat="47.12384" lon="0.28528">
        <ele>41.31868743896</ele>
        <time>2020-06-19T09:50:52.175Z</time>
      </trkpt>
      <trkpt lat="47.12315" lon="0.28549">
        <ele>42.20226287842</ele>
        <time>2020-06-19T09:50:55.569Z</time>
      </trkpt>
      <trkpt lat="47.12314" lon="0.28549">
        <ele>42.20100021362</ele>
        <time>2020-06-19T09:50:58.963Z</time>
      </trkpt>
      <trkpt lat="47.12258" lon="0.28585">
        <ele>42.40711212158</ele>
        <time>2020-06-19T09:51:02.367Z</time>
      </trkpt>
      <trkpt lat="47.12258" lon="0.28585">
        <ele>42.41157913208</ele>
        <time>2020-06-19T09:51:05.771Z</time>
      </trkpt>
      <trkpt lat="47.12209" lon="0.2863">
        <ele>42.40767288208</ele>
        <time>2020-06-19T09:51:09.184Z</time>
      </trkpt>
      <trkpt lat="47.12208" lon="0.2863">
        <ele>42.40064620972</ele>
        <time>2020-06-19T09:51:12.597Z</time>
      </trkpt>
      <trkpt lat="47.12166" lon="0.28682">
        <ele>41.54640960693</ele>
        <time>2020-06-19T09:51:16.019Z</time>
      </trkpt>
      <trkpt lat="47.12166" lon="0.28682">
        <ele>41.5461769104</ele>
        <time>2020-06-19T09:51:19.441Z</time>
      </trkpt>
      <trkpt lat="47.12125" lon="0.28747">
        <ele>41.88036727905</ele>
        <time>2020-06-19T09:51:22.873Z</time>
      </trkpt>
      <trkpt lat="47.12125" lon="0.28747">
        <ele>41.88151931763</ele>
        <time>2020-06-19T09:51:26.305Z</time>
      </trkpt>
      <trkpt lat="47.12094" lon="0.28813">
        <ele>41.4019203186</ele>
        <time>2020-06-19T09:51:29.746Z</time>
      </trkpt>
      <trkpt lat="47.12094" lon="0.28813">
        <ele>41.40071105957</ele>
        <time>2020-06-19T09:51:33.187Z</time>
      </trkpt>
      <trkpt lat="47.12074" lon="0.2888">
        <ele>40.16851425171</ele>
        <time>2020-06-19T09:51:36.636Z</time>
      </trkpt>
      <trkpt lat="47.12074" lon="0.2888">
        <ele>40.17169189453</ele>
        <time>2020-06-19T09:51:40.085Z</time>
      </trkpt>
      <trkpt lat="47.12051" lon="0.28969">
        <ele>41.18344497681</ele>
        <time>2020-06-19T09:51:43.544Z</time>
      </trkpt>
      <trkpt lat="47.12051" lon="0.28969">
        <ele>41.18106079102</ele>
        <time>2020-06-19T09:51:47.003Z</time>
      </trkpt>
      <trkpt lat="47.12051" lon="0.28969">
        <ele>41.1809387207</ele>
        <time>2020-06-19T09:51:50.462Z</time>
      </trkpt>
      <trkpt lat="47.1204" lon="0.29175">
        <ele>38.45014953613</ele>
        <time>2020-06-19T09:51:53.944Z</time>
      </trkpt>
      <trkpt lat="47.1204" lon="0.29175">
        <ele>38.45009994507</ele>
        <time>2020-06-19T09:51:57.426Z</time>
      </trkpt>
      <trkpt lat="47.1204" lon="0.29175">
        <ele>38.45009613037</ele>
        <time>2020-06-19T09:52:00.908Z</time>
      </trkpt>
      <trkpt lat="47.12043" lon="0.29392">
        <ele>40.26641464233</ele>
        <time>2020-06-19T09:52:04.413Z</time>
      </trkpt>
      <trkpt lat="47.12043" lon="0.29392">
        <ele>40.26346969604</ele>
        <time>2020-06-19T09:52:07.918Z</time>
      </trkpt>
      <trkpt lat="47.12043" lon="0.29392">
        <ele>40.26331329346</ele>
        <time>2020-06-19T09:52:11.423Z</time>
      </trkpt>
      <trkpt lat="47.12044" lon="0.29604">
        <ele>39.48386001587</ele>
        <time>2020-06-19T09:52:14.952Z</time>
      </trkpt>
      <trkpt lat="47.12044" lon="0.29605">
        <ele>39.48734283447</ele>
        <time>2020-06-19T09:52:18.481Z</time>
      </trkpt>
      <trkpt lat="47.12044" lon="0.29605">
        <ele>39.48753738403</ele>
        <time>2020-06-19T09:52:22.010Z</time>
      </trkpt>
      <trkpt lat="47.12033" lon="0.29693">
        <ele>40.23832702637</ele>
        <time>2020-06-19T09:52:25.548Z</time>
      </trkpt>
      <trkpt lat="47.12033" lon="0.29694">
        <ele>40.2356300354</ele>
        <time>2020-06-19T09:52:29.086Z</time>
      </trkpt>
      <trkpt lat="47.12033" lon="0.29694">
        <ele>40.23547744751</ele>
        <time>2020-06-19T09:52:32.624Z</time>
      </trkpt>
      <trkpt lat="47.12016" lon="0.29786">
        <ele>41.14055252075</ele>
        <time>2020-06-19T09:52:36.173Z</time>
      </trkpt>
      <trkpt lat="47.12016" lon="0.29786">
        <ele>41.14210128784</ele>
        <time>2020-06-19T09:52:39.722Z</time>
      </trkpt>
      <trkpt lat="47.12016" lon="0.29786">
        <ele>41.14228820801</ele>
        <time>2020-06-19T09:52:43.271Z</time>
      </trkpt>
      <trkpt lat="47.11984" lon="0.29883">
        <ele>39.23245239258</ele>
        <time>2020-06-19T09:52:46.832Z</time>
      </trkpt>
      <trkpt lat="47.11984" lon="0.29883">
        <ele>39.23444366455</ele>
        <time>2020-06-19T09:52:50.393Z</time>
      </trkpt>
      <trkpt lat="47.11984" lon="0.29883">
        <ele>39.23469161987</ele>
        <time>2020-06-19T09:52:53.954Z</time>
      </trkpt>
      <trkpt lat="47.11947" lon="0.29962">
        <ele>38.47143936157</ele>
        <time>2020-06-19T09:52:57.525Z</time>
      </trkpt>
      <trkpt lat="47.11947" lon="0.29963">
        <ele>38.46485900879</ele>
        <time>2020-06-19T09:53:01.096Z</time>
      </trkpt>
      <trkpt lat="47.11947" lon="0.29963">
        <ele>38.4640083313</ele>
        <time>2020-06-19T09:53:04.667Z</time>
      </trkpt>
      <trkpt lat="47.11907" lon="0.30028">
        <ele>36.54192352295</ele>
        <time>2020-06-19T09:53:08.248Z</time>
      </trkpt>
      <trkpt lat="47.11907" lon="0.30028">
        <ele>36.5414390564</ele>
        <time>2020-06-19T09:53:11.829Z</time>
      </trkpt>
      <trkpt lat="47.11907" lon="0.30028">
        <ele>36.54137039185</ele>
        <time>2020-06-19T09:53:15.410Z</time>
      </trkpt>
      <trkpt lat="47.11842" lon="0.30105">
        <ele>37.93682479858</ele>
        <time>2020-06-19T09:53:19.004Z</time>
      </trkpt>
      <trkpt lat="47.11842" lon="0.30105">
        <ele>37.93853378296</ele>
        <time>2020-06-19T09:53:22.598Z</time>
      </trkpt>
      <trkpt lat="47.11842" lon="0.30105">
        <ele>37.93876647949</ele>
        <time>2020-06-19T09:53:26.192Z</time>
      </trkpt>
      <trkpt lat="47.11792" lon="0.30144">
        <ele>39.40942001343</ele>
        <time>2020-06-19T09:53:29.795Z</time>
      </trkpt>
      <trkpt lat="47.11792" lon="0.30144">
        <ele>39.41456222534</ele>
        <time>2020-06-19T09:53:33.398Z</time>
      </trkpt>
      <trkpt lat="47.11792" lon="0.30144">
        <ele>39.41527557373</ele>
        <time>2020-06-19T09:53:37.001Z</time>
      </trkpt>
      <trkpt lat="47.11702" lon="0.30192">
        <ele>41.74214553833</ele>
        <time>2020-06-19T09:53:40.620Z</time>
      </trkpt>
      <trkpt lat="47.11702" lon="0.30192">
        <ele>41.73979187012</ele>
        <time>2020-06-19T09:53:44.239Z</time>
      </trkpt>
      <trkpt lat="47.11702" lon="0.30192">
        <ele>41.73944473267</ele>
        <time>2020-06-19T09:53:47.858Z</time>
      </trkpt>
      <trkpt lat="47.11668" lon="0.30204">
        <ele>41.06000900269</ele>
        <time>2020-06-19T09:53:51.482Z</time>
      </trkpt>
      <trkpt lat="47.11668" lon="0.30204">
        <ele>41.05738067627</ele>
        <time>2020-06-19T09:53:55.106Z</time>
      </trkpt>
      <trkpt lat="47.11668" lon="0.30204">
        <ele>41.05697250366</ele>
        <time>2020-06-19T09:53:58.730Z</time>
      </trkpt>
      <trkpt lat="47.11536" lon="0.30217">
        <ele>38.4333114624</ele>
        <time>2020-06-19T09:54:02.375Z</time>
      </trkpt>
      <trkpt lat="47.11536" lon="0.30217">
        <ele>38.43173217773</ele>
        <time>2020-06-19T09:54:06.020Z</time>
      </trkpt>
      <trkpt lat="47.11536" lon="0.30217">
        <ele>38.43148422241</ele>
        <time>2020-06-19T09:54:09.665Z</time>
      </trkpt>
      <trkpt lat="47.11359" lon="0.3023">
        <ele>39.19840621948</ele>
        <time>2020-06-19T09:54:13.339Z</time>
      </trkpt>
      <trkpt lat="47.11359" lon="0.3023">
        <ele>39.19850540161</ele>
        <time>2020-06-19T09:54:17.013Z</time>
      </trkpt>
      <trkpt lat="47.11359" lon="0.3023">
        <ele>39.1985206604</ele>
        <time>2020-06-19T09:54:20.687Z</time>
      </trkpt>
      <trkpt lat="47.11202" lon="0.30242">
        <ele>39.66271209717</ele>
        <time>2020-06-19T09:54:24.386Z</time>
      </trkpt>
      <trkpt lat="47.11202" lon="0.30242">
        <ele>39.66260147095</ele>
        <time>2020-06-19T09:54:28.085Z</time>
      </trkpt>
      <trkpt lat="47.11202" lon="0.30242">
        <ele>39.66258621216</ele>
        <time>2020-06-19T09:54:31.784Z</time>
      </trkpt>
      <trkpt lat="47.11022" lon="0.30257">
        <ele>42.42741394043</ele>
        <time>2020-06-19T09:54:35.512Z</time>
      </trkpt>
      <trkpt lat="47.11021" lon="0.30257">
        <ele>42.43076324463</ele>
        <time>2020-06-19T09:54:39.240Z</time>
      </trkpt>
      <trkpt lat="47.11021" lon="0.30257">
        <ele>42.43134307861</ele>
        <time>2020-06-19T09:54:42.968Z</time>
      </trkpt>
      <trkpt lat="47.10894" lon="0.3027">
        <ele>46.68222045898</ele>
        <time>2020-06-19T09:54:46.716Z</time>
      </trkpt>
      <trkpt lat="47.10894" lon="0.3027">
        <ele>46.67721176147</ele>
        <time>2020-06-19T09:54:50.464Z</time>
      </trkpt>
      <trkpt lat="47.10894" lon="0.3027">
        <ele>46.67631912231</ele>
        <time>2020-06-19T09:54:54.212Z</time>
      </trkpt>
      <trkpt lat="47.1068" lon="0.30305">
        <ele>39.23907470703</ele>
        <time>2020-06-19T09:54:57.995Z</time>
      </trkpt>
      <trkpt lat="47.1068" lon="0.30305">
        <ele>39.23794937134</ele>
        <time>2020-06-19T09:55:01.778Z</time>
      </trkpt>
      <trkpt lat="47.1068" lon="0.30305">
        <ele>39.23773574829</ele>
        <time>2020-06-19T09:55:05.561Z</time>
      </trkpt>
      <trkpt lat="47.10479" lon="0.30337">
        <ele>37.87121963501</ele>
        <time>2020-06-19T09:55:09.376Z</time>
      </trkpt>
      <trkpt lat="47.10479" lon="0.30337">
        <ele>37.87004089355</ele>
        <time>2020-06-19T09:55:13.191Z</time>
      </trkpt>
      <trkpt lat="47.10479" lon="0.30337">
        <ele>37.86981201172</ele>
        <time>2020-06-19T09:55:17.006Z</time>
      </trkpt>
      <trkpt lat="47.1038" lon="0.30339">
        <ele>39.23329544067</ele>
        <time>2020-06-19T09:55:20.837Z</time>
      </trkpt>
      <trkpt lat="47.1038" lon="0.30339">
        <ele>39.23526000977</ele>
        <time>2020-06-19T09:55:24.668Z</time>
      </trkpt>
      <trkpt lat="47.1038" lon="0.30339">
        <ele>39.23566818237</ele>
        <time>2020-06-19T09:55:28.499Z</time>
      </trkpt>
      <trkpt lat="47.10137" lon="0.30318">
        <ele>39.49954605103</ele>
        <time>2020-06-19T09:55:32.369Z</time>
      </trkpt>
      <trkpt lat="47.10137" lon="0.30318">
        <ele>39.4994354248</ele>
        <time>2020-06-19T09:55:36.239Z</time>
      </trkpt>
      <trkpt lat="47.10137" lon="0.30318">
        <ele>39.49941253662</ele>
        <time>2020-06-19T09:55:40.109Z</time>
      </trkpt>
      <trkpt lat="47.09976" lon="0.30309">
        <ele>40.21404266357</ele>
        <time>2020-06-19T09:55:44.005Z</time>
      </trkpt>
      <trkpt lat="47.09975" lon="0.30309">
        <ele>40.21501922607</ele>
        <time>2020-06-19T09:55:47.901Z</time>
      </trkpt>
      <trkpt lat="47.09975" lon="0.30309">
        <ele>40.21523284912</ele>
        <time>2020-06-19T09:55:51.797Z</time>
      </trkpt>
      <trkpt lat="47.09955" lon="0.30309">
        <ele>40.45901870728</ele>
        <time>2020-06-19T09:55:55.696Z</time>
      </trkpt>
      <trkpt lat="47.09955" lon="0.30309">
        <ele>40.4592628479</ele>
        <time>2020-06-19T09:55:59.595Z</time>
      </trkpt>
      <trkpt lat="47.09923" lon="0.30312">
        <ele>40.88872528076</ele>
        <time>2020-06-19T09:56:03.499Z</time>
      </trkpt>
      <trkpt lat="47.09825" lon="0.30342">
        <ele>40.46129989624</ele>
        <time>2020-06-19T09:56:07.419Z</time>
      </trkpt>
      <trkpt lat="47.09625" lon="0.30408">
        <ele>40.91745758057</ele>
        <time>2020-06-19T09:56:11.372Z</time>
      </trkpt>
      <trkpt lat="47.09533" lon="0.30429">
        <ele>40.02069854736</ele>
        <time>2020-06-19T09:56:15.340Z</time>
      </trkpt>
      <trkpt lat="47.0945" lon="0.30433">
        <ele>39.21268844604</ele>
        <time>2020-06-19T09:56:19.321Z</time>
      </trkpt>
      <trkpt lat="47.0937" lon="0.30418">
        <ele>38.1255569458</ele>
        <time>2020-06-19T09:56:23.315Z</time>
      </trkpt>
      <trkpt lat="47.09229" lon="0.30364">
        <ele>39.40371704102</ele>
        <time>2020-06-19T09:56:27.332Z</time>
      </trkpt>
      <trkpt lat="47.09108" lon="0.30306">
        <ele>40.88548660278</ele>
        <time>2020-06-19T09:56:31.370Z</time>
      </trkpt>
      <trkpt lat="47.08907" lon="0.30231">
        <ele>44.53544998169</ele>
        <time>2020-06-19T09:56:35.441Z</time>
      </trkpt>
      <trkpt lat="47.08674" lon="0.30174">
        <ele>42.74545288086</ele>
        <time>2020-06-19T09:56:39.550Z</time>
      </trkpt>
      <trkpt lat="47.08512" lon="0.30129">
        <ele>39.92171859741</ele>
        <time>2020-06-19T09:56:43.685Z</time>
      </trkpt>
      <trkpt lat="47.08287" lon="0.30069">
        <ele>41.73784255981</ele>
        <time>2020-06-19T09:56:47.857Z</time>
      </trkpt>
      <trkpt lat="47.08119" lon="0.30019">
        <ele>41.34004592896</ele>
        <time>2020-06-19T09:56:52.056Z</time>
      </trkpt>
      <trkpt lat="47.07998" lon="0.29991">
        <ele>40.39094543457</ele>
        <time>2020-06-19T09:56:56.275Z</time>
      </trkpt>
      <trkpt lat="47.0794" lon="0.29978">
        <ele>40.17463302612</ele>
        <time>2020-06-19T09:57:00.503Z</time>
      </trkpt>
      <trkpt lat="47.07885" lon="0.29976">
        <ele>40.44761657715</ele>
        <time>2020-06-19T09:57:04.740Z</time>
      </trkpt>
      <trkpt lat="47.07825" lon="0.29984">
        <ele>41.24439239502</ele>
        <time>2020-06-19T09:57:08.987Z</time>
      </trkpt>
      <trkpt lat="47.07597" lon="0.30032">
        <ele>43.46342468262</ele>
        <time>2020-06-19T09:57:13.271Z</time>
      </trkpt>
      <trkpt lat="47.07537" lon="0.30052">
        <ele>45.34292221069</ele>
        <time>2020-06-19T09:57:17.565Z</time>
      </trkpt>
      <trkpt lat="47.07469" lon="0.30099">
        <ele>44.20740127563</ele>
        <time>2020-06-19T09:57:21.871Z</time>
      </trkpt>
      <trkpt lat="47.07402" lon="0.30161">
        <ele>42.62498092651</ele>
        <time>2020-06-19T09:57:26.189Z</time>
      </trkpt>
      <trkpt lat="47.07185" lon="0.30455">
        <ele>44.2737197876</ele>
        <time>2020-06-19T09:57:30.555Z</time>
      </trkpt>
      <trkpt lat="47.07096" lon="0.30547">
        <ele>42.75536727905</ele>
        <time>2020-06-19T09:57:34.938Z</time>
      </trkpt>
      <trkpt lat="47.06751" lon="0.30852">
        <ele>41.33974456787</ele>
        <time>2020-06-19T09:57:39.386Z</time>
      </trkpt>
      <trkpt lat="47.06697" lon="0.30908">
        <ele>41.5559425354</ele>
        <time>2020-06-19T09:57:43.844Z</time>
      </trkpt>
      <trkpt lat="47.06654" lon="0.30961">
        <ele>42.04872131348</ele>
        <time>2020-06-19T09:57:48.311Z</time>
      </trkpt>
      <trkpt lat="47.0659" lon="0.31066">
        <ele>43.60133361816</ele>
        <time>2020-06-19T09:57:52.794Z</time>
      </trkpt>
      <trkpt lat="47.0654" lon="0.31197">
        <ele>42.47501754761</ele>
        <time>2020-06-19T09:57:57.293Z</time>
      </trkpt>
      <trkpt lat="47.06427" lon="0.31462">
        <ele>43</ele>
        <time>2020-06-19T09:58:01.826Z</time>
      </trkpt>
      <trkpt lat="47.06334" lon="0.31692">
        <ele>44.64949417114</ele>
        <time>2020-06-19T09:58:06.388Z</time>
      </trkpt>
      <trkpt lat="47.06281" lon="0.31806">
        <ele>45.26978302002</ele>
        <time>2020-06-19T09:58:10.966Z</time>
      </trkpt>
      <trkpt lat="47.06235" lon="0.31879">
        <ele>44.02059936523</ele>
        <time>2020-06-19T09:58:15.554Z</time>
      </trkpt>
      <trkpt lat="47.06151" lon="0.31982">
        <ele>43.46633148193</ele>
        <time>2020-06-19T09:58:20.160Z</time>
      </trkpt>
      <trkpt lat="47.06066" lon="0.3205">
        <ele>42.16236114502</ele>
        <time>2020-06-19T09:58:24.781Z</time>
      </trkpt>
      <trkpt lat="47.05961" lon="0.32113">
        <ele>43.21440505981</ele>
        <time>2020-06-19T09:58:29.421Z</time>
      </trkpt>
      <trkpt lat="47.05727" lon="0.32236">
        <ele>42.79175186157</ele>
        <time>2020-06-19T09:58:34.100Z</time>
      </trkpt>
      <trkpt lat="47.05588" lon="0.32287">
        <ele>44</ele>
        <time>2020-06-19T09:58:38.802Z</time>
      </trkpt>
      <trkpt lat="47.05514" lon="0.32311">
        <ele>45.31224441528</ele>
        <time>2020-06-19T09:58:43.516Z</time>
      </trkpt>
      <trkpt lat="47.05314" lon="0.32324">
        <ele>50.50845718384</ele>
        <time>2020-06-19T09:58:48.263Z</time>
      </trkpt>
      <trkpt lat="47.05135" lon="0.32333">
        <ele>48.59317016602</ele>
        <time>2020-06-19T09:58:53.038Z</time>
      </trkpt>
      <trkpt lat="47.0487" lon="0.32327">
        <ele>50.46678161621</ele>
        <time>2020-06-19T09:58:57.856Z</time>
      </trkpt>
      <trkpt lat="47.04581" lon="0.32311">
        <ele>44.83601760864</ele>
        <time>2020-06-19T09:59:02.720Z</time>
      </trkpt>
      <trkpt lat="47.04357" lon="0.32286">
        <ele>44</ele>
        <time>2020-06-19T09:59:07.620Z</time>
      </trkpt>
      <trkpt lat="47.04135" lon="0.32247">
        <ele>48.50256347656</ele>
        <time>2020-06-19T09:59:12.556Z</time>
      </trkpt>
      <trkpt lat="47.04042" lon="0.32257">
        <ele>46.59950637817</ele>
        <time>2020-06-19T09:59:17.507Z</time>
      </trkpt>
      <trkpt lat="47.03852" lon="0.32285">
        <ele>47</ele>
        <time>2020-06-19T09:59:22.488Z</time>
      </trkpt>
      <trkpt lat="47.03678" lon="0.3227">
        <ele>46.55181121826</ele>
        <time>2020-06-19T09:59:27.497Z</time>
      </trkpt>
      <trkpt lat="47.03435" lon="0.32244">
        <ele>51.64270782471</ele>
        <time>2020-06-19T09:59:32.545Z</time>
      </trkpt>
      <trkpt lat="47.03257" lon="0.32221">
        <ele>51.74267578125</ele>
        <time>2020-06-19T09:59:37.622Z</time>
      </trkpt>
      <trkpt lat="47.03126" lon="0.32207">
        <ele>52.17160415649</ele>
        <time>2020-06-19T09:59:42.720Z</time>
      </trkpt>
      <trkpt lat="47.02997" lon="0.32192">
        <ele>52.76561355591</ele>
        <time>2020-06-19T09:59:47.839Z</time>
      </trkpt>
      <trkpt lat="47.02827" lon="0.32176">
        <ele>52.5198097229</ele>
        <time>2020-06-19T09:59:52.985Z</time>
      </trkpt>
      <trkpt lat="47.02669" lon="0.32161">
        <ele>50.88172149658</ele>
        <time>2020-06-19T09:59:58.156Z</time>
      </trkpt>
      <trkpt lat="47.02447" lon="0.32136">
        <ele>49.45259857178</ele>
        <time>2020-06-19T10:00:03.363Z</time>
      </trkpt>
      <trkpt lat="47.02365" lon="0.32136">
        <ele>49.52143096924</ele>
        <time>2020-06-19T10:00:08.583Z</time>
      </trkpt>
      <trkpt lat="47.02317" lon="0.3213">
        <ele>50.18684768677</ele>
        <time>2020-06-19T10:00:13.811Z</time>
      </trkpt>
      <trkpt lat="47.0222" lon="0.32098">
        <ele>51.87003707886</ele>
        <time>2020-06-19T10:00:19.054Z</time>
      </trkpt>
      <trkpt lat="47.02093" lon="0.32049">
        <ele>51.18125152588</ele>
        <time>2020-06-19T10:00:24.319Z</time>
      </trkpt>
      <trkpt lat="47.01943" lon="0.31994">
        <ele>54.67841720581</ele>
        <time>2020-06-19T10:00:29.608Z</time>
      </trkpt>
      <trkpt lat="47.01805" lon="0.31941">
        <ele>55.27656173706</ele>
        <time>2020-06-19T10:00:34.920Z</time>
      </trkpt>
      <trkpt lat="47.0163" lon="0.31873">
        <ele>54.74583816528</ele>
        <time>2020-06-19T10:00:40.261Z</time>
      </trkpt>
      <trkpt lat="47.01489" lon="0.31818">
        <ele>54.5100440979</ele>
        <time>2020-06-19T10:00:45.625Z</time>
      </trkpt>
      <trkpt lat="47.01488" lon="0.31828">
        <ele>54.73219680786</ele>
        <time>2020-06-19T10:00:50.990Z</time>
      </trkpt>
      <trkpt lat="47.01513" lon="0.31838">
        <ele>54.49608230591</ele>
        <time>2020-06-19T10:00:56.360Z</time>
      </trkpt>
      <trkpt lat="47.01509" lon="0.31863">
        <ele>55.16720581055</ele>
        <time>2020-06-19T10:01:01.732Z</time>
      </trkpt>
      <trkpt lat="47.01509" lon="0.31862">
        <ele>55.1512298584</ele>
        <time>2020-06-19T10:01:07.104Z</time>
      </trkpt>
      <trkpt lat="47.01537" lon="0.31872">
        <ele>54.7193031311</ele>
        <time>2020-06-19T10:01:12.481Z</time>
      </trkpt>
      <trkpt lat="47.01538" lon="0.31874">
        <ele>54.7432975769</ele>
        <time>2020-06-19T10:01:17.858Z</time>
      </trkpt>
      <trkpt lat="47.0154" lon="0.31904">
        <ele>54.84706497192</ele>
        <time>2020-06-19T10:01:23.239Z</time>
      </trkpt>
      <trkpt lat="47.01549" lon="0.32053">
        <ele>56.24378585815</ele>
        <time>2020-06-19T10:01:28.636Z</time>
      </trkpt>
      <trkpt lat="47.01551" lon="0.32086">
        <ele>55.82385635376</ele>
        <time>2020-06-19T10:01:34.037Z</time>
      </trkpt>
      <trkpt lat="47.01536" lon="0.32089">
        <ele>55.96783447266</ele>
        <time>2020-06-19T10:01:39.440Z</time>
      </trkpt>
      <trkpt lat="47.01475" lon="0.32098">
        <ele>55.98152160645</ele>
        <time>2020-06-19T10:01:44.853Z</time>
      </trkpt>
      <trkpt lat="47.01349" lon="0.32117">
        <ele>55.56969833374</ele>
        <time>2020-06-19T10:01:50.286Z</time>
      </trkpt>
      <trkpt lat="47.01223" lon="0.32137">
        <ele>56.45379638672</ele>
        <time>2020-06-19T10:01:55.739Z</time>
      </trkpt>
      <trkpt lat="47.01202" lon="0.32138">
        <ele>56.95771026611</ele>
        <time>2020-06-19T10:02:01.196Z</time>
      </trkpt>
      <trkpt lat="47.0121" lon="0.32137">
        <ele>56.76574325562</ele>
        <time>2020-06-19T10:02:06.654Z</time>
      </trkpt>
      <trkpt lat="47.01209" lon="0.32128">
        <ele>56.73296737671</ele>
        <time>2020-06-19T10:02:12.113Z</time>
      </trkpt>
      <trkpt lat="47.01205" lon="0.3207">
        <ele>56</ele>
        <time>2020-06-19T10:02:17.578Z</time>
      </trkpt>
      <trkpt lat="47.01195" lon="0.31926">
        <ele>55</ele>
        <time>2020-06-19T10:02:23.059Z</time>
      </trkpt>
      <trkpt lat="47.01189" lon="0.31841">
        <ele>55</ele>
        <time>2020-06-19T10:02:28.550Z</time>
      </trkpt>
      <trkpt lat="47.01185" lon="0.31786">
        <ele>54.68282318115</ele>
        <time>2020-06-19T10:02:34.047Z</time>
      </trkpt>
      <trkpt lat="47.01182" lon="0.31783">
        <ele>54.71881484985</ele>
        <time>2020-06-19T10:02:39.544Z</time>
      </trkpt>
      <trkpt lat="47.01177" lon="0.31784">
        <ele>54.77880477905</ele>
        <time>2020-06-19T10:02:45.042Z</time>
      </trkpt>
      <trkpt lat="47.01142" lon="0.31803">
        <ele>54.80126571655</ele>
        <time>2020-06-19T10:02:50.546Z</time>
      </trkpt>
      <trkpt lat="47.01132" lon="0.31808">
        <ele>54.68128585815</ele>
        <time>2020-06-19T10:02:56.052Z</time>
      </trkpt>
      <trkpt lat="47.01096" lon="0.31828">
        <ele>54.61792755127</ele>
        <time>2020-06-19T10:03:01.564Z</time>
      </trkpt>
      <trkpt lat="47.01081" lon="0.31841">
        <ele>55.44578933716</ele>
        <time>2020-06-19T10:03:07.079Z</time>
      </trkpt>
      <trkpt lat="47.01053" lon="0.31866">
        <ele>56.37218856812</ele>
        <time>2020-06-19T10:03:12.599Z</time>
      </trkpt>
      <trkpt lat="47.01046" lon="0.31872">
        <ele>56.04824447632</ele>
        <time>2020-06-19T10:03:18.120Z</time>
      </trkpt>
      <trkpt lat="47.01008" lon="0.31896">
        <ele>54.58059692383</ele>
        <time>2020-06-19T10:03:23.648Z</time>
      </trkpt>
      <trkpt lat="47.00836" lon="0.32013">
        <ele>58.51577758789</ele>
        <time>2020-06-19T10:03:29.206Z</time>
      </trkpt>
      <trkpt lat="47.00728" lon="0.32087">
        <ele>57.77090072632</ele>
        <time>2020-06-19T10:03:34.783Z</time>
      </trkpt>
      <trkpt lat="47.0071" lon="0.32099">
        <ele>58.62921524048</ele>
        <time>2020-06-19T10:03:40.363Z</time>
      </trkpt>
      <trkpt lat="47.00688" lon="0.32108">
        <ele>59.10913467407</ele>
        <time>2020-06-19T10:03:45.947Z</time>
      </trkpt>
      <trkpt lat="47.00664" lon="0.32112">
        <ele>59.49307250977</ele>
        <time>2020-06-19T10:03:51.535Z</time>
      </trkpt>
      <trkpt lat="47.00645" lon="0.3211">
        <ele>59.02607345581</ele>
        <time>2020-06-19T10:03:57.126Z</time>
      </trkpt>
      <trkpt lat="47.00611" lon="0.32099">
        <ele>58.31170272827</ele>
        <time>2020-06-19T10:04:02.723Z</time>
      </trkpt>
      <trkpt lat="47.00582" lon="0.3209">
        <ele>58.01175308228</ele>
        <time>2020-06-19T10:04:08.324Z</time>
      </trkpt>
      <trkpt lat="47.0058" lon="0.3207">
        <ele>56.59598922729</ele>
        <time>2020-06-19T10:04:13.928Z</time>
      </trkpt>
      <trkpt lat="47.00576" lon="0.3202">
        <ele>54.70701599121</ele>
        <time>2020-06-19T10:04:19.537Z</time>
      </trkpt>
      <trkpt lat="47.00563" lon="0.31902">
        <ele>54.73993301392</ele>
        <time>2020-06-19T10:04:25.159Z</time>
      </trkpt>
      <trkpt lat="47.00537" lon="0.31742">
        <ele>56.37257766724</ele>
        <time>2020-06-19T10:04:30.799Z</time>
      </trkpt>
      <trkpt lat="47.00529" lon="0.31687">
        <ele>57.29954147339</ele>
        <time>2020-06-19T10:04:36.445Z</time>
      </trkpt>
      <trkpt lat="47.00519" lon="0.3163">
        <ele>58.69396209717</ele>
        <time>2020-06-19T10:04:42.098Z</time>
      </trkpt>
      <trkpt lat="47.00515" lon="0.31615">
        <ele>58.88592910767</ele>
        <time>2020-06-19T10:04:47.753Z</time>
      </trkpt>
      <trkpt lat="47.00507" lon="0.31602">
        <ele>59.26986312866</ele>
        <time>2020-06-19T10:04:53.409Z</time>
      </trkpt>
      <trkpt lat="47.00493" lon="0.31587">
        <ele>59.94175338745</ele>
        <time>2020-06-19T10:04:59.068Z</time>
      </trkpt>
      <trkpt lat="47.00463" lon="0.31563">
        <ele>60.34537887573</ele>
        <time>2020-06-19T10:05:04.733Z</time>
      </trkpt>
      <trkpt lat="47.00414" lon="0.31515">
        <ele>59.78379821777</ele>
        <time>2020-06-19T10:05:10.407Z</time>
      </trkpt>
      <trkpt lat="47.00373" lon="0.31475">
        <ele>60.11154937744</ele>
        <time>2020-06-19T10:05:16.089Z</time>
      </trkpt>
      <trkpt lat="47.00307" lon="0.31409">
        <ele>63.30989837646</ele>
        <time>2020-06-19T10:05:21.784Z</time>
      </trkpt>
      <trkpt lat="47.00285" lon="0.31381">
        <ele>63.98178482056</ele>
        <time>2020-06-19T10:05:27.484Z</time>
      </trkpt>
      <trkpt lat="47.00265" lon="0.31336">
        <ele>64</ele>
        <time>2020-06-19T10:05:33.189Z</time>
      </trkpt>
      <trkpt lat="47.00254" lon="0.31317">
        <ele>64</ele>
        <time>2020-06-19T10:05:38.897Z</time>
      </trkpt>
      <trkpt lat="47.00229" lon="0.31288">
        <ele>64.1529083252</ele>
        <time>2020-06-19T10:05:44.610Z</time>
      </trkpt>
      <trkpt lat="47.00222" lon="0.31275">
        <ele>64.21111297607</ele>
        <time>2020-06-19T10:05:50.325Z</time>
      </trkpt>
      <trkpt lat="47.00218" lon="0.31255">
        <ele>64.06713867188</ele>
        <time>2020-06-19T10:05:56.042Z</time>
      </trkpt>
      <trkpt lat="47.00217" lon="0.31236">
        <ele>63.86317062378</ele>
        <time>2020-06-19T10:06:01.761Z</time>
      </trkpt>
      <trkpt lat="47.00211" lon="0.31199">
        <ele>63.91227722168</ele>
        <time>2020-06-19T10:06:07.485Z</time>
      </trkpt>
      <trkpt lat="47.00203" lon="0.31179">
        <ele>64.34420776367</ele>
        <time>2020-06-19T10:06:13.211Z</time>
      </trkpt>
      <trkpt lat="47.00186" lon="0.31146">
        <ele>65.28967285156</ele>
        <time>2020-06-19T10:06:18.942Z</time>
      </trkpt>
      <trkpt lat="47.00147" lon="0.31073">
        <ele>64.35395050049</ele>
        <time>2020-06-19T10:06:24.683Z</time>
      </trkpt>
      <trkpt lat="47.00116" lon="0.3102">
        <ele>63.30480194092</ele>
        <time>2020-06-19T10:06:30.431Z</time>
      </trkpt>
      <trkpt lat="47.00034" lon="0.30902">
        <ele>62.26037216187</ele>
        <time>2020-06-19T10:06:36.198Z</time>
      </trkpt>
      <trkpt lat="47.00023" lon="0.30881">
        <ele>62.11639785767</ele>
        <time>2020-06-19T10:06:41.968Z</time>
      </trkpt>
      <trkpt lat="47.00001" lon="0.30825">
        <ele>61.99641799927</ele>
        <time>2020-06-19T10:06:47.745Z</time>
      </trkpt>
      <trkpt lat="46.99983" lon="0.30781">
        <ele>62.20883560181</ele>
        <time>2020-06-19T10:06:53.527Z</time>
      </trkpt>
      <trkpt lat="46.9996" lon="0.30737">
        <ele>62.7607460022</ele>
        <time>2020-06-19T10:06:59.315Z</time>
      </trkpt>
      <trkpt lat="46.99927" lon="0.30675">
        <ele>64.47557830811</ele>
        <time>2020-06-19T10:07:05.112Z</time>
      </trkpt>
      <trkpt lat="46.99924" lon="0.30666">
        <ele>64.7635269165</ele>
        <time>2020-06-19T10:07:10.910Z</time>
      </trkpt>
      <trkpt lat="46.99923" lon="0.30654">
        <ele>65.0754776001</ele>
        <time>2020-06-19T10:07:16.710Z</time>
      </trkpt>
      <trkpt lat="46.99923" lon="0.30622">
        <ele>65.66764831543</ele>
        <time>2020-06-19T10:07:22.513Z</time>
      </trkpt>
      <trkpt lat="46.99921" lon="0.30604">
        <ele>66.17156219482</ele>
        <time>2020-06-19T10:07:28.318Z</time>
      </trkpt>
      <trkpt lat="46.99912" lon="0.30585">
        <ele>66.95143127441</ele>
        <time>2020-06-19T10:07:34.126Z</time>
      </trkpt>
      <trkpt lat="46.99899" lon="0.30559">
        <ele>67.93099975586</ele>
        <time>2020-06-19T10:07:39.937Z</time>
      </trkpt>
      <trkpt lat="46.99884" lon="0.30532">
        <ele>68.76163482666</ele>
        <time>2020-06-19T10:07:45.752Z</time>
      </trkpt>
      <trkpt lat="46.99871" lon="0.30515">
        <ele>69.27754974365</ele>
        <time>2020-06-19T10:07:51.570Z</time>
      </trkpt>
      <trkpt lat="46.99835" lon="0.30484">
        <ele>70.51334381104</ele>
        <time>2020-06-19T10:07:57.394Z</time>
      </trkpt>
      <trkpt lat="46.99825" lon="0.30471">
        <ele>70.90917205811</ele>
        <time>2020-06-19T10:08:03.221Z</time>
      </trkpt>
      <trkpt lat="46.9982" lon="0.30456">
        <ele>71.11799621582</ele>
        <time>2020-06-19T10:08:09.049Z</time>
      </trkpt>
      <trkpt lat="46.99815" lon="0.30425">
        <ele>71.80187988281</ele>
        <time>2020-06-19T10:08:14.881Z</time>
      </trkpt>
      <trkpt lat="46.99805" lon="0.30402">
        <ele>72.2338104248</ele>
        <time>2020-06-19T10:08:20.716Z</time>
      </trkpt>
      <trkpt lat="46.99778" lon="0.30369">
        <ele>72.56886291504</ele>
        <time>2020-06-19T10:08:26.556Z</time>
      </trkpt>
      <trkpt lat="46.99734" lon="0.30322">
        <ele>72.42101287842</ele>
        <time>2020-06-19T10:08:32.405Z</time>
      </trkpt>
      <trkpt lat="46.99704" lon="0.30294">
        <ele>71.67713928223</ele>
        <time>2020-06-19T10:08:38.260Z</time>
      </trkpt>
      <trkpt lat="46.99563" lon="0.30177">
        <ele>66.56926727295</ele>
        <time>2020-06-19T10:08:44.141Z</time>
      </trkpt>
      <trkpt lat="46.99551" lon="0.30166">
        <ele>66.13733673096</ele>
        <time>2020-06-19T10:08:50.024Z</time>
      </trkpt>
      <trkpt lat="46.99542" lon="0.30148">
        <ele>65.81339263916</ele>
        <time>2020-06-19T10:08:55.910Z</time>
      </trkpt>
      <trkpt lat="46.99538" lon="0.30132">
        <ele>65.66941070557</ele>
        <time>2020-06-19T10:09:01.797Z</time>
      </trkpt>
      <trkpt lat="46.99535" lon="0.30114">
        <ele>65.9461517334</ele>
        <time>2020-06-19T10:09:07.686Z</time>
      </trkpt>
      <trkpt lat="46.99534" lon="0.30092">
        <ele>66.43807220459</ele>
        <time>2020-06-19T10:09:13.578Z</time>
      </trkpt>
      <trkpt lat="46.99535" lon="0.30006">
        <ele>67.52909851074</ele>
        <time>2020-06-19T10:09:19.479Z</time>
      </trkpt>
      <trkpt lat="46.99532" lon="0.2998">
        <ele>67.76905822754</ele>
        <time>2020-06-19T10:09:25.383Z</time>
      </trkpt>
      <trkpt lat="46.99525" lon="0.29961">
        <ele>67.74488830566</ele>
        <time>2020-06-19T10:09:31.290Z</time>
      </trkpt>
      <trkpt lat="46.99444" lon="0.29783">
        <ele>62.85731887817</ele>
        <time>2020-06-19T10:09:37.220Z</time>
      </trkpt>
      <trkpt lat="46.994" lon="0.29686">
        <ele>61.90074920654</ele>
        <time>2020-06-19T10:09:43.163Z</time>
      </trkpt>
      <trkpt lat="46.99389" lon="0.29664">
        <ele>61.76876831055</ele>
        <time>2020-06-19T10:09:49.109Z</time>
      </trkpt>
      <trkpt lat="46.99377" lon="0.29645">
        <ele>61.62479400635</ele>
        <time>2020-06-19T10:09:55.058Z</time>
      </trkpt>
      <trkpt lat="46.993" lon="0.29551">
        <ele>61.34912872314</ele>
        <time>2020-06-19T10:10:01.023Z</time>
      </trkpt>
      <trkpt lat="46.99257" lon="0.29499">
        <ele>60.94119644165</ele>
        <time>2020-06-19T10:10:06.996Z</time>
      </trkpt>
      <trkpt lat="46.99215" lon="0.29443">
        <ele>61.243019104</ele>
        <time>2020-06-19T10:10:12.979Z</time>
      </trkpt>
      <trkpt lat="46.99142" lon="0.2931">
        <ele>62</ele>
        <time>2020-06-19T10:10:18.980Z</time>
      </trkpt>
      <trkpt lat="46.99098" lon="0.29231">
        <ele>62</ele>
        <time>2020-06-19T10:10:24.992Z</time>
      </trkpt>
      <trkpt lat="46.99044" lon="0.29156">
        <ele>62.3705406189</ele>
        <time>2020-06-19T10:10:31.016Z</time>
      </trkpt>
      <trkpt lat="46.99037" lon="0.29135">
        <ele>62.4545249939</ele>
        <time>2020-06-19T10:10:37.043Z</time>
      </trkpt>
      <trkpt lat="46.99025" lon="0.2908">
        <ele>62.59850311279</ele>
        <time>2020-06-19T10:10:43.076Z</time>
      </trkpt>
      <trkpt lat="46.99009" lon="0.29001">
        <ele>63.33660507202</ele>
        <time>2020-06-19T10:10:49.118Z</time>
      </trkpt>
      <trkpt lat="46.98997" lon="0.28973">
        <ele>63.81652450562</ele>
        <time>2020-06-19T10:10:55.164Z</time>
      </trkpt>
      <trkpt lat="46.98925" lon="0.2887">
        <ele>63.63913726807</ele>
        <time>2020-06-19T10:11:01.226Z</time>
      </trkpt>
      <trkpt lat="46.98895" lon="0.28816">
        <ele>64.21504211426</ele>
        <time>2020-06-19T10:11:07.296Z</time>
      </trkpt>
      <trkpt lat="46.98877" lon="0.28786">
        <ele>64.37728881836</ele>
        <time>2020-06-19T10:11:13.370Z</time>
      </trkpt>
      <trkpt lat="46.98838" lon="0.2873">
        <ele>64.11333465576</ele>
        <time>2020-06-19T10:11:19.453Z</time>
      </trkpt>
      <trkpt lat="46.98752" lon="0.28602">
        <ele>62.91875076294</ele>
        <time>2020-06-19T10:11:25.555Z</time>
      </trkpt>
      <trkpt lat="46.98689" lon="0.28519">
        <ele>61.37017059326</ele>
        <time>2020-06-19T10:11:31.671Z</time>
      </trkpt>
      <trkpt lat="46.98677" lon="0.28501">
        <ele>61.22619247437</ele>
        <time>2020-06-19T10:11:37.790Z</time>
      </trkpt>
      <trkpt lat="46.98667" lon="0.28493">
        <ele>61.10621261597</ele>
        <time>2020-06-19T10:11:43.911Z</time>
      </trkpt>
      <trkpt lat="46.98632" lon="0.28462">
        <ele>61.31371688843</ele>
        <time>2020-06-19T10:11:50.038Z</time>
      </trkpt>
      <trkpt lat="46.98616" lon="0.28444">
        <ele>61.50568389893</ele>
        <time>2020-06-19T10:11:56.168Z</time>
      </trkpt>
      <trkpt lat="46.9858" lon="0.28381">
        <ele>61.93761444092</ele>
        <time>2020-06-19T10:12:02.307Z</time>
      </trkpt>
      <trkpt lat="46.98547" lon="0.28322">
        <ele>61.66645431519</ele>
        <time>2020-06-19T10:12:08.455Z</time>
      </trkpt>
      <trkpt lat="46.98534" lon="0.283">
        <ele>61.51047897339</ele>
        <time>2020-06-19T10:12:14.606Z</time>
      </trkpt>
      <trkpt lat="46.98527" lon="0.28298">
        <ele>61.42649459839</ele>
        <time>2020-06-19T10:12:20.758Z</time>
      </trkpt>
      <trkpt lat="46.985" lon="0.28287">
        <ele>61.21525192261</ele>
        <time>2020-06-19T10:12:26.915Z</time>
      </trkpt>
      <trkpt lat="46.98469" lon="0.28274">
        <ele>61.2693901062</ele>
        <time>2020-06-19T10:12:33.077Z</time>
      </trkpt>
      <trkpt lat="46.98419" lon="0.2825">
        <ele>61.86928939819</ele>
        <time>2020-06-19T10:12:39.247Z</time>
      </trkpt>
      <trkpt lat="46.98358" lon="0.28222">
        <ele>62.60116958618</ele>
        <time>2020-06-19T10:12:45.427Z</time>
      </trkpt>
      <trkpt lat="46.98323" lon="0.28209">
        <ele>63.01474761963</ele>
        <time>2020-06-19T10:12:51.613Z</time>
      </trkpt>
      <trkpt lat="46.98262" lon="0.282">
        <ele>64.50595092773</ele>
        <time>2020-06-19T10:12:57.809Z</time>
      </trkpt>
      <trkpt lat="46.98224" lon="0.28194">
        <ele>65.20890045166</ele>
        <time>2020-06-19T10:13:04.011Z</time>
      </trkpt>
      <trkpt lat="46.98211" lon="0.28188">
        <ele>65.36487579346</ele>
        <time>2020-06-19T10:13:10.215Z</time>
      </trkpt>
      <trkpt lat="46.98201" lon="0.28178">
        <ele>65.48485565186</ele>
        <time>2020-06-19T10:13:16.421Z</time>
      </trkpt>
      <trkpt lat="46.98189" lon="0.28148">
        <ele>65.62882995605</ele>
        <time>2020-06-19T10:13:22.631Z</time>
      </trkpt>
      <trkpt lat="46.98179" lon="0.28129">
        <ele>65.75720214844</ele>
        <time>2020-06-19T10:13:28.844Z</time>
      </trkpt>
      <trkpt lat="46.9817" lon="0.28119">
        <ele>65.98516082764</ele>
        <time>2020-06-19T10:13:35.058Z</time>
      </trkpt>
      <trkpt lat="46.98158" lon="0.28112">
        <ele>66.21466064453</ele>
        <time>2020-06-19T10:13:41.274Z</time>
      </trkpt>
      <trkpt lat="46.98081" lon="0.28087">
        <ele>69.28614807129</ele>
        <time>2020-06-19T10:13:47.503Z</time>
      </trkpt>
      <trkpt lat="46.98048" lon="0.28076">
        <ele>70.28538513184</ele>
        <time>2020-06-19T10:13:53.738Z</time>
      </trkpt>
      <trkpt lat="46.98005" lon="0.28063">
        <ele>71.47318267822</ele>
        <time>2020-06-19T10:13:59.980Z</time>
      </trkpt>
      <trkpt lat="46.97969" lon="0.28053">
        <ele>71.92023468018</ele>
        <time>2020-06-19T10:14:06.227Z</time>
      </trkpt>
      <trkpt lat="46.97957" lon="0.28053">
        <ele>71.92023468018</ele>
        <time>2020-06-19T10:14:12.476Z</time>
      </trkpt>
      <trkpt lat="46.97954" lon="0.28056">
        <ele>71.88424682617</ele>
        <time>2020-06-19T10:14:18.726Z</time>
      </trkpt>
      <trkpt lat="46.9795" lon="0.28061">
        <ele>71.82425689697</ele>
        <time>2020-06-19T10:14:24.977Z</time>
      </trkpt>
      <trkpt lat="46.97947" lon="0.28069">
        <ele>71.72827148438</ele>
        <time>2020-06-19T10:14:31.229Z</time>
      </trkpt>
      <trkpt lat="46.97942" lon="0.28141">
        <ele>71.13558959961</ele>
        <time>2020-06-19T10:14:37.489Z</time>
      </trkpt>
      <trkpt lat="46.97936" lon="0.28199">
        <ele>71.8314666748</ele>
        <time>2020-06-19T10:14:43.755Z</time>
      </trkpt>
      <trkpt lat="46.97932" lon="0.28243">
        <ele>71.5689163208</ele>
        <time>2020-06-19T10:14:50.026Z</time>
      </trkpt>
      <trkpt lat="46.97915" lon="0.28248">
        <ele>71.244972229</ele>
        <time>2020-06-19T10:14:56.300Z</time>
      </trkpt>
      <trkpt lat="46.97871" lon="0.28259">
        <ele>69.56471252441</ele>
        <time>2020-06-19T10:15:02.581Z</time>
      </trkpt>
      <trkpt lat="46.97826" lon="0.28257">
        <ele>69.01589202881</ele>
        <time>2020-06-19T10:15:08.869Z</time>
      </trkpt>
      <trkpt lat="46.97825" lon="0.28265">
        <ele>69.00389862061</ele>
        <time>2020-06-19T10:15:15.158Z</time>
      </trkpt>
      <trkpt lat="46.97826" lon="0.28257">
        <ele>69.01589202881</ele>
        <time>2020-06-19T10:15:21.448Z</time>
      </trkpt>
      <trkpt lat="46.97809" lon="0.28256">
        <ele>68.05964660645</ele>
        <time>2020-06-19T10:15:27.741Z</time>
      </trkpt>
      <trkpt lat="46.97791" lon="0.28257">
        <ele>66.97982788086</ele>
        <time>2020-06-19T10:15:34.036Z</time>
      </trkpt>
      <trkpt lat="46.97772" lon="0.28264">
        <ele>65.84001159668</ele>
        <time>2020-06-19T10:15:40.335Z</time>
      </trkpt>
      <trkpt lat="46.97753" lon="0.28282">
        <ele>64.70020294189</ele>
        <time>2020-06-19T10:15:46.637Z</time>
      </trkpt>
      <trkpt lat="46.97734" lon="0.28303">
        <ele>63.83281707764</ele>
        <time>2020-06-19T10:15:52.943Z</time>
      </trkpt>
      <trkpt lat="46.97721" lon="0.2833">
        <ele>63.35289764404</ele>
        <time>2020-06-19T10:15:59.253Z</time>
      </trkpt>
      <trkpt lat="46.97696" lon="0.2839">
        <ele>61.66613388062</ele>
        <time>2020-06-19T10:16:05.570Z</time>
      </trkpt>
      <trkpt lat="46.9768" lon="0.28428">
        <ele>61</ele>
        <time>2020-06-19T10:16:11.892Z</time>
      </trkpt>
      <trkpt lat="46.97671" lon="0.28444">
        <ele>61</ele>
        <time>2020-06-19T10:16:18.217Z</time>
      </trkpt>
      <trkpt lat="46.97652" lon="0.28466">
        <ele>60.85837173462</ele>
        <time>2020-06-19T10:16:24.545Z</time>
      </trkpt>
      <trkpt lat="46.97615" lon="0.28498">
        <ele>59.64657211304</ele>
        <time>2020-06-19T10:16:30.880Z</time>
      </trkpt>
      <trkpt lat="46.97606" lon="0.28504">
        <ele>59.50914001465</ele>
        <time>2020-06-19T10:16:37.217Z</time>
      </trkpt>
      <trkpt lat="46.97589" lon="0.28509">
        <ele>59.44915008545</ele>
        <time>2020-06-19T10:16:43.557Z</time>
      </trkpt>
      <trkpt lat="46.97585" lon="0.28512">
        <ele>59.41315460205</ele>
        <time>2020-06-19T10:16:49.897Z</time>
      </trkpt>
      <trkpt lat="46.97539" lon="0.2855">
        <ele>59.04276657104</ele>
        <time>2020-06-19T10:16:56.246Z</time>
      </trkpt>
      <trkpt lat="46.97529" lon="0.28554">
        <ele>59.09075927734</ele>
        <time>2020-06-19T10:17:02.597Z</time>
      </trkpt>
      <trkpt lat="46.97517" lon="0.28556">
        <ele>59.11475753784</ele>
        <time>2020-06-19T10:17:08.949Z</time>
      </trkpt>
      <trkpt lat="46.97489" lon="0.28552">
        <ele>59.06676483154</ele>
        <time>2020-06-19T10:17:15.306Z</time>
      </trkpt>
      <trkpt lat="46.97436" lon="0.28549">
        <ele>59.03076934814</ele>
        <time>2020-06-19T10:17:21.671Z</time>
      </trkpt>
      <trkpt lat="46.97417" lon="0.28551">
        <ele>59.05476760864</ele>
        <time>2020-06-19T10:17:28.039Z</time>
      </trkpt>
      <trkpt lat="46.97382" lon="0.2856">
        <ele>58.85153198242</ele>
        <time>2020-06-19T10:17:34.413Z</time>
      </trkpt>
      <trkpt lat="46.97333" lon="0.28578">
        <ele>57.92393112183</ele>
        <time>2020-06-19T10:17:40.795Z</time>
      </trkpt>
      <trkpt lat="46.97267" lon="0.28605">
        <ele>56.70265960693</ele>
        <time>2020-06-19T10:17:47.188Z</time>
      </trkpt>
      <trkpt lat="46.97202" lon="0.28625">
        <ele>58.41257095337</ele>
        <time>2020-06-19T10:17:53.592Z</time>
      </trkpt>
      <trkpt lat="46.97061" lon="0.28668">
        <ele>63.37889099121</ele>
        <time>2020-06-19T10:18:00.019Z</time>
      </trkpt>
      <trkpt lat="46.96919" lon="0.2872">
        <ele>64.70143127441</ele>
        <time>2020-06-19T10:18:06.469Z</time>
      </trkpt>
      <trkpt lat="46.96872" lon="0.28737">
        <ele>63.99701309204</ele>
        <time>2020-06-19T10:18:12.927Z</time>
      </trkpt>
      <trkpt lat="46.96807" lon="0.28713">
        <ele>62.9574508667</ele>
        <time>2020-06-19T10:18:19.396Z</time>
      </trkpt>
      <trkpt lat="46.96652" lon="0.28661">
        <ele>60.3623008728</ele>
        <time>2020-06-19T10:18:25.890Z</time>
      </trkpt>
      <trkpt lat="46.96609" lon="0.28645">
        <ele>60.09834289551</ele>
        <time>2020-06-19T10:18:32.391Z</time>
      </trkpt>
      <trkpt lat="46.96585" lon="0.2863">
        <ele>60.2423210144</ele>
        <time>2020-06-19T10:18:38.897Z</time>
      </trkpt>
      <trkpt lat="46.96556" lon="0.28606">
        <ele>59.77843475342</ele>
        <time>2020-06-19T10:18:45.408Z</time>
      </trkpt>
      <trkpt lat="46.96455" lon="0.28493">
        <ele>61.37457275391</ele>
        <time>2020-06-19T10:18:51.939Z</time>
      </trkpt>
      <trkpt lat="46.96383" lon="0.28413">
        <ele>63.67670440674</ele>
        <time>2020-06-19T10:18:58.485Z</time>
      </trkpt>
      <trkpt lat="46.96357" lon="0.28388">
        <ele>64.66054534912</ele>
        <time>2020-06-19T10:19:05.036Z</time>
      </trkpt>
      <trkpt lat="46.9632" lon="0.28364">
        <ele>66.07921600342</ele>
        <time>2020-06-19T10:19:11.593Z</time>
      </trkpt>
      <trkpt lat="46.96179" lon="0.28279">
        <ele>67.23443603516</ele>
        <time>2020-06-19T10:19:18.175Z</time>
      </trkpt>
      <trkpt lat="46.96068" lon="0.28218">
        <ele>67.7702331543</ele>
        <time>2020-06-19T10:19:24.776Z</time>
      </trkpt>
      <trkpt lat="46.95956" lon="0.28158">
        <ele>62.83837127686</ele>
        <time>2020-06-19T10:19:31.396Z</time>
      </trkpt>
      <trkpt lat="46.95867" lon="0.28107">
        <ele>61.91987228394</ele>
        <time>2020-06-19T10:19:38.031Z</time>
      </trkpt>
      <trkpt lat="46.95823" lon="0.2808">
        <ele>62.85571670532</ele>
        <time>2020-06-19T10:19:44.674Z</time>
      </trkpt>
      <trkpt lat="46.95802" lon="0.28064">
        <ele>63.22765350342</ele>
        <time>2020-06-19T10:19:51.320Z</time>
      </trkpt>
      <trkpt lat="46.95772" lon="0.28036">
        <ele>64.00819396973</ele>
        <time>2020-06-19T10:19:57.972Z</time>
      </trkpt>
      <trkpt lat="46.95727" lon="0.27985">
        <ele>66.07191467285</ele>
        <time>2020-06-19T10:20:04.633Z</time>
      </trkpt>
      <trkpt lat="46.95647" lon="0.27891">
        <ele>67.48900604248</ele>
        <time>2020-06-19T10:20:11.311Z</time>
      </trkpt>
      <trkpt lat="46.95617" lon="0.27864">
        <ele>65.86138916016</ele>
        <time>2020-06-19T10:20:17.994Z</time>
      </trkpt>
      <trkpt lat="46.95507" lon="0.27778">
        <ele>62.19253158569</ele>
        <time>2020-06-19T10:20:24.697Z</time>
      </trkpt>
      <trkpt lat="46.95434" lon="0.27719">
        <ele>63.36664199829</ele>
        <time>2020-06-19T10:20:31.414Z</time>
      </trkpt>
      <trkpt lat="46.9535" lon="0.27654">
        <ele>62.65026473999</ele>
        <time>2020-06-19T10:20:38.146Z</time>
      </trkpt>
      <trkpt lat="46.95303" lon="0.27624">
        <ele>62.96731948853</ele>
        <time>2020-06-19T10:20:44.886Z</time>
      </trkpt>
      <trkpt lat="46.95276" lon="0.2761">
        <ele>64.4430770874</ele>
        <time>2020-06-19T10:20:51.631Z</time>
      </trkpt>
      <trkpt lat="46.95249" lon="0.27598">
        <ele>65.84683990479</ele>
        <time>2020-06-19T10:20:58.380Z</time>
      </trkpt>
      <trkpt lat="46.95153" lon="0.27567">
        <ele>69.60698699951</ele>
        <time>2020-06-19T10:21:05.145Z</time>
      </trkpt>
      <trkpt lat="46.95126" lon="0.27556">
        <ele>69.99092102051</ele>
        <time>2020-06-19T10:21:11.914Z</time>
      </trkpt>
      <trkpt lat="46.95103" lon="0.27541">
        <ele>70.30931854248</ele>
        <time>2020-06-19T10:21:18.687Z</time>
      </trkpt>
      <trkpt lat="46.95071" lon="0.27516">
        <ele>71.03859710693</ele>
        <time>2020-06-19T10:21:25.466Z</time>
      </trkpt>
      <trkpt lat="46.95041" lon="0.27487">
        <ele>71.39853668213</ele>
        <time>2020-06-19T10:21:32.251Z</time>
      </trkpt>
      <trkpt lat="46.95017" lon="0.27466">
        <ele>71.68648529053</ele>
        <time>2020-06-19T10:21:39.041Z</time>
      </trkpt>
      <trkpt lat="46.94991" lon="0.27437">
        <ele>72.30944061279</ele>
        <time>2020-06-19T10:21:45.836Z</time>
      </trkpt>
      <trkpt lat="46.94972" lon="0.27407">
        <ele>72.44454956055</ele>
        <time>2020-06-19T10:21:52.635Z</time>
      </trkpt>
      <trkpt lat="46.94966" lon="0.27394">
        <ele>72.52853393555</ele>
        <time>2020-06-19T10:21:59.436Z</time>
      </trkpt>
      <trkpt lat="46.94959" lon="0.27374">
        <ele>72.48386383057</ele>
        <time>2020-06-19T10:22:06.239Z</time>
      </trkpt>
      <trkpt lat="46.94946" lon="0.27326">
        <ele>71.69827270508</ele>
        <time>2020-06-19T10:22:13.048Z</time>
      </trkpt>
      <trkpt lat="46.94926" lon="0.2725">
        <ele>72.43943023682</ele>
        <time>2020-06-19T10:22:19.866Z</time>
      </trkpt>
      <trkpt lat="46.94915" lon="0.27227">
        <ele>72.19947052002</ele>
        <time>2020-06-19T10:22:26.687Z</time>
      </trkpt>
      <trkpt lat="46.94909" lon="0.27218">
        <ele>71.98350524902</ele>
        <time>2020-06-19T10:22:33.509Z</time>
      </trkpt>
      <trkpt lat="46.94888" lon="0.27198">
        <ele>71.17448425293</ele>
        <time>2020-06-19T10:22:40.335Z</time>
      </trkpt>
      <trkpt lat="46.9487" lon="0.27189">
        <ele>70.52658843994</ele>
        <time>2020-06-19T10:22:47.165Z</time>
      </trkpt>
      <trkpt lat="46.94785" lon="0.27169">
        <ele>67.53698730469</ele>
        <time>2020-06-19T10:22:54.008Z</time>
      </trkpt>
      <trkpt lat="46.94521" lon="0.27111">
        <ele>65.02956390381</ele>
        <time>2020-06-19T10:23:00.894Z</time>
      </trkpt>
      <trkpt lat="46.9431" lon="0.27063">
        <ele>68.2815246582</ele>
        <time>2020-06-19T10:23:07.814Z</time>
      </trkpt>
      <trkpt lat="46.94289" lon="0.27057">
        <ele>69.073387146</ele>
        <time>2020-06-19T10:23:14.738Z</time>
      </trkpt>
      <trkpt lat="46.94255" lon="0.27043">
        <ele>70.20120239258</ele>
        <time>2020-06-19T10:23:21.667Z</time>
      </trkpt>
      <trkpt lat="46.9421" lon="0.27019">
        <ele>71.53968811035</ele>
        <time>2020-06-19T10:23:28.604Z</time>
      </trkpt>
      <trkpt lat="46.94198" lon="0.27012">
        <ele>71.92362976074</ele>
        <time>2020-06-19T10:23:35.543Z</time>
      </trkpt>
      <trkpt lat="46.94125" lon="0.2697">
        <ele>71.1775970459</ele>
        <time>2020-06-19T10:23:42.495Z</time>
      </trkpt>
      <trkpt lat="46.94087" lon="0.2695">
        <ele>69.62014770508</ele>
        <time>2020-06-19T10:23:49.453Z</time>
      </trkpt>
      <trkpt lat="46.94059" lon="0.2694">
        <ele>69.81572723389</ele>
        <time>2020-06-19T10:23:56.416Z</time>
      </trkpt>
      <trkpt lat="46.93975" lon="0.26918">
        <ele>69.8509979248</ele>
        <time>2020-06-19T10:24:03.392Z</time>
      </trkpt>
      <trkpt lat="46.93926" lon="0.26911">
        <ele>69.48781585693</ele>
        <time>2020-06-19T10:24:10.376Z</time>
      </trkpt>
      <trkpt lat="46.93912" lon="0.26913">
        <ele>69.39183044434</ele>
        <time>2020-06-19T10:24:17.362Z</time>
      </trkpt>
      <trkpt lat="46.93894" lon="0.26919">
        <ele>69.10388183594</ele>
        <time>2020-06-19T10:24:24.351Z</time>
      </trkpt>
      <trkpt lat="46.93858" lon="0.26945">
        <ele>68.2342376709</ele>
        <time>2020-06-19T10:24:31.347Z</time>
      </trkpt>
      <trkpt lat="46.93817" lon="0.2698">
        <ele>67.71862792969</ele>
        <time>2020-06-19T10:24:38.350Z</time>
      </trkpt>
      <trkpt lat="46.93711" lon="0.27068">
        <ele>67.026512146</ele>
        <time>2020-06-19T10:24:45.373Z</time>
      </trkpt>
      <trkpt lat="46.93686" lon="0.2709">
        <ele>66.34417724609</ele>
        <time>2020-06-19T10:24:52.401Z</time>
      </trkpt>
      <trkpt lat="46.93666" lon="0.27113">
        <ele>66.1042098999</ele>
        <time>2020-06-19T10:24:59.433Z</time>
      </trkpt>
      <trkpt lat="46.93625" lon="0.27163">
        <ele>65.21075439453</ele>
        <time>2020-06-19T10:25:06.473Z</time>
      </trkpt>
      <trkpt lat="46.93594" lon="0.27191">
        <ele>64.00574493408</ele>
        <time>2020-06-19T10:25:13.519Z</time>
      </trkpt>
      <trkpt lat="46.93573" lon="0.27201">
        <ele>63.29666900635</ele>
        <time>2020-06-19T10:25:20.569Z</time>
      </trkpt>
      <trkpt lat="46.93548" lon="0.27208">
        <ele>63.68164825439</ele>
        <time>2020-06-19T10:25:27.623Z</time>
      </trkpt>
      <trkpt lat="46.93499" lon="0.27219">
        <ele>64.79890441895</ele>
        <time>2020-06-19T10:25:34.685Z</time>
      </trkpt>
      <trkpt lat="46.93471" lon="0.27224">
        <ele>65.47079467773</ele>
        <time>2020-06-19T10:25:41.751Z</time>
      </trkpt>
      <trkpt lat="46.93423" lon="0.27229">
        <ele>66.61318206787</ele>
        <time>2020-06-19T10:25:48.825Z</time>
      </trkpt>
      <trkpt lat="46.93318" lon="0.27239">
        <ele>68.74644470215</ele>
        <time>2020-06-19T10:25:55.916Z</time>
      </trkpt>
      <trkpt lat="46.93272" lon="0.27243">
        <ele>68.55447387695</ele>
        <time>2020-06-19T10:26:03.014Z</time>
      </trkpt>
      <trkpt lat="46.93224" lon="0.27241">
        <ele>71.13299560547</ele>
        <time>2020-06-19T10:26:10.120Z</time>
      </trkpt>
      <trkpt lat="46.93109" lon="0.27228">
        <ele>75.52017211914</ele>
        <time>2020-06-19T10:26:17.244Z</time>
      </trkpt>
      <trkpt lat="46.93045" lon="0.27225">
        <ele>75.54203796387</ele>
        <time>2020-06-19T10:26:24.379Z</time>
      </trkpt>
      <trkpt lat="46.92981" lon="0.27227">
        <ele>73.73707580566</ele>
        <time>2020-06-19T10:26:31.524Z</time>
      </trkpt>
      <trkpt lat="46.92922" lon="0.27228">
        <ele>75.18511962891</ele>
        <time>2020-06-19T10:26:38.678Z</time>
      </trkpt>
      <trkpt lat="46.9286" lon="0.27214">
        <ele>74.46070098877</ele>
        <time>2020-06-19T10:26:45.842Z</time>
      </trkpt>
      <trkpt lat="46.92741" lon="0.27173">
        <ele>76.98181152344</ele>
        <time>2020-06-19T10:26:53.026Z</time>
      </trkpt>
      <trkpt lat="46.92671" lon="0.27148">
        <ele>77</ele>
        <time>2020-06-19T10:27:00.221Z</time>
      </trkpt>
      <trkpt lat="46.92642" lon="0.27145">
        <ele>76.63652038574</ele>
        <time>2020-06-19T10:27:07.421Z</time>
      </trkpt>
      <trkpt lat="46.92624" lon="0.27145">
        <ele>76.20459747314</ele>
        <time>2020-06-19T10:27:14.624Z</time>
      </trkpt>
      <trkpt lat="46.92611" lon="0.27149">
        <ele>75.89264678955</ele>
        <time>2020-06-19T10:27:21.829Z</time>
      </trkpt>
      <trkpt lat="46.92572" lon="0.27168">
        <ele>74.53846740723</ele>
        <time>2020-06-19T10:27:29.041Z</time>
      </trkpt>
      <trkpt lat="46.9253" lon="0.27192">
        <ele>74.52551269531</ele>
        <time>2020-06-19T10:27:36.260Z</time>
      </trkpt>
      <trkpt lat="46.925" lon="0.27206">
        <ele>74.88545227051</ele>
        <time>2020-06-19T10:27:43.484Z</time>
      </trkpt>
      <trkpt lat="46.9247" lon="0.27218">
        <ele>75.9815826416</ele>
        <time>2020-06-19T10:27:50.713Z</time>
      </trkpt>
      <trkpt lat="46.92452" lon="0.27224">
        <ele>76.84543609619</ele>
        <time>2020-06-19T10:27:57.945Z</time>
      </trkpt>
      <trkpt lat="46.92404" lon="0.27235">
        <ele>78.50646972656</ele>
        <time>2020-06-19T10:28:05.185Z</time>
      </trkpt>
      <trkpt lat="46.9216" lon="0.27284">
        <ele>77.46952819824</ele>
        <time>2020-06-19T10:28:12.464Z</time>
      </trkpt>
      <trkpt lat="46.92074" lon="0.27302">
        <ele>77.06926727295</ele>
        <time>2020-06-19T10:28:19.757Z</time>
      </trkpt>
      <trkpt lat="46.92024" lon="0.2731">
        <ele>75.9722442627</ele>
        <time>2020-06-19T10:28:27.058Z</time>
      </trkpt>
      <trkpt lat="46.92" lon="0.27308">
        <ele>75.34663391113</ele>
        <time>2020-06-19T10:28:34.363Z</time>
      </trkpt>
      <trkpt lat="46.91988" lon="0.27303">
        <ele>74.97156524658</ele>
        <time>2020-06-19T10:28:41.670Z</time>
      </trkpt>
      <trkpt lat="46.91974" lon="0.27296">
        <ele>74.80904388428</ele>
        <time>2020-06-19T10:28:48.979Z</time>
      </trkpt>
      <trkpt lat="46.91959" lon="0.27285">
        <ele>74.89302825928</ele>
        <time>2020-06-19T10:28:56.291Z</time>
      </trkpt>
      <trkpt lat="46.91935" lon="0.27266">
        <ele>75.06100463867</ele>
        <time>2020-06-19T10:29:03.607Z</time>
      </trkpt>
      <trkpt lat="46.91908" lon="0.27244">
        <ele>75.26496887207</ele>
        <time>2020-06-19T10:29:10.928Z</time>
      </trkpt>
      <trkpt lat="46.91891" lon="0.27233">
        <ele>75.51719665527</ele>
        <time>2020-06-19T10:29:18.252Z</time>
      </trkpt>
      <trkpt lat="46.9188" lon="0.27228">
        <ele>75.63717651367</ele>
        <time>2020-06-19T10:29:25.578Z</time>
      </trkpt>
      <trkpt lat="46.91863" lon="0.27228">
        <ele>75.63717651367</ele>
        <time>2020-06-19T10:29:32.907Z</time>
      </trkpt>
      <trkpt lat="46.9185" lon="0.27231">
        <ele>75.56518554688</ele>
        <time>2020-06-19T10:29:40.238Z</time>
      </trkpt>
      <trkpt lat="46.91816" lon="0.27247">
        <ele>76.27626037598</ele>
        <time>2020-06-19T10:29:47.575Z</time>
      </trkpt>
      <trkpt lat="46.91767" lon="0.27272">
        <ele>77.65065765381</ele>
        <time>2020-06-19T10:29:54.920Z</time>
      </trkpt>
      <trkpt lat="46.91706" lon="0.27299">
        <ele>78.8570022583</ele>
        <time>2020-06-19T10:30:02.275Z</time>
      </trkpt>
      <trkpt lat="46.91673" lon="0.27311">
        <ele>79.79284667969</ele>
        <time>2020-06-19T10:30:09.636Z</time>
      </trkpt>
      <trkpt lat="46.91564" lon="0.2735">
        <ele>83.10217285156</ele>
        <time>2020-06-19T10:30:17.015Z</time>
      </trkpt>
      <trkpt lat="46.91539" lon="0.27358">
        <ele>83.96460723877</ele>
        <time>2020-06-19T10:30:24.398Z</time>
      </trkpt>
      <trkpt lat="46.91507" lon="0.27367">
        <ele>84.39653778076</ele>
        <time>2020-06-19T10:30:31.786Z</time>
      </trkpt>
      <trkpt lat="46.91478" lon="0.2737">
        <ele>84.70517730713</ele>
        <time>2020-06-19T10:30:39.178Z</time>
      </trkpt>
      <trkpt lat="46.91435" lon="0.27367">
        <ele>83.67334747314</ele>
        <time>2020-06-19T10:30:46.577Z</time>
      </trkpt>
      <trkpt lat="46.91368" lon="0.27356">
        <ele>80.86103820801</ele>
        <time>2020-06-19T10:30:53.987Z</time>
      </trkpt>
      <trkpt lat="46.91332" lon="0.27353">
        <ele>77.98152160645</ele>
        <time>2020-06-19T10:31:01.403Z</time>
      </trkpt>
      <trkpt lat="46.91206" lon="0.27345">
        <ele>75.24842071533</ele>
        <time>2020-06-19T10:31:08.839Z</time>
      </trkpt>
      <trkpt lat="46.91184" lon="0.27344">
        <ele>75.528465271</ele>
        <time>2020-06-19T10:31:16.279Z</time>
      </trkpt>
      <trkpt lat="46.9116" lon="0.27338">
        <ele>75.96038818359</ele>
        <time>2020-06-19T10:31:23.723Z</time>
      </trkpt>
      <trkpt lat="46.91137" lon="0.27326">
        <ele>75.80811309814</ele>
        <time>2020-06-19T10:31:31.170Z</time>
      </trkpt>
      <trkpt lat="46.91105" lon="0.273">
        <ele>75.66413116455</ele>
        <time>2020-06-19T10:31:38.623Z</time>
      </trkpt>
      <trkpt lat="46.91038" lon="0.27231">
        <ele>76.56518554688</ele>
        <time>2020-06-19T10:31:46.089Z</time>
      </trkpt>
      <trkpt lat="46.90931" lon="0.27125">
        <ele>80.92784881592</ele>
        <time>2020-06-19T10:31:53.576Z</time>
      </trkpt>
      <trkpt lat="46.909" lon="0.27105">
        <ele>82.2596282959</ele>
        <time>2020-06-19T10:32:01.069Z</time>
      </trkpt>
      <trkpt lat="46.90876" lon="0.27094">
        <ele>83.07548522949</ele>
        <time>2020-06-19T10:32:08.566Z</time>
      </trkpt>
      <trkpt lat="46.90781" lon="0.27059">
        <ele>84.87498474121</ele>
        <time>2020-06-19T10:32:16.078Z</time>
      </trkpt>
      <trkpt lat="46.90742" lon="0.2704">
        <ele>85.09627532959</ele>
        <time>2020-06-19T10:32:23.597Z</time>
      </trkpt>
      <trkpt lat="46.90696" lon="0.27011">
        <ele>83.30276489258</ele>
        <time>2020-06-19T10:32:31.124Z</time>
      </trkpt>
      <trkpt lat="46.90666" lon="0.26987">
        <ele>82.1509552002</ele>
        <time>2020-06-19T10:32:38.656Z</time>
      </trkpt>
      <trkpt lat="46.90649" lon="0.2697">
        <ele>81.6328125</ele>
        <time>2020-06-19T10:32:46.192Z</time>
      </trkpt>
      <trkpt lat="46.90577" lon="0.26889">
        <ele>83.55672454834</ele>
        <time>2020-06-19T10:32:53.742Z</time>
      </trkpt>
      <trkpt lat="46.905" lon="0.26808">
        <ele>82.21337890625</ele>
        <time>2020-06-19T10:33:01.307Z</time>
      </trkpt>
      <trkpt lat="46.90465" lon="0.26773">
        <ele>82.25397491455</ele>
        <time>2020-06-19T10:33:08.879Z</time>
      </trkpt>
      <trkpt lat="46.9044" lon="0.26751">
        <ele>82.48193359375</ele>
        <time>2020-06-19T10:33:16.456Z</time>
      </trkpt>
      <trkpt lat="46.9043" lon="0.26741">
        <ele>82.60191345215</ele>
        <time>2020-06-19T10:33:24.035Z</time>
      </trkpt>
      <trkpt lat="46.90419" lon="0.26733">
        <ele>82.66190338135</ele>
        <time>2020-06-19T10:33:31.616Z</time>
      </trkpt>
      <trkpt lat="46.90393" lon="0.26712">
        <ele>82.52339172363</ele>
        <time>2020-06-19T10:33:39.202Z</time>
      </trkpt>
      <trkpt lat="46.90253" lon="0.26615">
        <ele>80.65679931641</ele>
        <time>2020-06-19T10:33:46.812Z</time>
      </trkpt>
      <trkpt lat="46.90189" lon="0.26568">
        <ele>80.86170196533</ele>
        <time>2020-06-19T10:33:54.434Z</time>
      </trkpt>
      <trkpt lat="46.90149" lon="0.26534">
        <ele>81.29039764404</ele>
        <time>2020-06-19T10:34:02.063Z</time>
      </trkpt>
      <trkpt lat="46.90098" lon="0.26482">
        <ele>82.53819274902</ele>
        <time>2020-06-19T10:34:09.702Z</time>
      </trkpt>
      <trkpt lat="46.90073" lon="0.26462">
        <ele>82.9907989502</ele>
        <time>2020-06-19T10:34:17.346Z</time>
      </trkpt>
      <trkpt lat="46.90053" lon="0.26451">
        <ele>82.5108795166</ele>
        <time>2020-06-19T10:34:24.993Z</time>
      </trkpt>
      <trkpt lat="46.90025" lon="0.26439">
        <ele>81.83898925781</ele>
        <time>2020-06-19T10:34:32.645Z</time>
      </trkpt>
      <trkpt lat="46.89987" lon="0.26424">
        <ele>81.07286071777</ele>
        <time>2020-06-19T10:34:40.303Z</time>
      </trkpt>
      <trkpt lat="46.89965" lon="0.26412">
        <ele>81.60076904297</ele>
        <time>2020-06-19T10:34:47.965Z</time>
      </trkpt>
      <trkpt lat="46.89948" lon="0.26398">
        <ele>82.00870513916</ele>
        <time>2020-06-19T10:34:55.630Z</time>
      </trkpt>
      <trkpt lat="46.89935" lon="0.26382">
        <ele>82.32064819336</ele>
        <time>2020-06-19T10:35:03.298Z</time>
      </trkpt>
      <trkpt lat="46.89922" lon="0.26365">
        <ele>82.80546569824</ele>
        <time>2020-06-19T10:35:10.969Z</time>
      </trkpt>
      <trkpt lat="46.89861" lon="0.26285">
        <ele>84</ele>
        <time>2020-06-19T10:35:18.653Z</time>
      </trkpt>
      <trkpt lat="46.89769" lon="0.26152">
        <ele>84.65199279785</ele>
        <time>2020-06-19T10:35:26.357Z</time>
      </trkpt>
      <trkpt lat="46.89769" lon="0.26151">
        <ele>84.65199279785</ele>
        <time>2020-06-19T10:35:34.062Z</time>
      </trkpt>
      <trkpt lat="46.8976" lon="0.26137">
        <ele>84.75997924805</ele>
        <time>2020-06-19T10:35:41.769Z</time>
      </trkpt>
      <trkpt lat="46.89755" lon="0.26133">
        <ele>84.81996917725</ele>
        <time>2020-06-19T10:35:49.477Z</time>
      </trkpt>
      <trkpt lat="46.89748" lon="0.26134">
        <ele>84.90395355225</ele>
        <time>2020-06-19T10:35:57.186Z</time>
      </trkpt>
      <trkpt lat="46.89747" lon="0.26134">
        <ele>84.91594696045</ele>
        <time>2020-06-19T10:36:04.895Z</time>
      </trkpt>
      <trkpt lat="46.89747" lon="0.26132">
        <ele>84.91594696045</ele>
        <time>2020-06-19T10:36:12.604Z</time>
      </trkpt>
      <trkpt lat="46.89745" lon="0.26131">
        <ele>84.93994903564</ele>
        <time>2020-06-19T10:36:20.313Z</time>
      </trkpt>
      <trkpt lat="46.89741" lon="0.26133">
        <ele>84.98793792725</ele>
        <time>2020-06-19T10:36:28.023Z</time>
      </trkpt>
      <trkpt lat="46.8974" lon="0.26138">
        <ele>84.99993896484</ele>
        <time>2020-06-19T10:36:35.734Z</time>
      </trkpt>
      <trkpt lat="46.89741" lon="0.2614">
        <ele>84.98793792725</ele>
        <time>2020-06-19T10:36:43.445Z</time>
      </trkpt>
      <trkpt lat="46.89736" lon="0.26154">
        <ele>85.09585571289</ele>
        <time>2020-06-19T10:36:51.158Z</time>
      </trkpt>
      <trkpt lat="46.8973" lon="0.26172">
        <ele>85.23983001709</ele>
        <time>2020-06-19T10:36:58.873Z</time>
      </trkpt>
      <trkpt lat="46.89717" lon="0.26207">
        <ele>85.34443664551</ele>
        <time>2020-06-19T10:37:06.592Z</time>
      </trkpt>
      <trkpt lat="46.89689" lon="0.2627">
        <ele>84.62534332275</ele>
        <time>2020-06-19T10:37:14.319Z</time>
      </trkpt>
      <trkpt lat="46.89627" lon="0.26374">
        <ele>83.35571289062</ele>
        <time>2020-06-19T10:37:22.062Z</time>
      </trkpt>
      <trkpt lat="46.89605" lon="0.26403">
        <ele>83.90272521973</ele>
        <time>2020-06-19T10:37:29.809Z</time>
      </trkpt>
      <trkpt lat="46.89578" lon="0.26426">
        <ele>83.49737548828</ele>
        <time>2020-06-19T10:37:37.561Z</time>
      </trkpt>
      <trkpt lat="46.8954" lon="0.26454">
        <ele>84.00915527344</ele>
        <time>2020-06-19T10:37:45.320Z</time>
      </trkpt>
      <trkpt lat="46.89533" lon="0.26465">
        <ele>83.99398040771</ele>
        <time>2020-06-19T10:37:53.081Z</time>
      </trkpt>
      <trkpt lat="46.89527" lon="0.26485">
        <ele>84.37791442871</ele>
        <time>2020-06-19T10:38:00.844Z</time>
      </trkpt>
      <trkpt lat="46.89538" lon="0.26555">
        <ele>84.84706115723</ele>
        <time>2020-06-19T10:38:08.615Z</time>
      </trkpt>
      <trkpt lat="46.89539" lon="0.26567">
        <ele>84.82306671143</ele>
        <time>2020-06-19T10:38:16.387Z</time>
      </trkpt>
      <trkpt lat="46.89539" lon="0.26579">
        <ele>84.82306671143</ele>
        <time>2020-06-19T10:38:24.161Z</time>
      </trkpt>
      <trkpt lat="46.89535" lon="0.26602">
        <ele>84.78886413574</ele>
        <time>2020-06-19T10:38:31.937Z</time>
      </trkpt>
      <trkpt lat="46.8953" lon="0.26616">
        <ele>84.68087768555</ele>
        <time>2020-06-19T10:38:39.715Z</time>
      </trkpt>
      <trkpt lat="46.89517" lon="0.26638">
        <ele>84.77808380127</ele>
        <time>2020-06-19T10:38:47.496Z</time>
      </trkpt>
      <trkpt lat="46.89503" lon="0.26659">
        <ele>85.19801330566</ele>
        <time>2020-06-19T10:38:55.280Z</time>
      </trkpt>
      <trkpt lat="46.89439" lon="0.26752">
        <ele>86</ele>
        <time>2020-06-19T10:39:03.079Z</time>
      </trkpt>
      <trkpt lat="46.89429" lon="0.2677">
        <ele>86</ele>
        <time>2020-06-19T10:39:10.880Z</time>
      </trkpt>
      <trkpt lat="46.89414" lon="0.26806">
        <ele>86.08871459961</ele>
        <time>2020-06-19T10:39:18.686Z</time>
      </trkpt>
      <trkpt lat="46.89372" lon="0.26911">
        <ele>87.24559783936</ele>
        <time>2020-06-19T10:39:26.505Z</time>
      </trkpt>
      <trkpt lat="46.89371" lon="0.26917">
        <ele>87.28159332275</ele>
        <time>2020-06-19T10:39:34.325Z</time>
      </trkpt>
      <trkpt lat="46.89353" lon="0.26916">
        <ele>88.01068115234</ele>
        <time>2020-06-19T10:39:42.148Z</time>
      </trkpt>
      <trkpt lat="46.89329" lon="0.2692">
        <ele>89.21047973633</ele>
        <time>2020-06-19T10:39:49.975Z</time>
      </trkpt>
      <trkpt lat="46.8927" lon="0.26919">
        <ele>90</ele>
        <time>2020-06-19T10:39:57.811Z</time>
      </trkpt>
      <trkpt lat="46.89262" lon="0.27039">
        <ele>89.46996307373</ele>
        <time>2020-06-19T10:40:05.661Z</time>
      </trkpt>
      <trkpt lat="46.89254" lon="0.27102">
        <ele>90.50062561035</ele>
        <time>2020-06-19T10:40:13.518Z</time>
      </trkpt>
      <trkpt lat="46.89245" lon="0.27152">
        <ele>90.79148864746</ele>
        <time>2020-06-19T10:40:21.380Z</time>
      </trkpt>
      <trkpt lat="46.89234" lon="0.2721">
        <ele>90.32006835938</ele>
        <time>2020-06-19T10:40:29.249Z</time>
      </trkpt>
      <trkpt lat="46.89223" lon="0.27253">
        <ele>91.49587249756</ele>
        <time>2020-06-19T10:40:37.123Z</time>
      </trkpt>
      <trkpt lat="46.89197" lon="0.27341">
        <ele>92.95532989502</ele>
        <time>2020-06-19T10:40:45.007Z</time>
      </trkpt>
      <trkpt lat="46.89178" lon="0.27394">
        <ele>92.4856262207</ele>
        <time>2020-06-19T10:40:52.898Z</time>
      </trkpt>
      <trkpt lat="46.89156" lon="0.27454">
        <ele>91.24114990234</ele>
        <time>2020-06-19T10:41:00.796Z</time>
      </trkpt>
      <trkpt lat="46.89119" lon="0.27525">
        <ele>93.35208129883</ele>
        <time>2020-06-19T10:41:08.704Z</time>
      </trkpt>
      <trkpt lat="46.89088" lon="0.27578">
        <ele>94.06121063232</ele>
        <time>2020-06-19T10:41:16.620Z</time>
      </trkpt>
      <trkpt lat="46.89043" lon="0.27645">
        <ele>94.81271362305</ele>
        <time>2020-06-19T10:41:24.546Z</time>
      </trkpt>
      <trkpt lat="46.89004" lon="0.27695">
        <ele>95.30749511719</ele>
        <time>2020-06-19T10:41:32.480Z</time>
      </trkpt>
      <trkpt lat="46.88965" lon="0.27739">
        <ele>96.49192810059</ele>
        <time>2020-06-19T10:41:40.422Z</time>
      </trkpt>
      <trkpt lat="46.88931" lon="0.27772">
        <ele>96.87302398682</ele>
        <time>2020-06-19T10:41:48.371Z</time>
      </trkpt>
      <trkpt lat="46.88902" lon="0.27798">
        <ele>95.95945739746</ele>
        <time>2020-06-19T10:41:56.325Z</time>
      </trkpt>
      <trkpt lat="46.88827" lon="0.27856">
        <ele>94.56768798828</ele>
        <time>2020-06-19T10:42:04.293Z</time>
      </trkpt>
      <trkpt lat="46.88639" lon="0.2801">
        <ele>93.41947174072</ele>
        <time>2020-06-19T10:42:12.295Z</time>
      </trkpt>
      <trkpt lat="46.88508" lon="0.28115">
        <ele>94.91567230225</ele>
        <time>2020-06-19T10:42:20.321Z</time>
      </trkpt>
      <trkpt lat="46.88411" lon="0.28193">
        <ele>97.0216293335</ele>
        <time>2020-06-19T10:42:28.365Z</time>
      </trkpt>
      <trkpt lat="46.8833" lon="0.28256">
        <ele>96.45393371582</ele>
        <time>2020-06-19T10:42:36.424Z</time>
      </trkpt>
      <trkpt lat="46.88269" lon="0.28305">
        <ele>96.09146881104</ele>
        <time>2020-06-19T10:42:44.494Z</time>
      </trkpt>
      <trkpt lat="46.8819" lon="0.28369">
        <ele>96.25847625732</ele>
        <time>2020-06-19T10:42:52.578Z</time>
      </trkpt>
      <trkpt lat="46.88033" lon="0.28496">
        <ele>103.48052215576</ele>
        <time>2020-06-19T10:43:00.691Z</time>
      </trkpt>
      <trkpt lat="46.87923" lon="0.28586">
        <ele>107.37499237061</ele>
        <time>2020-06-19T10:43:08.824Z</time>
      </trkpt>
      <trkpt lat="46.87895" lon="0.2861">
        <ele>110.08573150635</ele>
        <time>2020-06-19T10:43:16.963Z</time>
      </trkpt>
      <trkpt lat="46.87711" lon="0.2876">
        <ele>117.71868133545</ele>
        <time>2020-06-19T10:43:25.135Z</time>
      </trkpt>
      <trkpt lat="46.87626" lon="0.28818">
        <ele>120.7746963501</ele>
        <time>2020-06-19T10:43:33.322Z</time>
      </trkpt>
      <trkpt lat="46.87547" lon="0.28868">
        <ele>122.75379943848</ele>
        <time>2020-06-19T10:43:41.523Z</time>
      </trkpt>
      <trkpt lat="46.87481" lon="0.28908">
        <ele>121.82147979736</ele>
        <time>2020-06-19T10:43:49.736Z</time>
      </trkpt>
      <trkpt lat="46.87419" lon="0.28943">
        <ele>121.64275360107</ele>
        <time>2020-06-19T10:43:57.959Z</time>
      </trkpt>
      <trkpt lat="46.87328" lon="0.28987">
        <ele>116.1806640625</ele>
        <time>2020-06-19T10:44:06.198Z</time>
      </trkpt>
      <trkpt lat="46.87242" lon="0.29027">
        <ele>108.49571990967</ele>
        <time>2020-06-19T10:44:14.451Z</time>
      </trkpt>
      <trkpt lat="46.8715" lon="0.29065">
        <ele>103.85048675537</ele>
        <time>2020-06-19T10:44:22.719Z</time>
      </trkpt>
      <trkpt lat="46.86884" lon="0.2915">
        <ele>101</ele>
        <time>2020-06-19T10:44:31.031Z</time>
      </trkpt>
      <trkpt lat="46.86854" lon="0.29159">
        <ele>101</ele>
        <time>2020-06-19T10:44:39.348Z</time>
      </trkpt>
      <trkpt lat="46.86603" lon="0.29244">
        <ele>100.63062286377</ele>
        <time>2020-06-19T10:44:47.706Z</time>
      </trkpt>
      <trkpt lat="46.86304" lon="0.29343">
        <ele>97.77493286133</ele>
        <time>2020-06-19T10:44:56.113Z</time>
      </trkpt>
      <trkpt lat="46.86275" lon="0.29352">
        <ele>97.18881988525</ele>
        <time>2020-06-19T10:45:04.525Z</time>
      </trkpt>
      <trkpt lat="46.86234" lon="0.2937">
        <ele>96.05394744873</ele>
        <time>2020-06-19T10:45:12.944Z</time>
      </trkpt>
      <trkpt lat="46.86202" lon="0.29387">
        <ele>95.38095092773</ele>
        <time>2020-06-19T10:45:21.368Z</time>
      </trkpt>
      <trkpt lat="46.86146" lon="0.29419">
        <ele>94.5309677124</ele>
        <time>2020-06-19T10:45:29.802Z</time>
      </trkpt>
      <trkpt lat="46.86047" lon="0.29483">
        <ele>94.67218780518</ele>
        <time>2020-06-19T10:45:38.253Z</time>
      </trkpt>
      <trkpt lat="46.85878" lon="0.29596">
        <ele>92.07111358643</ele>
        <time>2020-06-19T10:45:46.734Z</time>
      </trkpt>
      <trkpt lat="46.85035" lon="0.30146">
        <ele>89.31578063965</ele>
        <time>2020-06-19T10:45:55.363Z</time>
      </trkpt>
      <trkpt lat="46.84885" lon="0.30244">
        <ele>87.23430633545</ele>
        <time>2020-06-19T10:46:04.018Z</time>
      </trkpt>
      <trkpt lat="46.84832" lon="0.30278">
        <ele>86.77838134766</ele>
        <time>2020-06-19T10:46:12.682Z</time>
      </trkpt>
      <trkpt lat="46.84613" lon="0.30419">
        <ele>88.09330749512</ele>
        <time>2020-06-19T10:46:21.385Z</time>
      </trkpt>
      <trkpt lat="46.84498" lon="0.30491">
        <ele>87.56256866455</ele>
        <time>2020-06-19T10:46:30.108Z</time>
      </trkpt>
      <trkpt lat="46.84397" lon="0.30548">
        <ele>87.77472686768</ele>
        <time>2020-06-19T10:46:38.848Z</time>
      </trkpt>
      <trkpt lat="46.84233" lon="0.30639">
        <ele>86</ele>
        <time>2020-06-19T10:46:47.616Z</time>
      </trkpt>
      <trkpt lat="46.8394" lon="0.30802">
        <ele>81.34939575195</ele>
        <time>2020-06-19T10:46:56.434Z</time>
      </trkpt>
      <trkpt lat="46.83924" lon="0.30811">
        <ele>81.04944610596</ele>
        <time>2020-06-19T10:47:05.255Z</time>
      </trkpt>
      <trkpt lat="46.83485" lon="0.31054">
        <ele>86.11499786377</ele>
        <time>2020-06-19T10:47:14.151Z</time>
      </trkpt>
      <trkpt lat="46.83402" lon="0.31102">
        <ele>83.48861694336</ele>
        <time>2020-06-19T10:47:23.062Z</time>
      </trkpt>
      <trkpt lat="46.83383" lon="0.31116">
        <ele>82.84560394287</ele>
        <time>2020-06-19T10:47:31.976Z</time>
      </trkpt>
      <trkpt lat="46.83327" lon="0.31165">
        <ele>81.70198059082</ele>
        <time>2020-06-19T10:47:40.900Z</time>
      </trkpt>
      <trkpt lat="46.83297" lon="0.31194">
        <ele>81.15937805176</ele>
        <time>2020-06-19T10:47:49.830Z</time>
      </trkpt>
      <trkpt lat="46.83247" lon="0.31262">
        <ele>80.48523712158</ele>
        <time>2020-06-19T10:47:58.771Z</time>
      </trkpt>
      <trkpt lat="46.83154" lon="0.31397">
        <ele>80.79892730713</ele>
        <time>2020-06-19T10:48:07.733Z</time>
      </trkpt>
      <trkpt lat="46.83012" lon="0.31605">
        <ele>79.30333709717</ele>
        <time>2020-06-19T10:48:16.727Z</time>
      </trkpt>
      <trkpt lat="46.82877" lon="0.31802">
        <ele>80.59053039551</ele>
        <time>2020-06-19T10:48:25.752Z</time>
      </trkpt>
      <trkpt lat="46.82797" lon="0.31921">
        <ele>84.30205535889</ele>
        <time>2020-06-19T10:48:34.795Z</time>
      </trkpt>
      <trkpt lat="46.82615" lon="0.3219">
        <ele>87.51431274414</ele>
        <time>2020-06-19T10:48:43.880Z</time>
      </trkpt>
      <trkpt lat="46.8253" lon="0.32312">
        <ele>88.35848999023</ele>
        <time>2020-06-19T10:48:52.984Z</time>
      </trkpt>
      <trkpt lat="46.82313" lon="0.32627">
        <ele>83.94737243652</ele>
        <time>2020-06-19T10:49:02.137Z</time>
      </trkpt>
      <trkpt lat="46.82274" lon="0.32684">
        <ele>80.49549102783</ele>
        <time>2020-06-19T10:49:11.299Z</time>
      </trkpt>
      <trkpt lat="46.82223" lon="0.32756">
        <ele>77.98728179932</ele>
        <time>2020-06-19T10:49:20.472Z</time>
      </trkpt>
      <trkpt lat="46.82139" lon="0.32759">
        <ele>77.32508850098</ele>
        <time>2020-06-19T10:49:29.659Z</time>
      </trkpt>
      <trkpt lat="46.82132" lon="0.3278">
        <ele>76.86933898926</ele>
        <time>2020-06-19T10:49:38.848Z</time>
      </trkpt>
      <trkpt lat="46.82123" lon="0.32797">
        <ele>77.38525390625</ele>
        <time>2020-06-19T10:49:48.039Z</time>
      </trkpt>
      <trkpt lat="46.8209" lon="0.32847">
        <ele>77.78463745117</ele>
        <time>2020-06-19T10:49:57.238Z</time>
      </trkpt>
      <trkpt lat="46.8187" lon="0.33165">
        <ele>76.16226196289</ele>
        <time>2020-06-19T10:50:06.487Z</time>
      </trkpt>
      <trkpt lat="46.81865" lon="0.33177">
        <ele>75.95829772949</ele>
        <time>2020-06-19T10:50:15.737Z</time>
      </trkpt>
      <trkpt lat="46.8189" lon="0.33221">
        <ele>75.81575775146</ele>
        <time>2020-06-19T10:50:24.994Z</time>
      </trkpt>
      <trkpt lat="46.81897" lon="0.33234">
        <ele>75.89974975586</ele>
        <time>2020-06-19T10:50:34.252Z</time>
      </trkpt>
      <trkpt lat="46.81889" lon="0.33242">
        <ele>75.80376434326</ele>
        <time>2020-06-19T10:50:43.512Z</time>
      </trkpt>
      <trkpt lat="46.81861" lon="0.33282">
        <ele>75.46781921387</ele>
        <time>2020-06-19T10:50:52.778Z</time>
      </trkpt>
      <trkpt lat="46.81829" lon="0.33335">
        <ele>74.54679870605</ele>
        <time>2020-06-19T10:51:02.052Z</time>
      </trkpt>
      <trkpt lat="46.81801" lon="0.33389">
        <ele>74.15097045898</ele>
        <time>2020-06-19T10:51:11.333Z</time>
      </trkpt>
      <trkpt lat="46.8178" lon="0.33434">
        <ele>73.71799468994</ele>
        <time>2020-06-19T10:51:20.620Z</time>
      </trkpt>
      <trkpt lat="46.81751" lon="0.33506">
        <ele>71.99028778076</ele>
        <time>2020-06-19T10:51:29.917Z</time>
      </trkpt>
      <trkpt lat="46.81722" lon="0.33595">
        <ele>71.02703094482</ele>
        <time>2020-06-19T10:51:39.224Z</time>
      </trkpt>
      <trkpt lat="46.81696" lon="0.33701">
        <ele>73.35631561279</ele>
        <time>2020-06-19T10:51:48.544Z</time>
      </trkpt>
      <trkpt lat="46.81681" lon="0.33789">
        <ele>76.70087432861</ele>
        <time>2020-06-19T10:51:57.874Z</time>
      </trkpt>
      <trkpt lat="46.81675" lon="0.33841">
        <ele>77.52418518066</ele>
        <time>2020-06-19T10:52:07.209Z</time>
      </trkpt>
      <trkpt lat="46.81665" lon="0.33984">
        <ele>80.54814147949</ele>
        <time>2020-06-19T10:52:16.560Z</time>
      </trkpt>
      <trkpt lat="46.8166" lon="0.34064">
        <ele>84.76789093018</ele>
        <time>2020-06-19T10:52:25.920Z</time>
      </trkpt>
      <trkpt lat="46.81647" lon="0.34265">
        <ele>85.70074462891</ele>
        <time>2020-06-19T10:52:35.302Z</time>
      </trkpt>
      <trkpt lat="46.81618" lon="0.34689">
        <ele>87.40612030029</ele>
        <time>2020-06-19T10:52:44.731Z</time>
      </trkpt>
      <trkpt lat="46.8155" lon="0.35731">
        <ele>84.73644256592</ele>
        <time>2020-06-19T10:52:54.275Z</time>
      </trkpt>
      <trkpt lat="46.81522" lon="0.36152">
        <ele>84.45305633545</ele>
        <time>2020-06-19T10:53:03.866Z</time>
      </trkpt>
      <trkpt lat="46.81509" lon="0.36359">
        <ele>87.48904418945</ele>
        <time>2020-06-19T10:53:13.479Z</time>
      </trkpt>
      <trkpt lat="46.81503" lon="0.36516">
        <ele>90.30898284912</ele>
        <time>2020-06-19T10:53:23.110Z</time>
      </trkpt>
      <trkpt lat="46.81493" lon="0.36752">
        <ele>92.21022033691</ele>
        <time>2020-06-19T10:53:32.767Z</time>
      </trkpt>
      <trkpt lat="46.81479" lon="0.37229">
        <ele>87.65374755859</ele>
        <time>2020-06-19T10:53:42.476Z</time>
      </trkpt>
      <trkpt lat="46.8145" lon="0.38178">
        <ele>92.72895812988</ele>
        <time>2020-06-19T10:53:52.290Z</time>
      </trkpt>
      <trkpt lat="46.81445" lon="0.3833">
        <ele>93.28036499023</ele>
        <time>2020-06-19T10:54:02.120Z</time>
      </trkpt>
      <trkpt lat="46.8144" lon="0.38532">
        <ele>91.41666412354</ele>
        <time>2020-06-19T10:54:11.973Z</time>
      </trkpt>
      <trkpt lat="46.81431" lon="0.38784">
        <ele>90.26543426514</ele>
        <time>2020-06-19T10:54:21.853Z</time>
      </trkpt>
      <trkpt lat="46.81408" lon="0.3914">
        <ele>92.33408355713</ele>
        <time>2020-06-19T10:54:31.773Z</time>
      </trkpt>
      <trkpt lat="46.81343" lon="0.40069">
        <ele>101.51200866699</ele>
        <time>2020-06-19T10:54:41.795Z</time>
      </trkpt>
      <trkpt lat="46.81319" lon="0.40426">
        <ele>99.7543258667</ele>
        <time>2020-06-19T10:54:51.857Z</time>
      </trkpt>
      <trkpt lat="46.81308" lon="0.40596">
        <ele>96.59394836426</ele>
        <time>2020-06-19T10:55:01.937Z</time>
      </trkpt>
      <trkpt lat="46.81306" lon="0.40646">
        <ele>95.89455413818</ele>
        <time>2020-06-19T10:55:12.023Z</time>
      </trkpt>
      <trkpt lat="46.81306" lon="0.40726">
        <ele>94.03553009033</ele>
        <time>2020-06-19T10:55:22.118Z</time>
      </trkpt>
      <trkpt lat="46.81307" lon="0.40773">
        <ele>92.37980651855</ele>
        <time>2020-06-19T10:55:32.218Z</time>
      </trkpt>
      <trkpt lat="46.81312" lon="0.40845">
        <ele>91.88092041016</ele>
        <time>2020-06-19T10:55:42.326Z</time>
      </trkpt>
      <trkpt lat="46.81319" lon="0.40912">
        <ele>91.96490478516</ele>
        <time>2020-06-19T10:55:52.441Z</time>
      </trkpt>
      <trkpt lat="46.81334" lon="0.41018">
        <ele>92.28974914551</ele>
        <time>2020-06-19T10:56:02.568Z</time>
      </trkpt>
      <trkpt lat="46.81365" lon="0.41195">
        <ele>93.79110717773</ele>
        <time>2020-06-19T10:56:12.715Z</time>
      </trkpt>
      <trkpt lat="46.81397" lon="0.41354">
        <ele>94.47116851807</ele>
        <time>2020-06-19T10:56:22.880Z</time>
      </trkpt>
      <trkpt lat="46.81423" lon="0.4151">
        <ele>93.74954986572</ele>
        <time>2020-06-19T10:56:33.063Z</time>
      </trkpt>
      <trkpt lat="46.8147" lon="0.41771">
        <ele>93.10826873779</ele>
        <time>2020-06-19T10:56:43.276Z</time>
      </trkpt>
      <trkpt lat="46.81497" lon="0.41933">
        <ele>92.72675323486</ele>
        <time>2020-06-19T10:56:53.507Z</time>
      </trkpt>
      <trkpt lat="46.8152" lon="0.42066">
        <ele>98.5060043335</ele>
        <time>2020-06-19T10:57:03.753Z</time>
      </trkpt>
      <trkpt lat="46.81526" lon="0.42118">
        <ele>99.17710113525</ele>
        <time>2020-06-19T10:57:14.005Z</time>
      </trkpt>
      <trkpt lat="46.8153" lon="0.42183">
        <ele>97.88497161865</ele>
        <time>2020-06-19T10:57:24.264Z</time>
      </trkpt>
      <trkpt lat="46.81529" lon="0.42242">
        <ele>96.845703125</ele>
        <time>2020-06-19T10:57:34.530Z</time>
      </trkpt>
      <trkpt lat="46.81525" lon="0.42303">
        <ele>96.9732131958</ele>
        <time>2020-06-19T10:57:44.802Z</time>
      </trkpt>
      <trkpt lat="46.81515" lon="0.42378">
        <ele>94.51362609863</ele>
        <time>2020-06-19T10:57:55.083Z</time>
      </trkpt>
      <trkpt lat="46.815" lon="0.4247">
        <ele>92</ele>
        <time>2020-06-19T10:58:05.374Z</time>
      </trkpt>
      <trkpt lat="46.81457" lon="0.42737">
        <ele>91.24125671387</ele>
        <time>2020-06-19T10:58:15.695Z</time>
      </trkpt>
      <trkpt lat="46.81441" lon="0.42829">
        <ele>90.28598022461</ele>
        <time>2020-06-19T10:58:26.027Z</time>
      </trkpt>
      <trkpt lat="46.81438" lon="0.42834">
        <ele>90.20753479004</ele>
        <time>2020-06-19T10:58:36.359Z</time>
      </trkpt>
      <trkpt lat="46.81425" lon="0.42841">
        <ele>89.97957611084</ele>
        <time>2020-06-19T10:58:46.694Z</time>
      </trkpt>
      <trkpt lat="46.81423" lon="0.42845">
        <ele>89.97957611084</ele>
        <time>2020-06-19T10:58:57.029Z</time>
      </trkpt>
      <trkpt lat="46.8142" lon="0.42876">
        <ele>90.27952575684</ele>
        <time>2020-06-19T10:59:07.368Z</time>
      </trkpt>
      <trkpt lat="46.81418" lon="0.42923">
        <ele>90.30541229248</ele>
        <time>2020-06-19T10:59:17.712Z</time>
      </trkpt>
      <trkpt lat="46.81412" lon="0.42969">
        <ele>90.11949920654</ele>
        <time>2020-06-19T10:59:28.061Z</time>
      </trkpt>
      <trkpt lat="46.814" lon="0.43043">
        <ele>88.8804397583</ele>
        <time>2020-06-19T10:59:38.418Z</time>
      </trkpt>
      <trkpt lat="46.81394" lon="0.4306">
        <ele>88.86325836182</ele>
        <time>2020-06-19T10:59:48.777Z</time>
      </trkpt>
      <trkpt lat="46.81382" lon="0.4307">
        <ele>88.69528961182</ele>
        <time>2020-06-19T10:59:59.139Z</time>
      </trkpt>
      <trkpt lat="46.81346" lon="0.43079">
        <ele>87.93941497803</ele>
        <time>2020-06-19T11:00:09.506Z</time>
      </trkpt>
      <trkpt lat="46.81317" lon="0.43085">
        <ele>87.19733428955</ele>
        <time>2020-06-19T11:00:19.878Z</time>
      </trkpt>
      <trkpt lat="46.81312" lon="0.43084">
        <ele>86.94537353516</ele>
        <time>2020-06-19T11:00:30.251Z</time>
      </trkpt>
      <trkpt lat="46.8131" lon="0.4313">
        <ele>87.16791534424</ele>
        <time>2020-06-19T11:00:40.629Z</time>
      </trkpt>
      <trkpt lat="46.81306" lon="0.43189">
        <ele>87.53507232666</ele>
        <time>2020-06-19T11:00:51.014Z</time>
      </trkpt>
      <trkpt lat="46.813" lon="0.43244">
        <ele>86.81720733643</ele>
        <time>2020-06-19T11:01:01.405Z</time>
      </trkpt>
      <trkpt lat="46.81288" lon="0.43326">
        <ele>86.53345489502</ele>
        <time>2020-06-19T11:01:11.805Z</time>
      </trkpt>
      <trkpt lat="46.81283" lon="0.43372">
        <ele>87.14093017578</ele>
        <time>2020-06-19T11:01:22.210Z</time>
      </trkpt>
      <trkpt lat="46.81288" lon="0.43381">
        <ele>87.72883605957</ele>
        <time>2020-06-19T11:01:32.616Z</time>
      </trkpt>
      <trkpt lat="46.81304" lon="0.43393">
        <ele>89.66672515869</ele>
        <time>2020-06-19T11:01:43.025Z</time>
      </trkpt>
      <trkpt lat="46.8132" lon="0.43391">
        <ele>91.13048553467</ele>
        <time>2020-06-19T11:01:53.437Z</time>
      </trkpt>
      <trkpt lat="46.81332" lon="0.43388">
        <ele>91.43173217773</ele>
        <time>2020-06-19T11:02:03.851Z</time>
      </trkpt>
      <trkpt lat="46.81341" lon="0.4339">
        <ele>91.77967071533</ele>
        <time>2020-06-19T11:02:14.266Z</time>
      </trkpt>
      <trkpt lat="46.81348" lon="0.43401">
        <ele>92.16360473633</ele>
        <time>2020-06-19T11:02:24.683Z</time>
      </trkpt>
      <trkpt lat="46.81349" lon="0.43406">
        <ele>92.25959014893</ele>
        <time>2020-06-19T11:02:35.100Z</time>
      </trkpt>
      <trkpt lat="46.81341" lon="0.43458">
        <ele>93.95573425293</ele>
        <time>2020-06-19T11:02:45.523Z</time>
      </trkpt>
      <trkpt lat="46.81332" lon="0.43509">
        <ele>93.96265411377</ele>
        <time>2020-06-19T11:02:55.952Z</time>
      </trkpt>
      <trkpt lat="46.8132" lon="0.43586">
        <ele>92.88450622559</ele>
        <time>2020-06-19T11:03:06.390Z</time>
      </trkpt>
      <trkpt lat="46.81306" lon="0.43673">
        <ele>92.34210205078</ele>
        <time>2020-06-19T11:03:16.837Z</time>
      </trkpt>
      <trkpt lat="46.81281" lon="0.43826">
        <ele>85.91441345215</ele>
        <time>2020-06-19T11:03:27.302Z</time>
      </trkpt>
      <trkpt lat="46.81259" lon="0.43943">
        <ele>84.21803283691</ele>
        <time>2020-06-19T11:03:37.780Z</time>
      </trkpt>
      <trkpt lat="46.81241" lon="0.44024">
        <ele>86.24477386475</ele>
        <time>2020-06-19T11:03:48.267Z</time>
      </trkpt>
      <trkpt lat="46.81231" lon="0.44068">
        <ele>87.50137329102</ele>
        <time>2020-06-19T11:03:58.760Z</time>
      </trkpt>
      <trkpt lat="46.81204" lon="0.44188">
        <ele>88.92566680908</ele>
        <time>2020-06-19T11:04:09.266Z</time>
      </trkpt>
      <trkpt lat="46.81175" lon="0.44287">
        <ele>85.71254730225</ele>
        <time>2020-06-19T11:04:19.784Z</time>
      </trkpt>
      <trkpt lat="46.81129" lon="0.44432">
        <ele>81.02142333984</ele>
        <time>2020-06-19T11:04:30.320Z</time>
      </trkpt>
      <trkpt lat="46.81109" lon="0.44497">
        <ele>78.92218017578</ele>
        <time>2020-06-19T11:04:40.864Z</time>
      </trkpt>
      <trkpt lat="46.81077" lon="0.446">
        <ele>79.56546783447</ele>
        <time>2020-06-19T11:04:51.420Z</time>
      </trkpt>
      <trkpt lat="46.81042" lon="0.44721">
        <ele>80.61506652832</ele>
        <time>2020-06-19T11:05:01.990Z</time>
      </trkpt>
      <trkpt lat="46.81007" lon="0.4487">
        <ele>82.0294342041</ele>
        <time>2020-06-19T11:05:12.578Z</time>
      </trkpt>
      <trkpt lat="46.80991" lon="0.44938">
        <ele>79.96360015869</ele>
        <time>2020-06-19T11:05:23.174Z</time>
      </trkpt>
      <trkpt lat="46.80976" lon="0.45033">
        <ele>76.33551025391</ele>
        <time>2020-06-19T11:05:33.780Z</time>
      </trkpt>
      <trkpt lat="46.80956" lon="0.45137">
        <ele>75.99454498291</ele>
        <time>2020-06-19T11:05:44.398Z</time>
      </trkpt>
      <trkpt lat="46.80932" lon="0.45271">
        <ele>72.96503448486</ele>
        <time>2020-06-19T11:05:55.031Z</time>
      </trkpt>
      <trkpt lat="46.80885" lon="0.4551">
        <ele>72.1978302002</ele>
        <time>2020-06-19T11:06:05.692Z</time>
      </trkpt>
      <trkpt lat="46.8087" lon="0.45566">
        <ele>71</ele>
        <time>2020-06-19T11:06:16.359Z</time>
      </trkpt>
      <trkpt lat="46.80862" lon="0.45585">
        <ele>71</ele>
        <time>2020-06-19T11:06:27.029Z</time>
      </trkpt>
      <trkpt lat="46.80847" lon="0.45625">
        <ele>70.39322662354</ele>
        <time>2020-06-19T11:06:37.704Z</time>
      </trkpt>
      <trkpt lat="46.80804" lon="0.45713">
        <ele>71.8941116333</ele>
        <time>2020-06-19T11:06:48.391Z</time>
      </trkpt>
      <trkpt lat="46.80763" lon="0.45788">
        <ele>70.92240142822</ele>
        <time>2020-06-19T11:06:59.088Z</time>
      </trkpt>
      <trkpt lat="46.8076" lon="0.45794">
        <ele>70.74243164062</ele>
        <time>2020-06-19T11:07:09.786Z</time>
      </trkpt>
      <trkpt lat="46.80728" lon="0.45864">
        <ele>71.20252227783</ele>
        <time>2020-06-19T11:07:20.493Z</time>
      </trkpt>
      <trkpt lat="46.80684" lon="0.45977">
        <ele>75.60472106934</ele>
        <time>2020-06-19T11:07:31.215Z</time>
      </trkpt>
      <trkpt lat="46.80669" lon="0.46037">
        <ele>76.71881866455</ele>
        <time>2020-06-19T11:07:41.944Z</time>
      </trkpt>
      <trkpt lat="46.80651" lon="0.46146">
        <ele>72.31191253662</ele>
        <time>2020-06-19T11:07:52.685Z</time>
      </trkpt>
      <trkpt lat="46.80648" lon="0.46192">
        <ele>70.06828308105</ele>
        <time>2020-06-19T11:08:03.431Z</time>
      </trkpt>
      <trkpt lat="46.80645" lon="0.46258">
        <ele>66.62132263184</ele>
        <time>2020-06-19T11:08:14.184Z</time>
      </trkpt>
      <trkpt lat="46.80647" lon="0.463">
        <ele>64.79721832275</ele>
        <time>2020-06-19T11:08:24.942Z</time>
      </trkpt>
      <trkpt lat="46.80648" lon="0.46371">
        <ele>63.96935653687</ele>
        <time>2020-06-19T11:08:35.708Z</time>
      </trkpt>
      <trkpt lat="46.80656" lon="0.46434">
        <ele>65.89616394043</ele>
        <time>2020-06-19T11:08:46.481Z</time>
      </trkpt>
      <trkpt lat="46.80663" lon="0.46481">
        <ele>67.01903533936</ele>
        <time>2020-06-19T11:08:57.259Z</time>
      </trkpt>
      <trkpt lat="46.80668" lon="0.46511">
        <ele>66.53911590576</ele>
        <time>2020-06-19T11:09:08.040Z</time>
      </trkpt>
      <trkpt lat="46.80685" lon="0.46581">
        <ele>66.05397033691</ele>
        <time>2020-06-19T11:09:18.830Z</time>
      </trkpt>
      <trkpt lat="46.80702" lon="0.4666">
        <ele>65.92199707031</ele>
        <time>2020-06-19T11:09:29.629Z</time>
      </trkpt>
      <trkpt lat="46.80718" lon="0.46731">
        <ele>65.97297668457</ele>
        <time>2020-06-19T11:09:40.436Z</time>
      </trkpt>
      <trkpt lat="46.80739" lon="0.46832">
        <ele>63.23170471191</ele>
        <time>2020-06-19T11:09:51.255Z</time>
      </trkpt>
      <trkpt lat="46.80769" lon="0.46959">
        <ele>61.63610076904</ele>
        <time>2020-06-19T11:10:02.088Z</time>
      </trkpt>
      <trkpt lat="46.80809" lon="0.47133">
        <ele>61.99678421021</ele>
        <time>2020-06-19T11:10:12.941Z</time>
      </trkpt>
      <trkpt lat="46.80883" lon="0.47462">
        <ele>58.56964874268</ele>
        <time>2020-06-19T11:10:23.833Z</time>
      </trkpt>
      <trkpt lat="46.80965" lon="0.47819">
        <ele>60.51462554932</ele>
        <time>2020-06-19T11:10:34.766Z</time>
      </trkpt>
      <trkpt lat="46.80991" lon="0.47945">
        <ele>59.48247146606</ele>
        <time>2020-06-19T11:10:45.713Z</time>
      </trkpt>
      <trkpt lat="46.81032" lon="0.48119">
        <ele>56.95704650879</ele>
        <time>2020-06-19T11:10:56.681Z</time>
      </trkpt>
      <trkpt lat="46.81182" lon="0.48786">
        <ele>59.12923049927</ele>
        <time>2020-06-19T11:11:07.726Z</time>
      </trkpt>
      <trkpt lat="46.81226" lon="0.48977">
        <ele>62.09453582764</ele>
        <time>2020-06-19T11:11:18.793Z</time>
      </trkpt>
      <trkpt lat="46.81275" lon="0.49205">
        <ele>62.74796676636</ele>
        <time>2020-06-19T11:11:29.886Z</time>
      </trkpt>
      <trkpt lat="46.81312" lon="0.49357">
        <ele>62.07667541504</ele>
        <time>2020-06-19T11:11:40.997Z</time>
      </trkpt>
      <trkpt lat="46.81365" lon="0.4959">
        <ele>59.58904266357</ele>
        <time>2020-06-19T11:11:52.135Z</time>
      </trkpt>
      <trkpt lat="46.81372" lon="0.49624">
        <ele>59.60079574585</ele>
        <time>2020-06-19T11:12:03.277Z</time>
      </trkpt>
      <trkpt lat="46.81458" lon="0.5001">
        <ele>57.6950378418</ele>
        <time>2020-06-19T11:12:14.463Z</time>
      </trkpt>
      <trkpt lat="46.81489" lon="0.50151">
        <ele>57.20700836182</ele>
        <time>2020-06-19T11:12:25.666Z</time>
      </trkpt>
      <trkpt lat="46.81497" lon="0.50195">
        <ele>57.63893890381</ele>
        <time>2020-06-19T11:12:36.874Z</time>
      </trkpt>
      <trkpt lat="46.81504" lon="0.50255">
        <ele>57.35610198975</ele>
        <time>2020-06-19T11:12:48.088Z</time>
      </trkpt>
      <trkpt lat="46.81514" lon="0.50445">
        <ele>58.12995910645</ele>
        <time>2020-06-19T11:12:59.323Z</time>
      </trkpt>
      <trkpt lat="46.8153" lon="0.50759">
        <ele>61.51055526733</ele>
        <time>2020-06-19T11:13:10.593Z</time>
      </trkpt>
      <trkpt lat="46.81547" lon="0.51128">
        <ele>59.7318649292</ele>
        <time>2020-06-19T11:13:21.903Z</time>
      </trkpt>
      <trkpt lat="46.81551" lon="0.51213">
        <ele>59.50312042236</ele>
        <time>2020-06-19T11:13:33.223Z</time>
      </trkpt>
      <trkpt lat="46.81562" lon="0.5146">
        <ele>57.23916625977</ele>
        <time>2020-06-19T11:13:44.570Z</time>
      </trkpt>
      <trkpt lat="46.81567" lon="0.51544">
        <ele>55.26961135864</ele>
        <time>2020-06-19T11:13:55.926Z</time>
      </trkpt>
      <trkpt lat="46.81576" lon="0.51754">
        <ele>55.19355773926</ele>
        <time>2020-06-19T11:14:07.305Z</time>
      </trkpt>
      <trkpt lat="46.81586" lon="0.5197">
        <ele>55.67347717285</ele>
        <time>2020-06-19T11:14:18.708Z</time>
      </trkpt>
      <trkpt lat="46.81595" lon="0.52157">
        <ele>55.71722793579</ele>
        <time>2020-06-19T11:14:30.132Z</time>
      </trkpt>
      <trkpt lat="46.81599" lon="0.52237">
        <ele>54.32434463501</ele>
        <time>2020-06-19T11:14:41.565Z</time>
      </trkpt>
      <trkpt lat="46.81613" lon="0.52336">
        <ele>53.21070480347</ele>
        <time>2020-06-19T11:14:53.009Z</time>
      </trkpt>
      <trkpt lat="46.81632" lon="0.5241">
        <ele>52.31505584717</ele>
        <time>2020-06-19T11:15:04.461Z</time>
      </trkpt>
      <trkpt lat="46.81655" lon="0.52474">
        <ele>52.9924621582</ele>
        <time>2020-06-19T11:15:15.921Z</time>
      </trkpt>
      <trkpt lat="46.81669" lon="0.52506">
        <ele>52.8357963562</ele>
        <time>2020-06-19T11:15:27.386Z</time>
      </trkpt>
      <trkpt lat="46.81685" lon="0.52538">
        <ele>52.6438293457</ele>
        <time>2020-06-19T11:15:38.855Z</time>
      </trkpt>
      <trkpt lat="46.81712" lon="0.52588">
        <ele>52.31988143921</ele>
        <time>2020-06-19T11:15:50.331Z</time>
      </trkpt>
      <trkpt lat="46.81712" lon="0.52588">
        <ele>52.319881439209</ele>
        <time>2020-06-19T10:55:16.000Z</time>
      </trkpt>
      <trkpt lat="46.81712" lon="0.52588">
        <ele>52.319881439209</ele>
        <time>2020-06-19T10:55:16.000Z</time>
      </trkpt>
      <trkpt lat="46.81705" lon="0.52597">
        <ele>52.403869628906</ele>
        <time>2020-06-19T10:55:16.001Z</time>
      </trkpt>
      <trkpt lat="46.81702" lon="0.52605">
        <ele>52.53438949585</ele>
        <time>2020-06-19T10:55:16.003Z</time>
      </trkpt>
      <trkpt lat="46.81672" lon="0.52717">
        <ele>54</ele>
        <time>2020-06-19T10:55:16.019Z</time>
      </trkpt>
      <trkpt lat="46.81657" lon="0.52775">
        <ele>52.672031402588</ele>
        <time>2020-06-19T10:55:16.042Z</time>
      </trkpt>
      <trkpt lat="46.81644" lon="0.52821">
        <ele>52</ele>
        <time>2020-06-19T10:55:16.070Z</time>
      </trkpt>
      <trkpt lat="46.81635" lon="0.5286">
        <ele>52</ele>
        <time>2020-06-19T10:55:16.103Z</time>
      </trkpt>
      <trkpt lat="46.81619" lon="0.52984">
        <ele>53.074695587158</ele>
        <time>2020-06-19T10:55:16.149Z</time>
      </trkpt>
      <trkpt lat="46.81619" lon="0.52985">
        <ele>53.085300445557</ele>
        <time>2020-06-19T10:55:16.195Z</time>
      </trkpt>
      <trkpt lat="46.81618" lon="0.53003">
        <ele>53.325260162354</ele>
        <time>2020-06-19T10:55:16.243Z</time>
      </trkpt>
      <trkpt lat="46.81622" lon="0.53084">
        <ele>53.39769744873</ele>
        <time>2020-06-19T10:55:16.300Z</time>
      </trkpt>
      <trkpt lat="46.81628" lon="0.53149">
        <ele>53.164722442627</ele>
        <time>2020-06-19T10:55:16.365Z</time>
      </trkpt>
      <trkpt lat="46.81628" lon="0.53154">
        <ele>53.224712371826</ele>
        <time>2020-06-19T10:55:16.430Z</time>
      </trkpt>
      <trkpt lat="46.81639" lon="0.53156">
        <ele>52.85277557373</ele>
        <time>2020-06-19T10:55:16.497Z</time>
      </trkpt>
      <trkpt lat="46.8167" lon="0.53161">
        <ele>52.325553894043</ele>
        <time>2020-06-19T10:55:16.569Z</time>
      </trkpt>
      <trkpt lat="46.81724" lon="0.53167">
        <ele>52.82409286499</ele>
        <time>2020-06-19T10:55:16.650Z</time>
      </trkpt>
      <trkpt lat="46.81715" lon="0.53222">
        <ele>53.057434082031</ele>
        <time>2020-06-19T10:55:16.737Z</time>
      </trkpt>
      <trkpt lat="46.81712" lon="0.53256">
        <ele>53.465362548828</ele>
        <time>2020-06-19T10:55:16.828Z</time>
      </trkpt>
      <trkpt lat="46.81712" lon="0.53273">
        <ele>53.671466827393</ele>
        <time>2020-06-19T10:55:16.920Z</time>
      </trkpt>
      <trkpt lat="46.81712" lon="0.53277">
        <ele>53.754528045654</ele>
        <time>2020-06-19T10:55:17.013Z</time>
      </trkpt>
      <trkpt lat="46.81713" lon="0.53297">
        <ele>54.222450256348</ele>
        <time>2020-06-19T10:55:17.108Z</time>
      </trkpt>
      <trkpt lat="46.81719" lon="0.53348">
        <ele>53.666717529297</ele>
        <time>2020-06-19T10:55:17.209Z</time>
      </trkpt>
      <trkpt lat="46.81735" lon="0.5343">
        <ele>53.638519287109</ele>
        <time>2020-06-19T10:55:17.319Z</time>
      </trkpt>
      <trkpt lat="46.81736" lon="0.53434">
        <ele>53.66487121582</ele>
        <time>2020-06-19T10:55:17.430Z</time>
      </trkpt>
      <trkpt lat="46.81736" lon="0.53434">
        <ele>53.669395446777</ele>
        <time>2020-06-19T10:55:17.541Z</time>
      </trkpt>
      <trkpt lat="46.8175" lon="0.53508">
        <ele>54.688819885254</ele>
        <time>2020-06-19T10:55:17.660Z</time>
      </trkpt>
      <trkpt lat="46.81751" lon="0.53512">
        <ele>54.765800476074</ele>
        <time>2020-06-19T10:55:17.780Z</time>
      </trkpt>
      <trkpt lat="46.81755" lon="0.53526">
        <ele>55.017414093018</ele>
        <time>2020-06-19T10:55:17.901Z</time>
      </trkpt>
      <trkpt lat="46.81756" lon="0.5353">
        <ele>55.088947296143</ele>
        <time>2020-06-19T10:55:18.023Z</time>
      </trkpt>
      <trkpt lat="46.81755" lon="0.53537">
        <ele>55.272476196289</ele>
        <time>2020-06-19T10:55:18.145Z</time>
      </trkpt>
      <trkpt lat="46.81755" lon="0.53541">
        <ele>55.385696411133</ele>
        <time>2020-06-19T10:55:18.268Z</time>
      </trkpt>
      <trkpt lat="46.81756" lon="0.53543">
        <ele>55.400402069092</ele>
        <time>2020-06-19T10:55:18.391Z</time>
      </trkpt>
      <trkpt lat="46.81758" lon="0.53546">
        <ele>55.431076049805</ele>
        <time>2020-06-19T10:55:18.515Z</time>
      </trkpt>
      <trkpt lat="46.81752" lon="0.53554">
        <ele>55.716606140137</ele>
        <time>2020-06-19T10:55:18.640Z</time>
      </trkpt>
      <trkpt lat="46.8175" lon="0.53557">
        <ele>55.804679870605</ele>
        <time>2020-06-19T10:55:18.765Z</time>
      </trkpt>
      <trkpt lat="46.81729" lon="0.53585">
        <ele>55.471378326416</ele>
        <time>2020-06-19T10:55:18.895Z</time>
      </trkpt>
      <trkpt lat="46.81714" lon="0.53611">
        <ele>54.958919525146</ele>
        <time>2020-06-19T10:55:19.029Z</time>
      </trkpt>
      <trkpt lat="46.81697" lon="0.53656">
        <ele>53.471164703369</ele>
        <time>2020-06-19T10:55:19.168Z</time>
      </trkpt>
      <trkpt lat="46.81693" lon="0.53664">
        <ele>53.183212280273</ele>
        <time>2020-06-19T10:55:19.308Z</time>
      </trkpt>
      <trkpt lat="46.8169" lon="0.53677">
        <ele>52.899639129639</ele>
        <time>2020-06-19T10:55:19.450Z</time>
      </trkpt>
      <trkpt lat="46.81687" lon="0.53746">
        <ele>50.988227844238</ele>
        <time>2020-06-19T10:55:19.600Z</time>
      </trkpt>
      <trkpt lat="46.81687" lon="0.53751">
        <ele>50.786876678467</ele>
        <time>2020-06-19T10:55:19.750Z</time>
      </trkpt>
      <trkpt lat="46.81687" lon="0.53787">
        <ele>49.491092681885</ele>
        <time>2020-06-19T10:55:19.904Z</time>
      </trkpt>
      <trkpt lat="46.81687" lon="0.53794">
        <ele>49.239135742188</ele>
        <time>2020-06-19T10:55:20.059Z</time>
      </trkpt>
      <trkpt lat="46.8168" lon="0.53825">
        <ele>49</ele>
        <time>2020-06-19T10:55:20.217Z</time>
      </trkpt>
      <trkpt lat="46.8168" lon="0.53826">
        <ele>49.008041381836</ele>
        <time>2020-06-19T10:55:20.375Z</time>
      </trkpt>
      <trkpt lat="46.81681" lon="0.53827">
        <ele>49.008041381836</ele>
        <time>2020-06-19T10:55:20.534Z</time>
      </trkpt>
      <trkpt lat="46.81681" lon="0.53833">
        <ele>49.080032348633</ele>
        <time>2020-06-19T10:55:20.693Z</time>
      </trkpt>
      <trkpt lat="46.81678" lon="0.53837">
        <ele>49.164016723633</ele>
        <time>2020-06-19T10:55:20.853Z</time>
      </trkpt>
      <trkpt lat="46.81677" lon="0.53838">
        <ele>49.188011169434</ele>
        <time>2020-06-19T10:55:21.013Z</time>
      </trkpt>
      <trkpt lat="46.81676" lon="0.53838">
        <ele>49.200012207031</ele>
        <time>2020-06-19T10:55:21.173Z</time>
      </trkpt>
      <trkpt lat="46.81664" lon="0.53873">
        <ele>49.766036987305</ele>
        <time>2020-06-19T10:55:21.338Z</time>
      </trkpt>
      <trkpt lat="46.81663" lon="0.53876">
        <ele>49.811908721924</ele>
        <time>2020-06-19T10:55:21.503Z</time>
      </trkpt>
      <trkpt lat="46.81663" lon="0.53876">
        <ele>49.820041656494</ele>
        <time>2020-06-19T10:55:21.668Z</time>
      </trkpt>
      <trkpt lat="46.81663" lon="0.53876">
        <ele>49.819622039795</ele>
        <time>2020-06-19T10:55:21.833Z</time>
      </trkpt>
      <trkpt lat="46.81657" lon="0.53895">
        <ele>49.827457427979</ele>
        <time>2020-06-19T10:55:22.000Z</time>
      </trkpt>
      <trkpt lat="46.81613" lon="0.54032">
        <ele>50.582363128662</ele>
        <time>2020-06-19T10:55:22.184Z</time>
      </trkpt>
      <trkpt lat="46.81612" lon="0.54032">
        <ele>50.630355834961</ele>
        <time>2020-06-19T10:55:22.368Z</time>
      </trkpt>
      <trkpt lat="46.8161" lon="0.54033">
        <ele>50.750335693359</ele>
        <time>2020-06-19T10:55:22.552Z</time>
      </trkpt>
      <trkpt lat="46.81608" lon="0.54035">
        <ele>50.894309997559</ele>
        <time>2020-06-19T10:55:22.737Z</time>
      </trkpt>
      <trkpt lat="46.81607" lon="0.54036">
        <ele>50.966300964355</ele>
        <time>2020-06-19T10:55:22.922Z</time>
      </trkpt>
      <trkpt lat="46.81591" lon="0.54024">
        <ele>51.481716156006</ele>
        <time>2020-06-19T10:55:23.110Z</time>
      </trkpt>
      <trkpt lat="46.81588" lon="0.54023">
        <ele>51.558410644531</ele>
        <time>2020-06-19T10:55:23.298Z</time>
      </trkpt>
      <trkpt lat="46.81588" lon="0.54023">
        <ele>51.558944702148</ele>
        <time>2020-06-19T10:55:23.486Z</time>
      </trkpt>
      <trkpt lat="46.81577" lon="0.54015">
        <ele>51.902141571045</ele>
        <time>2020-06-19T10:55:23.676Z</time>
      </trkpt>
      <trkpt lat="46.81538" lon="0.53988">
        <ele>52.718406677246</ele>
        <time>2020-06-19T10:55:23.873Z</time>
      </trkpt>
      <trkpt lat="46.81528" lon="0.53975">
        <ele>52.766395568848</ele>
        <time>2020-06-19T10:55:24.072Z</time>
      </trkpt>
      <trkpt lat="46.81515" lon="0.5397">
        <ele>53.114337921143</ele>
        <time>2020-06-19T10:55:24.274Z</time>
      </trkpt>
      <trkpt lat="46.81503" lon="0.5397">
        <ele>53.546268463135</ele>
        <time>2020-06-19T10:55:24.477Z</time>
      </trkpt>
      <trkpt lat="46.81487" lon="0.53977">
        <ele>53.980567932129</ele>
        <time>2020-06-19T10:55:24.683Z</time>
      </trkpt>
      <trkpt lat="46.81482" lon="0.5398">
        <ele>53.92057800293</ele>
        <time>2020-06-19T10:55:24.890Z</time>
      </trkpt>
      <trkpt lat="46.81481" lon="0.53979">
        <ele>53.908580780029</ele>
        <time>2020-06-19T10:55:25.097Z</time>
      </trkpt>
      <trkpt lat="46.81478" lon="0.53979">
        <ele>53.872585296631</ele>
        <time>2020-06-19T10:55:25.305Z</time>
      </trkpt>
      <trkpt lat="46.81471" lon="0.53977">
        <ele>53.788600921631</ele>
        <time>2020-06-19T10:55:25.514Z</time>
      </trkpt>
      <trkpt lat="46.81464" lon="0.53975">
        <ele>53.704612731934</ele>
        <time>2020-06-19T10:55:25.724Z</time>
      </trkpt>
      <trkpt lat="46.81466" lon="0.53957">
        <ele>53.232460021973</ele>
        <time>2020-06-19T10:55:25.936Z</time>
      </trkpt>
      <trkpt lat="46.81465" lon="0.53918">
        <ele>50.731632232666</ele>
        <time>2020-06-19T10:55:26.152Z</time>
      </trkpt>
      <trkpt lat="46.81462" lon="0.53914">
        <ele>50.479675292969</ele>
        <time>2020-06-19T10:55:26.369Z</time>
      </trkpt>
      <trkpt lat="46.81451" lon="0.53907">
        <ele>50.102279663086</ele>
        <time>2020-06-19T10:55:26.588Z</time>
      </trkpt>
      <trkpt lat="46.81451" lon="0.53907">
        <ele>50.102264404297</ele>
        <time>2020-06-19T10:55:26.807Z</time>
      </trkpt>
      <trkpt lat="46.81448" lon="0.53905">
        <ele>50.019584655762</ele>
        <time>2020-06-19T10:55:27.026Z</time>
      </trkpt>
      <trkpt lat="46.81448" lon="0.53905">
        <ele>50.019557952881</ele>
        <time>2020-06-19T10:55:27.245Z</time>
      </trkpt>
      <trkpt lat="46.81448" lon="0.53905">
        <ele>50.018947601318</ele>
        <time>2020-06-19T10:55:27.464Z</time>
      </trkpt>
      <trkpt lat="46.81446" lon="0.53904">
        <ele>49.951763153076</ele>
        <time>2020-06-19T10:55:27.684Z</time>
      </trkpt>
      <trkpt lat="46.81437" lon="0.53898">
        <ele>49.627815246582</ele>
        <time>2020-06-19T10:55:27.905Z</time>
      </trkpt>
      <trkpt lat="46.81369" lon="0.53858">
        <ele>49.370071411133</ele>
        <time>2020-06-19T10:55:28.138Z</time>
      </trkpt>
      <trkpt lat="46.81332" lon="0.53838">
        <ele>49.981967926025</ele>
        <time>2020-06-19T10:55:28.377Z</time>
      </trkpt>
      <trkpt lat="46.81316" lon="0.53833">
        <ele>50.235721588135</ele>
        <time>2020-06-19T10:55:28.619Z</time>
      </trkpt>
      <trkpt lat="46.81268" lon="0.53829">
        <ele>50.667652130127</ele>
        <time>2020-06-19T10:55:28.869Z</time>
      </trkpt>
      <trkpt lat="46.81215" lon="0.53825">
        <ele>51.159568786621</ele>
        <time>2020-06-19T10:55:29.127Z</time>
      </trkpt>
      <trkpt lat="46.81193" lon="0.5382">
        <ele>51.243553161621</ele>
        <time>2020-06-19T10:55:29.389Z</time>
      </trkpt>
      <trkpt lat="46.81148" lon="0.53811">
        <ele>51.633026123047</ele>
        <time>2020-06-19T10:55:29.658Z</time>
      </trkpt>
      <trkpt lat="46.81116" lon="0.53802">
        <ele>52.460887908936</ele>
        <time>2020-06-19T10:55:29.932Z</time>
      </trkpt>
      <trkpt lat="46.81111" lon="0.53799">
        <ele>52.508968353271</ele>
        <time>2020-06-19T10:55:30.207Z</time>
      </trkpt>
      <trkpt lat="46.81109" lon="0.53797">
        <ele>52.533405303955</ele>
        <time>2020-06-19T10:55:30.483Z</time>
      </trkpt>
      <trkpt lat="46.81109" lon="0.53797">
        <ele>52.533576965332</ele>
        <time>2020-06-19T10:55:30.759Z</time>
      </trkpt>
      <trkpt lat="46.81098" lon="0.53789">
        <ele>52.64086151123</ele>
        <time>2020-06-19T10:55:31.036Z</time>
      </trkpt>
      <trkpt lat="46.81087" lon="0.53781">
        <ele>52.748840332031</ele>
        <time>2020-06-19T10:55:31.315Z</time>
      </trkpt>
      <trkpt lat="46.81078" lon="0.53766">
        <ele>52.532878875732</ele>
        <time>2020-06-19T10:55:31.597Z</time>
      </trkpt>
      <trkpt lat="46.81068" lon="0.53746">
        <ele>52.126342773438</ele>
        <time>2020-06-19T10:55:31.881Z</time>
      </trkpt>
      <trkpt lat="46.81063" lon="0.53731">
        <ele>51.706413269043</ele>
        <time>2020-06-19T10:55:32.167Z</time>
      </trkpt>
      <trkpt lat="46.81049" lon="0.5369">
        <ele>50.725444793701</ele>
        <time>2020-06-19T10:55:32.458Z</time>
      </trkpt>
      <trkpt lat="46.81042" lon="0.53684">
        <ele>50.641456604004</ele>
        <time>2020-06-19T10:55:32.750Z</time>
      </trkpt>
      <trkpt lat="46.81039" lon="0.53684">
        <ele>50.605464935303</ele>
        <time>2020-06-19T10:55:33.043Z</time>
      </trkpt>
      <trkpt lat="46.81037" lon="0.53675">
        <ele>50.581466674805</ele>
        <time>2020-06-19T10:55:33.337Z</time>
      </trkpt>
      <trkpt lat="46.81032" lon="0.53669">
        <ele>50.521476745605</ele>
        <time>2020-06-19T10:55:33.632Z</time>
      </trkpt>
      <trkpt lat="46.81015" lon="0.53661">
        <ele>50.338642120361</ele>
        <time>2020-06-19T10:55:33.930Z</time>
      </trkpt>
      <trkpt lat="46.81007" lon="0.53659">
        <ele>50.454216003418</ele>
        <time>2020-06-19T10:55:34.229Z</time>
      </trkpt>
      <trkpt lat="46.81007" lon="0.53659">
        <ele>50.454261779785</ele>
        <time>2020-06-19T10:55:34.528Z</time>
      </trkpt>
      <trkpt lat="46.81004" lon="0.53658">
        <ele>50.490898132324</ele>
        <time>2020-06-19T10:55:34.828Z</time>
      </trkpt>
      <trkpt lat="46.81004" lon="0.53658">
        <ele>50.490962982178</ele>
        <time>2020-06-19T10:55:35.128Z</time>
      </trkpt>
      <trkpt lat="46.81004" lon="0.53658">
        <ele>50.491233825684</ele>
        <time>2020-06-19T10:55:35.428Z</time>
      </trkpt>
      <trkpt lat="46.81001" lon="0.53657">
        <ele>50.530609130859</ele>
        <time>2020-06-19T10:55:35.728Z</time>
      </trkpt>
      <trkpt lat="46.80993" lon="0.53654">
        <ele>50.614593505859</ele>
        <time>2020-06-19T10:55:36.030Z</time>
      </trkpt>
      <trkpt lat="46.80924" lon="0.53635">
        <ele>50.812126159668</ele>
        <time>2020-06-19T10:55:36.343Z</time>
      </trkpt>
      <trkpt lat="46.80868" lon="0.53622">
        <ele>51.143367767334</ele>
        <time>2020-06-19T10:55:36.665Z</time>
      </trkpt>
      <trkpt lat="46.80839" lon="0.53616">
        <ele>51.215354919434</ele>
        <time>2020-06-19T10:55:36.992Z</time>
      </trkpt>
      <trkpt lat="46.80837" lon="0.53615">
        <ele>51.226497650146</ele>
        <time>2020-06-19T10:55:37.319Z</time>
      </trkpt>
      <trkpt lat="46.80837" lon="0.53615">
        <ele>51.226501464844</ele>
        <time>2020-06-19T10:55:37.646Z</time>
      </trkpt>
      <trkpt lat="46.80834" lon="0.53614">
        <ele>51.238376617432</ele>
        <time>2020-06-19T10:55:37.973Z</time>
      </trkpt>
      <trkpt lat="46.80834" lon="0.53614">
        <ele>51.238384246826</ele>
        <time>2020-06-19T10:55:38.300Z</time>
      </trkpt>
      <trkpt lat="46.80834" lon="0.53614">
        <ele>51.238471984863</ele>
        <time>2020-06-19T10:55:38.627Z</time>
      </trkpt>
      <trkpt lat="46.80823" lon="0.5361">
        <ele>51.287342071533</ele>
        <time>2020-06-19T10:55:38.956Z</time>
      </trkpt>
      <trkpt lat="46.80755" lon="0.53583">
        <ele>51.611289978027</ele>
        <time>2020-06-19T10:55:39.296Z</time>
      </trkpt>
      <trkpt lat="46.80714" lon="0.53565">
        <ele>51.827255249023</ele>
        <time>2020-06-19T10:55:39.643Z</time>
      </trkpt>
      <trkpt lat="46.80681" lon="0.53557">
        <ele>51.923236846924</ele>
        <time>2020-06-19T10:55:39.996Z</time>
      </trkpt>
      <trkpt lat="46.80607" lon="0.53546">
        <ele>51.422328948975</ele>
        <time>2020-06-19T10:55:40.361Z</time>
      </trkpt>
      <trkpt lat="46.80545" lon="0.53543">
        <ele>51.284034729004</ele>
        <time>2020-06-19T10:55:40.735Z</time>
      </trkpt>
      <trkpt lat="46.80545" lon="0.53543">
        <ele>51.28409576416</ele>
        <time>2020-06-19T10:55:41.109Z</time>
      </trkpt>
      <trkpt lat="46.80543" lon="0.53543">
        <ele>51.289264678955</ele>
        <time>2020-06-19T10:55:41.484Z</time>
      </trkpt>
      <trkpt lat="46.80543" lon="0.53543">
        <ele>51.289329528809</ele>
        <time>2020-06-19T10:55:41.859Z</time>
      </trkpt>
      <trkpt lat="46.80543" lon="0.53543">
        <ele>51.289367675781</ele>
        <time>2020-06-19T10:55:42.234Z</time>
      </trkpt>
      <trkpt lat="46.80532" lon="0.53542">
        <ele>51.309623718262</ele>
        <time>2020-06-19T10:55:42.611Z</time>
      </trkpt>
      <trkpt lat="46.80488" lon="0.5354">
        <ele>51.370738983154</ele>
        <time>2020-06-19T10:55:42.995Z</time>
      </trkpt>
      <trkpt lat="46.80466" lon="0.53541">
        <ele>51.115203857422</ele>
        <time>2020-06-19T10:55:43.382Z</time>
      </trkpt>
      <trkpt lat="46.80411" lon="0.53556">
        <ele>51.126552581787</ele>
        <time>2020-06-19T10:55:43.778Z</time>
      </trkpt>
      <trkpt lat="46.8041" lon="0.53556">
        <ele>51.126708984375</ele>
        <time>2020-06-19T10:55:44.174Z</time>
      </trkpt>
      <trkpt lat="46.8041" lon="0.53556">
        <ele>51.123485565186</ele>
        <time>2020-06-19T10:55:44.570Z</time>
      </trkpt>
      <trkpt lat="46.80408" lon="0.53558">
        <ele>51.130222320557</ele>
        <time>2020-06-19T10:55:44.967Z</time>
      </trkpt>
      <trkpt lat="46.80408" lon="0.53558">
        <ele>51.130275726318</ele>
        <time>2020-06-19T10:55:45.364Z</time>
      </trkpt>
      <trkpt lat="46.80404" lon="0.53564">
        <ele>51.160747528076</ele>
        <time>2020-06-19T10:55:45.762Z</time>
      </trkpt>
      <trkpt lat="46.80404" lon="0.5357">
        <ele>51.232734680176</ele>
        <time>2020-06-19T10:55:46.160Z</time>
      </trkpt>
      <trkpt lat="46.80404" lon="0.53574">
        <ele>51.280727386475</ele>
        <time>2020-06-19T10:55:46.559Z</time>
      </trkpt>
      <trkpt lat="46.80379" lon="0.53579">
        <ele>51.340717315674</ele>
        <time>2020-06-19T10:55:46.962Z</time>
      </trkpt>
      <trkpt lat="46.80357" lon="0.53587">
        <ele>51.450576782227</ele>
        <time>2020-06-19T10:55:47.368Z</time>
      </trkpt>
      <trkpt lat="46.80342" lon="0.53589">
        <ele>51.678539276123</ele>
        <time>2020-06-19T10:55:47.777Z</time>
      </trkpt>
      <trkpt lat="46.80266" lon="0.53627">
        <ele>52.164253234863</ele>
        <time>2020-06-19T10:55:48.199Z</time>
      </trkpt>
      <trkpt lat="46.80257" lon="0.53633">
        <ele>52.191436767578</ele>
        <time>2020-06-19T10:55:48.622Z</time>
      </trkpt>
      <trkpt lat="46.80257" lon="0.53633">
        <ele>52.191436767578</ele>
        <time>2020-06-19T10:55:49.045Z</time>
      </trkpt>
      <trkpt lat="46.80254" lon="0.53634">
        <ele>52.19860458374</ele>
        <time>2020-06-19T10:55:49.469Z</time>
      </trkpt>
      <trkpt lat="46.80254" lon="0.53634">
        <ele>52.198608398438</ele>
        <time>2020-06-19T10:55:49.893Z</time>
      </trkpt>
      <trkpt lat="46.80254" lon="0.53635">
        <ele>52.198661804199</ele>
        <time>2020-06-19T10:55:50.317Z</time>
      </trkpt>
      <trkpt lat="46.80245" lon="0.5364">
        <ele>52.224243164062</ele>
        <time>2020-06-19T10:55:50.742Z</time>
      </trkpt>
      <trkpt lat="46.80218" lon="0.53666">
        <ele>52.908737182617</ele>
        <time>2020-06-19T10:55:51.172Z</time>
      </trkpt>
      <trkpt lat="46.80186" lon="0.5369">
        <ele>53.991313934326</ele>
        <time>2020-06-19T10:55:51.608Z</time>
      </trkpt>
      <trkpt lat="46.80175" lon="0.53699">
        <ele>54.663200378418</ele>
        <time>2020-06-19T10:55:52.046Z</time>
      </trkpt>
      <trkpt lat="46.8017" lon="0.53708">
        <ele>55.263103485107</ele>
        <time>2020-06-19T10:55:52.485Z</time>
      </trkpt>
      <trkpt lat="46.80162" lon="0.53727">
        <ele>55.849964141846</ele>
        <time>2020-06-19T10:55:52.927Z</time>
      </trkpt>
      <trkpt lat="46.80146" lon="0.53746">
        <ele>56.924404144287</ele>
        <time>2020-06-19T10:55:53.372Z</time>
      </trkpt>
      <trkpt lat="46.80113" lon="0.53784">
        <ele>56.371273040771</ele>
        <time>2020-06-19T10:55:53.824Z</time>
      </trkpt>
      <trkpt lat="46.801" lon="0.53808">
        <ele>54.771263122559</ele>
        <time>2020-06-19T10:55:54.279Z</time>
      </trkpt>
      <trkpt lat="46.80084" lon="0.53826">
        <ele>54.226375579834</ele>
        <time>2020-06-19T10:55:54.738Z</time>
      </trkpt>
      <trkpt lat="46.80084" lon="0.53827">
        <ele>54.271419525146</ele>
        <time>2020-06-19T10:55:55.197Z</time>
      </trkpt>
      <trkpt lat="46.80081" lon="0.53829">
        <ele>54.460353851318</ele>
        <time>2020-06-19T10:55:55.656Z</time>
      </trkpt>
      <trkpt lat="46.80081" lon="0.53829">
        <ele>54.4616355896</ele>
        <time>2020-06-19T10:55:56.115Z</time>
      </trkpt>
      <trkpt lat="46.80073" lon="0.53837">
        <ele>55.15022277832</ele>
        <time>2020-06-19T10:55:56.576Z</time>
      </trkpt>
      <trkpt lat="46.80067" lon="0.53851">
        <ele>55.794502258301</ele>
        <time>2020-06-19T10:55:57.039Z</time>
      </trkpt>
      <trkpt lat="46.80067" lon="0.53895">
        <ele>57.679340362549</ele>
        <time>2020-06-19T10:55:57.506Z</time>
      </trkpt>
      <trkpt lat="46.80066" lon="0.53918">
        <ele>57.859313964844</ele>
        <time>2020-06-19T10:55:57.976Z</time>
      </trkpt>
      <trkpt lat="46.80067" lon="0.53921">
        <ele>57.991291046143</ele>
        <time>2020-06-19T10:55:58.446Z</time>
      </trkpt>
      <trkpt lat="46.8008" lon="0.53938">
        <ele>58.349857330322</ele>
        <time>2020-06-19T10:55:58.919Z</time>
      </trkpt>
      <trkpt lat="46.80095" lon="0.53962">
        <ele>58.097900390625</ele>
        <time>2020-06-19T10:55:59.396Z</time>
      </trkpt>
      <trkpt lat="46.80101" lon="0.53975">
        <ele>57.945983886719</ele>
        <time>2020-06-19T10:55:59.874Z</time>
      </trkpt>
      <trkpt lat="46.80104" lon="0.53981">
        <ele>57.838001251221</ele>
        <time>2020-06-19T10:56:00.353Z</time>
      </trkpt>
      <trkpt lat="46.80094" lon="0.53991">
        <ele>58.115234375</ele>
        <time>2020-06-19T10:56:00.834Z</time>
      </trkpt>
      <trkpt lat="46.80086" lon="0.53977">
        <ele>58.485893249512</ele>
        <time>2020-06-19T10:56:01.317Z</time>
      </trkpt>
      <trkpt lat="46.80051" lon="0.53911">
        <ele>56.335567474365</ele>
        <time>2020-06-19T10:56:01.809Z</time>
      </trkpt>
      <trkpt lat="46.80003" lon="0.53817">
        <ele>50.600521087646</ele>
        <time>2020-06-19T10:56:02.314Z</time>
      </trkpt>
      <trkpt lat="46.79962" lon="0.5374">
        <ele>51.087844848633</ele>
        <time>2020-06-19T10:56:02.830Z</time>
      </trkpt>
      <trkpt lat="46.7996" lon="0.53737">
        <ele>51.204288482666</ele>
        <time>2020-06-19T10:56:03.346Z</time>
      </trkpt>
      <trkpt lat="46.7996" lon="0.53737">
        <ele>51.203437805176</ele>
        <time>2020-06-19T10:56:03.862Z</time>
      </trkpt>
      <trkpt lat="46.79954" lon="0.53725">
        <ele>51.639881134033</ele>
        <time>2020-06-19T10:56:04.380Z</time>
      </trkpt>
      <trkpt lat="46.79939" lon="0.5363">
        <ele>55.803417205811</ele>
        <time>2020-06-19T10:56:04.909Z</time>
      </trkpt>
      <trkpt lat="46.79938" lon="0.53626">
        <ele>55.787952423096</ele>
        <time>2020-06-19T10:56:05.438Z</time>
      </trkpt>
      <trkpt lat="46.79938" lon="0.53626">
        <ele>55.788063049316</ele>
        <time>2020-06-19T10:56:05.967Z</time>
      </trkpt>
      <trkpt lat="46.79936" lon="0.53611">
        <ele>55.731369018555</ele>
        <time>2020-06-19T10:56:06.498Z</time>
      </trkpt>
      <trkpt lat="46.79903" lon="0.53502">
        <ele>55.537433624268</ele>
        <time>2020-06-19T10:56:07.042Z</time>
      </trkpt>
      <trkpt lat="46.79902" lon="0.53498">
        <ele>55.555999755859</ele>
        <time>2020-06-19T10:56:07.586Z</time>
      </trkpt>
      <trkpt lat="46.79902" lon="0.53498">
        <ele>55.555870056152</ele>
        <time>2020-06-19T10:56:08.130Z</time>
      </trkpt>
      <trkpt lat="46.79898" lon="0.53485">
        <ele>55.622970581055</ele>
        <time>2020-06-19T10:56:08.676Z</time>
      </trkpt>
      <trkpt lat="46.79897" lon="0.53485">
        <ele>55.594589233398</ele>
        <time>2020-06-19T10:56:09.222Z</time>
      </trkpt>
      <trkpt lat="46.79885" lon="0.53465">
        <ele>55.554473876953</ele>
        <time>2020-06-19T10:56:09.771Z</time>
      </trkpt>
      <trkpt lat="46.79883" lon="0.53462">
        <ele>55.548099517822</ele>
        <time>2020-06-19T10:56:10.320Z</time>
      </trkpt>
      <trkpt lat="46.79884" lon="0.53462">
        <ele>55.548145294189</ele>
        <time>2020-06-19T10:56:10.869Z</time>
      </trkpt>
      <trkpt lat="46.79876" lon="0.53449">
        <ele>55.522598266602</ele>
        <time>2020-06-19T10:56:11.420Z</time>
      </trkpt>
      <trkpt lat="46.79867" lon="0.53434">
        <ele>55.4866065979</ele>
        <time>2020-06-19T10:56:11.974Z</time>
      </trkpt>
      <trkpt lat="46.79864" lon="0.53436">
        <ele>55.390621185303</ele>
        <time>2020-06-19T10:56:12.528Z</time>
      </trkpt>
      <trkpt lat="46.7986" lon="0.53438">
        <ele>55.270641326904</ele>
        <time>2020-06-19T10:56:13.083Z</time>
      </trkpt>
      <trkpt lat="46.79854" lon="0.53435">
        <ele>55.162658691406</ele>
        <time>2020-06-19T10:56:13.639Z</time>
      </trkpt>
      <trkpt lat="46.79853" lon="0.53435">
        <ele>55.138664245605</ele>
        <time>2020-06-19T10:56:14.195Z</time>
      </trkpt>
      <trkpt lat="46.79817" lon="0.5345">
        <ele>54.31921005249</ele>
        <time>2020-06-19T10:56:14.757Z</time>
      </trkpt>
      <trkpt lat="46.79769" lon="0.5348">
        <ele>53.062168121338</ele>
        <time>2020-06-19T10:56:15.327Z</time>
      </trkpt>
      <trkpt lat="46.79764" lon="0.53487">
        <ele>52.834209442139</ele>
        <time>2020-06-19T10:56:15.898Z</time>
      </trkpt>
      <trkpt lat="46.79755" lon="0.53492">
        <ele>52.412521362305</ele>
        <time>2020-06-19T10:56:16.471Z</time>
      </trkpt>
      <trkpt lat="46.79738" lon="0.535">
        <ele>51.428493499756</ele>
        <time>2020-06-19T10:56:17.047Z</time>
      </trkpt>
      <trkpt lat="46.79695" lon="0.53526">
        <ele>50.854724884033</ele>
        <time>2020-06-19T10:56:17.630Z</time>
      </trkpt>
      <trkpt lat="46.79667" lon="0.53545">
        <ele>51.634593963623</ele>
        <time>2020-06-19T10:56:18.218Z</time>
      </trkpt>
      <trkpt lat="46.79658" lon="0.53552">
        <ele>51.915355682373</ele>
        <time>2020-06-19T10:56:18.808Z</time>
      </trkpt>
      <trkpt lat="46.79656" lon="0.53554">
        <ele>51.993144989014</ele>
        <time>2020-06-19T10:56:19.398Z</time>
      </trkpt>
      <trkpt lat="46.79656" lon="0.53554">
        <ele>51.993339538574</ele>
        <time>2020-06-19T10:56:19.988Z</time>
      </trkpt>
      <trkpt lat="46.79646" lon="0.53561">
        <ele>52.323253631592</ele>
        <time>2020-06-19T10:56:20.580Z</time>
      </trkpt>
      <trkpt lat="46.79632" lon="0.53569">
        <ele>52.827171325684</ele>
        <time>2020-06-19T10:56:21.174Z</time>
      </trkpt>
      <trkpt lat="46.79607" lon="0.53581">
        <ele>53.727020263672</ele>
        <time>2020-06-19T10:56:21.773Z</time>
      </trkpt>
      <trkpt lat="46.79581" lon="0.5359">
        <ele>54.302547454834</ele>
        <time>2020-06-19T10:56:22.376Z</time>
      </trkpt>
      <trkpt lat="46.79566" lon="0.53601">
        <ele>54.260143280029</ele>
        <time>2020-06-19T10:56:22.982Z</time>
      </trkpt>
      <trkpt lat="46.79545" lon="0.53617">
        <ele>53.680450439453</ele>
        <time>2020-06-19T10:56:23.591Z</time>
      </trkpt>
      <trkpt lat="46.79519" lon="0.53627">
        <ele>53.368503570557</ele>
        <time>2020-06-19T10:56:24.205Z</time>
      </trkpt>
      <trkpt lat="46.79497" lon="0.53632">
        <ele>53.104545593262</ele>
        <time>2020-06-19T10:56:24.822Z</time>
      </trkpt>
      <trkpt lat="46.79479" lon="0.53638">
        <ele>53.064727783203</ele>
        <time>2020-06-19T10:56:25.442Z</time>
      </trkpt>
      <trkpt lat="46.79479" lon="0.53638">
        <ele>53.064785003662</ele>
        <time>2020-06-19T10:56:26.062Z</time>
      </trkpt>
      <trkpt lat="46.79476" lon="0.53639">
        <ele>53.087642669678</ele>
        <time>2020-06-19T10:56:26.683Z</time>
      </trkpt>
      <trkpt lat="46.79476" lon="0.53639">
        <ele>53.087711334229</ele>
        <time>2020-06-19T10:56:27.304Z</time>
      </trkpt>
      <trkpt lat="46.79476" lon="0.53639">
        <ele>53.087867736816</ele>
        <time>2020-06-19T10:56:27.925Z</time>
      </trkpt>
      <trkpt lat="46.79466" lon="0.53642">
        <ele>53.170799255371</ele>
        <time>2020-06-19T10:56:28.547Z</time>
      </trkpt>
      <trkpt lat="46.79424" lon="0.53661">
        <ele>53.446754455566</ele>
        <time>2020-06-19T10:56:29.176Z</time>
      </trkpt>
      <trkpt lat="46.79382" lon="0.53681">
        <ele>53.160263061523</ele>
        <time>2020-06-19T10:56:29.812Z</time>
      </trkpt>
      <trkpt lat="46.79361" lon="0.53689">
        <ele>52.812320709229</ele>
        <time>2020-06-19T10:56:30.452Z</time>
      </trkpt>
      <trkpt lat="46.79244" lon="0.53729">
        <ele>51.278522491455</ele>
        <time>2020-06-19T10:56:31.111Z</time>
      </trkpt>
      <trkpt lat="46.79184" lon="0.53748">
        <ele>51.349174499512</ele>
        <time>2020-06-19T10:56:31.780Z</time>
      </trkpt>
      <trkpt lat="46.79163" lon="0.5375">
        <ele>51.097213745117</ele>
        <time>2020-06-19T10:56:32.452Z</time>
      </trkpt>
      <trkpt lat="46.79075" lon="0.53742">
        <ele>52.662216186523</ele>
        <time>2020-06-19T10:56:33.138Z</time>
      </trkpt>
      <trkpt lat="46.7891" lon="0.53721">
        <ele>53.849411010742</ele>
        <time>2020-06-19T10:56:33.851Z</time>
      </trkpt>
      <trkpt lat="46.78757" lon="0.53703">
        <ele>52.404186248779</ele>
        <time>2020-06-19T10:56:34.589Z</time>
      </trkpt>
      <trkpt lat="46.78757" lon="0.53703">
        <ele>52.403354644775</ele>
        <time>2020-06-19T10:56:35.327Z</time>
      </trkpt>
      <trkpt lat="46.78754" lon="0.53702">
        <ele>52.373821258545</ele>
        <time>2020-06-19T10:56:36.065Z</time>
      </trkpt>
      <trkpt lat="46.78754" lon="0.53702">
        <ele>52.372974395752</ele>
        <time>2020-06-19T10:56:36.803Z</time>
      </trkpt>
      <trkpt lat="46.78754" lon="0.53702">
        <ele>52.372760772705</ele>
        <time>2020-06-19T10:56:37.541Z</time>
      </trkpt>
      <trkpt lat="46.78744" lon="0.53701">
        <ele>52.265579223633</ele>
        <time>2020-06-19T10:56:38.281Z</time>
      </trkpt>
      <trkpt lat="46.78451" lon="0.53668">
        <ele>53.902587890625</ele>
        <time>2020-06-19T10:56:39.068Z</time>
      </trkpt>
      <trkpt lat="46.7845" lon="0.53668">
        <ele>53.906230926514</ele>
        <time>2020-06-19T10:56:39.855Z</time>
      </trkpt>
      <trkpt lat="46.78448" lon="0.53667">
        <ele>53.971652984619</ele>
        <time>2020-06-19T10:56:40.642Z</time>
      </trkpt>
      <trkpt lat="46.78448" lon="0.53667">
        <ele>53.975341796875</ele>
        <time>2020-06-19T10:56:41.429Z</time>
      </trkpt>
      <trkpt lat="46.78448" lon="0.53667">
        <ele>53.975826263428</ele>
        <time>2020-06-19T10:56:42.216Z</time>
      </trkpt>
      <trkpt lat="46.78437" lon="0.53666">
        <ele>54.226665496826</ele>
        <time>2020-06-19T10:56:43.005Z</time>
      </trkpt>
      <trkpt lat="46.78372" lon="0.53658">
        <ele>53.820388793945</ele>
        <time>2020-06-19T10:56:43.804Z</time>
      </trkpt>
      <trkpt lat="46.7835" lon="0.53654">
        <ele>53.029941558838</ele>
        <time>2020-06-19T10:56:44.607Z</time>
      </trkpt>
      <trkpt lat="46.7835" lon="0.53654">
        <ele>53.02954864502</ele>
        <time>2020-06-19T10:56:45.410Z</time>
      </trkpt>
      <trkpt lat="46.78347" lon="0.53654">
        <ele>52.926734924316</ele>
        <time>2020-06-19T10:56:46.213Z</time>
      </trkpt>
      <trkpt lat="46.78347" lon="0.53654">
        <ele>52.926280975342</ele>
        <time>2020-06-19T10:56:47.016Z</time>
      </trkpt>
      <trkpt lat="46.78347" lon="0.53654">
        <ele>52.925559997559</ele>
        <time>2020-06-19T10:56:47.819Z</time>
      </trkpt>
      <trkpt lat="46.78341" lon="0.53653">
        <ele>52.697811126709</ele>
        <time>2020-06-19T10:56:48.623Z</time>
      </trkpt>
      <trkpt lat="46.78341" lon="0.53653">
        <ele>52.697696685791</ele>
        <time>2020-06-19T10:56:49.427Z</time>
      </trkpt>
      <trkpt lat="46.78338" lon="0.53652">
        <ele>52.59504699707</ele>
        <time>2020-06-19T10:56:50.232Z</time>
      </trkpt>
      <trkpt lat="46.78338" lon="0.53652">
        <ele>52.594429016113</ele>
        <time>2020-06-19T10:56:51.037Z</time>
      </trkpt>
      <trkpt lat="46.78338" lon="0.53652">
        <ele>52.59370803833</ele>
        <time>2020-06-19T10:56:51.842Z</time>
      </trkpt>
      <trkpt lat="46.78337" lon="0.53652">
        <ele>52.560600280762</ele>
        <time>2020-06-19T10:56:52.647Z</time>
      </trkpt>
      <trkpt lat="46.78331" lon="0.53662">
        <ele>52.333812713623</ele>
        <time>2020-06-19T10:56:53.453Z</time>
      </trkpt>
      <trkpt lat="46.78332" lon="0.5372">
        <ele>52.306171417236</ele>
        <time>2020-06-19T10:56:54.266Z</time>
      </trkpt>
      <trkpt lat="46.78332" lon="0.53724">
        <ele>52.20650100708</ele>
        <time>2020-06-19T10:56:55.079Z</time>
      </trkpt>
      <trkpt lat="46.78332" lon="0.53724">
        <ele>52.207191467285</ele>
        <time>2020-06-19T10:56:55.892Z</time>
      </trkpt>
      <trkpt lat="46.78332" lon="0.53739">
        <ele>51.992877960205</ele>
        <time>2020-06-19T10:56:56.707Z</time>
      </trkpt>
      <trkpt lat="46.78323" lon="0.53831">
        <ele>50.649127960205</ele>
        <time>2020-06-19T10:56:57.532Z</time>
      </trkpt>
      <trkpt lat="46.78322" lon="0.53835">
        <ele>50.592884063721</ele>
        <time>2020-06-19T10:56:58.358Z</time>
      </trkpt>
      <trkpt lat="46.78322" lon="0.53835">
        <ele>50.593269348145</ele>
        <time>2020-06-19T10:56:59.184Z</time>
      </trkpt>
      <trkpt lat="46.78321" lon="0.5385">
        <ele>50.41136932373</ele>
        <time>2020-06-19T10:57:00.011Z</time>
      </trkpt>
      <trkpt lat="46.7832" lon="0.53921">
        <ele>49.552173614502</ele>
        <time>2020-06-19T10:57:00.846Z</time>
      </trkpt>
      <trkpt lat="46.7832" lon="0.53926">
        <ele>49.499820709229</ele>
        <time>2020-06-19T10:57:01.682Z</time>
      </trkpt>
      <trkpt lat="46.7832" lon="0.53926">
        <ele>49.500171661377</ele>
        <time>2020-06-19T10:57:02.518Z</time>
      </trkpt>
      <trkpt lat="46.7832" lon="0.5394">
        <ele>49.32364654541</ele>
        <time>2020-06-19T10:57:03.355Z</time>
      </trkpt>
      <trkpt lat="46.78333" lon="0.54019">
        <ele>49.341777801514</ele>
        <time>2020-06-19T10:57:04.201Z</time>
      </trkpt>
      <trkpt lat="46.78334" lon="0.54023">
        <ele>49.376174926758</ele>
        <time>2020-06-19T10:57:05.048Z</time>
      </trkpt>
      <trkpt lat="46.78334" lon="0.54023">
        <ele>49.375946044922</ele>
        <time>2020-06-19T10:57:05.895Z</time>
      </trkpt>
      <trkpt lat="46.78335" lon="0.54033">
        <ele>49.456619262695</ele>
        <time>2020-06-19T10:57:06.743Z</time>
      </trkpt>
      <trkpt lat="46.78336" lon="0.54038">
        <ele>49.490341186523</ele>
        <time>2020-06-19T10:57:07.591Z</time>
      </trkpt>
      <trkpt lat="46.78336" lon="0.54038">
        <ele>49.491958618164</ele>
        <time>2020-06-19T10:57:08.439Z</time>
      </trkpt>
      <trkpt lat="46.78336" lon="0.54038">
        <ele>49.492568969727</ele>
        <time>2020-06-19T10:57:09.287Z</time>
      </trkpt>
      <trkpt lat="46.78334" lon="0.5404">
        <ele>49.562450408936</ele>
        <time>2020-06-19T10:57:10.136Z</time>
      </trkpt>
      <trkpt lat="46.78332" lon="0.54042">
        <ele>49.653007507324</ele>
        <time>2020-06-19T10:57:10.985Z</time>
      </trkpt>
      <trkpt lat="46.78332" lon="0.54042">
        <ele>49.653526306152</ele>
        <time>2020-06-19T10:57:11.834Z</time>
      </trkpt>
      <trkpt lat="46.78328" lon="0.54046">
        <ele>49.796054840088</ele>
        <time>2020-06-19T10:57:12.684Z</time>
      </trkpt>
      <trkpt lat="46.78323" lon="0.54042">
        <ele>49.865589141846</ele>
        <time>2020-06-19T10:57:13.535Z</time>
      </trkpt>
      <trkpt lat="46.78309" lon="0.53993">
        <ele>49.149875640869</ele>
        <time>2020-06-19T10:57:14.392Z</time>
      </trkpt>
      <trkpt lat="46.78308" lon="0.53988">
        <ele>49.086124420166</ele>
        <time>2020-06-19T10:57:15.249Z</time>
      </trkpt>
      <trkpt lat="46.78308" lon="0.53988">
        <ele>49.086544036865</ele>
        <time>2020-06-19T10:57:16.106Z</time>
      </trkpt>
      <trkpt lat="46.78306" lon="0.53981">
        <ele>48.979747772217</ele>
        <time>2020-06-19T10:57:16.964Z</time>
      </trkpt>
      <trkpt lat="46.78305" lon="0.53977">
        <ele>48.915580749512</ele>
        <time>2020-06-19T10:57:17.823Z</time>
      </trkpt>
      <trkpt lat="46.78305" lon="0.53977">
        <ele>48.915531158447</ele>
        <time>2020-06-19T10:57:18.682Z</time>
      </trkpt>
      <trkpt lat="46.78304" lon="0.53977">
        <ele>48.913791656494</ele>
        <time>2020-06-19T10:57:19.541Z</time>
      </trkpt>
      <trkpt lat="46.78304" lon="0.53975">
        <ele>48.875919342041</ele>
        <time>2020-06-19T10:57:20.400Z</time>
      </trkpt>
      <trkpt lat="46.78298" lon="0.53966">
        <ele>48.74654006958</ele>
        <time>2020-06-19T10:57:21.260Z</time>
      </trkpt>
      <trkpt lat="46.78239" lon="0.53962">
        <ele>48.137786865234</ele>
        <time>2020-06-19T10:57:22.130Z</time>
      </trkpt>
      <trkpt lat="46.78239" lon="0.53962">
        <ele>48.137462615967</ele>
        <time>2020-06-19T10:57:23.000Z</time>
      </trkpt>
      <trkpt lat="46.78236" lon="0.53962">
        <ele>48.0771484375</ele>
        <time>2020-06-19T10:57:23.870Z</time>
      </trkpt>
      <trkpt lat="46.78236" lon="0.53962">
        <ele>48.076404571533</ele>
        <time>2020-06-19T10:57:24.740Z</time>
      </trkpt>
      <trkpt lat="46.78236" lon="0.53962">
        <ele>48.075954437256</ele>
        <time>2020-06-19T10:57:25.610Z</time>
      </trkpt>
      <trkpt lat="46.78228" lon="0.53961">
        <ele>48.042545318604</ele>
        <time>2020-06-19T10:57:26.481Z</time>
      </trkpt>
      <trkpt lat="46.78228" lon="0.53961">
        <ele>48.042587280273</ele>
        <time>2020-06-19T10:57:27.352Z</time>
      </trkpt>
      <trkpt lat="46.78225" lon="0.53961">
        <ele>48.076080322266</ele>
        <time>2020-06-19T10:57:28.224Z</time>
      </trkpt>
      <trkpt lat="46.78225" lon="0.53961">
        <ele>48.076622009277</ele>
        <time>2020-06-19T10:57:29.096Z</time>
      </trkpt>
      <trkpt lat="46.78225" lon="0.53961">
        <ele>48.076755523682</ele>
        <time>2020-06-19T10:57:29.968Z</time>
      </trkpt>
      <trkpt lat="46.78216" lon="0.53957">
        <ele>48.143589019775</ele>
        <time>2020-06-19T10:57:30.841Z</time>
      </trkpt>
      <trkpt lat="46.78194" lon="0.53928">
        <ele>48.063632965088</ele>
        <time>2020-06-19T10:57:31.719Z</time>
      </trkpt>
      <trkpt lat="46.78192" lon="0.53925">
        <ele>48.055088043213</ele>
        <time>2020-06-19T10:57:32.598Z</time>
      </trkpt>
      <trkpt lat="46.78192" lon="0.53925">
        <ele>48.055141448975</ele>
        <time>2020-06-19T10:57:33.477Z</time>
      </trkpt>
      <trkpt lat="46.78184" lon="0.53915">
        <ele>48.027034759521</ele>
        <time>2020-06-19T10:57:34.357Z</time>
      </trkpt>
      <trkpt lat="46.78135" lon="0.53856">
        <ele>48.579856872559</ele>
        <time>2020-06-19T10:57:35.247Z</time>
      </trkpt>
      <trkpt lat="46.78133" lon="0.53853">
        <ele>48.644248962402</ele>
        <time>2020-06-19T10:57:36.138Z</time>
      </trkpt>
      <trkpt lat="46.78133" lon="0.53853">
        <ele>48.643836975098</ele>
        <time>2020-06-19T10:57:37.029Z</time>
      </trkpt>
      <trkpt lat="46.78125" lon="0.53843">
        <ele>48.852500915527</ele>
        <time>2020-06-19T10:57:37.922Z</time>
      </trkpt>
      <trkpt lat="46.78075" lon="0.53783">
        <ele>50.161449432373</ele>
        <time>2020-06-19T10:57:38.825Z</time>
      </trkpt>
      <trkpt lat="46.78073" lon="0.5378">
        <ele>50.226570129395</ele>
        <time>2020-06-19T10:57:39.728Z</time>
      </trkpt>
      <trkpt lat="46.78073" lon="0.5378">
        <ele>50.22615814209</ele>
        <time>2020-06-19T10:57:40.631Z</time>
      </trkpt>
      <trkpt lat="46.78065" lon="0.53771">
        <ele>50.204563140869</ele>
        <time>2020-06-19T10:57:41.536Z</time>
      </trkpt>
      <trkpt lat="46.78064" lon="0.53769">
        <ele>50.210189819336</ele>
        <time>2020-06-19T10:57:42.441Z</time>
      </trkpt>
      <trkpt lat="46.78062" lon="0.53764">
        <ele>50.219959259033</ele>
        <time>2020-06-19T10:57:43.347Z</time>
      </trkpt>
      <trkpt lat="46.78062" lon="0.53764">
        <ele>50.219959259033</ele>
        <time>2020-06-19T10:57:44.253Z</time>
      </trkpt>
      <trkpt lat="46.78062" lon="0.53764">
        <ele>50.219989776611</ele>
        <time>2020-06-19T10:57:45.159Z</time>
      </trkpt>
      <trkpt lat="46.78057" lon="0.53752">
        <ele>50.251152038574</ele>
        <time>2020-06-19T10:57:46.066Z</time>
      </trkpt>
      <trkpt lat="46.78034" lon="0.53692">
        <ele>50.113182067871</ele>
        <time>2020-06-19T10:57:46.981Z</time>
      </trkpt>
      <trkpt lat="46.78033" lon="0.53688">
        <ele>50.075344085693</ele>
        <time>2020-06-19T10:57:47.897Z</time>
      </trkpt>
      <trkpt lat="46.78033" lon="0.53688">
        <ele>50.075565338135</ele>
        <time>2020-06-19T10:57:48.813Z</time>
      </trkpt>
      <trkpt lat="46.78033" lon="0.53688">
        <ele>50.075466156006</ele>
        <time>2020-06-19T10:57:49.729Z</time>
      </trkpt>
      <trkpt lat="46.78028" lon="0.53675">
        <ele>49.956298828125</ele>
        <time>2020-06-19T10:57:50.646Z</time>
      </trkpt>
      <trkpt lat="46.78028" lon="0.53675">
        <ele>49.955642700195</ele>
        <time>2020-06-19T10:57:51.563Z</time>
      </trkpt>
      <trkpt lat="46.78027" lon="0.5367">
        <ele>49.987804412842</ele>
        <time>2020-06-19T10:57:52.481Z</time>
      </trkpt>
      <trkpt lat="46.78027" lon="0.5367">
        <ele>49.987911224365</ele>
        <time>2020-06-19T10:57:53.399Z</time>
      </trkpt>
      <trkpt lat="46.78027" lon="0.5367">
        <ele>49.987930297852</ele>
        <time>2020-06-19T10:57:54.317Z</time>
      </trkpt>
      <trkpt lat="46.78026" lon="0.53655">
        <ele>50.116508483887</ele>
        <time>2020-06-19T10:57:55.236Z</time>
      </trkpt>
      <trkpt lat="46.78026" lon="0.53653">
        <ele>50.137893676758</ele>
        <time>2020-06-19T10:57:56.156Z</time>
      </trkpt>
      <trkpt lat="46.78017" lon="0.53655">
        <ele>49.789951324463</ele>
        <time>2020-06-19T10:57:57.077Z</time>
      </trkpt>
      <trkpt lat="46.78006" lon="0.5366">
        <ele>49.418769836426</ele>
        <time>2020-06-19T10:57:58.000Z</time>
      </trkpt>
      <trkpt lat="46.78006" lon="0.5366">
        <ele>49.418685913086</ele>
        <time>2020-06-19T10:57:58.923Z</time>
      </trkpt>
      <trkpt lat="46.78002" lon="0.53661">
        <ele>49.343883514404</ele>
        <time>2020-06-19T10:57:59.846Z</time>
      </trkpt>
      <trkpt lat="46.78002" lon="0.53661">
        <ele>49.343688964844</ele>
        <time>2020-06-19T10:58:00.769Z</time>
      </trkpt>
      <trkpt lat="46.78002" lon="0.53661">
        <ele>49.343338012695</ele>
        <time>2020-06-19T10:58:01.692Z</time>
      </trkpt>
      <trkpt lat="46.77991" lon="0.53666">
        <ele>49.071117401123</ele>
        <time>2020-06-19T10:58:02.617Z</time>
      </trkpt>
      <trkpt lat="46.77971" lon="0.53675">
        <ele>49.408802032471</ele>
        <time>2020-06-19T10:58:03.546Z</time>
      </trkpt>
      <trkpt lat="46.77964" lon="0.53673">
        <ele>49.575450897217</ele>
        <time>2020-06-19T10:58:04.476Z</time>
      </trkpt>
      <trkpt lat="46.77964" lon="0.53673">
        <ele>49.575511932373</ele>
        <time>2020-06-19T10:58:05.406Z</time>
      </trkpt>
      <trkpt lat="46.77961" lon="0.53671">
        <ele>49.651103973389</ele>
        <time>2020-06-19T10:58:06.336Z</time>
      </trkpt>
      <trkpt lat="46.77961" lon="0.53671">
        <ele>49.651302337646</ele>
        <time>2020-06-19T10:58:07.266Z</time>
      </trkpt>
      <trkpt lat="46.77961" lon="0.53671">
        <ele>49.651634216309</ele>
        <time>2020-06-19T10:58:08.196Z</time>
      </trkpt>
      <trkpt lat="46.7796" lon="0.53671">
        <ele>49.672760009766</ele>
        <time>2020-06-19T10:58:09.127Z</time>
      </trkpt>
      <trkpt lat="46.77953" lon="0.53659">
        <ele>49.840732574463</ele>
        <time>2020-06-19T10:58:10.059Z</time>
      </trkpt>
      <trkpt lat="46.77924" lon="0.53563">
        <ele>49.082942962646</ele>
        <time>2020-06-19T10:58:11.003Z</time>
      </trkpt>
      <trkpt lat="46.77901" lon="0.53494">
        <ele>49.132785797119</ele>
        <time>2020-06-19T10:58:11.955Z</time>
      </trkpt>
      <trkpt lat="46.77886" lon="0.53447">
        <ele>49.710266113281</ele>
        <time>2020-06-19T10:58:12.913Z</time>
      </trkpt>
      <trkpt lat="46.77886" lon="0.53428">
        <ele>50.166191101074</ele>
        <time>2020-06-19T10:58:13.873Z</time>
      </trkpt>
      <trkpt lat="46.77897" lon="0.53411">
        <ele>50.44214630127</ele>
        <time>2020-06-19T10:58:14.836Z</time>
      </trkpt>
      <trkpt lat="46.77913" lon="0.53396">
        <ele>50.909259796143</ele>
        <time>2020-06-19T10:58:15.802Z</time>
      </trkpt>
      <trkpt lat="46.77919" lon="0.53385">
        <ele>51.317192077637</ele>
        <time>2020-06-19T10:58:16.769Z</time>
      </trkpt>
      <trkpt lat="46.77919" lon="0.53377">
        <ele>51.740123748779</ele>
        <time>2020-06-19T10:58:17.737Z</time>
      </trkpt>
      <trkpt lat="46.77919" lon="0.53373">
        <ele>52.026416778564</ele>
        <time>2020-06-19T10:58:18.706Z</time>
      </trkpt>
      <trkpt lat="46.77919" lon="0.53373">
        <ele>52.024738311768</ele>
        <time>2020-06-19T10:58:19.675Z</time>
      </trkpt>
      <trkpt lat="46.77919" lon="0.53373">
        <ele>52.025478363037</ele>
        <time>2020-06-19T10:58:20.644Z</time>
      </trkpt>
      <trkpt lat="46.77919" lon="0.53365">
        <ele>52.477672576904</ele>
        <time>2020-06-19T10:58:21.613Z</time>
      </trkpt>
      <trkpt lat="46.77914" lon="0.5337">
        <ele>52.05774307251</ele>
        <time>2020-06-19T10:58:22.583Z</time>
      </trkpt>
      <trkpt lat="46.779" lon="0.53385">
        <ele>51.030048370361</ele>
        <time>2020-06-19T10:58:23.556Z</time>
      </trkpt>
      <trkpt lat="46.77876" lon="0.53406">
        <ele>50.814083099365</ele>
        <time>2020-06-19T10:58:24.534Z</time>
      </trkpt>
      <trkpt lat="46.7786" lon="0.53416">
        <ele>50.78067779541</ele>
        <time>2020-06-19T10:58:25.514Z</time>
      </trkpt>
      <trkpt lat="46.7786" lon="0.53416">
        <ele>50.780673980713</ele>
        <time>2020-06-19T10:58:26.494Z</time>
      </trkpt>
      <trkpt lat="46.77857" lon="0.53417">
        <ele>50.774364471436</ele>
        <time>2020-06-19T10:58:27.475Z</time>
      </trkpt>
      <trkpt lat="46.77857" lon="0.53417">
        <ele>50.774349212646</ele>
        <time>2020-06-19T10:58:28.456Z</time>
      </trkpt>
      <trkpt lat="46.77857" lon="0.53417">
        <ele>50.774326324463</ele>
        <time>2020-06-19T10:58:29.437Z</time>
      </trkpt>
      <trkpt lat="46.77847" lon="0.53423">
        <ele>51.076461791992</ele>
        <time>2020-06-19T10:58:30.420Z</time>
      </trkpt>
      <trkpt lat="46.77815" lon="0.53438">
        <ele>52.152179718018</ele>
        <time>2020-06-19T10:58:31.408Z</time>
      </trkpt>
      <trkpt lat="46.77744" lon="0.53457">
        <ele>53.855895996094</ele>
        <time>2020-06-19T10:58:32.408Z</time>
      </trkpt>
      <trkpt lat="46.77666" lon="0.53485">
        <ele>56</ele>
        <time>2020-06-19T10:58:33.420Z</time>
      </trkpt>
      <trkpt lat="46.77634" lon="0.53498">
        <ele>55.512432098389</ele>
        <time>2020-06-19T10:58:34.438Z</time>
      </trkpt>
      <trkpt lat="46.77634" lon="0.53498">
        <ele>55.51220703125</ele>
        <time>2020-06-19T10:58:35.456Z</time>
      </trkpt>
      <trkpt lat="46.77631" lon="0.535">
        <ele>55.436454772949</ele>
        <time>2020-06-19T10:58:36.474Z</time>
      </trkpt>
      <trkpt lat="46.77631" lon="0.535">
        <ele>55.436405181885</ele>
        <time>2020-06-19T10:58:37.492Z</time>
      </trkpt>
      <trkpt lat="46.77631" lon="0.535">
        <ele>55.435962677002</ele>
        <time>2020-06-19T10:58:38.510Z</time>
      </trkpt>
      <trkpt lat="46.77621" lon="0.53504">
        <ele>55.192596435547</ele>
        <time>2020-06-19T10:58:39.530Z</time>
      </trkpt>
      <trkpt lat="46.77555" lon="0.5353">
        <ele>53.247184753418</ele>
        <time>2020-06-19T10:58:40.561Z</time>
      </trkpt>
      <trkpt lat="46.77554" lon="0.53529">
        <ele>53.259181976318</ele>
        <time>2020-06-19T10:58:41.592Z</time>
      </trkpt>
      <trkpt lat="46.77554" lon="0.53528">
        <ele>53.271179199219</ele>
        <time>2020-06-19T10:58:42.623Z</time>
      </trkpt>
      <trkpt lat="46.77552" lon="0.53526">
        <ele>53.29517364502</ele>
        <time>2020-06-19T10:58:43.655Z</time>
      </trkpt>
      <trkpt lat="46.77547" lon="0.53527">
        <ele>53.283176422119</ele>
        <time>2020-06-19T10:58:44.687Z</time>
      </trkpt>
      <trkpt lat="46.77544" lon="0.53532">
        <ele>53.22318649292</ele>
        <time>2020-06-19T10:58:45.720Z</time>
      </trkpt>
      <trkpt lat="46.77544" lon="0.53535">
        <ele>53.187194824219</ele>
        <time>2020-06-19T10:58:46.753Z</time>
      </trkpt>
      <trkpt lat="46.7754" lon="0.53538">
        <ele>53.15119934082</ele>
        <time>2020-06-19T10:58:47.787Z</time>
      </trkpt>
      <trkpt lat="46.77419" lon="0.53649">
        <ele>53.835174560547</ele>
        <time>2020-06-19T10:58:48.844Z</time>
      </trkpt>
      <trkpt lat="46.77409" lon="0.53655">
        <ele>54.147121429443</ele>
        <time>2020-06-19T10:58:49.903Z</time>
      </trkpt>
      <trkpt lat="46.77408" lon="0.53655">
        <ele>54.171119689941</ele>
        <time>2020-06-19T10:58:50.962Z</time>
      </trkpt>
      <trkpt lat="46.77406" lon="0.53655">
        <ele>54.219108581543</ele>
        <time>2020-06-19T10:58:52.021Z</time>
      </trkpt>
      <trkpt lat="46.77403" lon="0.53659">
        <ele>54.31982421875</ele>
        <time>2020-06-19T10:58:53.081Z</time>
      </trkpt>
      <trkpt lat="46.77402" lon="0.53662">
        <ele>54.367816925049</ele>
        <time>2020-06-19T10:58:54.141Z</time>
      </trkpt>
      <trkpt lat="46.77402" lon="0.53663">
        <ele>54.379814147949</ele>
        <time>2020-06-19T10:58:55.201Z</time>
      </trkpt>
      <trkpt lat="46.7738" lon="0.53681">
        <ele>54.859733581543</ele>
        <time>2020-06-19T10:58:56.265Z</time>
      </trkpt>
      <trkpt lat="46.77369" lon="0.53696">
        <ele>55</ele>
        <time>2020-06-19T10:58:57.332Z</time>
      </trkpt>
      <trkpt lat="46.77367" lon="0.537">
        <ele>55</ele>
        <time>2020-06-19T10:58:58.399Z</time>
      </trkpt>
      <trkpt lat="46.77358" lon="0.53695">
        <ele>55</ele>
        <time>2020-06-19T10:58:59.468Z</time>
      </trkpt>
      <trkpt lat="46.77305" lon="0.53687">
        <ele>55</ele>
        <time>2020-06-19T10:59:00.545Z</time>
      </trkpt>
      <trkpt lat="46.77265" lon="0.53687">
        <ele>55.311492919922</ele>
        <time>2020-06-19T10:59:01.629Z</time>
      </trkpt>
      <trkpt lat="46.77213" lon="0.53685">
        <ele>55.612506866455</ele>
        <time>2020-06-19T10:59:02.721Z</time>
      </trkpt>
      <trkpt lat="46.77164" lon="0.53682">
        <ele>55.574424743652</ele>
        <time>2020-06-19T10:59:03.821Z</time>
      </trkpt>
      <trkpt lat="46.77164" lon="0.53682">
        <ele>55.574405670166</ele>
        <time>2020-06-19T10:59:04.921Z</time>
      </trkpt>
      <trkpt lat="46.77161" lon="0.53682">
        <ele>55.571876525879</ele>
        <time>2020-06-19T10:59:06.022Z</time>
      </trkpt>
      <trkpt lat="46.77161" lon="0.53682">
        <ele>55.57186126709</ele>
        <time>2020-06-19T10:59:07.123Z</time>
      </trkpt>
      <trkpt lat="46.77161" lon="0.53682">
        <ele>55.571846008301</ele>
        <time>2020-06-19T10:59:08.224Z</time>
      </trkpt>
      <trkpt lat="46.77151" lon="0.53681">
        <ele>55.607276916504</ele>
        <time>2020-06-19T10:59:09.326Z</time>
      </trkpt>
      <trkpt lat="46.77034" lon="0.5367">
        <ele>56.879066467285</ele>
        <time>2020-06-19T10:59:10.447Z</time>
      </trkpt>
      <trkpt lat="46.76919" lon="0.53664">
        <ele>55.521106719971</ele>
        <time>2020-06-19T10:59:11.586Z</time>
      </trkpt>
      <trkpt lat="46.76837" lon="0.53663">
        <ele>55</ele>
        <time>2020-06-19T10:59:12.738Z</time>
      </trkpt>
      <trkpt lat="46.76701" lon="0.53661">
        <ele>54</ele>
        <time>2020-06-19T10:59:13.912Z</time>
      </trkpt>
      <trkpt lat="46.76609" lon="0.53662">
        <ele>55.637035369873</ele>
        <time>2020-06-19T10:59:15.101Z</time>
      </trkpt>
      <trkpt lat="46.76582" lon="0.53669">
        <ele>56.318710327148</ele>
        <time>2020-06-19T10:59:16.294Z</time>
      </trkpt>
      <trkpt lat="46.76517" lon="0.53695">
        <ele>55.732486724854</ele>
        <time>2020-06-19T10:59:17.498Z</time>
      </trkpt>
      <trkpt lat="46.76409" lon="0.53735">
        <ele>55.787593841553</ele>
        <time>2020-06-19T10:59:18.720Z</time>
      </trkpt>
      <trkpt lat="46.76344" lon="0.53757">
        <ele>54.270412445068</ele>
        <time>2020-06-19T10:59:19.953Z</time>
      </trkpt>
      <trkpt lat="46.76344" lon="0.53757">
        <ele>54.270111083984</ele>
        <time>2020-06-19T10:59:21.186Z</time>
      </trkpt>
      <trkpt lat="46.7634" lon="0.53758">
        <ele>54.231861114502</ele>
        <time>2020-06-19T10:59:22.419Z</time>
      </trkpt>
      <trkpt lat="46.7634" lon="0.53758">
        <ele>54.231643676758</ele>
        <time>2020-06-19T10:59:23.652Z</time>
      </trkpt>
      <trkpt lat="46.7634" lon="0.53758">
        <ele>54.231422424316</ele>
        <time>2020-06-19T10:59:24.885Z</time>
      </trkpt>
      <trkpt lat="46.76331" lon="0.53761">
        <ele>54.118877410889</ele>
        <time>2020-06-19T10:59:26.120Z</time>
      </trkpt>
      <trkpt lat="46.76178" lon="0.53795">
        <ele>54.067714691162</ele>
        <time>2020-06-19T10:59:27.380Z</time>
      </trkpt>
      <trkpt lat="46.76078" lon="0.53816">
        <ele>53.100860595703</ele>
        <time>2020-06-19T10:59:28.656Z</time>
      </trkpt>
      <trkpt lat="46.76032" lon="0.5383">
        <ele>53.820739746094</ele>
        <time>2020-06-19T10:59:29.939Z</time>
      </trkpt>
      <trkpt lat="46.75938" lon="0.53872">
        <ele>54.740203857422</ele>
        <time>2020-06-19T10:59:31.238Z</time>
      </trkpt>
      <trkpt lat="46.75882" lon="0.53892">
        <ele>54.643974304199</ele>
        <time>2020-06-19T10:59:32.546Z</time>
      </trkpt>
      <trkpt lat="46.75882" lon="0.53892">
        <ele>54.643642425537</ele>
        <time>2020-06-19T10:59:33.854Z</time>
      </trkpt>
      <trkpt lat="46.75879" lon="0.53893">
        <ele>54.591968536377</ele>
        <time>2020-06-19T10:59:35.163Z</time>
      </trkpt>
      <trkpt lat="46.75879" lon="0.53893">
        <ele>54.59175491333</ele>
        <time>2020-06-19T10:59:36.472Z</time>
      </trkpt>
      <trkpt lat="46.75879" lon="0.53893">
        <ele>54.591449737549</ele>
        <time>2020-06-19T10:59:37.781Z</time>
      </trkpt>
      <trkpt lat="46.7587" lon="0.53896">
        <ele>54.443714141846</ele>
        <time>2020-06-19T10:59:39.091Z</time>
      </trkpt>
      <trkpt lat="46.75726" lon="0.53943">
        <ele>55.568077087402</ele>
        <time>2020-06-19T10:59:40.425Z</time>
      </trkpt>
      <trkpt lat="46.75666" lon="0.53953">
        <ele>54.280414581299</ele>
        <time>2020-06-19T10:59:41.768Z</time>
      </trkpt>
      <trkpt lat="46.75619" lon="0.53955">
        <ele>54.275665283203</ele>
        <time>2020-06-19T10:59:43.119Z</time>
      </trkpt>
      <trkpt lat="46.75494" lon="0.53962">
        <ele>54.93595123291</ele>
        <time>2020-06-19T10:59:44.490Z</time>
      </trkpt>
      <trkpt lat="46.75353" lon="0.5397">
        <ele>56.968063354492</ele>
        <time>2020-06-19T10:59:45.884Z</time>
      </trkpt>
      <trkpt lat="46.75233" lon="0.53978">
        <ele>56.129299163818</ele>
        <time>2020-06-19T10:59:47.297Z</time>
      </trkpt>
      <trkpt lat="46.75233" lon="0.53978">
        <ele>56.129348754883</ele>
        <time>2020-06-19T10:59:48.710Z</time>
      </trkpt>
      <trkpt lat="46.7523" lon="0.53978">
        <ele>56.131969451904</ele>
        <time>2020-06-19T10:59:50.123Z</time>
      </trkpt>
      <trkpt lat="46.7523" lon="0.53978">
        <ele>56.132019042969</ele>
        <time>2020-06-19T10:59:51.536Z</time>
      </trkpt>
      <trkpt lat="46.7523" lon="0.53978">
        <ele>56.132034301758</ele>
        <time>2020-06-19T10:59:52.949Z</time>
      </trkpt>
      <trkpt lat="46.7522" lon="0.53979">
        <ele>56.139919281006</ele>
        <time>2020-06-19T10:59:54.364Z</time>
      </trkpt>
      <trkpt lat="46.75085" lon="0.53985">
        <ele>56.53364944458</ele>
        <time>2020-06-19T10:59:55.801Z</time>
      </trkpt>
      <trkpt lat="46.75013" lon="0.53981">
        <ele>56.508255004883</ele>
        <time>2020-06-19T10:59:57.249Z</time>
      </trkpt>
      <trkpt lat="46.74961" lon="0.53977">
        <ele>56.565692901611</ele>
        <time>2020-06-19T10:59:58.705Z</time>
      </trkpt>
      <trkpt lat="46.74822" lon="0.53965">
        <ele>56.986103057861</ele>
        <time>2020-06-19T11:00:00.184Z</time>
      </trkpt>
      <trkpt lat="46.74774" lon="0.53967">
        <ele>57.557952880859</ele>
        <time>2020-06-19T11:00:01.670Z</time>
      </trkpt>
      <trkpt lat="46.74702" lon="0.53971">
        <ele>57.956066131592</ele>
        <time>2020-06-19T11:00:03.168Z</time>
      </trkpt>
      <trkpt lat="46.74694" lon="0.53975">
        <ele>57.908073425293</ele>
        <time>2020-06-19T11:00:04.667Z</time>
      </trkpt>
      <trkpt lat="46.74688" lon="0.53987">
        <ele>57.764099121094</ele>
        <time>2020-06-19T11:00:06.168Z</time>
      </trkpt>
      <trkpt lat="46.74688" lon="0.54001">
        <ele>57.596126556396</ele>
        <time>2020-06-19T11:00:07.670Z</time>
      </trkpt>
      <trkpt lat="46.7469" lon="0.54074">
        <ele>57.569839477539</ele>
        <time>2020-06-19T11:00:09.180Z</time>
      </trkpt>
      <trkpt lat="46.74688" lon="0.54185">
        <ele>56.593837738037</ele>
        <time>2020-06-19T11:00:10.703Z</time>
      </trkpt>
      <trkpt lat="46.7468" lon="0.54365">
        <ele>56.689819335938</ele>
        <time>2020-06-19T11:00:12.246Z</time>
      </trkpt>
      <trkpt lat="46.74675" lon="0.54407">
        <ele>57</ele>
        <time>2020-06-19T11:00:13.793Z</time>
      </trkpt>
      <trkpt lat="46.74638" lon="0.54395">
        <ele>57</ele>
        <time>2020-06-19T11:00:15.346Z</time>
      </trkpt>
      <trkpt lat="46.74568" lon="0.54371">
        <ele>57</ele>
        <time>2020-06-19T11:00:16.911Z</time>
      </trkpt>
      <trkpt lat="46.7451" lon="0.54354">
        <ele>56.262699127197</ele>
        <time>2020-06-19T11:00:18.485Z</time>
      </trkpt>
      <trkpt lat="46.74431" lon="0.54329">
        <ele>56.965801239014</ele>
        <time>2020-06-19T11:00:20.072Z</time>
      </trkpt>
      <trkpt lat="46.74365" lon="0.54307">
        <ele>57.229759216309</ele>
        <time>2020-06-19T11:00:21.670Z</time>
      </trkpt>
      <trkpt lat="46.74354" lon="0.54302">
        <ele>57.325912475586</ele>
        <time>2020-06-19T11:00:23.270Z</time>
      </trkpt>
      <trkpt lat="46.74354" lon="0.54302">
        <ele>57.325939178467</ele>
        <time>2020-06-19T11:00:24.870Z</time>
      </trkpt>
      <trkpt lat="46.74351" lon="0.54301">
        <ele>57.353851318359</ele>
        <time>2020-06-19T11:00:26.470Z</time>
      </trkpt>
      <trkpt lat="46.74351" lon="0.54301">
        <ele>57.353923797607</ele>
        <time>2020-06-19T11:00:28.070Z</time>
      </trkpt>
      <trkpt lat="46.74351" lon="0.54301">
        <ele>57.354049682617</ele>
        <time>2020-06-19T11:00:29.670Z</time>
      </trkpt>
      <trkpt lat="46.74342" lon="0.54297">
        <ele>57.299571990967</ele>
        <time>2020-06-19T11:00:31.272Z</time>
      </trkpt>
      <trkpt lat="46.74283" lon="0.54274">
        <ele>57.453025817871</ele>
        <time>2020-06-19T11:00:32.884Z</time>
      </trkpt>
      <trkpt lat="46.7426" lon="0.54261">
        <ele>57.728981018066</ele>
        <time>2020-06-19T11:00:34.500Z</time>
      </trkpt>
      <trkpt lat="46.74209" lon="0.54221">
        <ele>57.659122467041</ele>
        <time>2020-06-19T11:00:36.125Z</time>
      </trkpt>
      <trkpt lat="46.74197" lon="0.54208">
        <ele>57.290065765381</ele>
        <time>2020-06-19T11:00:37.752Z</time>
      </trkpt>
      <trkpt lat="46.74147" lon="0.54151">
        <ele>55.661415100098</ele>
        <time>2020-06-19T11:00:39.389Z</time>
      </trkpt>
      <trkpt lat="46.7412" lon="0.54115">
        <ele>55.997749328613</ele>
        <time>2020-06-19T11:00:41.032Z</time>
      </trkpt>
      <trkpt lat="46.74105" lon="0.54091">
        <ele>56.249706268311</ele>
        <time>2020-06-19T11:00:42.679Z</time>
      </trkpt>
      <trkpt lat="46.74082" lon="0.54058">
        <ele>56.681636810303</ele>
        <time>2020-06-19T11:00:44.331Z</time>
      </trkpt>
      <trkpt lat="46.74063" lon="0.54039">
        <ele>56.95238494873</ele>
        <time>2020-06-19T11:00:45.987Z</time>
      </trkpt>
      <trkpt lat="46.74001" lon="0.53982">
        <ele>57.024749755859</ele>
        <time>2020-06-19T11:00:47.655Z</time>
      </trkpt>
      <trkpt lat="46.73969" lon="0.53949">
        <ele>57.001132965088</ele>
        <time>2020-06-19T11:00:49.329Z</time>
      </trkpt>
      <trkpt lat="46.73951" lon="0.53922">
        <ele>56.784790039062</ele>
        <time>2020-06-19T11:00:51.007Z</time>
      </trkpt>
      <trkpt lat="46.73932" lon="0.53883">
        <ele>56.328651428223</ele>
        <time>2020-06-19T11:00:52.690Z</time>
      </trkpt>
      <trkpt lat="46.73923" lon="0.5386">
        <ele>56.544612884521</ele>
        <time>2020-06-19T11:00:54.376Z</time>
      </trkpt>
      <trkpt lat="46.73887" lon="0.53766">
        <ele>57</ele>
        <time>2020-06-19T11:00:56.074Z</time>
      </trkpt>
      <trkpt lat="46.73845" lon="0.53672">
        <ele>57.543468475342</ele>
        <time>2020-06-19T11:00:57.784Z</time>
      </trkpt>
      <trkpt lat="46.73803" lon="0.53585">
        <ele>57.575866699219</ele>
        <time>2020-06-19T11:00:59.506Z</time>
      </trkpt>
      <trkpt lat="46.73766" lon="0.53522">
        <ele>57.031181335449</ele>
        <time>2020-06-19T11:01:01.237Z</time>
      </trkpt>
      <trkpt lat="46.73739" lon="0.53493">
        <ele>56.731231689453</ele>
        <time>2020-06-19T11:01:02.973Z</time>
      </trkpt>
      <trkpt lat="46.73694" lon="0.53455">
        <ele>56.480152130127</ele>
        <time>2020-06-19T11:01:04.718Z</time>
      </trkpt>
      <trkpt lat="46.73668" lon="0.53428">
        <ele>56.168201446533</ele>
        <time>2020-06-19T11:01:06.468Z</time>
      </trkpt>
      <trkpt lat="46.7365" lon="0.53399">
        <ele>56.047760009766</ele>
        <time>2020-06-19T11:01:08.222Z</time>
      </trkpt>
      <trkpt lat="46.73639" lon="0.53372">
        <ele>56.179740905762</ele>
        <time>2020-06-19T11:01:09.980Z</time>
      </trkpt>
      <trkpt lat="46.73635" lon="0.53357">
        <ele>56.32283782959</ele>
        <time>2020-06-19T11:01:11.739Z</time>
      </trkpt>
      <trkpt lat="46.73627" lon="0.53294">
        <ele>56.921287536621</ele>
        <time>2020-06-19T11:01:13.506Z</time>
      </trkpt>
      <trkpt lat="46.73626" lon="0.53281">
        <ele>56.765316009521</ele>
        <time>2020-06-19T11:01:15.274Z</time>
      </trkpt>
      <trkpt lat="46.73626" lon="0.53276">
        <ele>56.707656860352</ele>
        <time>2020-06-19T11:01:17.042Z</time>
      </trkpt>
      <trkpt lat="46.73626" lon="0.53276">
        <ele>56.707992553711</ele>
        <time>2020-06-19T11:01:18.810Z</time>
      </trkpt>
      <trkpt lat="46.73626" lon="0.53276">
        <ele>56.707843780518</ele>
        <time>2020-06-19T11:01:20.578Z</time>
      </trkpt>
      <trkpt lat="46.73625" lon="0.53261">
        <ele>56.525352478027</ele>
        <time>2020-06-19T11:01:22.348Z</time>
      </trkpt>
      <trkpt lat="46.73621" lon="0.53213">
        <ele>56.050548553467</ele>
        <time>2020-06-19T11:01:24.123Z</time>
      </trkpt>
      <trkpt lat="46.73614" lon="0.53172">
        <ele>56.479690551758</ele>
        <time>2020-06-19T11:01:25.903Z</time>
      </trkpt>
      <trkpt lat="46.73581" lon="0.53049">
        <ele>56.981777191162</ele>
        <time>2020-06-19T11:01:27.698Z</time>
      </trkpt>
      <trkpt lat="46.73571" lon="0.5303">
        <ele>56.753814697266</ele>
        <time>2020-06-19T11:01:29.495Z</time>
      </trkpt>
      <trkpt lat="46.7356" lon="0.53019">
        <ele>56.876998901367</ele>
        <time>2020-06-19T11:01:31.294Z</time>
      </trkpt>
      <trkpt lat="46.73542" lon="0.53004">
        <ele>57.128959655762</ele>
        <time>2020-06-19T11:01:33.097Z</time>
      </trkpt>
      <trkpt lat="46.73525" lon="0.53001">
        <ele>57.500896453857</ele>
        <time>2020-06-19T11:01:34.902Z</time>
      </trkpt>
      <trkpt lat="46.73437" lon="0.52977">
        <ele>57.396663665771</ele>
        <time>2020-06-19T11:01:36.722Z</time>
      </trkpt>
      <trkpt lat="46.73418" lon="0.52975">
        <ele>57.168701171875</ele>
        <time>2020-06-19T11:01:38.545Z</time>
      </trkpt>
      <trkpt lat="46.734" lon="0.52975">
        <ele>57.141185760498</ele>
        <time>2020-06-19T11:01:40.371Z</time>
      </trkpt>
      <trkpt lat="46.73383" lon="0.52978">
        <ele>57.381149291992</ele>
        <time>2020-06-19T11:01:42.199Z</time>
      </trkpt>
      <trkpt lat="46.73313" lon="0.53003">
        <ele>58.33878326416</ele>
        <time>2020-06-19T11:01:44.039Z</time>
      </trkpt>
      <trkpt lat="46.73245" lon="0.53028">
        <ele>56.549324035645</ele>
        <time>2020-06-19T11:01:45.890Z</time>
      </trkpt>
      <trkpt lat="46.73219" lon="0.53038">
        <ele>55.931301116943</ele>
        <time>2020-06-19T11:01:47.746Z</time>
      </trkpt>
      <trkpt lat="46.73196" lon="0.53042">
        <ele>55.607353210449</ele>
        <time>2020-06-19T11:01:49.605Z</time>
      </trkpt>
      <trkpt lat="46.73056" lon="0.53055">
        <ele>55.107532501221</ele>
        <time>2020-06-19T11:01:51.487Z</time>
      </trkpt>
      <trkpt lat="46.73032" lon="0.53062">
        <ele>55.275505065918</ele>
        <time>2020-06-19T11:01:53.373Z</time>
      </trkpt>
      <trkpt lat="46.72969" lon="0.53088">
        <ele>55</ele>
        <time>2020-06-19T11:01:55.269Z</time>
      </trkpt>
      <trkpt lat="46.72825" lon="0.5315">
        <ele>54.946109771729</ele>
        <time>2020-06-19T11:01:57.189Z</time>
      </trkpt>
      <trkpt lat="46.72708" lon="0.53198">
        <ele>56.819114685059</ele>
        <time>2020-06-19T11:01:59.129Z</time>
      </trkpt>
      <trkpt lat="46.72641" lon="0.53223">
        <ele>58.791709899902</ele>
        <time>2020-06-19T11:02:01.080Z</time>
      </trkpt>
      <trkpt lat="46.72617" lon="0.53231">
        <ele>58.503757476807</ele>
        <time>2020-06-19T11:02:03.035Z</time>
      </trkpt>
      <trkpt lat="46.72539" lon="0.53244">
        <ele>58.301071166992</ele>
        <time>2020-06-19T11:02:05.002Z</time>
      </trkpt>
      <trkpt lat="46.72486" lon="0.53253">
        <ele>57.565246582031</ele>
        <time>2020-06-19T11:02:06.978Z</time>
      </trkpt>
      <trkpt lat="46.72486" lon="0.53254">
        <ele>57.56519317627</ele>
        <time>2020-06-19T11:02:08.954Z</time>
      </trkpt>
      <trkpt lat="46.72483" lon="0.53254">
        <ele>57.558135986328</ele>
        <time>2020-06-19T11:02:10.930Z</time>
      </trkpt>
      <trkpt lat="46.72483" lon="0.53254">
        <ele>57.558094024658</ele>
        <time>2020-06-19T11:02:12.906Z</time>
      </trkpt>
      <trkpt lat="46.72483" lon="0.53254">
        <ele>57.558052062988</ele>
        <time>2020-06-19T11:02:14.882Z</time>
      </trkpt>
      <trkpt lat="46.72472" lon="0.53256">
        <ele>57.534637451172</ele>
        <time>2020-06-19T11:02:16.860Z</time>
      </trkpt>
      <trkpt lat="46.72444" lon="0.53264">
        <ele>57.517349243164</ele>
        <time>2020-06-19T11:02:18.843Z</time>
      </trkpt>
      <trkpt lat="46.72428" lon="0.53273">
        <ele>57.709316253662</ele>
        <time>2020-06-19T11:02:20.828Z</time>
      </trkpt>
      <trkpt lat="46.72393" lon="0.53297">
        <ele>57.95728302002</ele>
        <time>2020-06-19T11:02:22.820Z</time>
      </trkpt>
      <trkpt lat="46.72339" lon="0.53335">
        <ele>58</ele>
        <time>2020-06-19T11:02:24.821Z</time>
      </trkpt>
      <trkpt lat="46.7227" lon="0.53383">
        <ele>56.800888061523</ele>
        <time>2020-06-19T11:02:26.834Z</time>
      </trkpt>
      <trkpt lat="46.72188" lon="0.53439">
        <ele>57</ele>
        <time>2020-06-19T11:02:28.862Z</time>
      </trkpt>
      <trkpt lat="46.72116" lon="0.5349">
        <ele>56.277290344238</ele>
        <time>2020-06-19T11:02:30.903Z</time>
      </trkpt>
      <trkpt lat="46.72113" lon="0.53492">
        <ele>56.215961456299</ele>
        <time>2020-06-19T11:02:32.944Z</time>
      </trkpt>
      <trkpt lat="46.72113" lon="0.53492">
        <ele>56.215805053711</ele>
        <time>2020-06-19T11:02:34.985Z</time>
      </trkpt>
      <trkpt lat="46.72113" lon="0.53492">
        <ele>56.215698242188</ele>
        <time>2020-06-19T11:02:37.026Z</time>
      </trkpt>
      <trkpt lat="46.72109" lon="0.53495">
        <ele>56.130432128906</ele>
        <time>2020-06-19T11:02:39.068Z</time>
      </trkpt>
      <trkpt lat="46.72103" lon="0.53498">
        <ele>56.022453308105</ele>
        <time>2020-06-19T11:02:41.111Z</time>
      </trkpt>
      <trkpt lat="46.72067" lon="0.53515">
        <ele>55.467750549316</ele>
        <time>2020-06-19T11:02:43.160Z</time>
      </trkpt>
      <trkpt lat="46.72043" lon="0.53524">
        <ele>55.666473388672</ele>
        <time>2020-06-19T11:02:45.213Z</time>
      </trkpt>
      <trkpt lat="46.72016" lon="0.53539">
        <ele>56.818279266357</ele>
        <time>2020-06-19T11:02:47.271Z</time>
      </trkpt>
      <trkpt lat="46.71972" lon="0.53577">
        <ele>57.502872467041</ele>
        <time>2020-06-19T11:02:49.337Z</time>
      </trkpt>
      <trkpt lat="46.71899" lon="0.53646">
        <ele>58.056259155273</ele>
        <time>2020-06-19T11:02:51.417Z</time>
      </trkpt>
      <trkpt lat="46.71888" lon="0.53656">
        <ele>58.188236236572</ele>
        <time>2020-06-19T11:02:53.499Z</time>
      </trkpt>
      <trkpt lat="46.7188" lon="0.5366">
        <ele>58.28422164917</ele>
        <time>2020-06-19T11:02:55.582Z</time>
      </trkpt>
      <trkpt lat="46.71866" lon="0.53664">
        <ele>58.452194213867</ele>
        <time>2020-06-19T11:02:57.667Z</time>
      </trkpt>
      <trkpt lat="46.71819" lon="0.53661">
        <ele>59.016098022461</ele>
        <time>2020-06-19T11:02:59.760Z</time>
      </trkpt>
      <trkpt lat="46.71818" lon="0.53653">
        <ele>59.028099060059</ele>
        <time>2020-06-19T11:03:01.854Z</time>
      </trkpt>
      <trkpt lat="46.718" lon="0.53651">
        <ele>59.244060516357</ele>
        <time>2020-06-19T11:03:03.951Z</time>
      </trkpt>
      <trkpt lat="46.71784" lon="0.5365">
        <ele>59.436031341553</ele>
        <time>2020-06-19T11:03:06.050Z</time>
      </trkpt>
      <trkpt lat="46.71762" lon="0.53655">
        <ele>59.69998550415</ele>
        <time>2020-06-19T11:03:08.153Z</time>
      </trkpt>
      <trkpt lat="46.71754" lon="0.53706">
        <ele>60.456405639648</ele>
        <time>2020-06-19T11:03:10.262Z</time>
      </trkpt>
      <trkpt lat="46.7175" lon="0.5373">
        <ele>60.535507202148</ele>
        <time>2020-06-19T11:03:12.373Z</time>
      </trkpt>
      <trkpt lat="46.71729" lon="0.53732">
        <ele>60.727668762207</ele>
        <time>2020-06-19T11:03:14.488Z</time>
      </trkpt>
      <trkpt lat="46.71707" lon="0.53737">
        <ele>60.403720855713</ele>
        <time>2020-06-19T11:03:16.606Z</time>
      </trkpt>
      <trkpt lat="46.71701" lon="0.5374">
        <ele>60.295738220215</ele>
        <time>2020-06-19T11:03:18.725Z</time>
      </trkpt>
      <trkpt lat="46.71646" lon="0.53784">
        <ele>59.90824508667</ele>
        <time>2020-06-19T11:03:20.854Z</time>
      </trkpt>
      <trkpt lat="46.7159" lon="0.53824">
        <ele>59.280227661133</ele>
        <time>2020-06-19T11:03:22.993Z</time>
      </trkpt>
      <trkpt lat="46.71573" lon="0.53843">
        <ele>59.508190155029</ele>
        <time>2020-06-19T11:03:25.136Z</time>
      </trkpt>
      <trkpt lat="46.71566" lon="0.53867">
        <ele>59.744548797607</ele>
        <time>2020-06-19T11:03:27.282Z</time>
      </trkpt>
      <trkpt lat="46.71539" lon="0.53868">
        <ele>59.248920440674</ele>
        <time>2020-06-19T11:03:29.432Z</time>
      </trkpt>
      <trkpt lat="46.71512" lon="0.53878">
        <ele>58.601028442383</ele>
        <time>2020-06-19T11:03:31.586Z</time>
      </trkpt>
      <trkpt lat="46.71452" lon="0.53899">
        <ele>57.760711669922</ele>
        <time>2020-06-19T11:03:33.750Z</time>
      </trkpt>
      <trkpt lat="46.71368" lon="0.53923">
        <ele>57.936061859131</ele>
        <time>2020-06-19T11:03:35.928Z</time>
      </trkpt>
      <trkpt lat="46.71254" lon="0.53965">
        <ele>58</ele>
        <time>2020-06-19T11:03:38.125Z</time>
      </trkpt>
      <trkpt lat="46.71186" lon="0.53991">
        <ele>58</ele>
        <time>2020-06-19T11:03:40.333Z</time>
      </trkpt>
      <trkpt lat="46.7114" lon="0.5401">
        <ele>58.325485229492</ele>
        <time>2020-06-19T11:03:42.549Z</time>
      </trkpt>
      <trkpt lat="46.71086" lon="0.54039">
        <ele>58.950836181641</ele>
        <time>2020-06-19T11:03:44.774Z</time>
      </trkpt>
      <trkpt lat="46.71058" lon="0.54056">
        <ele>58.936233520508</ele>
        <time>2020-06-19T11:03:47.004Z</time>
      </trkpt>
      <trkpt lat="46.71009" lon="0.54083">
        <ele>58.612289428711</ele>
        <time>2020-06-19T11:03:49.242Z</time>
      </trkpt>
      <trkpt lat="46.70965" lon="0.54107">
        <ele>58.586730957031</ele>
        <time>2020-06-19T11:03:51.488Z</time>
      </trkpt>
      <trkpt lat="46.70914" lon="0.5413">
        <ele>58.922672271729</ele>
        <time>2020-06-19T11:03:53.742Z</time>
      </trkpt>
      <trkpt lat="46.7088" lon="0.54144">
        <ele>59</ele>
        <time>2020-06-19T11:03:56.002Z</time>
      </trkpt>
      <trkpt lat="46.70715" lon="0.54204">
        <ele>56.101360321045</ele>
        <time>2020-06-19T11:03:58.289Z</time>
      </trkpt>
      <trkpt lat="46.70626" lon="0.54246">
        <ele>57.32971572876</ele>
        <time>2020-06-19T11:04:00.591Z</time>
      </trkpt>
      <trkpt lat="46.70586" lon="0.54268">
        <ele>56.975685119629</ele>
        <time>2020-06-19T11:04:02.900Z</time>
      </trkpt>
      <trkpt lat="46.70564" lon="0.54282">
        <ele>56.449375152588</ele>
        <time>2020-06-19T11:04:05.213Z</time>
      </trkpt>
      <trkpt lat="46.70541" lon="0.54299">
        <ele>57.027912139893</ele>
        <time>2020-06-19T11:04:07.530Z</time>
      </trkpt>
      <trkpt lat="46.70521" lon="0.54315">
        <ele>57.930633544922</ele>
        <time>2020-06-19T11:04:09.851Z</time>
      </trkpt>
      <trkpt lat="46.7052" lon="0.54316">
        <ele>57.98775100708</ele>
        <time>2020-06-19T11:04:12.172Z</time>
      </trkpt>
      <trkpt lat="46.70518" lon="0.54317">
        <ele>58.063293457031</ele>
        <time>2020-06-19T11:04:14.493Z</time>
      </trkpt>
      <trkpt lat="46.70518" lon="0.54317">
        <ele>58.063629150391</ele>
        <time>2020-06-19T11:04:16.814Z</time>
      </trkpt>
      <trkpt lat="46.70518" lon="0.54317">
        <ele>58.064041137695</ele>
        <time>2020-06-19T11:04:19.135Z</time>
      </trkpt>
      <trkpt lat="46.70508" lon="0.54326">
        <ele>58.442253112793</ele>
        <time>2020-06-19T11:04:21.458Z</time>
      </trkpt>
      <trkpt lat="46.70487" lon="0.54345">
        <ele>58.466251373291</ele>
        <time>2020-06-19T11:04:23.785Z</time>
      </trkpt>
      <trkpt lat="46.70449" lon="0.54372">
        <ele>58</ele>
        <time>2020-06-19T11:04:26.119Z</time>
      </trkpt>
      <trkpt lat="46.70428" lon="0.54382">
        <ele>58</ele>
        <time>2020-06-19T11:04:28.456Z</time>
      </trkpt>
      <trkpt lat="46.7041" lon="0.54388">
        <ele>58</ele>
        <time>2020-06-19T11:04:30.796Z</time>
      </trkpt>
      <trkpt lat="46.70375" lon="0.54401">
        <ele>58.138137817383</ele>
        <time>2020-06-19T11:04:33.142Z</time>
      </trkpt>
      <trkpt lat="46.70337" lon="0.54418">
        <ele>57.981742858887</ele>
        <time>2020-06-19T11:04:35.494Z</time>
      </trkpt>
      <trkpt lat="46.7032" lon="0.54429">
        <ele>57.381839752197</ele>
        <time>2020-06-19T11:04:37.849Z</time>
      </trkpt>
      <trkpt lat="46.70305" lon="0.54433">
        <ele>57.0578956604</ele>
        <time>2020-06-19T11:04:40.207Z</time>
      </trkpt>
      <trkpt lat="46.70277" lon="0.5444">
        <ele>56.846019744873</ele>
        <time>2020-06-19T11:04:42.569Z</time>
      </trkpt>
      <trkpt lat="46.70252" lon="0.54444">
        <ele>57.09797668457</ele>
        <time>2020-06-19T11:04:44.935Z</time>
      </trkpt>
      <trkpt lat="46.70233" lon="0.54443">
        <ele>57.29301071167</ele>
        <time>2020-06-19T11:04:47.304Z</time>
      </trkpt>
      <trkpt lat="46.70219" lon="0.54443">
        <ele>57.29301071167</ele>
        <time>2020-06-19T11:04:49.676Z</time>
      </trkpt>
      <trkpt lat="46.70197" lon="0.54446">
        <ele>58.136379241943</ele>
        <time>2020-06-19T11:04:52.051Z</time>
      </trkpt>
      <trkpt lat="46.70171" lon="0.54455">
        <ele>59.708118438721</ele>
        <time>2020-06-19T11:04:54.431Z</time>
      </trkpt>
      <trkpt lat="46.70094" lon="0.54503">
        <ele>58.146259307861</ele>
        <time>2020-06-19T11:04:56.824Z</time>
      </trkpt>
      <trkpt lat="46.6997" lon="0.54582">
        <ele>58.424884796143</ele>
        <time>2020-06-19T11:04:59.239Z</time>
      </trkpt>
      <trkpt lat="46.69852" lon="0.54656">
        <ele>56.474868774414</ele>
        <time>2020-06-19T11:05:01.674Z</time>
      </trkpt>
      <trkpt lat="46.69803" lon="0.54682">
        <ele>56.629554748535</ele>
        <time>2020-06-19T11:05:04.118Z</time>
      </trkpt>
      <trkpt lat="46.6975" lon="0.54701">
        <ele>57.037487030029</ele>
        <time>2020-06-19T11:05:06.570Z</time>
      </trkpt>
      <trkpt lat="46.6966" lon="0.54738">
        <ele>56.8395652771</ele>
        <time>2020-06-19T11:05:09.037Z</time>
      </trkpt>
      <trkpt lat="46.69627" lon="0.54745">
        <ele>57.63143157959</ele>
        <time>2020-06-19T11:05:11.510Z</time>
      </trkpt>
      <trkpt lat="46.69608" lon="0.54745">
        <ele>58.087356567383</ele>
        <time>2020-06-19T11:05:13.986Z</time>
      </trkpt>
      <trkpt lat="46.69583" lon="0.54743">
        <ele>58.687255859375</ele>
        <time>2020-06-19T11:05:16.466Z</time>
      </trkpt>
      <trkpt lat="46.69491" lon="0.54729">
        <ele>59.86157989502</ele>
        <time>2020-06-19T11:05:18.960Z</time>
      </trkpt>
      <trkpt lat="46.69421" lon="0.54722">
        <ele>59.158264160156</ele>
        <time>2020-06-19T11:05:21.466Z</time>
      </trkpt>
      <trkpt lat="46.69401" lon="0.54723">
        <ele>59</ele>
        <time>2020-06-19T11:05:23.975Z</time>
      </trkpt>
      <trkpt lat="46.69367" lon="0.54725">
        <ele>59</ele>
        <time>2020-06-19T11:05:26.489Z</time>
      </trkpt>
      <trkpt lat="46.69334" lon="0.54724">
        <ele>59</ele>
        <time>2020-06-19T11:05:29.009Z</time>
      </trkpt>
      <trkpt lat="46.69321" lon="0.54719">
        <ele>59.005542755127</ele>
        <time>2020-06-19T11:05:31.531Z</time>
      </trkpt>
      <trkpt lat="46.69306" lon="0.54705">
        <ele>59</ele>
        <time>2020-06-19T11:05:34.056Z</time>
      </trkpt>
      <trkpt lat="46.69287" lon="0.54673">
        <ele>59</ele>
        <time>2020-06-19T11:05:36.585Z</time>
      </trkpt>
      <trkpt lat="46.6926" lon="0.54621">
        <ele>60.101554870605</ele>
        <time>2020-06-19T11:05:39.121Z</time>
      </trkpt>
      <trkpt lat="46.6925" lon="0.54606">
        <ele>61.361347198486</ele>
        <time>2020-06-19T11:05:41.660Z</time>
      </trkpt>
      <trkpt lat="46.6924" lon="0.54596">
        <ele>62.201206207275</ele>
        <time>2020-06-19T11:05:44.201Z</time>
      </trkpt>
      <trkpt lat="46.69225" lon="0.54588">
        <ele>62.456356048584</ele>
        <time>2020-06-19T11:05:46.744Z</time>
      </trkpt>
      <trkpt lat="46.69219" lon="0.54587">
        <ele>62.324378967285</ele>
        <time>2020-06-19T11:05:49.288Z</time>
      </trkpt>
      <trkpt lat="46.69172" lon="0.54581">
        <ele>61.686660766602</ele>
        <time>2020-06-19T11:05:51.840Z</time>
      </trkpt>
      <trkpt lat="46.69161" lon="0.54597">
        <ele>61.242736816406</ele>
        <time>2020-06-19T11:05:54.394Z</time>
      </trkpt>
      <trkpt lat="46.69133" lon="0.54647">
        <ele>60.88277053833</ele>
        <time>2020-06-19T11:05:56.955Z</time>
      </trkpt>
      <trkpt lat="46.69114" lon="0.54676">
        <ele>61.914596557617</ele>
        <time>2020-06-19T11:05:59.521Z</time>
      </trkpt>
      <trkpt lat="46.69107" lon="0.54683">
        <ele>61.968166351318</ele>
        <time>2020-06-19T11:06:02.088Z</time>
      </trkpt>
      <trkpt lat="46.69067" lon="0.54708">
        <ele>62.459506988525</ele>
        <time>2020-06-19T11:06:04.662Z</time>
      </trkpt>
      <trkpt lat="46.69067" lon="0.54716">
        <ele>62.26127243042</ele>
        <time>2020-06-19T11:06:07.237Z</time>
      </trkpt>
      <trkpt lat="46.69063" lon="0.54819">
        <ele>59.946937561035</ele>
        <time>2020-06-19T11:06:09.823Z</time>
      </trkpt>
      <trkpt lat="46.69059" lon="0.54872">
        <ele>59.407028198242</ele>
        <time>2020-06-19T11:06:12.415Z</time>
      </trkpt>
      <trkpt lat="46.69055" lon="0.54896">
        <ele>58.894401550293</ele>
        <time>2020-06-19T11:06:15.010Z</time>
      </trkpt>
      <trkpt lat="46.69045" lon="0.54934">
        <ele>58.102535247803</ele>
        <time>2020-06-19T11:06:17.609Z</time>
      </trkpt>
      <trkpt lat="46.69025" lon="0.54984">
        <ele>58.077026367188</ele>
        <time>2020-06-19T11:06:20.215Z</time>
      </trkpt>
      <trkpt lat="46.68983" lon="0.55077">
        <ele>58.457412719727</ele>
        <time>2020-06-19T11:06:22.833Z</time>
      </trkpt>
      <trkpt lat="46.68969" lon="0.55106">
        <ele>58.097061157227</ele>
        <time>2020-06-19T11:06:25.455Z</time>
      </trkpt>
      <trkpt lat="46.68967" lon="0.5511">
        <ele>58.048419952393</ele>
        <time>2020-06-19T11:06:28.078Z</time>
      </trkpt>
      <trkpt lat="46.68967" lon="0.5511">
        <ele>58.048698425293</ele>
        <time>2020-06-19T11:06:30.701Z</time>
      </trkpt>
      <trkpt lat="46.68967" lon="0.5511">
        <ele>58.04857635498</ele>
        <time>2020-06-19T11:06:33.324Z</time>
      </trkpt>
      <trkpt lat="46.6896" lon="0.55124">
        <ele>58.077518463135</ele>
        <time>2020-06-19T11:06:35.948Z</time>
      </trkpt>
      <trkpt lat="46.6894" lon="0.55157">
        <ele>58.675029754639</ele>
        <time>2020-06-19T11:06:38.577Z</time>
      </trkpt>
      <trkpt lat="46.68903" lon="0.55208">
        <ele>57.343616485596</ele>
        <time>2020-06-19T11:06:41.214Z</time>
      </trkpt>
      <trkpt lat="46.68809" lon="0.55341">
        <ele>58.351112365723</ele>
        <time>2020-06-19T11:06:43.872Z</time>
      </trkpt>
      <trkpt lat="46.68782" lon="0.55376">
        <ele>58.091945648193</ele>
        <time>2020-06-19T11:06:46.536Z</time>
      </trkpt>
      <trkpt lat="46.68722" lon="0.55446">
        <ele>57.914890289307</ele>
        <time>2020-06-19T11:06:49.213Z</time>
      </trkpt>
      <trkpt lat="46.68662" lon="0.55516">
        <ele>57.631675720215</ele>
        <time>2020-06-19T11:06:51.902Z</time>
      </trkpt>
      <trkpt lat="46.68659" lon="0.55519">
        <ele>57.531314849854</ele>
        <time>2020-06-19T11:06:54.591Z</time>
      </trkpt>
      <trkpt lat="46.68659" lon="0.55519">
        <ele>57.531883239746</ele>
        <time>2020-06-19T11:06:57.280Z</time>
      </trkpt>
      <trkpt lat="46.68659" lon="0.55519">
        <ele>57.531635284424</ele>
        <time>2020-06-19T11:06:59.969Z</time>
      </trkpt>
      <trkpt lat="46.6865" lon="0.5553">
        <ele>57.251182556152</ele>
        <time>2020-06-19T11:07:02.660Z</time>
      </trkpt>
      <trkpt lat="46.68627" lon="0.55557">
        <ele>57.291053771973</ele>
        <time>2020-06-19T11:07:05.356Z</time>
      </trkpt>
      <trkpt lat="46.68597" lon="0.55596">
        <ele>58.519714355469</ele>
        <time>2020-06-19T11:07:08.058Z</time>
      </trkpt>
      <trkpt lat="46.68586" lon="0.55612">
        <ele>58.31575012207</ele>
        <time>2020-06-19T11:07:10.763Z</time>
      </trkpt>
      <trkpt lat="46.68562" lon="0.55654">
        <ele>58.14298248291</ele>
        <time>2020-06-19T11:07:13.474Z</time>
      </trkpt>
      <trkpt lat="46.6854" lon="0.55689">
        <ele>58.298957824707</ele>
        <time>2020-06-19T11:07:16.190Z</time>
      </trkpt>
      <trkpt lat="46.68524" lon="0.55708">
        <ele>58.334949493408</ele>
        <time>2020-06-19T11:07:18.910Z</time>
      </trkpt>
      <trkpt lat="46.68492" lon="0.55739">
        <ele>58.256401062012</ele>
        <time>2020-06-19T11:07:21.636Z</time>
      </trkpt>
      <trkpt lat="46.68465" lon="0.55763">
        <ele>58.54434967041</ele>
        <time>2020-06-19T11:07:24.367Z</time>
      </trkpt>
      <trkpt lat="46.68453" lon="0.55776">
        <ele>58.700325012207</ele>
        <time>2020-06-19T11:07:27.100Z</time>
      </trkpt>
      <trkpt lat="46.68447" lon="0.55792">
        <ele>58.892292022705</ele>
        <time>2020-06-19T11:07:29.835Z</time>
      </trkpt>
      <trkpt lat="46.68444" lon="0.55813">
        <ele>58.8557472229</ele>
        <time>2020-06-19T11:07:32.572Z</time>
      </trkpt>
      <trkpt lat="46.6845" lon="0.55862">
        <ele>58.606880187988</ele>
        <time>2020-06-19T11:07:35.315Z</time>
      </trkpt>
      <trkpt lat="46.68451" lon="0.55908">
        <ele>59.134792327881</ele>
        <time>2020-06-19T11:07:38.063Z</time>
      </trkpt>
      <trkpt lat="46.68443" lon="0.55989">
        <ele>59.521347045898</ele>
        <time>2020-06-19T11:07:40.820Z</time>
      </trkpt>
      <trkpt lat="46.68432" lon="0.56052">
        <ele>59.665100097656</ele>
        <time>2020-06-19T11:07:43.584Z</time>
      </trkpt>
      <trkpt lat="46.68395" lon="0.56219">
        <ele>59.90274810791</ele>
        <time>2020-06-19T11:07:46.368Z</time>
      </trkpt>
      <trkpt lat="46.68354" lon="0.56409">
        <ele>58.820709228516</ele>
        <time>2020-06-19T11:07:49.173Z</time>
      </trkpt>
      <trkpt lat="46.68333" lon="0.56503">
        <ele>58.418258666992</ele>
        <time>2020-06-19T11:07:51.989Z</time>
      </trkpt>
      <trkpt lat="46.68318" lon="0.56579">
        <ele>57.644180297852</ele>
        <time>2020-06-19T11:07:54.814Z</time>
      </trkpt>
      <trkpt lat="46.68314" lon="0.56649">
        <ele>57.069091796875</ele>
        <time>2020-06-19T11:07:57.647Z</time>
      </trkpt>
      <trkpt lat="46.68314" lon="0.56674">
        <ele>57.069091796875</ele>
        <time>2020-06-19T11:08:00.483Z</time>
      </trkpt>
      <trkpt lat="46.68312" lon="0.56698">
        <ele>57.093086242676</ele>
        <time>2020-06-19T11:08:03.321Z</time>
      </trkpt>
      <trkpt lat="46.68305" lon="0.56718">
        <ele>57.357181549072</ele>
        <time>2020-06-19T11:08:06.162Z</time>
      </trkpt>
      <trkpt lat="46.68305" lon="0.56719">
        <ele>57.368583679199</ele>
        <time>2020-06-19T11:08:09.003Z</time>
      </trkpt>
      <trkpt lat="46.68303" lon="0.56723">
        <ele>57.450496673584</ele>
        <time>2020-06-19T11:08:11.844Z</time>
      </trkpt>
      <trkpt lat="46.68303" lon="0.56723">
        <ele>57.450729370117</ele>
        <time>2020-06-19T11:08:14.685Z</time>
      </trkpt>
      <trkpt lat="46.68303" lon="0.56723">
        <ele>57.450897216797</ele>
        <time>2020-06-19T11:08:17.526Z</time>
      </trkpt>
      <trkpt lat="46.68299" lon="0.56732">
        <ele>57.668537139893</ele>
        <time>2020-06-19T11:08:20.369Z</time>
      </trkpt>
      <trkpt lat="46.68295" lon="0.56738">
        <ele>57.836505889893</ele>
        <time>2020-06-19T11:08:23.212Z</time>
      </trkpt>
      <trkpt lat="46.68273" lon="0.56776">
        <ele>58.820343017578</ele>
        <time>2020-06-19T11:08:26.061Z</time>
      </trkpt>
      <trkpt lat="46.68237" lon="0.56835">
        <ele>59.600856781006</ele>
        <time>2020-06-19T11:08:28.919Z</time>
      </trkpt>
      <trkpt lat="46.68228" lon="0.56851">
        <ele>59.502742767334</ele>
        <time>2020-06-19T11:08:31.779Z</time>
      </trkpt>
      <trkpt lat="46.68223" lon="0.5686">
        <ele>59.464168548584</ele>
        <time>2020-06-19T11:08:34.640Z</time>
      </trkpt>
      <trkpt lat="46.6822" lon="0.56863">
        <ele>59.447933197021</ele>
        <time>2020-06-19T11:08:37.502Z</time>
      </trkpt>
      <trkpt lat="46.6822" lon="0.56863">
        <ele>59.447906494141</ele>
        <time>2020-06-19T11:08:40.364Z</time>
      </trkpt>
      <trkpt lat="46.6822" lon="0.56863">
        <ele>59.447895050049</ele>
        <time>2020-06-19T11:08:43.226Z</time>
      </trkpt>
      <trkpt lat="46.68211" lon="0.56878">
        <ele>59.609771728516</ele>
        <time>2020-06-19T11:08:46.090Z</time>
      </trkpt>
      <trkpt lat="46.68207" lon="0.56891">
        <ele>59.861946105957</ele>
        <time>2020-06-19T11:08:48.955Z</time>
      </trkpt>
      <trkpt lat="46.68201" lon="0.56932">
        <ele>60.989757537842</ele>
        <time>2020-06-19T11:08:51.825Z</time>
      </trkpt>
      <trkpt lat="46.682" lon="0.56959">
        <ele>61.330821990967</ele>
        <time>2020-06-19T11:08:54.698Z</time>
      </trkpt>
      <trkpt lat="46.68142" lon="0.56975">
        <ele>61.867252349854</ele>
        <time>2020-06-19T11:08:57.581Z</time>
      </trkpt>
      <trkpt lat="46.68141" lon="0.57058">
        <ele>61.981220245361</ele>
        <time>2020-06-19T11:09:00.473Z</time>
      </trkpt>
      <trkpt lat="46.68141" lon="0.57092">
        <ele>61.16535949707</ele>
        <time>2020-06-19T11:09:03.368Z</time>
      </trkpt>
      <trkpt lat="46.68131" lon="0.5709">
        <ele>61.33332824707</ele>
        <time>2020-06-19T11:09:06.265Z</time>
      </trkpt>
      <trkpt lat="46.68089" lon="0.57068">
        <ele>62.365158081055</ele>
        <time>2020-06-19T11:09:09.169Z</time>
      </trkpt>
      <trkpt lat="46.68058" lon="0.57057">
        <ele>62.860473632812</ele>
        <time>2020-06-19T11:09:12.078Z</time>
      </trkpt>
      <trkpt lat="46.68049" lon="0.57053">
        <ele>62.956455230713</ele>
        <time>2020-06-19T11:09:14.989Z</time>
      </trkpt>
      <trkpt lat="46.68022" lon="0.57046">
        <ele>62.813358306885</ele>
        <time>2020-06-19T11:09:17.904Z</time>
      </trkpt>
      <trkpt lat="46.68011" lon="0.57045">
        <ele>62.777362823486</ele>
        <time>2020-06-19T11:09:20.821Z</time>
      </trkpt>
      <trkpt lat="46.68" lon="0.57048">
        <ele>62.885345458984</ele>
        <time>2020-06-19T11:09:23.740Z</time>
      </trkpt>
      <trkpt lat="46.67988" lon="0.57053">
        <ele>62.958667755127</ele>
        <time>2020-06-19T11:09:26.661Z</time>
      </trkpt>
      <trkpt lat="46.67973" lon="0.5706">
        <ele>62.573425292969</ele>
        <time>2020-06-19T11:09:29.584Z</time>
      </trkpt>
      <trkpt lat="46.67953" lon="0.57074">
        <ele>61.925533294678</ele>
        <time>2020-06-19T11:09:32.511Z</time>
      </trkpt>
      <trkpt lat="46.67859" lon="0.57127">
        <ele>60.437805175781</ele>
        <time>2020-06-19T11:09:35.454Z</time>
      </trkpt>
      <trkpt lat="46.67846" lon="0.57135">
        <ele>60.689319610596</ele>
        <time>2020-06-19T11:09:38.399Z</time>
      </trkpt>
      <trkpt lat="46.67846" lon="0.57135">
        <ele>60.689319610596</ele>
        <time>2020-06-19T11:09:41.344Z</time>
      </trkpt>
      <trkpt lat="46.67846" lon="0.57135">
        <ele>60.678546905518</ele>
        <time>2020-06-19T11:09:44.289Z</time>
      </trkpt>
      <trkpt lat="46.67784" lon="0.57168">
        <ele>60.170425415039</ele>
        <time>2020-06-19T11:09:47.245Z</time>
      </trkpt>
      <trkpt lat="46.67766" lon="0.57177">
        <ele>60.307037353516</ele>
        <time>2020-06-19T11:09:50.204Z</time>
      </trkpt>
      <trkpt lat="46.67723" lon="0.57201">
        <ele>61.594951629639</ele>
        <time>2020-06-19T11:09:53.170Z</time>
      </trkpt>
      <trkpt lat="46.67645" lon="0.57242">
        <ele>60.227573394775</ele>
        <time>2020-06-19T11:09:56.150Z</time>
      </trkpt>
      <trkpt lat="46.67572" lon="0.57283">
        <ele>60.380592346191</ele>
        <time>2020-06-19T11:09:59.142Z</time>
      </trkpt>
      <trkpt lat="46.67484" lon="0.57332">
        <ele>60.261573791504</ele>
        <time>2020-06-19T11:10:02.149Z</time>
      </trkpt>
      <trkpt lat="46.67454" lon="0.57344">
        <ele>59.973621368408</ele>
        <time>2020-06-19T11:10:05.161Z</time>
      </trkpt>
      <trkpt lat="46.67426" lon="0.57353">
        <ele>59.41316986084</ele>
        <time>2020-06-19T11:10:08.178Z</time>
      </trkpt>
      <trkpt lat="46.67373" lon="0.57367">
        <ele>58.50756072998</ele>
        <time>2020-06-19T11:10:11.203Z</time>
      </trkpt>
      <trkpt lat="46.6736" lon="0.57369">
        <ele>58.843505859375</ele>
        <time>2020-06-19T11:10:14.231Z</time>
      </trkpt>
      <trkpt lat="46.67308" lon="0.57387">
        <ele>59.941791534424</ele>
        <time>2020-06-19T11:10:17.267Z</time>
      </trkpt>
      <trkpt lat="46.67248" lon="0.57404">
        <ele>59.53385925293</ele>
        <time>2020-06-19T11:10:20.313Z</time>
      </trkpt>
      <trkpt lat="46.67159" lon="0.57431">
        <ele>60.33736038208</ele>
        <time>2020-06-19T11:10:23.373Z</time>
      </trkpt>
      <trkpt lat="46.67123" lon="0.5744">
        <ele>60.282581329346</ele>
        <time>2020-06-19T11:10:26.439Z</time>
      </trkpt>
      <trkpt lat="46.67108" lon="0.57441">
        <ele>59.92264175415</ele>
        <time>2020-06-19T11:10:29.508Z</time>
      </trkpt>
      <trkpt lat="46.67096" lon="0.57438">
        <ele>59.634689331055</ele>
        <time>2020-06-19T11:10:32.579Z</time>
      </trkpt>
      <trkpt lat="46.67084" lon="0.57433">
        <ele>59.346736907959</ele>
        <time>2020-06-19T11:10:35.652Z</time>
      </trkpt>
      <trkpt lat="46.6706" lon="0.57416">
        <ele>59.114582061768</ele>
        <time>2020-06-19T11:10:38.729Z</time>
      </trkpt>
      <trkpt lat="46.66896" lon="0.57242">
        <ele>61.124881744385</ele>
        <time>2020-06-19T11:10:41.838Z</time>
      </trkpt>
      <trkpt lat="46.66797" lon="0.57149">
        <ele>59.286304473877</ele>
        <time>2020-06-19T11:10:44.966Z</time>
      </trkpt>
      <trkpt lat="46.66763" lon="0.57118">
        <ele>58.842380523682</ele>
        <time>2020-06-19T11:10:48.101Z</time>
      </trkpt>
      <trkpt lat="46.66707" lon="0.57063">
        <ele>58.858249664307</ele>
        <time>2020-06-19T11:10:51.247Z</time>
      </trkpt>
      <trkpt lat="46.66666" lon="0.57028">
        <ele>60.112712860107</ele>
        <time>2020-06-19T11:10:54.400Z</time>
      </trkpt>
      <trkpt lat="46.66645" lon="0.57017">
        <ele>61.015640258789</ele>
        <time>2020-06-19T11:10:57.557Z</time>
      </trkpt>
      <trkpt lat="46.66606" lon="0.57006">
        <ele>63.337074279785</ele>
        <time>2020-06-19T11:11:00.720Z</time>
      </trkpt>
      <trkpt lat="46.66536" lon="0.56986">
        <ele>66.059829711914</ele>
        <time>2020-06-19T11:11:03.895Z</time>
      </trkpt>
      <trkpt lat="46.6643" lon="0.5696">
        <ele>72.7578125</ele>
        <time>2020-06-19T11:11:07.087Z</time>
      </trkpt>
      <trkpt lat="46.6639" lon="0.56949">
        <ele>75.394645690918</ele>
        <time>2020-06-19T11:11:10.285Z</time>
      </trkpt>
      <trkpt lat="46.6637" lon="0.56945">
        <ele>76.572814941406</ele>
        <time>2020-06-19T11:11:13.486Z</time>
      </trkpt>
      <trkpt lat="46.66348" lon="0.56945">
        <ele>77.628639221191</ele>
        <time>2020-06-19T11:11:16.691Z</time>
      </trkpt>
      <trkpt lat="46.6633" lon="0.56946">
        <ele>78.492492675781</ele>
        <time>2020-06-19T11:11:19.899Z</time>
      </trkpt>
      <trkpt lat="46.66275" lon="0.56956">
        <ele>81.025146484375</ele>
        <time>2020-06-19T11:11:23.116Z</time>
      </trkpt>
      <trkpt lat="46.66241" lon="0.56961">
        <ele>82.068969726562</ele>
        <time>2020-06-19T11:11:26.338Z</time>
      </trkpt>
      <trkpt lat="46.66203" lon="0.56964">
        <ele>83.236656188965</ele>
        <time>2020-06-19T11:11:29.566Z</time>
      </trkpt>
      <trkpt lat="46.66183" lon="0.56962">
        <ele>83.980537414551</ele>
        <time>2020-06-19T11:11:32.798Z</time>
      </trkpt>
      <trkpt lat="46.66165" lon="0.56956">
        <ele>84.700416564941</ele>
        <time>2020-06-19T11:11:36.032Z</time>
      </trkpt>
      <trkpt lat="46.66129" lon="0.56938">
        <ele>85.642723083496</ele>
        <time>2020-06-19T11:11:39.273Z</time>
      </trkpt>
      <trkpt lat="46.66099" lon="0.5692">
        <ele>86.218566894531</ele>
        <time>2020-06-19T11:11:42.519Z</time>
      </trkpt>
      <trkpt lat="46.66098" lon="0.5692">
        <ele>86.230621337891</ele>
        <time>2020-06-19T11:11:45.765Z</time>
      </trkpt>
      <trkpt lat="46.66045" lon="0.56892">
        <ele>86.61735534668</ele>
        <time>2020-06-19T11:11:49.020Z</time>
      </trkpt>
      <trkpt lat="46.65999" lon="0.56866">
        <ele>86.599250793457</ele>
        <time>2020-06-19T11:11:52.283Z</time>
      </trkpt>
      <trkpt lat="46.65986" lon="0.56889">
        <ele>86.000434875488</ele>
        <time>2020-06-19T11:11:55.549Z</time>
      </trkpt>
      <trkpt lat="46.65964" lon="0.56933">
        <ele>86.264389038086</ele>
        <time>2020-06-19T11:11:58.821Z</time>
      </trkpt>
      <trkpt lat="46.65958" lon="0.56943">
        <ele>86.298011779785</ele>
        <time>2020-06-19T11:12:02.095Z</time>
      </trkpt>
      <trkpt lat="46.65913" lon="0.56998">
        <ele>85.51441192627</ele>
        <time>2020-06-19T11:12:05.378Z</time>
      </trkpt>
      <trkpt lat="46.65864" lon="0.57069">
        <ele>84.57251739502</ele>
        <time>2020-06-19T11:12:08.672Z</time>
      </trkpt>
      <trkpt lat="46.65836" lon="0.5711">
        <ele>84.09447479248</ele>
        <time>2020-06-19T11:12:11.972Z</time>
      </trkpt>
      <trkpt lat="46.65823" lon="0.57135">
        <ele>83.944892883301</ele>
        <time>2020-06-19T11:12:15.276Z</time>
      </trkpt>
      <trkpt lat="46.65804" lon="0.57175">
        <ele>83.882614135742</ele>
        <time>2020-06-19T11:12:18.585Z</time>
      </trkpt>
      <trkpt lat="46.65786" lon="0.5721">
        <ele>83.599723815918</ele>
        <time>2020-06-19T11:12:21.899Z</time>
      </trkpt>
      <trkpt lat="46.65785" lon="0.57211">
        <ele>83.577125549316</ele>
        <time>2020-06-19T11:12:25.213Z</time>
      </trkpt>
      <trkpt lat="46.65773" lon="0.57228">
        <ele>83.070320129395</ele>
        <time>2020-06-19T11:12:28.530Z</time>
      </trkpt>
      <trkpt lat="46.65751" lon="0.57253">
        <ele>82.617156982422</ele>
        <time>2020-06-19T11:12:31.851Z</time>
      </trkpt>
      <trkpt lat="46.65734" lon="0.57267">
        <ele>82.869178771973</ele>
        <time>2020-06-19T11:12:35.176Z</time>
      </trkpt>
      <trkpt lat="46.65714" lon="0.57282">
        <ele>83.055564880371</ele>
        <time>2020-06-19T11:12:38.504Z</time>
      </trkpt>
      <trkpt lat="46.65677" lon="0.57313">
        <ele>84.972526550293</ele>
        <time>2020-06-19T11:12:41.839Z</time>
      </trkpt>
      <trkpt lat="46.65653" lon="0.57331">
        <ele>85.634323120117</ele>
        <time>2020-06-19T11:12:45.178Z</time>
      </trkpt>
      <trkpt lat="46.65625" lon="0.5735">
        <ele>86.078247070312</ele>
        <time>2020-06-19T11:12:48.522Z</time>
      </trkpt>
      <trkpt lat="46.65601" lon="0.57362">
        <ele>86.859001159668</ele>
        <time>2020-06-19T11:12:51.870Z</time>
      </trkpt>
      <trkpt lat="46.6557" lon="0.57374">
        <ele>87.974815368652</ele>
        <time>2020-06-19T11:12:55.223Z</time>
      </trkpt>
      <trkpt lat="46.65587" lon="0.57422">
        <ele>86.46484375</ele>
        <time>2020-06-19T11:12:58.582Z</time>
      </trkpt>
      <trkpt lat="46.65621" lon="0.57536">
        <ele>81.295677185059</ele>
        <time>2020-06-19T11:13:01.955Z</time>
      </trkpt>
      <trkpt lat="46.65623" lon="0.57564">
        <ele>79.133712768555</ele>
        <time>2020-06-19T11:13:05.331Z</time>
      </trkpt>
      <trkpt lat="46.65616" lon="0.57593">
        <ele>76.434158325195</ele>
        <time>2020-06-19T11:13:08.711Z</time>
      </trkpt>
      <trkpt lat="46.65606" lon="0.57611">
        <ele>76.208084106445</ele>
        <time>2020-06-19T11:13:12.093Z</time>
      </trkpt>
      <trkpt lat="46.65592" lon="0.57631">
        <ele>76.496040344238</ele>
        <time>2020-06-19T11:13:15.478Z</time>
      </trkpt>
      <trkpt lat="46.65584" lon="0.57645">
        <ele>75.695915222168</ele>
        <time>2020-06-19T11:13:18.865Z</time>
      </trkpt>
      <trkpt lat="46.6559" lon="0.57663">
        <ele>73.19654083252</ele>
        <time>2020-06-19T11:13:22.254Z</time>
      </trkpt>
      <trkpt lat="46.65597" lon="0.57693">
        <ele>69.369178771973</ele>
        <time>2020-06-19T11:13:25.647Z</time>
      </trkpt>
      <trkpt lat="46.65593" lon="0.5771">
        <ele>67.869430541992</ele>
        <time>2020-06-19T11:13:29.042Z</time>
      </trkpt>
      <trkpt lat="46.65575" lon="0.57736">
        <ele>66.482765197754</ele>
        <time>2020-06-19T11:13:32.441Z</time>
      </trkpt>
      <trkpt lat="46.65549" lon="0.57767">
        <ele>65.450958251953</ele>
        <time>2020-06-19T11:13:35.845Z</time>
      </trkpt>
      <trkpt lat="46.65518" lon="0.57801">
        <ele>61.756309509277</ele>
        <time>2020-06-19T11:13:39.256Z</time>
      </trkpt>
      <trkpt lat="46.65507" lon="0.57813">
        <ele>62.064113616943</ele>
        <time>2020-06-19T11:13:42.669Z</time>
      </trkpt>
      <trkpt lat="46.65497" lon="0.57819">
        <ele>62.32893371582</ele>
        <time>2020-06-19T11:13:46.084Z</time>
      </trkpt>
      <trkpt lat="46.65474" lon="0.5783">
        <ele>63.225399017334</ele>
        <time>2020-06-19T11:13:49.502Z</time>
      </trkpt>
      <trkpt lat="46.65436" lon="0.57845">
        <ele>65.137184143066</ele>
        <time>2020-06-19T11:13:52.927Z</time>
      </trkpt>
      <trkpt lat="46.65408" lon="0.57857">
        <ele>62.977542877197</ele>
        <time>2020-06-19T11:13:56.356Z</time>
      </trkpt>
      <trkpt lat="46.65354" lon="0.57885">
        <ele>62.653053283691</ele>
        <time>2020-06-19T11:13:59.795Z</time>
      </trkpt>
      <trkpt lat="46.6528" lon="0.57923">
        <ele>67.490013122559</ele>
        <time>2020-06-19T11:14:03.246Z</time>
      </trkpt>
      <trkpt lat="46.65224" lon="0.57953">
        <ele>67.198219299316</ele>
        <time>2020-06-19T11:14:06.707Z</time>
      </trkpt>
      <trkpt lat="46.65191" lon="0.57975">
        <ele>66.723274230957</ele>
        <time>2020-06-19T11:14:10.174Z</time>
      </trkpt>
      <trkpt lat="46.65157" lon="0.57993">
        <ele>67.488304138184</ele>
        <time>2020-06-19T11:14:13.646Z</time>
      </trkpt>
      <trkpt lat="46.65089" lon="0.58027">
        <ele>67.547096252441</ele>
        <time>2020-06-19T11:14:17.130Z</time>
      </trkpt>
      <trkpt lat="46.65068" lon="0.58038">
        <ele>65.971168518066</ele>
        <time>2020-06-19T11:14:20.617Z</time>
      </trkpt>
      <trkpt lat="46.65068" lon="0.58038">
        <ele>65.956329345703</ele>
        <time>2020-06-19T11:14:24.104Z</time>
      </trkpt>
      <trkpt lat="46.65039" lon="0.58055">
        <ele>64.550102233887</ele>
        <time>2020-06-19T11:14:27.596Z</time>
      </trkpt>
      <trkpt lat="46.65024" lon="0.58071">
        <ele>64.298141479492</ele>
        <time>2020-06-19T11:14:31.091Z</time>
      </trkpt>
      <trkpt lat="46.65001" lon="0.58086">
        <ele>63.895580291748</ele>
        <time>2020-06-19T11:14:34.590Z</time>
      </trkpt>
      <trkpt lat="46.6497" lon="0.58106">
        <ele>64.383857727051</ele>
        <time>2020-06-19T11:14:38.095Z</time>
      </trkpt>
      <trkpt lat="46.64936" lon="0.58123">
        <ele>63.321632385254</ele>
        <time>2020-06-19T11:14:41.606Z</time>
      </trkpt>
      <trkpt lat="46.64925" lon="0.5813">
        <ele>62.20581817627</ele>
        <time>2020-06-19T11:14:45.119Z</time>
      </trkpt>
      <trkpt lat="46.64892" lon="0.58147">
        <ele>62.5458984375</ele>
        <time>2020-06-19T11:14:48.637Z</time>
      </trkpt>
      <trkpt lat="46.64857" lon="0.58163">
        <ele>65.557395935059</ele>
        <time>2020-06-19T11:14:52.161Z</time>
      </trkpt>
      <trkpt lat="46.64806" lon="0.58189">
        <ele>63.775913238525</ele>
        <time>2020-06-19T11:14:55.694Z</time>
      </trkpt>
      <trkpt lat="46.64777" lon="0.58202">
        <ele>64.827102661133</ele>
        <time>2020-06-19T11:14:59.232Z</time>
      </trkpt>
      <trkpt lat="46.64736" lon="0.58217">
        <ele>66.194877624512</ele>
        <time>2020-06-19T11:15:02.776Z</time>
      </trkpt>
      <trkpt lat="46.64685" lon="0.58238">
        <ele>70.42253112793</ele>
        <time>2020-06-19T11:15:06.329Z</time>
      </trkpt>
      <trkpt lat="46.64608" lon="0.58262">
        <ele>67.62336730957</ele>
        <time>2020-06-19T11:15:09.894Z</time>
      </trkpt>
      <trkpt lat="46.64569" lon="0.58283">
        <ele>64.307113647461</ele>
        <time>2020-06-19T11:15:13.466Z</time>
      </trkpt>
      <trkpt lat="46.64562" lon="0.58286">
        <ele>63.599231719971</ele>
        <time>2020-06-19T11:15:17.039Z</time>
      </trkpt>
      <trkpt lat="46.64545" lon="0.58289">
        <ele>63.355663299561</ele>
        <time>2020-06-19T11:15:20.615Z</time>
      </trkpt>
      <trkpt lat="46.64536" lon="0.58288">
        <ele>63.799587249756</ele>
        <time>2020-06-19T11:15:24.192Z</time>
      </trkpt>
      <trkpt lat="46.64528" lon="0.58284">
        <ele>64.567459106445</ele>
        <time>2020-06-19T11:15:27.771Z</time>
      </trkpt>
      <trkpt lat="46.64526" lon="0.5828">
        <ele>65.119369506836</ele>
        <time>2020-06-19T11:15:31.350Z</time>
      </trkpt>
      <trkpt lat="46.64525" lon="0.58262">
        <ele>67.315002441406</ele>
        <time>2020-06-19T11:15:34.931Z</time>
      </trkpt>
      <trkpt lat="46.64529" lon="0.58167">
        <ele>80.591270446777</ele>
        <time>2020-06-19T11:15:38.523Z</time>
      </trkpt>
      <trkpt lat="46.64528" lon="0.58141">
        <ele>84.562606811523</ele>
        <time>2020-06-19T11:15:42.118Z</time>
      </trkpt>
      <trkpt lat="46.64523" lon="0.58127">
        <ele>85.217803955078</ele>
        <time>2020-06-19T11:15:45.714Z</time>
      </trkpt>
      <trkpt lat="46.64516" lon="0.58118">
        <ele>84.737884521484</ele>
        <time>2020-06-19T11:15:49.312Z</time>
      </trkpt>
      <trkpt lat="46.64512" lon="0.58101">
        <ele>84.605903625488</ele>
        <time>2020-06-19T11:15:52.912Z</time>
      </trkpt>
      <trkpt lat="46.64512" lon="0.58098">
        <ele>84.641899108887</ele>
        <time>2020-06-19T11:15:56.512Z</time>
      </trkpt>
      <trkpt lat="46.64512" lon="0.58097">
        <ele>84.637603759766</ele>
        <time>2020-06-19T11:16:00.112Z</time>
      </trkpt>
      <trkpt lat="46.64502" lon="0.58043">
        <ele>85.528915405273</ele>
        <time>2020-06-19T11:16:03.718Z</time>
      </trkpt>
      <trkpt lat="46.645" lon="0.58023">
        <ele>85.21696472168</ele>
        <time>2020-06-19T11:16:07.327Z</time>
      </trkpt>
      <trkpt lat="46.6449" lon="0.58024">
        <ele>83.6572265625</ele>
        <time>2020-06-19T11:16:10.937Z</time>
      </trkpt>
      <trkpt lat="46.64485" lon="0.58024">
        <ele>83.037734985352</ele>
        <time>2020-06-19T11:16:14.548Z</time>
      </trkpt>
      <trkpt lat="46.64471" lon="0.58024">
        <ele>83.709625244141</ele>
        <time>2020-06-19T11:16:18.161Z</time>
      </trkpt>
      <trkpt lat="46.64459" lon="0.5802">
        <ele>84.285530090332</ele>
        <time>2020-06-19T11:16:21.776Z</time>
      </trkpt>
      <trkpt lat="46.64406" lon="0.57982">
        <ele>87.329864501953</ele>
        <time>2020-06-19T11:16:25.401Z</time>
      </trkpt>
      <trkpt lat="46.64388" lon="0.57969">
        <ele>88.087203979492</ele>
        <time>2020-06-19T11:16:29.029Z</time>
      </trkpt>
      <trkpt lat="46.64374" lon="0.57957">
        <ele>88.915237426758</ele>
        <time>2020-06-19T11:16:32.660Z</time>
      </trkpt>
      <trkpt lat="46.64362" lon="0.57942">
        <ele>89.59912109375</ele>
        <time>2020-06-19T11:16:36.293Z</time>
      </trkpt>
      <trkpt lat="46.64352" lon="0.57925">
        <ele>90.115036010742</ele>
        <time>2020-06-19T11:16:39.929Z</time>
      </trkpt>
      <trkpt lat="46.64344" lon="0.57907">
        <ele>90.444190979004</ele>
        <time>2020-06-19T11:16:43.567Z</time>
      </trkpt>
      <trkpt lat="46.64332" lon="0.57874">
        <ele>90.66015625</ele>
        <time>2020-06-19T11:16:47.209Z</time>
      </trkpt>
      <trkpt lat="46.64321" lon="0.57857">
        <ele>91.176071166992</ele>
        <time>2020-06-19T11:16:50.854Z</time>
      </trkpt>
      <trkpt lat="46.64318" lon="0.57855">
        <ele>91.35383605957</ele>
        <time>2020-06-19T11:16:54.499Z</time>
      </trkpt>
      <trkpt lat="46.64308" lon="0.57853">
        <ele>91.905746459961</ele>
        <time>2020-06-19T11:16:58.146Z</time>
      </trkpt>
      <trkpt lat="46.64288" lon="0.57862">
        <ele>93.220314025879</ele>
        <time>2020-06-19T11:17:01.796Z</time>
      </trkpt>
      <trkpt lat="46.64268" lon="0.57874">
        <ele>94.32413482666</ele>
        <time>2020-06-19T11:17:05.450Z</time>
      </trkpt>
      <trkpt lat="46.64247" lon="0.57882">
        <ele>95.427947998047</ele>
        <time>2020-06-19T11:17:09.107Z</time>
      </trkpt>
      <trkpt lat="46.64207" lon="0.57879">
        <ele>96.067878723145</ele>
        <time>2020-06-19T11:17:12.770Z</time>
      </trkpt>
      <trkpt lat="46.64177" lon="0.57877">
        <ele>96.091873168945</ele>
        <time>2020-06-19T11:17:16.438Z</time>
      </trkpt>
      <trkpt lat="46.64161" lon="0.57877">
        <ele>96.091873168945</ele>
        <time>2020-06-19T11:17:20.109Z</time>
      </trkpt>
      <trkpt lat="46.64143" lon="0.57881">
        <ele>96.20051574707</ele>
        <time>2020-06-19T11:17:23.783Z</time>
      </trkpt>
      <trkpt lat="46.64113" lon="0.57888">
        <ele>96.512794494629</ele>
        <time>2020-06-19T11:17:27.462Z</time>
      </trkpt>
      <trkpt lat="46.64057" lon="0.57907">
        <ele>97.144577026367</ele>
        <time>2020-06-19T11:17:31.150Z</time>
      </trkpt>
      <trkpt lat="46.64014" lon="0.57925">
        <ele>97.515968322754</ele>
        <time>2020-06-19T11:17:34.845Z</time>
      </trkpt>
      <trkpt lat="46.64013" lon="0.57926">
        <ele>97.5078125</ele>
        <time>2020-06-19T11:17:38.540Z</time>
      </trkpt>
      <trkpt lat="46.63901" lon="0.5798">
        <ele>96.584510803223</ele>
        <time>2020-06-19T11:17:42.254Z</time>
      </trkpt>
      <trkpt lat="46.63838" lon="0.58013">
        <ele>96.464576721191</ele>
        <time>2020-06-19T11:17:45.979Z</time>
      </trkpt>
      <trkpt lat="46.63827" lon="0.58008">
        <ele>96.848510742188</ele>
        <time>2020-06-19T11:17:49.706Z</time>
      </trkpt>
      <trkpt lat="46.63818" lon="0.57995">
        <ele>97.340126037598</ele>
        <time>2020-06-19T11:17:53.435Z</time>
      </trkpt>
      <trkpt lat="46.63807" lon="0.57977">
        <ele>97.640075683594</ele>
        <time>2020-06-19T11:17:57.166Z</time>
      </trkpt>
      <trkpt lat="46.638" lon="0.57968">
        <ele>97.771995544434</ele>
        <time>2020-06-19T11:18:00.899Z</time>
      </trkpt>
      <trkpt lat="46.63789" lon="0.57959">
        <ele>97.748001098633</ele>
        <time>2020-06-19T11:18:04.634Z</time>
      </trkpt>
      <trkpt lat="46.63776" lon="0.57951">
        <ele>97.688011169434</ele>
        <time>2020-06-19T11:18:08.371Z</time>
      </trkpt>
      <trkpt lat="46.63763" lon="0.57949">
        <ele>97.556030273438</ele>
        <time>2020-06-19T11:18:12.110Z</time>
      </trkpt>
      <trkpt lat="46.63736" lon="0.5795">
        <ele>97.220085144043</ele>
        <time>2020-06-19T11:18:15.854Z</time>
      </trkpt>
      <trkpt lat="46.63715" lon="0.57946">
        <ele>97.511909484863</ele>
        <time>2020-06-19T11:18:19.601Z</time>
      </trkpt>
      <trkpt lat="46.63701" lon="0.57943">
        <ele>97.715873718262</ele>
        <time>2020-06-19T11:18:23.350Z</time>
      </trkpt>
      <trkpt lat="46.63679" lon="0.57937">
        <ele>98.051818847656</ele>
        <time>2020-06-19T11:18:27.103Z</time>
      </trkpt>
      <trkpt lat="46.63661" lon="0.57936">
        <ele>98.279777526855</ele>
        <time>2020-06-19T11:18:30.859Z</time>
      </trkpt>
      <trkpt lat="46.63653" lon="0.57938">
        <ele>98.351768493652</ele>
        <time>2020-06-19T11:18:34.616Z</time>
      </trkpt>
      <trkpt lat="46.63651" lon="0.57939">
        <ele>98.346710205078</ele>
        <time>2020-06-19T11:18:38.373Z</time>
      </trkpt>
      <trkpt lat="46.63638" lon="0.57946">
        <ele>98.264015197754</ele>
        <time>2020-06-19T11:18:42.133Z</time>
      </trkpt>
      <trkpt lat="46.63616" lon="0.57963">
        <ele>98.435699462891</ele>
        <time>2020-06-19T11:18:45.896Z</time>
      </trkpt>
      <trkpt lat="46.63602" lon="0.57967">
        <ele>98.603668212891</ele>
        <time>2020-06-19T11:18:49.662Z</time>
      </trkpt>
      <trkpt lat="46.63577" lon="0.57972">
        <ele>98.855682373047</ele>
        <time>2020-06-19T11:18:53.432Z</time>
      </trkpt>
      <trkpt lat="46.63506" lon="0.57985">
        <ele>97.632797241211</ele>
        <time>2020-06-19T11:18:57.213Z</time>
      </trkpt>
      <trkpt lat="46.63476" lon="0.57989">
        <ele>97.611618041992</ele>
        <time>2020-06-19T11:19:00.999Z</time>
      </trkpt>
      <trkpt lat="46.6346" lon="0.57987">
        <ele>97.851577758789</ele>
        <time>2020-06-19T11:19:04.788Z</time>
      </trkpt>
      <trkpt lat="46.63448" lon="0.57979">
        <ele>98.187522888184</ele>
        <time>2020-06-19T11:19:08.579Z</time>
      </trkpt>
      <trkpt lat="46.63431" lon="0.57955">
        <ele>98.655326843262</ele>
        <time>2020-06-19T11:19:12.374Z</time>
      </trkpt>
      <trkpt lat="46.63397" lon="0.57892">
        <ele>99.316291809082</ele>
        <time>2020-06-19T11:19:16.177Z</time>
      </trkpt>
      <trkpt lat="46.63381" lon="0.57863">
        <ele>100.54522705078</ele>
        <time>2020-06-19T11:19:19.984Z</time>
      </trkpt>
      <trkpt lat="46.63371" lon="0.57839">
        <ele>101.76902008057</ele>
        <time>2020-06-19T11:19:23.795Z</time>
      </trkpt>
      <trkpt lat="46.63361" lon="0.57816">
        <ele>102.95682525635</ele>
        <time>2020-06-19T11:19:27.609Z</time>
      </trkpt>
      <trkpt lat="46.63351" lon="0.57803">
        <ele>103.78468322754</ele>
        <time>2020-06-19T11:19:31.425Z</time>
      </trkpt>
      <trkpt lat="46.63344" lon="0.57798">
        <ele>104.13717651367</ele>
        <time>2020-06-19T11:19:35.242Z</time>
      </trkpt>
      <trkpt lat="46.63334" lon="0.57795">
        <ele>104.53311157227</ele>
        <time>2020-06-19T11:19:39.061Z</time>
      </trkpt>
      <trkpt lat="46.63334" lon="0.57794">
        <ele>104.54510498047</ele>
        <time>2020-06-19T11:19:42.880Z</time>
      </trkpt>
      <trkpt lat="46.63332" lon="0.57794">
        <ele>104.6262588501</ele>
        <time>2020-06-19T11:19:46.699Z</time>
      </trkpt>
      <trkpt lat="46.63304" lon="0.57789">
        <ele>105.35814666748</ele>
        <time>2020-06-19T11:19:50.523Z</time>
      </trkpt>
      <trkpt lat="46.63292" lon="0.57794">
        <ele>105.64609527588</ele>
        <time>2020-06-19T11:19:54.349Z</time>
      </trkpt>
      <trkpt lat="46.63285" lon="0.57812">
        <ele>105.68581390381</ele>
        <time>2020-06-19T11:19:58.177Z</time>
      </trkpt>
      <trkpt lat="46.63281" lon="0.57833">
        <ele>105.52983856201</ele>
        <time>2020-06-19T11:20:02.007Z</time>
      </trkpt>
      <trkpt lat="46.63275" lon="0.57841">
        <ele>105.57783508301</ele>
        <time>2020-06-19T11:20:05.839Z</time>
      </trkpt>
      <trkpt lat="46.63261" lon="0.57848">
        <ele>105.82978820801</ele>
        <time>2020-06-19T11:20:09.673Z</time>
      </trkpt>
      <trkpt lat="46.63243" lon="0.57851">
        <ele>106.2257232666</ele>
        <time>2020-06-19T11:20:13.510Z</time>
      </trkpt>
      <trkpt lat="46.63226" lon="0.57848">
        <ele>106.55473327637</ele>
        <time>2020-06-19T11:20:17.350Z</time>
      </trkpt>
      <trkpt lat="46.63201" lon="0.57841">
        <ele>106.93866729736</ele>
        <time>2020-06-19T11:20:21.194Z</time>
      </trkpt>
      <trkpt lat="46.63169" lon="0.57837">
        <ele>106.91658782959</ele>
        <time>2020-06-19T11:20:25.043Z</time>
      </trkpt>
      <trkpt lat="46.6312" lon="0.57841">
        <ele>106.57141113281</ele>
        <time>2020-06-19T11:20:28.900Z</time>
      </trkpt>
      <trkpt lat="46.63025" lon="0.57852">
        <ele>106.17547607422</ele>
        <time>2020-06-19T11:20:32.772Z</time>
      </trkpt>
      <trkpt lat="46.63022" lon="0.57852">
        <ele>106.16244506836</ele>
        <time>2020-06-19T11:20:36.644Z</time>
      </trkpt>
      <trkpt lat="46.63017" lon="0.57853">
        <ele>106.13948059082</ele>
        <time>2020-06-19T11:20:40.517Z</time>
      </trkpt>
      <trkpt lat="46.62998" lon="0.5785">
        <ele>106.24746704102</ele>
        <time>2020-06-19T11:20:44.393Z</time>
      </trkpt>
      <trkpt lat="46.62991" lon="0.57847">
        <ele>106.35544586182</ele>
        <time>2020-06-19T11:20:48.270Z</time>
      </trkpt>
      <trkpt lat="46.62977" lon="0.57831">
        <ele>106.82893371582</ele>
        <time>2020-06-19T11:20:52.150Z</time>
      </trkpt>
      <trkpt lat="46.62973" lon="0.57817">
        <ele>107.28485870361</ele>
        <time>2020-06-19T11:20:56.032Z</time>
      </trkpt>
      <trkpt lat="46.6297" lon="0.57796">
        <ele>107.87731170654</ele>
        <time>2020-06-19T11:20:59.916Z</time>
      </trkpt>
      <trkpt lat="46.62968" lon="0.57775">
        <ele>108.10527038574</ele>
        <time>2020-06-19T11:21:03.803Z</time>
      </trkpt>
      <trkpt lat="46.62963" lon="0.5776">
        <ele>108.22525024414</ele>
        <time>2020-06-19T11:21:07.691Z</time>
      </trkpt>
      <trkpt lat="46.62956" lon="0.57743">
        <ele>108.34523010254</ele>
        <time>2020-06-19T11:21:11.582Z</time>
      </trkpt>
      <trkpt lat="46.62947" lon="0.57715">
        <ele>108.57319641113</ele>
        <time>2020-06-19T11:21:15.476Z</time>
      </trkpt>
      <trkpt lat="46.62932" lon="0.57635">
        <ele>109</ele>
        <time>2020-06-19T11:21:19.379Z</time>
      </trkpt>
      <trkpt lat="46.62926" lon="0.57587">
        <ele>109.57129669189</ele>
        <time>2020-06-19T11:21:23.288Z</time>
      </trkpt>
      <trkpt lat="46.62921" lon="0.57567">
        <ele>109.81125640869</ele>
        <time>2020-06-19T11:21:27.199Z</time>
      </trkpt>
      <trkpt lat="46.62914" lon="0.57552">
        <ele>109.99122619629</ele>
        <time>2020-06-19T11:21:31.112Z</time>
      </trkpt>
      <trkpt lat="46.62893" lon="0.57526">
        <ele>110.08267211914</ele>
        <time>2020-06-19T11:21:35.029Z</time>
      </trkpt>
      <trkpt lat="46.62878" lon="0.57495">
        <ele>110.09467315674</ele>
        <time>2020-06-19T11:21:38.951Z</time>
      </trkpt>
      <trkpt lat="46.6285" lon="0.57512">
        <ele>109.37383270264</ele>
        <time>2020-06-19T11:21:42.877Z</time>
      </trkpt>
      <trkpt lat="46.6282" lon="0.57533">
        <ele>109.01389312744</ele>
        <time>2020-06-19T11:21:46.809Z</time>
      </trkpt>
      <trkpt lat="46.62788" lon="0.57556">
        <ele>107.40630340576</ele>
        <time>2020-06-19T11:21:50.746Z</time>
      </trkpt>
      <trkpt lat="46.62786" lon="0.57558">
        <ele>107.24334716797</ele>
        <time>2020-06-19T11:21:54.684Z</time>
      </trkpt>
      <trkpt lat="46.62752" lon="0.5758">
        <ele>105.10269165039</ele>
        <time>2020-06-19T11:21:58.628Z</time>
      </trkpt>
      <trkpt lat="46.62729" lon="0.57591">
        <ele>103.8907623291</ele>
        <time>2020-06-19T11:22:02.576Z</time>
      </trkpt>
      <trkpt lat="46.62706" lon="0.57598">
        <ele>103.17088317871</ele>
        <time>2020-06-19T11:22:06.527Z</time>
      </trkpt>
      <trkpt lat="46.62661" lon="0.57609">
        <ele>101.24066162109</ele>
        <time>2020-06-19T11:22:10.486Z</time>
      </trkpt>
      <trkpt lat="46.6259" lon="0.57628">
        <ele>101.88818359375</ele>
        <time>2020-06-19T11:22:14.456Z</time>
      </trkpt>
      <trkpt lat="46.62517" lon="0.57655">
        <ele>101.75543212891</ele>
        <time>2020-06-19T11:22:18.438Z</time>
      </trkpt>
      <trkpt lat="46.62507" lon="0.57657">
        <ele>101.74147796631</ele>
        <time>2020-06-19T11:22:22.422Z</time>
      </trkpt>
      <trkpt lat="46.62477" lon="0.57659">
        <ele>102</ele>
        <time>2020-06-19T11:22:26.411Z</time>
      </trkpt>
      <trkpt lat="46.62459" lon="0.57659">
        <ele>102</ele>
        <time>2020-06-19T11:22:30.403Z</time>
      </trkpt>
      <trkpt lat="46.62386" lon="0.57656">
        <ele>103.09284210205</ele>
        <time>2020-06-19T11:22:34.406Z</time>
      </trkpt>
      <trkpt lat="46.62293" lon="0.57644">
        <ele>105.92715454102</ele>
        <time>2020-06-19T11:22:38.424Z</time>
      </trkpt>
      <trkpt lat="46.62272" lon="0.57644">
        <ele>106.6830291748</ele>
        <time>2020-06-19T11:22:42.446Z</time>
      </trkpt>
      <trkpt lat="46.62256" lon="0.57649">
        <ele>107.258934021</ele>
        <time>2020-06-19T11:22:46.470Z</time>
      </trkpt>
      <trkpt lat="46.6218" lon="0.57682">
        <ele>107.76666259766</ele>
        <time>2020-06-19T11:22:50.507Z</time>
      </trkpt>
      <trkpt lat="46.62163" lon="0.5769">
        <ele>107.46671295166</ele>
        <time>2020-06-19T11:22:54.547Z</time>
      </trkpt>
      <trkpt lat="46.62149" lon="0.57699">
        <ele>107.22752380371</ele>
        <time>2020-06-19T11:22:58.589Z</time>
      </trkpt>
      <trkpt lat="46.62141" lon="0.57707">
        <ele>107.13274383545</ele>
        <time>2020-06-19T11:23:02.633Z</time>
      </trkpt>
      <trkpt lat="46.62122" lon="0.57731">
        <ele>107.36071014404</ele>
        <time>2020-06-19T11:23:06.681Z</time>
      </trkpt>
      <trkpt lat="46.62084" lon="0.57793">
        <ele>107.81663513184</ele>
        <time>2020-06-19T11:23:10.738Z</time>
      </trkpt>
      <trkpt lat="46.62056" lon="0.57862">
        <ele>106.96669006348</ele>
        <time>2020-06-19T11:23:14.804Z</time>
      </trkpt>
      <trkpt lat="46.62052" lon="0.57876">
        <ele>106.99282073975</ele>
        <time>2020-06-19T11:23:18.872Z</time>
      </trkpt>
      <trkpt lat="46.62051" lon="0.57879">
        <ele>107.08535766602</ele>
        <time>2020-06-19T11:23:22.940Z</time>
      </trkpt>
      <trkpt lat="46.62004" lon="0.58014">
        <ele>105.22462463379</ele>
        <time>2020-06-19T11:23:27.025Z</time>
      </trkpt>
      <trkpt lat="46.61983" lon="0.5807">
        <ele>105</ele>
        <time>2020-06-19T11:23:31.117Z</time>
      </trkpt>
      <trkpt lat="46.61957" lon="0.58131">
        <ele>104.11201477051</ele>
        <time>2020-06-19T11:23:35.216Z</time>
      </trkpt>
      <trkpt lat="46.61946" lon="0.58149">
        <ele>103.58293151855</ele>
        <time>2020-06-19T11:23:39.318Z</time>
      </trkpt>
      <trkpt lat="46.6193" lon="0.58172">
        <ele>102.89516448975</ele>
        <time>2020-06-19T11:23:43.424Z</time>
      </trkpt>
      <trkpt lat="46.61888" lon="0.58223">
        <ele>100.15879821777</ele>
        <time>2020-06-19T11:23:47.539Z</time>
      </trkpt>
      <trkpt lat="46.61816" lon="0.58314">
        <ele>95.880844116211</ele>
        <time>2020-06-19T11:23:51.669Z</time>
      </trkpt>
      <trkpt lat="46.61709" lon="0.58444">
        <ele>103.0013961792</ele>
        <time>2020-06-19T11:23:55.821Z</time>
      </trkpt>
      <trkpt lat="46.61653" lon="0.58511">
        <ele>106.37508392334</ele>
        <time>2020-06-19T11:23:59.985Z</time>
      </trkpt>
      <trkpt lat="46.61627" lon="0.58538">
        <ele>105.88415527344</ele>
        <time>2020-06-19T11:24:04.154Z</time>
      </trkpt>
      <trkpt lat="46.61619" lon="0.58544">
        <ele>105.47622680664</ele>
        <time>2020-06-19T11:24:08.324Z</time>
      </trkpt>
      <trkpt lat="46.61591" lon="0.5856">
        <ele>103.71463775635</ele>
        <time>2020-06-19T11:24:12.499Z</time>
      </trkpt>
      <trkpt lat="46.61525" lon="0.58584">
        <ele>99.428871154785</ele>
        <time>2020-06-19T11:24:16.685Z</time>
      </trkpt>
      <trkpt lat="46.61477" lon="0.58603">
        <ele>96.724151611328</ele>
        <time>2020-06-19T11:24:20.879Z</time>
      </trkpt>
      <trkpt lat="46.61441" lon="0.58613">
        <ele>97.648086547852</ele>
        <time>2020-06-19T11:24:25.079Z</time>
      </trkpt>
      <trkpt lat="46.61406" lon="0.58617">
        <ele>99.231819152832</ele>
        <time>2020-06-19T11:24:29.284Z</time>
      </trkpt>
      <trkpt lat="46.61332" lon="0.58617">
        <ele>103.19564819336</ele>
        <time>2020-06-19T11:24:33.501Z</time>
      </trkpt>
      <trkpt lat="46.6126" lon="0.58615">
        <ele>106.57459259033</ele>
        <time>2020-06-19T11:24:37.730Z</time>
      </trkpt>
      <trkpt lat="46.61249" lon="0.58615">
        <ele>107.10250091553</ele>
        <time>2020-06-19T11:24:41.961Z</time>
      </trkpt>
      <trkpt lat="46.61247" lon="0.58615">
        <ele>107.19187927246</ele>
        <time>2020-06-19T11:24:46.192Z</time>
      </trkpt>
      <trkpt lat="46.61231" lon="0.58614">
        <ele>107.80157470703</ele>
        <time>2020-06-19T11:24:50.425Z</time>
      </trkpt>
      <trkpt lat="46.61188" lon="0.58613">
        <ele>107.69450378418</ele>
        <time>2020-06-19T11:24:54.665Z</time>
      </trkpt>
      <trkpt lat="46.61172" lon="0.58617">
        <ele>107.45454406738</ele>
        <time>2020-06-19T11:24:58.908Z</time>
      </trkpt>
      <trkpt lat="46.61156" lon="0.58629">
        <ele>107.11859893799</ele>
        <time>2020-06-19T11:25:03.154Z</time>
      </trkpt>
      <trkpt lat="46.61148" lon="0.58639">
        <ele>106.91415405273</ele>
        <time>2020-06-19T11:25:07.402Z</time>
      </trkpt>
      <trkpt lat="46.61143" lon="0.58653">
        <ele>107.01013946533</ele>
        <time>2020-06-19T11:25:11.651Z</time>
      </trkpt>
      <trkpt lat="46.61138" lon="0.58686">
        <ele>107.56204986572</ele>
        <time>2020-06-19T11:25:15.904Z</time>
      </trkpt>
      <trkpt lat="46.61141" lon="0.58806">
        <ele>106.23773193359</ele>
        <time>2020-06-19T11:25:20.170Z</time>
      </trkpt>
      <trkpt lat="46.61142" lon="0.58923">
        <ele>100.9794921875</ele>
        <time>2020-06-19T11:25:24.449Z</time>
      </trkpt>
      <trkpt lat="46.61146" lon="0.58984">
        <ele>94.53116607666</ele>
        <time>2020-06-19T11:25:28.735Z</time>
      </trkpt>
      <trkpt lat="46.61148" lon="0.59007">
        <ele>90.94376373291</ele>
        <time>2020-06-19T11:25:33.023Z</time>
      </trkpt>
      <trkpt lat="46.61149" lon="0.59019">
        <ele>89.072074890137</ele>
        <time>2020-06-19T11:25:37.313Z</time>
      </trkpt>
      <trkpt lat="46.61146" lon="0.59041">
        <ele>85.640647888184</ele>
        <time>2020-06-19T11:25:41.605Z</time>
      </trkpt>
      <trkpt lat="46.61141" lon="0.59056">
        <ele>83.239936828613</ele>
        <time>2020-06-19T11:25:45.899Z</time>
      </trkpt>
      <trkpt lat="46.61136" lon="0.59062">
        <ele>81.992141723633</ele>
        <time>2020-06-19T11:25:50.194Z</time>
      </trkpt>
      <trkpt lat="46.61129" lon="0.59069">
        <ele>80.564384460449</ele>
        <time>2020-06-19T11:25:54.491Z</time>
      </trkpt>
      <trkpt lat="46.61109" lon="0.59081">
        <ele>78.308753967285</ele>
        <time>2020-06-19T11:25:58.791Z</time>
      </trkpt>
      <trkpt lat="46.61091" lon="0.59098">
        <ele>76.883636474609</ele>
        <time>2020-06-19T11:26:03.094Z</time>
      </trkpt>
      <trkpt lat="46.61074" lon="0.59124">
        <ele>74.975959777832</ele>
        <time>2020-06-19T11:26:07.401Z</time>
      </trkpt>
      <trkpt lat="46.61033" lon="0.59185">
        <ele>70.236473083496</ele>
        <time>2020-06-19T11:26:11.718Z</time>
      </trkpt>
      <trkpt lat="46.61022" lon="0.59199">
        <ele>68.652732849121</ele>
        <time>2020-06-19T11:26:16.037Z</time>
      </trkpt>
      <trkpt lat="46.61006" lon="0.59213">
        <ele>67.188980102539</ele>
        <time>2020-06-19T11:26:20.359Z</time>
      </trkpt>
      <trkpt lat="46.60968" lon="0.59241">
        <ele>67.217231750488</ele>
        <time>2020-06-19T11:26:24.688Z</time>
      </trkpt>
      <trkpt lat="46.60938" lon="0.59266">
        <ele>67.818870544434</ele>
        <time>2020-06-19T11:26:29.022Z</time>
      </trkpt>
      <trkpt lat="46.60937" lon="0.59267">
        <ele>67.686614990234</ele>
        <time>2020-06-19T11:26:33.357Z</time>
      </trkpt>
      <trkpt lat="46.60865" lon="0.59334">
        <ele>64.601150512695</ele>
        <time>2020-06-19T11:26:37.705Z</time>
      </trkpt>
      <trkpt lat="46.60841" lon="0.5936">
        <ele>63.523197174072</ele>
        <time>2020-06-19T11:26:42.058Z</time>
      </trkpt>
      <trkpt lat="46.60821" lon="0.59386">
        <ele>61.957000732422</ele>
        <time>2020-06-19T11:26:46.415Z</time>
      </trkpt>
      <trkpt lat="46.60809" lon="0.59401">
        <ele>62.228168487549</ele>
        <time>2020-06-19T11:26:50.775Z</time>
      </trkpt>
      <trkpt lat="46.60772" lon="0.59418">
        <ele>63.116020202637</ele>
        <time>2020-06-19T11:26:55.141Z</time>
      </trkpt>
      <trkpt lat="46.60707" lon="0.59444">
        <ele>64.421813964844</ele>
        <time>2020-06-19T11:26:59.518Z</time>
      </trkpt>
      <trkpt lat="46.60646" lon="0.59466">
        <ele>64.297592163086</ele>
        <time>2020-06-19T11:27:03.905Z</time>
      </trkpt>
      <trkpt lat="46.60587" lon="0.59481">
        <ele>63.69416809082</ele>
        <time>2020-06-19T11:27:08.302Z</time>
      </trkpt>
      <trkpt lat="46.60531" lon="0.59496">
        <ele>65.015693664551</ele>
        <time>2020-06-19T11:27:12.708Z</time>
      </trkpt>
      <trkpt lat="46.605" lon="0.59507">
        <ele>65.426872253418</ele>
        <time>2020-06-19T11:27:17.119Z</time>
      </trkpt>
      <trkpt lat="46.60499" lon="0.59508">
        <ele>65.4208984375</ele>
        <time>2020-06-19T11:27:21.530Z</time>
      </trkpt>
      <trkpt lat="46.60461" lon="0.59526">
        <ele>66.368461608887</ele>
        <time>2020-06-19T11:27:25.947Z</time>
      </trkpt>
      <trkpt lat="46.60455" lon="0.5953">
        <ele>66.277839660645</ele>
        <time>2020-06-19T11:27:30.366Z</time>
      </trkpt>
      <trkpt lat="46.60438" lon="0.59569">
        <ele>64.713203430176</ele>
        <time>2020-06-19T11:27:34.790Z</time>
      </trkpt>
      <trkpt lat="46.60423" lon="0.59594">
        <ele>64.473243713379</ele>
        <time>2020-06-19T11:27:39.217Z</time>
      </trkpt>
      <trkpt lat="46.60414" lon="0.59605">
        <ele>64.425247192383</ele>
        <time>2020-06-19T11:27:43.646Z</time>
      </trkpt>
      <trkpt lat="46.60407" lon="0.59614">
        <ele>64.377258300781</ele>
        <time>2020-06-19T11:27:48.077Z</time>
      </trkpt>
      <trkpt lat="46.60406" lon="0.59615">
        <ele>64.373947143555</ele>
        <time>2020-06-19T11:27:52.508Z</time>
      </trkpt>
      <trkpt lat="46.60378" lon="0.59649">
        <ele>64</ele>
        <time>2020-06-19T11:27:56.945Z</time>
      </trkpt>
      <trkpt lat="46.60366" lon="0.59667">
        <ele>64</ele>
        <time>2020-06-19T11:28:01.384Z</time>
      </trkpt>
      <trkpt lat="46.60355" lon="0.59676">
        <ele>63.946296691895</ele>
        <time>2020-06-19T11:28:05.825Z</time>
      </trkpt>
      <trkpt lat="46.60342" lon="0.59683">
        <ele>63.706336975098</ele>
        <time>2020-06-19T11:28:10.269Z</time>
      </trkpt>
      <trkpt lat="46.60324" lon="0.5968">
        <ele>63.5263671875</ele>
        <time>2020-06-19T11:28:14.716Z</time>
      </trkpt>
      <trkpt lat="46.60303" lon="0.59697">
        <ele>63.625659942627</ele>
        <time>2020-06-19T11:28:19.166Z</time>
      </trkpt>
      <trkpt lat="46.60292" lon="0.59707">
        <ele>63.588119506836</ele>
        <time>2020-06-19T11:28:23.619Z</time>
      </trkpt>
      <trkpt lat="46.60282" lon="0.5972">
        <ele>63.437030792236</ele>
        <time>2020-06-19T11:28:28.074Z</time>
      </trkpt>
      <trkpt lat="46.60274" lon="0.59735">
        <ele>63.533012390137</ele>
        <time>2020-06-19T11:28:32.531Z</time>
      </trkpt>
      <trkpt lat="46.60256" lon="0.59763">
        <ele>63.748977661133</ele>
        <time>2020-06-19T11:28:36.992Z</time>
      </trkpt>
      <trkpt lat="46.60235" lon="0.59785">
        <ele>64</ele>
        <time>2020-06-19T11:28:41.457Z</time>
      </trkpt>
      <trkpt lat="46.60218" lon="0.59802">
        <ele>63.991451263428</ele>
        <time>2020-06-19T11:28:45.925Z</time>
      </trkpt>
      <trkpt lat="46.60193" lon="0.59826">
        <ele>63.415546417236</ele>
        <time>2020-06-19T11:28:50.398Z</time>
      </trkpt>
      <trkpt lat="46.60168" lon="0.5986">
        <ele>63.104644775391</ele>
        <time>2020-06-19T11:28:54.877Z</time>
      </trkpt>
      <trkpt lat="46.60143" lon="0.59897">
        <ele>62.85591506958</ele>
        <time>2020-06-19T11:28:59.361Z</time>
      </trkpt>
      <trkpt lat="46.60117" lon="0.59933">
        <ele>62.423988342285</ele>
        <time>2020-06-19T11:29:03.851Z</time>
      </trkpt>
      <trkpt lat="46.60095" lon="0.59956">
        <ele>62.680656433105</ele>
        <time>2020-06-19T11:29:08.346Z</time>
      </trkpt>
      <trkpt lat="46.60066" lon="0.59985">
        <ele>62.60018157959</ele>
        <time>2020-06-19T11:29:12.846Z</time>
      </trkpt>
      <trkpt lat="46.60013" lon="0.60036">
        <ele>62.805282592773</ele>
        <time>2020-06-19T11:29:17.356Z</time>
      </trkpt>
      <trkpt lat="46.59949" lon="0.60092">
        <ele>62.116550445557</ele>
        <time>2020-06-19T11:29:21.878Z</time>
      </trkpt>
      <trkpt lat="46.59924" lon="0.60112">
        <ele>62.464626312256</ele>
        <time>2020-06-19T11:29:26.405Z</time>
      </trkpt>
      <trkpt lat="46.59924" lon="0.60112">
        <ele>62.477481842041</ele>
        <time>2020-06-19T11:29:30.932Z</time>
      </trkpt>
      <trkpt lat="46.59871" lon="0.60152">
        <ele>62.224643707275</ele>
        <time>2020-06-19T11:29:35.468Z</time>
      </trkpt>
      <trkpt lat="46.59846" lon="0.60164">
        <ele>61.668159484863</ele>
        <time>2020-06-19T11:29:40.009Z</time>
      </trkpt>
      <trkpt lat="46.5982" lon="0.60168">
        <ele>61.98010635376</ele>
        <time>2020-06-19T11:29:44.554Z</time>
      </trkpt>
      <trkpt lat="46.5975" lon="0.60176">
        <ele>62</ele>
        <time>2020-06-19T11:29:49.110Z</time>
      </trkpt>
      <trkpt lat="46.59729" lon="0.60177">
        <ele>61.928077697754</ele>
        <time>2020-06-19T11:29:53.669Z</time>
      </trkpt>
      <trkpt lat="46.59716" lon="0.60176">
        <ele>61.772102355957</ele>
        <time>2020-06-19T11:29:58.231Z</time>
      </trkpt>
      <trkpt lat="46.59705" lon="0.60172">
        <ele>61.640125274658</ele>
        <time>2020-06-19T11:30:02.794Z</time>
      </trkpt>
      <trkpt lat="46.59698" lon="0.60165">
        <ele>61.556137084961</ele>
        <time>2020-06-19T11:30:07.359Z</time>
      </trkpt>
      <trkpt lat="46.59687" lon="0.60149">
        <ele>61.424160003662</ele>
        <time>2020-06-19T11:30:11.926Z</time>
      </trkpt>
      <trkpt lat="46.59684" lon="0.60144">
        <ele>61.388164520264</ele>
        <time>2020-06-19T11:30:16.494Z</time>
      </trkpt>
      <trkpt lat="46.59678" lon="0.60126">
        <ele>62.399909973145</ele>
        <time>2020-06-19T11:30:21.064Z</time>
      </trkpt>
      <trkpt lat="46.59669" lon="0.60109">
        <ele>64.331588745117</ele>
        <time>2020-06-19T11:30:25.637Z</time>
      </trkpt>
      <trkpt lat="46.59659" lon="0.60106">
        <ele>64.571548461914</ele>
        <time>2020-06-19T11:30:30.211Z</time>
      </trkpt>
      <trkpt lat="46.59646" lon="0.60107">
        <ele>65.244209289551</ele>
        <time>2020-06-19T11:30:34.787Z</time>
      </trkpt>
      <trkpt lat="46.59633" lon="0.60113">
        <ele>66.551986694336</ele>
        <time>2020-06-19T11:30:39.365Z</time>
      </trkpt>
      <trkpt lat="46.59594" lon="0.60134">
        <ele>66.71907043457</ele>
        <time>2020-06-19T11:30:43.950Z</time>
      </trkpt>
      <trkpt lat="46.59527" lon="0.60174">
        <ele>70.242942810059</ele>
        <time>2020-06-19T11:30:48.547Z</time>
      </trkpt>
      <trkpt lat="46.59466" lon="0.60213">
        <ele>68.340492248535</ele>
        <time>2020-06-19T11:30:53.154Z</time>
      </trkpt>
      <trkpt lat="46.59437" lon="0.60236">
        <ele>70.271705627441</ele>
        <time>2020-06-19T11:30:57.767Z</time>
      </trkpt>
      <trkpt lat="46.59418" lon="0.60251">
        <ele>70.322006225586</ele>
        <time>2020-06-19T11:31:02.383Z</time>
      </trkpt>
      <trkpt lat="46.59403" lon="0.60267">
        <ele>68.366333007812</ele>
        <time>2020-06-19T11:31:07.002Z</time>
      </trkpt>
      <trkpt lat="46.59383" lon="0.60295">
        <ele>67.112686157227</ele>
        <time>2020-06-19T11:31:11.626Z</time>
      </trkpt>
      <trkpt lat="46.59363" lon="0.60325">
        <ele>67.904579162598</ele>
        <time>2020-06-19T11:31:16.254Z</time>
      </trkpt>
      <trkpt lat="46.5934" lon="0.60347">
        <ele>67.048187255859</ele>
        <time>2020-06-19T11:31:20.887Z</time>
      </trkpt>
      <trkpt lat="46.59318" lon="0.6036">
        <ele>64.822769165039</ele>
        <time>2020-06-19T11:31:25.523Z</time>
      </trkpt>
      <trkpt lat="46.59304" lon="0.60365">
        <ele>64.366844177246</ele>
        <time>2020-06-19T11:31:30.162Z</time>
      </trkpt>
      <trkpt lat="46.59303" lon="0.60365">
        <ele>64.37043762207</ele>
        <time>2020-06-19T11:31:34.801Z</time>
      </trkpt>
      <trkpt lat="46.59281" lon="0.60369">
        <ele>64.935173034668</ele>
        <time>2020-06-19T11:31:39.443Z</time>
      </trkpt>
      <trkpt lat="46.59271" lon="0.60367">
        <ele>65.871017456055</ele>
        <time>2020-06-19T11:31:44.087Z</time>
      </trkpt>
      <trkpt lat="46.59248" lon="0.60358">
        <ele>68.762535095215</ele>
        <time>2020-06-19T11:31:48.735Z</time>
      </trkpt>
      <trkpt lat="46.5923" lon="0.60352">
        <ele>70.319847106934</ele>
        <time>2020-06-19T11:31:53.386Z</time>
      </trkpt>
      <trkpt lat="46.59211" lon="0.60348">
        <ele>70.079887390137</ele>
        <time>2020-06-19T11:31:58.040Z</time>
      </trkpt>
      <trkpt lat="46.59175" lon="0.60349">
        <ele>71.330169677734</ele>
        <time>2020-06-19T11:32:02.700Z</time>
      </trkpt>
      <trkpt lat="46.59103" lon="0.6036">
        <ele>74.856330871582</ele>
        <time>2020-06-19T11:32:07.371Z</time>
      </trkpt>
      <trkpt lat="46.59076" lon="0.60367">
        <ele>77.951812744141</ele>
        <time>2020-06-19T11:32:12.047Z</time>
      </trkpt>
      <trkpt lat="46.59006" lon="0.6039">
        <ele>84.892562866211</ele>
        <time>2020-06-19T11:32:16.734Z</time>
      </trkpt>
      <trkpt lat="46.58982" lon="0.60392">
        <ele>87.203720092773</ele>
        <time>2020-06-19T11:32:21.425Z</time>
      </trkpt>
      <trkpt lat="46.5895" lon="0.60381">
        <ele>88.363548278809</ele>
        <time>2020-06-19T11:32:26.121Z</time>
      </trkpt>
      <trkpt lat="46.58934" lon="0.60374">
        <ele>89.263397216797</ele>
        <time>2020-06-19T11:32:30.820Z</time>
      </trkpt>
      <trkpt lat="46.58914" lon="0.60371">
        <ele>90.595176696777</ele>
        <time>2020-06-19T11:32:35.522Z</time>
      </trkpt>
      <trkpt lat="46.58861" lon="0.60367">
        <ele>94.214088439941</ele>
        <time>2020-06-19T11:32:40.233Z</time>
      </trkpt>
      <trkpt lat="46.58839" lon="0.60369">
        <ele>95.557861328125</ele>
        <time>2020-06-19T11:32:44.947Z</time>
      </trkpt>
      <trkpt lat="46.58826" lon="0.60371">
        <ele>96.361724853516</ele>
        <time>2020-06-19T11:32:49.663Z</time>
      </trkpt>
      <trkpt lat="46.58778" lon="0.60387">
        <ele>99.089820861816</ele>
        <time>2020-06-19T11:32:54.387Z</time>
      </trkpt>
      <trkpt lat="46.58754" lon="0.60396">
        <ele>100.99750518799</ele>
        <time>2020-06-19T11:32:59.115Z</time>
      </trkpt>
      <trkpt lat="46.58743" lon="0.60403">
        <ele>101.76224517822</ele>
        <time>2020-06-19T11:33:03.845Z</time>
      </trkpt>
      <trkpt lat="46.5873" lon="0.60415">
        <ele>102.78375244141</ele>
        <time>2020-06-19T11:33:08.577Z</time>
      </trkpt>
      <trkpt lat="46.58714" lon="0.60438">
        <ele>105.03937530518</ele>
        <time>2020-06-19T11:33:13.313Z</time>
      </trkpt>
      <trkpt lat="46.58694" lon="0.60469">
        <ele>106.00053405762</ele>
        <time>2020-06-19T11:33:18.054Z</time>
      </trkpt>
      <trkpt lat="46.58639" lon="0.60518">
        <ele>108.04407501221</ele>
        <time>2020-06-19T11:33:22.805Z</time>
      </trkpt>
      <trkpt lat="46.58588" lon="0.6056">
        <ele>105.91259002686</ele>
        <time>2020-06-19T11:33:27.565Z</time>
      </trkpt>
      <trkpt lat="46.58545" lon="0.60598">
        <ele>106.6644744873</ele>
        <time>2020-06-19T11:33:32.333Z</time>
      </trkpt>
      <trkpt lat="46.58528" lon="0.60617">
        <ele>107</ele>
        <time>2020-06-19T11:33:37.105Z</time>
      </trkpt>
      <trkpt lat="46.58502" lon="0.60649">
        <ele>107.49974060059</ele>
        <time>2020-06-19T11:33:41.882Z</time>
      </trkpt>
      <trkpt lat="46.58462" lon="0.60694">
        <ele>109.3928604126</ele>
        <time>2020-06-19T11:33:46.667Z</time>
      </trkpt>
      <trkpt lat="46.58436" lon="0.60716">
        <ele>109.94089508057</ele>
        <time>2020-06-19T11:33:51.457Z</time>
      </trkpt>
      <trkpt lat="46.58423" lon="0.60723">
        <ele>110.16329956055</ele>
        <time>2020-06-19T11:33:56.250Z</time>
      </trkpt>
      <trkpt lat="46.58406" lon="0.60732">
        <ele>110.27185821533</ele>
        <time>2020-06-19T11:34:01.045Z</time>
      </trkpt>
      <trkpt lat="46.58367" lon="0.60743">
        <ele>111.53399658203</ele>
        <time>2020-06-19T11:34:05.847Z</time>
      </trkpt>
      <trkpt lat="46.5834" lon="0.60752">
        <ele>112.47428894043</ele>
        <time>2020-06-19T11:34:10.653Z</time>
      </trkpt>
      <trkpt lat="46.58327" lon="0.60759">
        <ele>112.78623962402</ele>
        <time>2020-06-19T11:34:15.461Z</time>
      </trkpt>
      <trkpt lat="46.58312" lon="0.60772">
        <ele>113</ele>
        <time>2020-06-19T11:34:20.272Z</time>
      </trkpt>
      <trkpt lat="46.58293" lon="0.60791">
        <ele>113.17134857178</ele>
        <time>2020-06-19T11:34:25.087Z</time>
      </trkpt>
      <trkpt lat="46.58258" lon="0.60835">
        <ele>113.32277679443</ele>
        <time>2020-06-19T11:34:29.909Z</time>
      </trkpt>
      <trkpt lat="46.58225" lon="0.60882">
        <ele>113.15480041504</ele>
        <time>2020-06-19T11:34:34.739Z</time>
      </trkpt>
      <trkpt lat="46.58198" lon="0.60934">
        <ele>112.8279800415</ele>
        <time>2020-06-19T11:34:39.576Z</time>
      </trkpt>
      <trkpt lat="46.5818" lon="0.60961">
        <ele>112.18008422852</ele>
        <time>2020-06-19T11:34:44.417Z</time>
      </trkpt>
      <trkpt lat="46.58157" lon="0.6099">
        <ele>111.55142211914</ele>
        <time>2020-06-19T11:34:49.263Z</time>
      </trkpt>
      <trkpt lat="46.58138" lon="0.6102">
        <ele>110.76432037354</ele>
        <time>2020-06-19T11:34:54.113Z</time>
      </trkpt>
      <trkpt lat="46.5812" lon="0.61054">
        <ele>110.2993927002</ele>
        <time>2020-06-19T11:34:58.968Z</time>
      </trkpt>
      <trkpt lat="46.581" lon="0.61086">
        <ele>109.4139175415</ele>
        <time>2020-06-19T11:35:03.828Z</time>
      </trkpt>
      <trkpt lat="46.58075" lon="0.61112">
        <ele>109.3899230957</ele>
        <time>2020-06-19T11:35:08.693Z</time>
      </trkpt>
      <trkpt lat="46.5804" lon="0.6114">
        <ele>108.76960754395</ele>
        <time>2020-06-19T11:35:13.564Z</time>
      </trkpt>
      <trkpt lat="46.58019" lon="0.61154">
        <ele>108.09771728516</ele>
        <time>2020-06-19T11:35:18.439Z</time>
      </trkpt>
      <trkpt lat="46.57988" lon="0.61171">
        <ele>107.67182922363</ele>
        <time>2020-06-19T11:35:23.319Z</time>
      </trkpt>
      <trkpt lat="46.57961" lon="0.61197">
        <ele>106.51702880859</ele>
        <time>2020-06-19T11:35:28.204Z</time>
      </trkpt>
      <trkpt lat="46.57942" lon="0.6122">
        <ele>105.9476852417</ele>
        <time>2020-06-19T11:35:33.093Z</time>
      </trkpt>
      <trkpt lat="46.57921" lon="0.61249">
        <ele>104.90385437012</ele>
        <time>2020-06-19T11:35:37.987Z</time>
      </trkpt>
      <trkpt lat="46.57895" lon="0.6128">
        <ele>103.78804016113</ele>
        <time>2020-06-19T11:35:42.886Z</time>
      </trkpt>
      <trkpt lat="46.57866" lon="0.6131">
        <ele>103.32694244385</ele>
        <time>2020-06-19T11:35:47.791Z</time>
      </trkpt>
      <trkpt lat="46.57855" lon="0.61327">
        <ele>103.25495147705</ele>
        <time>2020-06-19T11:35:52.699Z</time>
      </trkpt>
      <trkpt lat="46.57835" lon="0.61365">
        <ele>102.48570251465</ele>
        <time>2020-06-19T11:35:57.612Z</time>
      </trkpt>
      <trkpt lat="46.57824" lon="0.61382">
        <ele>102.07776641846</ele>
        <time>2020-06-19T11:36:02.528Z</time>
      </trkpt>
      <trkpt lat="46.57806" lon="0.61391">
        <ele>101.71772766113</ele>
        <time>2020-06-19T11:36:07.447Z</time>
      </trkpt>
      <trkpt lat="46.57773" lon="0.61412">
        <ele>100.81787872314</ele>
        <time>2020-06-19T11:36:12.371Z</time>
      </trkpt>
      <trkpt lat="46.57767" lon="0.6142">
        <ele>100.58296203613</ele>
        <time>2020-06-19T11:36:17.297Z</time>
      </trkpt>
      <trkpt lat="46.57762" lon="0.61443">
        <ele>100.30700683594</ele>
        <time>2020-06-19T11:36:22.225Z</time>
      </trkpt>
      <trkpt lat="46.5776" lon="0.61492">
        <ele>99.438209533691</ele>
        <time>2020-06-19T11:36:27.159Z</time>
      </trkpt>
      <trkpt lat="46.57746" lon="0.61525">
        <ele>98.646339416504</ele>
        <time>2020-06-19T11:36:32.097Z</time>
      </trkpt>
      <trkpt lat="46.57736" lon="0.61542">
        <ele>98.238410949707</ele>
        <time>2020-06-19T11:36:37.038Z</time>
      </trkpt>
      <trkpt lat="46.57718" lon="0.61566">
        <ele>97.524917602539</ele>
        <time>2020-06-19T11:36:41.982Z</time>
      </trkpt>
      <trkpt lat="46.57701" lon="0.61602">
        <ele>96.01025390625</ele>
        <time>2020-06-19T11:36:46.931Z</time>
      </trkpt>
      <trkpt lat="46.57686" lon="0.61649">
        <ele>95.586936950684</ele>
        <time>2020-06-19T11:36:51.886Z</time>
      </trkpt>
      <trkpt lat="46.57678" lon="0.61677">
        <ele>95.719291687012</ele>
        <time>2020-06-19T11:36:56.844Z</time>
      </trkpt>
      <trkpt lat="46.57665" lon="0.61703">
        <ele>96.343185424805</ele>
        <time>2020-06-19T11:37:01.806Z</time>
      </trkpt>
      <trkpt lat="46.5765" lon="0.61722">
        <ele>96.950660705566</ele>
        <time>2020-06-19T11:37:06.771Z</time>
      </trkpt>
      <trkpt lat="46.57617" lon="0.61748">
        <ele>97.118637084961</ele>
        <time>2020-06-19T11:37:11.742Z</time>
      </trkpt>
      <trkpt lat="46.57601" lon="0.6176">
        <ele>97.214622497559</ele>
        <time>2020-06-19T11:37:16.716Z</time>
      </trkpt>
      <trkpt lat="46.57594" lon="0.61768">
        <ele>97.190620422363</ele>
        <time>2020-06-19T11:37:21.691Z</time>
      </trkpt>
      <trkpt lat="46.57568" lon="0.61818">
        <ele>96.614715576172</ele>
        <time>2020-06-19T11:37:26.673Z</time>
      </trkpt>
      <trkpt lat="46.57554" lon="0.61856">
        <ele>96.206390380859</ele>
        <time>2020-06-19T11:37:31.660Z</time>
      </trkpt>
      <trkpt lat="46.57549" lon="0.61882">
        <ele>95.762466430664</ele>
        <time>2020-06-19T11:37:36.650Z</time>
      </trkpt>
      <trkpt lat="46.57547" lon="0.61906">
        <ele>95.506614685059</ele>
        <time>2020-06-19T11:37:41.643Z</time>
      </trkpt>
      <trkpt lat="46.57548" lon="0.61941">
        <ele>95.050689697266</ele>
        <time>2020-06-19T11:37:46.640Z</time>
      </trkpt>
      <trkpt lat="46.57555" lon="0.62009">
        <ele>94.795013427734</ele>
        <time>2020-06-19T11:37:51.644Z</time>
      </trkpt>
      <trkpt lat="46.57555" lon="0.62012">
        <ele>94.827835083008</ele>
        <time>2020-06-19T11:37:56.648Z</time>
      </trkpt>
      <trkpt lat="46.57557" lon="0.6204">
        <ele>95.118957519531</ele>
        <time>2020-06-19T11:38:01.656Z</time>
      </trkpt>
      <trkpt lat="46.57557" lon="0.62082">
        <ele>93.920852661133</ele>
        <time>2020-06-19T11:38:06.668Z</time>
      </trkpt>
      <trkpt lat="46.57556" lon="0.62108">
        <ele>92.985008239746</ele>
        <time>2020-06-19T11:38:11.683Z</time>
      </trkpt>
      <trkpt lat="46.57552" lon="0.62131">
        <ele>92.296333312988</ele>
        <time>2020-06-19T11:38:16.701Z</time>
      </trkpt>
      <trkpt lat="46.57537" lon="0.62196">
        <ele>90.288108825684</ele>
        <time>2020-06-19T11:38:21.726Z</time>
      </trkpt>
      <trkpt lat="46.57505" lon="0.62318">
        <ele>83.833572387695</ele>
        <time>2020-06-19T11:38:26.766Z</time>
      </trkpt>
      <trkpt lat="46.57486" lon="0.62389">
        <ele>83.526092529297</ele>
        <time>2020-06-19T11:38:31.814Z</time>
      </trkpt>
      <trkpt lat="46.57485" lon="0.62407">
        <ele>82.386283874512</ele>
        <time>2020-06-19T11:38:36.864Z</time>
      </trkpt>
      <trkpt lat="46.57484" lon="0.62464">
        <ele>78.312553405762</ele>
        <time>2020-06-19T11:38:41.920Z</time>
      </trkpt>
      <trkpt lat="46.57478" lon="0.62492">
        <ele>76.24536895752</ele>
        <time>2020-06-19T11:38:46.980Z</time>
      </trkpt>
      <trkpt lat="46.57446" lon="0.62574">
        <ele>75.899452209473</ele>
        <time>2020-06-19T11:38:52.050Z</time>
      </trkpt>
      <trkpt lat="46.5742" lon="0.62648">
        <ele>75.153099060059</ele>
        <time>2020-06-19T11:38:57.129Z</time>
      </trkpt>
      <trkpt lat="46.57419" lon="0.62649">
        <ele>75.227912902832</ele>
        <time>2020-06-19T11:39:02.208Z</time>
      </trkpt>
      <trkpt lat="46.57403" lon="0.62686">
        <ele>73.630081176758</ele>
        <time>2020-06-19T11:39:07.292Z</time>
      </trkpt>
      <trkpt lat="46.57361" lon="0.62769">
        <ele>71.006576538086</ele>
        <time>2020-06-19T11:39:12.388Z</time>
      </trkpt>
      <trkpt lat="46.57348" lon="0.62793">
        <ele>70.634635925293</ele>
        <time>2020-06-19T11:39:17.487Z</time>
      </trkpt>
      <trkpt lat="46.57346" lon="0.62807">
        <ele>70.082733154297</ele>
        <time>2020-06-19T11:39:22.587Z</time>
      </trkpt>
      <trkpt lat="46.57351" lon="0.62816">
        <ele>69.350852966309</ele>
        <time>2020-06-19T11:39:27.689Z</time>
      </trkpt>
      <trkpt lat="46.57362" lon="0.62827">
        <ele>68.163047790527</ele>
        <time>2020-06-19T11:39:32.793Z</time>
      </trkpt>
      <trkpt lat="46.57377" lon="0.62843">
        <ele>66.495330810547</ele>
        <time>2020-06-19T11:39:37.900Z</time>
      </trkpt>
      <trkpt lat="46.5738" lon="0.62847">
        <ele>66.123390197754</ele>
        <time>2020-06-19T11:39:43.008Z</time>
      </trkpt>
      <trkpt lat="46.5736" lon="0.63004">
        <ele>67.46630859375</ele>
        <time>2020-06-19T11:39:48.133Z</time>
      </trkpt>
      <trkpt lat="46.57348" lon="0.63047">
        <ele>67.897193908691</ele>
        <time>2020-06-19T11:39:53.263Z</time>
      </trkpt>
      <trkpt lat="46.5732" lon="0.63128">
        <ele>69.015693664551</ele>
        <time>2020-06-19T11:39:58.403Z</time>
      </trkpt>
      <trkpt lat="46.57293" lon="0.63206">
        <ele>67.958862304688</ele>
        <time>2020-06-19T11:40:03.553Z</time>
      </trkpt>
      <trkpt lat="46.57275" lon="0.6328">
        <ele>67.841766357422</ele>
        <time>2020-06-19T11:40:08.712Z</time>
      </trkpt>
      <trkpt lat="46.57267" lon="0.63322">
        <ele>68.292236328125</ele>
        <time>2020-06-19T11:40:13.875Z</time>
      </trkpt>
      <trkpt lat="46.57253" lon="0.63412">
        <ele>68.894866943359</ele>
        <time>2020-06-19T11:40:19.049Z</time>
      </trkpt>
      <trkpt lat="46.5723" lon="0.63495">
        <ele>68.655258178711</ele>
        <time>2020-06-19T11:40:24.232Z</time>
      </trkpt>
      <trkpt lat="46.57225" lon="0.63509">
        <ele>68.055358886719</ele>
        <time>2020-06-19T11:40:29.417Z</time>
      </trkpt>
      <trkpt lat="46.57225" lon="0.63509">
        <ele>68.050605773926</ele>
        <time>2020-06-19T11:40:34.602Z</time>
      </trkpt>
      <trkpt lat="46.57179" lon="0.63623">
        <ele>67.455047607422</ele>
        <time>2020-06-19T11:40:39.802Z</time>
      </trkpt>
      <trkpt lat="46.57154" lon="0.63683">
        <ele>66.659492492676</ele>
        <time>2020-06-19T11:40:45.010Z</time>
      </trkpt>
      <trkpt lat="46.5712" lon="0.63757">
        <ele>66.042457580566</ele>
        <time>2020-06-19T11:40:50.227Z</time>
      </trkpt>
      <trkpt lat="46.57084" lon="0.63834">
        <ele>66.039695739746</ele>
        <time>2020-06-19T11:40:55.455Z</time>
      </trkpt>
      <trkpt lat="46.57064" lon="0.63864">
        <ele>66.399635314941</ele>
        <time>2020-06-19T11:41:00.687Z</time>
      </trkpt>
      <trkpt lat="46.57048" lon="0.63899">
        <ele>65.839920043945</ele>
        <time>2020-06-19T11:41:05.924Z</time>
      </trkpt>
      <trkpt lat="46.57038" lon="0.63915">
        <ele>65.64794921875</ele>
        <time>2020-06-19T11:41:11.163Z</time>
      </trkpt>
      <trkpt lat="46.57027" lon="0.63927">
        <ele>65.503974914551</ele>
        <time>2020-06-19T11:41:16.404Z</time>
      </trkpt>
      <trkpt lat="46.57" lon="0.63947">
        <ele>65.264015197754</ele>
        <time>2020-06-19T11:41:21.650Z</time>
      </trkpt>
      <trkpt lat="46.56988" lon="0.63954">
        <ele>65.180030822754</ele>
        <time>2020-06-19T11:41:26.898Z</time>
      </trkpt>
      <trkpt lat="46.56974" lon="0.63967">
        <ele>65.198577880859</ele>
        <time>2020-06-19T11:41:32.149Z</time>
      </trkpt>
      <trkpt lat="46.56958" lon="0.63985">
        <ele>64.75220489502</ele>
        <time>2020-06-19T11:41:37.403Z</time>
      </trkpt>
      <trkpt lat="46.56958" lon="0.63985">
        <ele>64.742652893066</ele>
        <time>2020-06-19T11:41:42.657Z</time>
      </trkpt>
      <trkpt lat="46.56933" lon="0.64017">
        <ele>64.473327636719</ele>
        <time>2020-06-19T11:41:47.917Z</time>
      </trkpt>
      <trkpt lat="46.56934" lon="0.64025">
        <ele>64.425338745117</ele>
        <time>2020-06-19T11:41:53.177Z</time>
      </trkpt>
      <trkpt lat="46.56955" lon="0.64185">
        <ele>66.586235046387</ele>
        <time>2020-06-19T11:41:58.455Z</time>
      </trkpt>
      <trkpt lat="46.56955" lon="0.64185">
        <ele>66.591506958008</ele>
        <time>2020-06-19T11:42:03.733Z</time>
      </trkpt>
      <trkpt lat="46.56957" lon="0.64195">
        <ele>66.753364562988</ele>
        <time>2020-06-19T11:42:09.013Z</time>
      </trkpt>
      <trkpt lat="46.56954" lon="0.64203">
        <ele>66.981323242188</ele>
        <time>2020-06-19T11:42:14.294Z</time>
      </trkpt>
      <trkpt lat="46.56951" lon="0.64216">
        <ele>67.329261779785</ele>
        <time>2020-06-19T11:42:19.576Z</time>
      </trkpt>
      <trkpt lat="46.56949" lon="0.64216">
        <ele>67.35326385498</ele>
        <time>2020-06-19T11:42:24.858Z</time>
      </trkpt>
      <trkpt lat="46.56945" lon="0.64218">
        <ele>67.449241638184</ele>
        <time>2020-06-19T11:42:30.141Z</time>
      </trkpt>
      <trkpt lat="46.56941" lon="0.64228">
        <ele>67.522346496582</ele>
        <time>2020-06-19T11:42:35.425Z</time>
      </trkpt>
      <trkpt lat="46.56942" lon="0.64239">
        <ele>67.510353088379</ele>
        <time>2020-06-19T11:42:40.711Z</time>
      </trkpt>
      <trkpt lat="46.56945" lon="0.64243">
        <ele>67.47435760498</ele>
        <time>2020-06-19T11:42:45.997Z</time>
      </trkpt>
      <trkpt lat="46.5695" lon="0.64245">
        <ele>67.414367675781</ele>
        <time>2020-06-19T11:42:51.284Z</time>
      </trkpt>
      <trkpt lat="46.56952" lon="0.64245">
        <ele>67.39037322998</ele>
        <time>2020-06-19T11:42:56.571Z</time>
      </trkpt>
      <trkpt lat="46.56957" lon="0.64251">
        <ele>67.330383300781</ele>
        <time>2020-06-19T11:43:01.859Z</time>
      </trkpt>
      <trkpt lat="46.56966" lon="0.64279">
        <ele>67.222396850586</ele>
        <time>2020-06-19T11:43:07.151Z</time>
      </trkpt>
      <trkpt lat="46.56972" lon="0.64294">
        <ele>67.100708007812</ele>
        <time>2020-06-19T11:43:12.445Z</time>
      </trkpt>
      <trkpt lat="46.56975" lon="0.64315">
        <ele>67</ele>
        <time>2020-06-19T11:43:17.741Z</time>
      </trkpt>
      <trkpt lat="46.56979" lon="0.64336">
        <ele>67</ele>
        <time>2020-06-19T11:43:23.040Z</time>
      </trkpt>
      <trkpt lat="46.5698" lon="0.64348">
        <ele>67</ele>
        <time>2020-06-19T11:43:28.340Z</time>
      </trkpt>
      <trkpt lat="46.56976" lon="0.64392">
        <ele>66.972679138184</ele>
        <time>2020-06-19T11:43:33.645Z</time>
      </trkpt>
      <trkpt lat="46.56962" lon="0.64453">
        <ele>67.613945007324</ele>
        <time>2020-06-19T11:43:38.957Z</time>
      </trkpt>
      <trkpt lat="46.56947" lon="0.64506">
        <ele>68.44287109375</ele>
        <time>2020-06-19T11:43:44.275Z</time>
      </trkpt>
      <trkpt lat="46.56935" lon="0.64542">
        <ele>68.405662536621</ele>
        <time>2020-06-19T11:43:49.598Z</time>
      </trkpt>
      <trkpt lat="46.56923" lon="0.64572">
        <ele>69.200630187988</ele>
        <time>2020-06-19T11:43:54.924Z</time>
      </trkpt>
      <trkpt lat="46.56908" lon="0.646">
        <ele>68.897552490234</ele>
        <time>2020-06-19T11:44:00.254Z</time>
      </trkpt>
      <trkpt lat="46.56883" lon="0.64649">
        <ele>69.852561950684</ele>
        <time>2020-06-19T11:44:05.591Z</time>
      </trkpt>
      <trkpt lat="46.56854" lon="0.64713">
        <ele>71.301475524902</ele>
        <time>2020-06-19T11:44:10.937Z</time>
      </trkpt>
      <trkpt lat="46.56825" lon="0.64779">
        <ele>71.462921142578</ele>
        <time>2020-06-19T11:44:16.291Z</time>
      </trkpt>
      <trkpt lat="46.56824" lon="0.64781">
        <ele>71.407287597656</ele>
        <time>2020-06-19T11:44:21.645Z</time>
      </trkpt>
      <trkpt lat="46.56804" lon="0.64825">
        <ele>70.938079833984</ele>
        <time>2020-06-19T11:44:27.005Z</time>
      </trkpt>
      <trkpt lat="46.56821" lon="0.64882">
        <ele>72.522483825684</ele>
        <time>2020-06-19T11:44:32.372Z</time>
      </trkpt>
      <trkpt lat="46.56834" lon="0.64913">
        <ele>72.775459289551</ele>
        <time>2020-06-19T11:44:37.743Z</time>
      </trkpt>
      <trkpt lat="46.56847" lon="0.64928">
        <ele>73.399353027344</ele>
        <time>2020-06-19T11:44:43.117Z</time>
      </trkpt>
      <trkpt lat="46.56857" lon="0.64938">
        <ele>73.879280090332</ele>
        <time>2020-06-19T11:44:48.493Z</time>
      </trkpt>
      <trkpt lat="46.56859" lon="0.64945">
        <ele>73.975257873535</ele>
        <time>2020-06-19T11:44:53.870Z</time>
      </trkpt>
      <trkpt lat="46.56864" lon="0.64955">
        <ele>74.215217590332</ele>
        <time>2020-06-19T11:44:59.248Z</time>
      </trkpt>
      <trkpt lat="46.56876" lon="0.64964">
        <ele>74.791122436523</ele>
        <time>2020-06-19T11:45:04.628Z</time>
      </trkpt>
      <trkpt lat="46.56894" lon="0.64972">
        <ele>75.485298156738</ele>
        <time>2020-06-19T11:45:10.011Z</time>
      </trkpt>
      <trkpt lat="46.56936" lon="0.64977">
        <ele>75.948028564453</ele>
        <time>2020-06-19T11:45:15.401Z</time>
      </trkpt>
      <trkpt lat="46.56972" lon="0.64982">
        <ele>76.080009460449</ele>
        <time>2020-06-19T11:45:20.797Z</time>
      </trkpt>
      <trkpt lat="46.57031" lon="0.64993">
        <ele>78.329254150391</ele>
        <time>2020-06-19T11:45:26.202Z</time>
      </trkpt>
      <trkpt lat="46.57046" lon="0.64999">
        <ele>78.941146850586</ele>
        <time>2020-06-19T11:45:31.610Z</time>
      </trkpt>
      <trkpt lat="46.57066" lon="0.6501">
        <ele>79.433067321777</ele>
        <time>2020-06-19T11:45:37.021Z</time>
      </trkpt>
      <trkpt lat="46.57079" lon="0.65019">
        <ele>80.086547851562</ele>
        <time>2020-06-19T11:45:42.434Z</time>
      </trkpt>
      <trkpt lat="46.57093" lon="0.65034">
        <ele>80.314506530762</ele>
        <time>2020-06-19T11:45:47.850Z</time>
      </trkpt>
      <trkpt lat="46.57105" lon="0.65056">
        <ele>79.773254394531</ele>
        <time>2020-06-19T11:45:53.269Z</time>
      </trkpt>
      <trkpt lat="46.57114" lon="0.65071">
        <ele>80.421142578125</ele>
        <time>2020-06-19T11:45:58.690Z</time>
      </trkpt>
      <trkpt lat="46.57117" lon="0.65075">
        <ele>80.67310333252</ele>
        <time>2020-06-19T11:46:04.112Z</time>
      </trkpt>
      <trkpt lat="46.57112" lon="0.6508">
        <ele>79.83324432373</ele>
        <time>2020-06-19T11:46:09.535Z</time>
      </trkpt>
      <trkpt lat="46.57102" lon="0.65091">
        <ele>78.169898986816</ele>
        <time>2020-06-19T11:46:14.960Z</time>
      </trkpt>
      <trkpt lat="46.57082" lon="0.65114">
        <ele>75.218391418457</ele>
        <time>2020-06-19T11:46:20.389Z</time>
      </trkpt>
      <trkpt lat="46.57071" lon="0.65125">
        <ele>73.634651184082</ele>
        <time>2020-06-19T11:46:25.820Z</time>
      </trkpt>
      <trkpt lat="46.5707" lon="0.65189">
        <ele>73.86604309082</ele>
        <time>2020-06-19T11:46:31.258Z</time>
      </trkpt>
      <trkpt lat="46.5707" lon="0.65222">
        <ele>74.135009765625</ele>
        <time>2020-06-19T11:46:36.700Z</time>
      </trkpt>
      <trkpt lat="46.5707" lon="0.65256">
        <ele>74.542938232422</ele>
        <time>2020-06-19T11:46:42.146Z</time>
      </trkpt>
      <trkpt lat="46.5707" lon="0.65275">
        <ele>74.765602111816</ele>
        <time>2020-06-19T11:46:47.594Z</time>
      </trkpt>
      <trkpt lat="46.57104" lon="0.65277">
        <ele>76.428382873535</ele>
        <time>2020-06-19T11:35:42.000Z</time>
      </trkpt>
      <trkpt lat="46.57104" lon="0.65277">
        <ele>76.428382873535</ele>
        <time>2020-06-19T11:35:42.000Z</time>
      </trkpt>
      <trkpt lat="46.57107" lon="0.65258">
        <ele>76.327011108398</ele>
        <time>2020-06-19T11:35:42.002Z</time>
      </trkpt>
      <trkpt lat="46.57124" lon="0.65218">
        <ele>80.030143737793</ele>
        <time>2020-06-19T11:35:42.009Z</time>
      </trkpt>
      <trkpt lat="46.5717" lon="0.65166">
        <ele>83.673355102539</ele>
        <time>2020-06-19T11:35:42.026Z</time>
      </trkpt>
      <trkpt lat="46.57166" lon="0.65151">
        <ele>83.518882751465</ele>
        <time>2020-06-19T11:35:42.044Z</time>
      </trkpt>
      <trkpt lat="46.57135" lon="0.65113">
        <ele>81.608276367188</ele>
        <time>2020-06-19T11:35:42.069Z</time>
      </trkpt>
      <trkpt lat="46.57124" lon="0.65093">
        <ele>80.963447570801</ele>
        <time>2020-06-19T11:35:42.097Z</time>
      </trkpt>
      <trkpt lat="46.57124" lon="0.65093">
        <ele>80.964248657227</ele>
        <time>2020-06-19T11:35:42.125Z</time>
      </trkpt>
      <trkpt lat="46.57115" lon="0.65076">
        <ele>80.412239074707</ele>
        <time>2020-06-19T11:35:42.155Z</time>
      </trkpt>
      <trkpt lat="46.5709" lon="0.65029">
        <ele>80.437561035156</ele>
        <time>2020-06-19T11:35:42.192Z</time>
      </trkpt>
      <trkpt lat="46.57067" lon="0.6501">
        <ele>79.478729248047</ele>
        <time>2020-06-19T11:35:42.233Z</time>
      </trkpt>
      <trkpt lat="46.57033" lon="0.64995">
        <ele>78.217231750488</ele>
        <time>2020-06-19T11:35:42.280Z</time>
      </trkpt>
      <trkpt lat="46.56888" lon="0.64974">
        <ele>75.076438903809</ele>
        <time>2020-06-19T11:35:42.350Z</time>
      </trkpt>
      <trkpt lat="46.56866" lon="0.64962">
        <ele>74.326179504395</ele>
        <time>2020-06-19T11:35:42.424Z</time>
      </trkpt>
      <trkpt lat="46.56858" lon="0.64945">
        <ele>73.914260864258</ele>
        <time>2020-06-19T11:35:42.500Z</time>
      </trkpt>
      <trkpt lat="46.56829" lon="0.64915">
        <ele>72.524436950684</ele>
        <time>2020-06-19T11:35:42.582Z</time>
      </trkpt>
      <trkpt lat="46.56799" lon="0.64831">
        <ele>70.885032653809</ele>
        <time>2020-06-19T11:35:42.674Z</time>
      </trkpt>
      <trkpt lat="46.56822" lon="0.64778">
        <ele>71.130508422852</ele>
        <time>2020-06-19T11:35:42.773Z</time>
      </trkpt>
      <trkpt lat="46.56822" lon="0.64778">
        <ele>71.129707336426</ele>
        <time>2020-06-19T11:35:42.872Z</time>
      </trkpt>
      <trkpt lat="46.56849" lon="0.64715">
        <ele>71.126754760742</ele>
        <time>2020-06-19T11:35:42.979Z</time>
      </trkpt>
      <trkpt lat="46.56879" lon="0.6465">
        <ele>69.937683105469</ele>
        <time>2020-06-19T11:35:43.095Z</time>
      </trkpt>
      <trkpt lat="46.56879" lon="0.6465">
        <ele>69.93758392334</ele>
        <time>2020-06-19T11:35:43.211Z</time>
      </trkpt>
      <trkpt lat="46.56916" lon="0.64577">
        <ele>68.987808227539</ele>
        <time>2020-06-19T11:35:43.337Z</time>
      </trkpt>
      <trkpt lat="46.56959" lon="0.64454">
        <ele>67.625526428223</ele>
        <time>2020-06-19T11:35:43.478Z</time>
      </trkpt>
      <trkpt lat="46.56964" lon="0.64432">
        <ele>67.30835723877</ele>
        <time>2020-06-19T11:35:43.622Z</time>
      </trkpt>
      <trkpt lat="46.56974" lon="0.64378">
        <ele>66.95719909668</ele>
        <time>2020-06-19T11:35:43.772Z</time>
      </trkpt>
      <trkpt lat="46.56973" lon="0.64318">
        <ele>67</ele>
        <time>2020-06-19T11:35:43.928Z</time>
      </trkpt>
      <trkpt lat="46.56973" lon="0.64318">
        <ele>67</ele>
        <time>2020-06-19T11:35:44.084Z</time>
      </trkpt>
      <trkpt lat="46.56972" lon="0.64315">
        <ele>67</ele>
        <time>2020-06-19T11:35:44.241Z</time>
      </trkpt>
      <trkpt lat="46.56967" lon="0.64283">
        <ele>67.208343505859</ele>
        <time>2020-06-19T11:35:44.401Z</time>
      </trkpt>
      <trkpt lat="46.56965" lon="0.64267">
        <ele>67.234191894531</ele>
        <time>2020-06-19T11:35:44.563Z</time>
      </trkpt>
      <trkpt lat="46.56953" lon="0.64244">
        <ele>67.375785827637</ele>
        <time>2020-06-19T11:35:44.728Z</time>
      </trkpt>
      <trkpt lat="46.56943" lon="0.64241">
        <ele>67.504409790039</ele>
        <time>2020-06-19T11:35:44.895Z</time>
      </trkpt>
      <trkpt lat="46.5694" lon="0.64226">
        <ele>67.530151367188</ele>
        <time>2020-06-19T11:35:45.064Z</time>
      </trkpt>
      <trkpt lat="46.56944" lon="0.64219">
        <ele>67.478927612305</ele>
        <time>2020-06-19T11:35:45.234Z</time>
      </trkpt>
      <trkpt lat="46.56949" lon="0.64215">
        <ele>67.337432861328</ele>
        <time>2020-06-19T11:35:45.405Z</time>
      </trkpt>
      <trkpt lat="46.56955" lon="0.64195">
        <ele>66.771049499512</ele>
        <time>2020-06-19T11:35:45.578Z</time>
      </trkpt>
      <trkpt lat="46.56946" lon="0.64125">
        <ele>66</ele>
        <time>2020-06-19T11:35:45.759Z</time>
      </trkpt>
      <trkpt lat="46.56946" lon="0.64125">
        <ele>66</ele>
        <time>2020-06-19T11:35:45.940Z</time>
      </trkpt>
      <trkpt lat="46.56933" lon="0.64025">
        <ele>64.481452941895</ele>
        <time>2020-06-19T11:35:46.132Z</time>
      </trkpt>
      <trkpt lat="46.5693" lon="0.64005">
        <ele>64.635520935059</ele>
        <time>2020-06-19T11:35:46.326Z</time>
      </trkpt>
      <trkpt lat="46.56928" lon="0.63987">
        <ele>65.044891357422</ele>
        <time>2020-06-19T11:35:46.523Z</time>
      </trkpt>
      <trkpt lat="46.56916" lon="0.63983">
        <ele>65.34105682373</ele>
        <time>2020-06-19T11:35:46.721Z</time>
      </trkpt>
      <trkpt lat="46.56905" lon="0.63958">
        <ele>66.357978820801</ele>
        <time>2020-06-19T11:35:46.923Z</time>
      </trkpt>
      <trkpt lat="46.56902" lon="0.63919">
        <ele>67.786819458008</ele>
        <time>2020-06-19T11:35:47.129Z</time>
      </trkpt>
      <trkpt lat="46.5689" lon="0.639">
        <ele>67.947227478027</ele>
        <time>2020-06-19T11:35:47.338Z</time>
      </trkpt>
      <trkpt lat="46.56823" lon="0.6389">
        <ele>65.102813720703</ele>
        <time>2020-06-19T11:35:47.558Z</time>
      </trkpt>
      <trkpt lat="46.56682" lon="0.63881">
        <ele>66.550148010254</ele>
        <time>2020-06-19T11:35:47.800Z</time>
      </trkpt>
      <trkpt lat="46.56682" lon="0.63881">
        <ele>66.550148010254</ele>
        <time>2020-06-19T11:35:48.042Z</time>
      </trkpt>
      <trkpt lat="46.56582" lon="0.63883">
        <ele>66.31844329834</ele>
        <time>2020-06-19T11:35:48.300Z</time>
      </trkpt>
      <trkpt lat="46.56514" lon="0.63909">
        <ele>65.45288848877</ele>
        <time>2020-06-19T11:35:48.569Z</time>
      </trkpt>
      <trkpt lat="46.5648" lon="0.63875">
        <ele>66.866714477539</ele>
        <time>2020-06-19T11:35:48.845Z</time>
      </trkpt>
      <trkpt lat="46.5648" lon="0.63875">
        <ele>66.867218017578</ele>
        <time>2020-06-19T11:35:49.121Z</time>
      </trkpt>
      <trkpt lat="46.56448" lon="0.63839">
        <ele>68.874816894531</ele>
        <time>2020-06-19T11:35:49.404Z</time>
      </trkpt>
      <trkpt lat="46.56352" lon="0.63794">
        <ele>69.700073242188</ele>
        <time>2020-06-19T11:35:49.703Z</time>
      </trkpt>
      <trkpt lat="46.56274" lon="0.63715">
        <ele>74.400650024414</ele>
        <time>2020-06-19T11:35:50.017Z</time>
      </trkpt>
      <trkpt lat="46.56284" lon="0.63692">
        <ele>80.20426940918</ele>
        <time>2020-06-19T11:35:50.334Z</time>
      </trkpt>
      <trkpt lat="46.56286" lon="0.63693">
        <ele>80.338043212891</ele>
        <time>2020-06-19T11:35:50.651Z</time>
      </trkpt>
      <trkpt lat="46.56242" lon="0.63663">
        <ele>78.346382141113</ele>
        <time>2020-06-19T11:35:50.976Z</time>
      </trkpt>
      <trkpt lat="46.56235" lon="0.63659">
        <ele>77.89045715332</ele>
        <time>2020-06-19T11:35:51.302Z</time>
      </trkpt>
      <trkpt lat="46.5623" lon="0.63661">
        <ele>76.796508789062</ele>
        <time>2020-06-19T11:35:51.629Z</time>
      </trkpt>
      <trkpt lat="46.56226" lon="0.63666">
        <ele>75.320755004883</ele>
        <time>2020-06-19T11:35:51.957Z</time>
      </trkpt>
      <trkpt lat="46.56195" lon="0.63635">
        <ele>76.399620056152</ele>
        <time>2020-06-19T11:35:52.291Z</time>
      </trkpt>
      <trkpt lat="46.56136" lon="0.63575">
        <ele>74.74235534668</ele>
        <time>2020-06-19T11:35:52.636Z</time>
      </trkpt>
      <trkpt lat="46.56111" lon="0.63562">
        <ele>72.102798461914</ele>
        <time>2020-06-19T11:35:52.986Z</time>
      </trkpt>
      <trkpt lat="46.56072" lon="0.63562">
        <ele>66.074821472168</ele>
        <time>2020-06-19T11:35:53.342Z</time>
      </trkpt>
      <trkpt lat="46.56032" lon="0.63565">
        <ele>64.408905029297</ele>
        <time>2020-06-19T11:35:53.704Z</time>
      </trkpt>
      <trkpt lat="46.5601" lon="0.63563">
        <ele>63.665031433105</ele>
        <time>2020-06-19T11:35:54.070Z</time>
      </trkpt>
      <trkpt lat="46.55989" lon="0.63557">
        <ele>63.051921844482</ele>
        <time>2020-06-19T11:35:54.439Z</time>
      </trkpt>
      <trkpt lat="46.55859" lon="0.63495">
        <ele>65</ele>
        <time>2020-06-19T11:35:54.830Z</time>
      </trkpt>
      <trkpt lat="46.55812" lon="0.63465">
        <ele>64.884857177734</ele>
        <time>2020-06-19T11:35:55.229Z</time>
      </trkpt>
      <trkpt lat="46.55709" lon="0.6339">
        <ele>62.749214172363</ele>
        <time>2020-06-19T11:35:55.647Z</time>
      </trkpt>
      <trkpt lat="46.55628" lon="0.63333">
        <ele>62.827171325684</ele>
        <time>2020-06-19T11:35:56.079Z</time>
      </trkpt>
      <trkpt lat="46.55562" lon="0.63302">
        <ele>64.979560852051</ele>
        <time>2020-06-19T11:35:56.522Z</time>
      </trkpt>
      <trkpt lat="46.55562" lon="0.63302">
        <ele>64.979263305664</ele>
        <time>2020-06-19T11:35:56.965Z</time>
      </trkpt>
      <trkpt lat="46.55561" lon="0.63301">
        <ele>64.955833435059</ele>
        <time>2020-06-19T11:35:57.409Z</time>
      </trkpt>
      <trkpt lat="46.55514" lon="0.63281">
        <ele>64.235954284668</ele>
        <time>2020-06-19T11:35:57.860Z</time>
      </trkpt>
      <trkpt lat="46.55403" lon="0.63235">
        <ele>64.362091064453</ele>
        <time>2020-06-19T11:35:58.330Z</time>
      </trkpt>
      <trkpt lat="46.55318" lon="0.63207">
        <ele>63.714931488037</ele>
        <time>2020-06-19T11:35:58.814Z</time>
      </trkpt>
      <trkpt lat="46.55235" lon="0.63184">
        <ele>64</ele>
        <time>2020-06-19T11:35:59.311Z</time>
      </trkpt>
      <trkpt lat="46.55141" lon="0.63157">
        <ele>63.356246948242</ele>
        <time>2020-06-19T11:35:59.824Z</time>
      </trkpt>
      <trkpt lat="46.55098" lon="0.63147">
        <ele>64.903991699219</ele>
        <time>2020-06-19T11:36:00.344Z</time>
      </trkpt>
      <trkpt lat="46.55041" lon="0.63145">
        <ele>65.795043945312</ele>
        <time>2020-06-19T11:36:00.873Z</time>
      </trkpt>
      <trkpt lat="46.5499" lon="0.63144">
        <ele>65.107063293457</ele>
        <time>2020-06-19T11:36:01.410Z</time>
      </trkpt>
      <trkpt lat="46.54963" lon="0.63147">
        <ele>65.116806030273</ele>
        <time>2020-06-19T11:36:01.951Z</time>
      </trkpt>
      <trkpt lat="46.54897" lon="0.6316">
        <ele>65.613914489746</ele>
        <time>2020-06-19T11:36:02.503Z</time>
      </trkpt>
      <trkpt lat="46.54793" lon="0.63183">
        <ele>64.294052124023</ele>
        <time>2020-06-19T11:36:03.072Z</time>
      </trkpt>
      <trkpt lat="46.54767" lon="0.63193">
        <ele>64.310508728027</ele>
        <time>2020-06-19T11:36:03.645Z</time>
      </trkpt>
      <trkpt lat="46.54743" lon="0.63207">
        <ele>64.142532348633</ele>
        <time>2020-06-19T11:36:04.222Z</time>
      </trkpt>
      <trkpt lat="46.54683" lon="0.63247">
        <ele>64.337387084961</ele>
        <time>2020-06-19T11:36:04.810Z</time>
      </trkpt>
      <trkpt lat="46.54647" lon="0.63269">
        <ele>63.44441986084</ele>
        <time>2020-06-19T11:36:05.404Z</time>
      </trkpt>
      <trkpt lat="46.54617" lon="0.63285">
        <ele>63.811401367188</ele>
        <time>2020-06-19T11:36:06.003Z</time>
      </trkpt>
      <trkpt lat="46.54574" lon="0.63305">
        <ele>64.876502990723</ele>
        <time>2020-06-19T11:36:06.609Z</time>
      </trkpt>
      <trkpt lat="46.54471" lon="0.63343">
        <ele>65.353233337402</ele>
        <time>2020-06-19T11:36:07.233Z</time>
      </trkpt>
      <trkpt lat="46.54471" lon="0.63343">
        <ele>65.352577209473</ele>
        <time>2020-06-19T11:36:07.857Z</time>
      </trkpt>
      <trkpt lat="46.5447" lon="0.63343">
        <ele>65.341400146484</ele>
        <time>2020-06-19T11:36:08.481Z</time>
      </trkpt>
      <trkpt lat="46.5444" lon="0.63358">
        <ele>64.801490783691</ele>
        <time>2020-06-19T11:36:09.110Z</time>
      </trkpt>
      <trkpt lat="46.54404" lon="0.63388">
        <ele>64.067825317383</ele>
        <time>2020-06-19T11:36:09.745Z</time>
      </trkpt>
      <trkpt lat="46.54297" lon="0.63482">
        <ele>65.87272644043</ele>
        <time>2020-06-19T11:36:10.400Z</time>
      </trkpt>
      <trkpt lat="46.54278" lon="0.63498">
        <ele>66.868560791016</ele>
        <time>2020-06-19T11:36:11.059Z</time>
      </trkpt>
      <trkpt lat="46.54257" lon="0.63512">
        <ele>67.06689453125</ele>
        <time>2020-06-19T11:36:11.722Z</time>
      </trkpt>
      <trkpt lat="46.54247" lon="0.63516">
        <ele>66.874923706055</ele>
        <time>2020-06-19T11:36:12.386Z</time>
      </trkpt>
      <trkpt lat="46.54225" lon="0.6352">
        <ele>66.612838745117</ele>
        <time>2020-06-19T11:36:13.054Z</time>
      </trkpt>
      <trkpt lat="46.54193" lon="0.63519">
        <ele>66.413452148438</ele>
        <time>2020-06-19T11:36:13.727Z</time>
      </trkpt>
      <trkpt lat="46.5398" lon="0.63512">
        <ele>66.048431396484</ele>
        <time>2020-06-19T11:36:14.434Z</time>
      </trkpt>
      <trkpt lat="46.53931" lon="0.63511">
        <ele>66.353958129883</ele>
        <time>2020-06-19T11:36:15.149Z</time>
      </trkpt>
      <trkpt lat="46.53898" lon="0.63513">
        <ele>66.071350097656</ele>
        <time>2020-06-19T11:36:15.869Z</time>
      </trkpt>
      <trkpt lat="46.53865" lon="0.6352">
        <ele>67.363998413086</ele>
        <time>2020-06-19T11:36:16.595Z</time>
      </trkpt>
      <trkpt lat="46.53814" lon="0.63538">
        <ele>66.976264953613</ele>
        <time>2020-06-19T11:36:17.329Z</time>
      </trkpt>
      <trkpt lat="46.53755" lon="0.63566">
        <ele>67.331207275391</ele>
        <time>2020-06-19T11:36:18.073Z</time>
      </trkpt>
      <trkpt lat="46.53672" lon="0.63594">
        <ele>69.486236572266</ele>
        <time>2020-06-19T11:36:18.831Z</time>
      </trkpt>
      <trkpt lat="46.53632" lon="0.63606">
        <ele>69.710662841797</ele>
        <time>2020-06-19T11:36:19.595Z</time>
      </trkpt>
      <trkpt lat="46.53566" lon="0.63621">
        <ele>69.350723266602</ele>
        <time>2020-06-19T11:36:20.370Z</time>
      </trkpt>
      <trkpt lat="46.53542" lon="0.63627">
        <ele>69.60710144043</ele>
        <time>2020-06-19T11:36:21.149Z</time>
      </trkpt>
      <trkpt lat="46.53524" lon="0.63632">
        <ele>70.039031982422</ele>
        <time>2020-06-19T11:36:21.931Z</time>
      </trkpt>
      <trkpt lat="46.53513" lon="0.63637">
        <ele>70.281219482422</ele>
        <time>2020-06-19T11:36:22.714Z</time>
      </trkpt>
      <trkpt lat="46.53513" lon="0.63637">
        <ele>70.281280517578</ele>
        <time>2020-06-19T11:36:23.497Z</time>
      </trkpt>
      <trkpt lat="46.53513" lon="0.63637">
        <ele>70.28638458252</ele>
        <time>2020-06-19T11:36:24.280Z</time>
      </trkpt>
      <trkpt lat="46.53482" lon="0.63655">
        <ele>70.581726074219</ele>
        <time>2020-06-19T11:36:25.069Z</time>
      </trkpt>
      <trkpt lat="46.53383" lon="0.63713">
        <ele>72.494010925293</ele>
        <time>2020-06-19T11:36:25.875Z</time>
      </trkpt>
      <trkpt lat="46.53341" lon="0.63734">
        <ele>72.889060974121</ele>
        <time>2020-06-19T11:36:26.688Z</time>
      </trkpt>
      <trkpt lat="46.53316" lon="0.63745">
        <ele>73.047729492188</ele>
        <time>2020-06-19T11:36:27.505Z</time>
      </trkpt>
      <trkpt lat="46.53218" lon="0.63772">
        <ele>70.454658508301</ele>
        <time>2020-06-19T11:36:28.338Z</time>
      </trkpt>
      <trkpt lat="46.53135" lon="0.6379">
        <ele>71.443099975586</ele>
        <time>2020-06-19T11:36:29.185Z</time>
      </trkpt>
      <trkpt lat="46.53111" lon="0.63792">
        <ele>71.371109008789</ele>
        <time>2020-06-19T11:36:30.035Z</time>
      </trkpt>
      <trkpt lat="46.53088" lon="0.63792">
        <ele>71.371109008789</ele>
        <time>2020-06-19T11:36:30.889Z</time>
      </trkpt>
      <trkpt lat="46.52969" lon="0.63773">
        <ele>73.876594543457</ele>
        <time>2020-06-19T11:36:31.762Z</time>
      </trkpt>
      <trkpt lat="46.52885" lon="0.63761">
        <ele>73.618804931641</ele>
        <time>2020-06-19T11:36:32.649Z</time>
      </trkpt>
      <trkpt lat="46.52855" lon="0.63761">
        <ele>72.89892578125</ele>
        <time>2020-06-19T11:36:33.541Z</time>
      </trkpt>
      <trkpt lat="46.52845" lon="0.63764">
        <ele>72.586982727051</ele>
        <time>2020-06-19T11:36:34.434Z</time>
      </trkpt>
      <trkpt lat="46.52845" lon="0.63762">
        <ele>72.634971618652</ele>
        <time>2020-06-19T11:36:35.327Z</time>
      </trkpt>
      <trkpt lat="46.52843" lon="0.6376">
        <ele>72.634971618652</ele>
        <time>2020-06-19T11:36:36.221Z</time>
      </trkpt>
      <trkpt lat="46.52838" lon="0.63759">
        <ele>72.538986206055</ele>
        <time>2020-06-19T11:36:37.116Z</time>
      </trkpt>
      <trkpt lat="46.52835" lon="0.63763">
        <ele>72.371017456055</ele>
        <time>2020-06-19T11:36:38.011Z</time>
      </trkpt>
      <trkpt lat="46.52835" lon="0.6377">
        <ele>72.20304107666</ele>
        <time>2020-06-19T11:36:38.907Z</time>
      </trkpt>
      <trkpt lat="46.52835" lon="0.63771">
        <ele>72.179046630859</ele>
        <time>2020-06-19T11:36:39.803Z</time>
      </trkpt>
      <trkpt lat="46.52802" lon="0.63801">
        <ele>71.182075500488</ele>
        <time>2020-06-19T11:36:40.705Z</time>
      </trkpt>
      <trkpt lat="46.52789" lon="0.63814">
        <ele>71.338043212891</ele>
        <time>2020-06-19T11:36:41.610Z</time>
      </trkpt>
      <trkpt lat="46.5277" lon="0.63825">
        <ele>71.566009521484</ele>
        <time>2020-06-19T11:36:42.518Z</time>
      </trkpt>
      <trkpt lat="46.52753" lon="0.6383">
        <ele>71.667778015137</ele>
        <time>2020-06-19T11:36:43.429Z</time>
      </trkpt>
      <trkpt lat="46.52728" lon="0.6383">
        <ele>71.597854614258</ele>
        <time>2020-06-19T11:36:44.344Z</time>
      </trkpt>
      <trkpt lat="46.52679" lon="0.63812">
        <ele>71.225921630859</ele>
        <time>2020-06-19T11:36:45.267Z</time>
      </trkpt>
      <trkpt lat="46.52612" lon="0.63789">
        <ele>70.875106811523</ele>
        <time>2020-06-19T11:36:46.201Z</time>
      </trkpt>
      <trkpt lat="46.52582" lon="0.63781">
        <ele>70.635147094727</ele>
        <time>2020-06-19T11:36:47.140Z</time>
      </trkpt>
      <trkpt lat="46.52523" lon="0.63771">
        <ele>69.973136901855</ele>
        <time>2020-06-19T11:36:48.088Z</time>
      </trkpt>
      <trkpt lat="46.52416" lon="0.63754">
        <ele>69.505210876465</ele>
        <time>2020-06-19T11:36:49.054Z</time>
      </trkpt>
      <trkpt lat="46.52331" lon="0.63741">
        <ele>69.206809997559</ele>
        <time>2020-06-19T11:36:50.033Z</time>
      </trkpt>
      <trkpt lat="46.52288" lon="0.63733">
        <ele>69.145713806152</ele>
        <time>2020-06-19T11:36:51.019Z</time>
      </trkpt>
      <trkpt lat="46.52203" lon="0.63708">
        <ele>69.288803100586</ele>
        <time>2020-06-19T11:36:52.019Z</time>
      </trkpt>
      <trkpt lat="46.52093" lon="0.63672">
        <ele>69.815582275391</ele>
        <time>2020-06-19T11:36:53.037Z</time>
      </trkpt>
      <trkpt lat="46.5191" lon="0.63588">
        <ele>71.829597473145</ele>
        <time>2020-06-19T11:36:54.086Z</time>
      </trkpt>
      <trkpt lat="46.51812" lon="0.6354">
        <ele>71.087104797363</ele>
        <time>2020-06-19T11:36:55.152Z</time>
      </trkpt>
      <trkpt lat="46.51714" lon="0.63474">
        <ele>70.878135681152</ele>
        <time>2020-06-19T11:36:56.235Z</time>
      </trkpt>
      <trkpt lat="46.51535" lon="0.63345">
        <ele>72.309814453125</ele>
        <time>2020-06-19T11:36:57.350Z</time>
      </trkpt>
      <trkpt lat="46.51483" lon="0.63311">
        <ele>71.443969726562</ele>
        <time>2020-06-19T11:36:58.474Z</time>
      </trkpt>
      <trkpt lat="46.51423" lon="0.63278">
        <ele>70.834800720215</ele>
        <time>2020-06-19T11:36:59.608Z</time>
      </trkpt>
      <trkpt lat="46.51395" lon="0.63266">
        <ele>70.101844787598</ele>
        <time>2020-06-19T11:37:00.747Z</time>
      </trkpt>
      <trkpt lat="46.51356" lon="0.63252">
        <ele>67.366302490234</ele>
        <time>2020-06-19T11:37:01.892Z</time>
      </trkpt>
      <trkpt lat="46.51311" lon="0.6324">
        <ele>66.071090698242</ele>
        <time>2020-06-19T11:37:03.045Z</time>
      </trkpt>
      <trkpt lat="46.51274" lon="0.63235">
        <ele>66.515014648438</ele>
        <time>2020-06-19T11:37:04.204Z</time>
      </trkpt>
      <trkpt lat="46.5105" lon="0.63228">
        <ele>69.125701904297</ele>
        <time>2020-06-19T11:37:05.399Z</time>
      </trkpt>
      <trkpt lat="46.51008" lon="0.63224">
        <ele>68.477813720703</ele>
        <time>2020-06-19T11:37:06.600Z</time>
      </trkpt>
      <trkpt lat="46.50986" lon="0.63215">
        <ele>68.029556274414</ele>
        <time>2020-06-19T11:37:07.805Z</time>
      </trkpt>
      <trkpt lat="46.50966" lon="0.63202">
        <ele>67.773849487305</ele>
        <time>2020-06-19T11:37:09.013Z</time>
      </trkpt>
      <trkpt lat="46.5095" lon="0.63189">
        <ele>67.509887695312</ele>
        <time>2020-06-19T11:37:10.224Z</time>
      </trkpt>
      <trkpt lat="46.50949" lon="0.63187">
        <ele>67.52188873291</ele>
        <time>2020-06-19T11:37:11.436Z</time>
      </trkpt>
      <trkpt lat="46.50947" lon="0.63185">
        <ele>67.497894287109</ele>
        <time>2020-06-19T11:37:12.648Z</time>
      </trkpt>
      <trkpt lat="46.50942" lon="0.63183">
        <ele>67.365913391113</ele>
        <time>2020-06-19T11:37:13.861Z</time>
      </trkpt>
      <trkpt lat="46.5094" lon="0.63184">
        <ele>67.269927978516</ele>
        <time>2020-06-19T11:37:15.074Z</time>
      </trkpt>
      <trkpt lat="46.50918" lon="0.63178">
        <ele>66.622039794922</ele>
        <time>2020-06-19T11:37:16.291Z</time>
      </trkpt>
      <trkpt lat="46.50868" lon="0.63155">
        <ele>66.14665222168</ele>
        <time>2020-06-19T11:37:17.516Z</time>
      </trkpt>
      <trkpt lat="46.5084" lon="0.63141">
        <ele>66.14665222168</ele>
        <time>2020-06-19T11:37:18.746Z</time>
      </trkpt>
      <trkpt lat="46.50812" lon="0.63124">
        <ele>66.357009887695</ele>
        <time>2020-06-19T11:37:19.981Z</time>
      </trkpt>
      <trkpt lat="46.50773" lon="0.63092">
        <ele>67.044609069824</ele>
        <time>2020-06-19T11:37:21.223Z</time>
      </trkpt>
      <trkpt lat="46.50701" lon="0.63035">
        <ele>68.611885070801</ele>
        <time>2020-06-19T11:37:22.478Z</time>
      </trkpt>
      <trkpt lat="46.507" lon="0.63035">
        <ele>68.629081726074</ele>
        <time>2020-06-19T11:37:23.733Z</time>
      </trkpt>
      <trkpt lat="46.50675" lon="0.63017">
        <ele>69.408950805664</ele>
        <time>2020-06-19T11:37:24.993Z</time>
      </trkpt>
      <trkpt lat="46.50647" lon="0.62999">
        <ele>70.11506652832</ele>
        <time>2020-06-19T11:37:26.258Z</time>
      </trkpt>
      <trkpt lat="46.50622" lon="0.62986">
        <ele>70.295036315918</ele>
        <time>2020-06-19T11:37:27.527Z</time>
      </trkpt>
      <trkpt lat="46.50593" lon="0.62972">
        <ele>70.439010620117</ele>
        <time>2020-06-19T11:37:28.801Z</time>
      </trkpt>
      <trkpt lat="46.50525" lon="0.62943">
        <ele>73.173080444336</ele>
        <time>2020-06-19T11:37:30.086Z</time>
      </trkpt>
      <trkpt lat="46.50497" lon="0.62929">
        <ele>75.020774841309</ele>
        <time>2020-06-19T11:37:31.376Z</time>
      </trkpt>
      <trkpt lat="46.50475" lon="0.62921">
        <ele>76.017738342285</ele>
        <time>2020-06-19T11:37:32.669Z</time>
      </trkpt>
      <trkpt lat="46.50451" lon="0.62915">
        <ele>76.52165222168</ele>
        <time>2020-06-19T11:37:33.966Z</time>
      </trkpt>
      <trkpt lat="46.50425" lon="0.62914">
        <ele>76.64900970459</ele>
        <time>2020-06-19T11:37:35.268Z</time>
      </trkpt>
      <trkpt lat="46.50303" lon="0.6292">
        <ele>75.762023925781</ele>
        <time>2020-06-19T11:37:36.589Z</time>
      </trkpt>
      <trkpt lat="46.50253" lon="0.62923">
        <ele>77.69465637207</ele>
        <time>2020-06-19T11:37:37.918Z</time>
      </trkpt>
      <trkpt lat="46.50229" lon="0.62928">
        <ele>78.184448242188</ele>
        <time>2020-06-19T11:37:39.251Z</time>
      </trkpt>
      <trkpt lat="46.50203" lon="0.62936">
        <ele>78.97631072998</ele>
        <time>2020-06-19T11:37:40.588Z</time>
      </trkpt>
      <trkpt lat="46.50147" lon="0.62955">
        <ele>80.365005493164</ele>
        <time>2020-06-19T11:37:41.934Z</time>
      </trkpt>
      <trkpt lat="46.50089" lon="0.62976">
        <ele>83.915969848633</ele>
        <time>2020-06-19T11:37:43.290Z</time>
      </trkpt>
      <trkpt lat="46.50049" lon="0.62988">
        <ele>84.700965881348</ele>
        <time>2020-06-19T11:37:44.653Z</time>
      </trkpt>
      <trkpt lat="46.50049" lon="0.62988">
        <ele>84.697937011719</ele>
        <time>2020-06-19T11:37:46.016Z</time>
      </trkpt>
      <trkpt lat="46.50003" lon="0.62994">
        <ele>84.04744720459</ele>
        <time>2020-06-19T11:37:47.386Z</time>
      </trkpt>
      <trkpt lat="46.4994" lon="0.62997">
        <ele>81.357284545898</ele>
        <time>2020-06-19T11:37:48.766Z</time>
      </trkpt>
      <trkpt lat="46.49928" lon="0.62996">
        <ele>80.745384216309</ele>
        <time>2020-06-19T11:37:50.148Z</time>
      </trkpt>
      <trkpt lat="46.49911" lon="0.62992">
        <ele>80.742233276367</ele>
        <time>2020-06-19T11:37:51.533Z</time>
      </trkpt>
      <trkpt lat="46.49884" lon="0.62977">
        <ele>81.125900268555</ele>
        <time>2020-06-19T11:37:52.922Z</time>
      </trkpt>
      <trkpt lat="46.49845" lon="0.62943">
        <ele>82.53971862793</ele>
        <time>2020-06-19T11:37:54.319Z</time>
      </trkpt>
      <trkpt lat="46.49845" lon="0.62943">
        <ele>82.555755615234</ele>
        <time>2020-06-19T11:37:55.716Z</time>
      </trkpt>
      <trkpt lat="46.49831" lon="0.62931">
        <ele>83.06763458252</ele>
        <time>2020-06-19T11:37:57.115Z</time>
      </trkpt>
      <trkpt lat="46.49816" lon="0.62913">
        <ele>83.987274169922</ele>
        <time>2020-06-19T11:37:58.517Z</time>
      </trkpt>
      <trkpt lat="46.49805" lon="0.62897">
        <ele>84.611167907715</ele>
        <time>2020-06-19T11:37:59.922Z</time>
      </trkpt>
      <trkpt lat="46.49804" lon="0.6289">
        <ele>85.067092895508</ele>
        <time>2020-06-19T11:38:01.328Z</time>
      </trkpt>
      <trkpt lat="46.49801" lon="0.62881">
        <ele>85.624893188477</ele>
        <time>2020-06-19T11:38:02.735Z</time>
      </trkpt>
      <trkpt lat="46.49796" lon="0.62874">
        <ele>85.972831726074</ele>
        <time>2020-06-19T11:38:04.143Z</time>
      </trkpt>
      <trkpt lat="46.4979" lon="0.6287">
        <ele>86.02082824707</ele>
        <time>2020-06-19T11:38:05.552Z</time>
      </trkpt>
      <trkpt lat="46.49783" lon="0.6287">
        <ele>85.684883117676</ele>
        <time>2020-06-19T11:38:06.962Z</time>
      </trkpt>
      <trkpt lat="46.49776" lon="0.62872">
        <ele>85.180969238281</ele>
        <time>2020-06-19T11:38:08.373Z</time>
      </trkpt>
      <trkpt lat="46.49771" lon="0.62878">
        <ele>84.437088012695</ele>
        <time>2020-06-19T11:38:09.785Z</time>
      </trkpt>
      <trkpt lat="46.49767" lon="0.62885">
        <ele>83.657218933105</ele>
        <time>2020-06-19T11:38:11.198Z</time>
      </trkpt>
      <trkpt lat="46.49765" lon="0.62895">
        <ele>82.835464477539</ele>
        <time>2020-06-19T11:38:12.612Z</time>
      </trkpt>
      <trkpt lat="46.49766" lon="0.6291">
        <ele>81.803634643555</ele>
        <time>2020-06-19T11:38:14.028Z</time>
      </trkpt>
      <trkpt lat="46.4977" lon="0.62918">
        <ele>81.419700622559</ele>
        <time>2020-06-19T11:38:15.445Z</time>
      </trkpt>
      <trkpt lat="46.49776" lon="0.62924">
        <ele>81.275726318359</ele>
        <time>2020-06-19T11:38:16.863Z</time>
      </trkpt>
      <trkpt lat="46.49787" lon="0.62926">
        <ele>81.659660339355</ele>
        <time>2020-06-19T11:38:18.283Z</time>
      </trkpt>
      <trkpt lat="46.49784" lon="0.62956">
        <ele>80.07006072998</ele>
        <time>2020-06-19T11:38:19.706Z</time>
      </trkpt>
      <trkpt lat="46.49785" lon="0.62972">
        <ele>79.468215942383</ele>
        <time>2020-06-19T11:38:21.131Z</time>
      </trkpt>
      <trkpt lat="46.49793" lon="0.62986">
        <ele>78.892311096191</ele>
        <time>2020-06-19T11:38:22.558Z</time>
      </trkpt>
      <trkpt lat="46.49797" lon="0.63001">
        <ele>78.220428466797</ele>
        <time>2020-06-19T11:38:23.987Z</time>
      </trkpt>
      <trkpt lat="46.49795" lon="0.63014">
        <ele>77.572532653809</ele>
        <time>2020-06-19T11:38:25.417Z</time>
      </trkpt>
      <trkpt lat="46.4978" lon="0.63035">
        <ele>76.384735107422</ele>
        <time>2020-06-19T11:38:26.851Z</time>
      </trkpt>
      <trkpt lat="46.4976" lon="0.63075">
        <ele>74.772552490234</ele>
        <time>2020-06-19T11:38:28.290Z</time>
      </trkpt>
      <trkpt lat="46.49739" lon="0.6311">
        <ele>73.68083190918</ele>
        <time>2020-06-19T11:38:29.734Z</time>
      </trkpt>
      <trkpt lat="46.49739" lon="0.6311">
        <ele>73.680732727051</ele>
        <time>2020-06-19T11:38:31.178Z</time>
      </trkpt>
      <trkpt lat="46.49727" lon="0.63127">
        <ele>73.12882232666</ele>
        <time>2020-06-19T11:38:32.625Z</time>
      </trkpt>
      <trkpt lat="46.49713" lon="0.63147">
        <ele>72.480934143066</ele>
        <time>2020-06-19T11:38:34.075Z</time>
      </trkpt>
      <trkpt lat="46.49711" lon="0.63158">
        <ele>72.192977905273</ele>
        <time>2020-06-19T11:38:35.526Z</time>
      </trkpt>
      <trkpt lat="46.49706" lon="0.63198">
        <ele>71.327880859375</ele>
        <time>2020-06-19T11:38:36.982Z</time>
      </trkpt>
      <trkpt lat="46.49702" lon="0.6325">
        <ele>70.629112243652</ele>
        <time>2020-06-19T11:38:38.444Z</time>
      </trkpt>
      <trkpt lat="46.49696" lon="0.63309">
        <ele>68.837478637695</ele>
        <time>2020-06-19T11:38:39.912Z</time>
      </trkpt>
      <trkpt lat="46.49684" lon="0.63344">
        <ele>67.997619628906</ele>
        <time>2020-06-19T11:38:41.385Z</time>
      </trkpt>
      <trkpt lat="46.49669" lon="0.63381">
        <ele>67.112716674805</ele>
        <time>2020-06-19T11:38:42.862Z</time>
      </trkpt>
      <trkpt lat="46.49669" lon="0.63382">
        <ele>67.08576965332</ele>
        <time>2020-06-19T11:38:44.339Z</time>
      </trkpt>
      <trkpt lat="46.49638" lon="0.63449">
        <ele>67.143745422363</ele>
        <time>2020-06-19T11:38:45.825Z</time>
      </trkpt>
      <trkpt lat="46.49618" lon="0.63492">
        <ele>67.55379486084</ele>
        <time>2020-06-19T11:38:47.317Z</time>
      </trkpt>
      <trkpt lat="46.49504" lon="0.63716">
        <ele>68.248519897461</ele>
        <time>2020-06-19T11:38:48.840Z</time>
      </trkpt>
      <trkpt lat="46.49457" lon="0.63807">
        <ele>68.315383911133</ele>
        <time>2020-06-19T11:38:50.375Z</time>
      </trkpt>
      <trkpt lat="46.49437" lon="0.63851">
        <ele>68.416305541992</ele>
        <time>2020-06-19T11:38:51.916Z</time>
      </trkpt>
      <trkpt lat="46.49436" lon="0.63853">
        <ele>68.391822814941</ele>
        <time>2020-06-19T11:38:53.458Z</time>
      </trkpt>
      <trkpt lat="46.49426" lon="0.63885">
        <ele>68.007888793945</ele>
        <time>2020-06-19T11:38:55.003Z</time>
      </trkpt>
      <trkpt lat="46.49422" lon="0.63904">
        <ele>68.220069885254</ele>
        <time>2020-06-19T11:38:56.551Z</time>
      </trkpt>
      <trkpt lat="46.49413" lon="0.64038">
        <ele>68.648254394531</ele>
        <time>2020-06-19T11:38:58.113Z</time>
      </trkpt>
      <trkpt lat="46.49413" lon="0.6404">
        <ele>68.703598022461</ele>
        <time>2020-06-19T11:38:59.676Z</time>
      </trkpt>
      <trkpt lat="46.49408" lon="0.64056">
        <ele>68.912460327148</ele>
        <time>2020-06-19T11:39:01.241Z</time>
      </trkpt>
      <trkpt lat="46.49395" lon="0.64072">
        <ele>68.587783813477</ele>
        <time>2020-06-19T11:39:02.808Z</time>
      </trkpt>
      <trkpt lat="46.49377" lon="0.64083">
        <ele>68.539794921875</ele>
        <time>2020-06-19T11:39:04.379Z</time>
      </trkpt>
      <trkpt lat="46.49366" lon="0.64089">
        <ele>68.527793884277</ele>
        <time>2020-06-19T11:39:05.951Z</time>
      </trkpt>
      <trkpt lat="46.49355" lon="0.6409">
        <ele>68.635780334473</ele>
        <time>2020-06-19T11:39:07.525Z</time>
      </trkpt>
      <trkpt lat="46.49334" lon="0.64088">
        <ele>69.592254638672</ele>
        <time>2020-06-19T11:39:09.103Z</time>
      </trkpt>
      <trkpt lat="46.4931" lon="0.64073">
        <ele>70.326820373535</ele>
        <time>2020-06-19T11:39:10.685Z</time>
      </trkpt>
      <trkpt lat="46.49304" lon="0.64067">
        <ele>70.326820373535</ele>
        <time>2020-06-19T11:39:12.268Z</time>
      </trkpt>
      <trkpt lat="46.49303" lon="0.64066">
        <ele>70.326820373535</ele>
        <time>2020-06-19T11:39:13.851Z</time>
      </trkpt>
      <trkpt lat="46.49281" lon="0.64042">
        <ele>70.427032470703</ele>
        <time>2020-06-19T11:39:15.438Z</time>
      </trkpt>
      <trkpt lat="46.49275" lon="0.64037">
        <ele>70.499015808105</ele>
        <time>2020-06-19T11:39:17.027Z</time>
      </trkpt>
      <trkpt lat="46.49271" lon="0.64036">
        <ele>70.547012329102</ele>
        <time>2020-06-19T11:39:18.616Z</time>
      </trkpt>
      <trkpt lat="46.4927" lon="0.64029">
        <ele>70.559005737305</ele>
        <time>2020-06-19T11:39:20.206Z</time>
      </trkpt>
      <trkpt lat="46.49266" lon="0.6402">
        <ele>70.607002258301</ele>
        <time>2020-06-19T11:39:21.797Z</time>
      </trkpt>
      <trkpt lat="46.4926" lon="0.64009">
        <ele>70.678985595703</ele>
        <time>2020-06-19T11:39:23.390Z</time>
      </trkpt>
      <trkpt lat="46.49241" lon="0.64013">
        <ele>70.906280517578</ele>
        <time>2020-06-19T11:39:24.986Z</time>
      </trkpt>
      <trkpt lat="46.49241" lon="0.64013">
        <ele>70.906402587891</ele>
        <time>2020-06-19T11:39:26.582Z</time>
      </trkpt>
      <trkpt lat="46.4924" lon="0.64013">
        <ele>70.918952941895</ele>
        <time>2020-06-19T11:39:28.178Z</time>
      </trkpt>
      <trkpt lat="46.49226" lon="0.64015">
        <ele>71</ele>
        <time>2020-06-19T11:39:29.776Z</time>
      </trkpt>
      <trkpt lat="46.49173" lon="0.64031">
        <ele>71</ele>
        <time>2020-06-19T11:39:31.383Z</time>
      </trkpt>
      <trkpt lat="46.49147" lon="0.6404">
        <ele>70.965232849121</ele>
        <time>2020-06-19T11:39:32.994Z</time>
      </trkpt>
      <trkpt lat="46.49128" lon="0.64042">
        <ele>71.014320373535</ele>
        <time>2020-06-19T11:39:34.608Z</time>
      </trkpt>
      <trkpt lat="46.49098" lon="0.64048">
        <ele>71.51823425293</ele>
        <time>2020-06-19T11:39:36.227Z</time>
      </trkpt>
      <trkpt lat="46.4908" lon="0.64056">
        <ele>71.882400512695</ele>
        <time>2020-06-19T11:39:37.849Z</time>
      </trkpt>
      <trkpt lat="46.49068" lon="0.6407">
        <ele>71.805656433105</ele>
        <time>2020-06-19T11:39:39.474Z</time>
      </trkpt>
      <trkpt lat="46.49053" lon="0.64099">
        <ele>71.115165710449</ele>
        <time>2020-06-19T11:39:41.103Z</time>
      </trkpt>
      <trkpt lat="46.4904" lon="0.64113">
        <ele>70.589042663574</ele>
        <time>2020-06-19T11:39:42.734Z</time>
      </trkpt>
      <trkpt lat="46.49018" lon="0.64119">
        <ele>69.653198242188</ele>
        <time>2020-06-19T11:39:44.369Z</time>
      </trkpt>
      <trkpt lat="46.48997" lon="0.64122">
        <ele>68.825340270996</ele>
        <time>2020-06-19T11:39:46.007Z</time>
      </trkpt>
      <trkpt lat="46.48982" lon="0.6413">
        <ele>68.136756896973</ele>
        <time>2020-06-19T11:39:47.648Z</time>
      </trkpt>
      <trkpt lat="46.48965" lon="0.64143">
        <ele>68.436798095703</ele>
        <time>2020-06-19T11:39:49.292Z</time>
      </trkpt>
      <trkpt lat="46.48943" lon="0.6417">
        <ele>68.964714050293</ele>
        <time>2020-06-19T11:39:50.940Z</time>
      </trkpt>
      <trkpt lat="46.48925" lon="0.64192">
        <ele>69.025428771973</ele>
        <time>2020-06-19T11:39:52.592Z</time>
      </trkpt>
      <trkpt lat="46.48924" lon="0.64193">
        <ele>69.022827148438</ele>
        <time>2020-06-19T11:39:54.244Z</time>
      </trkpt>
      <trkpt lat="46.48893" lon="0.64228">
        <ele>69.082252502441</ele>
        <time>2020-06-19T11:39:55.903Z</time>
      </trkpt>
      <trkpt lat="46.48733" lon="0.64386">
        <ele>69.001937866211</ele>
        <time>2020-06-19T11:39:57.593Z</time>
      </trkpt>
      <trkpt lat="46.48733" lon="0.64386">
        <ele>69.006362915039</ele>
        <time>2020-06-19T11:39:59.283Z</time>
      </trkpt>
      <trkpt lat="46.48732" lon="0.64387">
        <ele>69.013931274414</ele>
        <time>2020-06-19T11:40:00.973Z</time>
      </trkpt>
      <trkpt lat="46.4869" lon="0.64428">
        <ele>69.517852783203</ele>
        <time>2020-06-19T11:40:02.671Z</time>
      </trkpt>
      <trkpt lat="46.48642" lon="0.64472">
        <ele>69.90625</ele>
        <time>2020-06-19T11:40:04.378Z</time>
      </trkpt>
      <trkpt lat="46.48609" lon="0.64491">
        <ele>69.510314941406</ele>
        <time>2020-06-19T11:40:06.091Z</time>
      </trkpt>
      <trkpt lat="46.48574" lon="0.64504">
        <ele>70.07585144043</ele>
        <time>2020-06-19T11:40:07.810Z</time>
      </trkpt>
      <trkpt lat="46.48519" lon="0.64518">
        <ele>71.173690795898</ele>
        <time>2020-06-19T11:40:09.537Z</time>
      </trkpt>
      <trkpt lat="46.48452" lon="0.64528">
        <ele>71.546432495117</ele>
        <time>2020-06-19T11:40:11.275Z</time>
      </trkpt>
      <trkpt lat="46.48428" lon="0.64535">
        <ele>70.886535644531</ele>
        <time>2020-06-19T11:40:13.017Z</time>
      </trkpt>
      <trkpt lat="46.48417" lon="0.64543">
        <ele>70.526596069336</ele>
        <time>2020-06-19T11:40:14.761Z</time>
      </trkpt>
      <trkpt lat="46.48407" lon="0.64553">
        <ele>70.166656494141</ele>
        <time>2020-06-19T11:40:16.507Z</time>
      </trkpt>
      <trkpt lat="46.48389" lon="0.64581">
        <ele>69.786529541016</ele>
        <time>2020-06-19T11:40:18.257Z</time>
      </trkpt>
      <trkpt lat="46.48375" lon="0.64597">
        <ele>69.762535095215</ele>
        <time>2020-06-19T11:40:20.010Z</time>
      </trkpt>
      <trkpt lat="46.48307" lon="0.64644">
        <ele>70.226165771484</ele>
        <time>2020-06-19T11:40:21.775Z</time>
      </trkpt>
      <trkpt lat="46.48251" lon="0.64669">
        <ele>71.019401550293</ele>
        <time>2020-06-19T11:40:23.550Z</time>
      </trkpt>
      <trkpt lat="46.48202" lon="0.64692">
        <ele>70.817001342773</ele>
        <time>2020-06-19T11:40:25.333Z</time>
      </trkpt>
      <trkpt lat="46.48168" lon="0.64725">
        <ele>72.193649291992</ele>
        <time>2020-06-19T11:40:27.122Z</time>
      </trkpt>
      <trkpt lat="46.48148" lon="0.64744">
        <ele>72.063293457031</ele>
        <time>2020-06-19T11:40:28.915Z</time>
      </trkpt>
      <trkpt lat="46.48139" lon="0.6475">
        <ele>71.631362915039</ele>
        <time>2020-06-19T11:40:30.710Z</time>
      </trkpt>
      <trkpt lat="46.48113" lon="0.6476">
        <ele>70.647529602051</ele>
        <time>2020-06-19T11:40:32.509Z</time>
      </trkpt>
      <trkpt lat="46.48107" lon="0.64761">
        <ele>70.482597351074</ele>
        <time>2020-06-19T11:40:34.309Z</time>
      </trkpt>
      <trkpt lat="46.481" lon="0.6476">
        <ele>70.422607421875</ele>
        <time>2020-06-19T11:40:36.110Z</time>
      </trkpt>
      <trkpt lat="46.48082" lon="0.64772">
        <ele>69.91869354248</ele>
        <time>2020-06-19T11:40:37.914Z</time>
      </trkpt>
      <trkpt lat="46.48065" lon="0.64784">
        <ele>69.476577758789</ele>
        <time>2020-06-19T11:40:39.721Z</time>
      </trkpt>
      <trkpt lat="46.48035" lon="0.64804">
        <ele>69.716537475586</ele>
        <time>2020-06-19T11:40:41.534Z</time>
      </trkpt>
      <trkpt lat="46.47933" lon="0.64853">
        <ele>71.181480407715</ele>
        <time>2020-06-19T11:40:43.364Z</time>
      </trkpt>
      <trkpt lat="46.47921" lon="0.64856">
        <ele>71.07349395752</ele>
        <time>2020-06-19T11:40:45.196Z</time>
      </trkpt>
      <trkpt lat="46.47907" lon="0.64855">
        <ele>71.109489440918</ele>
        <time>2020-06-19T11:40:47.030Z</time>
      </trkpt>
      <trkpt lat="46.47896" lon="0.64848">
        <ele>71.317184448242</ele>
        <time>2020-06-19T11:40:48.866Z</time>
      </trkpt>
      <trkpt lat="46.47883" lon="0.64831">
        <ele>71.773109436035</ele>
        <time>2020-06-19T11:40:50.705Z</time>
      </trkpt>
      <trkpt lat="46.47873" lon="0.64802">
        <ele>72.685508728027</ele>
        <time>2020-06-19T11:40:52.547Z</time>
      </trkpt>
      <trkpt lat="46.47863" lon="0.64776">
        <ele>72.877479553223</ele>
        <time>2020-06-19T11:40:54.393Z</time>
      </trkpt>
      <trkpt lat="46.47851" lon="0.64758">
        <ele>72.949462890625</ele>
        <time>2020-06-19T11:40:56.241Z</time>
      </trkpt>
      <trkpt lat="46.47839" lon="0.64744">
        <ele>72.973457336426</ele>
        <time>2020-06-19T11:40:58.092Z</time>
      </trkpt>
      <trkpt lat="46.47809" lon="0.64722">
        <ele>73.053649902344</ele>
        <time>2020-06-19T11:40:59.948Z</time>
      </trkpt>
      <trkpt lat="46.47788" lon="0.64709">
        <ele>73.577156066895</ele>
        <time>2020-06-19T11:41:01.808Z</time>
      </trkpt>
      <trkpt lat="46.47788" lon="0.64709">
        <ele>73.577217102051</ele>
        <time>2020-06-19T11:41:03.668Z</time>
      </trkpt>
      <trkpt lat="46.47788" lon="0.64709">
        <ele>73.583122253418</ele>
        <time>2020-06-19T11:41:05.528Z</time>
      </trkpt>
      <trkpt lat="46.47751" lon="0.64687">
        <ele>74.554962158203</ele>
        <time>2020-06-19T11:41:07.394Z</time>
      </trkpt>
      <trkpt lat="46.4768" lon="0.64653">
        <ele>75.586853027344</ele>
        <time>2020-06-19T11:41:09.272Z</time>
      </trkpt>
      <trkpt lat="46.47567" lon="0.64624">
        <ele>77.132972717285</ele>
        <time>2020-06-19T11:41:11.169Z</time>
      </trkpt>
      <trkpt lat="46.47549" lon="0.6462">
        <ele>77.568077087402</ele>
        <time>2020-06-19T11:41:13.069Z</time>
      </trkpt>
      <trkpt lat="46.47544" lon="0.64617">
        <ele>77.676063537598</ele>
        <time>2020-06-19T11:41:14.969Z</time>
      </trkpt>
      <trkpt lat="46.47538" lon="0.64608">
        <ele>78.000007629395</ele>
        <time>2020-06-19T11:41:16.871Z</time>
      </trkpt>
      <trkpt lat="46.47531" lon="0.64585">
        <ele>78.456352233887</ele>
        <time>2020-06-19T11:41:18.776Z</time>
      </trkpt>
      <trkpt lat="46.47497" lon="0.64609">
        <ele>77.964012145996</ele>
        <time>2020-06-19T11:41:20.687Z</time>
      </trkpt>
      <trkpt lat="46.47426" lon="0.64659">
        <ele>76.847633361816</ele>
        <time>2020-06-19T11:41:22.610Z</time>
      </trkpt>
      <trkpt lat="46.4736" lon="0.647">
        <ele>75.950378417969</ele>
        <time>2020-06-19T11:41:24.545Z</time>
      </trkpt>
      <trkpt lat="46.47276" lon="0.64748">
        <ele>76.307228088379</ele>
        <time>2020-06-19T11:41:26.494Z</time>
      </trkpt>
      <trkpt lat="46.47097" lon="0.64845">
        <ele>76.120475769043</ele>
        <time>2020-06-19T11:41:28.474Z</time>
      </trkpt>
      <trkpt lat="46.4703" lon="0.64882">
        <ele>75.657234191895</ele>
        <time>2020-06-19T11:41:30.465Z</time>
      </trkpt>
      <trkpt lat="46.46989" lon="0.64909">
        <ele>74.648384094238</ele>
        <time>2020-06-19T11:41:32.464Z</time>
      </trkpt>
      <trkpt lat="46.46957" lon="0.64947">
        <ele>74.266014099121</ele>
        <time>2020-06-19T11:41:34.469Z</time>
      </trkpt>
      <trkpt lat="46.46927" lon="0.64987">
        <ele>73.572189331055</ele>
        <time>2020-06-19T11:41:36.481Z</time>
      </trkpt>
      <trkpt lat="46.46913" lon="0.65004">
        <ele>72.908088684082</ele>
        <time>2020-06-19T11:41:38.496Z</time>
      </trkpt>
      <trkpt lat="46.46888" lon="0.65028">
        <ele>71.882530212402</ele>
        <time>2020-06-19T11:41:40.515Z</time>
      </trkpt>
      <trkpt lat="46.46885" lon="0.6503">
        <ele>71.794425964355</ele>
        <time>2020-06-19T11:41:42.535Z</time>
      </trkpt>
      <trkpt lat="46.46884" lon="0.65031">
        <ele>71.774543762207</ele>
        <time>2020-06-19T11:41:44.555Z</time>
      </trkpt>
      <trkpt lat="46.46884" lon="0.6503">
        <ele>71.810539245605</ele>
        <time>2020-06-19T11:41:46.575Z</time>
      </trkpt>
      <trkpt lat="46.46687" lon="0.6514">
        <ele>71.169792175293</ele>
        <time>2020-06-19T11:41:48.629Z</time>
      </trkpt>
      <trkpt lat="46.46687" lon="0.6514">
        <ele>71.16650390625</ele>
        <time>2020-06-19T11:41:50.683Z</time>
      </trkpt>
      <trkpt lat="46.46687" lon="0.6514">
        <ele>71.149772644043</ele>
        <time>2020-06-19T11:41:52.737Z</time>
      </trkpt>
      <trkpt lat="46.46565" lon="0.65207">
        <ele>74.040802001953</ele>
        <time>2020-06-19T11:41:54.812Z</time>
      </trkpt>
      <trkpt lat="46.46562" lon="0.65209">
        <ele>74.148780822754</ele>
        <time>2020-06-19T11:41:56.888Z</time>
      </trkpt>
      <trkpt lat="46.46564" lon="0.65218">
        <ele>74.054710388184</ele>
        <time>2020-06-19T11:41:58.965Z</time>
      </trkpt>
      <trkpt lat="46.46558" lon="0.65227">
        <ele>73.817306518555</ele>
        <time>2020-06-19T11:42:01.043Z</time>
      </trkpt>
      <trkpt lat="46.46531" lon="0.65247">
        <ele>73.421371459961</ele>
        <time>2020-06-19T11:42:03.126Z</time>
      </trkpt>
      <trkpt lat="46.46509" lon="0.65258">
        <ele>73.591102600098</ele>
        <time>2020-06-19T11:42:05.213Z</time>
      </trkpt>
      <trkpt lat="46.46458" lon="0.65281">
        <ele>73.22395324707</ele>
        <time>2020-06-19T11:42:07.308Z</time>
      </trkpt>
      <trkpt lat="46.46443" lon="0.6529">
        <ele>73.547897338867</ele>
        <time>2020-06-19T11:42:09.406Z</time>
      </trkpt>
      <trkpt lat="46.46435" lon="0.65298">
        <ele>73.83585357666</ele>
        <time>2020-06-19T11:42:11.505Z</time>
      </trkpt>
      <trkpt lat="46.4643" lon="0.65308">
        <ele>73.93473815918</ele>
        <time>2020-06-19T11:42:13.606Z</time>
      </trkpt>
      <trkpt lat="46.46423" lon="0.65322">
        <ele>73.766761779785</ele>
        <time>2020-06-19T11:42:15.709Z</time>
      </trkpt>
      <trkpt lat="46.46409" lon="0.65332">
        <ele>74.362297058105</ele>
        <time>2020-06-19T11:42:17.814Z</time>
      </trkpt>
      <trkpt lat="46.46402" lon="0.65322">
        <ele>74.374298095703</ele>
        <time>2020-06-19T11:42:19.921Z</time>
      </trkpt>
      <trkpt lat="46.46394" lon="0.6532">
        <ele>74.287963867188</ele>
        <time>2020-06-19T11:42:22.029Z</time>
      </trkpt>
      <trkpt lat="46.46385" lon="0.65326">
        <ele>74.215972900391</ele>
        <time>2020-06-19T11:42:24.139Z</time>
      </trkpt>
      <trkpt lat="46.46296" lon="0.65382">
        <ele>72.276809692383</ele>
        <time>2020-06-19T11:42:26.264Z</time>
      </trkpt>
      <trkpt lat="46.46249" lon="0.6541">
        <ele>70.484092712402</ele>
        <time>2020-06-19T11:42:28.397Z</time>
      </trkpt>
      <trkpt lat="46.46098" lon="0.65505">
        <ele>71.954460144043</ele>
        <time>2020-06-19T11:42:30.557Z</time>
      </trkpt>
      <trkpt lat="46.46051" lon="0.65543">
        <ele>70.884796142578</ele>
        <time>2020-06-19T11:42:32.725Z</time>
      </trkpt>
      <trkpt lat="46.45981" lon="0.65608">
        <ele>71.081726074219</ele>
        <time>2020-06-19T11:42:34.907Z</time>
      </trkpt>
      <trkpt lat="46.45928" lon="0.65651">
        <ele>72.673812866211</ele>
        <time>2020-06-19T11:42:37.098Z</time>
      </trkpt>
      <trkpt lat="46.45849" lon="0.65714">
        <ele>71.731262207031</ele>
        <time>2020-06-19T11:42:39.304Z</time>
      </trkpt>
      <trkpt lat="46.45761" lon="0.65782">
        <ele>74.569160461426</ele>
        <time>2020-06-19T11:42:41.526Z</time>
      </trkpt>
      <trkpt lat="46.45706" lon="0.65815">
        <ele>72.195014953613</ele>
        <time>2020-06-19T11:42:43.757Z</time>
      </trkpt>
      <trkpt lat="46.45533" lon="0.65915">
        <ele>72.743583679199</ele>
        <time>2020-06-19T11:42:46.018Z</time>
      </trkpt>
      <trkpt lat="46.45478" lon="0.65944">
        <ele>72.082298278809</ele>
        <time>2020-06-19T11:42:48.288Z</time>
      </trkpt>
      <trkpt lat="46.45478" lon="0.65944">
        <ele>72.068367004395</ele>
        <time>2020-06-19T11:42:50.558Z</time>
      </trkpt>
      <trkpt lat="46.45428" lon="0.65973">
        <ele>70.60147857666</ele>
        <time>2020-06-19T11:42:52.837Z</time>
      </trkpt>
      <trkpt lat="46.45386" lon="0.66004">
        <ele>70.831748962402</ele>
        <time>2020-06-19T11:42:55.124Z</time>
      </trkpt>
      <trkpt lat="46.45314" lon="0.66065">
        <ele>72</ele>
        <time>2020-06-19T11:42:57.424Z</time>
      </trkpt>
      <trkpt lat="46.45283" lon="0.66091">
        <ele>72</ele>
        <time>2020-06-19T11:42:59.730Z</time>
      </trkpt>
      <trkpt lat="46.4523" lon="0.66121">
        <ele>72.03092956543</ele>
        <time>2020-06-19T11:43:02.045Z</time>
      </trkpt>
      <trkpt lat="46.45219" lon="0.66127">
        <ele>72.108375549316</ele>
        <time>2020-06-19T11:43:04.362Z</time>
      </trkpt>
      <trkpt lat="46.45214" lon="0.66102">
        <ele>72.222900390625</ele>
        <time>2020-06-19T11:43:06.682Z</time>
      </trkpt>
      <trkpt lat="46.45173" lon="0.66132">
        <ele>72.048385620117</ele>
        <time>2020-06-19T11:43:09.009Z</time>
      </trkpt>
      <trkpt lat="46.45117" lon="0.6617">
        <ele>72.365867614746</ele>
        <time>2020-06-19T11:43:11.346Z</time>
      </trkpt>
      <trkpt lat="46.45075" lon="0.66199">
        <ele>73.020004272461</ele>
        <time>2020-06-19T11:43:13.690Z</time>
      </trkpt>
      <trkpt lat="46.45075" lon="0.66199">
        <ele>73.025756835938</ele>
        <time>2020-06-19T11:43:16.034Z</time>
      </trkpt>
      <trkpt lat="46.44953" lon="0.66283">
        <ele>74.645622253418</ele>
        <time>2020-06-19T11:43:18.400Z</time>
      </trkpt>
      <trkpt lat="46.4486" lon="0.66346">
        <ele>72.491432189941</ele>
        <time>2020-06-19T11:43:20.782Z</time>
      </trkpt>
      <trkpt lat="46.44837" lon="0.66361">
        <ele>72.746147155762</ele>
        <time>2020-06-19T11:43:23.168Z</time>
      </trkpt>
      <trkpt lat="46.44811" lon="0.66365">
        <ele>72.941909790039</ele>
        <time>2020-06-19T11:43:25.559Z</time>
      </trkpt>
      <trkpt lat="46.44797" lon="0.66368">
        <ele>72.783142089844</ele>
        <time>2020-06-19T11:43:27.952Z</time>
      </trkpt>
      <trkpt lat="46.44787" lon="0.66374">
        <ele>72.855133056641</ele>
        <time>2020-06-19T11:43:30.347Z</time>
      </trkpt>
      <trkpt lat="46.4476" lon="0.66395">
        <ele>72.892906188965</ele>
        <time>2020-06-19T11:43:32.746Z</time>
      </trkpt>
      <trkpt lat="46.44744" lon="0.66399">
        <ele>72.878997802734</ele>
        <time>2020-06-19T11:43:35.148Z</time>
      </trkpt>
      <trkpt lat="46.44728" lon="0.664">
        <ele>73.167083740234</ele>
        <time>2020-06-19T11:43:37.553Z</time>
      </trkpt>
      <trkpt lat="46.4471" lon="0.664">
        <ele>73.167083740234</ele>
        <time>2020-06-19T11:43:39.961Z</time>
      </trkpt>
      <trkpt lat="46.44674" lon="0.66395">
        <ele>73.107093811035</ele>
        <time>2020-06-19T11:43:42.374Z</time>
      </trkpt>
      <trkpt lat="46.44629" lon="0.66399">
        <ele>73</ele>
        <time>2020-06-19T11:43:44.795Z</time>
      </trkpt>
      <trkpt lat="46.44579" lon="0.66408">
        <ele>73</ele>
        <time>2020-06-19T11:43:47.224Z</time>
      </trkpt>
      <trkpt lat="46.4456" lon="0.66405">
        <ele>73.06958770752</ele>
        <time>2020-06-19T11:43:49.656Z</time>
      </trkpt>
      <trkpt lat="46.4455" lon="0.66408">
        <ele>73.189567565918</ele>
        <time>2020-06-19T11:43:52.089Z</time>
      </trkpt>
      <trkpt lat="46.44541" lon="0.66412">
        <ele>73.297554016113</ele>
        <time>2020-06-19T11:43:54.524Z</time>
      </trkpt>
      <trkpt lat="46.44506" lon="0.66433">
        <ele>73.436988830566</ele>
        <time>2020-06-19T11:43:56.965Z</time>
      </trkpt>
      <trkpt lat="46.44503" lon="0.66435">
        <ele>73.412986755371</ele>
        <time>2020-06-19T11:43:59.406Z</time>
      </trkpt>
      <trkpt lat="46.44502" lon="0.66442">
        <ele>73.329002380371</ele>
        <time>2020-06-19T11:44:01.848Z</time>
      </trkpt>
      <trkpt lat="46.44498" lon="0.66459">
        <ele>73.125038146973</ele>
        <time>2020-06-19T11:44:04.292Z</time>
      </trkpt>
      <trkpt lat="46.44485" lon="0.66479">
        <ele>73</ele>
        <time>2020-06-19T11:44:06.739Z</time>
      </trkpt>
      <trkpt lat="46.44478" lon="0.66492">
        <ele>73</ele>
        <time>2020-06-19T11:44:09.188Z</time>
      </trkpt>
      <trkpt lat="46.44472" lon="0.66513">
        <ele>73</ele>
        <time>2020-06-19T11:44:11.640Z</time>
      </trkpt>
      <trkpt lat="46.44453" lon="0.66568">
        <ele>72.817253112793</ele>
        <time>2020-06-19T11:44:14.098Z</time>
      </trkpt>
      <trkpt lat="46.44444" lon="0.6659">
        <ele>72.553298950195</ele>
        <time>2020-06-19T11:44:16.559Z</time>
      </trkpt>
      <trkpt lat="46.44433" lon="0.66607">
        <ele>72.593338012695</ele>
        <time>2020-06-19T11:44:19.023Z</time>
      </trkpt>
      <trkpt lat="46.44403" lon="0.66645">
        <ele>73</ele>
        <time>2020-06-19T11:44:21.493Z</time>
      </trkpt>
      <trkpt lat="46.44389" lon="0.66662">
        <ele>73.121246337891</ele>
        <time>2020-06-19T11:44:23.966Z</time>
      </trkpt>
      <trkpt lat="46.44373" lon="0.66674">
        <ele>73.313217163086</ele>
        <time>2020-06-19T11:44:26.442Z</time>
      </trkpt>
      <trkpt lat="46.44336" lon="0.66701">
        <ele>73.221519470215</ele>
        <time>2020-06-19T11:44:28.925Z</time>
      </trkpt>
      <trkpt lat="46.44296" lon="0.6673">
        <ele>73.110641479492</ele>
        <time>2020-06-19T11:44:31.415Z</time>
      </trkpt>
      <trkpt lat="46.44233" lon="0.66774">
        <ele>73.338607788086</ele>
        <time>2020-06-19T11:44:33.916Z</time>
      </trkpt>
      <trkpt lat="46.44209" lon="0.66795">
        <ele>73</ele>
        <time>2020-06-19T11:44:36.421Z</time>
      </trkpt>
      <trkpt lat="46.44186" lon="0.6682">
        <ele>73.206237792969</ele>
        <time>2020-06-19T11:44:38.931Z</time>
      </trkpt>
      <trkpt lat="46.4413" lon="0.66892">
        <ele>73.383903503418</ele>
        <time>2020-06-19T11:44:41.453Z</time>
      </trkpt>
      <trkpt lat="46.44097" lon="0.66932">
        <ele>72.850700378418</ele>
        <time>2020-06-19T11:44:43.982Z</time>
      </trkpt>
      <trkpt lat="46.44052" lon="0.66994">
        <ele>72.541534423828</ele>
        <time>2020-06-19T11:44:46.521Z</time>
      </trkpt>
      <trkpt lat="46.44021" lon="0.67043">
        <ele>72.418304443359</ele>
        <time>2020-06-19T11:44:49.067Z</time>
      </trkpt>
      <trkpt lat="46.43947" lon="0.67157">
        <ele>73.249565124512</ele>
        <time>2020-06-19T11:44:51.630Z</time>
      </trkpt>
      <trkpt lat="46.43913" lon="0.67209">
        <ele>72.461944580078</ele>
        <time>2020-06-19T11:44:54.201Z</time>
      </trkpt>
      <trkpt lat="46.4388" lon="0.67265">
        <ele>71.54354095459</ele>
        <time>2020-06-19T11:44:56.781Z</time>
      </trkpt>
      <trkpt lat="46.43851" lon="0.6731">
        <ele>71.423828125</ele>
        <time>2020-06-19T11:44:59.367Z</time>
      </trkpt>
      <trkpt lat="46.43813" lon="0.6735">
        <ele>70.402725219727</ele>
        <time>2020-06-19T11:45:01.961Z</time>
      </trkpt>
      <trkpt lat="46.43805" lon="0.67358">
        <ele>70.207107543945</ele>
        <time>2020-06-19T11:45:04.556Z</time>
      </trkpt>
      <trkpt lat="46.43804" lon="0.67359">
        <ele>70.18675994873</ele>
        <time>2020-06-19T11:45:07.152Z</time>
      </trkpt>
      <trkpt lat="46.43737" lon="0.67412">
        <ele>71.056053161621</ele>
        <time>2020-06-19T11:45:09.760Z</time>
      </trkpt>
      <trkpt lat="46.43701" lon="0.67434">
        <ele>71</ele>
        <time>2020-06-19T11:45:12.374Z</time>
      </trkpt>
      <trkpt lat="46.43652" lon="0.67466">
        <ele>71.920722961426</ele>
        <time>2020-06-19T11:45:14.997Z</time>
      </trkpt>
      <trkpt lat="46.43625" lon="0.67488">
        <ele>71.203651428223</ele>
        <time>2020-06-19T11:45:17.625Z</time>
      </trkpt>
      <trkpt lat="46.43596" lon="0.67518">
        <ele>70.580848693848</ele>
        <time>2020-06-19T11:45:20.258Z</time>
      </trkpt>
      <trkpt lat="46.43554" lon="0.6757">
        <ele>71.34432220459</ele>
        <time>2020-06-19T11:45:22.900Z</time>
      </trkpt>
      <trkpt lat="46.43518" lon="0.67618">
        <ele>72</ele>
        <time>2020-06-19T11:45:25.550Z</time>
      </trkpt>
      <trkpt lat="46.43464" lon="0.67691">
        <ele>71.780601501465</ele>
        <time>2020-06-19T11:45:28.212Z</time>
      </trkpt>
      <trkpt lat="46.43418" lon="0.67749">
        <ele>71.228691101074</ele>
        <time>2020-06-19T11:45:30.884Z</time>
      </trkpt>
      <trkpt lat="46.43394" lon="0.67771">
        <ele>70.940742492676</ele>
        <time>2020-06-19T11:45:33.560Z</time>
      </trkpt>
      <trkpt lat="46.43326" lon="0.67825">
        <ele>71</ele>
        <time>2020-06-19T11:45:36.249Z</time>
      </trkpt>
      <trkpt lat="46.43288" lon="0.6785">
        <ele>71.331047058105</ele>
        <time>2020-06-19T11:45:38.944Z</time>
      </trkpt>
      <trkpt lat="46.43271" lon="0.67852">
        <ele>71.411819458008</ele>
        <time>2020-06-19T11:45:41.642Z</time>
      </trkpt>
      <trkpt lat="46.43247" lon="0.67843">
        <ele>71.519805908203</ele>
        <time>2020-06-19T11:45:44.344Z</time>
      </trkpt>
      <trkpt lat="46.43213" lon="0.67819">
        <ele>71.576858520508</ele>
        <time>2020-06-19T11:45:47.052Z</time>
      </trkpt>
      <trkpt lat="46.43196" lon="0.6781">
        <ele>71.48087310791</ele>
        <time>2020-06-19T11:45:49.763Z</time>
      </trkpt>
      <trkpt lat="46.43188" lon="0.67808">
        <ele>71.408889770508</ele>
        <time>2020-06-19T11:45:52.475Z</time>
      </trkpt>
      <trkpt lat="46.43173" lon="0.67807">
        <ele>71.240913391113</ele>
        <time>2020-06-19T11:45:55.190Z</time>
      </trkpt>
      <trkpt lat="46.43157" lon="0.67811">
        <ele>71.000953674316</ele>
        <time>2020-06-19T11:45:57.907Z</time>
      </trkpt>
      <trkpt lat="46.43125" lon="0.67821">
        <ele>71.789680480957</ele>
        <time>2020-06-19T11:46:00.630Z</time>
      </trkpt>
      <trkpt lat="46.43097" lon="0.67823">
        <ele>72.485565185547</ele>
        <time>2020-06-19T11:46:03.357Z</time>
      </trkpt>
      <trkpt lat="46.42986" lon="0.67799">
        <ele>73.14315032959</ele>
        <time>2020-06-19T11:46:06.102Z</time>
      </trkpt>
      <trkpt lat="46.42954" lon="0.67794">
        <ele>73.55379486084</ele>
        <time>2020-06-19T11:46:08.852Z</time>
      </trkpt>
      <trkpt lat="46.42899" lon="0.67777">
        <ele>74.621612548828</ele>
        <time>2020-06-19T11:46:11.611Z</time>
      </trkpt>
      <trkpt lat="46.42883" lon="0.67776">
        <ele>75.027816772461</ele>
        <time>2020-06-19T11:46:14.373Z</time>
      </trkpt>
      <trkpt lat="46.42836" lon="0.67786">
        <ele>75.365219116211</ele>
        <time>2020-06-19T11:46:17.142Z</time>
      </trkpt>
      <trkpt lat="46.42698" lon="0.67823">
        <ele>75.240234375</ele>
        <time>2020-06-19T11:46:19.934Z</time>
      </trkpt>
      <trkpt lat="46.4268" lon="0.67825">
        <ele>75.263984680176</ele>
        <time>2020-06-19T11:46:22.729Z</time>
      </trkpt>
      <trkpt lat="46.4268" lon="0.67825">
        <ele>75.264228820801</ele>
        <time>2020-06-19T11:46:25.524Z</time>
      </trkpt>
      <trkpt lat="46.42647" lon="0.67825">
        <ele>75.285995483398</ele>
        <time>2020-06-19T11:46:28.324Z</time>
      </trkpt>
      <trkpt lat="46.42628" lon="0.67821">
        <ele>75.465965270996</ele>
        <time>2020-06-19T11:46:31.127Z</time>
      </trkpt>
      <trkpt lat="46.42608" lon="0.67812">
        <ele>75.597946166992</ele>
        <time>2020-06-19T11:46:33.933Z</time>
      </trkpt>
      <trkpt lat="46.42563" lon="0.67793">
        <ele>76.567611694336</ele>
        <time>2020-06-19T11:46:36.747Z</time>
      </trkpt>
      <trkpt lat="46.42536" lon="0.6779">
        <ele>77.485580444336</ele>
        <time>2020-06-19T11:46:39.565Z</time>
      </trkpt>
      <trkpt lat="46.4252" lon="0.67792">
        <ele>77.749534606934</ele>
        <time>2020-06-19T11:46:42.386Z</time>
      </trkpt>
      <trkpt lat="46.42509" lon="0.67796">
        <ele>77.773536682129</ele>
        <time>2020-06-19T11:46:45.209Z</time>
      </trkpt>
      <trkpt lat="46.42503" lon="0.678">
        <ele>77.677551269531</ele>
        <time>2020-06-19T11:46:48.033Z</time>
      </trkpt>
      <trkpt lat="46.42494" lon="0.67812">
        <ele>77.823173522949</ele>
        <time>2020-06-19T11:46:50.859Z</time>
      </trkpt>
      <trkpt lat="46.4249" lon="0.67821">
        <ele>77.783760070801</ele>
        <time>2020-06-19T11:46:53.686Z</time>
      </trkpt>
      <trkpt lat="46.4249" lon="0.67831">
        <ele>77.663780212402</ele>
        <time>2020-06-19T11:46:56.514Z</time>
      </trkpt>
      <trkpt lat="46.42489" lon="0.67847">
        <ele>77.471809387207</ele>
        <time>2020-06-19T11:46:59.344Z</time>
      </trkpt>
      <trkpt lat="46.42484" lon="0.67861">
        <ele>77.303840637207</ele>
        <time>2020-06-19T11:47:02.175Z</time>
      </trkpt>
      <trkpt lat="46.42475" lon="0.67872">
        <ele>77.171859741211</ele>
        <time>2020-06-19T11:47:05.008Z</time>
      </trkpt>
      <trkpt lat="46.42409" lon="0.67909">
        <ele>75.026641845703</ele>
        <time>2020-06-19T11:47:07.853Z</time>
      </trkpt>
      <trkpt lat="46.42388" lon="0.67922">
        <ele>75.686531066895</ele>
        <time>2020-06-19T11:47:10.701Z</time>
      </trkpt>
      <trkpt lat="46.42364" lon="0.67949">
        <ele>76.417198181152</ele>
        <time>2020-06-19T11:47:13.554Z</time>
      </trkpt>
      <trkpt lat="46.42346" lon="0.67976">
        <ele>76.785018920898</ele>
        <time>2020-06-19T11:47:16.411Z</time>
      </trkpt>
      <trkpt lat="46.42327" lon="0.68001">
        <ele>77.612884521484</ele>
        <time>2020-06-19T11:47:19.272Z</time>
      </trkpt>
      <trkpt lat="46.42298" lon="0.68025">
        <ele>78.118591308594</ele>
        <time>2020-06-19T11:47:22.139Z</time>
      </trkpt>
      <trkpt lat="46.42286" lon="0.68031">
        <ele>78.296318054199</ele>
        <time>2020-06-19T11:47:25.008Z</time>
      </trkpt>
      <trkpt lat="46.42272" lon="0.68034">
        <ele>78.608268737793</ele>
        <time>2020-06-19T11:47:27.879Z</time>
      </trkpt>
      <trkpt lat="46.4225" lon="0.68035">
        <ele>78.920219421387</ele>
        <time>2020-06-19T11:47:30.754Z</time>
      </trkpt>
      <trkpt lat="46.4223" lon="0.68029">
        <ele>78.897155761719</ele>
        <time>2020-06-19T11:47:33.632Z</time>
      </trkpt>
      <trkpt lat="46.42203" lon="0.6802">
        <ele>79.113121032715</ele>
        <time>2020-06-19T11:47:36.514Z</time>
      </trkpt>
      <trkpt lat="46.42203" lon="0.6802">
        <ele>79.102005004883</ele>
        <time>2020-06-19T11:47:39.396Z</time>
      </trkpt>
      <trkpt lat="46.42203" lon="0.68019">
        <ele>79.065132141113</ele>
        <time>2020-06-19T11:47:42.278Z</time>
      </trkpt>
      <trkpt lat="46.42183" lon="0.68016">
        <ele>79.401069641113</ele>
        <time>2020-06-19T11:47:45.164Z</time>
      </trkpt>
      <trkpt lat="46.42154" lon="0.68024">
        <ele>80.480895996094</ele>
        <time>2020-06-19T11:47:48.054Z</time>
      </trkpt>
      <trkpt lat="46.42141" lon="0.6803">
        <ele>80.895286560059</ele>
        <time>2020-06-19T11:47:50.947Z</time>
      </trkpt>
      <trkpt lat="46.42099" lon="0.68053">
        <ele>81.999099731445</ele>
        <time>2020-06-19T11:47:53.847Z</time>
      </trkpt>
      <trkpt lat="46.42096" lon="0.68054">
        <ele>82.047096252441</ele>
        <time>2020-06-19T11:47:56.747Z</time>
      </trkpt>
      <trkpt lat="46.42077" lon="0.68049">
        <ele>81.807136535645</ele>
        <time>2020-06-19T11:47:59.650Z</time>
      </trkpt>
      <trkpt lat="46.42028" lon="0.68032">
        <ele>81.69197845459</ele>
        <time>2020-06-19T11:48:02.561Z</time>
      </trkpt>
      <trkpt lat="46.42008" lon="0.68029">
        <ele>81.823959350586</ele>
        <time>2020-06-19T11:48:05.476Z</time>
      </trkpt>
      <trkpt lat="46.41994" lon="0.6803">
        <ele>82.027923583984</ele>
        <time>2020-06-19T11:48:08.393Z</time>
      </trkpt>
      <trkpt lat="46.41965" lon="0.68041">
        <ele>82.362998962402</ele>
        <time>2020-06-19T11:48:11.315Z</time>
      </trkpt>
      <trkpt lat="46.41947" lon="0.68051">
        <ele>82.506973266602</ele>
        <time>2020-06-19T11:48:14.240Z</time>
      </trkpt>
      <trkpt lat="46.41921" lon="0.68065">
        <ele>82.411437988281</ele>
        <time>2020-06-19T11:48:17.169Z</time>
      </trkpt>
      <trkpt lat="46.41902" lon="0.68075">
        <ele>82.527465820312</ele>
        <time>2020-06-19T11:48:20.101Z</time>
      </trkpt>
      <trkpt lat="46.41851" lon="0.68098">
        <ele>82.39533996582</ele>
        <time>2020-06-19T11:48:23.042Z</time>
      </trkpt>
      <trkpt lat="46.41821" lon="0.68108">
        <ele>81.795440673828</ele>
        <time>2020-06-19T11:48:25.988Z</time>
      </trkpt>
      <trkpt lat="46.41774" lon="0.68125">
        <ele>82.359649658203</ele>
        <time>2020-06-19T11:48:28.942Z</time>
      </trkpt>
      <trkpt lat="46.41759" lon="0.68133">
        <ele>82.635604858398</ele>
        <time>2020-06-19T11:48:31.898Z</time>
      </trkpt>
      <trkpt lat="46.41742" lon="0.68144">
        <ele>82.971549987793</ele>
        <time>2020-06-19T11:48:34.857Z</time>
      </trkpt>
      <trkpt lat="46.41734" lon="0.68153">
        <ele>83.175514221191</ele>
        <time>2020-06-19T11:48:37.818Z</time>
      </trkpt>
      <trkpt lat="46.41728" lon="0.68162">
        <ele>83.307556152344</ele>
        <time>2020-06-19T11:48:40.780Z</time>
      </trkpt>
      <trkpt lat="46.41736" lon="0.68188">
        <ele>83.571449279785</ele>
        <time>2020-06-19T11:48:43.745Z</time>
      </trkpt>
      <trkpt lat="46.4176" lon="0.68285">
        <ele>83.216690063477</ele>
        <time>2020-06-19T11:48:46.722Z</time>
      </trkpt>
      <trkpt lat="46.41761" lon="0.68288">
        <ele>83.183708190918</ele>
        <time>2020-06-19T11:48:49.699Z</time>
      </trkpt>
      <trkpt lat="46.41761" lon="0.68288">
        <ele>83.180694580078</ele>
        <time>2020-06-19T11:48:52.676Z</time>
      </trkpt>
      <trkpt lat="46.41838" lon="0.68593">
        <ele>82.835762023926</ele>
        <time>2020-06-19T11:48:55.689Z</time>
      </trkpt>
      <trkpt lat="46.41855" lon="0.68656">
        <ele>80.537536621094</ele>
        <time>2020-06-19T11:48:58.710Z</time>
      </trkpt>
      <trkpt lat="46.41857" lon="0.68677">
        <ele>79.553703308105</ele>
        <time>2020-06-19T11:49:01.733Z</time>
      </trkpt>
      <trkpt lat="46.4185" lon="0.68695">
        <ele>78.892524719238</ele>
        <time>2020-06-19T11:49:04.758Z</time>
      </trkpt>
      <trkpt lat="46.41833" lon="0.68711">
        <ele>78.316619873047</ele>
        <time>2020-06-19T11:49:07.786Z</time>
      </trkpt>
      <trkpt lat="46.41755" lon="0.68776">
        <ele>78.148956298828</ele>
        <time>2020-06-19T11:49:10.829Z</time>
      </trkpt>
      <trkpt lat="46.41733" lon="0.68794">
        <ele>78.287796020508</ele>
        <time>2020-06-19T11:49:13.876Z</time>
      </trkpt>
      <trkpt lat="46.41732" lon="0.68795">
        <ele>78.292930603027</ele>
        <time>2020-06-19T11:49:16.923Z</time>
      </trkpt>
      <trkpt lat="46.41678" lon="0.68842">
        <ele>77.78303527832</ele>
        <time>2020-06-19T11:49:19.980Z</time>
      </trkpt>
      <trkpt lat="46.41635" lon="0.68879">
        <ele>76.179756164551</ele>
        <time>2020-06-19T11:49:23.045Z</time>
      </trkpt>
      <trkpt lat="46.41621" lon="0.68891">
        <ele>75.891799926758</ele>
        <time>2020-06-19T11:49:26.113Z</time>
      </trkpt>
      <trkpt lat="46.4159" lon="0.68911">
        <ele>75.411880493164</ele>
        <time>2020-06-19T11:49:29.186Z</time>
      </trkpt>
      <trkpt lat="46.41553" lon="0.68933">
        <ele>75.441986083984</ele>
        <time>2020-06-19T11:49:32.266Z</time>
      </trkpt>
      <trkpt lat="46.41485" lon="0.68971">
        <ele>75.949501037598</ele>
        <time>2020-06-19T11:49:35.357Z</time>
      </trkpt>
      <trkpt lat="46.41389" lon="0.69023">
        <ele>77.115249633789</ele>
        <time>2020-06-19T11:49:38.465Z</time>
      </trkpt>
      <trkpt lat="46.41339" lon="0.69049">
        <ele>76.385284423828</ele>
        <time>2020-06-19T11:49:41.581Z</time>
      </trkpt>
      <trkpt lat="46.41311" lon="0.6905">
        <ele>75.974655151367</ele>
        <time>2020-06-19T11:49:44.702Z</time>
      </trkpt>
      <trkpt lat="46.41297" lon="0.69048">
        <ele>76.094635009766</ele>
        <time>2020-06-19T11:49:47.825Z</time>
      </trkpt>
      <trkpt lat="46.41284" lon="0.69051">
        <ele>76.322601318359</ele>
        <time>2020-06-19T11:49:50.950Z</time>
      </trkpt>
      <trkpt lat="46.41274" lon="0.69057">
        <ele>76.449249267578</ele>
        <time>2020-06-19T11:49:54.077Z</time>
      </trkpt>
      <trkpt lat="46.41265" lon="0.69067">
        <ele>76.437255859375</ele>
        <time>2020-06-19T11:49:57.206Z</time>
      </trkpt>
      <trkpt lat="46.41248" lon="0.69088">
        <ele>76.61393737793</ele>
        <time>2020-06-19T11:50:00.338Z</time>
      </trkpt>
      <trkpt lat="46.41244" lon="0.69098">
        <ele>76.709922790527</ele>
        <time>2020-06-19T11:50:03.471Z</time>
      </trkpt>
      <trkpt lat="46.41232" lon="0.69106">
        <ele>76.997871398926</ele>
        <time>2020-06-19T11:50:06.607Z</time>
      </trkpt>
      <trkpt lat="46.41178" lon="0.6914">
        <ele>76.958396911621</ele>
        <time>2020-06-19T11:50:09.752Z</time>
      </trkpt>
      <trkpt lat="46.41152" lon="0.69158">
        <ele>76.742431640625</ele>
        <time>2020-06-19T11:50:12.902Z</time>
      </trkpt>
      <trkpt lat="46.41044" lon="0.69228">
        <ele>76.25456237793</ele>
        <time>2020-06-19T11:50:16.071Z</time>
      </trkpt>
      <trkpt lat="46.4097" lon="0.69282">
        <ele>77.745315551758</ele>
        <time>2020-06-19T11:50:19.253Z</time>
      </trkpt>
      <trkpt lat="46.40913" lon="0.69329">
        <ele>75.863433837891</ele>
        <time>2020-06-19T11:50:22.445Z</time>
      </trkpt>
      <trkpt lat="46.40911" lon="0.6933">
        <ele>75.828483581543</ele>
        <time>2020-06-19T11:50:25.638Z</time>
      </trkpt>
      <trkpt lat="46.40869" lon="0.69365">
        <ele>75.354209899902</ele>
        <time>2020-06-19T11:50:28.838Z</time>
      </trkpt>
      <trkpt lat="46.40845" lon="0.69387">
        <ele>75.647270202637</ele>
        <time>2020-06-19T11:50:32.043Z</time>
      </trkpt>
      <trkpt lat="46.40815" lon="0.69408">
        <ele>76.004203796387</ele>
        <time>2020-06-19T11:50:35.253Z</time>
      </trkpt>
      <trkpt lat="46.40795" lon="0.69414">
        <ele>76.48412322998</ele>
        <time>2020-06-19T11:50:38.467Z</time>
      </trkpt>
      <trkpt lat="46.40761" lon="0.69417">
        <ele>77.254859924316</ele>
        <time>2020-06-19T11:50:41.686Z</time>
      </trkpt>
      <trkpt lat="46.4075" lon="0.69416">
        <ele>77.158882141113</ele>
        <time>2020-06-19T11:50:44.907Z</time>
      </trkpt>
      <trkpt lat="46.40734" lon="0.69411">
        <ele>77.146881103516</ele>
        <time>2020-06-19T11:50:48.130Z</time>
      </trkpt>
      <trkpt lat="46.40722" lon="0.69432">
        <ele>76.482864379883</ele>
        <time>2020-06-19T11:50:51.356Z</time>
      </trkpt>
      <trkpt lat="46.40708" lon="0.69447">
        <ele>76.121803283691</ele>
        <time>2020-06-19T11:50:54.585Z</time>
      </trkpt>
      <trkpt lat="46.40696" lon="0.69466">
        <ele>75.953826904297</ele>
        <time>2020-06-19T11:50:57.817Z</time>
      </trkpt>
      <trkpt lat="46.40679" lon="0.69499">
        <ele>76.26766204834</ele>
        <time>2020-06-19T11:51:01.054Z</time>
      </trkpt>
      <trkpt lat="46.40666" lon="0.69527">
        <ele>76.57788848877</ele>
        <time>2020-06-19T11:51:04.294Z</time>
      </trkpt>
      <trkpt lat="46.40665" lon="0.69529">
        <ele>76.603607177734</ele>
        <time>2020-06-19T11:51:07.535Z</time>
      </trkpt>
      <trkpt lat="46.40637" lon="0.69598">
        <ele>77.536682128906</ele>
        <time>2020-06-19T11:51:10.784Z</time>
      </trkpt>
      <trkpt lat="46.40616" lon="0.69671">
        <ele>78</ele>
        <time>2020-06-19T11:51:14.042Z</time>
      </trkpt>
      <trkpt lat="46.40605" lon="0.69719">
        <ele>78</ele>
        <time>2020-06-19T11:51:17.306Z</time>
      </trkpt>
      <trkpt lat="46.40598" lon="0.69757">
        <ele>77.605667114258</ele>
        <time>2020-06-19T11:51:20.574Z</time>
      </trkpt>
      <trkpt lat="46.40594" lon="0.69794">
        <ele>77.653663635254</ele>
        <time>2020-06-19T11:51:23.846Z</time>
      </trkpt>
      <trkpt lat="46.4059" lon="0.6985">
        <ele>77.701652526855</ele>
        <time>2020-06-19T11:51:27.125Z</time>
      </trkpt>
      <trkpt lat="46.40581" lon="0.69977">
        <ele>76.367485046387</ele>
        <time>2020-06-19T11:51:30.418Z</time>
      </trkpt>
      <trkpt lat="46.4058" lon="0.7003">
        <ele>73.942344665527</ele>
        <time>2020-06-19T11:51:33.717Z</time>
      </trkpt>
      <trkpt lat="46.40566" lon="0.70032">
        <ele>74.014335632324</ele>
        <time>2020-06-19T11:51:37.018Z</time>
      </trkpt>
      <trkpt lat="46.40558" lon="0.70033">
        <ele>74.062324523926</ele>
        <time>2020-06-19T11:51:40.320Z</time>
      </trkpt>
      <trkpt lat="46.40543" lon="0.70052">
        <ele>74.078453063965</ele>
        <time>2020-06-19T11:51:43.625Z</time>
      </trkpt>
      <trkpt lat="46.40533" lon="0.70061">
        <ele>74.450393676758</ele>
        <time>2020-06-19T11:51:46.932Z</time>
      </trkpt>
      <trkpt lat="46.40518" lon="0.70068">
        <ele>75.086288452148</ele>
        <time>2020-06-19T11:51:50.242Z</time>
      </trkpt>
      <trkpt lat="46.40484" lon="0.70084">
        <ele>75.843742370605</ele>
        <time>2020-06-19T11:51:53.557Z</time>
      </trkpt>
      <trkpt lat="46.40455" lon="0.70096">
        <ele>75.46492767334</ele>
        <time>2020-06-19T11:51:56.877Z</time>
      </trkpt>
      <trkpt lat="46.40412" lon="0.70109">
        <ele>74.997009277344</ele>
        <time>2020-06-19T11:52:00.204Z</time>
      </trkpt>
      <trkpt lat="46.40353" lon="0.7012">
        <ele>74.609001159668</ele>
        <time>2020-06-19T11:52:03.541Z</time>
      </trkpt>
      <trkpt lat="46.40352" lon="0.7012">
        <ele>74.60107421875</ele>
        <time>2020-06-19T11:52:06.878Z</time>
      </trkpt>
      <trkpt lat="46.4029" lon="0.70123">
        <ele>74.356407165527</ele>
        <time>2020-06-19T11:52:10.225Z</time>
      </trkpt>
      <trkpt lat="46.4024" lon="0.70121">
        <ele>73.852485656738</ele>
        <time>2020-06-19T11:52:13.580Z</time>
      </trkpt>
      <trkpt lat="46.40221" lon="0.70119">
        <ele>74.10725402832</ele>
        <time>2020-06-19T11:52:16.938Z</time>
      </trkpt>
      <trkpt lat="46.40202" lon="0.70114">
        <ele>74.972198486328</ele>
        <time>2020-06-19T11:52:20.299Z</time>
      </trkpt>
      <trkpt lat="46.40197" lon="0.70106">
        <ele>75.40412902832</ele>
        <time>2020-06-19T11:52:23.661Z</time>
      </trkpt>
      <trkpt lat="46.40179" lon="0.70054">
        <ele>78.234565734863</ele>
        <time>2020-06-19T11:52:27.030Z</time>
      </trkpt>
      <trkpt lat="46.40163" lon="0.7001">
        <ele>78.129455566406</ele>
        <time>2020-06-19T11:52:30.404Z</time>
      </trkpt>
      <trkpt lat="46.40154" lon="0.69991">
        <ele>78.117462158203</ele>
        <time>2020-06-19T11:52:33.781Z</time>
      </trkpt>
      <trkpt lat="46.40146" lon="0.69978">
        <ele>78.153457641602</ele>
        <time>2020-06-19T11:52:37.160Z</time>
      </trkpt>
      <trkpt lat="46.40129" lon="0.69966">
        <ele>78.513511657715</ele>
        <time>2020-06-19T11:52:40.542Z</time>
      </trkpt>
      <trkpt lat="46.40119" lon="0.69964">
        <ele>78.777465820312</ele>
        <time>2020-06-19T11:52:43.925Z</time>
      </trkpt>
      <trkpt lat="46.40098" lon="0.69969">
        <ele>79.221389770508</ele>
        <time>2020-06-19T11:52:47.312Z</time>
      </trkpt>
      <trkpt lat="46.40056" lon="0.69988">
        <ele>79.78409576416</ele>
        <time>2020-06-19T11:52:50.706Z</time>
      </trkpt>
      <trkpt lat="46.40032" lon="0.69991">
        <ele>79.748100280762</ele>
        <time>2020-06-19T11:52:54.104Z</time>
      </trkpt>
      <trkpt lat="46.40003" lon="0.6999">
        <ele>79.760101318359</ele>
        <time>2020-06-19T11:52:57.506Z</time>
      </trkpt>
      <trkpt lat="46.39986" lon="0.69993">
        <ele>79.49976348877</ele>
        <time>2020-06-19T11:53:00.911Z</time>
      </trkpt>
      <trkpt lat="46.39962" lon="0.70001">
        <ele>79.492637634277</ele>
        <time>2020-06-19T11:53:04.320Z</time>
      </trkpt>
      <trkpt lat="46.39887" lon="0.70025">
        <ele>78.884254455566</ele>
        <time>2020-06-19T11:53:07.741Z</time>
      </trkpt>
      <trkpt lat="46.39846" lon="0.70029">
        <ele>79.256332397461</ele>
        <time>2020-06-19T11:53:11.169Z</time>
      </trkpt>
      <trkpt lat="46.39765" lon="0.70031">
        <ele>80.331825256348</ele>
        <time>2020-06-19T11:53:14.610Z</time>
      </trkpt>
      <trkpt lat="46.39727" lon="0.70033">
        <ele>80.867668151855</ele>
        <time>2020-06-19T11:53:18.057Z</time>
      </trkpt>
      <trkpt lat="46.39708" lon="0.70037">
        <ele>81.196189880371</ele>
        <time>2020-06-19T11:53:21.507Z</time>
      </trkpt>
      <trkpt lat="46.3967" lon="0.70055">
        <ele>80.926628112793</ele>
        <time>2020-06-19T11:53:24.963Z</time>
      </trkpt>
      <trkpt lat="46.3967" lon="0.70055">
        <ele>80.920913696289</ele>
        <time>2020-06-19T11:53:28.419Z</time>
      </trkpt>
      <trkpt lat="46.39626" lon="0.70075">
        <ele>80.228797912598</ele>
        <time>2020-06-19T11:53:31.883Z</time>
      </trkpt>
      <trkpt lat="46.39589" lon="0.7009">
        <ele>79.952842712402</ele>
        <time>2020-06-19T11:53:35.353Z</time>
      </trkpt>
      <trkpt lat="46.39573" lon="0.70093">
        <ele>80.000831604004</ele>
        <time>2020-06-19T11:53:38.825Z</time>
      </trkpt>
      <trkpt lat="46.39518" lon="0.70101">
        <ele>79.983657836914</ele>
        <time>2020-06-19T11:53:42.306Z</time>
      </trkpt>
      <trkpt lat="46.39481" lon="0.70105">
        <ele>80.768089294434</ele>
        <time>2020-06-19T11:53:45.793Z</time>
      </trkpt>
      <trkpt lat="46.39393" lon="0.70113">
        <ele>80.200637817383</ele>
        <time>2020-06-19T11:53:49.294Z</time>
      </trkpt>
      <trkpt lat="46.39373" lon="0.70111">
        <ele>80.536575317383</ele>
        <time>2020-06-19T11:53:52.799Z</time>
      </trkpt>
      <trkpt lat="46.39332" lon="0.70092">
        <ele>81.94034576416</ele>
        <time>2020-06-19T11:53:56.310Z</time>
      </trkpt>
      <trkpt lat="46.39273" lon="0.70061">
        <ele>83.129943847656</ele>
        <time>2020-06-19T11:53:59.832Z</time>
      </trkpt>
      <trkpt lat="46.39132" lon="0.69988">
        <ele>87.115203857422</ele>
        <time>2020-06-19T11:54:03.377Z</time>
      </trkpt>
      <trkpt lat="46.39084" lon="0.69964">
        <ele>89.419052124023</ele>
        <time>2020-06-19T11:54:06.931Z</time>
      </trkpt>
      <trkpt lat="46.39062" lon="0.69953">
        <ele>90.767021179199</ele>
        <time>2020-06-19T11:54:10.488Z</time>
      </trkpt>
      <trkpt lat="46.39018" lon="0.69936">
        <ele>91.70140838623</ele>
        <time>2020-06-19T11:54:14.053Z</time>
      </trkpt>
      <trkpt lat="46.38974" lon="0.69923">
        <ele>93.054237365723</ele>
        <time>2020-06-19T11:54:17.625Z</time>
      </trkpt>
      <trkpt lat="46.38941" lon="0.69916">
        <ele>96.10173034668</ele>
        <time>2020-06-19T11:54:21.202Z</time>
      </trkpt>
      <trkpt lat="46.38923" lon="0.69912">
        <ele>97.77507019043</ele>
        <time>2020-06-19T11:54:24.782Z</time>
      </trkpt>
      <trkpt lat="46.38913" lon="0.69909">
        <ele>98.698921203613</ele>
        <time>2020-06-19T11:54:28.364Z</time>
      </trkpt>
      <trkpt lat="46.38901" lon="0.69901">
        <ele>100.28265380859</ele>
        <time>2020-06-19T11:54:31.948Z</time>
      </trkpt>
      <trkpt lat="46.38868" lon="0.69875">
        <ele>103.56362915039</ele>
        <time>2020-06-19T11:54:35.538Z</time>
      </trkpt>
      <trkpt lat="46.38842" lon="0.69853">
        <ele>105.77125549316</ele>
        <time>2020-06-19T11:54:39.133Z</time>
      </trkpt>
      <trkpt lat="46.38719" lon="0.6975">
        <ele>110.81011199951</ele>
        <time>2020-06-19T11:54:42.750Z</time>
      </trkpt>
      <trkpt lat="46.38644" lon="0.69689">
        <ele>112.08455657959</ele>
        <time>2020-06-19T11:54:46.381Z</time>
      </trkpt>
      <trkpt lat="46.38618" lon="0.6967">
        <ele>112.64846038818</ele>
        <time>2020-06-19T11:54:50.017Z</time>
      </trkpt>
      <trkpt lat="46.38588" lon="0.69654">
        <ele>113.51231384277</ele>
        <time>2020-06-19T11:54:53.658Z</time>
      </trkpt>
      <trkpt lat="46.38553" lon="0.69641">
        <ele>114.21039581299</ele>
        <time>2020-06-19T11:54:57.305Z</time>
      </trkpt>
      <trkpt lat="46.38507" lon="0.69632">
        <ele>113.72309112549</ele>
        <time>2020-06-19T11:55:00.959Z</time>
      </trkpt>
      <trkpt lat="46.38378" lon="0.6961">
        <ele>110.80075836182</ele>
        <time>2020-06-19T11:55:04.634Z</time>
      </trkpt>
      <trkpt lat="46.3835" lon="0.69602">
        <ele>109.85315704346</ele>
        <time>2020-06-19T11:55:08.314Z</time>
      </trkpt>
      <trkpt lat="46.3833" lon="0.6959">
        <ele>108.98930358887</ele>
        <time>2020-06-19T11:55:11.997Z</time>
      </trkpt>
      <trkpt lat="46.38281" lon="0.69554">
        <ele>108.00877380371</ele>
        <time>2020-06-19T11:55:15.689Z</time>
      </trkpt>
      <trkpt lat="46.38213" lon="0.69503">
        <ele>106.955078125</ele>
        <time>2020-06-19T11:55:19.393Z</time>
      </trkpt>
      <trkpt lat="46.38152" lon="0.69455">
        <ele>105.63153076172</ele>
        <time>2020-06-19T11:55:23.108Z</time>
      </trkpt>
      <trkpt lat="46.38122" lon="0.69437">
        <ele>105.24682617188</ele>
        <time>2020-06-19T11:55:26.828Z</time>
      </trkpt>
      <trkpt lat="46.38076" lon="0.69415">
        <ele>104.38297271729</ele>
        <time>2020-06-19T11:55:30.556Z</time>
      </trkpt>
      <trkpt lat="46.38058" lon="0.69402">
        <ele>104.12241363525</ele>
        <time>2020-06-19T11:55:34.287Z</time>
      </trkpt>
      <trkpt lat="46.38055" lon="0.69398">
        <ele>104.12241363525</ele>
        <time>2020-06-19T11:55:38.019Z</time>
      </trkpt>
      <trkpt lat="46.38039" lon="0.69427">
        <ele>102.31071472168</ele>
        <time>2020-06-19T11:55:41.755Z</time>
      </trkpt>
      <trkpt lat="46.38027" lon="0.69453">
        <ele>100.54946136475</ele>
        <time>2020-06-19T11:55:45.495Z</time>
      </trkpt>
      <trkpt lat="46.38021" lon="0.69473">
        <ele>99.266616821289</ele>
        <time>2020-06-19T11:55:49.237Z</time>
      </trkpt>
      <trkpt lat="46.38022" lon="0.69491">
        <ele>98.678718566895</ele>
        <time>2020-06-19T11:55:52.981Z</time>
      </trkpt>
      <trkpt lat="46.38021" lon="0.69501">
        <ele>98.2587890625</ele>
        <time>2020-06-19T11:55:56.726Z</time>
      </trkpt>
      <trkpt lat="46.38014" lon="0.69506">
        <ele>97.576141357422</ele>
        <time>2020-06-19T11:56:00.472Z</time>
      </trkpt>
      <trkpt lat="46.38" lon="0.6951">
        <ele>96.160377502441</ele>
        <time>2020-06-19T11:56:04.221Z</time>
      </trkpt>
      <trkpt lat="46.37985" lon="0.69515">
        <ele>94.600639343262</ele>
        <time>2020-06-19T11:56:07.972Z</time>
      </trkpt>
      <trkpt lat="46.3797" lon="0.6953">
        <ele>92.44100189209</ele>
        <time>2020-06-19T11:56:11.726Z</time>
      </trkpt>
      <trkpt lat="46.37943" lon="0.69567">
        <ele>86.669647216797</ele>
        <time>2020-06-19T11:56:15.486Z</time>
      </trkpt>
      <trkpt lat="46.37932" lon="0.69585">
        <ele>83.45418548584</ele>
        <time>2020-06-19T11:56:19.249Z</time>
      </trkpt>
      <trkpt lat="46.37931" lon="0.69596">
        <ele>82.389495849609</ele>
        <time>2020-06-19T11:56:23.013Z</time>
      </trkpt>
      <trkpt lat="46.37945" lon="0.69634">
        <ele>80.037887573242</ele>
        <time>2020-06-19T11:56:26.782Z</time>
      </trkpt>
      <trkpt lat="46.37948" lon="0.69658">
        <ele>78.202194213867</ele>
        <time>2020-06-19T11:56:30.553Z</time>
      </trkpt>
      <trkpt lat="46.37934" lon="0.69821">
        <ele>74.780578613281</ele>
        <time>2020-06-19T11:56:34.343Z</time>
      </trkpt>
      <trkpt lat="46.37918" lon="0.69815">
        <ele>74.90055847168</ele>
        <time>2020-06-19T11:56:38.135Z</time>
      </trkpt>
      <trkpt lat="46.37862" lon="0.6979">
        <ele>75</ele>
        <time>2020-06-19T11:56:41.937Z</time>
      </trkpt>
      <trkpt lat="46.37824" lon="0.69774">
        <ele>75</ele>
        <time>2020-06-19T11:56:45.745Z</time>
      </trkpt>
      <trkpt lat="46.3779" lon="0.69757">
        <ele>75</ele>
        <time>2020-06-19T11:56:49.559Z</time>
      </trkpt>
      <trkpt lat="46.37745" lon="0.69737">
        <ele>75</ele>
        <time>2020-06-19T11:56:53.380Z</time>
      </trkpt>
      <trkpt lat="46.37744" lon="0.69737">
        <ele>75</ele>
        <time>2020-06-19T11:56:57.201Z</time>
      </trkpt>
      <trkpt lat="46.37727" lon="0.69732">
        <ele>75.103851318359</ele>
        <time>2020-06-19T11:57:01.025Z</time>
      </trkpt>
      <trkpt lat="46.37691" lon="0.69726">
        <ele>75.967712402344</ele>
        <time>2020-06-19T11:57:04.855Z</time>
      </trkpt>
      <trkpt lat="46.37649" lon="0.69717">
        <ele>76.939987182617</ele>
        <time>2020-06-19T11:57:08.692Z</time>
      </trkpt>
      <trkpt lat="46.37625" lon="0.69709">
        <ele>77.144187927246</ele>
        <time>2020-06-19T11:57:12.533Z</time>
      </trkpt>
      <trkpt lat="46.376" lon="0.69706">
        <ele>77.408142089844</ele>
        <time>2020-06-19T11:57:16.378Z</time>
      </trkpt>
      <trkpt lat="46.37543" lon="0.69672">
        <ele>77.424537658691</ele>
        <time>2020-06-19T11:57:20.233Z</time>
      </trkpt>
      <trkpt lat="46.37303" lon="0.69535">
        <ele>77.780815124512</ele>
        <time>2020-06-19T11:57:24.129Z</time>
      </trkpt>
      <trkpt lat="46.37187" lon="0.69466">
        <ele>77.53084564209</ele>
        <time>2020-06-19T11:57:28.045Z</time>
      </trkpt>
      <trkpt lat="46.37091" lon="0.69411">
        <ele>77.317344665527</ele>
        <time>2020-06-19T11:57:31.978Z</time>
      </trkpt>
      <trkpt lat="46.37018" lon="0.69373">
        <ele>77.721374511719</ele>
        <time>2020-06-19T11:57:35.923Z</time>
      </trkpt>
      <trkpt lat="46.36967" lon="0.6935">
        <ele>78.268409729004</ele>
        <time>2020-06-19T11:57:39.876Z</time>
      </trkpt>
      <trkpt lat="46.36914" lon="0.6933">
        <ele>77.87247467041</ele>
        <time>2020-06-19T11:57:43.838Z</time>
      </trkpt>
      <trkpt lat="46.36878" lon="0.69316">
        <ele>76.893829345703</ele>
        <time>2020-06-19T11:57:47.806Z</time>
      </trkpt>
      <trkpt lat="46.36856" lon="0.69307">
        <ele>75.945991516113</ele>
        <time>2020-06-19T11:57:51.778Z</time>
      </trkpt>
      <trkpt lat="46.3681" lon="0.69258">
        <ele>74.596725463867</ele>
        <time>2020-06-19T11:57:55.759Z</time>
      </trkpt>
      <trkpt lat="46.36787" lon="0.69239">
        <ele>75.100646972656</ele>
        <time>2020-06-19T11:57:59.744Z</time>
      </trkpt>
      <trkpt lat="46.36787" lon="0.69238">
        <ele>75.113578796387</ele>
        <time>2020-06-19T11:58:03.729Z</time>
      </trkpt>
      <trkpt lat="46.36783" lon="0.69231">
        <ele>75.244621276855</ele>
        <time>2020-06-19T11:58:07.715Z</time>
      </trkpt>
      <trkpt lat="46.36777" lon="0.69217">
        <ele>75.519134521484</ele>
        <time>2020-06-19T11:58:11.703Z</time>
      </trkpt>
      <trkpt lat="46.3677" lon="0.69156">
        <ele>77.531707763672</ele>
        <time>2020-06-19T11:58:15.698Z</time>
      </trkpt>
      <trkpt lat="46.3677" lon="0.69115">
        <ele>79.499382019043</ele>
        <time>2020-06-19T11:58:19.698Z</time>
      </trkpt>
      <trkpt lat="46.3677" lon="0.69092">
        <ele>80.60319519043</ele>
        <time>2020-06-19T11:58:23.700Z</time>
      </trkpt>
      <trkpt lat="46.36766" lon="0.69085">
        <ele>80.891151428223</ele>
        <time>2020-06-19T11:58:27.703Z</time>
      </trkpt>
      <trkpt lat="46.36759" lon="0.69076">
        <ele>81.23908996582</ele>
        <time>2020-06-19T11:58:31.708Z</time>
      </trkpt>
      <trkpt lat="46.36752" lon="0.69072">
        <ele>81.347068786621</ele>
        <time>2020-06-19T11:58:35.714Z</time>
      </trkpt>
      <trkpt lat="46.36725" lon="0.69062">
        <ele>81.429122924805</ele>
        <time>2020-06-19T11:58:39.724Z</time>
      </trkpt>
      <trkpt lat="46.36722" lon="0.6906">
        <ele>81.453117370605</ele>
        <time>2020-06-19T11:58:43.735Z</time>
      </trkpt>
      <trkpt lat="46.36722" lon="0.69058">
        <ele>81.549102783203</ele>
        <time>2020-06-19T11:58:47.746Z</time>
      </trkpt>
      <trkpt lat="46.36727" lon="0.69056">
        <ele>81.765068054199</ele>
        <time>2020-06-19T11:58:51.758Z</time>
      </trkpt>
      <trkpt lat="46.36726" lon="0.69056">
        <ele>81.732887268066</ele>
        <time>2020-06-19T11:58:55.770Z</time>
      </trkpt>
      <trkpt lat="46.36722" lon="0.69058">
        <ele>81.549102783203</ele>
        <time>2020-06-19T11:58:59.783Z</time>
      </trkpt>
      <trkpt lat="46.36704" lon="0.69056">
        <ele>81.213157653809</ele>
        <time>2020-06-19T11:59:03.799Z</time>
      </trkpt>
      <trkpt lat="46.36679" lon="0.69052">
        <ele>80.776779174805</ele>
        <time>2020-06-19T11:59:07.819Z</time>
      </trkpt>
      <trkpt lat="46.3663" lon="0.69041">
        <ele>80.506134033203</ele>
        <time>2020-06-19T11:59:11.847Z</time>
      </trkpt>
      <trkpt lat="46.36613" lon="0.69036">
        <ele>80.830078125</ele>
        <time>2020-06-19T11:59:15.877Z</time>
      </trkpt>
      <trkpt lat="46.36589" lon="0.69015">
        <ele>81.621948242188</ele>
        <time>2020-06-19T11:59:19.912Z</time>
      </trkpt>
      <trkpt lat="46.36557" lon="0.68983">
        <ele>82.594581604004</ele>
        <time>2020-06-19T11:59:23.953Z</time>
      </trkpt>
      <trkpt lat="46.36544" lon="0.68974">
        <ele>82.654571533203</ele>
        <time>2020-06-19T11:59:27.996Z</time>
      </trkpt>
      <trkpt lat="46.36509" lon="0.68963">
        <ele>82.498596191406</ele>
        <time>2020-06-19T11:59:32.045Z</time>
      </trkpt>
      <trkpt lat="46.36502" lon="0.68967">
        <ele>82.318626403809</ele>
        <time>2020-06-19T11:59:36.095Z</time>
      </trkpt>
      <trkpt lat="46.36495" lon="0.68977">
        <ele>81.994682312012</ele>
        <time>2020-06-19T11:59:40.147Z</time>
      </trkpt>
      <trkpt lat="46.36482" lon="0.68994">
        <ele>81.430778503418</ele>
        <time>2020-06-19T11:59:44.202Z</time>
      </trkpt>
      <trkpt lat="46.3647" lon="0.69005">
        <ele>80.756019592285</ele>
        <time>2020-06-19T11:59:48.259Z</time>
      </trkpt>
      <trkpt lat="46.3645" lon="0.69022">
        <ele>79.628204345703</ele>
        <time>2020-06-19T11:59:52.320Z</time>
      </trkpt>
      <trkpt lat="46.36438" lon="0.69031">
        <ele>79.231483459473</ele>
        <time>2020-06-19T11:59:56.383Z</time>
      </trkpt>
      <trkpt lat="46.36431" lon="0.69034">
        <ele>79.02751159668</ele>
        <time>2020-06-19T12:00:00.447Z</time>
      </trkpt>
      <trkpt lat="46.36383" lon="0.69037">
        <ele>78.194190979004</ele>
        <time>2020-06-19T12:00:04.519Z</time>
      </trkpt>
      <trkpt lat="46.36375" lon="0.69037">
        <ele>78.273223876953</ele>
        <time>2020-06-19T12:00:08.592Z</time>
      </trkpt>
      <trkpt lat="46.36374" lon="0.69037">
        <ele>78.289665222168</ele>
        <time>2020-06-19T12:00:12.665Z</time>
      </trkpt>
      <trkpt lat="46.36249" lon="0.69038">
        <ele>80.205551147461</ele>
        <time>2020-06-19T12:00:16.758Z</time>
      </trkpt>
      <trkpt lat="46.36207" lon="0.69037">
        <ele>80.427024841309</ele>
        <time>2020-06-19T12:00:20.858Z</time>
      </trkpt>
      <trkpt lat="46.36173" lon="0.6902">
        <ele>79.407196044922</ele>
        <time>2020-06-19T12:00:24.964Z</time>
      </trkpt>
      <trkpt lat="46.36138" lon="0.68997">
        <ele>78.788841247559</ele>
        <time>2020-06-19T12:00:29.076Z</time>
      </trkpt>
      <trkpt lat="46.3611" lon="0.68971">
        <ele>79.052795410156</ele>
        <time>2020-06-19T12:00:33.193Z</time>
      </trkpt>
      <trkpt lat="46.36075" lon="0.68932">
        <ele>78.70873260498</ele>
        <time>2020-06-19T12:00:37.317Z</time>
      </trkpt>
      <trkpt lat="46.36049" lon="0.68892">
        <ele>78.933898925781</ele>
        <time>2020-06-19T12:00:41.447Z</time>
      </trkpt>
      <trkpt lat="46.35979" lon="0.68767">
        <ele>79.975570678711</ele>
        <time>2020-06-19T12:00:45.595Z</time>
      </trkpt>
      <trkpt lat="46.35891" lon="0.68608">
        <ele>80.341331481934</ele>
        <time>2020-06-19T12:00:49.766Z</time>
      </trkpt>
      <trkpt lat="46.3585" lon="0.68532">
        <ele>81.759544372559</ele>
        <time>2020-06-19T12:00:53.947Z</time>
      </trkpt>
      <trkpt lat="46.35823" lon="0.6849">
        <ele>83.271293640137</ele>
        <time>2020-06-19T12:00:58.135Z</time>
      </trkpt>
      <trkpt lat="46.35803" lon="0.6847">
        <ele>83.310775756836</ele>
        <time>2020-06-19T12:01:02.327Z</time>
      </trkpt>
      <trkpt lat="46.35766" lon="0.68443">
        <ele>83.026000976562</ele>
        <time>2020-06-19T12:01:06.525Z</time>
      </trkpt>
      <trkpt lat="46.35702" lon="0.684">
        <ele>82.282119750977</ele>
        <time>2020-06-19T12:01:10.735Z</time>
      </trkpt>
      <trkpt lat="46.35669" lon="0.68378">
        <ele>82.491432189941</ele>
        <time>2020-06-19T12:01:14.950Z</time>
      </trkpt>
      <trkpt lat="46.35639" lon="0.6836">
        <ele>83.387054443359</ele>
        <time>2020-06-19T12:01:19.171Z</time>
      </trkpt>
      <trkpt lat="46.35613" lon="0.68349">
        <ele>83.722999572754</ele>
        <time>2020-06-19T12:01:23.396Z</time>
      </trkpt>
      <trkpt lat="46.35583" lon="0.68344">
        <ele>84.070449829102</ele>
        <time>2020-06-19T12:01:27.626Z</time>
      </trkpt>
      <trkpt lat="46.35516" lon="0.68337">
        <ele>84.16283416748</ele>
        <time>2020-06-19T12:01:31.866Z</time>
      </trkpt>
      <trkpt lat="46.35469" lon="0.68329">
        <ele>83.625343322754</ele>
        <time>2020-06-19T12:01:36.114Z</time>
      </trkpt>
      <trkpt lat="46.35454" lon="0.68325">
        <ele>83.337387084961</ele>
        <time>2020-06-19T12:01:40.364Z</time>
      </trkpt>
      <trkpt lat="46.35406" lon="0.68307">
        <ele>82.977447509766</ele>
        <time>2020-06-19T12:01:44.622Z</time>
      </trkpt>
      <trkpt lat="46.35379" lon="0.68294">
        <ele>83.308662414551</ele>
        <time>2020-06-19T12:01:48.885Z</time>
      </trkpt>
      <trkpt lat="46.35359" lon="0.68279">
        <ele>84.208511352539</ele>
        <time>2020-06-19T12:01:53.152Z</time>
      </trkpt>
      <trkpt lat="46.35286" lon="0.68217">
        <ele>87.59774017334</ele>
        <time>2020-06-19T12:01:57.432Z</time>
      </trkpt>
      <trkpt lat="46.35285" lon="0.68216">
        <ele>87.623680114746</ele>
        <time>2020-06-19T12:02:01.712Z</time>
      </trkpt>
      <trkpt lat="46.35181" lon="0.68128">
        <ele>91.508026123047</ele>
        <time>2020-06-19T12:02:06.012Z</time>
      </trkpt>
      <trkpt lat="46.35144" lon="0.68096">
        <ele>93.102226257324</ele>
        <time>2020-06-19T12:02:10.319Z</time>
      </trkpt>
      <trkpt lat="46.35106" lon="0.68061">
        <ele>94.146049499512</ele>
        <time>2020-06-19T12:02:14.633Z</time>
      </trkpt>
      <trkpt lat="46.35077" lon="0.6803">
        <ele>96.510551452637</ele>
        <time>2020-06-19T12:02:18.953Z</time>
      </trkpt>
      <trkpt lat="46.35074" lon="0.68032">
        <ele>95.982643127441</ele>
        <time>2020-06-19T12:02:23.273Z</time>
      </trkpt>
      <trkpt lat="46.35071" lon="0.68034">
        <ele>95.454727172852</ele>
        <time>2020-06-19T12:02:27.594Z</time>
      </trkpt>
      <trkpt lat="46.3506" lon="0.68033">
        <ele>94.515274047852</ele>
        <time>2020-06-19T12:02:31.916Z</time>
      </trkpt>
      <trkpt lat="46.35049" lon="0.68034">
        <ele>92.775566101074</ele>
        <time>2020-06-19T12:02:36.240Z</time>
      </trkpt>
      <trkpt lat="46.35019" lon="0.6803">
        <ele>90.678176879883</ele>
        <time>2020-06-19T12:02:40.569Z</time>
      </trkpt>
      <trkpt lat="46.35006" lon="0.68023">
        <ele>90.330238342285</ele>
        <time>2020-06-19T12:02:44.900Z</time>
      </trkpt>
      <trkpt lat="46.34993" lon="0.6801">
        <ele>90.486213684082</ele>
        <time>2020-06-19T12:02:49.234Z</time>
      </trkpt>
      <trkpt lat="46.34953" lon="0.67955">
        <ele>93.282096862793</ele>
        <time>2020-06-19T12:02:53.577Z</time>
      </trkpt>
      <trkpt lat="46.34946" lon="0.67948">
        <ele>93.869995117188</ele>
        <time>2020-06-19T12:02:57.921Z</time>
      </trkpt>
      <trkpt lat="46.34936" lon="0.67946">
        <ele>93.462066650391</ele>
        <time>2020-06-19T12:03:02.266Z</time>
      </trkpt>
      <trkpt lat="46.34925" lon="0.67949">
        <ele>92.202270507812</ele>
        <time>2020-06-19T12:03:06.613Z</time>
      </trkpt>
      <trkpt lat="46.34913" lon="0.67957">
        <ele>90.090621948242</ele>
        <time>2020-06-19T12:03:10.962Z</time>
      </trkpt>
      <trkpt lat="46.34898" lon="0.67972">
        <ele>86.794403076172</ele>
        <time>2020-06-19T12:03:15.314Z</time>
      </trkpt>
      <trkpt lat="46.34881" lon="0.68">
        <ele>83.526832580566</ele>
        <time>2020-06-19T12:03:19.670Z</time>
      </trkpt>
      <trkpt lat="46.34833" lon="0.68077">
        <ele>76.836006164551</ele>
        <time>2020-06-19T12:03:24.038Z</time>
      </trkpt>
      <trkpt lat="46.34806" lon="0.6812">
        <ele>78.097900390625</ele>
        <time>2020-06-19T12:03:28.412Z</time>
      </trkpt>
      <trkpt lat="46.34713" lon="0.68267">
        <ele>78.302810668945</ele>
        <time>2020-06-19T12:03:32.808Z</time>
      </trkpt>
      <trkpt lat="46.34613" lon="0.68425">
        <ele>78.290428161621</ele>
        <time>2020-06-19T12:03:37.228Z</time>
      </trkpt>
      <trkpt lat="46.34444" lon="0.68695">
        <ele>79.882720947266</ele>
        <time>2020-06-19T12:03:41.689Z</time>
      </trkpt>
      <trkpt lat="46.343" lon="0.68924">
        <ele>82.142677307129</ele>
        <time>2020-06-19T12:03:46.184Z</time>
      </trkpt>
      <trkpt lat="46.34263" lon="0.68984">
        <ele>80.660171508789</ele>
        <time>2020-06-19T12:03:50.688Z</time>
      </trkpt>
      <trkpt lat="46.34232" lon="0.69033">
        <ele>81.712631225586</ele>
        <time>2020-06-19T12:03:55.199Z</time>
      </trkpt>
      <trkpt lat="46.34211" lon="0.69059">
        <ele>82.069763183594</ele>
        <time>2020-06-19T12:03:59.714Z</time>
      </trkpt>
      <trkpt lat="46.34184" lon="0.69086">
        <ele>82.393707275391</ele>
        <time>2020-06-19T12:04:04.235Z</time>
      </trkpt>
      <trkpt lat="46.34121" lon="0.69136">
        <ele>84.676895141602</ele>
        <time>2020-06-19T12:04:08.767Z</time>
      </trkpt>
      <trkpt lat="46.34009" lon="0.69226">
        <ele>84.641967773438</ele>
        <time>2020-06-19T12:04:13.320Z</time>
      </trkpt>
      <trkpt lat="46.34" lon="0.69234">
        <ele>85.072296142578</ele>
        <time>2020-06-19T12:04:17.874Z</time>
      </trkpt>
      <trkpt lat="46.33999" lon="0.69235">
        <ele>85.121887207031</ele>
        <time>2020-06-19T12:04:22.429Z</time>
      </trkpt>
      <trkpt lat="46.33952" lon="0.69282">
        <ele>84.306549072266</ele>
        <time>2020-06-19T12:04:26.993Z</time>
      </trkpt>
      <trkpt lat="46.33944" lon="0.69301">
        <ele>83.454689025879</ele>
        <time>2020-06-19T12:04:31.559Z</time>
      </trkpt>
      <trkpt lat="46.33922" lon="0.69303">
        <ele>84.126579284668</ele>
        <time>2020-06-19T12:04:36.129Z</time>
      </trkpt>
      <trkpt lat="46.33915" lon="0.69292">
        <ele>85.038421630859</ele>
        <time>2020-06-19T12:04:40.700Z</time>
      </trkpt>
      <trkpt lat="46.33907" lon="0.69279">
        <ele>86.106246948242</ele>
        <time>2020-06-19T12:04:45.273Z</time>
      </trkpt>
      <trkpt lat="46.33873" lon="0.69231">
        <ele>90.50178527832</ele>
        <time>2020-06-19T12:04:49.854Z</time>
      </trkpt>
      <trkpt lat="46.33846" lon="0.69194">
        <ele>91.843650817871</ele>
        <time>2020-06-19T12:04:54.441Z</time>
      </trkpt>
      <trkpt lat="46.33792" lon="0.69117">
        <ele>91.620414733887</ele>
        <time>2020-06-19T12:04:59.040Z</time>
      </trkpt>
      <trkpt lat="46.3377" lon="0.69083">
        <ele>90.706130981445</ele>
        <time>2020-06-19T12:05:03.644Z</time>
      </trkpt>
      <trkpt lat="46.33769" lon="0.69081">
        <ele>90.667442321777</ele>
        <time>2020-06-19T12:05:08.249Z</time>
      </trkpt>
      <trkpt lat="46.33699" lon="0.68969">
        <ele>87.359756469727</ele>
        <time>2020-06-19T12:05:12.870Z</time>
      </trkpt>
      <trkpt lat="46.33659" lon="0.68907">
        <ele>86.351928710938</ele>
        <time>2020-06-19T12:05:17.501Z</time>
      </trkpt>
      <trkpt lat="46.33596" lon="0.68804">
        <ele>83.646484375</ele>
        <time>2020-06-19T12:05:22.147Z</time>
      </trkpt>
      <trkpt lat="46.33558" lon="0.6875">
        <ele>84.143180847168</ele>
        <time>2020-06-19T12:05:26.801Z</time>
      </trkpt>
      <trkpt lat="46.33541" lon="0.68735">
        <ele>84.551109313965</ele>
        <time>2020-06-19T12:05:31.459Z</time>
      </trkpt>
      <trkpt lat="46.33495" lon="0.68698">
        <ele>86.177955627441</ele>
        <time>2020-06-19T12:05:36.125Z</time>
      </trkpt>
      <trkpt lat="46.33455" lon="0.68667">
        <ele>86.652137756348</ele>
        <time>2020-06-19T12:05:40.798Z</time>
      </trkpt>
      <trkpt lat="46.33435" lon="0.68658">
        <ele>86.38818359375</ele>
        <time>2020-06-19T12:05:45.475Z</time>
      </trkpt>
      <trkpt lat="46.33387" lon="0.68646">
        <ele>85.515663146973</ele>
        <time>2020-06-19T12:05:50.159Z</time>
      </trkpt>
      <trkpt lat="46.33362" lon="0.68635">
        <ele>84.695625305176</ele>
        <time>2020-06-19T12:05:54.848Z</time>
      </trkpt>
      <trkpt lat="46.3332" lon="0.68611">
        <ele>82.607978820801</ele>
        <time>2020-06-19T12:05:59.544Z</time>
      </trkpt>
      <trkpt lat="46.33209" lon="0.68548">
        <ele>83.456573486328</ele>
        <time>2020-06-19T12:06:04.259Z</time>
      </trkpt>
      <trkpt lat="46.33176" lon="0.68528">
        <ele>84.008476257324</ele>
        <time>2020-06-19T12:06:08.980Z</time>
      </trkpt>
      <trkpt lat="46.33147" lon="0.68506">
        <ele>84.432098388672</ele>
        <time>2020-06-19T12:06:13.706Z</time>
      </trkpt>
      <trkpt lat="46.33076" lon="0.68426">
        <ele>82.095428466797</ele>
        <time>2020-06-19T12:06:18.446Z</time>
      </trkpt>
      <trkpt lat="46.33029" lon="0.68386">
        <ele>81.821327209473</ele>
        <time>2020-06-19T12:06:23.195Z</time>
      </trkpt>
      <trkpt lat="46.33027" lon="0.68384">
        <ele>81.827285766602</ele>
        <time>2020-06-19T12:06:27.944Z</time>
      </trkpt>
      <trkpt lat="46.32984" lon="0.68348">
        <ele>81.995254516602</ele>
        <time>2020-06-19T12:06:32.701Z</time>
      </trkpt>
      <trkpt lat="46.32971" lon="0.68328">
        <ele>81.941703796387</ele>
        <time>2020-06-19T12:06:37.461Z</time>
      </trkpt>
      <trkpt lat="46.32962" lon="0.68305">
        <ele>81.713737487793</ele>
        <time>2020-06-19T12:06:42.224Z</time>
      </trkpt>
      <trkpt lat="46.32956" lon="0.68254">
        <ele>81.000297546387</ele>
        <time>2020-06-19T12:06:46.993Z</time>
      </trkpt>
      <trkpt lat="46.32952" lon="0.68217">
        <ele>80.271858215332</ele>
        <time>2020-06-19T12:06:51.766Z</time>
      </trkpt>
      <trkpt lat="46.32947" lon="0.68202">
        <ele>79.971908569336</ele>
        <time>2020-06-19T12:06:56.541Z</time>
      </trkpt>
      <trkpt lat="46.3294" lon="0.68194">
        <ele>80.019897460938</ele>
        <time>2020-06-19T12:07:01.318Z</time>
      </trkpt>
      <trkpt lat="46.3293" lon="0.6819">
        <ele>80.355842590332</ele>
        <time>2020-06-19T12:07:06.096Z</time>
      </trkpt>
      <trkpt lat="46.32857" lon="0.68183">
        <ele>82.476104736328</ele>
        <time>2020-06-19T12:07:10.886Z</time>
      </trkpt>
      <trkpt lat="46.32847" lon="0.68178">
        <ele>82.29613494873</ele>
        <time>2020-06-19T12:07:15.678Z</time>
      </trkpt>
      <trkpt lat="46.32845" lon="0.68175">
        <ele>82.284141540527</ele>
        <time>2020-06-19T12:07:20.470Z</time>
      </trkpt>
      <trkpt lat="46.32836" lon="0.68178">
        <ele>82.032180786133</ele>
        <time>2020-06-19T12:07:25.264Z</time>
      </trkpt>
      <trkpt lat="46.3283" lon="0.6818">
        <ele>81.864212036133</ele>
        <time>2020-06-19T12:07:30.059Z</time>
      </trkpt>
      <trkpt lat="46.32813" lon="0.68178">
        <ele>81.490371704102</ele>
        <time>2020-06-19T12:07:34.856Z</time>
      </trkpt>
      <trkpt lat="46.3278" lon="0.68176">
        <ele>81.118438720703</ele>
        <time>2020-06-19T12:07:39.659Z</time>
      </trkpt>
      <trkpt lat="46.327" lon="0.68164">
        <ele>80.302574157715</ele>
        <time>2020-06-19T12:07:44.474Z</time>
      </trkpt>
      <trkpt lat="46.32597" lon="0.68149">
        <ele>79.848419189453</ele>
        <time>2020-06-19T12:07:49.306Z</time>
      </trkpt>
      <trkpt lat="46.32526" lon="0.6814">
        <ele>80.497131347656</ele>
        <time>2020-06-19T12:07:54.149Z</time>
      </trkpt>
      <trkpt lat="46.32507" lon="0.68134">
        <ele>80.653099060059</ele>
        <time>2020-06-19T12:07:58.996Z</time>
      </trkpt>
      <trkpt lat="46.32499" lon="0.68129">
        <ele>80.689094543457</ele>
        <time>2020-06-19T12:08:03.844Z</time>
      </trkpt>
      <trkpt lat="46.32488" lon="0.68119">
        <ele>80.701095581055</ele>
        <time>2020-06-19T12:08:08.694Z</time>
      </trkpt>
      <trkpt lat="46.32475" lon="0.68102">
        <ele>80.653099060059</ele>
        <time>2020-06-19T12:08:13.547Z</time>
      </trkpt>
      <trkpt lat="46.32442" lon="0.6803">
        <ele>80.185180664062</ele>
        <time>2020-06-19T12:08:18.409Z</time>
      </trkpt>
      <trkpt lat="46.3238" lon="0.67891">
        <ele>80.410469055176</ele>
        <time>2020-06-19T12:08:23.290Z</time>
      </trkpt>
      <trkpt lat="46.32353" lon="0.67827">
        <ele>81.587539672852</ele>
        <time>2020-06-19T12:08:28.179Z</time>
      </trkpt>
      <trkpt lat="46.3234" lon="0.67788">
        <ele>82.055465698242</ele>
        <time>2020-06-19T12:08:33.073Z</time>
      </trkpt>
      <trkpt lat="46.32323" lon="0.67714">
        <ele>82.962661743164</ele>
        <time>2020-06-19T12:08:37.976Z</time>
      </trkpt>
      <trkpt lat="46.32322" lon="0.6771">
        <ele>83.016654968262</ele>
        <time>2020-06-19T12:08:42.879Z</time>
      </trkpt>
      <trkpt lat="46.32315" lon="0.67678">
        <ele>83.484580993652</ele>
        <time>2020-06-19T12:08:47.786Z</time>
      </trkpt>
      <trkpt lat="46.32307" lon="0.67651">
        <ele>83.661239624023</ele>
        <time>2020-06-19T12:08:52.696Z</time>
      </trkpt>
      <trkpt lat="46.32302" lon="0.67644">
        <ele>83.62525177002</ele>
        <time>2020-06-19T12:08:57.607Z</time>
      </trkpt>
      <trkpt lat="46.32291" lon="0.67636">
        <ele>83.440322875977</ele>
        <time>2020-06-19T12:09:02.520Z</time>
      </trkpt>
      <trkpt lat="46.32272" lon="0.67631">
        <ele>82.744438171387</ele>
        <time>2020-06-19T12:09:07.436Z</time>
      </trkpt>
      <trkpt lat="46.32257" lon="0.6763">
        <ele>82.33650970459</ele>
        <time>2020-06-19T12:09:12.355Z</time>
      </trkpt>
      <trkpt lat="46.32229" lon="0.67633">
        <ele>81.910194396973</ele>
        <time>2020-06-19T12:09:17.278Z</time>
      </trkpt>
      <trkpt lat="46.32161" lon="0.67651">
        <ele>82.343780517578</ele>
        <time>2020-06-19T12:09:22.212Z</time>
      </trkpt>
      <trkpt lat="46.32122" lon="0.67666">
        <ele>82.957984924316</ele>
        <time>2020-06-19T12:09:27.153Z</time>
      </trkpt>
      <trkpt lat="46.32095" lon="0.67679">
        <ele>84.173416137695</ele>
        <time>2020-06-19T12:09:32.098Z</time>
      </trkpt>
      <trkpt lat="46.31967" lon="0.6776">
        <ele>86.808311462402</ele>
        <time>2020-06-19T12:09:37.065Z</time>
      </trkpt>
      <trkpt lat="46.31926" lon="0.67787">
        <ele>87.868370056152</ele>
        <time>2020-06-19T12:09:42.040Z</time>
      </trkpt>
      <trkpt lat="46.31924" lon="0.67788">
        <ele>87.957542419434</ele>
        <time>2020-06-19T12:09:47.015Z</time>
      </trkpt>
      <trkpt lat="46.31924" lon="0.67789">
        <ele>88.00553894043</ele>
        <time>2020-06-19T12:09:51.990Z</time>
      </trkpt>
      <trkpt lat="46.31841" lon="0.67841">
        <ele>89.712913513184</ele>
        <time>2020-06-19T12:09:56.980Z</time>
      </trkpt>
      <trkpt lat="46.31819" lon="0.67856">
        <ele>90.780731201172</ele>
        <time>2020-06-19T12:10:01.973Z</time>
      </trkpt>
      <trkpt lat="46.31796" lon="0.67878">
        <ele>91.500625610352</ele>
        <time>2020-06-19T12:10:06.971Z</time>
      </trkpt>
      <trkpt lat="46.31761" lon="0.67932">
        <ele>92.180015563965</ele>
        <time>2020-06-19T12:10:11.977Z</time>
      </trkpt>
      <trkpt lat="46.31703" lon="0.68025">
        <ele>92.008285522461</ele>
        <time>2020-06-19T12:10:16.997Z</time>
      </trkpt>
      <trkpt lat="46.31646" lon="0.68116">
        <ele>91.244354248047</ele>
        <time>2020-06-19T12:10:22.031Z</time>
      </trkpt>
      <trkpt lat="46.31632" lon="0.68139">
        <ele>91.602424621582</ele>
        <time>2020-06-19T12:10:27.068Z</time>
      </trkpt>
      <trkpt lat="46.31617" lon="0.68169">
        <ele>92.862213134766</ele>
        <time>2020-06-19T12:10:32.109Z</time>
      </trkpt>
      <trkpt lat="46.31606" lon="0.68208">
        <ele>94.193992614746</ele>
        <time>2020-06-19T12:10:37.155Z</time>
      </trkpt>
      <trkpt lat="46.31596" lon="0.68268">
        <ele>96.579345703125</ele>
        <time>2020-06-19T12:10:42.208Z</time>
      </trkpt>
      <trkpt lat="46.31585" lon="0.68474">
        <ele>107.50933074951</ele>
        <time>2020-06-19T12:10:47.284Z</time>
      </trkpt>
      <trkpt lat="46.3158" lon="0.68516">
        <ele>110.75607299805</ele>
        <time>2020-06-19T12:10:52.364Z</time>
      </trkpt>
      <trkpt lat="46.31574" lon="0.68531">
        <ele>111.29598236084</ele>
        <time>2020-06-19T12:10:57.446Z</time>
      </trkpt>
      <trkpt lat="46.31563" lon="0.68548">
        <ele>111.67872619629</ele>
        <time>2020-06-19T12:11:02.531Z</time>
      </trkpt>
      <trkpt lat="46.31548" lon="0.68558">
        <ele>111.90740966797</ele>
        <time>2020-06-19T12:11:07.618Z</time>
      </trkpt>
      <trkpt lat="46.31537" lon="0.68561">
        <ele>111.79943084717</ele>
        <time>2020-06-19T12:11:12.707Z</time>
      </trkpt>
      <trkpt lat="46.3149" lon="0.68568">
        <ele>110.65519714355</ele>
        <time>2020-06-19T12:11:17.804Z</time>
      </trkpt>
      <trkpt lat="46.31451" lon="0.68573">
        <ele>110.75984954834</ele>
        <time>2020-06-19T12:11:22.907Z</time>
      </trkpt>
      <trkpt lat="46.31447" lon="0.68573">
        <ele>110.83177947998</ele>
        <time>2020-06-19T12:11:28.011Z</time>
      </trkpt>
      <trkpt lat="46.31376" lon="0.68582">
        <ele>110.7889251709</ele>
        <time>2020-06-19T12:11:33.126Z</time>
      </trkpt>
      <trkpt lat="46.31333" lon="0.68597">
        <ele>111.10675048828</ele>
        <time>2020-06-19T12:11:38.248Z</time>
      </trkpt>
      <trkpt lat="46.31309" lon="0.68607">
        <ele>111.58666992188</ele>
        <time>2020-06-19T12:11:43.374Z</time>
      </trkpt>
      <trkpt lat="46.31274" lon="0.68621">
        <ele>112.25856018066</ele>
        <time>2020-06-19T12:11:48.506Z</time>
      </trkpt>
      <trkpt lat="46.31253" lon="0.68636">
        <ele>112.97843933105</ele>
        <time>2020-06-19T12:11:53.642Z</time>
      </trkpt>
      <trkpt lat="46.31216" lon="0.68673">
        <ele>116.16646575928</ele>
        <time>2020-06-19T12:11:58.785Z</time>
      </trkpt>
      <trkpt lat="46.31185" lon="0.68697">
        <ele>117.99554443359</ele>
        <time>2020-06-19T12:12:03.934Z</time>
      </trkpt>
      <trkpt lat="46.31102" lon="0.68751">
        <ele>122.87651824951</ele>
        <time>2020-06-19T12:12:09.097Z</time>
      </trkpt>
      <trkpt lat="46.31074" lon="0.68773">
        <ele>125.54911804199</ele>
        <time>2020-06-19T12:12:14.265Z</time>
      </trkpt>
      <trkpt lat="46.31016" lon="0.68834">
        <ele>131.38972473145</ele>
        <time>2020-06-19T12:12:19.445Z</time>
      </trkpt>
      <trkpt lat="46.30929" lon="0.68922">
        <ele>136.11703491211</ele>
        <time>2020-06-19T12:12:24.642Z</time>
      </trkpt>
      <trkpt lat="46.3092" lon="0.6893">
        <ele>135.99705505371</ele>
        <time>2020-06-19T12:12:29.840Z</time>
      </trkpt>
      <trkpt lat="46.30879" lon="0.68948">
        <ele>133.02328491211</ele>
        <time>2020-06-19T12:12:35.045Z</time>
      </trkpt>
      <trkpt lat="46.30812" lon="0.68972">
        <ele>123.04460906982</ele>
        <time>2020-06-19T12:12:40.261Z</time>
      </trkpt>
      <trkpt lat="46.30662" lon="0.69027">
        <ele>114.88674163818</ele>
        <time>2020-06-19T12:12:45.502Z</time>
      </trkpt>
      <trkpt lat="46.3056" lon="0.69065">
        <ele>112.29513549805</ele>
        <time>2020-06-19T12:12:50.760Z</time>
      </trkpt>
      <trkpt lat="46.30555" lon="0.69067">
        <ele>112.19248962402</ele>
        <time>2020-06-19T12:12:56.019Z</time>
      </trkpt>
      <trkpt lat="46.30517" lon="0.69081">
        <ele>111.32862854004</ele>
        <time>2020-06-19T12:13:01.284Z</time>
      </trkpt>
      <trkpt lat="46.30496" lon="0.69089">
        <ele>110.86071014404</ele>
        <time>2020-06-19T12:13:06.553Z</time>
      </trkpt>
      <trkpt lat="46.30482" lon="0.69099">
        <ele>110.71673583984</ele>
        <time>2020-06-19T12:13:11.824Z</time>
      </trkpt>
      <trkpt lat="46.30468" lon="0.69113">
        <ele>110.42591094971</ele>
        <time>2020-06-19T12:13:17.098Z</time>
      </trkpt>
      <trkpt lat="46.30459" lon="0.69133">
        <ele>111.0279006958</ele>
        <time>2020-06-19T12:13:22.374Z</time>
      </trkpt>
      <trkpt lat="46.30452" lon="0.6917">
        <ele>111.79094696045</ele>
        <time>2020-06-19T12:13:27.655Z</time>
      </trkpt>
      <trkpt lat="46.30444" lon="0.69208">
        <ele>112.41484069824</ele>
        <time>2020-06-19T12:13:32.940Z</time>
      </trkpt>
      <trkpt lat="46.30443" lon="0.69212">
        <ele>112.47483062744</ele>
        <time>2020-06-19T12:13:38.226Z</time>
      </trkpt>
      <trkpt lat="46.30436" lon="0.6922">
        <ele>112.41772460938</ele>
        <time>2020-06-19T12:13:43.513Z</time>
      </trkpt>
      <trkpt lat="46.30424" lon="0.69228">
        <ele>112.36973571777</ele>
        <time>2020-06-19T12:13:48.802Z</time>
      </trkpt>
      <trkpt lat="46.30411" lon="0.69229">
        <ele>111.94979858398</ele>
        <time>2020-06-19T12:13:54.093Z</time>
      </trkpt>
      <trkpt lat="46.30393" lon="0.69228">
        <ele>111.23320770264</ele>
        <time>2020-06-19T12:13:59.387Z</time>
      </trkpt>
      <trkpt lat="46.30304" lon="0.69209">
        <ele>113.8171081543</ele>
        <time>2020-06-19T12:14:04.695Z</time>
      </trkpt>
      <trkpt lat="46.30142" lon="0.69177">
        <ele>115.45658111572</ele>
        <time>2020-06-19T12:14:10.030Z</time>
      </trkpt>
      <trkpt lat="46.30059" lon="0.6916">
        <ele>114.51052856445</ele>
        <time>2020-06-19T12:14:15.378Z</time>
      </trkpt>
      <trkpt lat="46.30023" lon="0.69151">
        <ele>113.86264038086</ele>
        <time>2020-06-19T12:14:20.732Z</time>
      </trkpt>
      <trkpt lat="46.29992" lon="0.69147">
        <ele>113.38893127441</ele>
        <time>2020-06-19T12:14:26.091Z</time>
      </trkpt>
      <trkpt lat="46.29988" lon="0.69146">
        <ele>113.3588104248</ele>
        <time>2020-06-19T12:14:31.451Z</time>
      </trkpt>
      <trkpt lat="46.29955" lon="0.69145">
        <ele>113.7067489624</ele>
        <time>2020-06-19T12:14:36.816Z</time>
      </trkpt>
      <trkpt lat="46.29912" lon="0.69142">
        <ele>114.0786895752</ele>
        <time>2020-06-19T12:14:42.188Z</time>
      </trkpt>
      <trkpt lat="46.2988" lon="0.69138">
        <ele>114.03520965576</ele>
        <time>2020-06-19T12:14:47.565Z</time>
      </trkpt>
      <trkpt lat="46.29852" lon="0.69143">
        <ele>114.15518951416</ele>
        <time>2020-06-19T12:14:52.946Z</time>
      </trkpt>
      <trkpt lat="46.29828" lon="0.69157">
        <ele>114.42143249512</ele>
        <time>2020-06-19T12:14:58.331Z</time>
      </trkpt>
      <trkpt lat="46.29808" lon="0.69161">
        <ele>114.35765075684</ele>
        <time>2020-06-19T12:15:03.720Z</time>
      </trkpt>
      <trkpt lat="46.29784" lon="0.69158">
        <ele>114.60961151123</ele>
        <time>2020-06-19T12:15:09.113Z</time>
      </trkpt>
      <trkpt lat="46.29764" lon="0.69148">
        <ele>114.72959136963</ele>
        <time>2020-06-19T12:15:14.509Z</time>
      </trkpt>
      <trkpt lat="46.29697" lon="0.69097">
        <ele>112.62844085693</ele>
        <time>2020-06-19T12:15:19.917Z</time>
      </trkpt>
      <trkpt lat="46.29642" lon="0.69057">
        <ele>110.10152435303</ele>
        <time>2020-06-19T12:15:25.335Z</time>
      </trkpt>
      <trkpt lat="46.29615" lon="0.69046">
        <ele>110.20728302002</ele>
        <time>2020-06-19T12:15:30.757Z</time>
      </trkpt>
      <trkpt lat="46.29572" lon="0.69032">
        <ele>110.38725280762</ele>
        <time>2020-06-19T12:15:36.187Z</time>
      </trkpt>
      <trkpt lat="46.29469" lon="0.68997">
        <ele>108.3258895874</ele>
        <time>2020-06-19T12:15:41.633Z</time>
      </trkpt>
      <trkpt lat="46.29377" lon="0.68958">
        <ele>107.10343933105</ele>
        <time>2020-06-19T12:15:47.095Z</time>
      </trkpt>
      <trkpt lat="46.29365" lon="0.68953">
        <ele>106.62384033203</ele>
        <time>2020-06-19T12:15:52.559Z</time>
      </trkpt>
      <trkpt lat="46.29361" lon="0.68951">
        <ele>106.46754455566</ele>
        <time>2020-06-19T12:15:58.023Z</time>
      </trkpt>
      <trkpt lat="46.29337" lon="0.6894">
        <ele>105.49570465088</ele>
        <time>2020-06-19T12:16:03.492Z</time>
      </trkpt>
      <trkpt lat="46.29313" lon="0.68923">
        <ele>104.30480194092</ele>
        <time>2020-06-19T12:16:08.965Z</time>
      </trkpt>
      <trkpt lat="46.29299" lon="0.68902">
        <ele>103.04501342773</ele>
        <time>2020-06-19T12:16:14.441Z</time>
      </trkpt>
      <trkpt lat="46.29289" lon="0.68876">
        <ele>102.12683868408</ele>
        <time>2020-06-19T12:16:19.920Z</time>
      </trkpt>
      <trkpt lat="46.2928" lon="0.68861">
        <ele>101.80289459229</ele>
        <time>2020-06-19T12:16:25.402Z</time>
      </trkpt>
      <trkpt lat="46.29271" lon="0.68854">
        <ele>101.47894287109</ele>
        <time>2020-06-19T12:16:30.885Z</time>
      </trkpt>
      <trkpt lat="46.29252" lon="0.68848">
        <ele>100.7950592041</ele>
        <time>2020-06-19T12:16:36.371Z</time>
      </trkpt>
      <trkpt lat="46.29215" lon="0.68846">
        <ele>99.284378051758</ele>
        <time>2020-06-19T12:16:41.863Z</time>
      </trkpt>
      <trkpt lat="46.29172" lon="0.68848">
        <ele>97.919738769531</ele>
        <time>2020-06-19T12:16:47.362Z</time>
      </trkpt>
      <trkpt lat="46.29046" lon="0.68859">
        <ele>95.257026672363</ele>
        <time>2020-06-19T12:16:52.881Z</time>
      </trkpt>
      <trkpt lat="46.29032" lon="0.68859">
        <ele>94.965789794922</ele>
        <time>2020-06-19T12:16:58.403Z</time>
      </trkpt>
      <trkpt lat="46.29013" lon="0.68856">
        <ele>94.665840148926</ele>
        <time>2020-06-19T12:17:03.928Z</time>
      </trkpt>
      <trkpt lat="46.28997" lon="0.68848">
        <ele>94.281898498535</ele>
        <time>2020-06-19T12:17:09.455Z</time>
      </trkpt>
      <trkpt lat="46.28975" lon="0.68828">
        <ele>93.713302612305</ele>
        <time>2020-06-19T12:17:14.986Z</time>
      </trkpt>
      <trkpt lat="46.28929" lon="0.68768">
        <ele>92.112396240234</ele>
        <time>2020-06-19T12:17:20.527Z</time>
      </trkpt>
      <trkpt lat="46.28919" lon="0.68759">
        <ele>91.812446594238</ele>
        <time>2020-06-19T12:17:26.070Z</time>
      </trkpt>
      <trkpt lat="46.28903" lon="0.68753">
        <ele>91.836441040039</ele>
        <time>2020-06-19T12:17:31.616Z</time>
      </trkpt>
      <trkpt lat="46.28885" lon="0.68751">
        <ele>91.871894836426</ele>
        <time>2020-06-19T12:17:37.165Z</time>
      </trkpt>
      <trkpt lat="46.2885" lon="0.68754">
        <ele>92.051864624023</ele>
        <time>2020-06-19T12:17:42.719Z</time>
      </trkpt>
      <trkpt lat="46.28766" lon="0.68762">
        <ele>90.446708679199</ele>
        <time>2020-06-19T12:17:48.287Z</time>
      </trkpt>
      <trkpt lat="46.2871" lon="0.68766">
        <ele>90.108695983887</ele>
        <time>2020-06-19T12:17:53.864Z</time>
      </trkpt>
      <trkpt lat="46.28659" lon="0.68762">
        <ele>89.656562805176</ele>
        <time>2020-06-19T12:17:59.449Z</time>
      </trkpt>
      <trkpt lat="46.28622" lon="0.68753">
        <ele>90.27953338623</ele>
        <time>2020-06-19T12:18:05.040Z</time>
      </trkpt>
      <trkpt lat="46.28574" lon="0.68732">
        <ele>91.771331787109</ele>
        <time>2020-06-19T12:18:10.639Z</time>
      </trkpt>
      <trkpt lat="46.28482" lon="0.6869">
        <ele>91.900947570801</ele>
        <time>2020-06-19T12:18:16.254Z</time>
      </trkpt>
      <trkpt lat="46.2837" lon="0.6864">
        <ele>89.040161132812</ele>
        <time>2020-06-19T12:18:21.887Z</time>
      </trkpt>
      <trkpt lat="46.28366" lon="0.68638">
        <ele>89.018608093262</ele>
        <time>2020-06-19T12:18:27.521Z</time>
      </trkpt>
      <trkpt lat="46.2834" lon="0.68625">
        <ele>89</ele>
        <time>2020-06-19T12:18:33.159Z</time>
      </trkpt>
      <trkpt lat="46.28324" lon="0.68623">
        <ele>89</ele>
        <time>2020-06-19T12:18:38.800Z</time>
      </trkpt>
      <trkpt lat="46.28316" lon="0.68624">
        <ele>89</ele>
        <time>2020-06-19T12:18:44.442Z</time>
      </trkpt>
      <trkpt lat="46.28287" lon="0.68638">
        <ele>89.331657409668</ele>
        <time>2020-06-19T12:18:50.089Z</time>
      </trkpt>
      <trkpt lat="46.28239" lon="0.68664">
        <ele>90</ele>
        <time>2020-06-19T12:18:55.744Z</time>
      </trkpt>
      <trkpt lat="46.28188" lon="0.68691">
        <ele>93.160469055176</ele>
        <time>2020-06-19T12:19:01.408Z</time>
      </trkpt>
      <trkpt lat="46.28168" lon="0.68702">
        <ele>94.972160339355</ele>
        <time>2020-06-19T12:19:07.075Z</time>
      </trkpt>
      <trkpt lat="46.28156" lon="0.68691">
        <ele>95.848014831543</ele>
        <time>2020-06-19T12:19:12.745Z</time>
      </trkpt>
      <trkpt lat="46.28105" lon="0.68647">
        <ele>96.623275756836</ele>
        <time>2020-06-19T12:19:18.424Z</time>
      </trkpt>
      <trkpt lat="46.281" lon="0.68644">
        <ele>96.647270202637</ele>
        <time>2020-06-19T12:19:24.104Z</time>
      </trkpt>
      <trkpt lat="46.281" lon="0.68639">
        <ele>96.587280273438</ele>
        <time>2020-06-19T12:19:29.785Z</time>
      </trkpt>
      <trkpt lat="46.28095" lon="0.68609">
        <ele>95.957992553711</ele>
        <time>2020-06-19T12:19:35.469Z</time>
      </trkpt>
      <trkpt lat="46.28094" lon="0.68604">
        <ele>95.837577819824</ele>
        <time>2020-06-19T12:19:41.154Z</time>
      </trkpt>
      <trkpt lat="46.28093" lon="0.68597">
        <ele>95.694038391113</ele>
        <time>2020-06-19T12:19:46.839Z</time>
      </trkpt>
      <trkpt lat="46.28097" lon="0.68571">
        <ele>94.829559326172</ele>
        <time>2020-06-19T12:19:52.527Z</time>
      </trkpt>
      <trkpt lat="46.28116" lon="0.685">
        <ele>91.361053466797</ele>
        <time>2020-06-19T12:19:58.224Z</time>
      </trkpt>
      <trkpt lat="46.28127" lon="0.68465">
        <ele>90.653175354004</ele>
        <time>2020-06-19T12:20:03.925Z</time>
      </trkpt>
      <trkpt lat="46.28131" lon="0.68453">
        <ele>90.429496765137</ele>
        <time>2020-06-19T12:20:09.628Z</time>
      </trkpt>
      <trkpt lat="46.28122" lon="0.68452">
        <ele>90.281234741211</ele>
        <time>2020-06-19T12:20:15.332Z</time>
      </trkpt>
      <trkpt lat="46.28078" lon="0.68448">
        <ele>89.657341003418</ele>
        <time>2020-06-19T12:20:21.043Z</time>
      </trkpt>
      <trkpt lat="46.28039" lon="0.68447">
        <ele>90.01554107666</ele>
        <time>2020-06-19T12:20:26.760Z</time>
      </trkpt>
      <trkpt lat="46.28011" lon="0.68442">
        <ele>90.291496276855</ele>
        <time>2020-06-19T12:20:32.482Z</time>
      </trkpt>
      <trkpt lat="46.27991" lon="0.68437">
        <ele>90.471466064453</ele>
        <time>2020-06-19T12:20:38.207Z</time>
      </trkpt>
      <trkpt lat="46.27956" lon="0.68421">
        <ele>90.4150390625</ele>
        <time>2020-06-19T12:20:43.938Z</time>
      </trkpt>
      <trkpt lat="46.27951" lon="0.68419">
        <ele>90.389259338379</ele>
        <time>2020-06-19T12:20:49.670Z</time>
      </trkpt>
      <trkpt lat="46.27947" lon="0.68417">
        <ele>90.367050170898</ele>
        <time>2020-06-19T12:20:55.402Z</time>
      </trkpt>
      <trkpt lat="46.27802" lon="0.68354">
        <ele>88.743255615234</ele>
        <time>2020-06-19T12:21:01.159Z</time>
      </trkpt>
      <trkpt lat="46.27715" lon="0.68315">
        <ele>88.680839538574</ele>
        <time>2020-06-19T12:21:06.930Z</time>
      </trkpt>
      <trkpt lat="46.27682" lon="0.683">
        <ele>88.428161621094</ele>
        <time>2020-06-19T12:21:12.707Z</time>
      </trkpt>
      <trkpt lat="46.27653" lon="0.6829">
        <ele>88.080215454102</ele>
        <time>2020-06-19T12:21:18.489Z</time>
      </trkpt>
      <trkpt lat="46.27621" lon="0.68286">
        <ele>87.689643859863</ele>
        <time>2020-06-19T12:21:24.276Z</time>
      </trkpt>
      <trkpt lat="46.27591" lon="0.68292">
        <ele>88.265548706055</ele>
        <time>2020-06-19T12:21:30.068Z</time>
      </trkpt>
      <trkpt lat="46.27543" lon="0.68308">
        <ele>89.958251953125</ele>
        <time>2020-06-19T12:21:35.868Z</time>
      </trkpt>
      <trkpt lat="46.27449" lon="0.68342">
        <ele>90.763832092285</ele>
        <time>2020-06-19T12:21:41.683Z</time>
      </trkpt>
      <trkpt lat="46.27416" lon="0.68357">
        <ele>90.468971252441</ele>
        <time>2020-06-19T12:21:47.504Z</time>
      </trkpt>
      <trkpt lat="46.27394" lon="0.68382">
        <ele>90.023971557617</ele>
        <time>2020-06-19T12:21:53.329Z</time>
      </trkpt>
      <trkpt lat="46.27366" lon="0.68429">
        <ele>89.488975524902</ele>
        <time>2020-06-19T12:21:59.161Z</time>
      </trkpt>
      <trkpt lat="46.27348" lon="0.68462">
        <ele>89.093040466309</ele>
        <time>2020-06-19T12:22:04.998Z</time>
      </trkpt>
      <trkpt lat="46.27312" lon="0.68532">
        <ele>89.715003967285</ele>
        <time>2020-06-19T12:22:10.844Z</time>
      </trkpt>
      <trkpt lat="46.27309" lon="0.68537">
        <ele>89.712615966797</ele>
        <time>2020-06-19T12:22:16.691Z</time>
      </trkpt>
      <trkpt lat="46.27263" lon="0.68623">
        <ele>91.114906311035</ele>
        <time>2020-06-19T12:22:22.550Z</time>
      </trkpt>
      <trkpt lat="46.27241" lon="0.68661">
        <ele>92.431602478027</ele>
        <time>2020-06-19T12:22:28.415Z</time>
      </trkpt>
      <trkpt lat="46.27224" lon="0.6868">
        <ele>92.321746826172</ele>
        <time>2020-06-19T12:22:34.283Z</time>
      </trkpt>
      <trkpt lat="46.27202" lon="0.68695">
        <ele>91.809967041016</ele>
        <time>2020-06-19T12:22:40.155Z</time>
      </trkpt>
      <trkpt lat="46.27172" lon="0.68708">
        <ele>92.433860778809</ele>
        <time>2020-06-19T12:22:46.032Z</time>
      </trkpt>
      <trkpt lat="46.27149" lon="0.68713">
        <ele>92.673820495605</ele>
        <time>2020-06-19T12:22:51.913Z</time>
      </trkpt>
      <trkpt lat="46.27123" lon="0.68714">
        <ele>92.582183837891</ele>
        <time>2020-06-19T12:22:57.798Z</time>
      </trkpt>
      <trkpt lat="46.26969" lon="0.68687">
        <ele>92.971504211426</ele>
        <time>2020-06-19T12:23:03.708Z</time>
      </trkpt>
      <trkpt lat="46.26942" lon="0.68675">
        <ele>94.627227783203</ele>
        <time>2020-06-19T12:23:09.622Z</time>
      </trkpt>
      <trkpt lat="46.26886" lon="0.68642">
        <ele>97.37769317627</ele>
        <time>2020-06-19T12:23:15.546Z</time>
      </trkpt>
      <trkpt lat="46.26733" lon="0.68555">
        <ele>91.201454162598</ele>
        <time>2020-06-19T12:23:21.496Z</time>
      </trkpt>
      <trkpt lat="46.26694" lon="0.68534">
        <ele>91.032508850098</ele>
        <time>2020-06-19T12:23:27.453Z</time>
      </trkpt>
      <trkpt lat="46.26678" lon="0.68528">
        <ele>90.984519958496</ele>
        <time>2020-06-19T12:23:33.412Z</time>
      </trkpt>
      <trkpt lat="46.26654" lon="0.68524">
        <ele>90.792549133301</ele>
        <time>2020-06-19T12:23:39.375Z</time>
      </trkpt>
      <trkpt lat="46.2662" lon="0.68523">
        <ele>91.663482666016</ele>
        <time>2020-06-19T12:23:45.344Z</time>
      </trkpt>
      <trkpt lat="46.2656" lon="0.68522">
        <ele>95.761222839355</ele>
        <time>2020-06-19T12:23:51.322Z</time>
      </trkpt>
      <trkpt lat="46.26502" lon="0.68519">
        <ele>97.868118286133</ele>
        <time>2020-06-19T12:23:57.310Z</time>
      </trkpt>
      <trkpt lat="46.26486" lon="0.68518">
        <ele>98.264053344727</ele>
        <time>2020-06-19T12:24:03.300Z</time>
      </trkpt>
      <trkpt lat="46.26463" lon="0.68512">
        <ele>97.900932312012</ele>
        <time>2020-06-19T12:24:09.294Z</time>
      </trkpt>
      <trkpt lat="46.26426" lon="0.685">
        <ele>96.721549987793</ele>
        <time>2020-06-19T12:24:15.294Z</time>
      </trkpt>
      <trkpt lat="46.26374" lon="0.68485">
        <ele>96.182914733887</ele>
        <time>2020-06-19T12:24:21.303Z</time>
      </trkpt>
      <trkpt lat="46.26315" lon="0.68467">
        <ele>95.933891296387</ele>
        <time>2020-06-19T12:24:27.321Z</time>
      </trkpt>
      <trkpt lat="46.26245" lon="0.68446">
        <ele>95.714988708496</ele>
        <time>2020-06-19T12:24:33.351Z</time>
      </trkpt>
      <trkpt lat="46.2622" lon="0.68438">
        <ele>95.731925964355</ele>
        <time>2020-06-19T12:24:39.385Z</time>
      </trkpt>
      <trkpt lat="46.2619" lon="0.68425">
        <ele>95.935890197754</ele>
        <time>2020-06-19T12:24:45.424Z</time>
      </trkpt>
      <trkpt lat="46.26171" lon="0.68415">
        <ele>96</ele>
        <time>2020-06-19T12:24:51.466Z</time>
      </trkpt>
      <trkpt lat="46.26146" lon="0.68406">
        <ele>95.997695922852</ele>
        <time>2020-06-19T12:24:57.512Z</time>
      </trkpt>
      <trkpt lat="46.26125" lon="0.68404">
        <ele>95.241821289062</ele>
        <time>2020-06-19T12:25:03.561Z</time>
      </trkpt>
      <trkpt lat="46.26098" lon="0.6841">
        <ele>94.269981384277</ele>
        <time>2020-06-19T12:25:09.615Z</time>
      </trkpt>
      <trkpt lat="46.26074" lon="0.68421">
        <ele>94.2451171875</ele>
        <time>2020-06-19T12:25:15.673Z</time>
      </trkpt>
      <trkpt lat="46.26049" lon="0.68441">
        <ele>94.800422668457</ele>
        <time>2020-06-19T12:25:21.735Z</time>
      </trkpt>
      <trkpt lat="46.26011" lon="0.68468">
        <ele>95.91577911377</ele>
        <time>2020-06-19T12:25:27.804Z</time>
      </trkpt>
      <trkpt lat="46.25997" lon="0.68475">
        <ele>96</ele>
        <time>2020-06-19T12:25:33.876Z</time>
      </trkpt>
      <trkpt lat="46.25968" lon="0.68484">
        <ele>95.863586425781</ele>
        <time>2020-06-19T12:25:39.952Z</time>
      </trkpt>
      <trkpt lat="46.25925" lon="0.68492">
        <ele>95.347671508789</ele>
        <time>2020-06-19T12:25:46.035Z</time>
      </trkpt>
      <trkpt lat="46.25883" lon="0.68502">
        <ele>96.62190246582</ele>
        <time>2020-06-19T12:25:52.125Z</time>
      </trkpt>
      <trkpt lat="46.25868" lon="0.68508">
        <ele>96.62190246582</ele>
        <time>2020-06-19T12:25:58.218Z</time>
      </trkpt>
      <trkpt lat="46.25845" lon="0.68527">
        <ele>96.31282043457</ele>
        <time>2020-06-19T12:26:04.315Z</time>
      </trkpt>
      <trkpt lat="46.25825" lon="0.68546">
        <ele>95.568946838379</ele>
        <time>2020-06-19T12:26:10.416Z</time>
      </trkpt>
      <trkpt lat="46.25798" lon="0.68569">
        <ele>95.014671325684</ele>
        <time>2020-06-19T12:26:16.522Z</time>
      </trkpt>
      <trkpt lat="46.25782" lon="0.68575">
        <ele>94.894691467285</ele>
        <time>2020-06-19T12:26:22.630Z</time>
      </trkpt>
      <trkpt lat="46.25766" lon="0.68578">
        <ele>94.738716125488</ele>
        <time>2020-06-19T12:26:28.741Z</time>
      </trkpt>
      <trkpt lat="46.25745" lon="0.68584">
        <ele>94.741424560547</ele>
        <time>2020-06-19T12:26:34.855Z</time>
      </trkpt>
      <trkpt lat="46.25742" lon="0.68627">
        <ele>95.773254394531</ele>
        <time>2020-06-19T12:26:40.974Z</time>
      </trkpt>
      <trkpt lat="46.25743" lon="0.68662">
        <ele>96.285041809082</ele>
        <time>2020-06-19T12:26:47.097Z</time>
      </trkpt>
      <trkpt lat="46.25747" lon="0.68686">
        <ele>96.764961242676</ele>
        <time>2020-06-19T12:26:53.223Z</time>
      </trkpt>
      <trkpt lat="46.25756" lon="0.68705">
        <ele>97.004920959473</ele>
        <time>2020-06-19T12:26:59.351Z</time>
      </trkpt>
      <trkpt lat="46.25776" lon="0.68738">
        <ele>97.09846496582</ele>
        <time>2020-06-19T12:27:05.484Z</time>
      </trkpt>
      <trkpt lat="46.25826" lon="0.68815">
        <ele>97.461990356445</ele>
        <time>2020-06-19T12:27:11.629Z</time>
      </trkpt>
      <trkpt lat="46.25849" lon="0.68851">
        <ele>98.852783203125</ele>
        <time>2020-06-19T12:27:17.779Z</time>
      </trkpt>
      <trkpt lat="46.25852" lon="0.68856">
        <ele>99.06485748291</ele>
        <time>2020-06-19T12:27:23.930Z</time>
      </trkpt>
      <trkpt lat="46.25876" lon="0.68898">
        <ele>100.79257202148</ele>
        <time>2020-06-19T12:27:30.087Z</time>
      </trkpt>
      <trkpt lat="46.25895" lon="0.68964">
        <ele>103.73207855225</ele>
        <time>2020-06-19T12:27:36.252Z</time>
      </trkpt>
      <trkpt lat="46.259" lon="0.68994">
        <ele>104.72295379639</ele>
        <time>2020-06-19T12:27:42.420Z</time>
      </trkpt>
      <trkpt lat="46.25901" lon="0.69046">
        <ele>106.00674438477</ele>
        <time>2020-06-19T12:27:48.594Z</time>
      </trkpt>
      <trkpt lat="46.25903" lon="0.69131">
        <ele>108.71714019775</ele>
        <time>2020-06-19T12:27:54.778Z</time>
      </trkpt>
      <trkpt lat="46.25906" lon="0.69209">
        <ele>112.12213134766</ele>
        <time>2020-06-19T12:28:00.970Z</time>
      </trkpt>
      <trkpt lat="46.25906" lon="0.69217">
        <ele>112.5026550293</ele>
        <time>2020-06-19T12:28:07.163Z</time>
      </trkpt>
      <trkpt lat="46.25908" lon="0.69268">
        <ele>114.01098632812</ele>
        <time>2020-06-19T12:28:13.362Z</time>
      </trkpt>
      <trkpt lat="46.25908" lon="0.69331">
        <ele>114.85629272461</ele>
        <time>2020-06-19T12:28:19.568Z</time>
      </trkpt>
      <trkpt lat="46.25904" lon="0.69407">
        <ele>115.44805908203</ele>
        <time>2020-06-19T12:28:25.782Z</time>
      </trkpt>
      <trkpt lat="46.25902" lon="0.69456">
        <ele>117.28375244141</ele>
        <time>2020-06-19T12:28:32.002Z</time>
      </trkpt>
      <trkpt lat="46.25903" lon="0.69466">
        <ele>117.6076965332</ele>
        <time>2020-06-19T12:28:38.223Z</time>
      </trkpt>
      <trkpt lat="46.25917" lon="0.69465">
        <ele>117.06778717041</ele>
        <time>2020-06-19T12:28:44.446Z</time>
      </trkpt>
      <trkpt lat="46.25928" lon="0.6948">
        <ele>116.96991729736</ele>
        <time>2020-06-19T12:28:50.672Z</time>
      </trkpt>
      <trkpt lat="46.25932" lon="0.69493">
        <ele>116.98191833496</ele>
        <time>2020-06-19T12:28:56.899Z</time>
      </trkpt>
      <trkpt lat="46.25916" lon="0.69568">
        <ele>120.50852966309</ele>
        <time>2020-06-19T12:29:03.135Z</time>
      </trkpt>
      <trkpt lat="46.25916" lon="0.69571">
        <ele>120.68088531494</ele>
        <time>2020-06-19T12:29:09.371Z</time>
      </trkpt>
      <trkpt lat="46.25914" lon="0.69579">
        <ele>121.15641784668</ele>
        <time>2020-06-19T12:29:15.608Z</time>
      </trkpt>
      <trkpt lat="46.259" lon="0.69642">
        <ele>124.95227813721</ele>
        <time>2020-06-19T12:29:21.853Z</time>
      </trkpt>
      <trkpt lat="46.25896" lon="0.69659">
        <ele>125</ele>
        <time>2020-06-19T12:29:28.099Z</time>
      </trkpt>
      <trkpt lat="46.25834" lon="0.6963">
        <ele>124.68248748779</ele>
        <time>2020-06-19T12:29:34.356Z</time>
      </trkpt>
      <trkpt lat="46.25806" lon="0.69618">
        <ele>124.34684753418</ele>
        <time>2020-06-19T12:29:40.618Z</time>
      </trkpt>
      <trkpt lat="46.2565" lon="0.69548">
        <ele>125.71391296387</ele>
        <time>2020-06-19T12:29:46.906Z</time>
      </trkpt>
      <trkpt lat="46.2544" lon="0.69453">
        <ele>128.01176452637</ele>
        <time>2020-06-19T12:29:53.229Z</time>
      </trkpt>
      <trkpt lat="46.25435" lon="0.69451">
        <ele>127.86489868164</ele>
        <time>2020-06-19T12:29:59.553Z</time>
      </trkpt>
      <trkpt lat="46.25381" lon="0.69429">
        <ele>126.9035949707</ele>
        <time>2020-06-19T12:30:05.886Z</time>
      </trkpt>
      <trkpt lat="46.25324" lon="0.69415">
        <ele>127.43151092529</ele>
        <time>2020-06-19T12:30:12.228Z</time>
      </trkpt>
      <trkpt lat="46.25298" lon="0.6941">
        <ele>127.9305267334</ele>
        <time>2020-06-19T12:30:18.574Z</time>
      </trkpt>
      <trkpt lat="46.25276" lon="0.69409">
        <ele>128.66239929199</ele>
        <time>2020-06-19T12:30:24.924Z</time>
      </trkpt>
      <trkpt lat="46.25234" lon="0.69413">
        <ele>129.63410949707</ele>
        <time>2020-06-19T12:30:31.281Z</time>
      </trkpt>
      <trkpt lat="46.25198" lon="0.69419">
        <ele>129.77809143066</ele>
        <time>2020-06-19T12:30:37.643Z</time>
      </trkpt>
      <trkpt lat="46.2518" lon="0.69423">
        <ele>129.90194702148</ele>
        <time>2020-06-19T12:30:44.008Z</time>
      </trkpt>
      <trkpt lat="46.2517" lon="0.69427">
        <ele>130.16589355469</ele>
        <time>2020-06-19T12:30:50.375Z</time>
      </trkpt>
      <trkpt lat="46.25075" lon="0.69458">
        <ele>132.27848815918</ele>
        <time>2020-06-19T12:30:56.757Z</time>
      </trkpt>
      <trkpt lat="46.25022" lon="0.69471">
        <ele>134.08950805664</ele>
        <time>2020-06-19T12:31:03.148Z</time>
      </trkpt>
      <trkpt lat="46.24952" lon="0.6948">
        <ele>137.80474853516</ele>
        <time>2020-06-19T12:31:09.550Z</time>
      </trkpt>
      <trkpt lat="46.24932" lon="0.69478">
        <ele>139.07652282715</ele>
        <time>2020-06-19T12:31:15.956Z</time>
      </trkpt>
      <trkpt lat="46.24877" lon="0.69466">
        <ele>140.89688110352</ele>
        <time>2020-06-19T12:31:22.370Z</time>
      </trkpt>
      <trkpt lat="46.24832" lon="0.69449">
        <ele>139.98979187012</ele>
        <time>2020-06-19T12:31:28.792Z</time>
      </trkpt>
      <trkpt lat="46.24827" lon="0.69447">
        <ele>139.90104675293</ele>
        <time>2020-06-19T12:31:35.215Z</time>
      </trkpt>
      <trkpt lat="46.24793" lon="0.6943">
        <ele>138.64715576172</ele>
        <time>2020-06-19T12:31:41.643Z</time>
      </trkpt>
      <trkpt lat="46.24761" lon="0.69412">
        <ele>137.13540649414</ele>
        <time>2020-06-19T12:31:48.077Z</time>
      </trkpt>
      <trkpt lat="46.2474" lon="0.69397">
        <ele>135.87561035156</ele>
        <time>2020-06-19T12:31:54.515Z</time>
      </trkpt>
      <trkpt lat="46.24712" lon="0.69376">
        <ele>135.65100097656</ele>
        <time>2020-06-19T12:32:00.958Z</time>
      </trkpt>
      <trkpt lat="46.24697" lon="0.6936">
        <ele>137.03076171875</ele>
        <time>2020-06-19T12:32:07.404Z</time>
      </trkpt>
      <trkpt lat="46.24624" lon="0.6927">
        <ele>143.04690551758</ele>
        <time>2020-06-19T12:32:13.865Z</time>
      </trkpt>
      <trkpt lat="46.24561" lon="0.6919">
        <ele>144.9421081543</ele>
        <time>2020-06-19T12:32:20.340Z</time>
      </trkpt>
      <trkpt lat="46.24547" lon="0.69174">
        <ele>144.52456665039</ele>
        <time>2020-06-19T12:32:26.817Z</time>
      </trkpt>
      <trkpt lat="46.24544" lon="0.6917">
        <ele>144.4261932373</ele>
        <time>2020-06-19T12:32:33.295Z</time>
      </trkpt>
      <trkpt lat="46.24512" lon="0.69131">
        <ele>143.00807189941</ele>
        <time>2020-06-19T12:32:39.780Z</time>
      </trkpt>
      <trkpt lat="46.24481" lon="0.69085">
        <ele>138.41284179688</ele>
        <time>2020-06-19T12:32:46.272Z</time>
      </trkpt>
      <trkpt lat="46.24458" lon="0.69047">
        <ele>135.43257141113</ele>
        <time>2020-06-19T12:32:52.770Z</time>
      </trkpt>
      <trkpt lat="46.24429" lon="0.68995">
        <ele>134.63360595703</ele>
        <time>2020-06-19T12:32:59.275Z</time>
      </trkpt>
      <trkpt lat="46.24399" lon="0.68931">
        <ele>133.24412536621</ele>
        <time>2020-06-19T12:33:05.789Z</time>
      </trkpt>
      <trkpt lat="46.24372" lon="0.68876">
        <ele>133.5080871582</ele>
        <time>2020-06-19T12:33:12.310Z</time>
      </trkpt>
      <trkpt lat="46.24337" lon="0.68821">
        <ele>133.91317749023</ele>
        <time>2020-06-19T12:33:18.839Z</time>
      </trkpt>
      <trkpt lat="46.24334" lon="0.68817">
        <ele>133.77995300293</ele>
        <time>2020-06-19T12:33:25.369Z</time>
      </trkpt>
      <trkpt lat="46.24298" lon="0.68768">
        <ele>134.26560974121</ele>
        <time>2020-06-19T12:33:31.907Z</time>
      </trkpt>
      <trkpt lat="46.24238" lon="0.68698">
        <ele>133.99188232422</ele>
        <time>2020-06-19T12:33:38.457Z</time>
      </trkpt>
      <trkpt lat="46.24195" lon="0.6865">
        <ele>132.77354431152</ele>
        <time>2020-06-19T12:33:45.016Z</time>
      </trkpt>
      <trkpt lat="46.24149" lon="0.68606">
        <ele>133.1124420166</ele>
        <time>2020-06-19T12:33:51.584Z</time>
      </trkpt>
      <trkpt lat="46.24116" lon="0.68578">
        <ele>133.66758728027</ele>
        <time>2020-06-19T12:33:58.158Z</time>
      </trkpt>
      <trkpt lat="46.24058" lon="0.68529">
        <ele>133.86967468262</ele>
        <time>2020-06-19T12:34:04.743Z</time>
      </trkpt>
      <trkpt lat="46.24041" lon="0.68511">
        <ele>134.01365661621</ele>
        <time>2020-06-19T12:34:11.331Z</time>
      </trkpt>
      <trkpt lat="46.24014" lon="0.68476">
        <ele>133.85768127441</ele>
        <time>2020-06-19T12:34:17.925Z</time>
      </trkpt>
      <trkpt lat="46.23968" lon="0.6841">
        <ele>135.2830657959</ele>
        <time>2020-06-19T12:34:24.529Z</time>
      </trkpt>
      <trkpt lat="46.23958" lon="0.68396">
        <ele>135.11685180664</ele>
        <time>2020-06-19T12:34:31.135Z</time>
      </trkpt>
      <trkpt lat="46.23955" lon="0.68392">
        <ele>135.06709289551</ele>
        <time>2020-06-19T12:34:37.742Z</time>
      </trkpt>
      <trkpt lat="46.23947" lon="0.6838">
        <ele>134.84623718262</ele>
        <time>2020-06-19T12:34:44.351Z</time>
      </trkpt>
      <trkpt lat="46.23925" lon="0.68355">
        <ele>134.24633789062</ele>
        <time>2020-06-19T12:34:50.964Z</time>
      </trkpt>
      <trkpt lat="46.23884" lon="0.68321">
        <ele>133.29023742676</ele>
        <time>2020-06-19T12:34:57.585Z</time>
      </trkpt>
      <trkpt lat="46.23821" lon="0.6827">
        <ele>131.31056213379</ele>
        <time>2020-06-19T12:35:04.218Z</time>
      </trkpt>
      <trkpt lat="46.23782" lon="0.68232">
        <ele>130.65887451172</ele>
        <time>2020-06-19T12:35:10.858Z</time>
      </trkpt>
      <trkpt lat="46.23767" lon="0.68221">
        <ele>130.57489013672</ele>
        <time>2020-06-19T12:35:17.501Z</time>
      </trkpt>
      <trkpt lat="46.23696" lon="0.68195">
        <ele>130.0203704834</ele>
        <time>2020-06-19T12:35:24.156Z</time>
      </trkpt>
      <trkpt lat="46.23692" lon="0.68194">
        <ele>129.93911743164</ele>
        <time>2020-06-19T12:35:30.811Z</time>
      </trkpt>
      <trkpt lat="46.23632" lon="0.68172">
        <ele>129.01881408691</ele>
        <time>2020-06-19T12:35:37.476Z</time>
      </trkpt>
      <trkpt lat="46.23618" lon="0.68169">
        <ele>129.11480712891</ele>
        <time>2020-06-19T12:35:44.143Z</time>
      </trkpt>
      <trkpt lat="46.23609" lon="0.6817">
        <ele>129.24678039551</ele>
        <time>2020-06-19T12:35:50.812Z</time>
      </trkpt>
      <trkpt lat="46.236" lon="0.68176">
        <ele>129.49226379395</ele>
        <time>2020-06-19T12:35:57.482Z</time>
      </trkpt>
      <trkpt lat="46.23598" lon="0.68177">
        <ele>129.54672241211</ele>
        <time>2020-06-19T12:36:04.153Z</time>
      </trkpt>
      <trkpt lat="46.23597" lon="0.68178">
        <ele>129.58271789551</ele>
        <time>2020-06-19T12:36:10.824Z</time>
      </trkpt>
      <trkpt lat="46.23588" lon="0.6819">
        <ele>129.9786529541</ele>
        <time>2020-06-19T12:36:17.497Z</time>
      </trkpt>
      <trkpt lat="46.23583" lon="0.68204">
        <ele>130.3745880127</ele>
        <time>2020-06-19T12:36:24.172Z</time>
      </trkpt>
      <trkpt lat="46.23568" lon="0.68238">
        <ele>131.21940612793</ele>
        <time>2020-06-19T12:36:30.851Z</time>
      </trkpt>
      <trkpt lat="46.23566" lon="0.68245">
        <ele>131.30339050293</ele>
        <time>2020-06-19T12:36:37.531Z</time>
      </trkpt>
      <trkpt lat="46.23573" lon="0.6825">
        <ele>131.36338806152</ele>
        <time>2020-06-19T12:36:44.212Z</time>
      </trkpt>
      <trkpt lat="46.23603" lon="0.68274">
        <ele>131.65133666992</ele>
        <time>2020-06-19T12:36:50.899Z</time>
      </trkpt>
      <trkpt lat="46.23615" lon="0.68283">
        <ele>131.75930786133</ele>
        <time>2020-06-19T12:36:57.588Z</time>
      </trkpt>
      <trkpt lat="46.23641" lon="0.68305">
        <ele>132.0846862793</ele>
        <time>2020-06-19T12:37:04.282Z</time>
      </trkpt>
      <trkpt lat="46.23644" lon="0.68308">
        <ele>132.17779541016</ele>
        <time>2020-06-19T12:37:10.976Z</time>
      </trkpt>
      <trkpt lat="46.23704" lon="0.68355">
        <ele>134.02340698242</ele>
        <time>2020-06-19T12:37:17.681Z</time>
      </trkpt>
      <trkpt lat="46.23722" lon="0.68373">
        <ele>134.67129516602</ele>
        <time>2020-06-19T12:37:24.390Z</time>
      </trkpt>
      <trkpt lat="46.23725" lon="0.68384">
        <ele>134.91334533691</ele>
        <time>2020-06-19T12:37:31.100Z</time>
      </trkpt>
      <trkpt lat="46.23727" lon="0.68396">
        <ele>135.34526062012</ele>
        <time>2020-06-19T12:37:37.811Z</time>
      </trkpt>
      <trkpt lat="46.23724" lon="0.684">
        <ele>135.48924255371</ele>
        <time>2020-06-19T12:37:44.523Z</time>
      </trkpt>
      <trkpt lat="46.23716" lon="0.68413">
        <ele>135.9571685791</ele>
        <time>2020-06-19T12:37:51.237Z</time>
      </trkpt>
      <trkpt lat="46.23699" lon="0.68433">
        <ele>136.66383361816</ele>
        <time>2020-06-19T12:37:57.954Z</time>
      </trkpt>
      <trkpt lat="46.23696" lon="0.68436">
        <ele>136.78503417969</ele>
        <time>2020-06-19T12:38:04.672Z</time>
      </trkpt>
      <trkpt lat="46.23503" lon="0.68646">
        <ele>146.98013305664</ele>
        <time>2020-06-19T12:38:11.429Z</time>
      </trkpt>
      <trkpt lat="46.23483" lon="0.68665">
        <ele>147.37020874023</ele>
        <time>2020-06-19T12:38:18.190Z</time>
      </trkpt>
      <trkpt lat="46.23465" lon="0.68677">
        <ele>147.44389343262</ele>
        <time>2020-06-19T12:38:24.954Z</time>
      </trkpt>
      <trkpt lat="46.23462" lon="0.68684">
        <ele>147.67184448242</ele>
        <time>2020-06-19T12:38:31.719Z</time>
      </trkpt>
      <trkpt lat="46.23458" lon="0.68682">
        <ele>147.43188476562</ele>
        <time>2020-06-19T12:38:38.484Z</time>
      </trkpt>
      <trkpt lat="46.23445" lon="0.68679">
        <ele>146.81999206543</ele>
        <time>2020-06-19T12:38:45.251Z</time>
      </trkpt>
      <trkpt lat="46.23397" lon="0.68665">
        <ele>144.09457397461</ele>
        <time>2020-06-19T12:38:52.026Z</time>
      </trkpt>
      <trkpt lat="46.23333" lon="0.68648">
        <ele>145.66918945312</ele>
        <time>2020-06-19T12:38:58.812Z</time>
      </trkpt>
      <trkpt lat="46.23328" lon="0.68646">
        <ele>145.79261779785</ele>
        <time>2020-06-19T12:39:05.599Z</time>
      </trkpt>
      <trkpt lat="46.23324" lon="0.68645">
        <ele>145.88514709473</ele>
        <time>2020-06-19T12:39:12.386Z</time>
      </trkpt>
      <trkpt lat="46.23253" lon="0.68625">
        <ele>147.44610595703</ele>
        <time>2020-06-19T12:39:19.185Z</time>
      </trkpt>
      <trkpt lat="46.23226" lon="0.68614">
        <ele>147.65327453613</ele>
        <time>2020-06-19T12:39:25.988Z</time>
      </trkpt>
      <trkpt lat="46.23217" lon="0.6861">
        <ele>147.41331481934</ele>
        <time>2020-06-19T12:39:32.793Z</time>
      </trkpt>
      <trkpt lat="46.23207" lon="0.68608">
        <ele>147.29333496094</ele>
        <time>2020-06-19T12:39:39.599Z</time>
      </trkpt>
      <trkpt lat="46.23198" lon="0.68608">
        <ele>147.26379394531</ele>
        <time>2020-06-19T12:39:46.407Z</time>
      </trkpt>
      <trkpt lat="46.2318" lon="0.68615">
        <ele>147.38377380371</ele>
        <time>2020-06-19T12:39:53.218Z</time>
      </trkpt>
      <trkpt lat="46.23168" lon="0.68619">
        <ele>147.43176269531</ele>
        <time>2020-06-19T12:40:00.031Z</time>
      </trkpt>
      <trkpt lat="46.23155" lon="0.68637">
        <ele>148.12643432617</ele>
        <time>2020-06-19T12:40:06.847Z</time>
      </trkpt>
      <trkpt lat="46.23135" lon="0.68668">
        <ele>150.52647399902</ele>
        <time>2020-06-19T12:40:13.667Z</time>
      </trkpt>
      <trkpt lat="46.23118" lon="0.68691">
        <ele>152.9533996582</ele>
        <time>2020-06-19T12:40:20.491Z</time>
      </trkpt>
      <trkpt lat="46.23115" lon="0.68695">
        <ele>153.2075958252</ele>
        <time>2020-06-19T12:40:27.316Z</time>
      </trkpt>
      <trkpt lat="46.23115" lon="0.68694">
        <ele>153.1716003418</ele>
        <time>2020-06-19T12:40:34.141Z</time>
      </trkpt>
      <trkpt lat="46.23096" lon="0.68715">
        <ele>154.61135864258</ele>
        <time>2020-06-19T12:40:40.970Z</time>
      </trkpt>
      <trkpt lat="46.23085" lon="0.68724">
        <ele>155.28080749512</ele>
        <time>2020-06-19T12:40:47.801Z</time>
      </trkpt>
      <trkpt lat="46.23078" lon="0.68733">
        <ele>155.74873352051</ele>
        <time>2020-06-19T12:40:54.633Z</time>
      </trkpt>
      <trkpt lat="46.23069" lon="0.68729">
        <ele>156.00573730469</ele>
        <time>2020-06-19T12:41:01.467Z</time>
      </trkpt>
      <trkpt lat="46.23001" lon="0.68696">
        <ele>157.79588317871</ele>
        <time>2020-06-19T12:41:08.312Z</time>
      </trkpt>
      <trkpt lat="46.22934" lon="0.68663">
        <ele>160.50430297852</ele>
        <time>2020-06-19T12:41:15.169Z</time>
      </trkpt>
      <trkpt lat="46.22921" lon="0.68657">
        <ele>161.13473510742</ele>
        <time>2020-06-19T12:41:22.028Z</time>
      </trkpt>
      <trkpt lat="46.22917" lon="0.68655">
        <ele>161.3441619873</ele>
        <time>2020-06-19T12:41:28.887Z</time>
      </trkpt>
      <trkpt lat="46.22917" lon="0.68654">
        <ele>161.2961730957</ele>
        <time>2020-06-19T12:41:35.747Z</time>
      </trkpt>
      <trkpt lat="46.2289" lon="0.68642">
        <ele>162.39822387695</ele>
        <time>2020-06-19T12:41:42.611Z</time>
      </trkpt>
      <trkpt lat="46.22876" lon="0.68633">
        <ele>162.72999572754</ele>
        <time>2020-06-19T12:41:49.478Z</time>
      </trkpt>
      <trkpt lat="46.22868" lon="0.68635">
        <ele>163.23391723633</ele>
        <time>2020-06-19T12:41:56.346Z</time>
      </trkpt>
      <trkpt lat="46.22851" lon="0.68638">
        <ele>164.17393493652</ele>
        <time>2020-06-19T12:42:03.217Z</time>
      </trkpt>
      <trkpt lat="46.22838" lon="0.68648">
        <ele>165.03778076172</ele>
        <time>2020-06-19T12:42:10.090Z</time>
      </trkpt>
      <trkpt lat="46.22827" lon="0.68663">
        <ele>165.9256439209</ele>
        <time>2020-06-19T12:42:16.965Z</time>
      </trkpt>
      <trkpt lat="46.22813" lon="0.68691">
        <ele>167.26940917969</ele>
        <time>2020-06-19T12:42:23.844Z</time>
      </trkpt>
      <trkpt lat="46.22806" lon="0.68709">
        <ele>167.81326293945</ele>
        <time>2020-06-19T12:42:30.725Z</time>
      </trkpt>
      <trkpt lat="46.22803" lon="0.68715">
        <ele>167.9949798584</ele>
        <time>2020-06-19T12:42:37.607Z</time>
      </trkpt>
      <trkpt lat="46.22605" lon="0.69174">
        <ele>175.54293823242</ele>
        <time>2020-06-19T12:42:44.549Z</time>
      </trkpt>
      <trkpt lat="46.22593" lon="0.69194">
        <ele>175.43016052246</ele>
        <time>2020-06-19T12:42:51.494Z</time>
      </trkpt>
      <trkpt lat="46.22578" lon="0.69209">
        <ele>175.25019836426</ele>
        <time>2020-06-19T12:42:58.442Z</time>
      </trkpt>
      <trkpt lat="46.22484" lon="0.69274">
        <ele>174.70365905762</ele>
        <time>2020-06-19T12:43:05.407Z</time>
      </trkpt>
      <trkpt lat="46.22479" lon="0.69278">
        <ele>174.88641357422</ele>
        <time>2020-06-19T12:43:12.373Z</time>
      </trkpt>
      <trkpt lat="46.22424" lon="0.69317">
        <ele>172.07188415527</ele>
        <time>2020-06-19T12:43:19.349Z</time>
      </trkpt>
      <trkpt lat="46.22394" lon="0.69293">
        <ele>168.89456176758</ele>
        <time>2020-06-19T12:43:26.330Z</time>
      </trkpt>
      <trkpt lat="46.22363" lon="0.69271">
        <ele>168.99745178223</ele>
        <time>2020-06-19T12:43:33.317Z</time>
      </trkpt>
      <trkpt lat="46.22294" lon="0.6922">
        <ele>169.64974975586</ele>
        <time>2020-06-19T12:43:40.316Z</time>
      </trkpt>
      <trkpt lat="46.22218" lon="0.69164">
        <ele>173.85655212402</ele>
        <time>2020-06-19T12:43:47.329Z</time>
      </trkpt>
      <trkpt lat="46.22186" lon="0.69139">
        <ele>175.9921875</ele>
        <time>2020-06-19T12:43:54.348Z</time>
      </trkpt>
      <trkpt lat="46.22127" lon="0.6908">
        <ele>178.22073364258</ele>
        <time>2020-06-19T12:44:01.378Z</time>
      </trkpt>
      <trkpt lat="46.22054" lon="0.69004">
        <ele>178.20608520508</ele>
        <time>2020-06-19T12:44:08.422Z</time>
      </trkpt>
      <trkpt lat="46.22038" lon="0.68989">
        <ele>178.61402893066</ele>
        <time>2020-06-19T12:44:15.470Z</time>
      </trkpt>
      <trkpt lat="46.22029" lon="0.68985">
        <ele>178.96226501465</ele>
        <time>2020-06-19T12:44:22.519Z</time>
      </trkpt>
      <trkpt lat="46.22023" lon="0.68982">
        <ele>179.16593933105</ele>
        <time>2020-06-19T12:44:29.569Z</time>
      </trkpt>
      <trkpt lat="46.22002" lon="0.68975">
        <ele>180.00579833984</ele>
        <time>2020-06-19T12:44:36.622Z</time>
      </trkpt>
      <trkpt lat="46.21979" lon="0.68974">
        <ele>181.03924560547</ele>
        <time>2020-06-19T12:44:43.679Z</time>
      </trkpt>
      <trkpt lat="46.2196" lon="0.68983">
        <ele>181.83111572266</ele>
        <time>2020-06-19T12:44:50.739Z</time>
      </trkpt>
      <trkpt lat="46.21952" lon="0.6899">
        <ele>182.20304870605</ele>
        <time>2020-06-19T12:44:57.801Z</time>
      </trkpt>
      <trkpt lat="46.21936" lon="0.69011">
        <ele>183.03091430664</ele>
        <time>2020-06-19T12:45:04.866Z</time>
      </trkpt>
      <trkpt lat="46.21906" lon="0.69067">
        <ele>184.78262329102</ele>
        <time>2020-06-19T12:45:11.939Z</time>
      </trkpt>
      <trkpt lat="46.2188" lon="0.69121">
        <ele>185.99787902832</ele>
        <time>2020-06-19T12:45:19.019Z</time>
      </trkpt>
      <trkpt lat="46.21861" lon="0.6916">
        <ele>185.5675201416</ele>
        <time>2020-06-19T12:45:26.105Z</time>
      </trkpt>
      <trkpt lat="46.21846" lon="0.69192">
        <ele>185.62634277344</ele>
        <time>2020-06-19T12:45:33.195Z</time>
      </trkpt>
      <trkpt lat="46.21834" lon="0.69226">
        <ele>186.68072509766</ele>
        <time>2020-06-19T12:45:40.289Z</time>
      </trkpt>
      <trkpt lat="46.21819" lon="0.69266">
        <ele>188.05004882812</ele>
        <time>2020-06-19T12:45:47.388Z</time>
      </trkpt>
      <trkpt lat="46.2181" lon="0.69287">
        <ele>188.85350036621</ele>
        <time>2020-06-19T12:45:54.490Z</time>
      </trkpt>
      <trkpt lat="46.21795" lon="0.69313">
        <ele>189.40814208984</ele>
        <time>2020-06-19T12:46:01.596Z</time>
      </trkpt>
      <trkpt lat="46.21774" lon="0.69337">
        <ele>189.91096496582</ele>
        <time>2020-06-19T12:46:08.706Z</time>
      </trkpt>
      <trkpt lat="46.21769" lon="0.69343">
        <ele>190.03202819824</ele>
        <time>2020-06-19T12:46:15.817Z</time>
      </trkpt>
      <trkpt lat="46.21729" lon="0.69386">
        <ele>192.96997070312</ele>
        <time>2020-06-19T12:46:22.936Z</time>
      </trkpt>
      <trkpt lat="46.21703" lon="0.6941">
        <ele>193.28106689453</ele>
        <time>2020-06-19T12:46:30.060Z</time>
      </trkpt>
      <trkpt lat="46.21672" lon="0.69433">
        <ele>193.55702209473</ele>
        <time>2020-06-19T12:46:37.190Z</time>
      </trkpt>
      <trkpt lat="46.21625" lon="0.69463">
        <ele>194.07763671875</ele>
        <time>2020-06-19T12:46:44.328Z</time>
      </trkpt>
      <trkpt lat="46.21583" lon="0.69484">
        <ele>195.08546447754</ele>
        <time>2020-06-19T12:46:51.473Z</time>
      </trkpt>
      <trkpt lat="46.21502" lon="0.69513">
        <ele>195.31422424316</ele>
        <time>2020-06-19T12:46:58.631Z</time>
      </trkpt>
      <trkpt lat="46.21446" lon="0.6953">
        <ele>194.4919128418</ele>
        <time>2020-06-19T12:47:05.799Z</time>
      </trkpt>
      <trkpt lat="46.21366" lon="0.69557">
        <ele>194.73832702637</ele>
        <time>2020-06-19T12:47:12.980Z</time>
      </trkpt>
      <trkpt lat="46.2134" lon="0.69568">
        <ele>194.69033813477</ele>
        <time>2020-06-19T12:47:20.165Z</time>
      </trkpt>
      <trkpt lat="46.21294" lon="0.69593">
        <ele>193.35479736328</ele>
        <time>2020-06-19T12:47:27.358Z</time>
      </trkpt>
      <trkpt lat="46.21216" lon="0.69649">
        <ele>192.99768066406</ele>
        <time>2020-06-19T12:47:34.565Z</time>
      </trkpt>
      <trkpt lat="46.2118" lon="0.69676">
        <ele>192.94505310059</ele>
        <time>2020-06-19T12:47:41.778Z</time>
      </trkpt>
      <trkpt lat="46.21167" lon="0.69683">
        <ele>193.11303710938</ele>
        <time>2020-06-19T12:47:48.994Z</time>
      </trkpt>
      <trkpt lat="46.21138" lon="0.69692">
        <ele>192.63496398926</ele>
        <time>2020-06-19T12:47:56.214Z</time>
      </trkpt>
      <trkpt lat="46.21122" lon="0.69693">
        <ele>191.12321472168</ele>
        <time>2020-06-19T12:48:03.437Z</time>
      </trkpt>
      <trkpt lat="46.21089" lon="0.69686">
        <ele>187.25343322754</ele>
        <time>2020-06-19T12:48:10.665Z</time>
      </trkpt>
      <trkpt lat="46.21063" lon="0.69676">
        <ele>184.14703369141</ele>
        <time>2020-06-19T12:48:17.898Z</time>
      </trkpt>
      <trkpt lat="46.21057" lon="0.69673">
        <ele>183.94140625</ele>
        <time>2020-06-19T12:48:25.132Z</time>
      </trkpt>
      <trkpt lat="46.20989" lon="0.69649">
        <ele>183.19467163086</ele>
        <time>2020-06-19T12:48:32.377Z</time>
      </trkpt>
      <trkpt lat="46.20962" lon="0.6964">
        <ele>183.51861572266</ele>
        <time>2020-06-19T12:48:39.626Z</time>
      </trkpt>
      <trkpt lat="46.2091" lon="0.69619">
        <ele>182.95375061035</ele>
        <time>2020-06-19T12:48:46.884Z</time>
      </trkpt>
      <trkpt lat="46.2079" lon="0.69558">
        <ele>180.45413208008</ele>
        <time>2020-06-19T12:48:54.162Z</time>
      </trkpt>
      <trkpt lat="46.20724" lon="0.69524">
        <ele>178.892578125</ele>
        <time>2020-06-19T12:49:01.451Z</time>
      </trkpt>
      <trkpt lat="46.20676" lon="0.69502">
        <ele>177.4953918457</ele>
        <time>2020-06-19T12:49:08.749Z</time>
      </trkpt>
      <trkpt lat="46.20656" lon="0.69498">
        <ele>176.72750854492</ele>
        <time>2020-06-19T12:49:16.050Z</time>
      </trkpt>
      <trkpt lat="46.20643" lon="0.69501">
        <ele>176.1925201416</ele>
        <time>2020-06-19T12:49:23.353Z</time>
      </trkpt>
      <trkpt lat="46.20631" lon="0.69513">
        <ele>175.32867431641</ele>
        <time>2020-06-19T12:49:30.658Z</time>
      </trkpt>
      <trkpt lat="46.20622" lon="0.69538">
        <ele>174.96726989746</ele>
        <time>2020-06-19T12:49:37.966Z</time>
      </trkpt>
      <trkpt lat="46.20615" lon="0.6956">
        <ele>175.15280151367</ele>
        <time>2020-06-19T12:49:45.277Z</time>
      </trkpt>
      <trkpt lat="46.20606" lon="0.69577">
        <ele>175.32077026367</ele>
        <time>2020-06-19T12:49:52.590Z</time>
      </trkpt>
      <trkpt lat="46.20597" lon="0.69583">
        <ele>174.96083068848</ele>
        <time>2020-06-19T12:49:59.905Z</time>
      </trkpt>
      <trkpt lat="46.2059" lon="0.69584">
        <ele>174.47453308105</ele>
        <time>2020-06-19T12:50:07.221Z</time>
      </trkpt>
      <trkpt lat="46.20576" lon="0.6958">
        <ele>173.15475463867</ele>
        <time>2020-06-19T12:50:14.539Z</time>
      </trkpt>
      <trkpt lat="46.20549" lon="0.6957">
        <ele>172.3701171875</ele>
        <time>2020-06-19T12:50:21.862Z</time>
      </trkpt>
      <trkpt lat="46.20496" lon="0.6955">
        <ele>174.63360595703</ele>
        <time>2020-06-19T12:50:29.194Z</time>
      </trkpt>
      <trkpt lat="46.20426" lon="0.69524">
        <ele>177.60659790039</ele>
        <time>2020-06-19T12:50:36.537Z</time>
      </trkpt>
      <trkpt lat="46.2042" lon="0.69522">
        <ele>177.9079284668</ele>
        <time>2020-06-19T12:50:43.881Z</time>
      </trkpt>
      <trkpt lat="46.20346" lon="0.69495">
        <ele>179.17465209961</ele>
        <time>2020-06-19T12:50:51.237Z</time>
      </trkpt>
      <trkpt lat="46.2029" lon="0.69472">
        <ele>179.09411621094</ele>
        <time>2020-06-19T12:50:58.603Z</time>
      </trkpt>
      <trkpt lat="46.20263" lon="0.69458">
        <ele>179.91091918945</ele>
        <time>2020-06-19T12:51:05.973Z</time>
      </trkpt>
      <trkpt lat="46.20249" lon="0.69448">
        <ele>180.22286987305</ele>
        <time>2020-06-19T12:51:13.346Z</time>
      </trkpt>
      <trkpt lat="46.20212" lon="0.69415">
        <ele>180.81076049805</ele>
        <time>2020-06-19T12:51:20.726Z</time>
      </trkpt>
      <trkpt lat="46.20155" lon="0.69361">
        <ele>181.90946960449</ele>
        <time>2020-06-19T12:51:28.117Z</time>
      </trkpt>
      <trkpt lat="46.20103" lon="0.69313">
        <ele>179.21577453613</ele>
        <time>2020-06-19T12:51:35.518Z</time>
      </trkpt>
      <trkpt lat="46.20066" lon="0.69278">
        <ele>175.69218444824</ele>
        <time>2020-06-19T12:51:42.926Z</time>
      </trkpt>
      <trkpt lat="46.20051" lon="0.69259">
        <ele>174.21823120117</ele>
        <time>2020-06-19T12:51:50.337Z</time>
      </trkpt>
      <trkpt lat="46.20038" lon="0.6924">
        <ele>172.92245483398</ele>
        <time>2020-06-19T12:51:57.751Z</time>
      </trkpt>
      <trkpt lat="46.20026" lon="0.69218">
        <ele>171.50379943848</ele>
        <time>2020-06-19T12:52:05.168Z</time>
      </trkpt>
      <trkpt lat="46.20008" lon="0.69174">
        <ele>169.7041015625</ele>
        <time>2020-06-19T12:52:12.591Z</time>
      </trkpt>
      <trkpt lat="46.19978" lon="0.69098">
        <ele>164.25714111328</ele>
        <time>2020-06-19T12:52:20.023Z</time>
      </trkpt>
      <trkpt lat="46.19964" lon="0.69075">
        <ele>160.36978149414</ele>
        <time>2020-06-19T12:52:27.459Z</time>
      </trkpt>
      <trkpt lat="46.19951" lon="0.69068">
        <ele>158.13815307617</ele>
        <time>2020-06-19T12:52:34.897Z</time>
      </trkpt>
      <trkpt lat="46.19943" lon="0.69067">
        <ele>157.08233642578</ele>
        <time>2020-06-19T12:52:42.336Z</time>
      </trkpt>
      <trkpt lat="46.19934" lon="0.69072">
        <ele>156.48243713379</ele>
        <time>2020-06-19T12:52:49.777Z</time>
      </trkpt>
      <trkpt lat="46.19919" lon="0.69089">
        <ele>157.02456665039</ele>
        <time>2020-06-19T12:52:57.221Z</time>
      </trkpt>
      <trkpt lat="46.199" lon="0.69113">
        <ele>159.62812805176</ele>
        <time>2020-06-19T12:53:04.669Z</time>
      </trkpt>
      <trkpt lat="46.19878" lon="0.69136">
        <ele>160.49166870117</ele>
        <time>2020-06-19T12:53:12.121Z</time>
      </trkpt>
      <trkpt lat="46.19864" lon="0.69147">
        <ele>159.91497802734</ele>
        <time>2020-06-19T12:53:19.576Z</time>
      </trkpt>
      <trkpt lat="46.19829" lon="0.69165">
        <ele>157.78617858887</ele>
        <time>2020-06-19T12:53:27.037Z</time>
      </trkpt>
      <trkpt lat="46.19811" lon="0.69172">
        <ele>157.30210876465</ele>
        <time>2020-06-19T12:53:34.501Z</time>
      </trkpt>
      <trkpt lat="46.19805" lon="0.69174">
        <ele>157.42265319824</ele>
        <time>2020-06-19T12:53:41.966Z</time>
      </trkpt>
      <trkpt lat="46.19805" lon="0.69173">
        <ele>157.24267578125</ele>
        <time>2020-06-19T12:53:49.431Z</time>
      </trkpt>
      <trkpt lat="46.19793" lon="0.69175">
        <ele>157.02671813965</ele>
        <time>2020-06-19T12:53:56.898Z</time>
      </trkpt>
      <trkpt lat="46.19775" lon="0.69175">
        <ele>156.16285705566</ele>
        <time>2020-06-19T12:54:04.368Z</time>
      </trkpt>
      <trkpt lat="46.19736" lon="0.69171">
        <ele>150.6778717041</ele>
        <time>2020-06-19T12:54:11.844Z</time>
      </trkpt>
      <trkpt lat="46.1967" lon="0.6916">
        <ele>153.58810424805</ele>
        <time>2020-06-19T12:54:19.331Z</time>
      </trkpt>
      <trkpt lat="46.19635" lon="0.69155">
        <ele>154.35925292969</ele>
        <time>2020-06-19T12:54:26.823Z</time>
      </trkpt>
      <trkpt lat="46.19626" lon="0.69156">
        <ele>154.68319702148</ele>
        <time>2020-06-19T12:54:34.317Z</time>
      </trkpt>
      <trkpt lat="46.19608" lon="0.69152">
        <ele>155.33108520508</ele>
        <time>2020-06-19T12:54:41.814Z</time>
      </trkpt>
      <trkpt lat="46.19592" lon="0.69148">
        <ele>155.90698242188</ele>
        <time>2020-06-19T12:54:49.313Z</time>
      </trkpt>
      <trkpt lat="46.19578" lon="0.69148">
        <ele>156.41090393066</ele>
        <time>2020-06-19T12:54:56.814Z</time>
      </trkpt>
      <trkpt lat="46.19533" lon="0.69151">
        <ele>159.92916870117</ele>
        <time>2020-06-19T12:55:04.323Z</time>
      </trkpt>
      <trkpt lat="46.19489" lon="0.69157">
        <ele>162.63740539551</ele>
        <time>2020-06-19T12:55:11.839Z</time>
      </trkpt>
      <trkpt lat="46.19459" lon="0.69161">
        <ele>164.46481323242</ele>
        <time>2020-06-19T12:55:19.359Z</time>
      </trkpt>
      <trkpt lat="46.19452" lon="0.69162">
        <ele>165.22734069824</ele>
        <time>2020-06-19T12:55:26.881Z</time>
      </trkpt>
      <trkpt lat="46.19452" lon="0.69163">
        <ele>165.20333862305</ele>
        <time>2020-06-19T12:55:34.403Z</time>
      </trkpt>
      <trkpt lat="46.19412" lon="0.69166">
        <ele>168.40866088867</ele>
        <time>2020-06-19T12:55:41.931Z</time>
      </trkpt>
      <trkpt lat="46.19396" lon="0.6916">
        <ele>169.44049072266</ele>
        <time>2020-06-19T12:55:49.462Z</time>
      </trkpt>
      <trkpt lat="46.19383" lon="0.69151">
        <ele>171.01075744629</ele>
        <time>2020-06-19T12:55:56.995Z</time>
      </trkpt>
      <trkpt lat="46.19369" lon="0.69134">
        <ele>173.30564880371</ele>
        <time>2020-06-19T12:56:04.531Z</time>
      </trkpt>
      <trkpt lat="46.19362" lon="0.6912">
        <ele>173.97752380371</ele>
        <time>2020-06-19T12:56:12.069Z</time>
      </trkpt>
      <trkpt lat="46.19347" lon="0.69077">
        <ele>175.86833190918</ele>
        <time>2020-06-19T12:56:19.612Z</time>
      </trkpt>
      <trkpt lat="46.19297" lon="0.68897">
        <ele>182.84579467773</ele>
        <time>2020-06-19T12:56:27.177Z</time>
      </trkpt>
      <trkpt lat="46.19292" lon="0.68883">
        <ele>183.51200866699</ele>
        <time>2020-06-19T12:56:34.744Z</time>
      </trkpt>
      <trkpt lat="46.19283" lon="0.68867">
        <ele>183.91993713379</ele>
        <time>2020-06-19T12:56:42.313Z</time>
      </trkpt>
      <trkpt lat="46.19275" lon="0.68857">
        <ele>184.23188781738</ele>
        <time>2020-06-19T12:56:49.884Z</time>
      </trkpt>
      <trkpt lat="46.19263" lon="0.68847">
        <ele>184.63981628418</ele>
        <time>2020-06-19T12:56:57.457Z</time>
      </trkpt>
      <trkpt lat="46.19248" lon="0.68837">
        <ele>185.11973571777</ele>
        <time>2020-06-19T12:57:05.032Z</time>
      </trkpt>
      <trkpt lat="46.19182" lon="0.68804">
        <ele>187.65425109863</ele>
        <time>2020-06-19T12:57:12.619Z</time>
      </trkpt>
      <trkpt lat="46.19105" lon="0.68766">
        <ele>189</ele>
        <time>2020-06-19T12:57:20.219Z</time>
      </trkpt>
      <trkpt lat="46.19016" lon="0.68736">
        <ele>187.90121459961</ele>
        <time>2020-06-19T12:57:27.833Z</time>
      </trkpt>
      <trkpt lat="46.19008" lon="0.68733">
        <ele>187.71501159668</ele>
        <time>2020-06-19T12:57:35.449Z</time>
      </trkpt>
      <trkpt lat="46.18987" lon="0.68727">
        <ele>187.21109008789</ele>
        <time>2020-06-19T12:57:43.068Z</time>
      </trkpt>
      <trkpt lat="46.18967" lon="0.68728">
        <ele>187.36724853516</ele>
        <time>2020-06-19T12:57:50.690Z</time>
      </trkpt>
      <trkpt lat="46.1892" lon="0.68715">
        <ele>188.33909606934</ele>
        <time>2020-06-19T12:57:58.320Z</time>
      </trkpt>
      <trkpt lat="46.18896" lon="0.68711">
        <ele>188.86700439453</ele>
        <time>2020-06-19T12:58:05.954Z</time>
      </trkpt>
      <trkpt lat="46.18884" lon="0.68715">
        <ele>188.8849029541</ele>
        <time>2020-06-19T12:58:13.590Z</time>
      </trkpt>
      <trkpt lat="46.18857" lon="0.68728">
        <ele>189</ele>
        <time>2020-06-19T12:58:21.230Z</time>
      </trkpt>
      <trkpt lat="46.18804" lon="0.68744">
        <ele>188.61952209473</ele>
        <time>2020-06-19T12:58:28.879Z</time>
      </trkpt>
      <trkpt lat="46.18773" lon="0.68756">
        <ele>188.10360717773</ele>
        <time>2020-06-19T12:58:36.533Z</time>
      </trkpt>
      <trkpt lat="46.18763" lon="0.68761">
        <ele>188</ele>
        <time>2020-06-19T12:58:44.189Z</time>
      </trkpt>
      <trkpt lat="46.18756" lon="0.68756">
        <ele>188</ele>
        <time>2020-06-19T12:58:51.846Z</time>
      </trkpt>
      <trkpt lat="46.18732" lon="0.68749">
        <ele>188</ele>
        <time>2020-06-19T12:58:59.507Z</time>
      </trkpt>
      <trkpt lat="46.18673" lon="0.68733">
        <ele>186.01452636719</ele>
        <time>2020-06-19T12:59:07.178Z</time>
      </trkpt>
      <trkpt lat="46.18648" lon="0.68724">
        <ele>185.12687683105</ele>
        <time>2020-06-19T12:59:14.853Z</time>
      </trkpt>
      <trkpt lat="46.18614" lon="0.68708">
        <ele>184.20568847656</ele>
        <time>2020-06-19T12:59:22.533Z</time>
      </trkpt>
      <trkpt lat="46.18528" lon="0.68669">
        <ele>181.36856079102</ele>
        <time>2020-06-19T12:59:30.228Z</time>
      </trkpt>
      <trkpt lat="46.18515" lon="0.68669">
        <ele>181.05661010742</ele>
        <time>2020-06-19T12:59:37.925Z</time>
      </trkpt>
      <trkpt lat="46.18506" lon="0.68673">
        <ele>180.88059997559</ele>
        <time>2020-06-19T12:59:45.623Z</time>
      </trkpt>
      <trkpt lat="46.18423" lon="0.68704">
        <ele>177.03204345703</ele>
        <time>2020-06-19T12:59:53.335Z</time>
      </trkpt>
      <trkpt lat="46.18403" lon="0.68706">
        <ele>175.59228515625</ele>
        <time>2020-06-19T13:00:01.050Z</time>
      </trkpt>
      <trkpt lat="46.18388" lon="0.68704">
        <ele>175.16250610352</ele>
        <time>2020-06-19T13:00:08.768Z</time>
      </trkpt>
      <trkpt lat="46.18352" lon="0.68695">
        <ele>176.24203491211</ele>
        <time>2020-06-19T13:00:16.492Z</time>
      </trkpt>
      <trkpt lat="46.18329" lon="0.6869">
        <ele>177.00991821289</ele>
        <time>2020-06-19T13:00:24.219Z</time>
      </trkpt>
      <trkpt lat="46.18294" lon="0.68693">
        <ele>178.30569458008</ele>
        <time>2020-06-19T13:00:31.952Z</time>
      </trkpt>
      <trkpt lat="46.18237" lon="0.68696">
        <ele>179.78590393066</ele>
        <time>2020-06-19T13:00:39.694Z</time>
      </trkpt>
      <trkpt lat="46.18188" lon="0.68687">
        <ele>182.01078796387</ele>
        <time>2020-06-19T13:00:47.444Z</time>
      </trkpt>
      <trkpt lat="46.18148" lon="0.68676">
        <ele>184.27841186523</ele>
        <time>2020-06-19T13:00:55.200Z</time>
      </trkpt>
      <trkpt lat="46.1806" lon="0.68651">
        <ele>188.0166015625</ele>
        <time>2020-06-19T13:01:02.971Z</time>
      </trkpt>
      <trkpt lat="46.17964" lon="0.68626">
        <ele>189</ele>
        <time>2020-06-19T13:01:10.757Z</time>
      </trkpt>
      <trkpt lat="46.17924" lon="0.68608">
        <ele>189</ele>
        <time>2020-06-19T13:01:18.550Z</time>
      </trkpt>
      <trkpt lat="46.179" lon="0.68593">
        <ele>189</ele>
        <time>2020-06-19T13:01:26.347Z</time>
      </trkpt>
      <trkpt lat="46.17879" lon="0.68576">
        <ele>189.37648010254</ele>
        <time>2020-06-19T13:01:34.148Z</time>
      </trkpt>
      <trkpt lat="46.17818" lon="0.68521">
        <ele>191.22538757324</ele>
        <time>2020-06-19T13:01:41.961Z</time>
      </trkpt>
      <trkpt lat="46.17794" lon="0.68502">
        <ele>191.40505981445</ele>
        <time>2020-06-19T13:01:49.778Z</time>
      </trkpt>
      <trkpt lat="46.17756" lon="0.68485">
        <ele>191.15309143066</ele>
        <time>2020-06-19T13:01:57.601Z</time>
      </trkpt>
      <trkpt lat="46.17734" lon="0.6848">
        <ele>191.05340576172</ele>
        <time>2020-06-19T13:02:05.428Z</time>
      </trkpt>
      <trkpt lat="46.17726" lon="0.68478">
        <ele>191.07499694824</ele>
        <time>2020-06-19T13:02:13.256Z</time>
      </trkpt>
      <trkpt lat="46.1764" lon="0.68452">
        <ele>189.73121643066</ele>
        <time>2020-06-19T13:02:21.098Z</time>
      </trkpt>
      <trkpt lat="46.17564" lon="0.68434">
        <ele>188.06478881836</ele>
        <time>2020-06-19T13:02:28.953Z</time>
      </trkpt>
      <trkpt lat="46.17536" lon="0.68432">
        <ele>187.39289855957</ele>
        <time>2020-06-19T13:02:36.812Z</time>
      </trkpt>
      <trkpt lat="46.17503" lon="0.68433">
        <ele>186.34252929688</ele>
        <time>2020-06-19T13:02:44.677Z</time>
      </trkpt>
      <trkpt lat="46.17434" lon="0.68448">
        <ele>184.47796630859</ele>
        <time>2020-06-19T13:02:52.553Z</time>
      </trkpt>
      <trkpt lat="46.17241" lon="0.68495">
        <ele>184.30288696289</ele>
        <time>2020-06-19T13:03:00.460Z</time>
      </trkpt>
      <trkpt lat="46.17221" lon="0.68498">
        <ele>184.50473022461</ele>
        <time>2020-06-19T13:03:08.370Z</time>
      </trkpt>
      <trkpt lat="46.17203" lon="0.68493">
        <ele>184.87666320801</ele>
        <time>2020-06-19T13:03:16.283Z</time>
      </trkpt>
      <trkpt lat="46.17161" lon="0.68467">
        <ele>185.53950500488</ele>
        <time>2020-06-19T13:03:24.203Z</time>
      </trkpt>
      <trkpt lat="46.17125" lon="0.68449">
        <ele>185.97142028809</ele>
        <time>2020-06-19T13:03:32.130Z</time>
      </trkpt>
      <trkpt lat="46.17108" lon="0.68439">
        <ele>186.20909118652</ele>
        <time>2020-06-19T13:03:40.060Z</time>
      </trkpt>
      <trkpt lat="46.17076" lon="0.68415">
        <ele>186.49705505371</ele>
        <time>2020-06-19T13:03:47.995Z</time>
      </trkpt>
      <trkpt lat="46.17053" lon="0.68394">
        <ele>186.17469787598</ele>
        <time>2020-06-19T13:03:55.935Z</time>
      </trkpt>
      <trkpt lat="46.17009" lon="0.68358">
        <ele>185.03266906738</ele>
        <time>2020-06-19T13:04:03.883Z</time>
      </trkpt>
      <trkpt lat="46.16991" lon="0.68351">
        <ele>184.73271179199</ele>
        <time>2020-06-19T13:04:11.834Z</time>
      </trkpt>
      <trkpt lat="46.16969" lon="0.68352">
        <ele>184.58717346191</ele>
        <time>2020-06-19T13:04:19.788Z</time>
      </trkpt>
      <trkpt lat="46.16953" lon="0.68349">
        <ele>184.55117797852</ele>
        <time>2020-06-19T13:04:27.745Z</time>
      </trkpt>
      <trkpt lat="46.16946" lon="0.68344">
        <ele>184.49119567871</ele>
        <time>2020-06-19T13:04:35.703Z</time>
      </trkpt>
      <trkpt lat="46.16939" lon="0.68337">
        <ele>184.40721130371</ele>
        <time>2020-06-19T13:04:43.662Z</time>
      </trkpt>
      <trkpt lat="46.16934" lon="0.68326">
        <ele>184.27522277832</ele>
        <time>2020-06-19T13:04:51.623Z</time>
      </trkpt>
      <trkpt lat="46.16914" lon="0.68268">
        <ele>182.73803710938</ele>
        <time>2020-06-19T13:04:59.591Z</time>
      </trkpt>
      <trkpt lat="46.16875" lon="0.68148">
        <ele>177.00866699219</ele>
        <time>2020-06-19T13:05:07.574Z</time>
      </trkpt>
      <trkpt lat="46.16859" lon="0.68071">
        <ele>173.99394226074</ele>
        <time>2020-06-19T13:05:15.566Z</time>
      </trkpt>
      <trkpt lat="46.16841" lon="0.67969">
        <ele>169.27891540527</ele>
        <time>2020-06-19T13:05:23.570Z</time>
      </trkpt>
      <trkpt lat="46.16839" lon="0.67959">
        <ele>168.56562805176</ele>
        <time>2020-06-19T13:05:31.575Z</time>
      </trkpt>
      <trkpt lat="46.16832" lon="0.67895">
        <ele>164.31169128418</ele>
        <time>2020-06-19T13:05:39.587Z</time>
      </trkpt>
      <trkpt lat="46.16822" lon="0.67775">
        <ele>156.78019714355</ele>
        <time>2020-06-19T13:05:47.612Z</time>
      </trkpt>
      <trkpt lat="46.16821" lon="0.67744">
        <ele>154.1646270752</ele>
        <time>2020-06-19T13:05:55.641Z</time>
      </trkpt>
      <trkpt lat="46.16826" lon="0.67709">
        <ele>150.82870483398</ele>
        <time>2020-06-19T13:06:03.674Z</time>
      </trkpt>
      <trkpt lat="46.16831" lon="0.67686">
        <ele>149.2689666748</ele>
        <time>2020-06-19T13:06:11.709Z</time>
      </trkpt>
      <trkpt lat="46.16849" lon="0.67619">
        <ele>142.2935333252</ele>
        <time>2020-06-19T13:06:19.752Z</time>
      </trkpt>
      <trkpt lat="46.16852" lon="0.67592">
        <ele>140.99774169922</ele>
        <time>2020-06-19T13:06:27.798Z</time>
      </trkpt>
      <trkpt lat="46.16849" lon="0.67552">
        <ele>139.85948181152</ele>
        <time>2020-06-19T13:06:35.849Z</time>
      </trkpt>
      <trkpt lat="46.16844" lon="0.67506">
        <ele>137.63986206055</ele>
        <time>2020-06-19T13:06:43.905Z</time>
      </trkpt>
      <trkpt lat="46.16838" lon="0.67479">
        <ele>136.45910644531</ele>
        <time>2020-06-19T13:06:51.964Z</time>
      </trkpt>
      <trkpt lat="46.1683" lon="0.67462">
        <ele>135.64888000488</ele>
        <time>2020-06-19T13:07:00.026Z</time>
      </trkpt>
      <trkpt lat="46.16814" lon="0.67445">
        <ele>135.12097167969</ele>
        <time>2020-06-19T13:07:08.091Z</time>
      </trkpt>
      <trkpt lat="46.16765" lon="0.67412">
        <ele>133.47872924805</ele>
        <time>2020-06-19T13:07:16.164Z</time>
      </trkpt>
      <trkpt lat="46.16749" lon="0.67403">
        <ele>133.14279174805</ele>
        <time>2020-06-19T13:07:24.240Z</time>
      </trkpt>
      <trkpt lat="46.1673" lon="0.67397">
        <ele>132.80058288574</ele>
        <time>2020-06-19T13:07:32.319Z</time>
      </trkpt>
      <trkpt lat="46.16696" lon="0.67388">
        <ele>133.27224731445</ele>
        <time>2020-06-19T13:07:40.404Z</time>
      </trkpt>
      <trkpt lat="46.16646" lon="0.67361">
        <ele>132.84707641602</ele>
        <time>2020-06-19T13:07:48.497Z</time>
      </trkpt>
      <trkpt lat="46.1664" lon="0.67358">
        <ele>132.52062988281</ele>
        <time>2020-06-19T13:07:56.591Z</time>
      </trkpt>
      <trkpt lat="46.1662" lon="0.67348">
        <ele>131.20085144043</ele>
        <time>2020-06-19T13:08:04.689Z</time>
      </trkpt>
      <trkpt lat="46.16597" lon="0.6734">
        <ele>129.97706604004</ele>
        <time>2020-06-19T13:08:12.791Z</time>
      </trkpt>
      <trkpt lat="46.1658" lon="0.67334">
        <ele>129.06521606445</ele>
        <time>2020-06-19T13:08:20.895Z</time>
      </trkpt>
      <trkpt lat="46.16544" lon="0.67298">
        <ele>125.94128417969</ele>
        <time>2020-06-19T13:08:29.006Z</time>
      </trkpt>
      <trkpt lat="46.16509" lon="0.67263">
        <ele>125.52135467529</ele>
        <time>2020-06-19T13:08:37.124Z</time>
      </trkpt>
      <trkpt lat="46.16483" lon="0.67247">
        <ele>125.3293838501</ele>
        <time>2020-06-19T13:08:45.247Z</time>
      </trkpt>
      <trkpt lat="46.16423" lon="0.67228">
        <ele>130.36003112793</ele>
        <time>2020-06-19T13:08:53.380Z</time>
      </trkpt>
      <trkpt lat="46.16395" lon="0.6722">
        <ele>132.95159912109</ele>
        <time>2020-06-19T13:09:01.517Z</time>
      </trkpt>
      <trkpt lat="46.16385" lon="0.67218">
        <ele>133.00192260742</ele>
        <time>2020-06-19T13:09:09.656Z</time>
      </trkpt>
      <trkpt lat="46.16376" lon="0.6722">
        <ele>133.22123718262</ele>
        <time>2020-06-19T13:09:17.796Z</time>
      </trkpt>
      <trkpt lat="46.16369" lon="0.67222">
        <ele>133.30522155762</ele>
        <time>2020-06-19T13:09:25.937Z</time>
      </trkpt>
      <trkpt lat="46.16363" lon="0.67229">
        <ele>133.37721252441</ele>
        <time>2020-06-19T13:09:34.080Z</time>
      </trkpt>
      <trkpt lat="46.16356" lon="0.67238">
        <ele>133.46119689941</ele>
        <time>2020-06-19T13:09:42.224Z</time>
      </trkpt>
      <trkpt lat="46.1631" lon="0.67308">
        <ele>136.08746337891</ele>
        <time>2020-06-19T13:09:50.379Z</time>
      </trkpt>
      <trkpt lat="46.16281" lon="0.67355">
        <ele>137.34725952148</ele>
        <time>2020-06-19T13:09:58.541Z</time>
      </trkpt>
      <trkpt lat="46.16272" lon="0.67364">
        <ele>138.27774047852</ele>
        <time>2020-06-19T13:10:06.705Z</time>
      </trkpt>
      <trkpt lat="46.16259" lon="0.67369">
        <ele>139.29756164551</ele>
        <time>2020-06-19T13:10:14.871Z</time>
      </trkpt>
      <trkpt lat="46.16241" lon="0.67369">
        <ele>140.37738037109</ele>
        <time>2020-06-19T13:10:23.040Z</time>
      </trkpt>
      <trkpt lat="46.16224" lon="0.67368">
        <ele>141.34922790527</ele>
        <time>2020-06-19T13:10:31.211Z</time>
      </trkpt>
      <trkpt lat="46.16194" lon="0.67361">
        <ele>142.91500854492</ele>
        <time>2020-06-19T13:10:39.387Z</time>
      </trkpt>
      <trkpt lat="46.16171" lon="0.6735">
        <ele>143.91084289551</ele>
        <time>2020-06-19T13:10:47.567Z</time>
      </trkpt>
      <trkpt lat="46.16141" lon="0.67332">
        <ele>144.94989013672</ele>
        <time>2020-06-19T13:10:55.752Z</time>
      </trkpt>
      <trkpt lat="46.16108" lon="0.67319">
        <ele>146.14970397949</ele>
        <time>2020-06-19T13:11:03.943Z</time>
      </trkpt>
      <trkpt lat="46.16014" lon="0.67298">
        <ele>149.84703063965</ele>
        <time>2020-06-19T13:11:12.149Z</time>
      </trkpt>
      <trkpt lat="46.15962" lon="0.6728">
        <ele>151.20767211914</ele>
        <time>2020-06-19T13:11:20.363Z</time>
      </trkpt>
      <trkpt lat="46.1594" lon="0.67275">
        <ele>152.01840209961</ele>
        <time>2020-06-19T13:11:28.581Z</time>
      </trkpt>
      <trkpt lat="46.15919" lon="0.6728">
        <ele>153.0142364502</ele>
        <time>2020-06-19T13:11:36.802Z</time>
      </trkpt>
      <trkpt lat="46.15905" lon="0.67286">
        <ele>153.80610656738</ele>
        <time>2020-06-19T13:11:45.026Z</time>
      </trkpt>
      <trkpt lat="46.15876" lon="0.67304">
        <ele>155.94729614258</ele>
        <time>2020-06-19T13:11:53.255Z</time>
      </trkpt>
      <trkpt lat="46.1586" lon="0.67307">
        <ele>156.89514160156</ele>
        <time>2020-06-19T13:12:01.486Z</time>
      </trkpt>
      <trkpt lat="46.15841" lon="0.67301">
        <ele>157.49249267578</ele>
        <time>2020-06-19T13:12:09.721Z</time>
      </trkpt>
      <trkpt lat="46.15815" lon="0.67294">
        <ele>158.48832702637</ele>
        <time>2020-06-19T13:12:17.960Z</time>
      </trkpt>
      <trkpt lat="46.15783" lon="0.67299">
        <ele>159.48522949219</ele>
        <time>2020-06-19T13:12:26.204Z</time>
      </trkpt>
      <trkpt lat="46.1577" lon="0.67308">
        <ele>160.29035949707</ele>
        <time>2020-06-19T13:12:34.450Z</time>
      </trkpt>
      <trkpt lat="46.15767" lon="0.67313">
        <ele>160.66230773926</ele>
        <time>2020-06-19T13:12:42.697Z</time>
      </trkpt>
      <trkpt lat="46.15753" lon="0.67324">
        <ele>161.65814208984</ele>
        <time>2020-06-19T13:12:50.947Z</time>
      </trkpt>
      <trkpt lat="46.15731" lon="0.6734">
        <ele>163.14588928223</ele>
        <time>2020-06-19T13:12:59.200Z</time>
      </trkpt>
      <trkpt lat="46.15718" lon="0.6734">
        <ele>163.68966674805</ele>
        <time>2020-06-19T13:13:07.456Z</time>
      </trkpt>
      <trkpt lat="46.15713" lon="0.67337">
        <ele>163.74966430664</ele>
        <time>2020-06-19T13:13:15.712Z</time>
      </trkpt>
      <trkpt lat="46.15702" lon="0.67326">
        <ele>163.61767578125</ele>
        <time>2020-06-19T13:13:23.971Z</time>
      </trkpt>
      <trkpt lat="46.15692" lon="0.67307">
        <ele>162.95779418945</ele>
        <time>2020-06-19T13:13:32.232Z</time>
      </trkpt>
      <trkpt lat="46.15672" lon="0.67282">
        <ele>162.41787719727</ele>
        <time>2020-06-19T13:13:40.497Z</time>
      </trkpt>
      <trkpt lat="46.15663" lon="0.67279">
        <ele>162.66984558105</ele>
        <time>2020-06-19T13:13:48.764Z</time>
      </trkpt>
      <trkpt lat="46.15659" lon="0.67272">
        <ele>162.44187927246</ele>
        <time>2020-06-19T13:13:57.032Z</time>
      </trkpt>
      <trkpt lat="46.15629" lon="0.67262">
        <ele>163.09800720215</ele>
        <time>2020-06-19T13:14:05.305Z</time>
      </trkpt>
      <trkpt lat="46.15617" lon="0.67257">
        <ele>163.22998046875</ele>
        <time>2020-06-19T13:14:13.580Z</time>
      </trkpt>
      <trkpt lat="46.15602" lon="0.67243">
        <ele>162.93002319336</ele>
        <time>2020-06-19T13:14:21.858Z</time>
      </trkpt>
      <trkpt lat="46.15577" lon="0.67216">
        <ele>162.16760253906</ele>
        <time>2020-06-19T13:14:30.141Z</time>
      </trkpt>
      <trkpt lat="46.15556" lon="0.67199">
        <ele>161.64007568359</ele>
        <time>2020-06-19T13:14:38.428Z</time>
      </trkpt>
      <trkpt lat="46.1553" lon="0.67187">
        <ele>161.4001159668</ele>
        <time>2020-06-19T13:14:46.719Z</time>
      </trkpt>
      <trkpt lat="46.15505" lon="0.67179">
        <ele>161.42411804199</ele>
        <time>2020-06-19T13:14:55.014Z</time>
      </trkpt>
      <trkpt lat="46.15466" lon="0.6717">
        <ele>161.85148620605</ele>
        <time>2020-06-19T13:15:03.315Z</time>
      </trkpt>
      <trkpt lat="46.15406" lon="0.6715">
        <ele>162.49674987793</ele>
        <time>2020-06-19T13:15:11.626Z</time>
      </trkpt>
      <trkpt lat="46.15379" lon="0.67147">
        <ele>162.75523376465</ele>
        <time>2020-06-19T13:15:19.942Z</time>
      </trkpt>
      <trkpt lat="46.15362" lon="0.67144">
        <ele>163.05519104004</ele>
        <time>2020-06-19T13:15:28.260Z</time>
      </trkpt>
      <trkpt lat="46.15359" lon="0.67136">
        <ele>162.84161376953</ele>
        <time>2020-06-19T13:15:36.579Z</time>
      </trkpt>
      <trkpt lat="46.15358" lon="0.67122">
        <ele>162.52966308594</ele>
        <time>2020-06-19T13:15:44.900Z</time>
      </trkpt>
      <trkpt lat="46.15366" lon="0.6709">
        <ele>160.70948791504</ele>
        <time>2020-06-19T13:15:53.225Z</time>
      </trkpt>
      <trkpt lat="46.15377" lon="0.67061">
        <ele>157.82995605469</ele>
        <time>2020-06-19T13:16:01.553Z</time>
      </trkpt>
      <trkpt lat="46.15387" lon="0.67039">
        <ele>156.61077880859</ele>
        <time>2020-06-19T13:16:09.884Z</time>
      </trkpt>
      <trkpt lat="46.15404" lon="0.66998">
        <ele>155.53315734863</ele>
        <time>2020-06-19T13:16:18.221Z</time>
      </trkpt>
      <trkpt lat="46.15406" lon="0.6698">
        <ele>155.34844970703</ele>
        <time>2020-06-19T13:16:26.560Z</time>
      </trkpt>
      <trkpt lat="46.15402" lon="0.66955">
        <ele>154.37672424316</ele>
        <time>2020-06-19T13:16:34.901Z</time>
      </trkpt>
      <trkpt lat="46.15381" lon="0.66845">
        <ele>150.80490112305</ele>
        <time>2020-06-19T13:16:43.255Z</time>
      </trkpt>
      <trkpt lat="46.15377" lon="0.6683">
        <ele>150.28898620605</ele>
        <time>2020-06-19T13:16:51.611Z</time>
      </trkpt>
      <trkpt lat="46.15373" lon="0.6682">
        <ele>150.07301330566</ele>
        <time>2020-06-19T13:16:59.968Z</time>
      </trkpt>
      <trkpt lat="46.15363" lon="0.66808">
        <ele>150.31297302246</ele>
        <time>2020-06-19T13:17:08.327Z</time>
      </trkpt>
      <trkpt lat="46.15338" lon="0.66792">
        <ele>152.14184570312</ele>
        <time>2020-06-19T13:17:16.691Z</time>
      </trkpt>
      <trkpt lat="46.15319" lon="0.66772">
        <ele>153.4856262207</ele>
        <time>2020-06-19T13:17:25.058Z</time>
      </trkpt>
      <trkpt lat="46.15307" lon="0.66755">
        <ele>153.89385986328</ele>
        <time>2020-06-19T13:17:33.428Z</time>
      </trkpt>
      <trkpt lat="46.15303" lon="0.66749">
        <ele>153.8038482666</ele>
        <time>2020-06-19T13:17:41.799Z</time>
      </trkpt>
      <trkpt lat="46.1525" lon="0.66671">
        <ele>153.14952087402</ele>
        <time>2020-06-19T13:17:50.182Z</time>
      </trkpt>
      <trkpt lat="46.15237" lon="0.66653">
        <ele>153.08952331543</ele>
        <time>2020-06-19T13:17:58.568Z</time>
      </trkpt>
      <trkpt lat="46.15229" lon="0.66645">
        <ele>153.08952331543</ele>
        <time>2020-06-19T13:18:06.956Z</time>
      </trkpt>
      <trkpt lat="46.15187" lon="0.66626">
        <ele>151.17532348633</ele>
        <time>2020-06-19T13:18:15.351Z</time>
      </trkpt>
      <trkpt lat="46.15136" lon="0.66602">
        <ele>147.9820098877</ele>
        <time>2020-06-19T13:18:23.754Z</time>
      </trkpt>
      <trkpt lat="46.15119" lon="0.66602">
        <ele>146.35028076172</ele>
        <time>2020-06-19T13:18:32.160Z</time>
      </trkpt>
      <trkpt lat="46.15061" lon="0.66611">
        <ele>140.40989685059</ele>
        <time>2020-06-19T13:18:40.575Z</time>
      </trkpt>
      <trkpt lat="46.15053" lon="0.66612">
        <ele>139.2862701416</ele>
        <time>2020-06-19T13:18:48.992Z</time>
      </trkpt>
      <trkpt lat="46.15025" lon="0.66624">
        <ele>136.39839172363</ele>
        <time>2020-06-19T13:18:57.413Z</time>
      </trkpt>
      <trkpt lat="46.15019" lon="0.66628">
        <ele>135.99044799805</ele>
        <time>2020-06-19T13:19:05.835Z</time>
      </trkpt>
      <trkpt lat="46.15002" lon="0.66651">
        <ele>136.24884033203</ele>
        <time>2020-06-19T13:19:14.261Z</time>
      </trkpt>
      <trkpt lat="46.1497" lon="0.667">
        <ele>134.83776855469</ele>
        <time>2020-06-19T13:19:22.695Z</time>
      </trkpt>
      <trkpt lat="46.14943" lon="0.6674">
        <ele>134.65957641602</ele>
        <time>2020-06-19T13:19:31.135Z</time>
      </trkpt>
      <trkpt lat="46.14914" lon="0.6678">
        <ele>135.15148925781</ele>
        <time>2020-06-19T13:19:39.581Z</time>
      </trkpt>
      <trkpt lat="46.14863" lon="0.6684">
        <ele>136.54034423828</ele>
        <time>2020-06-19T13:19:48.038Z</time>
      </trkpt>
      <trkpt lat="46.1482" lon="0.66891">
        <ele>136.15057373047</ele>
        <time>2020-06-19T13:19:56.504Z</time>
      </trkpt>
      <trkpt lat="46.14791" lon="0.6693">
        <ele>137.06559753418</ele>
        <time>2020-06-19T13:20:04.976Z</time>
      </trkpt>
      <trkpt lat="46.14768" lon="0.66966">
        <ele>137.56547546387</ele>
        <time>2020-06-19T13:20:13.453Z</time>
      </trkpt>
      <trkpt lat="46.14757" lon="0.6698">
        <ele>136.41412353516</ele>
        <time>2020-06-19T13:20:21.933Z</time>
      </trkpt>
      <trkpt lat="46.14727" lon="0.67015">
        <ele>138.98655700684</ele>
        <time>2020-06-19T13:20:30.419Z</time>
      </trkpt>
      <trkpt lat="46.14714" lon="0.67025">
        <ele>139.83840942383</ele>
        <time>2020-06-19T13:20:38.907Z</time>
      </trkpt>
      <trkpt lat="46.147" lon="0.67029">
        <ele>140.03723144531</ele>
        <time>2020-06-19T13:20:47.398Z</time>
      </trkpt>
      <trkpt lat="46.14674" lon="0.67033">
        <ele>141.06904602051</ele>
        <time>2020-06-19T13:20:55.893Z</time>
      </trkpt>
      <trkpt lat="46.14652" lon="0.67032">
        <ele>141.1530456543</ele>
        <time>2020-06-19T13:21:04.391Z</time>
      </trkpt>
      <trkpt lat="46.14634" lon="0.67032">
        <ele>141.24725341797</ele>
        <time>2020-06-19T13:21:12.892Z</time>
      </trkpt>
      <trkpt lat="46.14589" lon="0.6703">
        <ele>140.88731384277</ele>
        <time>2020-06-19T13:21:21.400Z</time>
      </trkpt>
      <trkpt lat="46.14576" lon="0.67029">
        <ele>140.70735168457</ele>
        <time>2020-06-19T13:21:29.911Z</time>
      </trkpt>
      <trkpt lat="46.14564" lon="0.67024">
        <ele>139.80749511719</ele>
        <time>2020-06-19T13:21:38.424Z</time>
      </trkpt>
      <trkpt lat="46.14549" lon="0.67023">
        <ele>138.35331726074</ele>
        <time>2020-06-19T13:21:46.939Z</time>
      </trkpt>
      <trkpt lat="46.14531" lon="0.67024">
        <ele>136.65786743164</ele>
        <time>2020-06-19T13:21:55.457Z</time>
      </trkpt>
      <trkpt lat="46.14511" lon="0.67027">
        <ele>136.69386291504</ele>
        <time>2020-06-19T13:22:03.978Z</time>
      </trkpt>
      <trkpt lat="46.14499" lon="0.67029">
        <ele>136.76583862305</ele>
        <time>2020-06-19T13:22:12.501Z</time>
      </trkpt>
      <trkpt lat="46.14472" lon="0.67037">
        <ele>138.00595092773</ele>
        <time>2020-06-19T13:22:21.028Z</time>
      </trkpt>
      <trkpt lat="46.14461" lon="0.67042">
        <ele>138.66093444824</ele>
        <time>2020-06-19T13:22:29.557Z</time>
      </trkpt>
      <trkpt lat="46.14447" lon="0.67045">
        <ele>137.58111572266</ele>
        <time>2020-06-19T13:22:38.088Z</time>
      </trkpt>
      <trkpt lat="46.14421" lon="0.67046">
        <ele>134.9175567627</ele>
        <time>2020-06-19T13:22:46.624Z</time>
      </trkpt>
      <trkpt lat="46.14393" lon="0.67044">
        <ele>131.72550964355</ele>
        <time>2020-06-19T13:22:55.164Z</time>
      </trkpt>
      <trkpt lat="46.1437" lon="0.67043">
        <ele>132.26560974121</ele>
        <time>2020-06-19T13:23:03.708Z</time>
      </trkpt>
      <trkpt lat="46.14349" lon="0.67042">
        <ele>133.0814666748</ele>
        <time>2020-06-19T13:23:12.255Z</time>
      </trkpt>
      <trkpt lat="46.14324" lon="0.67039">
        <ele>133.70536804199</ele>
        <time>2020-06-19T13:23:20.806Z</time>
      </trkpt>
      <trkpt lat="46.14316" lon="0.67036">
        <ele>133.5133972168</ele>
        <time>2020-06-19T13:23:29.359Z</time>
      </trkpt>
      <trkpt lat="46.14281" lon="0.67027">
        <ele>134.3490447998</ele>
        <time>2020-06-19T13:23:37.917Z</time>
      </trkpt>
      <trkpt lat="46.14246" lon="0.67024">
        <ele>135.17691040039</ele>
        <time>2020-06-19T13:23:46.481Z</time>
      </trkpt>
      <trkpt lat="46.14237" lon="0.67022">
        <ele>135.21290588379</ele>
        <time>2020-06-19T13:23:55.046Z</time>
      </trkpt>
      <trkpt lat="46.1422" lon="0.67016">
        <ele>134.78311157227</ele>
        <time>2020-06-19T13:24:03.614Z</time>
      </trkpt>
      <trkpt lat="46.14195" lon="0.66998">
        <ele>132.4914855957</ele>
        <time>2020-06-19T13:24:12.187Z</time>
      </trkpt>
      <trkpt lat="46.14148" lon="0.66952">
        <ele>127.69264221191</ele>
        <time>2020-06-19T13:24:20.769Z</time>
      </trkpt>
      <trkpt lat="46.14095" lon="0.66883">
        <ele>126.38048553467</ele>
        <time>2020-06-19T13:24:29.362Z</time>
      </trkpt>
      <trkpt lat="46.14077" lon="0.66857">
        <ele>126.42847442627</ele>
        <time>2020-06-19T13:24:37.959Z</time>
      </trkpt>
      <trkpt lat="46.14034" lon="0.66784">
        <ele>127.32567596436</ele>
        <time>2020-06-19T13:24:46.567Z</time>
      </trkpt>
      <trkpt lat="46.1401" lon="0.66732">
        <ele>126.71075439453</ele>
        <time>2020-06-19T13:24:55.182Z</time>
      </trkpt>
      <trkpt lat="46.13993" lon="0.66681">
        <ele>125.84134674072</ele>
        <time>2020-06-19T13:25:03.803Z</time>
      </trkpt>
      <trkpt lat="46.13988" lon="0.66673">
        <ele>125.87734222412</ele>
        <time>2020-06-19T13:25:12.425Z</time>
      </trkpt>
      <trkpt lat="46.13977" lon="0.6666">
        <ele>126.20833587646</ele>
        <time>2020-06-19T13:25:21.050Z</time>
      </trkpt>
      <trkpt lat="46.13959" lon="0.66649">
        <ele>128.70391845703</ele>
        <time>2020-06-19T13:25:29.678Z</time>
      </trkpt>
      <trkpt lat="46.13942" lon="0.66642">
        <ele>131.2234954834</ele>
        <time>2020-06-19T13:25:38.309Z</time>
      </trkpt>
      <trkpt lat="46.13921" lon="0.66632">
        <ele>134.02407836914</ele>
        <time>2020-06-19T13:25:46.943Z</time>
      </trkpt>
      <trkpt lat="46.13913" lon="0.66624">
        <ele>134.50399780273</ele>
        <time>2020-06-19T13:25:55.579Z</time>
      </trkpt>
      <trkpt lat="46.13908" lon="0.66612">
        <ele>134.04806518555</ele>
        <time>2020-06-19T13:26:04.216Z</time>
      </trkpt>
      <trkpt lat="46.13903" lon="0.6659">
        <ele>132.51232910156</ele>
        <time>2020-06-19T13:26:12.856Z</time>
      </trkpt>
      <trkpt lat="46.13898" lon="0.66518">
        <ele>128.7839050293</ele>
        <time>2020-06-19T13:26:21.504Z</time>
      </trkpt>
      <trkpt lat="46.13898" lon="0.66466">
        <ele>127.67261505127</ele>
        <time>2020-06-19T13:26:30.158Z</time>
      </trkpt>
      <trkpt lat="46.13897" lon="0.66421">
        <ele>127.20468902588</ele>
        <time>2020-06-19T13:26:38.817Z</time>
      </trkpt>
      <trkpt lat="46.13881" lon="0.66367">
        <ele>129.89601135254</ele>
        <time>2020-06-19T13:26:47.482Z</time>
      </trkpt>
      <trkpt lat="46.13841" lon="0.66252">
        <ele>132.63702392578</ele>
        <time>2020-06-19T13:26:56.161Z</time>
      </trkpt>
      <trkpt lat="46.13808" lon="0.66189">
        <ele>132.13958740234</ele>
        <time>2020-06-19T13:27:04.849Z</time>
      </trkpt>
      <trkpt lat="46.13758" lon="0.66111">
        <ele>130.80819702148</ele>
        <time>2020-06-19T13:27:13.549Z</time>
      </trkpt>
      <trkpt lat="46.13745" lon="0.66098">
        <ele>131.58807373047</ele>
        <time>2020-06-19T13:27:22.252Z</time>
      </trkpt>
      <trkpt lat="46.13732" lon="0.6608">
        <ele>131.70805358887</ele>
        <time>2020-06-19T13:27:30.957Z</time>
      </trkpt>
      <trkpt lat="46.13712" lon="0.66047">
        <ele>131.58068847656</ele>
        <time>2020-06-19T13:27:39.667Z</time>
      </trkpt>
      <trkpt lat="46.13698" lon="0.66014">
        <ele>131.26873779297</ele>
        <time>2020-06-19T13:27:48.382Z</time>
      </trkpt>
      <trkpt lat="46.13688" lon="0.65994">
        <ele>131.38871765137</ele>
        <time>2020-06-19T13:27:57.099Z</time>
      </trkpt>
      <trkpt lat="46.13675" lon="0.6598">
        <ele>132.69648742676</ele>
        <time>2020-06-19T13:28:05.819Z</time>
      </trkpt>
      <trkpt lat="46.1367" lon="0.65977">
        <ele>133.42837524414</ele>
        <time>2020-06-19T13:28:14.540Z</time>
      </trkpt>
      <trkpt lat="46.13658" lon="0.65975">
        <ele>135.68399047852</ele>
        <time>2020-06-19T13:28:23.263Z</time>
      </trkpt>
      <trkpt lat="46.13637" lon="0.65977">
        <ele>139.82423400879</ele>
        <time>2020-06-19T13:28:31.989Z</time>
      </trkpt>
      <trkpt lat="46.1362" lon="0.65975">
        <ele>142.28381347656</ele>
        <time>2020-06-19T13:28:40.718Z</time>
      </trkpt>
      <trkpt lat="46.13609" lon="0.65968">
        <ele>143.35975646973</ele>
        <time>2020-06-19T13:28:49.449Z</time>
      </trkpt>
      <trkpt lat="46.13596" lon="0.65953">
        <ele>144.30760192871</ele>
        <time>2020-06-19T13:28:58.182Z</time>
      </trkpt>
      <trkpt lat="46.1359" lon="0.65942">
        <ele>144.52742004395</ele>
        <time>2020-06-19T13:29:06.917Z</time>
      </trkpt>
      <trkpt lat="46.13586" lon="0.65936">
        <ele>144.64353942871</ele>
        <time>2020-06-19T13:29:15.653Z</time>
      </trkpt>
      <trkpt lat="46.13573" lon="0.65913">
        <ele>145.0154876709</ele>
        <time>2020-06-19T13:29:24.392Z</time>
      </trkpt>
      <trkpt lat="46.13562" lon="0.65899">
        <ele>145.7233581543</ele>
        <time>2020-06-19T13:29:33.134Z</time>
      </trkpt>
      <trkpt lat="46.13552" lon="0.65889">
        <ele>146.25247192383</ele>
        <time>2020-06-19T13:29:41.878Z</time>
      </trkpt>
      <trkpt lat="46.13537" lon="0.65877">
        <ele>147.29618835449</ele>
        <time>2020-06-19T13:29:50.624Z</time>
      </trkpt>
      <trkpt lat="46.13512" lon="0.65863">
        <ele>149.45582580566</ele>
        <time>2020-06-19T13:29:59.375Z</time>
      </trkpt>
      <trkpt lat="46.13481" lon="0.65844">
        <ele>152.03540039062</ele>
        <time>2020-06-19T13:30:08.131Z</time>
      </trkpt>
      <trkpt lat="46.13433" lon="0.6581">
        <ele>153.62937927246</ele>
        <time>2020-06-19T13:30:16.896Z</time>
      </trkpt>
      <trkpt lat="46.13385" lon="0.65772">
        <ele>153.68676757812</ele>
        <time>2020-06-19T13:30:25.669Z</time>
      </trkpt>
      <trkpt lat="46.13369" lon="0.65761">
        <ele>152.70292663574</ele>
        <time>2020-06-19T13:30:34.445Z</time>
      </trkpt>
      <trkpt lat="46.13352" lon="0.65754">
        <ele>151.99505615234</ele>
        <time>2020-06-19T13:30:43.224Z</time>
      </trkpt>
      <trkpt lat="46.13321" lon="0.65744">
        <ele>150.90322875977</ele>
        <time>2020-06-19T13:30:52.008Z</time>
      </trkpt>
      <trkpt lat="46.13255" lon="0.65738">
        <ele>151.01341247559</ele>
        <time>2020-06-19T13:31:00.803Z</time>
      </trkpt>
      <trkpt lat="46.13172" lon="0.65727">
        <ele>147.71839904785</ele>
        <time>2020-06-19T13:31:09.611Z</time>
      </trkpt>
      <trkpt lat="46.13155" lon="0.65725">
        <ele>146.80654907227</ele>
        <time>2020-06-19T13:31:18.422Z</time>
      </trkpt>
      <trkpt lat="46.13129" lon="0.65725">
        <ele>145.76405334473</ele>
        <time>2020-06-19T13:31:27.237Z</time>
      </trkpt>
      <trkpt lat="46.13088" lon="0.65733">
        <ele>144.46827697754</ele>
        <time>2020-06-19T13:31:36.058Z</time>
      </trkpt>
      <trkpt lat="46.13053" lon="0.65743">
        <ele>143.53782653809</ele>
        <time>2020-06-19T13:31:44.885Z</time>
      </trkpt>
      <trkpt lat="46.13036" lon="0.65754">
        <ele>143.44183349609</ele>
        <time>2020-06-19T13:31:53.715Z</time>
      </trkpt>
      <trkpt lat="46.13027" lon="0.65767">
        <ele>143.99374389648</ele>
        <time>2020-06-19T13:32:02.547Z</time>
      </trkpt>
      <trkpt lat="46.13004" lon="0.65817">
        <ele>145.11180114746</ele>
        <time>2020-06-19T13:32:11.386Z</time>
      </trkpt>
      <trkpt lat="46.12985" lon="0.65846">
        <ele>144.40249633789</ele>
        <time>2020-06-19T13:32:20.229Z</time>
      </trkpt>
      <trkpt lat="46.12959" lon="0.65878">
        <ele>143.08770751953</ele>
        <time>2020-06-19T13:32:29.078Z</time>
      </trkpt>
      <trkpt lat="46.12949" lon="0.65889">
        <ele>142.77575683594</ele>
        <time>2020-06-19T13:32:37.929Z</time>
      </trkpt>
      <trkpt lat="46.12943" lon="0.65891">
        <ele>142.36782836914</ele>
        <time>2020-06-19T13:32:46.781Z</time>
      </trkpt>
      <trkpt lat="46.12869" lon="0.65883">
        <ele>135.470703125</ele>
        <time>2020-06-19T13:32:55.645Z</time>
      </trkpt>
      <trkpt lat="46.12833" lon="0.65875">
        <ele>131.63134765625</ele>
        <time>2020-06-19T13:33:04.515Z</time>
      </trkpt>
      <trkpt lat="46.12782" lon="0.65854">
        <ele>128.12265014648</ele>
        <time>2020-06-19T13:33:13.393Z</time>
      </trkpt>
      <trkpt lat="46.12764" lon="0.65847">
        <ele>127.02956390381</ele>
        <time>2020-06-19T13:33:22.274Z</time>
      </trkpt>
      <trkpt lat="46.12733" lon="0.65833">
        <ele>124.76194000244</ele>
        <time>2020-06-19T13:33:31.160Z</time>
      </trkpt>
      <trkpt lat="46.12708" lon="0.65818">
        <ele>124.63150787354</ele>
        <time>2020-06-19T13:33:40.051Z</time>
      </trkpt>
      <trkpt lat="46.12676" lon="0.65804">
        <ele>124.96295166016</ele>
        <time>2020-06-19T13:33:48.947Z</time>
      </trkpt>
      <trkpt lat="46.12673" lon="0.65803">
        <ele>124.99144744873</ele>
        <time>2020-06-19T13:33:57.843Z</time>
      </trkpt>
      <trkpt lat="46.12671" lon="0.65802">
        <ele>124.98455047607</ele>
        <time>2020-06-19T13:34:06.740Z</time>
      </trkpt>
      <trkpt lat="46.12644" lon="0.65797">
        <ele>124.86457061768</ele>
        <time>2020-06-19T13:34:15.641Z</time>
      </trkpt>
      <trkpt lat="46.1259" lon="0.65794">
        <ele>124.35433959961</ele>
        <time>2020-06-19T13:34:24.551Z</time>
      </trkpt>
      <trkpt lat="46.12518" lon="0.65788">
        <ele>124.33382415771</ele>
        <time>2020-06-19T13:34:33.472Z</time>
      </trkpt>
      <trkpt lat="46.12493" lon="0.65808">
        <ele>124.61667633057</ele>
        <time>2020-06-19T13:34:42.398Z</time>
      </trkpt>
      <trkpt lat="46.12477" lon="0.65834">
        <ele>124.99713134766</ele>
        <time>2020-06-19T13:34:51.328Z</time>
      </trkpt>
      <trkpt lat="46.1246" lon="0.65863">
        <ele>124.58919525146</ele>
        <time>2020-06-19T13:35:00.262Z</time>
      </trkpt>
      <trkpt lat="46.12408" lon="0.6592">
        <ele>126.07984924316</ele>
        <time>2020-06-19T13:35:09.206Z</time>
      </trkpt>
      <trkpt lat="46.12372" lon="0.65955">
        <ele>125.56674194336</ele>
        <time>2020-06-19T13:35:18.157Z</time>
      </trkpt>
      <trkpt lat="46.12347" lon="0.65986">
        <ele>125.02832794189</ele>
        <time>2020-06-19T13:35:27.114Z</time>
      </trkpt>
      <trkpt lat="46.12309" lon="0.66033">
        <ele>124.20198822021</ele>
        <time>2020-06-19T13:13:16.000Z</time>
      </trkpt>
      <trkpt lat="46.12309" lon="0.66033">
        <ele>124.20198822021</ele>
        <time>2020-06-19T13:13:16.000Z</time>
      </trkpt>
      <trkpt lat="46.12289" lon="0.66057">
        <ele>124.36059570312</ele>
        <time>2020-06-19T13:13:16.004Z</time>
      </trkpt>
      <trkpt lat="46.12278" lon="0.66068">
        <ele>124.75652313232</ele>
        <time>2020-06-19T13:13:16.010Z</time>
      </trkpt>
      <trkpt lat="46.12272" lon="0.66069">
        <ele>124.85250854492</ele>
        <time>2020-06-19T13:13:16.017Z</time>
      </trkpt>
      <trkpt lat="46.12264" lon="0.66083">
        <ele>125.28443908691</ele>
        <time>2020-06-19T13:13:16.026Z</time>
      </trkpt>
      <trkpt lat="46.12249" lon="0.66104">
        <ele>124.90980529785</ele>
        <time>2020-06-19T13:13:16.039Z</time>
      </trkpt>
      <trkpt lat="46.12254" lon="0.66109">
        <ele>124.95317840576</ele>
        <time>2020-06-19T13:13:16.053Z</time>
      </trkpt>
      <trkpt lat="46.12228" lon="0.66154">
        <ele>123.80471801758</ele>
        <time>2020-06-19T13:13:16.073Z</time>
      </trkpt>
      <trkpt lat="46.12195" lon="0.66204">
        <ele>123.2398147583</ele>
        <time>2020-06-19T13:13:16.101Z</time>
      </trkpt>
      <trkpt lat="46.12184" lon="0.66208">
        <ele>123.61291503906</ele>
        <time>2020-06-19T13:13:16.131Z</time>
      </trkpt>
      <trkpt lat="46.12184" lon="0.66208">
        <ele>123.61311340332</ele>
        <time>2020-06-19T13:13:16.161Z</time>
      </trkpt>
      <trkpt lat="46.12179" lon="0.66143">
        <ele>122.74897766113</ele>
        <time>2020-06-19T13:13:16.198Z</time>
      </trkpt>
      <trkpt lat="46.12154" lon="0.66089">
        <ele>121.68830108643</ele>
        <time>2020-06-19T13:13:16.242Z</time>
      </trkpt>
      <trkpt lat="46.12154" lon="0.66089">
        <ele>121.68840026855</ele>
        <time>2020-06-19T13:13:16.286Z</time>
      </trkpt>
      <trkpt lat="46.12149" lon="0.66076">
        <ele>121.39112091064</ele>
        <time>2020-06-19T13:13:16.332Z</time>
      </trkpt>
      <trkpt lat="46.12149" lon="0.66076">
        <ele>121.39092254639</ele>
        <time>2020-06-19T13:13:16.378Z</time>
      </trkpt>
      <trkpt lat="46.12065" lon="0.65932">
        <ele>123.29351806641</ele>
        <time>2020-06-19T13:13:16.445Z</time>
      </trkpt>
      <trkpt lat="46.12061" lon="0.65924">
        <ele>123.61673736572</ele>
        <time>2020-06-19T13:13:16.513Z</time>
      </trkpt>
      <trkpt lat="46.12061" lon="0.65924">
        <ele>123.61602783203</ele>
        <time>2020-06-19T13:13:16.581Z</time>
      </trkpt>
      <trkpt lat="46.12057" lon="0.65919">
        <ele>123.95660400391</ele>
        <time>2020-06-19T13:13:16.649Z</time>
      </trkpt>
      <trkpt lat="46.12035" lon="0.65825">
        <ele>128.86557006836</ele>
        <time>2020-06-19T13:13:16.729Z</time>
      </trkpt>
      <trkpt lat="46.12033" lon="0.65787">
        <ele>130.55848693848</ele>
        <time>2020-06-19T13:13:16.813Z</time>
      </trkpt>
      <trkpt lat="46.12052" lon="0.65752">
        <ele>129.60612487793</ele>
        <time>2020-06-19T13:13:16.902Z</time>
      </trkpt>
      <trkpt lat="46.12056" lon="0.65746">
        <ele>129.29658508301</ele>
        <time>2020-06-19T13:13:16.992Z</time>
      </trkpt>
      <trkpt lat="46.12064" lon="0.65729">
        <ele>128.79661560059</ele>
        <time>2020-06-19T13:13:17.084Z</time>
      </trkpt>
      <trkpt lat="46.12055" lon="0.65701">
        <ele>129.31150817871</ele>
        <time>2020-06-19T13:13:17.179Z</time>
      </trkpt>
      <trkpt lat="46.12054" lon="0.65695">
        <ele>129.37637329102</ele>
        <time>2020-06-19T13:13:17.275Z</time>
      </trkpt>
      <trkpt lat="46.11962" lon="0.65756">
        <ele>134.59124755859</ele>
        <time>2020-06-19T13:13:17.387Z</time>
      </trkpt>
      <trkpt lat="46.11919" lon="0.6577">
        <ele>136.96868896484</ele>
        <time>2020-06-19T13:13:17.506Z</time>
      </trkpt>
      <trkpt lat="46.119" lon="0.65776">
        <ele>138.16320800781</ele>
        <time>2020-06-19T13:13:17.628Z</time>
      </trkpt>
      <trkpt lat="46.119" lon="0.65776">
        <ele>138.16261291504</ele>
        <time>2020-06-19T13:13:17.750Z</time>
      </trkpt>
      <trkpt lat="46.11847" lon="0.65795">
        <ele>139.87229919434</ele>
        <time>2020-06-19T13:13:17.881Z</time>
      </trkpt>
      <trkpt lat="46.11823" lon="0.65789">
        <ele>140.85061645508</ele>
        <time>2020-06-19T13:13:18.016Z</time>
      </trkpt>
      <trkpt lat="46.11783" lon="0.65817">
        <ele>141.66401672363</ele>
        <time>2020-06-19T13:13:18.158Z</time>
      </trkpt>
      <trkpt lat="46.11753" lon="0.65867">
        <ele>141.46017456055</ele>
        <time>2020-06-19T13:13:18.307Z</time>
      </trkpt>
      <trkpt lat="46.11753" lon="0.65867">
        <ele>141.46076965332</ele>
        <time>2020-06-19T13:13:18.456Z</time>
      </trkpt>
      <trkpt lat="46.11729" lon="0.65907">
        <ele>140.41670227051</ele>
        <time>2020-06-19T13:13:18.611Z</time>
      </trkpt>
      <trkpt lat="46.11701" lon="0.65948">
        <ele>140.07801818848</ele>
        <time>2020-06-19T13:13:18.773Z</time>
      </trkpt>
      <trkpt lat="46.11615" lon="0.6606">
        <ele>137.59718322754</ele>
        <time>2020-06-19T13:13:18.953Z</time>
      </trkpt>
      <trkpt lat="46.11593" lon="0.66089">
        <ele>137.83129882812</ele>
        <time>2020-06-19T13:13:19.138Z</time>
      </trkpt>
      <trkpt lat="46.11493" lon="0.66224">
        <ele>135.12326049805</ele>
        <time>2020-06-19T13:13:19.345Z</time>
      </trkpt>
      <trkpt lat="46.11484" lon="0.66237">
        <ele>134.84858703613</ele>
        <time>2020-06-19T13:13:19.554Z</time>
      </trkpt>
      <trkpt lat="46.11481" lon="0.66248">
        <ele>135.14505004883</ele>
        <time>2020-06-19T13:13:19.764Z</time>
      </trkpt>
      <trkpt lat="46.11504" lon="0.66347">
        <ele>134.93469238281</ele>
        <time>2020-06-19T13:13:19.986Z</time>
      </trkpt>
      <trkpt lat="46.11495" lon="0.6638">
        <ele>134.13659667969</ele>
        <time>2020-06-19T13:13:20.212Z</time>
      </trkpt>
      <trkpt lat="46.11467" lon="0.66425">
        <ele>135.2725982666</ele>
        <time>2020-06-19T13:13:20.445Z</time>
      </trkpt>
      <trkpt lat="46.11467" lon="0.66425">
        <ele>135.27188110352</ele>
        <time>2020-06-19T13:13:20.678Z</time>
      </trkpt>
      <trkpt lat="46.1129" lon="0.66708">
        <ele>138.10432434082</ele>
        <time>2020-06-19T13:13:20.953Z</time>
      </trkpt>
      <trkpt lat="46.1129" lon="0.66708">
        <ele>138.10371398926</ele>
        <time>2020-06-19T13:13:21.228Z</time>
      </trkpt>
      <trkpt lat="46.11288" lon="0.66712">
        <ele>138.05081176758</ele>
        <time>2020-06-19T13:13:21.504Z</time>
      </trkpt>
      <trkpt lat="46.1128" lon="0.66706">
        <ele>139.05487060547</ele>
        <time>2020-06-19T13:13:21.781Z</time>
      </trkpt>
      <trkpt lat="46.11266" lon="0.6673">
        <ele>139.09106445312</ele>
        <time>2020-06-19T13:13:22.062Z</time>
      </trkpt>
      <trkpt lat="46.11257" lon="0.6673">
        <ele>139.73248291016</ele>
        <time>2020-06-19T13:13:22.344Z</time>
      </trkpt>
      <trkpt lat="46.11249" lon="0.66734">
        <ele>140.22145080566</ele>
        <time>2020-06-19T13:13:22.627Z</time>
      </trkpt>
      <trkpt lat="46.11175" lon="0.66805">
        <ele>140.12518310547</ele>
        <time>2020-06-19T13:13:22.925Z</time>
      </trkpt>
      <trkpt lat="46.11118" lon="0.66838">
        <ele>141.13317871094</ele>
        <time>2020-06-19T13:13:23.233Z</time>
      </trkpt>
      <trkpt lat="46.11059" lon="0.66876">
        <ele>140.68940734863</ele>
        <time>2020-06-19T13:13:23.551Z</time>
      </trkpt>
      <trkpt lat="46.11021" lon="0.66907">
        <ele>139.2375793457</ele>
        <time>2020-06-19T13:13:23.876Z</time>
      </trkpt>
      <trkpt lat="46.10996" lon="0.66928">
        <ele>139.63179016113</ele>
        <time>2020-06-19T13:13:24.205Z</time>
      </trkpt>
      <trkpt lat="46.10919" lon="0.6703">
        <ele>144.3688659668</ele>
        <time>2020-06-19T13:13:24.551Z</time>
      </trkpt>
      <trkpt lat="46.10848" lon="0.67132">
        <ele>148.04504394531</ele>
        <time>2020-06-19T13:13:24.913Z</time>
      </trkpt>
      <trkpt lat="46.10799" lon="0.672">
        <ele>149.46618652344</ele>
        <time>2020-06-19T13:13:25.286Z</time>
      </trkpt>
      <trkpt lat="46.10743" lon="0.67279">
        <ele>151.51960754395</ele>
        <time>2020-06-19T13:13:25.672Z</time>
      </trkpt>
      <trkpt lat="46.10696" lon="0.67347">
        <ele>149.41287231445</ele>
        <time>2020-06-19T13:13:26.068Z</time>
      </trkpt>
      <trkpt lat="46.10599" lon="0.67475">
        <ele>152.09248352051</ele>
        <time>2020-06-19T13:13:26.486Z</time>
      </trkpt>
      <trkpt lat="46.10552" lon="0.67541">
        <ele>152.23699951172</ele>
        <time>2020-06-19T13:13:26.914Z</time>
      </trkpt>
      <trkpt lat="46.10514" lon="0.67587">
        <ele>153.8111114502</ele>
        <time>2020-06-19T13:13:27.350Z</time>
      </trkpt>
      <trkpt lat="46.10515" lon="0.67586">
        <ele>153.7452545166</ele>
        <time>2020-06-19T13:13:27.786Z</time>
      </trkpt>
      <trkpt lat="46.10472" lon="0.67572">
        <ele>158.19990539551</ele>
        <time>2020-06-19T13:13:28.229Z</time>
      </trkpt>
      <trkpt lat="46.10455" lon="0.67562">
        <ele>159.0877532959</ele>
        <time>2020-06-19T13:13:28.675Z</time>
      </trkpt>
      <trkpt lat="46.10442" lon="0.67543">
        <ele>160.19235229492</ele>
        <time>2020-06-19T13:13:29.124Z</time>
      </trkpt>
      <trkpt lat="46.10436" lon="0.67529">
        <ele>160.84024047852</ele>
        <time>2020-06-19T13:13:29.575Z</time>
      </trkpt>
      <trkpt lat="46.10414" lon="0.6748">
        <ele>163.01008605957</ele>
        <time>2020-06-19T13:13:30.032Z</time>
      </trkpt>
      <trkpt lat="46.10407" lon="0.67456">
        <ele>164.16401672363</ele>
        <time>2020-06-19T13:13:30.492Z</time>
      </trkpt>
      <trkpt lat="46.10407" lon="0.6742">
        <ele>165.89172363281</ele>
        <time>2020-06-19T13:13:30.956Z</time>
      </trkpt>
      <trkpt lat="46.10407" lon="0.67399">
        <ele>166.86106872559</ele>
        <time>2020-06-19T13:13:31.423Z</time>
      </trkpt>
      <trkpt lat="46.10405" lon="0.67393">
        <ele>167.02905273438</ele>
        <time>2020-06-19T13:13:31.890Z</time>
      </trkpt>
      <trkpt lat="46.10378" lon="0.67355">
        <ele>168.7366027832</ele>
        <time>2020-06-19T13:13:32.363Z</time>
      </trkpt>
      <trkpt lat="46.10362" lon="0.67341">
        <ele>169.72044372559</ele>
        <time>2020-06-19T13:13:32.839Z</time>
      </trkpt>
      <trkpt lat="46.10346" lon="0.67338">
        <ele>170.83625793457</ele>
        <time>2020-06-19T13:13:33.318Z</time>
      </trkpt>
      <trkpt lat="46.10329" lon="0.67345">
        <ele>170.19570922852</ele>
        <time>2020-06-19T13:13:33.800Z</time>
      </trkpt>
      <trkpt lat="46.10325" lon="0.67348">
        <ele>169.93176269531</ele>
        <time>2020-06-19T13:13:34.283Z</time>
      </trkpt>
      <trkpt lat="46.10287" lon="0.67369">
        <ele>169.005859375</ele>
        <time>2020-06-19T13:13:34.772Z</time>
      </trkpt>
      <trkpt lat="46.1019" lon="0.67422">
        <ele>171.16557312012</ele>
        <time>2020-06-19T13:13:35.278Z</time>
      </trkpt>
      <trkpt lat="46.10105" lon="0.67469">
        <ele>172.55342102051</ele>
        <time>2020-06-19T13:13:35.798Z</time>
      </trkpt>
      <trkpt lat="46.09993" lon="0.67532">
        <ele>167.5023651123</ele>
        <time>2020-06-19T13:13:36.338Z</time>
      </trkpt>
      <trkpt lat="46.09975" lon="0.67546">
        <ele>167.22772216797</ele>
        <time>2020-06-19T13:13:36.881Z</time>
      </trkpt>
      <trkpt lat="46.0996" lon="0.67563">
        <ele>167.35969543457</ele>
        <time>2020-06-19T13:13:37.427Z</time>
      </trkpt>
      <trkpt lat="46.09944" lon="0.6759">
        <ele>167.28770446777</ele>
        <time>2020-06-19T13:13:37.977Z</time>
      </trkpt>
      <trkpt lat="46.09898" lon="0.67689">
        <ele>165.73500061035</ele>
        <time>2020-06-19T13:13:38.540Z</time>
      </trkpt>
      <trkpt lat="46.09884" lon="0.67716">
        <ele>165.33674621582</ele>
        <time>2020-06-19T13:13:39.107Z</time>
      </trkpt>
      <trkpt lat="46.09872" lon="0.67729">
        <ele>165.65625</ele>
        <time>2020-06-19T13:13:39.676Z</time>
      </trkpt>
      <trkpt lat="46.0986" lon="0.67736">
        <ele>166.00419616699</ele>
        <time>2020-06-19T13:13:40.247Z</time>
      </trkpt>
      <trkpt lat="46.0981" lon="0.67754">
        <ele>167.17515563965</ele>
        <time>2020-06-19T13:13:40.827Z</time>
      </trkpt>
      <trkpt lat="46.09773" lon="0.67767">
        <ele>166.44403076172</ele>
        <time>2020-06-19T13:13:41.413Z</time>
      </trkpt>
      <trkpt lat="46.09701" lon="0.67792">
        <ele>166.4287109375</ele>
        <time>2020-06-19T13:13:42.010Z</time>
      </trkpt>
      <trkpt lat="46.09651" lon="0.67806">
        <ele>166.0922088623</ele>
        <time>2020-06-19T13:13:42.616Z</time>
      </trkpt>
      <trkpt lat="46.09602" lon="0.67816">
        <ele>163.67781066895</ele>
        <time>2020-06-19T13:13:43.230Z</time>
      </trkpt>
      <trkpt lat="46.09569" lon="0.67818">
        <ele>161.72213745117</ele>
        <time>2020-06-19T13:13:43.849Z</time>
      </trkpt>
      <trkpt lat="46.09529" lon="0.67815">
        <ele>160.02963256836</ele>
        <time>2020-06-19T13:13:44.474Z</time>
      </trkpt>
      <trkpt lat="46.09493" lon="0.6781">
        <ele>158.67385864258</ele>
        <time>2020-06-19T13:13:45.105Z</time>
      </trkpt>
      <trkpt lat="46.09475" lon="0.67803">
        <ele>157.92254638672</ele>
        <time>2020-06-19T13:13:45.739Z</time>
      </trkpt>
      <trkpt lat="46.09457" lon="0.67791">
        <ele>156.77101135254</ele>
        <time>2020-06-19T13:13:46.376Z</time>
      </trkpt>
      <trkpt lat="46.09445" lon="0.67777">
        <ele>155.85916137695</ele>
        <time>2020-06-19T13:13:47.016Z</time>
      </trkpt>
      <trkpt lat="46.09437" lon="0.67764">
        <ele>155.16328430176</ele>
        <time>2020-06-19T13:13:47.658Z</time>
      </trkpt>
      <trkpt lat="46.09432" lon="0.67745">
        <ele>154.6276550293</ele>
        <time>2020-06-19T13:13:48.302Z</time>
      </trkpt>
      <trkpt lat="46.09426" lon="0.67706">
        <ele>153.47273254395</ele>
        <time>2020-06-19T13:13:48.950Z</time>
      </trkpt>
      <trkpt lat="46.0942" lon="0.67655">
        <ele>151.08488464355</ele>
        <time>2020-06-19T13:13:49.604Z</time>
      </trkpt>
      <trkpt lat="46.09415" lon="0.67604">
        <ele>150.16938781738</ele>
        <time>2020-06-19T13:13:50.264Z</time>
      </trkpt>
      <trkpt lat="46.09407" lon="0.67557">
        <ele>150.32940673828</ele>
        <time>2020-06-19T13:13:50.929Z</time>
      </trkpt>
      <trkpt lat="46.09402" lon="0.67545">
        <ele>150.39984130859</ele>
        <time>2020-06-19T13:13:51.596Z</time>
      </trkpt>
      <trkpt lat="46.09393" lon="0.67532">
        <ele>150.54486083984</ele>
        <time>2020-06-19T13:13:52.265Z</time>
      </trkpt>
      <trkpt lat="46.09364" lon="0.6751">
        <ele>155.59600830078</ele>
        <time>2020-06-19T13:13:52.939Z</time>
      </trkpt>
      <trkpt lat="46.09308" lon="0.67474">
        <ele>164.56016540527</ele>
        <time>2020-06-19T13:13:53.623Z</time>
      </trkpt>
      <trkpt lat="46.09214" lon="0.6741">
        <ele>165.42378234863</ele>
        <time>2020-06-19T13:13:54.324Z</time>
      </trkpt>
      <trkpt lat="46.09166" lon="0.67379">
        <ele>166.62069702148</ele>
        <time>2020-06-19T13:13:55.033Z</time>
      </trkpt>
      <trkpt lat="46.09144" lon="0.67373">
        <ele>166.64468383789</ele>
        <time>2020-06-19T13:13:55.746Z</time>
      </trkpt>
      <trkpt lat="46.09124" lon="0.67372">
        <ele>166.62358093262</ele>
        <time>2020-06-19T13:13:56.462Z</time>
      </trkpt>
      <trkpt lat="46.09087" lon="0.6737">
        <ele>166.29963684082</ele>
        <time>2020-06-19T13:13:57.184Z</time>
      </trkpt>
      <trkpt lat="46.09061" lon="0.67367">
        <ele>166.16766357422</ele>
        <time>2020-06-19T13:13:57.910Z</time>
      </trkpt>
      <trkpt lat="46.09035" lon="0.67359">
        <ele>167.23129272461</ele>
        <time>2020-06-19T13:13:58.640Z</time>
      </trkpt>
      <trkpt lat="46.09009" lon="0.67351">
        <ele>169.46118164062</ele>
        <time>2020-06-19T13:13:59.374Z</time>
      </trkpt>
      <trkpt lat="46.08984" lon="0.67336">
        <ele>171.68081665039</ele>
        <time>2020-06-19T13:14:00.113Z</time>
      </trkpt>
      <trkpt lat="46.08966" lon="0.67323">
        <ele>173.25254821777</ele>
        <time>2020-06-19T13:14:00.855Z</time>
      </trkpt>
      <trkpt lat="46.08934" lon="0.67303">
        <ele>176.08407592773</ele>
        <time>2020-06-19T13:14:01.602Z</time>
      </trkpt>
      <trkpt lat="46.08884" lon="0.67277">
        <ele>179.31842041016</ele>
        <time>2020-06-19T13:14:02.358Z</time>
      </trkpt>
      <trkpt lat="46.08878" lon="0.67275">
        <ele>178.69451904297</ele>
        <time>2020-06-19T13:14:03.115Z</time>
      </trkpt>
      <trkpt lat="46.08871" lon="0.67278">
        <ele>177.90264892578</ele>
        <time>2020-06-19T13:14:03.873Z</time>
      </trkpt>
      <trkpt lat="46.08868" lon="0.67285">
        <ele>177.05706787109</ele>
        <time>2020-06-19T13:14:04.632Z</time>
      </trkpt>
      <trkpt lat="46.0886" lon="0.67333">
        <ele>174.06394958496</ele>
        <time>2020-06-19T13:14:05.397Z</time>
      </trkpt>
      <trkpt lat="46.08851" lon="0.67438">
        <ele>172.31971740723</ele>
        <time>2020-06-19T13:14:06.173Z</time>
      </trkpt>
      <trkpt lat="46.08846" lon="0.67463">
        <ele>172.79963684082</ele>
        <time>2020-06-19T13:14:06.952Z</time>
      </trkpt>
      <trkpt lat="46.08837" lon="0.67485">
        <ele>171.35635375977</ele>
        <time>2020-06-19T13:14:07.734Z</time>
      </trkpt>
      <trkpt lat="46.08829" lon="0.67501">
        <ele>169.87164306641</ele>
        <time>2020-06-19T13:14:08.518Z</time>
      </trkpt>
      <trkpt lat="46.0882" lon="0.67512">
        <ele>168.69583129883</ele>
        <time>2020-06-19T13:14:09.304Z</time>
      </trkpt>
      <trkpt lat="46.08804" lon="0.67522">
        <ele>166.92391967773</ele>
        <time>2020-06-19T13:14:10.093Z</time>
      </trkpt>
      <trkpt lat="46.08764" lon="0.67535">
        <ele>163.46513366699</ele>
        <time>2020-06-19T13:14:10.889Z</time>
      </trkpt>
      <trkpt lat="46.08706" lon="0.67557">
        <ele>158.88859558105</ele>
        <time>2020-06-19T13:14:11.694Z</time>
      </trkpt>
      <trkpt lat="46.08659" lon="0.67573">
        <ele>153.50659179688</ele>
        <time>2020-06-19T13:14:12.507Z</time>
      </trkpt>
      <trkpt lat="46.08641" lon="0.67575">
        <ele>152.48890686035</ele>
        <time>2020-06-19T13:14:13.323Z</time>
      </trkpt>
      <trkpt lat="46.08618" lon="0.67572">
        <ele>153.53273010254</ele>
        <time>2020-06-19T13:14:14.142Z</time>
      </trkpt>
      <trkpt lat="46.08596" lon="0.67568">
        <ele>154.61254882812</ele>
        <time>2020-06-19T13:14:14.965Z</time>
      </trkpt>
      <trkpt lat="46.08564" lon="0.6757">
        <ele>155.46603393555</ele>
        <time>2020-06-19T13:14:15.793Z</time>
      </trkpt>
      <trkpt lat="46.08537" lon="0.67576">
        <ele>154.7893371582</ele>
        <time>2020-06-19T13:14:16.626Z</time>
      </trkpt>
      <trkpt lat="46.08511" lon="0.67585">
        <ele>153.72151184082</ele>
        <time>2020-06-19T13:14:17.463Z</time>
      </trkpt>
      <trkpt lat="46.08462" lon="0.67601">
        <ele>152.94319152832</ele>
        <time>2020-06-19T13:14:18.308Z</time>
      </trkpt>
      <trkpt lat="46.08439" lon="0.67604">
        <ele>152.67337036133</ele>
        <time>2020-06-19T13:14:19.157Z</time>
      </trkpt>
      <trkpt lat="46.08418" lon="0.67605">
        <ele>153.15328979492</ele>
        <time>2020-06-19T13:14:20.009Z</time>
      </trkpt>
      <trkpt lat="46.08387" lon="0.67601">
        <ele>153.77339172363</ele>
        <time>2020-06-19T13:14:20.866Z</time>
      </trkpt>
      <trkpt lat="46.08315" lon="0.67588">
        <ele>153.57929992676</ele>
        <time>2020-06-19T13:14:21.734Z</time>
      </trkpt>
      <trkpt lat="46.08242" lon="0.67577">
        <ele>154.32084655762</ele>
        <time>2020-06-19T13:14:22.614Z</time>
      </trkpt>
      <trkpt lat="46.0819" lon="0.67562">
        <ele>154.67372131348</ele>
        <time>2020-06-19T13:14:23.503Z</time>
      </trkpt>
      <trkpt lat="46.08148" lon="0.67544">
        <ele>154.89279174805</ele>
        <time>2020-06-19T13:14:24.399Z</time>
      </trkpt>
      <trkpt lat="46.08106" lon="0.67522">
        <ele>153.59237670898</ele>
        <time>2020-06-19T13:14:25.302Z</time>
      </trkpt>
      <trkpt lat="46.08043" lon="0.67496">
        <ele>151.48254394531</ele>
        <time>2020-06-19T13:14:26.215Z</time>
      </trkpt>
      <trkpt lat="46.07999" lon="0.6748">
        <ele>151.14659118652</ele>
        <time>2020-06-19T13:14:27.136Z</time>
      </trkpt>
      <trkpt lat="46.07972" lon="0.67479">
        <ele>150.71365356445</ele>
        <time>2020-06-19T13:14:28.061Z</time>
      </trkpt>
      <trkpt lat="46.07939" lon="0.6749">
        <ele>150.71365356445</ele>
        <time>2020-06-19T13:14:28.991Z</time>
      </trkpt>
      <trkpt lat="46.07916" lon="0.67498">
        <ele>150.63645935059</ele>
        <time>2020-06-19T13:14:29.925Z</time>
      </trkpt>
      <trkpt lat="46.0789" lon="0.67505">
        <ele>150.19172668457</ele>
        <time>2020-06-19T13:14:30.863Z</time>
      </trkpt>
      <trkpt lat="46.07848" lon="0.67511">
        <ele>148.46611022949</ele>
        <time>2020-06-19T13:14:31.808Z</time>
      </trkpt>
      <trkpt lat="46.07824" lon="0.6751">
        <ele>148.2021484375</ele>
        <time>2020-06-19T13:14:32.757Z</time>
      </trkpt>
      <trkpt lat="46.07797" lon="0.67502">
        <ele>147.91809082031</ele>
        <time>2020-06-19T13:14:33.710Z</time>
      </trkpt>
      <trkpt lat="46.07775" lon="0.67487">
        <ele>147.75012207031</ele>
        <time>2020-06-19T13:14:34.667Z</time>
      </trkpt>
      <trkpt lat="46.07712" lon="0.67442">
        <ele>147.64920043945</ele>
        <time>2020-06-19T13:14:35.636Z</time>
      </trkpt>
      <trkpt lat="46.07659" lon="0.6741">
        <ele>147.52922058105</ele>
        <time>2020-06-19T13:14:36.614Z</time>
      </trkpt>
      <trkpt lat="46.07637" lon="0.67398">
        <ele>147.21795654297</ele>
        <time>2020-06-19T13:14:37.596Z</time>
      </trkpt>
      <trkpt lat="46.07596" lon="0.67382">
        <ele>145.13073730469</ele>
        <time>2020-06-19T13:14:38.584Z</time>
      </trkpt>
      <trkpt lat="46.0759" lon="0.67379">
        <ele>144.73480224609</ele>
        <time>2020-06-19T13:14:39.573Z</time>
      </trkpt>
      <trkpt lat="46.07576" lon="0.67364">
        <ele>143.7149810791</ele>
        <time>2020-06-19T13:14:40.565Z</time>
      </trkpt>
      <trkpt lat="46.0755" lon="0.67373">
        <ele>142.95671081543</ele>
        <time>2020-06-19T13:14:41.561Z</time>
      </trkpt>
      <trkpt lat="46.07536" lon="0.67375">
        <ele>143.29737854004</ele>
        <time>2020-06-19T13:14:42.560Z</time>
      </trkpt>
      <trkpt lat="46.07502" lon="0.67374">
        <ele>144.08923339844</ele>
        <time>2020-06-19T13:14:43.564Z</time>
      </trkpt>
      <trkpt lat="46.07319" lon="0.67372">
        <ele>148.17086791992</ele>
        <time>2020-06-19T13:14:44.597Z</time>
      </trkpt>
      <trkpt lat="46.07218" lon="0.6737">
        <ele>146.78540039062</ele>
        <time>2020-06-19T13:14:45.647Z</time>
      </trkpt>
      <trkpt lat="46.0719" lon="0.67372">
        <ele>148.08117675781</ele>
        <time>2020-06-19T13:14:46.701Z</time>
      </trkpt>
      <trkpt lat="46.07163" lon="0.67385">
        <ele>149.0650177002</ele>
        <time>2020-06-19T13:14:47.760Z</time>
      </trkpt>
      <trkpt lat="46.07069" lon="0.67458">
        <ele>152.25241088867</ele>
        <time>2020-06-19T13:14:48.836Z</time>
      </trkpt>
      <trkpt lat="46.07059" lon="0.67466">
        <ele>152.02984619141</ele>
        <time>2020-06-19T13:14:49.914Z</time>
      </trkpt>
      <trkpt lat="46.07011" lon="0.67508">
        <ele>148.78240966797</ele>
        <time>2020-06-19T13:14:51.001Z</time>
      </trkpt>
      <trkpt lat="46.0699" lon="0.67518">
        <ele>148.92639160156</ele>
        <time>2020-06-19T13:14:52.091Z</time>
      </trkpt>
      <trkpt lat="46.06959" lon="0.6752">
        <ele>149.3918762207</ele>
        <time>2020-06-19T13:14:53.186Z</time>
      </trkpt>
      <trkpt lat="46.06947" lon="0.67518">
        <ele>149.60784912109</ele>
        <time>2020-06-19T13:14:54.283Z</time>
      </trkpt>
      <trkpt lat="46.06905" lon="0.67511">
        <ele>151.06602478027</ele>
        <time>2020-06-19T13:14:55.387Z</time>
      </trkpt>
      <trkpt lat="46.06879" lon="0.67509">
        <ele>151.19465637207</ele>
        <time>2020-06-19T13:14:56.495Z</time>
      </trkpt>
      <trkpt lat="46.0685" lon="0.67515">
        <ele>150.48580932617</ele>
        <time>2020-06-19T13:14:57.608Z</time>
      </trkpt>
      <trkpt lat="46.06799" lon="0.67532">
        <ele>149.74783325195</ele>
        <time>2020-06-19T13:14:58.729Z</time>
      </trkpt>
      <trkpt lat="46.06752" lon="0.67541">
        <ele>148.62002563477</ele>
        <time>2020-06-19T13:14:59.858Z</time>
      </trkpt>
      <trkpt lat="46.06706" lon="0.67546">
        <ele>147.84130859375</ele>
        <time>2020-06-19T13:15:00.994Z</time>
      </trkpt>
      <trkpt lat="46.06696" lon="0.67551">
        <ele>147.66134643555</ele>
        <time>2020-06-19T13:15:02.132Z</time>
      </trkpt>
      <trkpt lat="46.06681" lon="0.67573">
        <ele>146.49520874023</ele>
        <time>2020-06-19T13:15:03.273Z</time>
      </trkpt>
      <trkpt lat="46.06668" lon="0.67606">
        <ele>144.75550842285</ele>
        <time>2020-06-19T13:15:04.418Z</time>
      </trkpt>
      <trkpt lat="46.06667" lon="0.67608">
        <ele>144.64752197266</ele>
        <time>2020-06-19T13:15:05.564Z</time>
      </trkpt>
      <trkpt lat="46.06656" lon="0.67628">
        <ele>143.55570983887</ele>
        <time>2020-06-19T13:15:06.712Z</time>
      </trkpt>
      <trkpt lat="46.06637" lon="0.67652">
        <ele>142.67190551758</ele>
        <time>2020-06-19T13:15:07.865Z</time>
      </trkpt>
      <trkpt lat="46.06613" lon="0.6767">
        <ele>141.88003540039</ele>
        <time>2020-06-19T13:15:09.022Z</time>
      </trkpt>
      <trkpt lat="46.06596" lon="0.67676">
        <ele>141.4001159668</ele>
        <time>2020-06-19T13:15:10.182Z</time>
      </trkpt>
      <trkpt lat="46.06557" lon="0.67685">
        <ele>140.47468566895</ele>
        <time>2020-06-19T13:15:11.348Z</time>
      </trkpt>
      <trkpt lat="46.06541" lon="0.67687">
        <ele>140.83462524414</ele>
        <time>2020-06-19T13:15:12.517Z</time>
      </trkpt>
      <trkpt lat="46.06496" lon="0.67692">
        <ele>140.99450683594</ele>
        <time>2020-06-19T13:15:13.693Z</time>
      </trkpt>
      <trkpt lat="46.06465" lon="0.67696">
        <ele>141.11735534668</ele>
        <time>2020-06-19T13:15:14.874Z</time>
      </trkpt>
      <trkpt lat="46.06411" lon="0.67698">
        <ele>142.34115600586</ele>
        <time>2020-06-19T13:15:16.063Z</time>
      </trkpt>
      <trkpt lat="46.06383" lon="0.67697">
        <ele>142.69729614258</ele>
        <time>2020-06-19T13:15:17.257Z</time>
      </trkpt>
      <trkpt lat="46.06358" lon="0.67702">
        <ele>142.2173614502</ele>
        <time>2020-06-19T13:15:18.455Z</time>
      </trkpt>
      <trkpt lat="46.06295" lon="0.67719">
        <ele>141.18063354492</ele>
        <time>2020-06-19T13:15:19.663Z</time>
      </trkpt>
      <trkpt lat="46.06221" lon="0.67731">
        <ele>140.98414611816</ele>
        <time>2020-06-19T13:15:20.883Z</time>
      </trkpt>
      <trkpt lat="46.06151" lon="0.67734">
        <ele>139.89231872559</ele>
        <time>2020-06-19T13:15:22.114Z</time>
      </trkpt>
      <trkpt lat="46.06096" lon="0.67731">
        <ele>140.0450592041</ele>
        <time>2020-06-19T13:15:23.354Z</time>
      </trkpt>
      <trkpt lat="46.06077" lon="0.67728">
        <ele>140.29702758789</ele>
        <time>2020-06-19T13:15:24.597Z</time>
      </trkpt>
      <trkpt lat="46.06064" lon="0.67723">
        <ele>140.71694946289</ele>
        <time>2020-06-19T13:15:25.842Z</time>
      </trkpt>
      <trkpt lat="46.06033" lon="0.67701">
        <ele>142.7507019043</ele>
        <time>2020-06-19T13:15:27.093Z</time>
      </trkpt>
      <trkpt lat="46.06022" lon="0.67693">
        <ele>143.49458312988</ele>
        <time>2020-06-19T13:15:28.346Z</time>
      </trkpt>
      <trkpt lat="46.06006" lon="0.67688">
        <ele>144.17846679688</ele>
        <time>2020-06-19T13:15:29.601Z</time>
      </trkpt>
      <trkpt lat="46.05965" lon="0.67686">
        <ele>145.14987182617</ele>
        <time>2020-06-19T13:15:30.863Z</time>
      </trkpt>
      <trkpt lat="46.05916" lon="0.67684">
        <ele>145.56492614746</ele>
        <time>2020-06-19T13:15:32.133Z</time>
      </trkpt>
      <trkpt lat="46.05857" lon="0.67682">
        <ele>145.70889282227</ele>
        <time>2020-06-19T13:15:33.412Z</time>
      </trkpt>
      <trkpt lat="46.05827" lon="0.67688">
        <ele>145.68560791016</ele>
        <time>2020-06-19T13:15:34.696Z</time>
      </trkpt>
      <trkpt lat="46.05708" lon="0.67719">
        <ele>146.02267456055</ele>
        <time>2020-06-19T13:15:36.000Z</time>
      </trkpt>
      <trkpt lat="46.05634" lon="0.67736">
        <ele>145.2032623291</ele>
        <time>2020-06-19T13:15:37.316Z</time>
      </trkpt>
      <trkpt lat="46.05593" lon="0.67749">
        <ele>143.75151062012</ele>
        <time>2020-06-19T13:15:38.638Z</time>
      </trkpt>
      <trkpt lat="46.0557" lon="0.67757">
        <ele>142.91165161133</ele>
        <time>2020-06-19T13:15:39.964Z</time>
      </trkpt>
      <trkpt lat="46.05548" lon="0.6777">
        <ele>142.45812988281</ele>
        <time>2020-06-19T13:15:41.294Z</time>
      </trkpt>
      <trkpt lat="46.05537" lon="0.67783">
        <ele>142.25416564941</ele>
        <time>2020-06-19T13:15:42.626Z</time>
      </trkpt>
      <trkpt lat="46.05529" lon="0.67803">
        <ele>141.72598266602</ele>
        <time>2020-06-19T13:15:43.961Z</time>
      </trkpt>
      <trkpt lat="46.0552" lon="0.67836">
        <ele>140.35821533203</ele>
        <time>2020-06-19T13:15:45.300Z</time>
      </trkpt>
      <trkpt lat="46.05512" lon="0.67875">
        <ele>137.81521606445</ele>
        <time>2020-06-19T13:15:46.643Z</time>
      </trkpt>
      <trkpt lat="46.05504" lon="0.67904">
        <ele>136.15170288086</ele>
        <time>2020-06-19T13:15:47.990Z</time>
      </trkpt>
      <trkpt lat="46.05484" lon="0.67949">
        <ele>133.3366394043</ele>
        <time>2020-06-19T13:15:49.343Z</time>
      </trkpt>
      <trkpt lat="46.05436" lon="0.68038">
        <ele>131.54058837891</ele>
        <time>2020-06-19T13:15:50.708Z</time>
      </trkpt>
      <trkpt lat="46.05391" lon="0.6809">
        <ele>130.57556152344</ele>
        <time>2020-06-19T13:15:52.082Z</time>
      </trkpt>
      <trkpt lat="46.0539" lon="0.68091">
        <ele>130.57556152344</ele>
        <time>2020-06-19T13:15:53.457Z</time>
      </trkpt>
      <trkpt lat="46.05383" lon="0.68105">
        <ele>130.49157714844</ele>
        <time>2020-06-19T13:15:54.833Z</time>
      </trkpt>
      <trkpt lat="46.0538" lon="0.68121">
        <ele>130.33560180664</ele>
        <time>2020-06-19T13:15:56.211Z</time>
      </trkpt>
      <trkpt lat="46.05382" lon="0.68167">
        <ele>129.13766479492</ele>
        <time>2020-06-19T13:15:57.594Z</time>
      </trkpt>
      <trkpt lat="46.05383" lon="0.68182">
        <ele>128.78971862793</ele>
        <time>2020-06-19T13:15:58.979Z</time>
      </trkpt>
      <trkpt lat="46.05384" lon="0.68199">
        <ele>128.39378356934</ele>
        <time>2020-06-19T13:16:00.366Z</time>
      </trkpt>
      <trkpt lat="46.05366" lon="0.68198">
        <ele>128.20181274414</ele>
        <time>2020-06-19T13:16:01.756Z</time>
      </trkpt>
      <trkpt lat="46.0535" lon="0.68196">
        <ele>128.05783081055</ele>
        <time>2020-06-19T13:16:03.149Z</time>
      </trkpt>
      <trkpt lat="46.0534" lon="0.68192">
        <ele>128.03384399414</ele>
        <time>2020-06-19T13:16:04.543Z</time>
      </trkpt>
      <trkpt lat="46.05299" lon="0.68161">
        <ele>128.40887451172</ele>
        <time>2020-06-19T13:16:05.945Z</time>
      </trkpt>
      <trkpt lat="46.05274" lon="0.68143">
        <ele>128.84080505371</ele>
        <time>2020-06-19T13:16:07.351Z</time>
      </trkpt>
      <trkpt lat="46.05256" lon="0.68138">
        <ele>128.96078491211</ele>
        <time>2020-06-19T13:16:08.760Z</time>
      </trkpt>
      <trkpt lat="46.05114" lon="0.68125">
        <ele>129.40910339355</ele>
        <time>2020-06-19T13:16:10.192Z</time>
      </trkpt>
      <trkpt lat="46.05097" lon="0.6812">
        <ele>129.58908081055</ele>
        <time>2020-06-19T13:16:11.627Z</time>
      </trkpt>
      <trkpt lat="46.05083" lon="0.68113">
        <ele>129.84103393555</ele>
        <time>2020-06-19T13:16:13.064Z</time>
      </trkpt>
      <trkpt lat="46.05044" lon="0.68081">
        <ele>130.44512939453</ele>
        <time>2020-06-19T13:16:14.508Z</time>
      </trkpt>
      <trkpt lat="46.05019" lon="0.68064">
        <ele>130.15718078613</ele>
        <time>2020-06-19T13:16:15.957Z</time>
      </trkpt>
      <trkpt lat="46.04936" lon="0.68031">
        <ele>130.63508605957</ele>
        <time>2020-06-19T13:16:17.419Z</time>
      </trkpt>
      <trkpt lat="46.04924" lon="0.68024">
        <ele>131.16299438477</ele>
        <time>2020-06-19T13:16:18.883Z</time>
      </trkpt>
      <trkpt lat="46.04909" lon="0.68006">
        <ele>132.71073913574</ele>
        <time>2020-06-19T13:16:20.351Z</time>
      </trkpt>
      <trkpt lat="46.04894" lon="0.67982">
        <ele>134.8343963623</ele>
        <time>2020-06-19T13:16:21.822Z</time>
      </trkpt>
      <trkpt lat="46.04882" lon="0.67961">
        <ele>136.30513000488</ele>
        <time>2020-06-19T13:16:23.296Z</time>
      </trkpt>
      <trkpt lat="46.04876" lon="0.67954">
        <ele>136.70106506348</ele>
        <time>2020-06-19T13:16:24.771Z</time>
      </trkpt>
      <trkpt lat="46.04869" lon="0.67952">
        <ele>136.49710083008</ele>
        <time>2020-06-19T13:16:26.248Z</time>
      </trkpt>
      <trkpt lat="46.0486" lon="0.67951">
        <ele>136.06517028809</ele>
        <time>2020-06-19T13:16:27.726Z</time>
      </trkpt>
      <trkpt lat="46.04829" lon="0.67955">
        <ele>133.77354431152</ele>
        <time>2020-06-19T13:16:29.209Z</time>
      </trkpt>
      <trkpt lat="46.04816" lon="0.67953">
        <ele>133.20964050293</ele>
        <time>2020-06-19T13:16:30.694Z</time>
      </trkpt>
      <trkpt lat="46.04799" lon="0.67944">
        <ele>133.6499786377</ele>
        <time>2020-06-19T13:16:32.182Z</time>
      </trkpt>
      <trkpt lat="46.04755" lon="0.67913">
        <ele>136.46951293945</ele>
        <time>2020-06-19T13:16:33.678Z</time>
      </trkpt>
      <trkpt lat="46.04742" lon="0.67906">
        <ele>136.98533630371</ele>
        <time>2020-06-19T13:16:35.176Z</time>
      </trkpt>
      <trkpt lat="46.04734" lon="0.67899">
        <ele>137.6212310791</ele>
        <time>2020-06-19T13:16:36.676Z</time>
      </trkpt>
      <trkpt lat="46.04728" lon="0.6789">
        <ele>138.59306335449</ele>
        <time>2020-06-19T13:16:38.177Z</time>
      </trkpt>
      <trkpt lat="46.04717" lon="0.67875">
        <ele>140.05700683594</ele>
        <time>2020-06-19T13:16:39.680Z</time>
      </trkpt>
      <trkpt lat="46.04707" lon="0.67868">
        <ele>140.76487731934</ele>
        <time>2020-06-19T13:16:41.185Z</time>
      </trkpt>
      <trkpt lat="46.04697" lon="0.67865">
        <ele>141.13682556152</ele>
        <time>2020-06-19T13:16:42.692Z</time>
      </trkpt>
      <trkpt lat="46.04677" lon="0.6785">
        <ele>142.63656616211</ele>
        <time>2020-06-19T13:16:44.202Z</time>
      </trkpt>
      <trkpt lat="46.04656" lon="0.67828">
        <ele>144.73622131348</ele>
        <time>2020-06-19T13:16:45.717Z</time>
      </trkpt>
      <trkpt lat="46.04567" lon="0.67686">
        <ele>153.01745605469</ele>
        <time>2020-06-19T13:16:47.253Z</time>
      </trkpt>
      <trkpt lat="46.04554" lon="0.67655">
        <ele>154.87715148926</ele>
        <time>2020-06-19T13:16:48.793Z</time>
      </trkpt>
      <trkpt lat="46.04488" lon="0.67445">
        <ele>159.61772155762</ele>
        <time>2020-06-19T13:16:50.359Z</time>
      </trkpt>
      <trkpt lat="46.04471" lon="0.674">
        <ele>160.33247375488</ele>
        <time>2020-06-19T13:16:51.930Z</time>
      </trkpt>
      <trkpt lat="46.04463" lon="0.67386">
        <ele>160.54266357422</ele>
        <time>2020-06-19T13:16:53.503Z</time>
      </trkpt>
      <trkpt lat="46.04453" lon="0.67376">
        <ele>160.30270385742</ele>
        <time>2020-06-19T13:16:55.078Z</time>
      </trkpt>
      <trkpt lat="46.0444" lon="0.67367">
        <ele>159.94276428223</ele>
        <time>2020-06-19T13:16:56.656Z</time>
      </trkpt>
      <trkpt lat="46.04371" lon="0.67333">
        <ele>159.92491149902</ele>
        <time>2020-06-19T13:16:58.245Z</time>
      </trkpt>
      <trkpt lat="46.04183" lon="0.67241">
        <ele>169.20405578613</ele>
        <time>2020-06-19T13:16:59.866Z</time>
      </trkpt>
      <trkpt lat="46.04042" lon="0.67175">
        <ele>164.85182189941</ele>
        <time>2020-06-19T13:17:01.511Z</time>
      </trkpt>
      <trkpt lat="46.03925" lon="0.67121">
        <ele>160.17500305176</ele>
        <time>2020-06-19T13:17:03.175Z</time>
      </trkpt>
      <trkpt lat="46.03882" lon="0.67112">
        <ele>158.62725830078</ele>
        <time>2020-06-19T13:17:04.846Z</time>
      </trkpt>
      <trkpt lat="46.03829" lon="0.67106">
        <ele>157.11738586426</ele>
        <time>2020-06-19T13:17:06.526Z</time>
      </trkpt>
      <trkpt lat="46.03807" lon="0.67108">
        <ele>156.66166687012</ele>
        <time>2020-06-19T13:17:08.209Z</time>
      </trkpt>
      <trkpt lat="46.03782" lon="0.67113">
        <ele>156.72164916992</ele>
        <time>2020-06-19T13:17:09.896Z</time>
      </trkpt>
      <trkpt lat="46.03735" lon="0.67123">
        <ele>156.84162902832</ele>
        <time>2020-06-19T13:17:11.591Z</time>
      </trkpt>
      <trkpt lat="46.03719" lon="0.67122">
        <ele>157.22924804688</ele>
        <time>2020-06-19T13:17:13.289Z</time>
      </trkpt>
      <trkpt lat="46.03705" lon="0.67115">
        <ele>157.98512268066</ele>
        <time>2020-06-19T13:17:14.989Z</time>
      </trkpt>
      <trkpt lat="46.0369" lon="0.671">
        <ele>158.70500183105</ele>
        <time>2020-06-19T13:17:16.692Z</time>
      </trkpt>
      <trkpt lat="46.03666" lon="0.67067">
        <ele>159.74882507324</ele>
        <time>2020-06-19T13:17:18.400Z</time>
      </trkpt>
      <trkpt lat="46.03648" lon="0.67046">
        <ele>160.6589050293</ele>
        <time>2020-06-19T13:17:20.112Z</time>
      </trkpt>
      <trkpt lat="46.03632" lon="0.67033">
        <ele>161.74249267578</ele>
        <time>2020-06-19T13:17:21.827Z</time>
      </trkpt>
      <trkpt lat="46.03623" lon="0.67027">
        <ele>162.39038085938</ele>
        <time>2020-06-19T13:17:23.543Z</time>
      </trkpt>
      <trkpt lat="46.03606" lon="0.67021">
        <ele>163.56063842773</ele>
        <time>2020-06-19T13:17:25.262Z</time>
      </trkpt>
      <trkpt lat="46.03517" lon="0.67011">
        <ele>167.51055908203</ele>
        <time>2020-06-19T13:17:26.996Z</time>
      </trkpt>
      <trkpt lat="46.03323" lon="0.66996">
        <ele>161.84434509277</ele>
        <time>2020-06-19T13:17:28.761Z</time>
      </trkpt>
      <trkpt lat="46.03301" lon="0.66998">
        <ele>160.90490722656</ele>
        <time>2020-06-19T13:17:30.529Z</time>
      </trkpt>
      <trkpt lat="46.03283" lon="0.67003">
        <ele>160.68894958496</ele>
        <time>2020-06-19T13:17:32.300Z</time>
      </trkpt>
      <trkpt lat="46.03235" lon="0.67017">
        <ele>159.19944763184</ele>
        <time>2020-06-19T13:17:34.079Z</time>
      </trkpt>
      <trkpt lat="46.03195" lon="0.67028">
        <ele>157.56442260742</ele>
        <time>2020-06-19T13:17:35.864Z</time>
      </trkpt>
      <trkpt lat="46.03177" lon="0.6703">
        <ele>157.10850524902</ele>
        <time>2020-06-19T13:17:37.652Z</time>
      </trkpt>
      <trkpt lat="46.03112" lon="0.67034">
        <ele>154.86502075195</ele>
        <time>2020-06-19T13:17:39.451Z</time>
      </trkpt>
      <trkpt lat="46.03068" lon="0.67036">
        <ele>152.15347290039</ele>
        <time>2020-06-19T13:17:41.257Z</time>
      </trkpt>
      <trkpt lat="46.03021" lon="0.6704">
        <ele>151.16226196289</ele>
        <time>2020-06-19T13:17:43.070Z</time>
      </trkpt>
      <trkpt lat="46.02998" lon="0.67048">
        <ele>150.50238037109</ele>
        <time>2020-06-19T13:17:44.887Z</time>
      </trkpt>
      <trkpt lat="46.02982" lon="0.67058">
        <ele>150.01579284668</ele>
        <time>2020-06-19T13:17:46.707Z</time>
      </trkpt>
      <trkpt lat="46.02929" lon="0.67089">
        <ele>149.69093322754</ele>
        <time>2020-06-19T13:17:48.536Z</time>
      </trkpt>
      <trkpt lat="46.02905" lon="0.67096">
        <ele>149.08294677734</ele>
        <time>2020-06-19T13:17:50.369Z</time>
      </trkpt>
      <trkpt lat="46.02887" lon="0.67099">
        <ele>148.66075134277</ele>
        <time>2020-06-19T13:17:52.205Z</time>
      </trkpt>
      <trkpt lat="46.02874" lon="0.67099">
        <ele>148.34880065918</ele>
        <time>2020-06-19T13:17:54.043Z</time>
      </trkpt>
      <trkpt lat="46.02858" lon="0.67095">
        <ele>148.15682983398</ele>
        <time>2020-06-19T13:17:55.884Z</time>
      </trkpt>
      <trkpt lat="46.02823" lon="0.67082">
        <ele>147.7610168457</ele>
        <time>2020-06-19T13:17:57.730Z</time>
      </trkpt>
      <trkpt lat="46.02727" lon="0.67047">
        <ele>147.24676513672</ele>
        <time>2020-06-19T13:17:59.592Z</time>
      </trkpt>
      <trkpt lat="46.02674" lon="0.67034">
        <ele>147.67855834961</ele>
        <time>2020-06-19T13:18:01.463Z</time>
      </trkpt>
      <trkpt lat="46.02614" lon="0.67026">
        <ele>147.62879943848</ele>
        <time>2020-06-19T13:18:03.343Z</time>
      </trkpt>
      <trkpt lat="46.02548" lon="0.67026">
        <ele>146.57777404785</ele>
        <time>2020-06-19T13:18:05.234Z</time>
      </trkpt>
      <trkpt lat="46.0248" lon="0.67029">
        <ele>144.68145751953</ele>
        <time>2020-06-19T13:18:07.136Z</time>
      </trkpt>
      <trkpt lat="46.02435" lon="0.6703">
        <ele>144.06300354004</ele>
        <time>2020-06-19T13:18:09.045Z</time>
      </trkpt>
      <trkpt lat="46.02417" lon="0.67028">
        <ele>143.89503479004</ele>
        <time>2020-06-19T13:18:10.957Z</time>
      </trkpt>
      <trkpt lat="46.02398" lon="0.67022">
        <ele>143.81105041504</ele>
        <time>2020-06-19T13:18:12.872Z</time>
      </trkpt>
      <trkpt lat="46.02354" lon="0.67003">
        <ele>144.19624328613</ele>
        <time>2020-06-19T13:18:14.794Z</time>
      </trkpt>
      <trkpt lat="46.02212" lon="0.66938">
        <ele>147.51197814941</ele>
        <time>2020-06-19T13:18:16.740Z</time>
      </trkpt>
      <trkpt lat="46.02199" lon="0.66934">
        <ele>147.70394897461</ele>
        <time>2020-06-19T13:18:18.688Z</time>
      </trkpt>
      <trkpt lat="46.02088" lon="0.66916">
        <ele>149.57450866699</ele>
        <time>2020-06-19T13:18:20.654Z</time>
      </trkpt>
      <trkpt lat="46.02063" lon="0.66911">
        <ele>150.05442810059</ele>
        <time>2020-06-19T13:18:22.624Z</time>
      </trkpt>
      <trkpt lat="46.02072" lon="0.66914">
        <ele>149.83847045898</ele>
        <time>2020-06-19T13:18:24.596Z</time>
      </trkpt>
      <trkpt lat="46.02058" lon="0.66941">
        <ele>149.00880432129</ele>
        <time>2020-06-19T13:18:26.572Z</time>
      </trkpt>
      <trkpt lat="46.0204" lon="0.6697">
        <ele>147.30848693848</ele>
        <time>2020-06-19T13:18:28.552Z</time>
      </trkpt>
      <trkpt lat="46.02036" lon="0.66982">
        <ele>146.73257446289</ele>
        <time>2020-06-19T13:18:30.533Z</time>
      </trkpt>
      <trkpt lat="46.02029" lon="0.66989">
        <ele>146.22866821289</ele>
        <time>2020-06-19T13:18:32.516Z</time>
      </trkpt>
      <trkpt lat="46.02019" lon="0.67005">
        <ele>145.29281616211</ele>
        <time>2020-06-19T13:18:34.501Z</time>
      </trkpt>
      <trkpt lat="46.02012" lon="0.67021">
        <ele>144.64331054688</ele>
        <time>2020-06-19T13:18:36.488Z</time>
      </trkpt>
      <trkpt lat="46.01989" lon="0.67073">
        <ele>142.4383392334</ele>
        <time>2020-06-19T13:18:38.482Z</time>
      </trkpt>
      <trkpt lat="46.0198" lon="0.67087">
        <ele>141.82643127441</ele>
        <time>2020-06-19T13:18:40.478Z</time>
      </trkpt>
      <trkpt lat="46.01968" lon="0.67094">
        <ele>141.3420715332</ele>
        <time>2020-06-19T13:18:42.476Z</time>
      </trkpt>
      <trkpt lat="46.01947" lon="0.67104">
        <ele>140.47822570801</ele>
        <time>2020-06-19T13:18:44.478Z</time>
      </trkpt>
      <trkpt lat="46.01927" lon="0.67113">
        <ele>139.37236022949</ele>
        <time>2020-06-19T13:18:46.483Z</time>
      </trkpt>
      <trkpt lat="46.01918" lon="0.6712">
        <ele>138.7124786377</ele>
        <time>2020-06-19T13:18:48.490Z</time>
      </trkpt>
      <trkpt lat="46.01899" lon="0.67144">
        <ele>136.87678527832</ele>
        <time>2020-06-19T13:18:50.501Z</time>
      </trkpt>
      <trkpt lat="46.01885" lon="0.67176">
        <ele>135.00563049316</ele>
        <time>2020-06-19T13:18:52.516Z</time>
      </trkpt>
      <trkpt lat="46.0188" lon="0.67184">
        <ele>134.56170654297</ele>
        <time>2020-06-19T13:18:54.532Z</time>
      </trkpt>
      <trkpt lat="46.01873" lon="0.67189">
        <ele>134.23776245117</ele>
        <time>2020-06-19T13:18:56.550Z</time>
      </trkpt>
      <trkpt lat="46.01869" lon="0.67191">
        <ele>134.09378051758</ele>
        <time>2020-06-19T13:18:58.568Z</time>
      </trkpt>
      <trkpt lat="46.01858" lon="0.67192">
        <ele>133.75840759277</ele>
        <time>2020-06-19T13:19:00.588Z</time>
      </trkpt>
      <trkpt lat="46.01841" lon="0.67187">
        <ele>133.50645446777</ele>
        <time>2020-06-19T13:19:02.611Z</time>
      </trkpt>
      <trkpt lat="46.01806" lon="0.67162">
        <ele>134.11056518555</ele>
        <time>2020-06-19T13:19:04.640Z</time>
      </trkpt>
      <trkpt lat="46.0179" lon="0.67145">
        <ele>135.14239501953</ele>
        <time>2020-06-19T13:19:06.672Z</time>
      </trkpt>
      <trkpt lat="46.01781" lon="0.67132">
        <ele>135.81910705566</ele>
        <time>2020-06-19T13:19:08.706Z</time>
      </trkpt>
      <trkpt lat="46.01743" lon="0.6708">
        <ele>137.23486328125</ele>
        <time>2020-06-19T13:19:10.749Z</time>
      </trkpt>
      <trkpt lat="46.01734" lon="0.67077">
        <ele>137.23486328125</ele>
        <time>2020-06-19T13:19:12.793Z</time>
      </trkpt>
      <trkpt lat="46.01685" lon="0.67049">
        <ele>138.23107910156</ele>
        <time>2020-06-19T13:19:14.846Z</time>
      </trkpt>
      <trkpt lat="46.01664" lon="0.67031">
        <ele>139.31089782715</ele>
        <time>2020-06-19T13:19:16.903Z</time>
      </trkpt>
      <trkpt lat="46.01661" lon="0.67027">
        <ele>139.55087280273</ele>
        <time>2020-06-19T13:19:18.960Z</time>
      </trkpt>
      <trkpt lat="46.0166" lon="0.67018">
        <ele>140.09077453613</ele>
        <time>2020-06-19T13:19:21.018Z</time>
      </trkpt>
      <trkpt lat="46.01653" lon="0.67017">
        <ele>140.15077209473</ele>
        <time>2020-06-19T13:19:23.077Z</time>
      </trkpt>
      <trkpt lat="46.01605" lon="0.66996">
        <ele>139.19207763672</ele>
        <time>2020-06-19T13:19:25.144Z</time>
      </trkpt>
      <trkpt lat="46.01549" lon="0.6698">
        <ele>137.27548217773</ele>
        <time>2020-06-19T13:19:27.221Z</time>
      </trkpt>
      <trkpt lat="46.01533" lon="0.66975">
        <ele>136.87954711914</ele>
        <time>2020-06-19T13:19:29.300Z</time>
      </trkpt>
      <trkpt lat="46.01534" lon="0.66966">
        <ele>137.23948669434</ele>
        <time>2020-06-19T13:19:31.380Z</time>
      </trkpt>
      <trkpt lat="46.01533" lon="0.66958">
        <ele>137.49145507812</ele>
        <time>2020-06-19T13:19:33.461Z</time>
      </trkpt>
      <trkpt lat="46.01526" lon="0.66933">
        <ele>138.13934326172</ele>
        <time>2020-06-19T13:19:35.545Z</time>
      </trkpt>
      <trkpt lat="46.0152" lon="0.66919">
        <ele>138.42729187012</ele>
        <time>2020-06-19T13:19:37.631Z</time>
      </trkpt>
      <trkpt lat="46.01508" lon="0.669">
        <ele>138.67926025391</ele>
        <time>2020-06-19T13:19:39.720Z</time>
      </trkpt>
      <trkpt lat="46.01498" lon="0.66891">
        <ele>138.64326477051</ele>
        <time>2020-06-19T13:19:41.811Z</time>
      </trkpt>
      <trkpt lat="46.01491" lon="0.66887">
        <ele>138.53527832031</ele>
        <time>2020-06-19T13:19:43.903Z</time>
      </trkpt>
      <trkpt lat="46.0146" lon="0.66885">
        <ele>137.37748718262</ele>
        <time>2020-06-19T13:19:46.000Z</time>
      </trkpt>
      <trkpt lat="46.01427" lon="0.6688">
        <ele>136.27368164062</ele>
        <time>2020-06-19T13:19:48.102Z</time>
      </trkpt>
      <trkpt lat="46.01413" lon="0.66868">
        <ele>136.75360107422</ele>
        <time>2020-06-19T13:19:50.207Z</time>
      </trkpt>
      <trkpt lat="46.01406" lon="0.6686">
        <ele>137.18551635742</ele>
        <time>2020-06-19T13:19:52.313Z</time>
      </trkpt>
      <trkpt lat="46.0134" lon="0.66793">
        <ele>139.47270202637</ele>
        <time>2020-06-19T13:19:54.432Z</time>
      </trkpt>
      <trkpt lat="46.01334" lon="0.66793">
        <ele>139.11276245117</ele>
        <time>2020-06-19T13:19:56.552Z</time>
      </trkpt>
      <trkpt lat="46.0133" lon="0.66799">
        <ele>138.51286315918</ele>
        <time>2020-06-19T13:19:58.673Z</time>
      </trkpt>
      <trkpt lat="46.01372" lon="0.6685">
        <ele>136.2744140625</ele>
        <time>2020-06-19T13:20:00.803Z</time>
      </trkpt>
      <trkpt lat="46.01399" lon="0.66884">
        <ele>134.54595947266</ele>
        <time>2020-06-19T13:20:02.939Z</time>
      </trkpt>
      <trkpt lat="46.01392" lon="0.66896">
        <ele>133.76602172852</ele>
        <time>2020-06-19T13:20:05.076Z</time>
      </trkpt>
      <trkpt lat="46.01368" lon="0.66936">
        <ele>132.51675415039</ele>
        <time>2020-06-19T13:20:07.219Z</time>
      </trkpt>
      <trkpt lat="46.01328" lon="0.66999">
        <ele>133.37226867676</ele>
        <time>2020-06-19T13:20:09.372Z</time>
      </trkpt>
      <trkpt lat="46.0129" lon="0.67054">
        <ele>139.83961486816</ele>
        <time>2020-06-19T13:20:11.533Z</time>
      </trkpt>
      <trkpt lat="46.01286" lon="0.67058">
        <ele>140.41551208496</ele>
        <time>2020-06-19T13:20:13.695Z</time>
      </trkpt>
      <trkpt lat="46.0128" lon="0.67066">
        <ele>141.37535095215</ele>
        <time>2020-06-19T13:20:15.858Z</time>
      </trkpt>
      <trkpt lat="46.01276" lon="0.67067">
        <ele>141.80728149414</ele>
        <time>2020-06-19T13:20:18.022Z</time>
      </trkpt>
      <trkpt lat="46.01268" lon="0.67061">
        <ele>142.28720092773</ele>
        <time>2020-06-19T13:20:20.188Z</time>
      </trkpt>
      <trkpt lat="46.01215" lon="0.67016">
        <ele>144.28089904785</ele>
        <time>2020-06-19T13:20:22.363Z</time>
      </trkpt>
      <trkpt lat="46.01207" lon="0.67013">
        <ele>144.48487854004</ele>
        <time>2020-06-19T13:20:24.540Z</time>
      </trkpt>
      <trkpt lat="46.01174" lon="0.66992">
        <ele>144.80882263184</ele>
        <time>2020-06-19T13:20:26.722Z</time>
      </trkpt>
      <trkpt lat="46.01172" lon="0.66991">
        <ele>144.84481811523</ele>
        <time>2020-06-19T13:20:28.905Z</time>
      </trkpt>
      <trkpt lat="46.01172" lon="0.6699">
        <ele>144.78482055664</ele>
        <time>2020-06-19T13:20:31.088Z</time>
      </trkpt>
      <trkpt lat="46.01106" lon="0.66958">
        <ele>144.60249328613</ele>
        <time>2020-06-19T13:20:33.282Z</time>
      </trkpt>
      <trkpt lat="46.0108" lon="0.66947">
        <ele>144.12257385254</ele>
        <time>2020-06-19T13:20:35.480Z</time>
      </trkpt>
      <trkpt lat="46.01013" lon="0.66942">
        <ele>144.56649780273</ele>
        <time>2020-06-19T13:20:37.689Z</time>
      </trkpt>
      <trkpt lat="46.00993" lon="0.66937">
        <ele>144.44651794434</ele>
        <time>2020-06-19T13:20:39.901Z</time>
      </trkpt>
      <trkpt lat="46.00985" lon="0.66931">
        <ele>144.11056518555</ele>
        <time>2020-06-19T13:20:42.115Z</time>
      </trkpt>
      <trkpt lat="46.00977" lon="0.66918">
        <ele>143.27070617676</ele>
        <time>2020-06-19T13:20:44.331Z</time>
      </trkpt>
      <trkpt lat="46.0096" lon="0.66892">
        <ele>141.78538513184</ele>
        <time>2020-06-19T13:20:46.551Z</time>
      </trkpt>
      <trkpt lat="46.00941" lon="0.66868">
        <ele>140.73146057129</ele>
        <time>2020-06-19T13:20:48.775Z</time>
      </trkpt>
      <trkpt lat="46.00929" lon="0.66856">
        <ele>140.2995300293</ele>
        <time>2020-06-19T13:20:51.001Z</time>
      </trkpt>
      <trkpt lat="46.00918" lon="0.66849">
        <ele>140.1435546875</ele>
        <time>2020-06-19T13:20:53.229Z</time>
      </trkpt>
      <trkpt lat="46.00817" lon="0.66823">
        <ele>139.63223266602</ele>
        <time>2020-06-19T13:20:55.474Z</time>
      </trkpt>
      <trkpt lat="46.0079" lon="0.66813">
        <ele>139.64424133301</ele>
        <time>2020-06-19T13:20:57.723Z</time>
      </trkpt>
      <trkpt lat="46.00755" lon="0.66794">
        <ele>139.29174804688</ele>
        <time>2020-06-19T13:20:59.978Z</time>
      </trkpt>
      <trkpt lat="46.00727" lon="0.66778">
        <ele>139.14776611328</ele>
        <time>2020-06-19T13:21:02.238Z</time>
      </trkpt>
      <trkpt lat="46.00711" lon="0.66766">
        <ele>139.87925720215</ele>
        <time>2020-06-19T13:21:04.501Z</time>
      </trkpt>
      <trkpt lat="46.00699" lon="0.66754">
        <ele>140.31118774414</ele>
        <time>2020-06-19T13:21:06.766Z</time>
      </trkpt>
      <trkpt lat="46.00683" lon="0.66734">
        <ele>140.59913635254</ele>
        <time>2020-06-19T13:21:09.034Z</time>
      </trkpt>
      <trkpt lat="46.00645" lon="0.66665">
        <ele>139.08183288574</ele>
        <time>2020-06-19T13:21:11.312Z</time>
      </trkpt>
      <trkpt lat="46.0061" lon="0.66598">
        <ele>137.46096801758</ele>
        <time>2020-06-19T13:21:13.600Z</time>
      </trkpt>
      <trkpt lat="46.00589" lon="0.66573">
        <ele>137.77291870117</ele>
        <time>2020-06-19T13:21:15.892Z</time>
      </trkpt>
      <trkpt lat="46.00572" lon="0.66558">
        <ele>138.27684020996</ele>
        <time>2020-06-19T13:21:18.187Z</time>
      </trkpt>
      <trkpt lat="46.00517" lon="0.66519">
        <ele>139.49751281738</ele>
        <time>2020-06-19T13:21:20.492Z</time>
      </trkpt>
      <trkpt lat="46.00493" lon="0.66506">
        <ele>139.78547668457</ele>
        <time>2020-06-19T13:21:22.801Z</time>
      </trkpt>
      <trkpt lat="46.00479" lon="0.66502">
        <ele>139.95344543457</ele>
        <time>2020-06-19T13:21:25.112Z</time>
      </trkpt>
      <trkpt lat="46.00463" lon="0.66505">
        <ele>141.01788330078</ele>
        <time>2020-06-19T13:21:27.426Z</time>
      </trkpt>
      <trkpt lat="46.00426" lon="0.66514">
        <ele>144.24955749512</ele>
        <time>2020-06-19T13:21:29.746Z</time>
      </trkpt>
      <trkpt lat="46.00412" lon="0.66511">
        <ele>145.5573425293</ele>
        <time>2020-06-19T13:21:32.068Z</time>
      </trkpt>
      <trkpt lat="46.00396" lon="0.66502">
        <ele>146.98509216309</ele>
        <time>2020-06-19T13:21:34.393Z</time>
      </trkpt>
      <trkpt lat="46.00334" lon="0.66441">
        <ele>152.93083190918</ele>
        <time>2020-06-19T13:21:36.730Z</time>
      </trkpt>
      <trkpt lat="46.00299" lon="0.66406">
        <ele>154.69123840332</ele>
        <time>2020-06-19T13:21:39.074Z</time>
      </trkpt>
      <trkpt lat="46.00255" lon="0.66366">
        <ele>156.80555725098</ele>
        <time>2020-06-19T13:21:41.426Z</time>
      </trkpt>
      <trkpt lat="46.00221" lon="0.66338">
        <ele>158.98638916016</ele>
        <time>2020-06-19T13:21:43.784Z</time>
      </trkpt>
      <trkpt lat="46.00123" lon="0.66275">
        <ele>162.23558044434</ele>
        <time>2020-06-19T13:21:46.160Z</time>
      </trkpt>
      <trkpt lat="46.00098" lon="0.66263">
        <ele>162.61943054199</ele>
        <time>2020-06-19T13:21:48.540Z</time>
      </trkpt>
      <trkpt lat="46.00073" lon="0.66257">
        <ele>163.00335693359</ele>
        <time>2020-06-19T13:21:50.924Z</time>
      </trkpt>
      <trkpt lat="46.00066" lon="0.66255">
        <ele>163.09934997559</ele>
        <time>2020-06-19T13:21:53.309Z</time>
      </trkpt>
      <trkpt lat="46.00055" lon="0.66245">
        <ele>163.0845489502</ele>
        <time>2020-06-19T13:21:55.696Z</time>
      </trkpt>
      <trkpt lat="46.00049" lon="0.66239">
        <ele>163.15653991699</ele>
        <time>2020-06-19T13:21:58.084Z</time>
      </trkpt>
      <trkpt lat="46.00033" lon="0.66197">
        <ele>162.94969177246</ele>
        <time>2020-06-19T13:22:00.478Z</time>
      </trkpt>
      <trkpt lat="46.0001" lon="0.66152">
        <ele>162.82984924316</ele>
        <time>2020-06-19T13:22:02.878Z</time>
      </trkpt>
      <trkpt lat="45.99995" lon="0.66119">
        <ele>162.30154418945</ele>
        <time>2020-06-19T13:22:05.282Z</time>
      </trkpt>
      <trkpt lat="45.9999" lon="0.66109">
        <ele>162.12156677246</ele>
        <time>2020-06-19T13:22:07.688Z</time>
      </trkpt>
      <trkpt lat="45.99981" lon="0.66099">
        <ele>162.27754211426</ele>
        <time>2020-06-19T13:22:10.095Z</time>
      </trkpt>
      <trkpt lat="45.99952" lon="0.6607">
        <ele>162.1442565918</ele>
        <time>2020-06-19T13:22:12.508Z</time>
      </trkpt>
      <trkpt lat="45.99933" lon="0.66057">
        <ele>162.27624511719</ele>
        <time>2020-06-19T13:22:14.924Z</time>
      </trkpt>
      <trkpt lat="45.99916" lon="0.66048">
        <ele>162.6646270752</ele>
        <time>2020-06-19T13:22:17.343Z</time>
      </trkpt>
      <trkpt lat="45.99903" lon="0.66045">
        <ele>163.18054199219</ele>
        <time>2020-06-19T13:22:19.764Z</time>
      </trkpt>
      <trkpt lat="45.99887" lon="0.66036">
        <ele>163.11813354492</ele>
        <time>2020-06-19T13:22:22.188Z</time>
      </trkpt>
      <trkpt lat="45.99869" lon="0.66022">
        <ele>161.53439331055</ele>
        <time>2020-06-19T13:22:24.615Z</time>
      </trkpt>
      <trkpt lat="45.99854" lon="0.66017">
        <ele>160.45457458496</ele>
        <time>2020-06-19T13:22:27.045Z</time>
      </trkpt>
      <trkpt lat="45.99844" lon="0.66016">
        <ele>159.81867980957</ele>
        <time>2020-06-19T13:22:29.477Z</time>
      </trkpt>
      <trkpt lat="45.99835" lon="0.66019">
        <ele>159.38674926758</ele>
        <time>2020-06-19T13:22:31.910Z</time>
      </trkpt>
      <trkpt lat="45.99829" lon="0.66024">
        <ele>159.20677185059</ele>
        <time>2020-06-19T13:22:34.344Z</time>
      </trkpt>
      <trkpt lat="45.99807" lon="0.66052">
        <ele>158.96745300293</ele>
        <time>2020-06-19T13:22:36.783Z</time>
      </trkpt>
      <trkpt lat="45.998" lon="0.66057">
        <ele>159.15875244141</ele>
        <time>2020-06-19T13:22:39.223Z</time>
      </trkpt>
      <trkpt lat="45.99793" lon="0.66058">
        <ele>159.13475036621</ele>
        <time>2020-06-19T13:22:41.664Z</time>
      </trkpt>
      <trkpt lat="45.99784" lon="0.66057">
        <ele>158.96678161621</ele>
        <time>2020-06-19T13:22:44.107Z</time>
      </trkpt>
      <trkpt lat="45.99771" lon="0.66051">
        <ele>158.51153564453</ele>
        <time>2020-06-19T13:22:46.552Z</time>
      </trkpt>
      <trkpt lat="45.99759" lon="0.66044">
        <ele>158.19958496094</ele>
        <time>2020-06-19T13:22:48.999Z</time>
      </trkpt>
      <trkpt lat="45.9974" lon="0.6603">
        <ele>157.63568115234</ele>
        <time>2020-06-19T13:22:51.449Z</time>
      </trkpt>
      <trkpt lat="45.99726" lon="0.66017">
        <ele>157.15576171875</ele>
        <time>2020-06-19T13:22:53.902Z</time>
      </trkpt>
      <trkpt lat="45.99709" lon="0.66">
        <ele>157.69528198242</ele>
        <time>2020-06-19T13:22:56.358Z</time>
      </trkpt>
      <trkpt lat="45.99712" lon="0.65973">
        <ele>156.86741638184</ele>
        <time>2020-06-19T13:22:58.817Z</time>
      </trkpt>
      <trkpt lat="45.99713" lon="0.65946">
        <ele>156.72737121582</ele>
        <time>2020-06-19T13:23:01.279Z</time>
      </trkpt>
      <trkpt lat="45.9971" lon="0.65932">
        <ele>156.81135559082</ele>
        <time>2020-06-19T13:23:03.743Z</time>
      </trkpt>
      <trkpt lat="45.99705" lon="0.65924">
        <ele>157.13529968262</ele>
        <time>2020-06-19T13:23:06.208Z</time>
      </trkpt>
      <trkpt lat="45.99626" lon="0.65822">
        <ele>163.29734802246</ele>
        <time>2020-06-19T13:23:08.690Z</time>
      </trkpt>
      <trkpt lat="45.9955" lon="0.65717">
        <ele>162.8897857666</ele>
        <time>2020-06-19T13:23:11.189Z</time>
      </trkpt>
      <trkpt lat="45.99539" lon="0.65705">
        <ele>162.3138885498</ele>
        <time>2020-06-19T13:23:13.690Z</time>
      </trkpt>
      <trkpt lat="45.99521" lon="0.65691">
        <ele>161.64199829102</ele>
        <time>2020-06-19T13:23:16.195Z</time>
      </trkpt>
      <trkpt lat="45.99482" lon="0.65674">
        <ele>160.82612609863</ele>
        <time>2020-06-19T13:23:18.706Z</time>
      </trkpt>
      <trkpt lat="45.99447" lon="0.65641">
        <ele>160.58390808105</ele>
        <time>2020-06-19T13:23:21.224Z</time>
      </trkpt>
      <trkpt lat="45.99425" lon="0.65615">
        <ele>160.39195251465</ele>
        <time>2020-06-19T13:23:23.746Z</time>
      </trkpt>
      <trkpt lat="45.99413" lon="0.65595">
        <ele>160.00801086426</ele>
        <time>2020-06-19T13:23:26.271Z</time>
      </trkpt>
      <trkpt lat="45.99379" lon="0.65534">
        <ele>158.64028930664</ele>
        <time>2020-06-19T13:23:28.805Z</time>
      </trkpt>
      <trkpt lat="45.99316" lon="0.65414">
        <ele>156.54675292969</ele>
        <time>2020-06-19T13:23:31.356Z</time>
      </trkpt>
      <trkpt lat="45.993" lon="0.65386">
        <ele>156.4987487793</ele>
        <time>2020-06-19T13:23:33.911Z</time>
      </trkpt>
      <trkpt lat="45.99285" lon="0.6537">
        <ele>157.01356506348</ele>
        <time>2020-06-19T13:23:36.469Z</time>
      </trkpt>
      <trkpt lat="45.99247" lon="0.65346">
        <ele>158.71726989746</ele>
        <time>2020-06-19T13:23:39.034Z</time>
      </trkpt>
      <trkpt lat="45.99235" lon="0.65343">
        <ele>159.36517333984</ele>
        <time>2020-06-19T13:23:41.600Z</time>
      </trkpt>
      <trkpt lat="45.99193" lon="0.65338">
        <ele>160.9990234375</ele>
        <time>2020-06-19T13:23:44.173Z</time>
      </trkpt>
      <trkpt lat="45.99134" lon="0.65316">
        <ele>162.73574829102</ele>
        <time>2020-06-19T13:23:46.756Z</time>
      </trkpt>
      <trkpt lat="45.99063" lon="0.6529">
        <ele>162.18911743164</ele>
        <time>2020-06-19T13:23:49.351Z</time>
      </trkpt>
      <trkpt lat="45.9905" lon="0.65284">
        <ele>161.98515319824</ele>
        <time>2020-06-19T13:23:51.948Z</time>
      </trkpt>
      <trkpt lat="45.99023" lon="0.65264">
        <ele>161.10929870605</ele>
        <time>2020-06-19T13:23:54.550Z</time>
      </trkpt>
      <trkpt lat="45.99008" lon="0.65254">
        <ele>160.66949462891</ele>
        <time>2020-06-19T13:23:57.154Z</time>
      </trkpt>
      <trkpt lat="45.98993" lon="0.65247">
        <ele>160.33354187012</ele>
        <time>2020-06-19T13:23:59.761Z</time>
      </trkpt>
      <trkpt lat="45.98939" lon="0.65244">
        <ele>158.89848327637</ele>
        <time>2020-06-19T13:24:02.377Z</time>
      </trkpt>
      <trkpt lat="45.98905" lon="0.65245">
        <ele>157.87036132812</ele>
        <time>2020-06-19T13:24:04.998Z</time>
      </trkpt>
      <trkpt lat="45.98881" lon="0.65248">
        <ele>157.97941589355</ele>
        <time>2020-06-19T13:24:07.623Z</time>
      </trkpt>
      <trkpt lat="45.9885" lon="0.65262">
        <ele>159.51698303223</ele>
        <time>2020-06-19T13:24:10.253Z</time>
      </trkpt>
      <trkpt lat="45.98845" lon="0.65262">
        <ele>159.39700317383</ele>
        <time>2020-06-19T13:24:12.884Z</time>
      </trkpt>
      <trkpt lat="45.98836" lon="0.65259">
        <ele>159.14505004883</ele>
        <time>2020-06-19T13:24:15.516Z</time>
      </trkpt>
      <trkpt lat="45.98832" lon="0.65255">
        <ele>159.00106811523</ele>
        <time>2020-06-19T13:24:18.149Z</time>
      </trkpt>
      <trkpt lat="45.98823" lon="0.6524">
        <ele>158.60513305664</ele>
        <time>2020-06-19T13:24:20.784Z</time>
      </trkpt>
      <trkpt lat="45.98807" lon="0.65208">
        <ele>157.57466125488</ele>
        <time>2020-06-19T13:24:23.424Z</time>
      </trkpt>
      <trkpt lat="45.98797" lon="0.65193">
        <ele>157.81462097168</ele>
        <time>2020-06-19T13:24:26.066Z</time>
      </trkpt>
      <trkpt lat="45.98771" lon="0.65171">
        <ele>159.25437927246</ele>
        <time>2020-06-19T13:24:28.713Z</time>
      </trkpt>
      <trkpt lat="45.98752" lon="0.65157">
        <ele>160.40618896484</ele>
        <time>2020-06-19T13:24:31.363Z</time>
      </trkpt>
      <trkpt lat="45.98741" lon="0.65147">
        <ele>160.98208618164</ele>
        <time>2020-06-19T13:24:34.015Z</time>
      </trkpt>
      <trkpt lat="45.98729" lon="0.65131">
        <ele>161.13250732422</ele>
        <time>2020-06-19T13:24:36.670Z</time>
      </trkpt>
      <trkpt lat="45.98698" lon="0.65076">
        <ele>157.86323547363</ele>
        <time>2020-06-19T13:24:39.333Z</time>
      </trkpt>
      <trkpt lat="45.98682" lon="0.65055">
        <ele>156.80741882324</ele>
        <time>2020-06-19T13:24:41.999Z</time>
      </trkpt>
      <trkpt lat="45.98659" lon="0.65035">
        <ele>156.68788146973</ele>
        <time>2020-06-19T13:24:44.670Z</time>
      </trkpt>
      <trkpt lat="45.98641" lon="0.65026">
        <ele>157.11404418945</ele>
        <time>2020-06-19T13:24:47.344Z</time>
      </trkpt>
      <trkpt lat="45.9863" lon="0.65027">
        <ele>157.71394348145</ele>
        <time>2020-06-19T13:24:50.019Z</time>
      </trkpt>
      <trkpt lat="45.98609" lon="0.65032">
        <ele>158.79467773438</ele>
        <time>2020-06-19T13:24:52.698Z</time>
      </trkpt>
      <trkpt lat="45.986" lon="0.65041">
        <ele>159.44256591797</ele>
        <time>2020-06-19T13:24:55.379Z</time>
      </trkpt>
      <trkpt lat="45.98591" lon="0.65071">
        <ele>161.32002258301</ele>
        <time>2020-06-19T13:24:58.063Z</time>
      </trkpt>
      <trkpt lat="45.98582" lon="0.65075">
        <ele>161.7759552002</ele>
        <time>2020-06-19T13:25:00.749Z</time>
      </trkpt>
      <trkpt lat="45.98562" lon="0.65079">
        <ele>161.95317077637</ele>
        <time>2020-06-19T13:25:03.438Z</time>
      </trkpt>
      <trkpt lat="45.98549" lon="0.65086">
        <ele>162.31471252441</ele>
        <time>2020-06-19T13:25:06.129Z</time>
      </trkpt>
      <trkpt lat="45.98531" lon="0.651">
        <ele>163.0345916748</ele>
        <time>2020-06-19T13:25:08.824Z</time>
      </trkpt>
      <trkpt lat="45.98506" lon="0.6513">
        <ele>164.41435241699</ele>
        <time>2020-06-19T13:25:11.524Z</time>
      </trkpt>
      <trkpt lat="45.9847" lon="0.65185">
        <ele>166.99822998047</ele>
        <time>2020-06-19T13:25:14.232Z</time>
      </trkpt>
      <trkpt lat="45.98414" lon="0.65268">
        <ele>170.98274230957</ele>
        <time>2020-06-19T13:25:16.953Z</time>
      </trkpt>
      <trkpt lat="45.98365" lon="0.65346">
        <ele>172.56356811523</ele>
        <time>2020-06-19T13:25:19.686Z</time>
      </trkpt>
      <trkpt lat="45.98313" lon="0.65463">
        <ele>172.23554992676</ele>
        <time>2020-06-19T13:25:22.434Z</time>
      </trkpt>
      <trkpt lat="45.98297" lon="0.65509">
        <ele>171.73384094238</ele>
        <time>2020-06-19T13:25:25.188Z</time>
      </trkpt>
      <trkpt lat="45.9829" lon="0.65533">
        <ele>171.56587219238</ele>
        <time>2020-06-19T13:25:27.945Z</time>
      </trkpt>
      <trkpt lat="45.98271" lon="0.65632">
        <ele>174.81047058105</ele>
        <time>2020-06-19T13:25:30.713Z</time>
      </trkpt>
      <trkpt lat="45.98259" lon="0.65708">
        <ele>177.18240356445</ele>
        <time>2020-06-19T13:25:33.490Z</time>
      </trkpt>
      <trkpt lat="45.98249" lon="0.65788">
        <ele>179.35758972168</ele>
        <time>2020-06-19T13:25:36.276Z</time>
      </trkpt>
      <trkpt lat="45.98243" lon="0.65847">
        <ele>180.75122070312</ele>
        <time>2020-06-19T13:25:39.069Z</time>
      </trkpt>
      <trkpt lat="45.98244" lon="0.65891">
        <ele>181.17092895508</ele>
        <time>2020-06-19T13:25:41.867Z</time>
      </trkpt>
      <trkpt lat="45.98245" lon="0.65936">
        <ele>180.28602600098</ele>
        <time>2020-06-19T13:25:44.670Z</time>
      </trkpt>
      <trkpt lat="45.98241" lon="0.6601">
        <ele>179.3900604248</ele>
        <time>2020-06-19T13:25:47.481Z</time>
      </trkpt>
      <trkpt lat="45.98231" lon="0.6605">
        <ele>179.15010070801</ele>
        <time>2020-06-19T13:25:50.297Z</time>
      </trkpt>
      <trkpt lat="45.98217" lon="0.66089">
        <ele>179.52862548828</ele>
        <time>2020-06-19T13:25:53.118Z</time>
      </trkpt>
      <trkpt lat="45.98209" lon="0.66104">
        <ele>179.80458068848</ele>
        <time>2020-06-19T13:25:55.941Z</time>
      </trkpt>
      <trkpt lat="45.98186" lon="0.66132">
        <ele>180.41647338867</ele>
        <time>2020-06-19T13:25:58.769Z</time>
      </trkpt>
      <trkpt lat="45.98148" lon="0.66167">
        <ele>180.70767211914</ele>
        <time>2020-06-19T13:26:01.604Z</time>
      </trkpt>
      <trkpt lat="45.98126" lon="0.66179">
        <ele>179.7455291748</ele>
        <time>2020-06-19T13:26:04.443Z</time>
      </trkpt>
      <trkpt lat="45.98094" lon="0.66188">
        <ele>178.67832946777</ele>
        <time>2020-06-19T13:26:07.287Z</time>
      </trkpt>
      <trkpt lat="45.98077" lon="0.66195">
        <ele>178.64233398438</ele>
        <time>2020-06-19T13:26:10.134Z</time>
      </trkpt>
      <trkpt lat="45.98067" lon="0.66203">
        <ele>178.71432495117</ele>
        <time>2020-06-19T13:26:12.982Z</time>
      </trkpt>
      <trkpt lat="45.98048" lon="0.66229">
        <ele>178.75367736816</ele>
        <time>2020-06-19T13:26:15.835Z</time>
      </trkpt>
      <trkpt lat="45.98037" lon="0.66248">
        <ele>178.58570861816</ele>
        <time>2020-06-19T13:26:18.690Z</time>
      </trkpt>
      <trkpt lat="45.97977" lon="0.66387">
        <ele>180.08843994141</ele>
        <time>2020-06-19T13:26:21.564Z</time>
      </trkpt>
      <trkpt lat="45.97928" lon="0.66353">
        <ele>178.0856628418</ele>
        <time>2020-06-19T13:26:24.446Z</time>
      </trkpt>
      <trkpt lat="45.97816" lon="0.66273">
        <ele>170.76608276367</ele>
        <time>2020-06-19T13:26:27.348Z</time>
      </trkpt>
      <trkpt lat="45.97767" lon="0.6624">
        <ele>170.97085571289</ele>
        <time>2020-06-19T13:26:30.259Z</time>
      </trkpt>
      <trkpt lat="45.97668" lon="0.66174">
        <ele>179.61645507812</ele>
        <time>2020-06-19T13:26:33.188Z</time>
      </trkpt>
      <trkpt lat="45.97647" lon="0.66158">
        <ele>182.3999786377</ele>
        <time>2020-06-19T13:26:36.120Z</time>
      </trkpt>
      <trkpt lat="45.97623" lon="0.66136">
        <ele>185.75708007812</ele>
        <time>2020-06-19T13:26:39.057Z</time>
      </trkpt>
      <trkpt lat="45.97594" lon="0.66104">
        <ele>187.7727355957</ele>
        <time>2020-06-19T13:26:42.000Z</time>
      </trkpt>
      <trkpt lat="45.97532" lon="0.66024">
        <ele>190.77156066895</ele>
        <time>2020-06-19T13:26:44.956Z</time>
      </trkpt>
      <trkpt lat="45.97392" lon="0.6585">
        <ele>190.8549041748</ele>
        <time>2020-06-19T13:26:47.942Z</time>
      </trkpt>
      <trkpt lat="45.97368" lon="0.65822">
        <ele>191.81474304199</ele>
        <time>2020-06-19T13:26:50.933Z</time>
      </trkpt>
      <trkpt lat="45.97343" lon="0.65802">
        <ele>192.57144165039</ele>
        <time>2020-06-19T13:26:53.928Z</time>
      </trkpt>
      <trkpt lat="45.97287" lon="0.65767">
        <ele>191.81916809082</ele>
        <time>2020-06-19T13:26:56.933Z</time>
      </trkpt>
      <trkpt lat="45.97169" lon="0.65694">
        <ele>187.66635131836</ele>
        <time>2020-06-19T13:26:59.959Z</time>
      </trkpt>
      <trkpt lat="45.97037" lon="0.65613">
        <ele>182.52366638184</ele>
        <time>2020-06-19T13:27:03.008Z</time>
      </trkpt>
      <trkpt lat="45.96929" lon="0.65546">
        <ele>177.95956420898</ele>
        <time>2020-06-19T13:27:06.075Z</time>
      </trkpt>
      <trkpt lat="45.96916" lon="0.6554">
        <ele>177.23968505859</ele>
        <time>2020-06-19T13:27:09.145Z</time>
      </trkpt>
      <trkpt lat="45.96903" lon="0.65529">
        <ele>176.6997833252</ele>
        <time>2020-06-19T13:27:12.217Z</time>
      </trkpt>
      <trkpt lat="45.96881" lon="0.65509">
        <ele>175.71366882324</ele>
        <time>2020-06-19T13:27:15.293Z</time>
      </trkpt>
      <trkpt lat="45.96858" lon="0.65485">
        <ele>174.64584350586</ele>
        <time>2020-06-19T13:27:18.374Z</time>
      </trkpt>
      <trkpt lat="45.9684" lon="0.65458">
        <ele>173.97090148926</ele>
        <time>2020-06-19T13:27:21.459Z</time>
      </trkpt>
      <trkpt lat="45.96822" lon="0.65423">
        <ele>173.29901123047</ele>
        <time>2020-06-19T13:27:24.549Z</time>
      </trkpt>
      <trkpt lat="45.96811" lon="0.65395">
        <ele>173.04705810547</ele>
        <time>2020-06-19T13:27:27.642Z</time>
      </trkpt>
      <trkpt lat="45.96796" lon="0.65338">
        <ele>170.5717010498</ele>
        <time>2020-06-19T13:27:30.742Z</time>
      </trkpt>
      <trkpt lat="45.9679" lon="0.65291">
        <ele>169.07339477539</ele>
        <time>2020-06-19T13:27:33.847Z</time>
      </trkpt>
      <trkpt lat="45.9679" lon="0.65222">
        <ele>166.81590270996</ele>
        <time>2020-06-19T13:27:36.960Z</time>
      </trkpt>
      <trkpt lat="45.96791" lon="0.65095">
        <ele>164.29727172852</ele>
        <time>2020-06-19T13:27:40.087Z</time>
      </trkpt>
      <trkpt lat="45.9679" lon="0.65061">
        <ele>163.81735229492</ele>
        <time>2020-06-19T13:27:43.218Z</time>
      </trkpt>
      <trkpt lat="45.96785" lon="0.65041">
        <ele>163.07925415039</ele>
        <time>2020-06-19T13:27:46.352Z</time>
      </trkpt>
      <trkpt lat="45.96777" lon="0.6502">
        <ele>162.05979919434</ele>
        <time>2020-06-19T13:27:49.488Z</time>
      </trkpt>
      <trkpt lat="45.96767" lon="0.65002">
        <ele>161.19593811035</ele>
        <time>2020-06-19T13:27:52.627Z</time>
      </trkpt>
      <trkpt lat="45.96743" lon="0.6498">
        <ele>158.86833190918</ele>
        <time>2020-06-19T13:27:55.770Z</time>
      </trkpt>
      <trkpt lat="45.96721" lon="0.64962">
        <ele>156.95150756836</ele>
        <time>2020-06-19T13:27:58.917Z</time>
      </trkpt>
      <trkpt lat="45.96655" lon="0.64908">
        <ele>158.66758728027</ele>
        <time>2020-06-19T13:28:02.077Z</time>
      </trkpt>
      <trkpt lat="45.96629" lon="0.64882">
        <ele>160.08229064941</ele>
        <time>2020-06-19T13:28:05.242Z</time>
      </trkpt>
      <trkpt lat="45.96591" lon="0.64849">
        <ele>162.20593261719</ele>
        <time>2020-06-19T13:28:08.414Z</time>
      </trkpt>
      <trkpt lat="45.96572" lon="0.64844">
        <ele>163.95764160156</ele>
        <time>2020-06-19T13:28:11.589Z</time>
      </trkpt>
      <trkpt lat="45.96552" lon="0.64837">
        <ele>165.140625</ele>
        <time>2020-06-19T13:28:14.767Z</time>
      </trkpt>
      <trkpt lat="45.96502" lon="0.64828">
        <ele>165.2006072998</ele>
        <time>2020-06-19T13:28:17.953Z</time>
      </trkpt>
      <trkpt lat="45.96455" lon="0.6482">
        <ele>165.3309173584</ele>
        <time>2020-06-19T13:28:21.147Z</time>
      </trkpt>
      <trkpt lat="45.96354" lon="0.64801">
        <ele>166.94683837891</ele>
        <time>2020-06-19T13:28:24.357Z</time>
      </trkpt>
      <trkpt lat="45.96277" lon="0.64786">
        <ele>165.89288330078</ele>
        <time>2020-06-19T13:28:27.580Z</time>
      </trkpt>
      <trkpt lat="45.95896" lon="0.64715">
        <ele>164.73190307617</ele>
        <time>2020-06-19T13:28:30.864Z</time>
      </trkpt>
      <trkpt lat="45.95744" lon="0.64689">
        <ele>160.02606201172</ele>
        <time>2020-06-19T13:28:34.173Z</time>
      </trkpt>
      <trkpt lat="45.95653" lon="0.64674">
        <ele>164.73750305176</ele>
        <time>2020-06-19T13:28:37.496Z</time>
      </trkpt>
      <trkpt lat="45.95627" lon="0.64661">
        <ele>165.80578613281</ele>
        <time>2020-06-19T13:28:40.824Z</time>
      </trkpt>
      <trkpt lat="45.95594" lon="0.6464">
        <ele>166.7416229248</ele>
        <time>2020-06-19T13:28:44.157Z</time>
      </trkpt>
      <trkpt lat="45.95547" lon="0.64609">
        <ele>166.77606201172</ele>
        <time>2020-06-19T13:28:47.499Z</time>
      </trkpt>
      <trkpt lat="45.95496" lon="0.64575">
        <ele>166.54145812988</ele>
        <time>2020-06-19T13:28:50.850Z</time>
      </trkpt>
      <trkpt lat="45.95401" lon="0.64512">
        <ele>163.57427978516</ele>
        <time>2020-06-19T13:28:54.217Z</time>
      </trkpt>
      <trkpt lat="45.9533" lon="0.64464">
        <ele>160.45056152344</ele>
        <time>2020-06-19T13:28:57.597Z</time>
      </trkpt>
      <trkpt lat="45.95275" lon="0.64444">
        <ele>158.2008972168</ele>
        <time>2020-06-19T13:29:00.986Z</time>
      </trkpt>
      <trkpt lat="45.95245" lon="0.6444">
        <ele>157.45701599121</ele>
        <time>2020-06-19T13:29:04.380Z</time>
      </trkpt>
      <trkpt lat="45.95228" lon="0.64437">
        <ele>156.96510314941</ele>
        <time>2020-06-19T13:29:07.777Z</time>
      </trkpt>
      <trkpt lat="45.95197" lon="0.64438">
        <ele>156.03538513184</ele>
        <time>2020-06-19T13:29:11.179Z</time>
      </trkpt>
      <trkpt lat="45.95138" lon="0.64445">
        <ele>154.51409912109</ele>
        <time>2020-06-19T13:29:14.590Z</time>
      </trkpt>
      <trkpt lat="45.95091" lon="0.64452">
        <ele>151.57917785645</ele>
        <time>2020-06-19T13:29:18.009Z</time>
      </trkpt>
      <trkpt lat="45.95041" lon="0.64462">
        <ele>148.75201416016</ele>
        <time>2020-06-19T13:29:21.436Z</time>
      </trkpt>
      <trkpt lat="45.94995" lon="0.6447">
        <ele>146.24761962891</ele>
        <time>2020-06-19T13:29:24.870Z</time>
      </trkpt>
      <trkpt lat="45.94861" lon="0.64496">
        <ele>147.22489929199</ele>
        <time>2020-06-19T13:29:28.326Z</time>
      </trkpt>
      <trkpt lat="45.94826" lon="0.64502">
        <ele>147.72689819336</ele>
        <time>2020-06-19T13:29:31.787Z</time>
      </trkpt>
      <trkpt lat="45.94799" lon="0.64508">
        <ele>148.56655883789</ele>
        <time>2020-06-19T13:29:35.253Z</time>
      </trkpt>
      <trkpt lat="45.94763" lon="0.64513">
        <ele>148.67366027832</ele>
        <time>2020-06-19T13:29:38.725Z</time>
      </trkpt>
      <trkpt lat="45.94689" lon="0.64513">
        <ele>148.58541870117</ele>
        <time>2020-06-19T13:29:42.208Z</time>
      </trkpt>
      <trkpt lat="45.94583" lon="0.64507">
        <ele>147.11241149902</ele>
        <time>2020-06-19T13:29:45.708Z</time>
      </trkpt>
      <trkpt lat="45.94492" lon="0.64505">
        <ele>142.93438720703</ele>
        <time>2020-06-19T13:29:49.223Z</time>
      </trkpt>
      <trkpt lat="45.94415" lon="0.64501">
        <ele>143.27658081055</ele>
        <time>2020-06-19T13:29:52.750Z</time>
      </trkpt>
      <trkpt lat="45.94399" lon="0.64499">
        <ele>143.78050231934</ele>
        <time>2020-06-19T13:29:56.280Z</time>
      </trkpt>
      <trkpt lat="45.94341" lon="0.64486">
        <ele>144.80307006836</ele>
        <time>2020-06-19T13:29:59.819Z</time>
      </trkpt>
      <trkpt lat="45.94269" lon="0.64465">
        <ele>146.03973388672</ele>
        <time>2020-06-19T13:30:03.370Z</time>
      </trkpt>
      <trkpt lat="45.94234" lon="0.64457">
        <ele>146.62762451172</ele>
        <time>2020-06-19T13:30:06.927Z</time>
      </trkpt>
      <trkpt lat="45.94221" lon="0.64457">
        <ele>147.05862426758</ele>
        <time>2020-06-19T13:30:10.486Z</time>
      </trkpt>
      <trkpt lat="45.94184" lon="0.6446">
        <ele>147.82661437988</ele>
        <time>2020-06-19T13:30:14.051Z</time>
      </trkpt>
      <trkpt lat="45.94135" lon="0.64469">
        <ele>148.99153137207</ele>
        <time>2020-06-19T13:30:17.624Z</time>
      </trkpt>
      <trkpt lat="45.94086" lon="0.64477">
        <ele>149.28477478027</ele>
        <time>2020-06-19T13:30:21.204Z</time>
      </trkpt>
      <trkpt lat="45.94074" lon="0.6448">
        <ele>149.39276123047</ele>
        <time>2020-06-19T13:30:24.786Z</time>
      </trkpt>
      <trkpt lat="45.94063" lon="0.64489">
        <ele>149.71670532227</ele>
        <time>2020-06-19T13:30:28.370Z</time>
      </trkpt>
      <trkpt lat="45.94" lon="0.64552">
        <ele>151.97911071777</ele>
        <time>2020-06-19T13:30:31.967Z</time>
      </trkpt>
      <trkpt lat="45.9397" lon="0.64581">
        <ele>152.58857727051</ele>
        <time>2020-06-19T13:30:35.570Z</time>
      </trkpt>
      <trkpt lat="45.93945" lon="0.64608">
        <ele>152.63656616211</ele>
        <time>2020-06-19T13:30:39.178Z</time>
      </trkpt>
      <trkpt lat="45.93909" lon="0.64635">
        <ele>152.42060852051</ele>
        <time>2020-06-19T13:30:42.792Z</time>
      </trkpt>
      <trkpt lat="45.93852" lon="0.64675">
        <ele>154.33363342285</ele>
        <time>2020-06-19T13:30:46.416Z</time>
      </trkpt>
      <trkpt lat="45.93782" lon="0.6472">
        <ele>157.21620178223</ele>
        <time>2020-06-19T13:30:50.052Z</time>
      </trkpt>
      <trkpt lat="45.93757" lon="0.64731">
        <ele>158.41600036621</ele>
        <time>2020-06-19T13:30:53.693Z</time>
      </trkpt>
      <trkpt lat="45.93732" lon="0.64735">
        <ele>160.18197631836</ele>
        <time>2020-06-19T13:30:57.338Z</time>
      </trkpt>
      <trkpt lat="45.93717" lon="0.64736">
        <ele>161.6340637207</ele>
        <time>2020-06-19T13:31:00.985Z</time>
      </trkpt>
      <trkpt lat="45.93677" lon="0.64733">
        <ele>163.81768798828</ele>
        <time>2020-06-19T13:31:04.639Z</time>
      </trkpt>
      <trkpt lat="45.93629" lon="0.64714">
        <ele>165.09989929199</ele>
        <time>2020-06-19T13:31:08.300Z</time>
      </trkpt>
      <trkpt lat="45.93618" lon="0.64708">
        <ele>165.0279083252</ele>
        <time>2020-06-19T13:31:11.963Z</time>
      </trkpt>
      <trkpt lat="45.93604" lon="0.64697">
        <ele>164.4520111084</ele>
        <time>2020-06-19T13:31:15.629Z</time>
      </trkpt>
      <trkpt lat="45.93569" lon="0.64662">
        <ele>161.93243408203</ele>
        <time>2020-06-19T13:31:19.302Z</time>
      </trkpt>
      <trkpt lat="45.93545" lon="0.64628">
        <ele>159.34024047852</ele>
        <time>2020-06-19T13:31:22.980Z</time>
      </trkpt>
      <trkpt lat="45.93527" lon="0.64615">
        <ele>159.66418457031</ele>
        <time>2020-06-19T13:31:26.661Z</time>
      </trkpt>
      <trkpt lat="45.93505" lon="0.64608">
        <ele>161.01995849609</ele>
        <time>2020-06-19T13:31:30.346Z</time>
      </trkpt>
      <trkpt lat="45.93486" lon="0.6461">
        <ele>163.05961608887</ele>
        <time>2020-06-19T13:31:34.034Z</time>
      </trkpt>
      <trkpt lat="45.93471" lon="0.64617">
        <ele>165.04267883301</ele>
        <time>2020-06-19T13:31:37.725Z</time>
      </trkpt>
      <trkpt lat="45.93343" lon="0.64697">
        <ele>174.59118652344</ele>
        <time>2020-06-19T13:31:41.438Z</time>
      </trkpt>
      <trkpt lat="45.93321" lon="0.64703">
        <ele>174.11126708984</ele>
        <time>2020-06-19T13:31:45.155Z</time>
      </trkpt>
      <trkpt lat="45.93269" lon="0.64704">
        <ele>173.45181274414</ele>
        <time>2020-06-19T13:31:48.880Z</time>
      </trkpt>
      <trkpt lat="45.93179" lon="0.64706">
        <ele>171.14823913574</ele>
        <time>2020-06-19T13:31:52.619Z</time>
      </trkpt>
      <trkpt lat="45.93144" lon="0.6472">
        <ele>169.24787902832</ele>
        <time>2020-06-19T13:31:56.364Z</time>
      </trkpt>
      <trkpt lat="45.93096" lon="0.64745">
        <ele>173.98431396484</ele>
        <time>2020-06-19T13:32:00.117Z</time>
      </trkpt>
      <trkpt lat="45.93076" lon="0.64752">
        <ele>176.33801269531</ele>
        <time>2020-06-19T13:32:03.874Z</time>
      </trkpt>
      <trkpt lat="45.93021" lon="0.64762">
        <ele>181.69331359863</ele>
        <time>2020-06-19T13:32:07.639Z</time>
      </trkpt>
      <trkpt lat="45.92928" lon="0.6478">
        <ele>189.57231140137</ele>
        <time>2020-06-19T13:32:11.419Z</time>
      </trkpt>
      <trkpt lat="45.92869" lon="0.64791">
        <ele>191.84512329102</ele>
        <time>2020-06-19T13:32:15.209Z</time>
      </trkpt>
      <trkpt lat="45.92813" lon="0.64803">
        <ele>192.91757202148</ele>
        <time>2020-06-19T13:32:19.008Z</time>
      </trkpt>
      <trkpt lat="45.92799" lon="0.6481">
        <ele>192.92538452148</ele>
        <time>2020-06-19T13:32:22.809Z</time>
      </trkpt>
      <trkpt lat="45.92787" lon="0.6482">
        <ele>192.85340881348</ele>
        <time>2020-06-19T13:32:26.613Z</time>
      </trkpt>
      <trkpt lat="45.92731" lon="0.64874">
        <ele>194.5697479248</ele>
        <time>2020-06-19T13:32:30.427Z</time>
      </trkpt>
      <trkpt lat="45.92662" lon="0.64942">
        <ele>196.38305664062</ele>
        <time>2020-06-19T13:32:34.255Z</time>
      </trkpt>
      <trkpt lat="45.92552" lon="0.65049">
        <ele>201.20414733887</ele>
        <time>2020-06-19T13:32:38.104Z</time>
      </trkpt>
      <trkpt lat="45.92468" lon="0.65129">
        <ele>204.86114501953</ele>
        <time>2020-06-19T13:32:41.969Z</time>
      </trkpt>
      <trkpt lat="45.92405" lon="0.65192">
        <ele>206.52169799805</ele>
        <time>2020-06-19T13:32:45.847Z</time>
      </trkpt>
      <trkpt lat="45.92389" lon="0.65204">
        <ele>206.5831451416</ele>
        <time>2020-06-19T13:32:49.727Z</time>
      </trkpt>
      <trkpt lat="45.92373" lon="0.65213">
        <ele>206.62727355957</ele>
        <time>2020-06-19T13:32:53.610Z</time>
      </trkpt>
      <trkpt lat="45.92331" lon="0.65227">
        <ele>207.09342956543</ele>
        <time>2020-06-19T13:32:57.500Z</time>
      </trkpt>
      <trkpt lat="45.92281" lon="0.65244">
        <ele>205.43475341797</ele>
        <time>2020-06-19T13:33:01.398Z</time>
      </trkpt>
      <trkpt lat="45.9207" lon="0.6532">
        <ele>191.08760070801</ele>
        <time>2020-06-19T13:33:05.331Z</time>
      </trkpt>
      <trkpt lat="45.91981" lon="0.65353">
        <ele>184.52529907227</ele>
        <time>2020-06-19T13:33:09.279Z</time>
      </trkpt>
      <trkpt lat="45.91922" lon="0.65373">
        <ele>181.67440795898</ele>
        <time>2020-06-19T13:33:13.237Z</time>
      </trkpt>
      <trkpt lat="45.91871" lon="0.65394">
        <ele>180.5945892334</ele>
        <time>2020-06-19T13:33:17.203Z</time>
      </trkpt>
      <trkpt lat="45.91857" lon="0.65405">
        <ele>180.4866027832</ele>
        <time>2020-06-19T13:33:21.172Z</time>
      </trkpt>
      <trkpt lat="45.91845" lon="0.65421">
        <ele>180.6305847168</ele>
        <time>2020-06-19T13:33:25.143Z</time>
      </trkpt>
      <trkpt lat="45.91821" lon="0.65449">
        <ele>181.95277404785</ele>
        <time>2020-06-19T13:33:29.119Z</time>
      </trkpt>
      <trkpt lat="45.91818" lon="0.65451">
        <ele>182.03677368164</ele>
        <time>2020-06-19T13:33:33.096Z</time>
      </trkpt>
      <trkpt lat="45.91801" lon="0.65464">
        <ele>182.8829498291</ele>
        <time>2020-06-19T13:33:37.076Z</time>
      </trkpt>
      <trkpt lat="45.91779" lon="0.65474">
        <ele>183.62071228027</ele>
        <time>2020-06-19T13:33:41.059Z</time>
      </trkpt>
      <trkpt lat="45.91691" lon="0.65513">
        <ele>187.40802001953</ele>
        <time>2020-06-19T13:33:45.057Z</time>
      </trkpt>
      <trkpt lat="45.91672" lon="0.65518">
        <ele>187.54985046387</ele>
        <time>2020-06-19T13:33:49.058Z</time>
      </trkpt>
      <trkpt lat="45.91656" lon="0.65519">
        <ele>187.38188171387</ele>
        <time>2020-06-19T13:33:53.062Z</time>
      </trkpt>
      <trkpt lat="45.91639" lon="0.65512">
        <ele>186.99418640137</ele>
        <time>2020-06-19T13:33:57.069Z</time>
      </trkpt>
      <trkpt lat="45.91621" lon="0.65505">
        <ele>186.39428710938</ele>
        <time>2020-06-19T13:34:01.079Z</time>
      </trkpt>
      <trkpt lat="45.91575" lon="0.65483">
        <ele>184.7625579834</ele>
        <time>2020-06-19T13:34:05.096Z</time>
      </trkpt>
      <trkpt lat="45.91487" lon="0.65458">
        <ele>181.7516784668</ele>
        <time>2020-06-19T13:34:09.128Z</time>
      </trkpt>
      <trkpt lat="45.91462" lon="0.65452">
        <ele>180.01992797852</ele>
        <time>2020-06-19T13:34:13.164Z</time>
      </trkpt>
      <trkpt lat="45.9145" lon="0.65453">
        <ele>178.82125854492</ele>
        <time>2020-06-19T13:34:17.202Z</time>
      </trkpt>
      <trkpt lat="45.91434" lon="0.65456">
        <ele>177.51347351074</ele>
        <time>2020-06-19T13:34:21.242Z</time>
      </trkpt>
      <trkpt lat="45.914" lon="0.65465">
        <ele>174.76593017578</ele>
        <time>2020-06-19T13:34:25.288Z</time>
      </trkpt>
      <trkpt lat="45.91392" lon="0.65469">
        <ele>174.14202880859</ele>
        <time>2020-06-19T13:34:29.335Z</time>
      </trkpt>
      <trkpt lat="45.91391" lon="0.65461">
        <ele>173.96206665039</ele>
        <time>2020-06-19T13:34:33.383Z</time>
      </trkpt>
      <trkpt lat="45.91374" lon="0.6546">
        <ele>173.19221496582</ele>
        <time>2020-06-19T13:34:37.434Z</time>
      </trkpt>
      <trkpt lat="45.91356" lon="0.65461">
        <ele>172.56831359863</ele>
        <time>2020-06-19T13:34:41.488Z</time>
      </trkpt>
      <trkpt lat="45.9131" lon="0.65461">
        <ele>170.91259765625</ele>
        <time>2020-06-19T13:34:45.549Z</time>
      </trkpt>
      <trkpt lat="45.91281" lon="0.65463">
        <ele>172.64117431641</ele>
        <time>2020-06-19T13:34:49.615Z</time>
      </trkpt>
      <trkpt lat="45.91275" lon="0.65467">
        <ele>173.2170715332</ele>
        <time>2020-06-19T13:34:53.682Z</time>
      </trkpt>
      <trkpt lat="45.9127" lon="0.65484">
        <ele>173.65817260742</ele>
        <time>2020-06-19T13:34:57.751Z</time>
      </trkpt>
      <trkpt lat="45.91266" lon="0.65507">
        <ele>173.94612121582</ele>
        <time>2020-06-19T13:35:01.823Z</time>
      </trkpt>
      <trkpt lat="45.91257" lon="0.6554">
        <ele>175.93742370605</ele>
        <time>2020-06-19T13:35:05.899Z</time>
      </trkpt>
      <trkpt lat="45.91252" lon="0.65551">
        <ele>176.87327575684</ele>
        <time>2020-06-19T13:35:09.976Z</time>
      </trkpt>
      <trkpt lat="45.91249" lon="0.65558">
        <ele>177.38441467285</ele>
        <time>2020-06-19T13:35:14.054Z</time>
      </trkpt>
      <trkpt lat="45.91234" lon="0.65573">
        <ele>179.00500488281</ele>
        <time>2020-06-19T13:35:18.135Z</time>
      </trkpt>
      <trkpt lat="45.91203" lon="0.656">
        <ele>179.43132019043</ele>
        <time>2020-06-19T13:35:22.222Z</time>
      </trkpt>
      <trkpt lat="45.91145" lon="0.65647">
        <ele>180.88555908203</ele>
        <time>2020-06-19T13:35:26.319Z</time>
      </trkpt>
      <trkpt lat="45.91108" lon="0.65673">
        <ele>182.54681396484</ele>
        <time>2020-06-19T13:35:30.423Z</time>
      </trkpt>
      <trkpt lat="45.91091" lon="0.65682">
        <ele>183.36268615723</ele>
        <time>2020-06-19T13:35:34.530Z</time>
      </trkpt>
      <trkpt lat="45.91069" lon="0.65691">
        <ele>184.41850280762</ele>
        <time>2020-06-19T13:35:38.640Z</time>
      </trkpt>
      <trkpt lat="45.91046" lon="0.65696">
        <ele>185.1305847168</ele>
        <time>2020-06-19T13:35:42.754Z</time>
      </trkpt>
      <trkpt lat="45.91003" lon="0.65703">
        <ele>185.19552612305</ele>
        <time>2020-06-19T13:35:46.875Z</time>
      </trkpt>
      <trkpt lat="45.90967" lon="0.65703">
        <ele>185.43078613281</ele>
        <time>2020-06-19T13:35:51.002Z</time>
      </trkpt>
      <trkpt lat="45.90942" lon="0.65699">
        <ele>186.24377441406</ele>
        <time>2020-06-19T13:35:55.133Z</time>
      </trkpt>
      <trkpt lat="45.90929" lon="0.65703">
        <ele>186.45974731445</ele>
        <time>2020-06-19T13:35:59.266Z</time>
      </trkpt>
      <trkpt lat="45.90904" lon="0.65738">
        <ele>186.66859436035</ele>
        <time>2020-06-19T13:36:03.405Z</time>
      </trkpt>
      <trkpt lat="45.90872" lon="0.65783">
        <ele>187.87292480469</ele>
        <time>2020-06-19T13:36:07.551Z</time>
      </trkpt>
      <trkpt lat="45.90841" lon="0.65808">
        <ele>189.55348205566</ele>
        <time>2020-06-19T13:36:11.702Z</time>
      </trkpt>
      <trkpt lat="45.90815" lon="0.65825">
        <ele>191.07246398926</ele>
        <time>2020-06-19T13:36:15.858Z</time>
      </trkpt>
      <trkpt lat="45.90795" lon="0.65835">
        <ele>191.67236328125</ele>
        <time>2020-06-19T13:36:20.017Z</time>
      </trkpt>
      <trkpt lat="45.90704" lon="0.65865">
        <ele>195.19799804688</ele>
        <time>2020-06-19T13:36:24.191Z</time>
      </trkpt>
      <trkpt lat="45.90667" lon="0.65878">
        <ele>195.67782592773</ele>
        <time>2020-06-19T13:36:28.371Z</time>
      </trkpt>
      <trkpt lat="45.90642" lon="0.65892">
        <ele>196.14419555664</ele>
        <time>2020-06-19T13:36:32.556Z</time>
      </trkpt>
      <trkpt lat="45.90574" lon="0.6593">
        <ele>199.60829162598</ele>
        <time>2020-06-19T13:36:36.752Z</time>
      </trkpt>
      <trkpt lat="45.90541" lon="0.6595">
        <ele>203.35647583008</ele>
        <time>2020-06-19T13:36:40.954Z</time>
      </trkpt>
      <trkpt lat="45.90525" lon="0.65962">
        <ele>205.02510070801</ele>
        <time>2020-06-19T13:36:45.159Z</time>
      </trkpt>
      <trkpt lat="45.90422" lon="0.66054">
        <ele>212.26620483398</ele>
        <time>2020-06-19T13:36:49.384Z</time>
      </trkpt>
      <trkpt lat="45.90393" lon="0.66084">
        <ele>213.68197631836</ele>
        <time>2020-06-19T13:36:53.614Z</time>
      </trkpt>
      <trkpt lat="45.90371" lon="0.66121">
        <ele>214.73701477051</ele>
        <time>2020-06-19T13:36:57.850Z</time>
      </trkpt>
      <trkpt lat="45.90364" lon="0.66136">
        <ele>215.6248626709</ele>
        <time>2020-06-19T13:37:02.088Z</time>
      </trkpt>
      <trkpt lat="45.90336" lon="0.66189">
        <ele>219.25733947754</ele>
        <time>2020-06-19T13:37:06.333Z</time>
      </trkpt>
      <trkpt lat="45.90312" lon="0.6624">
        <ele>221.36277770996</ele>
        <time>2020-06-19T13:37:10.585Z</time>
      </trkpt>
      <trkpt lat="45.90296" lon="0.66266">
        <ele>223.05490112305</ele>
        <time>2020-06-19T13:37:14.841Z</time>
      </trkpt>
      <trkpt lat="45.90276" lon="0.66294">
        <ele>224.68588256836</ele>
        <time>2020-06-19T13:37:19.101Z</time>
      </trkpt>
      <trkpt lat="45.90247" lon="0.66331">
        <ele>225.96145629883</ele>
        <time>2020-06-19T13:37:23.368Z</time>
      </trkpt>
      <trkpt lat="45.90221" lon="0.66368">
        <ele>226.53735351562</ele>
        <time>2020-06-19T13:37:27.640Z</time>
      </trkpt>
      <trkpt lat="45.90207" lon="0.66393">
        <ele>226.54476928711</ele>
        <time>2020-06-19T13:37:31.916Z</time>
      </trkpt>
      <trkpt lat="45.90191" lon="0.66421">
        <ele>227.12066650391</ele>
        <time>2020-06-19T13:37:36.196Z</time>
      </trkpt>
      <trkpt lat="45.9018" lon="0.66435">
        <ele>226.83320617676</ele>
        <time>2020-06-19T13:37:40.478Z</time>
      </trkpt>
      <trkpt lat="45.90158" lon="0.66452">
        <ele>224.72155761719</ele>
        <time>2020-06-19T13:37:44.764Z</time>
      </trkpt>
      <trkpt lat="45.90115" lon="0.66485">
        <ele>220.44804382324</ele>
        <time>2020-06-19T13:37:49.058Z</time>
      </trkpt>
      <trkpt lat="45.90086" lon="0.66508">
        <ele>217.25657653809</ele>
        <time>2020-06-19T13:37:53.358Z</time>
      </trkpt>
      <trkpt lat="45.9008" lon="0.66515">
        <ele>216.48870849609</ele>
        <time>2020-06-19T13:37:57.659Z</time>
      </trkpt>
      <trkpt lat="45.90067" lon="0.66514">
        <ele>215.60084533691</ele>
        <time>2020-06-19T13:38:01.962Z</time>
      </trkpt>
      <trkpt lat="45.90034" lon="0.66515">
        <ele>213.72236633301</ele>
        <time>2020-06-19T13:38:06.270Z</time>
      </trkpt>
      <trkpt lat="45.90022" lon="0.66519">
        <ele>212.95449829102</ele>
        <time>2020-06-19T13:38:10.580Z</time>
      </trkpt>
      <trkpt lat="45.90011" lon="0.66525">
        <ele>212.13862609863</ele>
        <time>2020-06-19T13:38:14.892Z</time>
      </trkpt>
      <trkpt lat="45.89995" lon="0.66537">
        <ele>210.79486083984</ele>
        <time>2020-06-19T13:38:19.207Z</time>
      </trkpt>
      <trkpt lat="45.89958" lon="0.6658">
        <ele>207.13990783691</ele>
        <time>2020-06-19T13:38:23.529Z</time>
      </trkpt>
      <trkpt lat="45.89914" lon="0.66637">
        <ele>202.88426208496</ele>
        <time>2020-06-19T13:38:27.861Z</time>
      </trkpt>
      <trkpt lat="45.89863" lon="0.66702">
        <ele>201.67578125</ele>
        <time>2020-06-19T13:38:32.204Z</time>
      </trkpt>
      <trkpt lat="45.8985" lon="0.66719">
        <ele>201.5198059082</ele>
        <time>2020-06-19T13:38:36.550Z</time>
      </trkpt>
      <trkpt lat="45.89829" lon="0.66742">
        <ele>202.61219787598</ele>
        <time>2020-06-19T13:38:40.900Z</time>
      </trkpt>
      <trkpt lat="45.89812" lon="0.66756">
        <ele>202.13227844238</ele>
        <time>2020-06-19T13:38:45.253Z</time>
      </trkpt>
      <trkpt lat="45.89771" lon="0.66777">
        <ele>201.09655761719</ele>
        <time>2020-06-19T13:38:49.613Z</time>
      </trkpt>
      <trkpt lat="45.89734" lon="0.66796">
        <ele>200.220703125</ele>
        <time>2020-06-19T13:38:53.979Z</time>
      </trkpt>
      <trkpt lat="45.89638" lon="0.66841">
        <ele>202.8688659668</ele>
        <time>2020-06-19T13:38:58.362Z</time>
      </trkpt>
      <trkpt lat="45.89598" lon="0.66859">
        <ele>201.62956237793</ele>
        <time>2020-06-19T13:39:02.751Z</time>
      </trkpt>
      <trkpt lat="45.89545" lon="0.66886">
        <ele>196.75135803223</ele>
        <time>2020-06-19T13:39:07.149Z</time>
      </trkpt>
      <trkpt lat="45.89525" lon="0.66898">
        <ele>194.44206237793</ele>
        <time>2020-06-19T13:39:11.551Z</time>
      </trkpt>
      <trkpt lat="45.89498" lon="0.66923">
        <ele>191.51763916016</ele>
        <time>2020-06-19T13:39:15.958Z</time>
      </trkpt>
      <trkpt lat="45.89482" lon="0.66935">
        <ele>190.31784057617</ele>
        <time>2020-06-19T13:39:20.368Z</time>
      </trkpt>
      <trkpt lat="45.89468" lon="0.66945">
        <ele>189.38887023926</ele>
        <time>2020-06-19T13:39:24.780Z</time>
      </trkpt>
      <trkpt lat="45.89432" lon="0.66964">
        <ele>188.74510192871</ele>
        <time>2020-06-19T13:39:29.198Z</time>
      </trkpt>
      <trkpt lat="45.8941" lon="0.66971">
        <ele>188.58901977539</ele>
        <time>2020-06-19T13:39:33.620Z</time>
      </trkpt>
      <trkpt lat="45.89395" lon="0.66972">
        <ele>188.3010559082</ele>
        <time>2020-06-19T13:39:38.044Z</time>
      </trkpt>
      <trkpt lat="45.89383" lon="0.66969">
        <ele>187.96365356445</ele>
        <time>2020-06-19T13:39:42.470Z</time>
      </trkpt>
      <trkpt lat="45.89357" lon="0.66952">
        <ele>186.73986816406</ele>
        <time>2020-06-19T13:39:46.901Z</time>
      </trkpt>
      <trkpt lat="45.89328" lon="0.66933">
        <ele>185.37208557129</ele>
        <time>2020-06-19T13:39:51.337Z</time>
      </trkpt>
      <trkpt lat="45.8931" lon="0.66926">
        <ele>184.86817932129</ele>
        <time>2020-06-19T13:39:55.776Z</time>
      </trkpt>
      <trkpt lat="45.89287" lon="0.66925">
        <ele>184.56112670898</ele>
        <time>2020-06-19T13:40:00.219Z</time>
      </trkpt>
      <trkpt lat="45.8926" lon="0.66926">
        <ele>184.34620666504</ele>
        <time>2020-06-19T13:40:04.666Z</time>
      </trkpt>
      <trkpt lat="45.89223" lon="0.66927">
        <ele>184.42431640625</ele>
        <time>2020-06-19T13:40:09.119Z</time>
      </trkpt>
      <trkpt lat="45.89211" lon="0.66925">
        <ele>183.96839904785</ele>
        <time>2020-06-19T13:40:13.574Z</time>
      </trkpt>
      <trkpt lat="45.89176" lon="0.66902">
        <ele>181.1968536377</ele>
        <time>2020-06-19T13:40:18.035Z</time>
      </trkpt>
      <trkpt lat="45.89147" lon="0.66884">
        <ele>179.04100036621</ele>
        <time>2020-06-19T13:40:22.501Z</time>
      </trkpt>
      <trkpt lat="45.89129" lon="0.66877">
        <ele>178.29901123047</ele>
        <time>2020-06-19T13:40:26.970Z</time>
      </trkpt>
      <trkpt lat="45.89102" lon="0.66865">
        <ele>177.07521057129</ele>
        <time>2020-06-19T13:40:31.444Z</time>
      </trkpt>
      <trkpt lat="45.89077" lon="0.66853">
        <ele>175.8994140625</ele>
        <time>2020-06-19T13:40:35.922Z</time>
      </trkpt>
      <trkpt lat="45.89056" lon="0.66848">
        <ele>175.14233398438</ele>
        <time>2020-06-19T13:40:40.403Z</time>
      </trkpt>
      <trkpt lat="45.8904" lon="0.66848">
        <ele>174.37446594238</ele>
        <time>2020-06-19T13:40:44.887Z</time>
      </trkpt>
      <trkpt lat="45.89023" lon="0.66853">
        <ele>173.78442382812</ele>
        <time>2020-06-19T13:40:49.374Z</time>
      </trkpt>
      <trkpt lat="45.8901" lon="0.66864">
        <ele>172.82458496094</ele>
        <time>2020-06-19T13:40:53.863Z</time>
      </trkpt>
      <trkpt lat="45.88992" lon="0.66887">
        <ele>171.64942932129</ele>
        <time>2020-06-19T13:40:58.356Z</time>
      </trkpt>
      <trkpt lat="45.88965" lon="0.66939">
        <ele>173.31192016602</ele>
        <time>2020-06-19T13:41:02.856Z</time>
      </trkpt>
      <trkpt lat="45.88945" lon="0.66968">
        <ele>173.55912780762</ele>
        <time>2020-06-19T13:41:07.361Z</time>
      </trkpt>
      <trkpt lat="45.88929" lon="0.66984">
        <ele>174.72235107422</ele>
        <time>2020-06-19T13:41:11.869Z</time>
      </trkpt>
      <trkpt lat="45.88917" lon="0.66991">
        <ele>174.89031982422</ele>
        <time>2020-06-19T13:41:16.379Z</time>
      </trkpt>
      <trkpt lat="45.88904" lon="0.66992">
        <ele>173.26512145996</ele>
        <time>2020-06-19T13:41:20.891Z</time>
      </trkpt>
      <trkpt lat="45.88872" lon="0.66989">
        <ele>168.70921325684</ele>
        <time>2020-06-19T13:41:25.408Z</time>
      </trkpt>
      <trkpt lat="45.88848" lon="0.6699">
        <ele>166.20164489746</ele>
        <time>2020-06-19T13:41:29.929Z</time>
      </trkpt>
      <trkpt lat="45.88831" lon="0.66996">
        <ele>164.67753601074</ele>
        <time>2020-06-19T13:41:34.453Z</time>
      </trkpt>
      <trkpt lat="45.88819" lon="0.67002">
        <ele>162.15795898438</ele>
        <time>2020-06-19T13:41:38.979Z</time>
      </trkpt>
      <trkpt lat="45.88756" lon="0.67032">
        <ele>152.333984375</ele>
        <time>2020-06-19T13:41:43.515Z</time>
      </trkpt>
      <trkpt lat="45.88702" lon="0.67057">
        <ele>148.45295715332</ele>
        <time>2020-06-19T13:41:48.060Z</time>
      </trkpt>
      <trkpt lat="45.88658" lon="0.6708">
        <ele>149.86962890625</ele>
        <time>2020-06-19T13:41:52.613Z</time>
      </trkpt>
      <trkpt lat="45.88624" lon="0.67096">
        <ele>151.55328369141</ele>
        <time>2020-06-19T13:41:57.172Z</time>
      </trkpt>
      <trkpt lat="45.88627" lon="0.67152">
        <ele>151.4970703125</ele>
        <time>2020-06-19T13:42:01.737Z</time>
      </trkpt>
      <trkpt lat="45.88626" lon="0.67226">
        <ele>151.8342590332</ele>
        <time>2020-06-19T13:42:06.310Z</time>
      </trkpt>
      <trkpt lat="45.88618" lon="0.67279">
        <ele>151.73828125</ele>
        <time>2020-06-19T13:42:10.889Z</time>
      </trkpt>
      <trkpt lat="45.88615" lon="0.67306">
        <ele>151.96273803711</ele>
        <time>2020-06-19T13:42:15.471Z</time>
      </trkpt>
      <trkpt lat="45.88618" lon="0.6734">
        <ele>151.55479431152</ele>
        <time>2020-06-19T13:42:20.057Z</time>
      </trkpt>
      <trkpt lat="45.88621" lon="0.67368">
        <ele>151.23260498047</ele>
        <time>2020-06-19T13:42:24.646Z</time>
      </trkpt>
      <trkpt lat="45.88621" lon="0.67382">
        <ele>151.40057373047</ele>
        <time>2020-06-19T13:42:29.237Z</time>
      </trkpt>
      <trkpt lat="45.88616" lon="0.67397">
        <ele>151.44235229492</ele>
        <time>2020-06-19T13:42:33.830Z</time>
      </trkpt>
      <trkpt lat="45.88586" lon="0.67468">
        <ele>150.68377685547</ele>
        <time>2020-06-19T13:42:38.432Z</time>
      </trkpt>
      <trkpt lat="45.88575" lon="0.67488">
        <ele>150.99855041504</ele>
        <time>2020-06-19T13:42:43.037Z</time>
      </trkpt>
      <trkpt lat="45.88569" lon="0.67501">
        <ele>151</ele>
        <time>2020-06-19T13:42:47.644Z</time>
      </trkpt>
      <trkpt lat="45.88566" lon="0.67543">
        <ele>151</ele>
        <time>2020-06-19T13:42:52.255Z</time>
      </trkpt>
      <trkpt lat="45.88553" lon="0.67598">
        <ele>151.58227539062</ele>
        <time>2020-06-19T13:42:56.873Z</time>
      </trkpt>
      <trkpt lat="45.88544" lon="0.67629">
        <ele>152.06219482422</ele>
        <time>2020-06-19T13:43:01.495Z</time>
      </trkpt>
      <trkpt lat="45.88535" lon="0.67657">
        <ele>152.5061340332</ele>
        <time>2020-06-19T13:43:06.120Z</time>
      </trkpt>
      <trkpt lat="45.88521" lon="0.67682">
        <ele>152.9740447998</ele>
        <time>2020-06-19T13:43:10.749Z</time>
      </trkpt>
      <trkpt lat="45.88503" lon="0.67716">
        <ele>154.19589233398</ele>
        <time>2020-06-19T13:43:15.382Z</time>
      </trkpt>
      <trkpt lat="45.88473" lon="0.6777">
        <ele>156.81301879883</ele>
        <time>2020-06-19T13:43:20.023Z</time>
      </trkpt>
      <trkpt lat="45.88446" lon="0.67815">
        <ele>158.61389160156</ele>
        <time>2020-06-19T13:43:24.671Z</time>
      </trkpt>
      <trkpt lat="45.88399" lon="0.67895">
        <ele>163.60469055176</ele>
        <time>2020-06-19T13:43:29.330Z</time>
      </trkpt>
      <trkpt lat="45.88374" lon="0.67942">
        <ele>168.9116973877</ele>
        <time>2020-06-19T13:43:33.996Z</time>
      </trkpt>
      <trkpt lat="45.88353" lon="0.67985">
        <ele>168.71969604492</ele>
        <time>2020-06-19T13:43:38.668Z</time>
      </trkpt>
      <trkpt lat="45.8832" lon="0.68052">
        <ele>162.75981140137</ele>
        <time>2020-06-19T13:43:43.349Z</time>
      </trkpt>
      <trkpt lat="45.88307" lon="0.68077">
        <ele>154.03218078613</ele>
        <time>2020-06-19T13:43:48.034Z</time>
      </trkpt>
      <trkpt lat="45.88288" lon="0.68114">
        <ele>143.41366577148</ele>
        <time>2020-06-19T13:43:52.724Z</time>
      </trkpt>
      <trkpt lat="45.88276" lon="0.68133">
        <ele>145.18029785156</ele>
        <time>2020-06-19T13:43:57.417Z</time>
      </trkpt>
      <trkpt lat="45.88264" lon="0.68146">
        <ele>147.6194152832</ele>
        <time>2020-06-19T13:44:02.112Z</time>
      </trkpt>
      <trkpt lat="45.88251" lon="0.68153">
        <ele>151.48277282715</ele>
        <time>2020-06-19T13:44:06.809Z</time>
      </trkpt>
      <trkpt lat="45.88209" lon="0.68163">
        <ele>157.25811767578</ele>
        <time>2020-06-19T13:44:11.513Z</time>
      </trkpt>
      <trkpt lat="45.8819" lon="0.68164">
        <ele>160.88151550293</ele>
        <time>2020-06-19T13:44:16.220Z</time>
      </trkpt>
      <trkpt lat="45.88153" lon="0.68168">
        <ele>171.80001831055</ele>
        <time>2020-06-19T13:44:20.933Z</time>
      </trkpt>
      <trkpt lat="45.88137" lon="0.68172">
        <ele>177.33709716797</ele>
        <time>2020-06-19T13:44:25.649Z</time>
      </trkpt>
      <trkpt lat="45.88119" lon="0.68182">
        <ele>175.3934173584</ele>
        <time>2020-06-19T13:44:30.368Z</time>
      </trkpt>
      <trkpt lat="45.88105" lon="0.68198">
        <ele>174.76110839844</ele>
        <time>2020-06-19T13:44:35.090Z</time>
      </trkpt>
      <trkpt lat="45.88076" lon="0.68248">
        <ele>176.18771362305</ele>
        <time>2020-06-19T13:44:39.819Z</time>
      </trkpt>
      <trkpt lat="45.8805" lon="0.68287">
        <ele>184.42245483398</ele>
        <time>2020-06-19T13:44:44.554Z</time>
      </trkpt>
      <trkpt lat="45.88039" lon="0.68299">
        <ele>185.31382751465</ele>
        <time>2020-06-19T13:44:49.291Z</time>
      </trkpt>
      <trkpt lat="45.88013" lon="0.68316">
        <ele>187.64361572266</ele>
        <time>2020-06-19T13:44:54.033Z</time>
      </trkpt>
      <trkpt lat="45.87978" lon="0.68337">
        <ele>191.27842712402</ele>
        <time>2020-06-19T13:44:58.781Z</time>
      </trkpt>
      <trkpt lat="45.87968" lon="0.68342">
        <ele>192.0552520752</ele>
        <time>2020-06-19T13:45:03.530Z</time>
      </trkpt>
      <trkpt lat="45.87968" lon="0.68341">
        <ele>192.03125</ele>
        <time>2020-06-19T13:45:08.279Z</time>
      </trkpt>
      <trkpt lat="45.87913" lon="0.68368">
        <ele>193.99891662598</ele>
        <time>2020-06-19T13:45:13.038Z</time>
      </trkpt>
      <trkpt lat="45.87907" lon="0.68373">
        <ele>194.26287841797</ele>
        <time>2020-06-19T13:45:17.798Z</time>
      </trkpt>
      <trkpt lat="45.87908" lon="0.68382">
        <ele>194.45484924316</ele>
        <time>2020-06-19T13:45:22.559Z</time>
      </trkpt>
      <trkpt lat="45.8791" lon="0.68387">
        <ele>194.51972961426</ele>
        <time>2020-06-19T13:45:27.321Z</time>
      </trkpt>
      <trkpt lat="45.87917" lon="0.68404">
        <ele>194.55572509766</ele>
        <time>2020-06-19T13:45:32.085Z</time>
      </trkpt>
      <trkpt lat="45.87942" lon="0.68495">
        <ele>192.78843688965</ele>
        <time>2020-06-19T13:45:36.860Z</time>
      </trkpt>
      <trkpt lat="45.87954" lon="0.68526">
        <ele>191.30068969727</ele>
        <time>2020-06-19T13:45:41.639Z</time>
      </trkpt>
      <trkpt lat="45.87981" lon="0.68592">
        <ele>185.32197570801</ele>
        <time>2020-06-19T13:45:46.426Z</time>
      </trkpt>
      <trkpt lat="45.87989" lon="0.6863">
        <ele>180.73873901367</ele>
        <time>2020-06-19T13:45:51.218Z</time>
      </trkpt>
      <trkpt lat="45.8799" lon="0.68646">
        <ele>179.8677520752</ele>
        <time>2020-06-19T13:45:56.011Z</time>
      </trkpt>
      <trkpt lat="45.87985" lon="0.68707">
        <ele>177.32705688477</ele>
        <time>2020-06-19T13:46:00.811Z</time>
      </trkpt>
      <trkpt lat="45.87978" lon="0.68748">
        <ele>176.66162109375</ele>
        <time>2020-06-19T13:46:05.616Z</time>
      </trkpt>
      <trkpt lat="45.87922" lon="0.6897">
        <ele>165.8272857666</ele>
        <time>2020-06-19T13:46:10.447Z</time>
      </trkpt>
      <trkpt lat="45.87906" lon="0.69046">
        <ele>162.56204223633</ele>
        <time>2020-06-19T13:46:15.287Z</time>
      </trkpt>
      <trkpt lat="45.87904" lon="0.69053">
        <ele>162.32208251953</ele>
        <time>2020-06-19T13:46:20.128Z</time>
      </trkpt>
      <trkpt lat="45.87898" lon="0.69053">
        <ele>162.61004638672</ele>
        <time>2020-06-19T13:46:24.970Z</time>
      </trkpt>
      <trkpt lat="45.87884" lon="0.69052">
        <ele>163.24743652344</ele>
        <time>2020-06-19T13:46:29.814Z</time>
      </trkpt>
      <trkpt lat="45.87846" lon="0.69049">
        <ele>164.72319030762</ele>
        <time>2020-06-19T13:46:34.664Z</time>
      </trkpt>
      <trkpt lat="45.8784" lon="0.69053">
        <ele>164.79518127441</ele>
        <time>2020-06-19T13:46:39.515Z</time>
      </trkpt>
      <trkpt lat="45.87831" lon="0.69094">
        <ele>163.63320922852</ele>
        <time>2020-06-19T13:46:44.371Z</time>
      </trkpt>
      <trkpt lat="45.87823" lon="0.69122">
        <ele>164.4010925293</ele>
        <time>2020-06-19T13:46:49.231Z</time>
      </trkpt>
      <trkpt lat="45.87797" lon="0.69187">
        <ele>165.68565368652</ele>
        <time>2020-06-19T13:46:54.099Z</time>
      </trkpt>
      <trkpt lat="45.87772" lon="0.69251">
        <ele>167.90158081055</ele>
        <time>2020-06-19T13:46:58.975Z</time>
      </trkpt>
      <trkpt lat="45.87757" lon="0.69282">
        <ele>169.57342529297</ele>
        <time>2020-06-19T13:47:03.855Z</time>
      </trkpt>
      <trkpt lat="45.87742" lon="0.69309">
        <ele>171.84649658203</ele>
        <time>2020-06-19T13:47:08.739Z</time>
      </trkpt>
      <trkpt lat="45.87696" lon="0.69388">
        <ele>170.89196777344</ele>
        <time>2020-06-19T13:47:13.635Z</time>
      </trkpt>
      <trkpt lat="45.87637" lon="0.69486">
        <ele>168.19427490234</ele>
        <time>2020-06-19T13:47:18.545Z</time>
      </trkpt>
      <trkpt lat="45.8761" lon="0.69519">
        <ele>167.83433532715</ele>
        <time>2020-06-19T13:47:23.461Z</time>
      </trkpt>
      <trkpt lat="45.87589" lon="0.69549">
        <ele>165.62506103516</ele>
        <time>2020-06-19T13:47:28.382Z</time>
      </trkpt>
      <trkpt lat="45.87569" lon="0.69581">
        <ele>163.21385192871</ele>
        <time>2020-06-19T13:47:33.308Z</time>
      </trkpt>
      <trkpt lat="45.8755" lon="0.69602">
        <ele>161.83166503906</ele>
        <time>2020-06-19T13:47:38.237Z</time>
      </trkpt>
      <trkpt lat="45.87515" lon="0.69639">
        <ele>159.93383789062</ele>
        <time>2020-06-19T13:47:43.173Z</time>
      </trkpt>
      <trkpt lat="45.875" lon="0.69655">
        <ele>159.90983581543</ele>
        <time>2020-06-19T13:47:48.112Z</time>
      </trkpt>
      <trkpt lat="45.87483" lon="0.69666">
        <ele>160.28581237793</ele>
        <time>2020-06-19T13:47:53.054Z</time>
      </trkpt>
      <trkpt lat="45.87468" lon="0.69668">
        <ele>161.38874816895</ele>
        <time>2020-06-19T13:47:57.999Z</time>
      </trkpt>
      <trkpt lat="45.8747" lon="0.69669">
        <ele>161.10746765137</ele>
        <time>2020-06-19T13:48:02.944Z</time>
      </trkpt>
      <trkpt lat="45.87464" lon="0.69777">
        <ele>160.71211242676</ele>
        <time>2020-06-19T13:48:07.901Z</time>
      </trkpt>
      <trkpt lat="45.87455" lon="0.69938">
        <ele>158.24559020996</ele>
        <time>2020-06-19T13:48:12.876Z</time>
      </trkpt>
      <trkpt lat="45.8745" lon="0.7003">
        <ele>159.203125</ele>
        <time>2020-06-19T13:48:17.861Z</time>
      </trkpt>
      <trkpt lat="45.87438" lon="0.70237">
        <ele>160.66770935059</ele>
        <time>2020-06-19T13:48:22.870Z</time>
      </trkpt>
      <trkpt lat="45.8743" lon="0.70389">
        <ele>158.06858825684</ele>
        <time>2020-06-19T13:48:27.896Z</time>
      </trkpt>
      <trkpt lat="45.87398" lon="0.70961">
        <ele>153.88063049316</ele>
        <time>2020-06-19T13:48:32.986Z</time>
      </trkpt>
      <trkpt lat="45.87396" lon="0.70982">
        <ele>153.7276763916</ele>
        <time>2020-06-19T13:48:38.078Z</time>
      </trkpt>
      <trkpt lat="45.87395" lon="0.71013">
        <ele>152.58787536621</ele>
        <time>2020-06-19T13:48:43.174Z</time>
      </trkpt>
      <trkpt lat="45.87393" lon="0.71012">
        <ele>152.57586669922</ele>
        <time>2020-06-19T13:48:48.270Z</time>
      </trkpt>
      <trkpt lat="45.87329" lon="0.70997">
        <ele>152.50332641602</ele>
        <time>2020-06-19T13:48:53.376Z</time>
      </trkpt>
      <trkpt lat="45.87283" lon="0.70977">
        <ele>153.36097717285</ele>
        <time>2020-06-19T13:48:58.490Z</time>
      </trkpt>
      <trkpt lat="45.87273" lon="0.70972">
        <ele>153.42097473145</ele>
        <time>2020-06-19T13:49:03.606Z</time>
      </trkpt>
      <trkpt lat="45.8726" lon="0.7097">
        <ele>153.55294799805</ele>
        <time>2020-06-19T13:49:08.724Z</time>
      </trkpt>
      <trkpt lat="45.87255" lon="0.70976">
        <ele>153.68493652344</ele>
        <time>2020-06-19T13:49:13.843Z</time>
      </trkpt>
      <trkpt lat="45.87249" lon="0.71001">
        <ele>154</ele>
        <time>2020-06-19T13:49:18.965Z</time>
      </trkpt>
      <trkpt lat="45.87243" lon="0.71055">
        <ele>153.96446228027</ele>
        <time>2020-06-19T13:49:24.093Z</time>
      </trkpt>
      <trkpt lat="45.87235" lon="0.71115">
        <ele>154.30253601074</ele>
        <time>2020-06-19T13:49:29.228Z</time>
      </trkpt>
      <trkpt lat="45.87232" lon="0.71187">
        <ele>153.57888793945</ele>
        <time>2020-06-19T13:49:34.371Z</time>
      </trkpt>
      <trkpt lat="45.8723" lon="0.71259">
        <ele>152.91494750977</ele>
        <time>2020-06-19T13:49:39.522Z</time>
      </trkpt>
      <trkpt lat="45.87227" lon="0.71324">
        <ele>153.34330749512</ele>
        <time>2020-06-19T13:49:44.680Z</time>
      </trkpt>
      <trkpt lat="45.87227" lon="0.71326">
        <ele>153.39129638672</ele>
        <time>2020-06-19T13:49:49.838Z</time>
      </trkpt>
      <trkpt lat="45.87216" lon="0.714">
        <ele>155.16584777832</ele>
        <time>2020-06-19T13:49:55.005Z</time>
      </trkpt>
      <trkpt lat="45.87206" lon="0.71453">
        <ele>155.40580749512</ele>
        <time>2020-06-19T13:50:00.178Z</time>
      </trkpt>
      <trkpt lat="45.872" lon="0.71477">
        <ele>156.92422485352</ele>
        <time>2020-06-19T13:50:05.354Z</time>
      </trkpt>
      <trkpt lat="45.87188" lon="0.71502">
        <ele>157.93206787109</ele>
        <time>2020-06-19T13:50:10.533Z</time>
      </trkpt>
      <trkpt lat="45.87163" lon="0.71546">
        <ele>161.91453552246</ele>
        <time>2020-06-19T13:50:15.719Z</time>
      </trkpt>
      <trkpt lat="45.87118" lon="0.71626">
        <ele>169.33255004883</ele>
        <time>2020-06-19T13:50:20.916Z</time>
      </trkpt>
      <trkpt lat="45.87108" lon="0.71651">
        <ele>170.19822692871</ele>
        <time>2020-06-19T13:50:26.116Z</time>
      </trkpt>
      <trkpt lat="45.87103" lon="0.71666">
        <ele>170.8581237793</ele>
        <time>2020-06-19T13:50:31.318Z</time>
      </trkpt>
      <trkpt lat="45.871" lon="0.71669">
        <ele>171.18206787109</ele>
        <time>2020-06-19T13:50:36.521Z</time>
      </trkpt>
      <trkpt lat="45.8708" lon="0.71703">
        <ele>172.49542236328</ele>
        <time>2020-06-19T13:50:41.729Z</time>
      </trkpt>
      <trkpt lat="45.87062" lon="0.71739">
        <ele>173.72245788574</ele>
        <time>2020-06-19T13:50:46.942Z</time>
      </trkpt>
      <trkpt lat="45.8703" lon="0.71814">
        <ele>176.76490783691</ele>
        <time>2020-06-19T13:50:52.165Z</time>
      </trkpt>
      <trkpt lat="45.8702" lon="0.71849">
        <ele>178.56460571289</ele>
        <time>2020-06-19T13:50:57.392Z</time>
      </trkpt>
      <trkpt lat="45.87015" lon="0.71867">
        <ele>179.22178649902</ele>
        <time>2020-06-19T13:51:02.621Z</time>
      </trkpt>
      <trkpt lat="45.86995" lon="0.71907">
        <ele>181.14135742188</ele>
        <time>2020-06-19T13:51:07.855Z</time>
      </trkpt>
      <trkpt lat="45.86944" lon="0.72016">
        <ele>183.63618469238</ele>
        <time>2020-06-19T13:51:13.104Z</time>
      </trkpt>
      <trkpt lat="45.86929" lon="0.7205">
        <ele>184.6844329834</ele>
        <time>2020-06-19T13:51:18.358Z</time>
      </trkpt>
      <trkpt lat="45.86899" lon="0.72133">
        <ele>186.97659301758</ele>
        <time>2020-06-19T13:51:23.622Z</time>
      </trkpt>
      <trkpt lat="45.86855" lon="0.72248">
        <ele>194.40238952637</ele>
        <time>2020-06-19T13:51:28.901Z</time>
      </trkpt>
      <trkpt lat="45.86795" lon="0.72401">
        <ele>199.36924743652</ele>
        <time>2020-06-19T13:51:34.199Z</time>
      </trkpt>
      <trkpt lat="45.86787" lon="0.72425">
        <ele>199.46522521973</ele>
        <time>2020-06-19T13:51:39.500Z</time>
      </trkpt>
      <trkpt lat="45.86781" lon="0.72468">
        <ele>199.78326416016</ele>
        <time>2020-06-19T13:51:44.806Z</time>
      </trkpt>
      <trkpt lat="45.8678" lon="0.72501">
        <ele>201.71870422363</ele>
        <time>2020-06-19T13:51:50.116Z</time>
      </trkpt>
      <trkpt lat="45.8678" lon="0.72533">
        <ele>203.76811218262</ele>
        <time>2020-06-19T13:51:55.429Z</time>
      </trkpt>
      <trkpt lat="45.86783" lon="0.72574">
        <ele>205.46717834473</ele>
        <time>2020-06-19T13:52:00.747Z</time>
      </trkpt>
      <trkpt lat="45.86786" lon="0.72653">
        <ele>205.64294433594</ele>
        <time>2020-06-19T13:52:06.074Z</time>
      </trkpt>
      <trkpt lat="45.8678" lon="0.72714">
        <ele>206.80676269531</ele>
        <time>2020-06-19T13:52:11.408Z</time>
      </trkpt>
      <trkpt lat="45.86764" lon="0.72782">
        <ele>209.26840209961</ele>
        <time>2020-06-19T13:52:16.750Z</time>
      </trkpt>
      <trkpt lat="45.86755" lon="0.72808">
        <ele>210.12026977539</ele>
        <time>2020-06-19T13:52:22.095Z</time>
      </trkpt>
      <trkpt lat="45.86738" lon="0.72844">
        <ele>210.67153930664</ele>
        <time>2020-06-19T13:52:27.445Z</time>
      </trkpt>
      <trkpt lat="45.86708" lon="0.72895">
        <ele>210.71162414551</ele>
        <time>2020-06-19T13:52:32.802Z</time>
      </trkpt>
      <trkpt lat="45.86673" lon="0.7296">
        <ele>212.39134216309</ele>
        <time>2020-06-19T13:52:38.169Z</time>
      </trkpt>
      <trkpt lat="45.86657" lon="0.73006">
        <ele>212.9380645752</ele>
        <time>2020-06-19T13:52:43.541Z</time>
      </trkpt>
      <trkpt lat="45.86607" lon="0.732">
        <ele>207.79139709473</ele>
        <time>2020-06-19T13:52:48.936Z</time>
      </trkpt>
      <trkpt lat="45.86584" lon="0.73296">
        <ele>206.42300415039</ele>
        <time>2020-06-19T13:52:54.343Z</time>
      </trkpt>
      <trkpt lat="45.86566" lon="0.73355">
        <ele>204.95541381836</ele>
        <time>2020-06-19T13:52:59.757Z</time>
      </trkpt>
      <trkpt lat="45.86535" lon="0.73462">
        <ele>205.1647644043</ele>
        <time>2020-06-19T13:53:05.184Z</time>
      </trkpt>
      <trkpt lat="45.86508" lon="0.73543">
        <ele>207.7087097168</ele>
        <time>2020-06-19T13:53:10.621Z</time>
      </trkpt>
      <trkpt lat="45.86483" lon="0.73617">
        <ele>209.39074707031</ele>
        <time>2020-06-19T13:53:16.067Z</time>
      </trkpt>
      <trkpt lat="45.86472" lon="0.73614">
        <ele>209.46017456055</ele>
        <time>2020-06-19T13:53:21.515Z</time>
      </trkpt>
      <trkpt lat="45.86425" lon="0.73619">
        <ele>210</ele>
        <time>2020-06-19T13:53:26.970Z</time>
      </trkpt>
      <trkpt lat="45.86403" lon="0.73626">
        <ele>210</ele>
        <time>2020-06-19T13:53:32.429Z</time>
      </trkpt>
      <trkpt lat="45.86348" lon="0.73652">
        <ele>209.35877990723</ele>
        <time>2020-06-19T13:53:37.897Z</time>
      </trkpt>
      <trkpt lat="45.86337" lon="0.73657">
        <ele>209.21481323242</ele>
        <time>2020-06-19T13:53:43.367Z</time>
      </trkpt>
      <trkpt lat="45.86308" lon="0.73662">
        <ele>208.09156799316</ele>
        <time>2020-06-19T13:53:48.842Z</time>
      </trkpt>
      <trkpt lat="45.86285" lon="0.73663">
        <ele>206.73469543457</ele>
        <time>2020-06-19T13:53:54.321Z</time>
      </trkpt>
      <trkpt lat="45.86213" lon="0.73665">
        <ele>202.98181152344</ele>
        <time>2020-06-19T13:53:59.811Z</time>
      </trkpt>
      <trkpt lat="45.8617" lon="0.73663">
        <ele>201.41006469727</ele>
        <time>2020-06-19T13:54:05.308Z</time>
      </trkpt>
      <trkpt lat="45.86157" lon="0.73657">
        <ele>200.84478759766</ele>
        <time>2020-06-19T13:54:10.807Z</time>
      </trkpt>
      <trkpt lat="45.86143" lon="0.7364">
        <ele>200.16227722168</ele>
        <time>2020-06-19T13:54:16.309Z</time>
      </trkpt>
      <trkpt lat="45.86134" lon="0.73628">
        <ele>199.9818572998</ele>
        <time>2020-06-19T13:54:21.813Z</time>
      </trkpt>
      <trkpt lat="45.86117" lon="0.73613">
        <ele>199.75389099121</ele>
        <time>2020-06-19T13:54:27.320Z</time>
      </trkpt>
      <trkpt lat="45.86097" lon="0.73599">
        <ele>199.49131774902</ele>
        <time>2020-06-19T13:54:32.831Z</time>
      </trkpt>
      <trkpt lat="45.86069" lon="0.73584">
        <ele>199.15536499023</ele>
        <time>2020-06-19T13:54:38.347Z</time>
      </trkpt>
      <trkpt lat="45.86042" lon="0.73568">
        <ele>199</ele>
        <time>2020-06-19T13:54:43.867Z</time>
      </trkpt>
      <trkpt lat="45.86024" lon="0.73565">
        <ele>199</ele>
        <time>2020-06-19T13:54:49.390Z</time>
      </trkpt>
      <trkpt lat="45.85978" lon="0.73551">
        <ele>198.96478271484</ele>
        <time>2020-06-19T13:54:54.921Z</time>
      </trkpt>
      <trkpt lat="45.85968" lon="0.73552">
        <ele>198.91036987305</ele>
        <time>2020-06-19T13:55:00.453Z</time>
      </trkpt>
      <trkpt lat="45.85953" lon="0.73559">
        <ele>198.40567016602</ele>
        <time>2020-06-19T13:55:05.988Z</time>
      </trkpt>
      <trkpt lat="45.85942" lon="0.73563">
        <ele>198.04573059082</ele>
        <time>2020-06-19T13:55:11.525Z</time>
      </trkpt>
      <trkpt lat="45.85927" lon="0.73563">
        <ele>197.68579101562</ele>
        <time>2020-06-19T13:55:17.064Z</time>
      </trkpt>
      <trkpt lat="45.85905" lon="0.73556">
        <ele>197.32585144043</ele>
        <time>2020-06-19T13:55:22.607Z</time>
      </trkpt>
      <trkpt lat="45.85838" lon="0.73522">
        <ele>196.38383483887</ele>
        <time>2020-06-19T13:55:28.161Z</time>
      </trkpt>
      <trkpt lat="45.85804" lon="0.73506">
        <ele>195.95179748535</ele>
        <time>2020-06-19T13:55:33.721Z</time>
      </trkpt>
      <trkpt lat="45.8577" lon="0.73482">
        <ele>195.13594055176</ele>
        <time>2020-06-19T13:55:39.287Z</time>
      </trkpt>
      <trkpt lat="45.85703" lon="0.73432">
        <ele>193.53701782227</ele>
        <time>2020-06-19T13:55:44.865Z</time>
      </trkpt>
      <trkpt lat="45.85639" lon="0.7338">
        <ele>192.64495849609</ele>
        <time>2020-06-19T13:55:50.455Z</time>
      </trkpt>
      <trkpt lat="45.85578" lon="0.73321">
        <ele>188.34967041016</ele>
        <time>2020-06-19T13:55:56.057Z</time>
      </trkpt>
      <trkpt lat="45.8557" lon="0.73312">
        <ele>187.72576904297</ele>
        <time>2020-06-19T13:56:01.660Z</time>
      </trkpt>
      <trkpt lat="45.85552" lon="0.73291">
        <ele>186.28601074219</ele>
        <time>2020-06-19T13:56:07.267Z</time>
      </trkpt>
      <trkpt lat="45.85534" lon="0.73279">
        <ele>185.2781829834</ele>
        <time>2020-06-19T13:56:12.877Z</time>
      </trkpt>
      <trkpt lat="45.85525" lon="0.73275">
        <ele>184.82051086426</ele>
        <time>2020-06-19T13:56:18.489Z</time>
      </trkpt>
      <trkpt lat="45.855" lon="0.73271">
        <ele>183.52471923828</ele>
        <time>2020-06-19T13:56:24.105Z</time>
      </trkpt>
      <trkpt lat="45.85467" lon="0.73273">
        <ele>182.05639648438</ele>
        <time>2020-06-19T13:56:29.726Z</time>
      </trkpt>
      <trkpt lat="45.85409" lon="0.73278">
        <ele>179.1834564209</ele>
        <time>2020-06-19T13:56:35.356Z</time>
      </trkpt>
      <trkpt lat="45.85373" lon="0.73275">
        <ele>177.02381896973</ele>
        <time>2020-06-19T13:56:40.992Z</time>
      </trkpt>
      <trkpt lat="45.85328" lon="0.7327">
        <ele>173.99577331543</ele>
        <time>2020-06-19T13:56:46.635Z</time>
      </trkpt>
      <trkpt lat="45.85319" lon="0.73268">
        <ele>173.37188720703</ele>
        <time>2020-06-19T13:56:52.280Z</time>
      </trkpt>
      <trkpt lat="45.85299" lon="0.73263">
        <ele>172.0751953125</ele>
        <time>2020-06-19T13:56:57.928Z</time>
      </trkpt>
      <trkpt lat="45.85289" lon="0.73257">
        <ele>171.5472869873</ele>
        <time>2020-06-19T13:57:03.578Z</time>
      </trkpt>
      <trkpt lat="45.85245" lon="0.73333">
        <ele>170.2364654541</ele>
        <time>2020-06-19T13:57:09.239Z</time>
      </trkpt>
      <trkpt lat="45.85216" lon="0.73383">
        <ele>170.63862609863</ele>
        <time>2020-06-19T13:57:14.907Z</time>
      </trkpt>
      <trkpt lat="45.85198" lon="0.73413">
        <ele>171.64645385742</ele>
        <time>2020-06-19T13:57:20.579Z</time>
      </trkpt>
      <trkpt lat="45.85173" lon="0.73455">
        <ele>171.83879089355</ele>
        <time>2020-06-19T13:57:26.257Z</time>
      </trkpt>
      <trkpt lat="45.85142" lon="0.73501">
        <ele>171.26077270508</ele>
        <time>2020-06-19T13:57:31.943Z</time>
      </trkpt>
      <trkpt lat="45.85116" lon="0.73521">
        <ele>170.6996307373</ele>
        <time>2020-06-19T13:57:37.633Z</time>
      </trkpt>
      <trkpt lat="45.85097" lon="0.7353">
        <ele>170.11172485352</ele>
        <time>2020-06-19T13:57:43.327Z</time>
      </trkpt>
      <trkpt lat="45.85082" lon="0.73532">
        <ele>169.46383666992</ele>
        <time>2020-06-19T13:57:49.023Z</time>
      </trkpt>
      <trkpt lat="45.85083" lon="0.7354">
        <ele>169.79978942871</ele>
        <time>2020-06-19T13:57:54.720Z</time>
      </trkpt>
      <trkpt lat="45.85082" lon="0.73559">
        <ele>170.49644470215</ele>
        <time>2020-06-19T13:58:00.419Z</time>
      </trkpt>
      <trkpt lat="45.85081" lon="0.73568">
        <ele>170.88037109375</ele>
        <time>2020-06-19T13:58:06.119Z</time>
      </trkpt>
      <trkpt lat="45.85076" lon="0.73581">
        <ele>171.26431274414</ele>
        <time>2020-06-19T13:58:11.821Z</time>
      </trkpt>
      <trkpt lat="45.85013" lon="0.73689">
        <ele>173.15391540527</ele>
        <time>2020-06-19T13:58:17.538Z</time>
      </trkpt>
      <trkpt lat="45.84973" lon="0.7377">
        <ele>172.21250915527</ele>
        <time>2020-06-19T13:58:23.267Z</time>
      </trkpt>
      <trkpt lat="45.84934" lon="0.73861">
        <ele>171.90596008301</ele>
        <time>2020-06-19T13:58:29.007Z</time>
      </trkpt>
      <trkpt lat="45.84919" lon="0.73894">
        <ele>172.43775939941</ele>
        <time>2020-06-19T13:58:34.752Z</time>
      </trkpt>
      <trkpt lat="45.84883" lon="0.73976">
        <ele>172.77723693848</ele>
        <time>2020-06-19T13:58:40.508Z</time>
      </trkpt>
      <trkpt lat="45.84846" lon="0.74048">
        <ele>172.78335571289</ele>
        <time>2020-06-19T13:58:46.274Z</time>
      </trkpt>
      <trkpt lat="45.84817" lon="0.74099">
        <ele>174.21324157715</ele>
        <time>2020-06-19T13:58:52.047Z</time>
      </trkpt>
      <trkpt lat="45.8479" lon="0.7415">
        <ele>175.56547546387</ele>
        <time>2020-06-19T13:58:57.827Z</time>
      </trkpt>
      <trkpt lat="45.84779" lon="0.74182">
        <ele>178.74494934082</ele>
        <time>2020-06-19T13:59:03.611Z</time>
      </trkpt>
      <trkpt lat="45.84761" lon="0.74237">
        <ele>181.72116088867</ele>
        <time>2020-06-19T13:59:09.402Z</time>
      </trkpt>
      <trkpt lat="45.84743" lon="0.74314">
        <ele>185.06402587891</ele>
        <time>2020-06-19T13:59:15.202Z</time>
      </trkpt>
      <trkpt lat="45.84739" lon="0.74343">
        <ele>185.31077575684</ele>
        <time>2020-06-19T13:59:21.005Z</time>
      </trkpt>
      <trkpt lat="45.84733" lon="0.74405">
        <ele>185.38948059082</ele>
        <time>2020-06-19T13:59:26.815Z</time>
      </trkpt>
      <trkpt lat="45.84728" lon="0.74476">
        <ele>187.39631652832</ele>
        <time>2020-06-19T13:59:32.633Z</time>
      </trkpt>
      <trkpt lat="45.84729" lon="0.74522">
        <ele>185.85794067383</ele>
        <time>2020-06-19T13:59:38.457Z</time>
      </trkpt>
      <trkpt lat="45.84731" lon="0.74637">
        <ele>182.92919921875</ele>
        <time>2020-06-19T13:59:44.293Z</time>
      </trkpt>
      <trkpt lat="45.84728" lon="0.74686">
        <ele>182.97883605957</ele>
        <time>2020-06-19T13:59:50.135Z</time>
      </trkpt>
      <trkpt lat="45.84725" lon="0.74754">
        <ele>183.9169921875</ele>
        <time>2020-06-19T13:59:55.984Z</time>
      </trkpt>
      <trkpt lat="45.84729" lon="0.74796">
        <ele>185.11679077148</ele>
        <time>2020-06-19T14:00:01.838Z</time>
      </trkpt>
      <trkpt lat="45.84737" lon="0.74831">
        <ele>186.63696289062</ele>
        <time>2020-06-19T14:00:07.696Z</time>
      </trkpt>
      <trkpt lat="45.8476" lon="0.74904">
        <ele>190.69227600098</ele>
        <time>2020-06-19T14:00:13.563Z</time>
      </trkpt>
      <trkpt lat="45.84777" lon="0.74963">
        <ele>193.67973327637</ele>
        <time>2020-06-19T14:00:19.437Z</time>
      </trkpt>
      <trkpt lat="45.84789" lon="0.7504">
        <ele>196.85133361816</ele>
        <time>2020-06-19T14:00:25.320Z</time>
      </trkpt>
      <trkpt lat="45.84798" lon="0.75125">
        <ele>199.32292175293</ele>
        <time>2020-06-19T14:00:31.213Z</time>
      </trkpt>
      <trkpt lat="45.84799" lon="0.75177">
        <ele>201.25640869141</ele>
        <time>2020-06-19T14:00:37.112Z</time>
      </trkpt>
      <trkpt lat="45.84796" lon="0.75202">
        <ele>202.08427429199</ele>
        <time>2020-06-19T14:00:43.014Z</time>
      </trkpt>
      <trkpt lat="45.84773" lon="0.75297">
        <ele>206.56645202637</ele>
        <time>2020-06-19T14:00:48.927Z</time>
      </trkpt>
      <trkpt lat="45.84754" lon="0.75366">
        <ele>207.34829711914</ele>
        <time>2020-06-19T14:00:54.848Z</time>
      </trkpt>
      <trkpt lat="45.84741" lon="0.75417">
        <ele>208.81799316406</ele>
        <time>2020-06-19T14:01:00.775Z</time>
      </trkpt>
      <trkpt lat="45.84738" lon="0.75459">
        <ele>209.96980285645</ele>
        <time>2020-06-19T14:01:06.707Z</time>
      </trkpt>
      <trkpt lat="45.84738" lon="0.75478">
        <ele>210.51065063477</ele>
        <time>2020-06-19T14:01:12.641Z</time>
      </trkpt>
      <trkpt lat="45.84747" lon="0.75517">
        <ele>210.70597839355</ele>
        <time>2020-06-19T14:01:18.580Z</time>
      </trkpt>
      <trkpt lat="45.84775" lon="0.75579">
        <ele>211.55694580078</ele>
        <time>2020-06-19T14:01:24.527Z</time>
      </trkpt>
      <trkpt lat="45.84797" lon="0.75615">
        <ele>213.02070617676</ele>
        <time>2020-06-19T14:01:30.479Z</time>
      </trkpt>
      <trkpt lat="45.84794" lon="0.75628">
        <ele>213.57376098633</ele>
        <time>2020-06-19T14:01:36.433Z</time>
      </trkpt>
      <trkpt lat="45.84795" lon="0.75654">
        <ele>213.60975646973</ele>
        <time>2020-06-19T14:01:42.390Z</time>
      </trkpt>
      <trkpt lat="45.84811" lon="0.75755">
        <ele>214.28460693359</ele>
        <time>2020-06-19T14:01:48.358Z</time>
      </trkpt>
      <trkpt lat="45.84825" lon="0.75831">
        <ele>214.95086669922</ele>
        <time>2020-06-19T14:01:54.335Z</time>
      </trkpt>
      <trkpt lat="45.84835" lon="0.75906">
        <ele>215.73040771484</ele>
        <time>2020-06-19T14:02:00.321Z</time>
      </trkpt>
      <trkpt lat="45.84842" lon="0.75967">
        <ele>215.26469421387</ele>
        <time>2020-06-19T14:02:06.313Z</time>
      </trkpt>
      <trkpt lat="45.84841" lon="0.76021">
        <ele>215.31269836426</ele>
        <time>2020-06-19T14:02:12.312Z</time>
      </trkpt>
      <trkpt lat="45.84834" lon="0.76096">
        <ele>216.31018066406</ele>
        <time>2020-06-19T14:02:18.319Z</time>
      </trkpt>
      <trkpt lat="45.84824" lon="0.76174">
        <ele>218.12855529785</ele>
        <time>2020-06-19T14:02:24.335Z</time>
      </trkpt>
      <trkpt lat="45.84806" lon="0.76262">
        <ele>219.48376464844</ele>
        <time>2020-06-19T14:02:30.361Z</time>
      </trkpt>
      <trkpt lat="45.84805" lon="0.76279">
        <ele>219.71553039551</ele>
        <time>2020-06-19T14:02:36.389Z</time>
      </trkpt>
      <trkpt lat="45.84805" lon="0.76297">
        <ele>219.93148803711</ele>
        <time>2020-06-19T14:02:42.419Z</time>
      </trkpt>
      <trkpt lat="45.84807" lon="0.76305">
        <ele>219.94441223145</ele>
        <time>2020-06-19T14:02:48.450Z</time>
      </trkpt>
      <trkpt lat="45.84805" lon="0.76306">
        <ele>220.02020263672</ele>
        <time>2020-06-19T14:02:54.481Z</time>
      </trkpt>
      <trkpt lat="45.84792" lon="0.76319">
        <ele>220.33215332031</ele>
        <time>2020-06-19T14:03:00.515Z</time>
      </trkpt>
      <trkpt lat="45.84779" lon="0.76333">
        <ele>220.64410400391</ele>
        <time>2020-06-19T14:03:06.551Z</time>
      </trkpt>
      <trkpt lat="45.84778" lon="0.76351">
        <ele>220.66809082031</ele>
        <time>2020-06-19T14:03:12.589Z</time>
      </trkpt>
      <trkpt lat="45.84752" lon="0.76428">
        <ele>221.35899353027</ele>
        <time>2020-06-19T14:03:18.637Z</time>
      </trkpt>
      <trkpt lat="45.84729" lon="0.7648">
        <ele>223.76585388184</ele>
        <time>2020-06-19T14:03:24.692Z</time>
      </trkpt>
      <trkpt lat="45.84715" lon="0.76516">
        <ele>223.82015991211</ele>
        <time>2020-06-19T14:03:30.752Z</time>
      </trkpt>
      <trkpt lat="45.84711" lon="0.76531">
        <ele>223.72416687012</ele>
        <time>2020-06-19T14:03:36.813Z</time>
      </trkpt>
      <trkpt lat="45.84669" lon="0.767">
        <ele>224.38830566406</ele>
        <time>2020-06-19T14:03:42.894Z</time>
      </trkpt>
      <trkpt lat="45.84662" lon="0.76732">
        <ele>224.85623168945</ele>
        <time>2020-06-19T14:03:48.979Z</time>
      </trkpt>
      <trkpt lat="45.84662" lon="0.76752">
        <ele>225.1923828125</ele>
        <time>2020-06-19T14:03:55.066Z</time>
      </trkpt>
      <trkpt lat="45.84663" lon="0.76764">
        <ele>225.45634460449</ele>
        <time>2020-06-19T14:04:01.155Z</time>
      </trkpt>
      <trkpt lat="45.84649" lon="0.76785">
        <ele>226.29620361328</ele>
        <time>2020-06-19T14:04:07.247Z</time>
      </trkpt>
      <trkpt lat="45.84607" lon="0.7685">
        <ele>227.16047668457</ele>
        <time>2020-06-19T14:04:13.349Z</time>
      </trkpt>
      <trkpt lat="45.84586" lon="0.76871">
        <ele>228.0320892334</ele>
        <time>2020-06-19T14:04:19.455Z</time>
      </trkpt>
      <trkpt lat="45.8453" lon="0.76904">
        <ele>229.69770812988</ele>
        <time>2020-06-19T14:04:25.571Z</time>
      </trkpt>
      <trkpt lat="45.8451" lon="0.76916">
        <ele>230.22561645508</ele>
        <time>2020-06-19T14:04:31.690Z</time>
      </trkpt>
      <trkpt lat="45.84504" lon="0.76922">
        <ele>230.41003417969</ele>
        <time>2020-06-19T14:04:37.810Z</time>
      </trkpt>
      <trkpt lat="45.84497" lon="0.76931">
        <ele>230.51802062988</ele>
        <time>2020-06-19T14:04:43.932Z</time>
      </trkpt>
      <trkpt lat="45.84492" lon="0.76938">
        <ele>230.60200500488</ele>
        <time>2020-06-19T14:04:50.055Z</time>
      </trkpt>
      <trkpt lat="45.84486" lon="0.76956">
        <ele>230.81797790527</ele>
        <time>2020-06-19T14:04:56.180Z</time>
      </trkpt>
      <trkpt lat="45.84481" lon="0.76979">
        <ele>230.81214904785</ele>
        <time>2020-06-19T14:05:02.308Z</time>
      </trkpt>
      <trkpt lat="45.84477" lon="0.76998">
        <ele>231.15821838379</ele>
        <time>2020-06-19T14:05:08.438Z</time>
      </trkpt>
      <trkpt lat="45.84472" lon="0.77027">
        <ele>231.7078704834</ele>
        <time>2020-06-19T14:05:14.571Z</time>
      </trkpt>
      <trkpt lat="45.8447" lon="0.77034">
        <ele>231.95983886719</ele>
        <time>2020-06-19T14:05:20.705Z</time>
      </trkpt>
      <trkpt lat="45.84474" lon="0.77035">
        <ele>231.71012878418</ele>
        <time>2020-06-19T14:05:26.840Z</time>
      </trkpt>
      <trkpt lat="45.84471" lon="0.77109">
        <ele>234.1178894043</ele>
        <time>2020-06-19T14:05:32.983Z</time>
      </trkpt>
      <trkpt lat="45.84465" lon="0.77189">
        <ele>236.32887268066</ele>
        <time>2020-06-19T14:05:39.135Z</time>
      </trkpt>
      <trkpt lat="45.84455" lon="0.77269">
        <ele>238.03915405273</ele>
        <time>2020-06-19T14:05:45.296Z</time>
      </trkpt>
      <trkpt lat="45.84446" lon="0.77322">
        <ele>238.05325317383</ele>
        <time>2020-06-19T14:05:51.463Z</time>
      </trkpt>
      <trkpt lat="45.8443" lon="0.77381">
        <ele>238.1470489502</ele>
        <time>2020-06-19T14:05:57.637Z</time>
      </trkpt>
      <trkpt lat="45.84422" lon="0.77398">
        <ele>237.7893371582</ele>
        <time>2020-06-19T14:06:03.814Z</time>
      </trkpt>
      <trkpt lat="45.84398" lon="0.77452">
        <ele>237.21342468262</ele>
        <time>2020-06-19T14:06:09.998Z</time>
      </trkpt>
      <trkpt lat="45.84378" lon="0.77493">
        <ele>236.72790527344</ele>
        <time>2020-06-19T14:06:16.188Z</time>
      </trkpt>
      <trkpt lat="45.84358" lon="0.77531">
        <ele>236.31402587891</ele>
        <time>2020-06-19T14:06:22.383Z</time>
      </trkpt>
      <trkpt lat="45.84319" lon="0.77624">
        <ele>236.15037536621</ele>
        <time>2020-06-19T14:06:28.590Z</time>
      </trkpt>
      <trkpt lat="45.84302" lon="0.77664">
        <ele>236.62510681152</ele>
        <time>2020-06-19T14:06:34.802Z</time>
      </trkpt>
      <trkpt lat="45.84273" lon="0.77719">
        <ele>237.57940673828</ele>
        <time>2020-06-19T14:06:41.022Z</time>
      </trkpt>
      <trkpt lat="45.8425" lon="0.7776">
        <ele>238.72410583496</ele>
        <time>2020-06-19T14:06:47.248Z</time>
      </trkpt>
      <trkpt lat="45.84242" lon="0.77777">
        <ele>239.24002075195</ele>
        <time>2020-06-19T14:06:53.476Z</time>
      </trkpt>
      <trkpt lat="45.84216" lon="0.77835">
        <ele>240.49766540527</ele>
        <time>2020-06-19T14:06:59.712Z</time>
      </trkpt>
      <trkpt lat="45.84193" lon="0.7789">
        <ele>239.85862731934</ele>
        <time>2020-06-19T14:07:05.955Z</time>
      </trkpt>
      <trkpt lat="45.84185" lon="0.77926">
        <ele>238.85079956055</ele>
        <time>2020-06-19T14:07:12.202Z</time>
      </trkpt>
      <trkpt lat="45.84171" lon="0.78019">
        <ele>233.53848266602</ele>
        <time>2020-06-19T14:07:18.460Z</time>
      </trkpt>
      <trkpt lat="45.84159" lon="0.78074">
        <ele>231.21086120605</ele>
        <time>2020-06-19T14:07:24.724Z</time>
      </trkpt>
      <trkpt lat="45.8415" lon="0.78121">
        <ele>230.65605163574</ele>
        <time>2020-06-19T14:07:30.994Z</time>
      </trkpt>
      <trkpt lat="45.84147" lon="0.78143">
        <ele>230.53567504883</ele>
        <time>2020-06-19T14:07:37.266Z</time>
      </trkpt>
      <trkpt lat="45.84145" lon="0.78185">
        <ele>230.42730712891</ele>
        <time>2020-06-19T14:07:43.543Z</time>
      </trkpt>
      <trkpt lat="45.84141" lon="0.78213">
        <ele>230.13935852051</ele>
        <time>2020-06-19T14:07:49.823Z</time>
      </trkpt>
      <trkpt lat="45.84135" lon="0.78233">
        <ele>230.08378601074</ele>
        <time>2020-06-19T14:07:56.106Z</time>
      </trkpt>
      <trkpt lat="45.84127" lon="0.78247">
        <ele>230.03579711914</ele>
        <time>2020-06-19T14:08:02.391Z</time>
      </trkpt>
      <trkpt lat="45.84133" lon="0.78262">
        <ele>230.68370056152</ele>
        <time>2020-06-19T14:08:08.678Z</time>
      </trkpt>
      <trkpt lat="45.84142" lon="0.78284">
        <ele>231.60830688477</ele>
        <time>2020-06-19T14:08:14.967Z</time>
      </trkpt>
      <trkpt lat="45.8415" lon="0.78307">
        <ele>232.39363098145</ele>
        <time>2020-06-19T14:08:21.259Z</time>
      </trkpt>
      <trkpt lat="45.84166" lon="0.78359">
        <ele>232.96952819824</ele>
        <time>2020-06-19T14:08:27.558Z</time>
      </trkpt>
      <trkpt lat="45.84197" lon="0.7838">
        <ele>234.08534240723</ele>
        <time>2020-06-19T14:08:33.862Z</time>
      </trkpt>
      <trkpt lat="45.84197" lon="0.78379">
        <ele>234.08534240723</ele>
        <time>2020-06-19T14:08:40.166Z</time>
      </trkpt>
      <trkpt lat="45.84232" lon="0.78394">
        <ele>235.27403259277</ele>
        <time>2020-06-19T14:08:46.476Z</time>
      </trkpt>
      <trkpt lat="45.843" lon="0.78419">
        <ele>237.42167663574</ele>
        <time>2020-06-19T14:08:52.797Z</time>
      </trkpt>
      <trkpt lat="45.84317" lon="0.78433">
        <ele>237.86560058594</ele>
        <time>2020-06-19T14:08:59.121Z</time>
      </trkpt>
      <trkpt lat="45.84335" lon="0.7846">
        <ele>238.18955993652</ele>
        <time>2020-06-19T14:09:05.450Z</time>
      </trkpt>
      <trkpt lat="45.84378" lon="0.78541">
        <ele>240.43505859375</ele>
        <time>2020-06-19T14:09:11.790Z</time>
      </trkpt>
      <trkpt lat="45.84387" lon="0.78558">
        <ele>240.95121765137</ele>
        <time>2020-06-19T14:09:18.132Z</time>
      </trkpt>
      <trkpt lat="45.84426" lon="0.78629">
        <ele>242.78125</ele>
        <time>2020-06-19T14:09:24.485Z</time>
      </trkpt>
      <trkpt lat="45.84443" lon="0.78664">
        <ele>243.31056213379</ele>
        <time>2020-06-19T14:09:30.842Z</time>
      </trkpt>
      <trkpt lat="45.8446" lon="0.78717">
        <ele>243.94645690918</ele>
        <time>2020-06-19T14:09:37.206Z</time>
      </trkpt>
      <trkpt lat="45.84496" lon="0.78845">
        <ele>244.43496704102</ele>
        <time>2020-06-19T14:09:43.585Z</time>
      </trkpt>
      <trkpt lat="45.84499" lon="0.78852">
        <ele>244.36297607422</ele>
        <time>2020-06-19T14:09:49.965Z</time>
      </trkpt>
      <trkpt lat="45.84512" lon="0.7888">
        <ele>244.05102539062</ele>
        <time>2020-06-19T14:09:56.349Z</time>
      </trkpt>
      <trkpt lat="45.84511" lon="0.78884">
        <ele>244.07502746582</ele>
        <time>2020-06-19T14:10:02.733Z</time>
      </trkpt>
      <trkpt lat="45.84502" lon="0.78908">
        <ele>244.29098510742</ele>
        <time>2020-06-19T14:10:09.120Z</time>
      </trkpt>
      <trkpt lat="45.84415" lon="0.79131">
        <ele>242</ele>
        <time>2020-06-19T14:10:15.536Z</time>
      </trkpt>
      <trkpt lat="45.84386" lon="0.79202">
        <ele>241.92547607422</ele>
        <time>2020-06-19T14:10:21.961Z</time>
      </trkpt>
      <trkpt lat="45.84374" lon="0.79229">
        <ele>242.08703613281</ele>
        <time>2020-06-19T14:10:28.390Z</time>
      </trkpt>
      <trkpt lat="45.84358" lon="0.79257">
        <ele>242.9029083252</ele>
        <time>2020-06-19T14:10:34.823Z</time>
      </trkpt>
      <trkpt lat="45.84325" lon="0.79303">
        <ele>243.41627502441</ele>
        <time>2020-06-19T14:10:41.263Z</time>
      </trkpt>
      <trkpt lat="45.84246" lon="0.79406">
        <ele>244.13531494141</ele>
        <time>2020-06-19T14:10:47.720Z</time>
      </trkpt>
      <trkpt lat="45.84177" lon="0.79497">
        <ele>244.82498168945</ele>
        <time>2020-06-19T14:10:54.192Z</time>
      </trkpt>
      <trkpt lat="45.84147" lon="0.79538">
        <ele>244.87925720215</ele>
        <time>2020-06-19T14:11:00.671Z</time>
      </trkpt>
      <trkpt lat="45.84134" lon="0.79556">
        <ele>244.69619750977</ele>
        <time>2020-06-19T14:11:07.153Z</time>
      </trkpt>
      <trkpt lat="45.84088" lon="0.7964">
        <ele>241.95727539062</ele>
        <time>2020-06-19T14:11:13.647Z</time>
      </trkpt>
      <trkpt lat="45.84087" lon="0.79643">
        <ele>241.93327331543</ele>
        <time>2020-06-19T14:11:20.141Z</time>
      </trkpt>
      <trkpt lat="45.83972" lon="0.79864">
        <ele>242.09785461426</ele>
        <time>2020-06-19T14:11:26.666Z</time>
      </trkpt>
      <trkpt lat="45.83932" lon="0.79943">
        <ele>241.92150878906</ele>
        <time>2020-06-19T14:11:33.202Z</time>
      </trkpt>
      <trkpt lat="45.83924" lon="0.79968">
        <ele>241.84951782227</ele>
        <time>2020-06-19T14:11:39.741Z</time>
      </trkpt>
      <trkpt lat="45.83917" lon="0.79997">
        <ele>241.34973144531</ele>
        <time>2020-06-19T14:11:46.283Z</time>
      </trkpt>
      <trkpt lat="45.83901" lon="0.801">
        <ele>237.2783203125</ele>
        <time>2020-06-19T14:11:52.837Z</time>
      </trkpt>
      <trkpt lat="45.83894" lon="0.8014">
        <ele>234.53839111328</ele>
        <time>2020-06-19T14:11:59.396Z</time>
      </trkpt>
      <trkpt lat="45.83889" lon="0.8016">
        <ele>233.4800567627</ele>
        <time>2020-06-19T14:12:05.957Z</time>
      </trkpt>
      <trkpt lat="45.83875" lon="0.80194">
        <ele>232.16027832031</ele>
        <time>2020-06-19T14:12:12.523Z</time>
      </trkpt>
      <trkpt lat="45.8385" lon="0.80241">
        <ele>228.96482849121</ele>
        <time>2020-06-19T14:12:19.095Z</time>
      </trkpt>
      <trkpt lat="45.83835" lon="0.80266">
        <ele>227.16513061523</ele>
        <time>2020-06-19T14:12:25.671Z</time>
      </trkpt>
      <trkpt lat="45.83818" lon="0.80292">
        <ele>225.20945739746</ele>
        <time>2020-06-19T14:12:32.251Z</time>
      </trkpt>
      <trkpt lat="45.83806" lon="0.8032">
        <ele>223.82855224609</ele>
        <time>2020-06-19T14:12:38.835Z</time>
      </trkpt>
      <trkpt lat="45.83783" lon="0.80374">
        <ele>222.92633056641</ele>
        <time>2020-06-19T14:12:45.426Z</time>
      </trkpt>
      <trkpt lat="45.83755" lon="0.80451">
        <ele>227.72190856934</ele>
        <time>2020-06-19T14:12:52.026Z</time>
      </trkpt>
      <trkpt lat="45.83733" lon="0.80509">
        <ele>231.78747558594</ele>
        <time>2020-06-19T14:12:58.634Z</time>
      </trkpt>
      <trkpt lat="45.83714" lon="0.80546">
        <ele>233.46325683594</ele>
        <time>2020-06-19T14:13:05.247Z</time>
      </trkpt>
      <trkpt lat="45.83659" lon="0.80616">
        <ele>233.93161010742</ele>
        <time>2020-06-19T14:13:11.872Z</time>
      </trkpt>
      <trkpt lat="45.83624" lon="0.80657">
        <ele>232.28103637695</ele>
        <time>2020-06-19T14:13:18.504Z</time>
      </trkpt>
      <trkpt lat="45.83597" lon="0.80692">
        <ele>230.83906555176</ele>
        <time>2020-06-19T14:13:25.142Z</time>
      </trkpt>
      <trkpt lat="45.83545" lon="0.80773">
        <ele>227.4896697998</ele>
        <time>2020-06-19T14:13:31.792Z</time>
      </trkpt>
      <trkpt lat="45.83518" lon="0.80817">
        <ele>225.31561279297</ele>
        <time>2020-06-19T14:13:38.449Z</time>
      </trkpt>
      <trkpt lat="45.83473" lon="0.80889">
        <ele>221.02203369141</ele>
        <time>2020-06-19T14:13:45.116Z</time>
      </trkpt>
      <trkpt lat="45.83458" lon="0.80913">
        <ele>220.41188049316</ele>
        <time>2020-06-19T14:13:51.787Z</time>
      </trkpt>
      <trkpt lat="45.83428" lon="0.8097">
        <ele>218.53482055664</ele>
        <time>2020-06-19T14:13:58.466Z</time>
      </trkpt>
      <trkpt lat="45.83399" lon="0.81035">
        <ele>217.87928771973</ele>
        <time>2020-06-19T14:14:05.154Z</time>
      </trkpt>
      <trkpt lat="45.83389" lon="0.81055">
        <ele>217.99926757812</ele>
        <time>2020-06-19T14:14:11.844Z</time>
      </trkpt>
      <trkpt lat="45.83376" lon="0.81074">
        <ele>218.74771118164</ele>
        <time>2020-06-19T14:14:18.537Z</time>
      </trkpt>
      <trkpt lat="45.83371" lon="0.81079">
        <ele>218.92767333984</ele>
        <time>2020-06-19T14:14:25.231Z</time>
      </trkpt>
      <trkpt lat="45.8336" lon="0.81085">
        <ele>219.08364868164</ele>
        <time>2020-06-19T14:14:31.927Z</time>
      </trkpt>
      <trkpt lat="45.83341" lon="0.8109">
        <ele>219.09564208984</ele>
        <time>2020-06-19T14:14:38.626Z</time>
      </trkpt>
      <trkpt lat="45.83319" lon="0.81095">
        <ele>219.38847351074</ele>
        <time>2020-06-19T14:14:45.329Z</time>
      </trkpt>
      <trkpt lat="45.83306" lon="0.81101">
        <ele>219.74841308594</ele>
        <time>2020-06-19T14:14:52.034Z</time>
      </trkpt>
      <trkpt lat="45.83288" lon="0.81113">
        <ele>221.52363586426</ele>
        <time>2020-06-19T14:14:58.742Z</time>
      </trkpt>
      <trkpt lat="45.83276" lon="0.81124">
        <ele>222.90341186523</ele>
        <time>2020-06-19T14:15:05.452Z</time>
      </trkpt>
      <trkpt lat="45.83252" lon="0.81153">
        <ele>225.90930175781</ele>
        <time>2020-06-19T14:15:12.168Z</time>
      </trkpt>
      <trkpt lat="45.83221" lon="0.81196">
        <ele>230.46240234375</ele>
        <time>2020-06-19T14:15:18.890Z</time>
      </trkpt>
      <trkpt lat="45.83199" lon="0.81237">
        <ele>231.7211151123</ele>
        <time>2020-06-19T14:15:25.618Z</time>
      </trkpt>
      <trkpt lat="45.83115" lon="0.81401">
        <ele>231.44725036621</ele>
        <time>2020-06-19T14:15:32.369Z</time>
      </trkpt>
      <trkpt lat="45.83057" lon="0.81509">
        <ele>233.90713500977</ele>
        <time>2020-06-19T14:15:39.135Z</time>
      </trkpt>
      <trkpt lat="45.83012" lon="0.81593">
        <ele>234.86036682129</ele>
        <time>2020-06-19T14:15:45.913Z</time>
      </trkpt>
      <trkpt lat="45.82993" lon="0.81631">
        <ele>235.31629943848</ele>
        <time>2020-06-19T14:15:52.696Z</time>
      </trkpt>
      <trkpt lat="45.82968" lon="0.81684">
        <ele>236.13946533203</ele>
        <time>2020-06-19T14:15:59.486Z</time>
      </trkpt>
      <trkpt lat="45.82939" lon="0.81728">
        <ele>236.89135742188</ele>
        <time>2020-06-19T14:16:06.283Z</time>
      </trkpt>
      <trkpt lat="45.82887" lon="0.81802">
        <ele>239.86338806152</ele>
        <time>2020-06-19T14:16:13.092Z</time>
      </trkpt>
      <trkpt lat="45.82848" lon="0.81856">
        <ele>241.33433532715</ele>
        <time>2020-06-19T14:16:19.910Z</time>
      </trkpt>
      <trkpt lat="45.82843" lon="0.81863">
        <ele>241.52630615234</ele>
        <time>2020-06-19T14:16:26.729Z</time>
      </trkpt>
      <trkpt lat="45.82832" lon="0.81869">
        <ele>241.61029052734</ele>
        <time>2020-06-19T14:16:33.550Z</time>
      </trkpt>
      <trkpt lat="45.82796" lon="0.8189">
        <ele>242.21072387695</ele>
        <time>2020-06-19T14:16:40.377Z</time>
      </trkpt>
      <trkpt lat="45.82749" lon="0.81928">
        <ele>245.06010437012</ele>
        <time>2020-06-19T14:16:47.212Z</time>
      </trkpt>
      <trkpt lat="45.82722" lon="0.81956">
        <ele>245.42973327637</ele>
        <time>2020-06-19T14:16:54.053Z</time>
      </trkpt>
      <trkpt lat="45.82702" lon="0.81972">
        <ele>246.96734619141</ele>
        <time>2020-06-19T14:17:00.897Z</time>
      </trkpt>
      <trkpt lat="45.82667" lon="0.81986">
        <ele>249.15104675293</ele>
        <time>2020-06-19T14:17:07.747Z</time>
      </trkpt>
      <trkpt lat="45.8259" lon="0.82009">
        <ele>249.44386291504</ele>
        <time>2020-06-19T14:17:14.610Z</time>
      </trkpt>
      <trkpt lat="45.8257" lon="0.82014">
        <ele>249.50386047363</ele>
        <time>2020-06-19T14:17:21.476Z</time>
      </trkpt>
      <trkpt lat="45.82552" lon="0.82017">
        <ele>249.53985595703</ele>
        <time>2020-06-19T14:17:28.345Z</time>
      </trkpt>
      <trkpt lat="45.8255" lon="0.82017">
        <ele>249.53985595703</ele>
        <time>2020-06-19T14:17:35.214Z</time>
      </trkpt>
      <trkpt lat="45.82541" lon="0.82019">
        <ele>249.56384277344</ele>
        <time>2020-06-19T14:17:42.085Z</time>
      </trkpt>
      <trkpt lat="45.82535" lon="0.82025">
        <ele>249.63583374023</ele>
        <time>2020-06-19T14:17:48.957Z</time>
      </trkpt>
      <trkpt lat="45.82524" lon="0.82022">
        <ele>249.59983825684</ele>
        <time>2020-06-19T14:17:55.831Z</time>
      </trkpt>
      <trkpt lat="45.82486" lon="0.82021">
        <ele>248.32392883301</ele>
        <time>2020-06-19T14:18:02.711Z</time>
      </trkpt>
      <trkpt lat="45.82475" lon="0.82022">
        <ele>247.90399169922</ele>
        <time>2020-06-19T14:18:09.593Z</time>
      </trkpt>
      <trkpt lat="45.82455" lon="0.82029">
        <ele>247.8377532959</ele>
        <time>2020-06-19T14:18:16.478Z</time>
      </trkpt>
      <trkpt lat="45.82444" lon="0.82034">
        <ele>247.8497467041</ele>
        <time>2020-06-19T14:18:23.365Z</time>
      </trkpt>
      <trkpt lat="45.82443" lon="0.82025">
        <ele>248.0777130127</ele>
        <time>2020-06-19T14:18:30.253Z</time>
      </trkpt>
      <trkpt lat="45.82441" lon="0.82011">
        <ele>248.43765258789</ele>
        <time>2020-06-19T14:18:37.142Z</time>
      </trkpt>
      <trkpt lat="45.82439" lon="0.82005">
        <ele>248.60562133789</ele>
        <time>2020-06-19T14:18:44.032Z</time>
      </trkpt>
      <trkpt lat="45.82435" lon="0.82005">
        <ele>248.65361022949</ele>
        <time>2020-06-19T14:18:50.923Z</time>
      </trkpt>
      <trkpt lat="45.82394" lon="0.81994">
        <ele>249.40948486328</ele>
        <time>2020-06-19T14:18:57.820Z</time>
      </trkpt>
      <trkpt lat="45.82324" lon="0.81972">
        <ele>248.44525146484</ele>
        <time>2020-06-19T14:19:04.729Z</time>
      </trkpt>
      <trkpt lat="45.82261" lon="0.81951">
        <ele>244.1328125</ele>
        <time>2020-06-19T14:19:11.648Z</time>
      </trkpt>
      <trkpt lat="45.82209" lon="0.81933">
        <ele>241.57272338867</ele>
        <time>2020-06-19T14:19:18.576Z</time>
      </trkpt>
      <trkpt lat="45.82207" lon="0.81932">
        <ele>241.58473205566</ele>
        <time>2020-06-19T14:19:25.504Z</time>
      </trkpt>
      <trkpt lat="45.82203" lon="0.81924">
        <ele>240.96083068848</ele>
        <time>2020-06-19T14:19:32.433Z</time>
      </trkpt>
      <trkpt lat="45.82203" lon="0.81891">
        <ele>237.39743041992</ele>
        <time>2020-06-19T14:19:39.366Z</time>
      </trkpt>
      <trkpt lat="45.82201" lon="0.81872">
        <ele>235.26588439941</ele>
        <time>2020-06-19T14:19:46.301Z</time>
      </trkpt>
      <trkpt lat="45.82198" lon="0.8186">
        <ele>233.78631591797</ele>
        <time>2020-06-19T14:19:53.238Z</time>
      </trkpt>
      <trkpt lat="45.82184" lon="0.81838">
        <ele>231.6026763916</ele>
        <time>2020-06-19T14:20:00.178Z</time>
      </trkpt>
      <trkpt lat="45.82168" lon="0.81821">
        <ele>230.47486877441</ele>
        <time>2020-06-19T14:20:07.121Z</time>
      </trkpt>
      <trkpt lat="45.82153" lon="0.81809">
        <ele>230.07893371582</ele>
        <time>2020-06-19T14:20:14.067Z</time>
      </trkpt>
      <trkpt lat="45.8212" lon="0.81788">
        <ele>226.46490478516</ele>
        <time>2020-06-19T14:20:21.019Z</time>
      </trkpt>
      <trkpt lat="45.82091" lon="0.81777">
        <ele>223.99331665039</ele>
        <time>2020-06-19T14:20:27.975Z</time>
      </trkpt>
      <trkpt lat="45.82065" lon="0.81769">
        <ele>222.31359863281</ele>
        <time>2020-06-19T14:20:34.936Z</time>
      </trkpt>
      <trkpt lat="45.82042" lon="0.81767">
        <ele>220.84442138672</ele>
        <time>2020-06-19T14:20:41.900Z</time>
      </trkpt>
      <trkpt lat="45.82032" lon="0.81767">
        <ele>220.00454711914</ele>
        <time>2020-06-19T14:20:48.866Z</time>
      </trkpt>
      <trkpt lat="45.82015" lon="0.81771">
        <ele>218.63562011719</ele>
        <time>2020-06-19T14:20:55.835Z</time>
      </trkpt>
      <trkpt lat="45.81994" lon="0.81779">
        <ele>213.95639038086</ele>
        <time>2020-06-19T14:21:02.807Z</time>
      </trkpt>
      <trkpt lat="45.81981" lon="0.8179">
        <ele>211.71276855469</ele>
        <time>2020-06-19T14:21:09.782Z</time>
      </trkpt>
      <trkpt lat="45.81973" lon="0.81804">
        <ele>211.1128692627</ele>
        <time>2020-06-19T14:21:16.759Z</time>
      </trkpt>
      <trkpt lat="45.81969" lon="0.81821">
        <ele>208.46182250977</ele>
        <time>2020-06-19T14:21:23.738Z</time>
      </trkpt>
      <trkpt lat="45.81968" lon="0.81833">
        <ele>206.80610656738</ele>
        <time>2020-06-19T14:21:30.718Z</time>
      </trkpt>
      <trkpt lat="45.81966" lon="0.8184">
        <ele>205.5343170166</ele>
        <time>2020-06-19T14:21:37.699Z</time>
      </trkpt>
      <trkpt lat="45.81962" lon="0.81843">
        <ele>204.31051635742</ele>
        <time>2020-06-19T14:21:44.681Z</time>
      </trkpt>
      <trkpt lat="45.81973" lon="0.81867">
        <ele>203.98004150391</ele>
        <time>2020-06-19T14:21:51.666Z</time>
      </trkpt>
      <trkpt lat="45.81992" lon="0.819">
        <ele>206.18258666992</ele>
        <time>2020-06-19T14:21:58.656Z</time>
      </trkpt>
      <trkpt lat="45.82001" lon="0.8192">
        <ele>205.31781005859</ele>
        <time>2020-06-19T14:22:05.648Z</time>
      </trkpt>
      <trkpt lat="45.82016" lon="0.81981">
        <ele>204.22575378418</ele>
        <time>2020-06-19T14:22:12.647Z</time>
      </trkpt>
      <trkpt lat="45.8203" lon="0.82045">
        <ele>205.64227294922</ele>
        <time>2020-06-19T14:22:19.654Z</time>
      </trkpt>
      <trkpt lat="45.82034" lon="0.8207">
        <ele>207.61215209961</ele>
        <time>2020-06-19T14:22:26.664Z</time>
      </trkpt>
      <trkpt lat="45.82032" lon="0.82089">
        <ele>208.7759552002</ele>
        <time>2020-06-19T14:22:33.676Z</time>
      </trkpt>
      <trkpt lat="45.82025" lon="0.82111">
        <ele>208.98307800293</ele>
        <time>2020-06-19T14:22:40.691Z</time>
      </trkpt>
      <trkpt lat="45.82002" lon="0.82164">
        <ele>205.1233215332</ele>
        <time>2020-06-19T14:22:47.713Z</time>
      </trkpt>
      <trkpt lat="45.8199" lon="0.82192">
        <ele>203.72360229492</ele>
        <time>2020-06-19T14:22:54.738Z</time>
      </trkpt>
      <trkpt lat="45.81977" lon="0.82233">
        <ele>202.94467163086</ele>
        <time>2020-06-19T14:23:01.768Z</time>
      </trkpt>
      <trkpt lat="45.81969" lon="0.82272">
        <ele>205.39401245117</ele>
        <time>2020-06-19T14:23:08.803Z</time>
      </trkpt>
      <trkpt lat="45.81932" lon="0.82373">
        <ele>203.93658447266</ele>
        <time>2020-06-19T14:23:15.851Z</time>
      </trkpt>
      <trkpt lat="45.81921" lon="0.82417">
        <ele>201.18550109863</ele>
        <time>2020-06-19T14:23:22.904Z</time>
      </trkpt>
      <trkpt lat="45.81915" lon="0.8244">
        <ele>199.5051574707</ele>
        <time>2020-06-19T14:23:29.960Z</time>
      </trkpt>
      <trkpt lat="45.8191" lon="0.82451">
        <ele>198.34135437012</ele>
        <time>2020-06-19T14:23:37.017Z</time>
      </trkpt>
      <trkpt lat="45.81907" lon="0.82456">
        <ele>197.68147277832</ele>
        <time>2020-06-19T14:23:44.075Z</time>
      </trkpt>
      <trkpt lat="45.81899" lon="0.82444">
        <ele>196.52966308594</ele>
        <time>2020-06-19T14:23:51.135Z</time>
      </trkpt>
      <trkpt lat="45.81882" lon="0.82419">
        <ele>195.67518615723</ele>
        <time>2020-06-19T14:23:58.199Z</time>
      </trkpt>
      <trkpt lat="45.8186" lon="0.82394">
        <ele>197.5948638916</ele>
        <time>2020-06-19T14:24:05.267Z</time>
      </trkpt>
      <trkpt lat="45.81855" lon="0.82387">
        <ele>198.18811035156</ele>
        <time>2020-06-19T14:24:12.336Z</time>
      </trkpt>
      <trkpt lat="45.81847" lon="0.82363">
        <ele>200.97164916992</ele>
        <time>2020-06-19T14:24:19.408Z</time>
      </trkpt>
      <trkpt lat="45.81843" lon="0.82333">
        <ele>202.88510131836</ele>
        <time>2020-06-19T14:24:26.484Z</time>
      </trkpt>
      <trkpt lat="45.81852" lon="0.82271">
        <ele>198.95231628418</ele>
        <time>2020-06-19T14:24:33.567Z</time>
      </trkpt>
      <trkpt lat="45.81854" lon="0.82228">
        <ele>196.52871704102</ele>
        <time>2020-06-19T14:24:40.655Z</time>
      </trkpt>
      <trkpt lat="45.81853" lon="0.82221">
        <ele>196.30996704102</ele>
        <time>2020-06-19T14:24:47.743Z</time>
      </trkpt>
      <trkpt lat="45.81851" lon="0.82211">
        <ele>195.59008789062</ele>
        <time>2020-06-19T14:24:54.832Z</time>
      </trkpt>
      <trkpt lat="45.81842" lon="0.82194">
        <ele>195.37411499023</ele>
        <time>2020-06-19T14:25:01.924Z</time>
      </trkpt>
      <trkpt lat="45.81836" lon="0.82186">
        <ele>195.59008789062</ele>
        <time>2020-06-19T14:25:09.017Z</time>
      </trkpt>
      <trkpt lat="45.81825" lon="0.82179">
        <ele>196.81387329102</ele>
        <time>2020-06-19T14:25:16.112Z</time>
      </trkpt>
      <trkpt lat="45.8181" lon="0.82174">
        <ele>198.97352600098</ele>
        <time>2020-06-19T14:25:23.210Z</time>
      </trkpt>
      <trkpt lat="45.81792" lon="0.82171">
        <ele>200.44834899902</ele>
        <time>2020-06-19T14:25:30.310Z</time>
      </trkpt>
      <trkpt lat="45.81788" lon="0.82162">
        <ele>199.76446533203</ele>
        <time>2020-06-19T14:25:37.412Z</time>
      </trkpt>
      <trkpt lat="45.81781" lon="0.82149">
        <ele>198.86460876465</ele>
        <time>2020-06-19T14:25:44.516Z</time>
      </trkpt>
      <trkpt lat="45.81761" lon="0.82116">
        <ele>197.28565979004</ele>
        <time>2020-06-19T14:25:51.624Z</time>
      </trkpt>
      <trkpt lat="45.81722" lon="0.82053">
        <ele>195.45184326172</ele>
        <time>2020-06-19T14:25:58.742Z</time>
      </trkpt>
      <trkpt lat="45.81705" lon="0.82029">
        <ele>197.40803527832</ele>
        <time>2020-06-19T14:26:05.864Z</time>
      </trkpt>
      <trkpt lat="45.81694" lon="0.82018">
        <ele>197.80397033691</ele>
        <time>2020-06-19T14:26:12.988Z</time>
      </trkpt>
      <trkpt lat="45.81676" lon="0.82005">
        <ele>197.49201965332</ele>
        <time>2020-06-19T14:26:20.115Z</time>
      </trkpt>
      <trkpt lat="45.81621" lon="0.81978">
        <ele>197.71228027344</ele>
        <time>2020-06-19T14:26:27.251Z</time>
      </trkpt>
      <trkpt lat="45.81613" lon="0.81973">
        <ele>197.95223999023</ele>
        <time>2020-06-19T14:26:34.389Z</time>
      </trkpt>
      <trkpt lat="45.81604" lon="0.81963">
        <ele>198.64823913574</ele>
        <time>2020-06-19T14:26:41.529Z</time>
      </trkpt>
      <trkpt lat="45.81589" lon="0.81939">
        <ele>200.37594604492</ele>
        <time>2020-06-19T14:26:48.672Z</time>
      </trkpt>
      <trkpt lat="45.81582" lon="0.8192">
        <ele>201.7437286377</ele>
        <time>2020-06-19T14:26:55.818Z</time>
      </trkpt>
      <trkpt lat="45.81579" lon="0.8191">
        <ele>202.68988037109</ele>
        <time>2020-06-19T14:27:02.965Z</time>
      </trkpt>
      <trkpt lat="45.81573" lon="0.81869">
        <ele>206.17060852051</ele>
        <time>2020-06-19T14:27:10.116Z</time>
      </trkpt>
      <trkpt lat="45.81565" lon="0.81841">
        <ele>206.07461547852</ele>
        <time>2020-06-19T14:27:17.271Z</time>
      </trkpt>
      <trkpt lat="45.81559" lon="0.81827">
        <ele>205.83465576172</ele>
        <time>2020-06-19T14:27:24.428Z</time>
      </trkpt>
      <trkpt lat="45.81554" lon="0.81832">
        <ele>205.32835388184</ele>
        <time>2020-06-19T14:27:31.586Z</time>
      </trkpt>
      <trkpt lat="45.81557" lon="0.81837">
        <ele>205.40272521973</ele>
        <time>2020-06-19T14:30:45.000Z</time>
      </trkpt>
      <trkpt lat="45.81557" lon="0.81837">
        <ele>205.40272521973</ele>
        <time>2020-06-19T14:30:45.000Z</time>
      </trkpt>
      <trkpt lat="45.81564" lon="0.81856">
        <ele>205.61869812012</ele>
        <time>2020-06-19T14:30:45.002Z</time>
      </trkpt>
      <trkpt lat="45.81569" lon="0.81889">
        <ele>205.25744628906</ele>
        <time>2020-06-19T14:30:45.008Z</time>
      </trkpt>
      <trkpt lat="45.81571" lon="0.81909">
        <ele>202.53559875488</ele>
        <time>2020-06-19T14:30:45.016Z</time>
      </trkpt>
      <trkpt lat="45.8158" lon="0.81937">
        <ele>200.51992797852</ele>
        <time>2020-06-19T14:30:45.028Z</time>
      </trkpt>
      <trkpt lat="45.81592" lon="0.81955">
        <ele>199.22415161133</ele>
        <time>2020-06-19T14:30:45.043Z</time>
      </trkpt>
      <trkpt lat="45.816" lon="0.81964">
        <ele>198.57624816895</ele>
        <time>2020-06-19T14:30:45.059Z</time>
      </trkpt>
      <trkpt lat="45.81607" lon="0.81968">
        <ele>198.28829956055</ele>
        <time>2020-06-19T14:30:45.077Z</time>
      </trkpt>
      <trkpt lat="45.81629" lon="0.81983">
        <ele>197.47232055664</ele>
        <time>2020-06-19T14:30:45.098Z</time>
      </trkpt>
      <trkpt lat="45.81685" lon="0.82011">
        <ele>197.74397277832</ele>
        <time>2020-06-19T14:30:45.129Z</time>
      </trkpt>
      <trkpt lat="45.81704" lon="0.82028">
        <ele>197.44401550293</ele>
        <time>2020-06-19T14:30:45.163Z</time>
      </trkpt>
      <trkpt lat="45.81714" lon="0.8204">
        <ele>196.70014953613</ele>
        <time>2020-06-19T14:30:45.200Z</time>
      </trkpt>
      <trkpt lat="45.8174" lon="0.82081">
        <ele>195.85702514648</ele>
        <time>2020-06-19T14:30:45.243Z</time>
      </trkpt>
      <trkpt lat="45.8174" lon="0.82081">
        <ele>195.85789489746</ele>
        <time>2020-06-19T14:30:45.286Z</time>
      </trkpt>
      <trkpt lat="45.8177" lon="0.82129">
        <ele>197.72958374023</ele>
        <time>2020-06-19T14:30:45.336Z</time>
      </trkpt>
      <trkpt lat="45.81785" lon="0.82157">
        <ele>199.44052124023</ele>
        <time>2020-06-19T14:30:45.390Z</time>
      </trkpt>
      <trkpt lat="45.81792" lon="0.82171">
        <ele>200.44834899902</ele>
        <time>2020-06-19T14:30:45.446Z</time>
      </trkpt>
      <trkpt lat="45.8181" lon="0.82174">
        <ele>198.97352600098</ele>
        <time>2020-06-19T14:30:45.505Z</time>
      </trkpt>
      <trkpt lat="45.81825" lon="0.82179">
        <ele>196.81387329102</ele>
        <time>2020-06-19T14:30:45.566Z</time>
      </trkpt>
      <trkpt lat="45.81836" lon="0.82186">
        <ele>195.59008789062</ele>
        <time>2020-06-19T14:30:45.629Z</time>
      </trkpt>
      <trkpt lat="45.81842" lon="0.82194">
        <ele>195.37411499023</ele>
        <time>2020-06-19T14:30:45.693Z</time>
      </trkpt>
      <trkpt lat="45.81851" lon="0.82211">
        <ele>195.59008789062</ele>
        <time>2020-06-19T14:30:45.760Z</time>
      </trkpt>
      <trkpt lat="45.81854" lon="0.82228">
        <ele>196.52871704102</ele>
        <time>2020-06-19T14:30:45.829Z</time>
      </trkpt>
      <trkpt lat="45.81852" lon="0.82271">
        <ele>198.95231628418</ele>
        <time>2020-06-19T14:30:45.903Z</time>
      </trkpt>
      <trkpt lat="45.81838" lon="0.82364">
        <ele>201.41557312012</ele>
        <time>2020-06-19T14:30:45.987Z</time>
      </trkpt>
      <trkpt lat="45.81825" lon="0.82429">
        <ele>198.60748291016</ele>
        <time>2020-06-19T14:30:46.079Z</time>
      </trkpt>
      <trkpt lat="45.81816" lon="0.82475">
        <ele>197.41862487793</ele>
        <time>2020-06-19T14:30:46.176Z</time>
      </trkpt>
      <trkpt lat="45.81815" lon="0.82514">
        <ele>198.0786895752</ele>
        <time>2020-06-19T14:30:46.278Z</time>
      </trkpt>
      <trkpt lat="45.81819" lon="0.8258">
        <ele>198.59120178223</ele>
        <time>2020-06-19T14:30:46.387Z</time>
      </trkpt>
      <trkpt lat="45.81817" lon="0.8261">
        <ele>197.99130249023</ele>
        <time>2020-06-19T14:30:46.499Z</time>
      </trkpt>
      <trkpt lat="45.81813" lon="0.82641">
        <ele>197.62040710449</ele>
        <time>2020-06-19T14:30:46.615Z</time>
      </trkpt>
      <trkpt lat="45.81796" lon="0.82701">
        <ele>197.36782836914</ele>
        <time>2020-06-19T14:30:46.738Z</time>
      </trkpt>
      <trkpt lat="45.81788" lon="0.82717">
        <ele>197.88301086426</ele>
        <time>2020-06-19T14:30:46.863Z</time>
      </trkpt>
      <trkpt lat="45.81772" lon="0.82744">
        <ele>200.9253692627</ele>
        <time>2020-06-19T14:30:46.992Z</time>
      </trkpt>
      <trkpt lat="45.8175" lon="0.8277">
        <ele>202.91250610352</ele>
        <time>2020-06-19T14:30:47.126Z</time>
      </trkpt>
      <trkpt lat="45.81727" lon="0.8279">
        <ele>201.61671447754</ele>
        <time>2020-06-19T14:30:47.264Z</time>
      </trkpt>
      <trkpt lat="45.81705" lon="0.82811">
        <ele>203.19616699219</ele>
        <time>2020-06-19T14:30:47.406Z</time>
      </trkpt>
      <trkpt lat="45.81693" lon="0.82829">
        <ele>205.28381347656</ele>
        <time>2020-06-19T14:30:47.551Z</time>
      </trkpt>
      <trkpt lat="45.81685" lon="0.82844">
        <ele>206.63958740234</ele>
        <time>2020-06-19T14:30:47.698Z</time>
      </trkpt>
      <trkpt lat="45.81677" lon="0.8287">
        <ele>207.23539733887</ele>
        <time>2020-06-19T14:30:47.848Z</time>
      </trkpt>
      <trkpt lat="45.81666" lon="0.82924">
        <ele>207.42031860352</ele>
        <time>2020-06-19T14:30:48.005Z</time>
      </trkpt>
      <trkpt lat="45.81657" lon="0.82951">
        <ele>206.01655578613</ele>
        <time>2020-06-19T14:30:48.165Z</time>
      </trkpt>
      <trkpt lat="45.81629" lon="0.83009">
        <ele>206.2214050293</ele>
        <time>2020-06-19T14:30:48.333Z</time>
      </trkpt>
      <trkpt lat="45.81585" lon="0.83111">
        <ele>209.6859588623</ele>
        <time>2020-06-19T14:30:48.514Z</time>
      </trkpt>
      <trkpt lat="45.81565" lon="0.83141">
        <ele>210.42723083496</ele>
        <time>2020-06-19T14:30:48.700Z</time>
      </trkpt>
      <trkpt lat="45.81564" lon="0.83142">
        <ele>210.57627868652</ele>
        <time>2020-06-19T14:30:48.886Z</time>
      </trkpt>
      <trkpt lat="45.8154" lon="0.83166">
        <ele>210.07104492188</ele>
        <time>2020-06-19T14:30:49.077Z</time>
      </trkpt>
      <trkpt lat="45.81503" lon="0.83184">
        <ele>211.69078063965</ele>
        <time>2020-06-19T14:30:49.274Z</time>
      </trkpt>
      <trkpt lat="45.81486" lon="0.83189">
        <ele>212.86657714844</ele>
        <time>2020-06-19T14:30:49.474Z</time>
      </trkpt>
      <trkpt lat="45.81469" lon="0.83198">
        <ele>213.58534240723</ele>
        <time>2020-06-19T14:30:49.677Z</time>
      </trkpt>
      <trkpt lat="45.81455" lon="0.83213">
        <ele>214.19625854492</ele>
        <time>2020-06-19T14:30:49.883Z</time>
      </trkpt>
      <trkpt lat="45.81441" lon="0.83235">
        <ele>215.82878112793</ele>
        <time>2020-06-19T14:30:50.092Z</time>
      </trkpt>
      <trkpt lat="45.81416" lon="0.83279">
        <ele>215.89392089844</ele>
        <time>2020-06-19T14:30:50.307Z</time>
      </trkpt>
      <trkpt lat="45.81406" lon="0.8329">
        <ele>216.10987854004</ele>
        <time>2020-06-19T14:30:50.524Z</time>
      </trkpt>
      <trkpt lat="45.81398" lon="0.83296">
        <ele>216.68579101562</ele>
        <time>2020-06-19T14:30:50.743Z</time>
      </trkpt>
      <trkpt lat="45.81385" lon="0.83303">
        <ele>217.74108886719</ele>
        <time>2020-06-19T14:30:50.964Z</time>
      </trkpt>
      <trkpt lat="45.81366" lon="0.83308">
        <ele>220.80493164062</ele>
        <time>2020-06-19T14:30:51.188Z</time>
      </trkpt>
      <trkpt lat="45.81336" lon="0.8331">
        <ele>225.98806762695</ele>
        <time>2020-06-19T14:30:51.417Z</time>
      </trkpt>
      <trkpt lat="45.81314" lon="0.83317">
        <ele>229.3210144043</ele>
        <time>2020-06-19T14:30:51.650Z</time>
      </trkpt>
      <trkpt lat="45.81294" lon="0.83332">
        <ele>230.95420837402</ele>
        <time>2020-06-19T14:30:51.886Z</time>
      </trkpt>
      <trkpt lat="45.81279" lon="0.83355">
        <ele>230.29431152344</ele>
        <time>2020-06-19T14:30:52.126Z</time>
      </trkpt>
      <trkpt lat="45.81266" lon="0.83382">
        <ele>230.46292114258</ele>
        <time>2020-06-19T14:30:52.369Z</time>
      </trkpt>
      <trkpt lat="45.8125" lon="0.83405">
        <ele>230.09632873535</ele>
        <time>2020-06-19T14:30:52.616Z</time>
      </trkpt>
      <trkpt lat="45.81235" lon="0.8342">
        <ele>231.64442443848</ele>
        <time>2020-06-19T14:30:52.866Z</time>
      </trkpt>
      <trkpt lat="45.81221" lon="0.83429">
        <ele>234.06559753418</ele>
        <time>2020-06-19T14:30:53.118Z</time>
      </trkpt>
      <trkpt lat="45.81201" lon="0.83435">
        <ele>235.50537109375</ele>
        <time>2020-06-19T14:30:53.374Z</time>
      </trkpt>
      <trkpt lat="45.81179" lon="0.83432">
        <ele>237.02536010742</ele>
        <time>2020-06-19T14:30:53.633Z</time>
      </trkpt>
      <trkpt lat="45.81159" lon="0.83428">
        <ele>238.08117675781</ele>
        <time>2020-06-19T14:30:53.895Z</time>
      </trkpt>
      <trkpt lat="45.81114" lon="0.83418">
        <ele>239.89134216309</ele>
        <time>2020-06-19T14:30:54.165Z</time>
      </trkpt>
      <trkpt lat="45.81048" lon="0.83418">
        <ele>238.59338378906</ele>
        <time>2020-06-19T14:30:54.445Z</time>
      </trkpt>
      <trkpt lat="45.81003" lon="0.83421">
        <ele>240.89700317383</ele>
        <time>2020-06-19T14:30:54.732Z</time>
      </trkpt>
      <trkpt lat="45.8099" lon="0.83425">
        <ele>241.14895629883</ele>
        <time>2020-06-19T14:30:55.022Z</time>
      </trkpt>
      <trkpt lat="45.80952" lon="0.83445">
        <ele>241.26580810547</ele>
        <time>2020-06-19T14:30:55.318Z</time>
      </trkpt>
      <trkpt lat="45.80929" lon="0.83453">
        <ele>242.99165344238</ele>
        <time>2020-06-19T14:30:55.618Z</time>
      </trkpt>
      <trkpt lat="45.80911" lon="0.83455">
        <ele>244.95933532715</ele>
        <time>2020-06-19T14:30:55.921Z</time>
      </trkpt>
      <trkpt lat="45.80892" lon="0.83455">
        <ele>247.23895263672</ele>
        <time>2020-06-19T14:30:56.227Z</time>
      </trkpt>
      <trkpt lat="45.80876" lon="0.83451">
        <ele>247.88987731934</ele>
        <time>2020-06-19T14:30:56.535Z</time>
      </trkpt>
      <trkpt lat="45.80846" lon="0.83443">
        <ele>248.13862609863</ele>
        <time>2020-06-19T14:30:56.848Z</time>
      </trkpt>
      <trkpt lat="45.80827" lon="0.8344">
        <ele>248.00665283203</ele>
        <time>2020-06-19T14:30:57.164Z</time>
      </trkpt>
      <trkpt lat="45.808" lon="0.8344">
        <ele>247.60713195801</ele>
        <time>2020-06-19T14:30:57.485Z</time>
      </trkpt>
      <trkpt lat="45.80779" lon="0.83441">
        <ele>248.0030670166</ele>
        <time>2020-06-19T14:30:57.809Z</time>
      </trkpt>
      <trkpt lat="45.80755" lon="0.83446">
        <ele>248.32604980469</ele>
        <time>2020-06-19T14:30:58.137Z</time>
      </trkpt>
      <trkpt lat="45.80732" lon="0.83453">
        <ele>248.48202514648</ele>
        <time>2020-06-19T14:30:58.469Z</time>
      </trkpt>
      <trkpt lat="45.80637" lon="0.83486">
        <ele>253.28202819824</ele>
        <time>2020-06-19T14:30:58.816Z</time>
      </trkpt>
      <trkpt lat="45.80637" lon="0.83486">
        <ele>253.29154968262</ele>
        <time>2020-06-19T14:30:59.163Z</time>
      </trkpt>
      <trkpt lat="45.80608" lon="0.83494">
        <ele>254.88975524902</ele>
        <time>2020-06-19T14:30:59.515Z</time>
      </trkpt>
      <trkpt lat="45.80577" lon="0.83498">
        <ele>256.92794799805</ele>
        <time>2020-06-19T14:30:59.872Z</time>
      </trkpt>
      <trkpt lat="45.80537" lon="0.83494">
        <ele>259.17398071289</ele>
        <time>2020-06-19T14:31:00.235Z</time>
      </trkpt>
      <trkpt lat="45.80504" lon="0.83483">
        <ele>260.09780883789</ele>
        <time>2020-06-19T14:31:00.604Z</time>
      </trkpt>
      <trkpt lat="45.80362" lon="0.83418">
        <ele>261.03182983398</ele>
        <time>2020-06-19T14:31:00.997Z</time>
      </trkpt>
      <trkpt lat="45.80324" lon="0.83406">
        <ele>260.43194580078</ele>
        <time>2020-06-19T14:31:01.396Z</time>
      </trkpt>
      <trkpt lat="45.80283" lon="0.83398">
        <ele>259.46987915039</ele>
        <time>2020-06-19T14:31:01.802Z</time>
      </trkpt>
      <trkpt lat="45.80242" lon="0.83396">
        <ele>258.4860534668</ele>
        <time>2020-06-19T14:31:02.214Z</time>
      </trkpt>
      <trkpt lat="45.80217" lon="0.83398">
        <ele>257.6110534668</ele>
        <time>2020-06-19T14:31:02.630Z</time>
      </trkpt>
      <trkpt lat="45.80152" lon="0.83408">
        <ele>255.09733581543</ele>
        <time>2020-06-19T14:31:03.057Z</time>
      </trkpt>
      <trkpt lat="45.80078" lon="0.83422">
        <ele>255.08422851562</ele>
        <time>2020-06-19T14:31:03.496Z</time>
      </trkpt>
      <trkpt lat="45.80042" lon="0.83433">
        <ele>254.72608947754</ele>
        <time>2020-06-19T14:31:03.940Z</time>
      </trkpt>
      <trkpt lat="45.79976" lon="0.83459">
        <ele>256.95281982422</ele>
        <time>2020-06-19T14:31:04.395Z</time>
      </trkpt>
      <trkpt lat="45.79862" lon="0.83508">
        <ele>259.34582519531</ele>
        <time>2020-06-19T14:31:04.869Z</time>
      </trkpt>
      <trkpt lat="45.79698" lon="0.83577">
        <ele>261.20263671875</ele>
        <time>2020-06-19T14:31:05.371Z</time>
      </trkpt>
      <trkpt lat="45.79631" lon="0.83602">
        <ele>261.38116455078</ele>
        <time>2020-06-19T14:31:05.884Z</time>
      </trkpt>
      <trkpt lat="45.79598" lon="0.83608">
        <ele>260.77365112305</ele>
        <time>2020-06-19T14:31:06.402Z</time>
      </trkpt>
      <trkpt lat="45.79565" lon="0.83611">
        <ele>260.44970703125</ele>
        <time>2020-06-19T14:31:06.926Z</time>
      </trkpt>
      <trkpt lat="45.79529" lon="0.83609">
        <ele>260.90444946289</ele>
        <time>2020-06-19T14:31:07.455Z</time>
      </trkpt>
      <trkpt lat="45.79491" lon="0.83609">
        <ele>261</ele>
        <time>2020-06-19T14:31:07.990Z</time>
      </trkpt>
      <trkpt lat="45.7944" lon="0.83607">
        <ele>261</ele>
        <time>2020-06-19T14:31:08.534Z</time>
      </trkpt>
      <trkpt lat="45.79404" lon="0.8361">
        <ele>261.46395874023</ele>
        <time>2020-06-19T14:31:09.083Z</time>
      </trkpt>
      <trkpt lat="45.79376" lon="0.83617">
        <ele>262.47286987305</ele>
        <time>2020-06-19T14:31:09.637Z</time>
      </trkpt>
      <trkpt lat="45.7935" lon="0.8363">
        <ele>263.83676147461</ele>
        <time>2020-06-19T14:31:10.195Z</time>
      </trkpt>
      <trkpt lat="45.79319" lon="0.83656">
        <ele>264.54193115234</ele>
        <time>2020-06-19T14:31:10.759Z</time>
      </trkpt>
      <trkpt lat="45.79294" lon="0.8368">
        <ele>264.91564941406</ele>
        <time>2020-06-19T14:31:11.328Z</time>
      </trkpt>
      <trkpt lat="45.79246" lon="0.83721">
        <ele>266.55047607422</ele>
        <time>2020-06-19T14:31:11.906Z</time>
      </trkpt>
      <trkpt lat="45.79209" lon="0.83744">
        <ele>267.78103637695</ele>
        <time>2020-06-19T14:31:12.490Z</time>
      </trkpt>
      <trkpt lat="45.79193" lon="0.83753">
        <ele>267.94900512695</ele>
        <time>2020-06-19T14:31:13.077Z</time>
      </trkpt>
      <trkpt lat="45.79192" lon="0.83753">
        <ele>267.95568847656</ele>
        <time>2020-06-19T14:31:13.664Z</time>
      </trkpt>
      <trkpt lat="45.7899" lon="0.8386">
        <ele>268.86126708984</ele>
        <time>2020-06-19T14:31:14.286Z</time>
      </trkpt>
      <trkpt lat="45.78943" lon="0.83883">
        <ele>269.38711547852</ele>
        <time>2020-06-19T14:31:14.916Z</time>
      </trkpt>
      <trkpt lat="45.78917" lon="0.83891">
        <ele>268.66723632812</ele>
        <time>2020-06-19T14:31:15.550Z</time>
      </trkpt>
      <trkpt lat="45.78874" lon="0.83899">
        <ele>268.17022705078</ele>
        <time>2020-06-19T14:31:16.191Z</time>
      </trkpt>
      <trkpt lat="45.78823" lon="0.839">
        <ele>268.78213500977</ele>
        <time>2020-06-19T14:31:16.840Z</time>
      </trkpt>
      <trkpt lat="45.78748" lon="0.83898">
        <ele>270.03970336914</ele>
        <time>2020-06-19T14:31:17.501Z</time>
      </trkpt>
      <trkpt lat="45.78658" lon="0.83894">
        <ele>270.75961303711</ele>
        <time>2020-06-19T14:31:18.176Z</time>
      </trkpt>
      <trkpt lat="45.78499" lon="0.83888">
        <ele>270.34240722656</ele>
        <time>2020-06-19T14:31:18.877Z</time>
      </trkpt>
      <trkpt lat="45.78428" lon="0.83884">
        <ele>271.62393188477</ele>
        <time>2020-06-19T14:31:19.589Z</time>
      </trkpt>
      <trkpt lat="45.78385" lon="0.83884">
        <ele>273.13439941406</ele>
        <time>2020-06-19T14:31:20.308Z</time>
      </trkpt>
      <trkpt lat="45.78348" lon="0.83892">
        <ele>275.29763793945</ele>
        <time>2020-06-19T14:31:21.033Z</time>
      </trkpt>
      <trkpt lat="45.78305" lon="0.83912">
        <ele>276.61099243164</ele>
        <time>2020-06-19T14:31:21.765Z</time>
      </trkpt>
      <trkpt lat="45.7826" lon="0.83943">
        <ele>274.59301757812</ele>
        <time>2020-06-19T14:31:22.505Z</time>
      </trkpt>
      <trkpt lat="45.78221" lon="0.83972">
        <ele>274.02554321289</ele>
        <time>2020-06-19T14:31:23.252Z</time>
      </trkpt>
      <trkpt lat="45.78157" lon="0.84019">
        <ele>276.62463378906</ele>
        <time>2020-06-19T14:31:24.011Z</time>
      </trkpt>
      <trkpt lat="45.78101" lon="0.84054">
        <ele>278.26391601562</ele>
        <time>2020-06-19T14:31:24.780Z</time>
      </trkpt>
      <trkpt lat="45.78039" lon="0.84082">
        <ele>280.1142578125</ele>
        <time>2020-06-19T14:31:25.559Z</time>
      </trkpt>
      <trkpt lat="45.77997" lon="0.84099">
        <ele>280.30621337891</ele>
        <time>2020-06-19T14:31:26.345Z</time>
      </trkpt>
      <trkpt lat="45.77853" lon="0.84157">
        <ele>280.35327148438</ele>
        <time>2020-06-19T14:31:27.155Z</time>
      </trkpt>
      <trkpt lat="45.77747" lon="0.84203">
        <ele>282.07040405273</ele>
        <time>2020-06-19T14:31:27.983Z</time>
      </trkpt>
      <trkpt lat="45.77607" lon="0.84262">
        <ele>284.16439819336</ele>
        <time>2020-06-19T14:31:28.834Z</time>
      </trkpt>
      <trkpt lat="45.77585" lon="0.84273">
        <ele>285.42132568359</ele>
        <time>2020-06-19T14:31:29.689Z</time>
      </trkpt>
      <trkpt lat="45.77561" lon="0.8429">
        <ele>287.35299682617</ele>
        <time>2020-06-19T14:31:30.548Z</time>
      </trkpt>
      <trkpt lat="45.77553" lon="0.843">
        <ele>288.00967407227</ele>
        <time>2020-06-19T14:31:31.409Z</time>
      </trkpt>
      <trkpt lat="45.77552" lon="0.84301">
        <ele>288.0712890625</ele>
        <time>2020-06-19T14:31:32.270Z</time>
      </trkpt>
      <trkpt lat="45.77535" lon="0.84325">
        <ele>288.4841003418</ele>
        <time>2020-06-19T14:31:33.135Z</time>
      </trkpt>
      <trkpt lat="45.77511" lon="0.84362">
        <ele>288.98944091797</ele>
        <time>2020-06-19T14:31:34.005Z</time>
      </trkpt>
      <trkpt lat="45.77498" lon="0.84376">
        <ele>289.91329956055</ele>
        <time>2020-06-19T14:31:34.878Z</time>
      </trkpt>
      <trkpt lat="45.77473" lon="0.84395">
        <ele>291.77557373047</ele>
        <time>2020-06-19T14:31:35.756Z</time>
      </trkpt>
      <trkpt lat="45.77383" lon="0.84446">
        <ele>293.05926513672</ele>
        <time>2020-06-19T14:31:36.649Z</time>
      </trkpt>
      <trkpt lat="45.77296" lon="0.84494">
        <ele>293.22329711914</ele>
        <time>2020-06-19T14:31:37.557Z</time>
      </trkpt>
      <trkpt lat="45.77144" lon="0.84577">
        <ele>289.16259765625</ele>
        <time>2020-06-19T14:31:38.491Z</time>
      </trkpt>
      <trkpt lat="45.76959" lon="0.84681">
        <ele>289.01010131836</ele>
        <time>2020-06-19T14:31:39.457Z</time>
      </trkpt>
      <trkpt lat="45.76774" lon="0.84788">
        <ele>288.95611572266</ele>
        <time>2020-06-19T14:31:40.455Z</time>
      </trkpt>
      <trkpt lat="45.76734" lon="0.84808">
        <ele>286.8752746582</ele>
        <time>2020-06-19T14:31:41.460Z</time>
      </trkpt>
      <trkpt lat="45.76722" lon="0.84811">
        <ele>286.24716186523</ele>
        <time>2020-06-19T14:31:42.467Z</time>
      </trkpt>
      <trkpt lat="45.76695" lon="0.84814">
        <ele>285.66702270508</ele>
        <time>2020-06-19T14:31:43.478Z</time>
      </trkpt>
      <trkpt lat="45.76659" lon="0.84809">
        <ele>284.62316894531</ele>
        <time>2020-06-19T14:31:44.495Z</time>
      </trkpt>
      <trkpt lat="45.766" lon="0.84787">
        <ele>285.59140014648</ele>
        <time>2020-06-19T14:31:45.521Z</time>
      </trkpt>
      <trkpt lat="45.76535" lon="0.8476">
        <ele>287.81823730469</ele>
        <time>2020-06-19T14:31:46.558Z</time>
      </trkpt>
      <trkpt lat="45.76498" lon="0.84745">
        <ele>288.16616821289</ele>
        <time>2020-06-19T14:31:47.601Z</time>
      </trkpt>
      <trkpt lat="45.76475" lon="0.84739">
        <ele>288.65396118164</ele>
        <time>2020-06-19T14:31:48.648Z</time>
      </trkpt>
      <trkpt lat="45.76454" lon="0.84736">
        <ele>288.44424438477</ele>
        <time>2020-06-19T14:31:49.699Z</time>
      </trkpt>
      <trkpt lat="45.76429" lon="0.84737">
        <ele>288.19229125977</ele>
        <time>2020-06-19T14:31:50.754Z</time>
      </trkpt>
      <trkpt lat="45.76397" lon="0.84744">
        <ele>288.2919921875</ele>
        <time>2020-06-19T14:31:51.814Z</time>
      </trkpt>
      <trkpt lat="45.7637" lon="0.84758">
        <ele>288.06567382812</ele>
        <time>2020-06-19T14:31:52.878Z</time>
      </trkpt>
      <trkpt lat="45.76353" lon="0.8477">
        <ele>287.76574707031</ele>
        <time>2020-06-19T14:31:53.945Z</time>
      </trkpt>
      <trkpt lat="45.76278" lon="0.8483">
        <ele>286.99520874023</ele>
        <time>2020-06-19T14:31:55.026Z</time>
      </trkpt>
      <trkpt lat="45.76197" lon="0.84894">
        <ele>282.13333129883</ele>
        <time>2020-06-19T14:31:56.122Z</time>
      </trkpt>
      <trkpt lat="45.76043" lon="0.85014">
        <ele>280.22470092773</ele>
        <time>2020-06-19T14:31:57.246Z</time>
      </trkpt>
      <trkpt lat="45.75959" lon="0.85079">
        <ele>275.58917236328</ele>
        <time>2020-06-19T14:31:58.385Z</time>
      </trkpt>
      <trkpt lat="45.75958" lon="0.8508">
        <ele>275.50668334961</ele>
        <time>2020-06-19T14:31:59.524Z</time>
      </trkpt>
      <trkpt lat="45.75883" lon="0.85139">
        <ele>270.94134521484</ele>
        <time>2020-06-19T14:32:00.677Z</time>
      </trkpt>
      <trkpt lat="45.75842" lon="0.85173">
        <ele>270.45181274414</ele>
        <time>2020-06-19T14:32:01.838Z</time>
      </trkpt>
      <trkpt lat="45.75822" lon="0.85186">
        <ele>271.26083374023</ele>
        <time>2020-06-19T14:32:03.002Z</time>
      </trkpt>
      <trkpt lat="45.75798" lon="0.85196">
        <ele>271.8923034668</ele>
        <time>2020-06-19T14:32:04.170Z</time>
      </trkpt>
      <trkpt lat="45.75774" lon="0.852">
        <ele>271.74096679688</ele>
        <time>2020-06-19T14:32:05.342Z</time>
      </trkpt>
      <trkpt lat="45.75625" lon="0.85198">
        <ele>271.67919921875</ele>
        <time>2020-06-19T14:32:06.538Z</time>
      </trkpt>
      <trkpt lat="45.75475" lon="0.85201">
        <ele>278.85049438477</ele>
        <time>2020-06-19T14:32:07.758Z</time>
      </trkpt>
      <trkpt lat="45.75444" lon="0.85196">
        <ele>280.37762451172</ele>
        <time>2020-06-19T14:32:08.983Z</time>
      </trkpt>
      <trkpt lat="45.7542" lon="0.85187">
        <ele>280.70156860352</ele>
        <time>2020-06-19T14:32:10.212Z</time>
      </trkpt>
      <trkpt lat="45.75396" lon="0.85171">
        <ele>280.60559082031</ele>
        <time>2020-06-19T14:32:11.445Z</time>
      </trkpt>
      <trkpt lat="45.7533" lon="0.85109">
        <ele>278.27532958984</ele>
        <time>2020-06-19T14:32:12.691Z</time>
      </trkpt>
      <trkpt lat="45.75314" lon="0.85098">
        <ele>278.01138305664</ele>
        <time>2020-06-19T14:32:13.940Z</time>
      </trkpt>
      <trkpt lat="45.75295" lon="0.8509">
        <ele>277.81942749023</ele>
        <time>2020-06-19T14:32:15.192Z</time>
      </trkpt>
      <trkpt lat="45.75267" lon="0.85084">
        <ele>277.67544555664</ele>
        <time>2020-06-19T14:32:16.448Z</time>
      </trkpt>
      <trkpt lat="45.7524" lon="0.85086">
        <ele>277.98880004883</ele>
        <time>2020-06-19T14:32:17.709Z</time>
      </trkpt>
      <trkpt lat="45.75231" lon="0.85088">
        <ele>278.30075073242</ele>
        <time>2020-06-19T14:32:18.971Z</time>
      </trkpt>
      <trkpt lat="45.75204" lon="0.85098">
        <ele>278.61697387695</ele>
        <time>2020-06-19T14:32:20.238Z</time>
      </trkpt>
      <trkpt lat="45.7511" lon="0.85143">
        <ele>279.19027709961</ele>
        <time>2020-06-19T14:32:21.521Z</time>
      </trkpt>
      <trkpt lat="45.75052" lon="0.85166">
        <ele>278.87612915039</ele>
        <time>2020-06-19T14:32:22.813Z</time>
      </trkpt>
      <trkpt lat="45.75025" lon="0.85174">
        <ele>278.80413818359</ele>
        <time>2020-06-19T14:32:24.110Z</time>
      </trkpt>
      <trkpt lat="45.7498" lon="0.85183">
        <ele>277.95623779297</ele>
        <time>2020-06-19T14:32:25.414Z</time>
      </trkpt>
      <trkpt lat="45.749" lon="0.85192">
        <ele>278.90051269531</ele>
        <time>2020-06-19T14:32:26.731Z</time>
      </trkpt>
      <trkpt lat="45.74878" lon="0.852">
        <ele>279.53121948242</ele>
        <time>2020-06-19T14:32:28.051Z</time>
      </trkpt>
      <trkpt lat="45.74854" lon="0.85217">
        <ele>281.00695800781</ele>
        <time>2020-06-19T14:32:29.376Z</time>
      </trkpt>
      <trkpt lat="45.74837" lon="0.85238">
        <ele>282.56015014648</ele>
        <time>2020-06-19T14:32:30.704Z</time>
      </trkpt>
      <trkpt lat="45.74827" lon="0.85254">
        <ele>283.58444213867</ele>
        <time>2020-06-19T14:32:32.035Z</time>
      </trkpt>
      <trkpt lat="45.74818" lon="0.85278">
        <ele>284.66424560547</ele>
        <time>2020-06-19T14:32:33.369Z</time>
      </trkpt>
      <trkpt lat="45.74794" lon="0.85365">
        <ele>284.55834960938</ele>
        <time>2020-06-19T14:32:34.713Z</time>
      </trkpt>
      <trkpt lat="45.74788" lon="0.85388">
        <ele>284.20883178711</ele>
        <time>2020-06-19T14:32:36.060Z</time>
      </trkpt>
      <trkpt lat="45.74779" lon="0.85412">
        <ele>284.33792114258</ele>
        <time>2020-06-19T14:32:37.410Z</time>
      </trkpt>
      <trkpt lat="45.74769" lon="0.85433">
        <ele>284.36190795898</ele>
        <time>2020-06-19T14:32:38.763Z</time>
      </trkpt>
      <trkpt lat="45.74756" lon="0.85453">
        <ele>284.56091308594</ele>
        <time>2020-06-19T14:32:40.119Z</time>
      </trkpt>
      <trkpt lat="45.74741" lon="0.85473">
        <ele>284.73101806641</ele>
        <time>2020-06-19T14:32:41.478Z</time>
      </trkpt>
      <trkpt lat="45.74733" lon="0.85482">
        <ele>284.5510559082</ele>
        <time>2020-06-19T14:32:42.839Z</time>
      </trkpt>
      <trkpt lat="45.7471" lon="0.855">
        <ele>284.7268371582</ele>
        <time>2020-06-19T14:32:44.204Z</time>
      </trkpt>
      <trkpt lat="45.74698" lon="0.85507">
        <ele>284.69082641602</ele>
        <time>2020-06-19T14:32:45.571Z</time>
      </trkpt>
      <trkpt lat="45.7467" lon="0.85519">
        <ele>284.78424072266</ele>
        <time>2020-06-19T14:32:46.943Z</time>
      </trkpt>
      <trkpt lat="45.74616" lon="0.85533">
        <ele>284.59320068359</ele>
        <time>2020-06-19T14:32:48.323Z</time>
      </trkpt>
      <trkpt lat="45.74597" lon="0.85538">
        <ele>283.71081542969</ele>
        <time>2020-06-19T14:32:49.707Z</time>
      </trkpt>
      <trkpt lat="45.74561" lon="0.85553">
        <ele>282.27105712891</ele>
        <time>2020-06-19T14:32:51.097Z</time>
      </trkpt>
      <trkpt lat="45.74543" lon="0.85565">
        <ele>281.92553710938</ele>
        <time>2020-06-19T14:32:52.490Z</time>
      </trkpt>
      <trkpt lat="45.74526" lon="0.85577">
        <ele>281.74557495117</ele>
        <time>2020-06-19T14:32:53.886Z</time>
      </trkpt>
      <trkpt lat="45.74511" lon="0.85591">
        <ele>281.70956420898</ele>
        <time>2020-06-19T14:32:55.285Z</time>
      </trkpt>
      <trkpt lat="45.74485" lon="0.85619">
        <ele>280.02322387695</ele>
        <time>2020-06-19T14:32:56.689Z</time>
      </trkpt>
      <trkpt lat="45.74438" lon="0.85671">
        <ele>277.05880737305</ele>
        <time>2020-06-19T14:32:58.102Z</time>
      </trkpt>
      <trkpt lat="45.74383" lon="0.85732">
        <ele>277.04736328125</ele>
        <time>2020-06-19T14:32:59.527Z</time>
      </trkpt>
      <trkpt lat="45.74314" lon="0.85806">
        <ele>280.40808105469</ele>
        <time>2020-06-19T14:33:00.965Z</time>
      </trkpt>
      <trkpt lat="45.74298" lon="0.85819">
        <ele>281.99044799805</ele>
        <time>2020-06-19T14:33:02.406Z</time>
      </trkpt>
      <trkpt lat="45.74278" lon="0.85831">
        <ele>283.76614379883</ele>
        <time>2020-06-19T14:33:03.851Z</time>
      </trkpt>
      <trkpt lat="45.74258" lon="0.8584">
        <ele>285.39788818359</ele>
        <time>2020-06-19T14:33:05.299Z</time>
      </trkpt>
      <trkpt lat="45.74218" lon="0.85849">
        <ele>288.09768676758</ele>
        <time>2020-06-19T14:33:06.754Z</time>
      </trkpt>
      <trkpt lat="45.74156" lon="0.85848">
        <ele>290.19854736328</ele>
        <time>2020-06-19T14:33:08.219Z</time>
      </trkpt>
      <trkpt lat="45.74154" lon="0.85848">
        <ele>290.37649536133</ele>
        <time>2020-06-19T14:33:09.684Z</time>
      </trkpt>
      <trkpt lat="45.74154" lon="0.85848">
        <ele>290.37661743164</ele>
        <time>2020-06-19T14:33:11.149Z</time>
      </trkpt>
      <trkpt lat="45.74104" lon="0.85848">
        <ele>293.54122924805</ele>
        <time>2020-06-19T14:33:12.622Z</time>
      </trkpt>
      <trkpt lat="45.74079" lon="0.85849">
        <ele>294.93212890625</ele>
        <time>2020-06-19T14:33:14.099Z</time>
      </trkpt>
      <trkpt lat="45.74067" lon="0.85853">
        <ele>295.89196777344</ele>
        <time>2020-06-19T14:33:15.578Z</time>
      </trkpt>
      <trkpt lat="45.74054" lon="0.8586">
        <ele>297.18835449219</ele>
        <time>2020-06-19T14:33:17.059Z</time>
      </trkpt>
      <trkpt lat="45.74043" lon="0.8587">
        <ele>298.80807495117</ele>
        <time>2020-06-19T14:33:18.542Z</time>
      </trkpt>
      <trkpt lat="45.74032" lon="0.85883">
        <ele>300.14971923828</ele>
        <time>2020-06-19T14:33:20.027Z</time>
      </trkpt>
      <trkpt lat="45.74023" lon="0.85899">
        <ele>300.86117553711</ele>
        <time>2020-06-19T14:33:21.515Z</time>
      </trkpt>
      <trkpt lat="45.74015" lon="0.85918">
        <ele>301.28109741211</ele>
        <time>2020-06-19T14:33:23.005Z</time>
      </trkpt>
      <trkpt lat="45.74006" lon="0.85949">
        <ele>301.57650756836</ele>
        <time>2020-06-19T14:33:24.499Z</time>
      </trkpt>
      <trkpt lat="45.73995" lon="0.85977">
        <ele>301.76040649414</ele>
        <time>2020-06-19T14:33:25.997Z</time>
      </trkpt>
      <trkpt lat="45.73987" lon="0.85991">
        <ele>302.04873657227</ele>
        <time>2020-06-19T14:33:27.497Z</time>
      </trkpt>
      <trkpt lat="45.73971" lon="0.86009">
        <ele>302.86462402344</ele>
        <time>2020-06-19T14:33:29.000Z</time>
      </trkpt>
      <trkpt lat="45.73957" lon="0.86019">
        <ele>303.44052124023</ele>
        <time>2020-06-19T14:33:30.505Z</time>
      </trkpt>
      <trkpt lat="45.73944" lon="0.86024">
        <ele>303.87243652344</ele>
        <time>2020-06-19T14:33:32.012Z</time>
      </trkpt>
      <trkpt lat="45.73927" lon="0.86026">
        <ele>304.82092285156</ele>
        <time>2020-06-19T14:33:33.522Z</time>
      </trkpt>
      <trkpt lat="45.73908" lon="0.86023">
        <ele>305.78076171875</ele>
        <time>2020-06-19T14:33:35.035Z</time>
      </trkpt>
      <trkpt lat="45.73843" lon="0.85993">
        <ele>307.88040161133</ele>
        <time>2020-06-19T14:33:36.559Z</time>
      </trkpt>
      <trkpt lat="45.73767" lon="0.85959">
        <ele>312.06015014648</ele>
        <time>2020-06-19T14:33:38.096Z</time>
      </trkpt>
      <trkpt lat="45.73745" lon="0.85953">
        <ele>313.95581054688</ele>
        <time>2020-06-19T14:33:39.637Z</time>
      </trkpt>
      <trkpt lat="45.73728" lon="0.85951">
        <ele>315.51556396484</ele>
        <time>2020-06-19T14:33:41.180Z</time>
      </trkpt>
      <trkpt lat="45.73705" lon="0.85951">
        <ele>316.78366088867</ele>
        <time>2020-06-19T14:33:42.727Z</time>
      </trkpt>
      <trkpt lat="45.73674" lon="0.85959">
        <ele>318.58325195312</ele>
        <time>2020-06-19T14:33:44.279Z</time>
      </trkpt>
      <trkpt lat="45.73625" lon="0.85983">
        <ele>321.79116821289</ele>
        <time>2020-06-19T14:33:45.839Z</time>
      </trkpt>
      <trkpt lat="45.73604" lon="0.85995">
        <ele>322.87100219727</ele>
        <time>2020-06-19T14:33:47.403Z</time>
      </trkpt>
      <trkpt lat="45.73576" lon="0.86013">
        <ele>324.40673828125</ele>
        <time>2020-06-19T14:33:48.972Z</time>
      </trkpt>
      <trkpt lat="45.73559" lon="0.86027">
        <ele>325.48657226562</ele>
        <time>2020-06-19T14:33:50.544Z</time>
      </trkpt>
      <trkpt lat="45.73532" lon="0.86055">
        <ele>326.39953613281</ele>
        <time>2020-06-19T14:33:52.121Z</time>
      </trkpt>
      <trkpt lat="45.73471" lon="0.86131">
        <ele>330.40689086914</ele>
        <time>2020-06-19T14:33:53.711Z</time>
      </trkpt>
      <trkpt lat="45.73395" lon="0.86231">
        <ele>335.58312988281</ele>
        <time>2020-06-19T14:33:55.318Z</time>
      </trkpt>
      <trkpt lat="45.73375" lon="0.86258">
        <ele>336.84072875977</ele>
        <time>2020-06-19T14:33:56.929Z</time>
      </trkpt>
      <trkpt lat="45.73356" lon="0.8628">
        <ele>338.12451171875</ele>
        <time>2020-06-19T14:33:58.544Z</time>
      </trkpt>
      <trkpt lat="45.73344" lon="0.86287">
        <ele>338.60443115234</ele>
        <time>2020-06-19T14:34:00.161Z</time>
      </trkpt>
      <trkpt lat="45.73335" lon="0.86292">
        <ele>338.95239257812</ele>
        <time>2020-06-19T14:34:01.780Z</time>
      </trkpt>
      <trkpt lat="45.73333" lon="0.86292">
        <ele>338.97637939453</ele>
        <time>2020-06-19T14:34:03.399Z</time>
      </trkpt>
      <trkpt lat="45.73331" lon="0.86293">
        <ele>339.0315246582</ele>
        <time>2020-06-19T14:34:05.018Z</time>
      </trkpt>
      <trkpt lat="45.73331" lon="0.86293">
        <ele>339.03155517578</ele>
        <time>2020-06-19T14:34:06.637Z</time>
      </trkpt>
      <trkpt lat="45.73308" lon="0.86299">
        <ele>339.61227416992</ele>
        <time>2020-06-19T14:34:08.260Z</time>
      </trkpt>
      <trkpt lat="45.73288" lon="0.8631">
        <ele>340.57119750977</ele>
        <time>2020-06-19T14:34:09.887Z</time>
      </trkpt>
      <trkpt lat="45.73276" lon="0.86326">
        <ele>341.62704467773</ele>
        <time>2020-06-19T14:34:11.516Z</time>
      </trkpt>
      <trkpt lat="45.73264" lon="0.86352">
        <ele>343.13256835938</ele>
        <time>2020-06-19T14:34:13.149Z</time>
      </trkpt>
      <trkpt lat="45.73257" lon="0.8639">
        <ele>344.58432006836</ele>
        <time>2020-06-19T14:34:14.786Z</time>
      </trkpt>
      <trkpt lat="45.73251" lon="0.86413">
        <ele>345.48419189453</ele>
        <time>2020-06-19T14:34:16.426Z</time>
      </trkpt>
      <trkpt lat="45.73241" lon="0.86443">
        <ele>345.88803100586</ele>
        <time>2020-06-19T14:34:18.070Z</time>
      </trkpt>
      <trkpt lat="45.73207" lon="0.86518">
        <ele>348.66012573242</ele>
        <time>2020-06-19T14:34:19.724Z</time>
      </trkpt>
      <trkpt lat="45.73197" lon="0.86544">
        <ele>350.13018798828</ele>
        <time>2020-06-19T14:34:21.381Z</time>
      </trkpt>
      <trkpt lat="45.73193" lon="0.86563">
        <ele>350.91003417969</ele>
        <time>2020-06-19T14:34:23.040Z</time>
      </trkpt>
      <trkpt lat="45.73192" lon="0.86582">
        <ele>351.61791992188</ele>
        <time>2020-06-19T14:34:24.701Z</time>
      </trkpt>
      <trkpt lat="45.73181" lon="0.86586">
        <ele>352.02584838867</ele>
        <time>2020-06-19T14:34:26.364Z</time>
      </trkpt>
      <trkpt lat="45.73175" lon="0.86591">
        <ele>352.34979248047</ele>
        <time>2020-06-19T14:34:28.028Z</time>
      </trkpt>
      <trkpt lat="45.731" lon="0.86718">
        <ele>356.10659790039</ele>
        <time>2020-06-19T14:34:29.711Z</time>
      </trkpt>
      <trkpt lat="45.73019" lon="0.86855">
        <ele>357.99530029297</ele>
        <time>2020-06-19T14:34:31.414Z</time>
      </trkpt>
      <trkpt lat="45.73018" lon="0.86857">
        <ele>357.95455932617</ele>
        <time>2020-06-19T14:34:33.117Z</time>
      </trkpt>
      <trkpt lat="45.73014" lon="0.86863">
        <ele>357.83932495117</ele>
        <time>2020-06-19T14:34:34.821Z</time>
      </trkpt>
      <trkpt lat="45.72979" lon="0.86919">
        <ele>357.30465698242</ele>
        <time>2020-06-19T14:34:36.534Z</time>
      </trkpt>
      <trkpt lat="45.72964" lon="0.86939">
        <ele>356.60787963867</ele>
        <time>2020-06-19T14:34:38.250Z</time>
      </trkpt>
      <trkpt lat="45.72975" lon="0.86953">
        <ele>357.16067504883</ele>
        <time>2020-06-19T14:34:39.968Z</time>
      </trkpt>
      <trkpt lat="45.7298" lon="0.86965">
        <ele>357.34063720703</ele>
        <time>2020-06-19T14:34:41.688Z</time>
      </trkpt>
      <trkpt lat="45.72986" lon="0.86975">
        <ele>357.58255004883</ele>
        <time>2020-06-19T14:34:43.409Z</time>
      </trkpt>
      <trkpt lat="45.72995" lon="0.86989">
        <ele>358.07446289062</ele>
        <time>2020-06-19T14:34:45.132Z</time>
      </trkpt>
      <trkpt lat="45.73" lon="0.86998">
        <ele>358.36239624023</ele>
        <time>2020-06-19T14:34:46.857Z</time>
      </trkpt>
      <trkpt lat="45.72959" lon="0.87027">
        <ele>359.32250976562</ele>
        <time>2020-06-19T14:34:48.589Z</time>
      </trkpt>
      <trkpt lat="45.72962" lon="0.87025">
        <ele>359.29434204102</ele>
        <time>2020-06-19T14:34:50.321Z</time>
      </trkpt>
      <trkpt lat="45.73" lon="0.86998">
        <ele>358.36239624023</ele>
        <time>2020-06-19T14:34:52.060Z</time>
      </trkpt>
      <trkpt lat="45.72995" lon="0.86989">
        <ele>358.07446289062</ele>
        <time>2020-06-19T14:34:53.801Z</time>
      </trkpt>
      <trkpt lat="45.72947" lon="0.87026">
        <ele>358.98657226562</ele>
        <time>2020-06-19T14:34:55.550Z</time>
      </trkpt>
      <trkpt lat="45.72925" lon="0.87051">
        <ele>358.2060546875</ele>
        <time>2020-06-19T14:34:57.304Z</time>
      </trkpt>
      <trkpt lat="45.72906" lon="0.87077">
        <ele>358.15142822266</ele>
        <time>2020-06-19T14:34:59.062Z</time>
      </trkpt>
      <trkpt lat="45.72904" lon="0.8708">
        <ele>358.23443603516</ele>
        <time>2020-06-19T14:35:00.821Z</time>
      </trkpt>
      <trkpt lat="45.72866" lon="0.87133">
        <ele>359.14202880859</ele>
        <time>2020-06-19T14:35:02.588Z</time>
      </trkpt>
      <trkpt lat="45.72864" lon="0.87136">
        <ele>358.99954223633</ele>
        <time>2020-06-19T14:35:04.355Z</time>
      </trkpt>
      <trkpt lat="45.72808" lon="0.87215">
        <ele>357.01571655273</ele>
        <time>2020-06-19T14:35:06.135Z</time>
      </trkpt>
      <trkpt lat="45.72806" lon="0.87218">
        <ele>356.97064208984</ele>
        <time>2020-06-19T14:35:07.916Z</time>
      </trkpt>
      <trkpt lat="45.72788" lon="0.87244">
        <ele>356.17630004883</ele>
        <time>2020-06-19T14:35:09.701Z</time>
      </trkpt>
      <trkpt lat="45.72778" lon="0.87262">
        <ele>355.76837158203</ele>
        <time>2020-06-19T14:35:11.488Z</time>
      </trkpt>
      <trkpt lat="45.72776" lon="0.87267">
        <ele>355.72036743164</ele>
        <time>2020-06-19T14:35:13.276Z</time>
      </trkpt>
      <trkpt lat="45.72774" lon="0.87271">
        <ele>355.64474487305</ele>
        <time>2020-06-19T14:35:15.064Z</time>
      </trkpt>
      <trkpt lat="45.72768" lon="0.87282">
        <ele>355.68713378906</ele>
        <time>2020-06-19T14:35:16.854Z</time>
      </trkpt>
      <trkpt lat="45.72749" lon="0.87331">
        <ele>356.60171508789</ele>
        <time>2020-06-19T14:35:18.650Z</time>
      </trkpt>
      <trkpt lat="45.72742" lon="0.87355">
        <ele>357.04565429688</ele>
        <time>2020-06-19T14:35:20.449Z</time>
      </trkpt>
      <trkpt lat="45.72741" lon="0.8736">
        <ele>357.14288330078</ele>
        <time>2020-06-19T14:35:22.249Z</time>
      </trkpt>
      <trkpt lat="45.7273" lon="0.874">
        <ele>357.45617675781</ele>
        <time>2020-06-19T14:35:24.054Z</time>
      </trkpt>
      <trkpt lat="45.72725" lon="0.87431">
        <ele>357.21621704102</ele>
        <time>2020-06-19T14:35:25.862Z</time>
      </trkpt>
      <trkpt lat="45.72721" lon="0.87488">
        <ele>357.01211547852</ele>
        <time>2020-06-19T14:35:27.677Z</time>
      </trkpt>
      <trkpt lat="45.72722" lon="0.87488">
        <ele>357.0361328125</ele>
        <time>2020-06-19T14:35:29.492Z</time>
      </trkpt>
      <trkpt lat="45.72722" lon="0.87492">
        <ele>357.04046630859</ele>
        <time>2020-06-19T14:35:31.307Z</time>
      </trkpt>
      <trkpt lat="45.72725" lon="0.87554">
        <ele>357.1081237793</ele>
        <time>2020-06-19T14:35:33.129Z</time>
      </trkpt>
      <trkpt lat="45.72732" lon="0.87609">
        <ele>355.59661865234</ele>
        <time>2020-06-19T14:35:34.957Z</time>
      </trkpt>
      <trkpt lat="45.72742" lon="0.87656">
        <ele>352.97280883789</ele>
        <time>2020-06-19T14:35:36.791Z</time>
      </trkpt>
      <trkpt lat="45.72743" lon="0.8766">
        <ele>352.5810546875</ele>
        <time>2020-06-19T14:35:38.625Z</time>
      </trkpt>
      <trkpt lat="45.72769" lon="0.87802">
        <ele>345.25857543945</ele>
        <time>2020-06-19T14:35:40.476Z</time>
      </trkpt>
      <trkpt lat="45.72771" lon="0.87817">
        <ele>345.64126586914</ele>
        <time>2020-06-19T14:35:42.328Z</time>
      </trkpt>
      <trkpt lat="45.72772" lon="0.8782">
        <ele>345.82315063477</ele>
        <time>2020-06-19T14:35:44.181Z</time>
      </trkpt>
      <trkpt lat="45.72777" lon="0.87852">
        <ele>347.74090576172</ele>
        <time>2020-06-19T14:35:46.038Z</time>
      </trkpt>
      <trkpt lat="45.72782" lon="0.87917">
        <ele>350.52603149414</ele>
        <time>2020-06-19T14:35:47.902Z</time>
      </trkpt>
      <trkpt lat="45.7278" lon="0.87981">
        <ele>352.94998168945</ele>
        <time>2020-06-19T14:35:49.773Z</time>
      </trkpt>
      <trkpt lat="45.72779" lon="0.88007">
        <ele>352.29010009766</ele>
        <time>2020-06-19T14:35:51.647Z</time>
      </trkpt>
      <trkpt lat="45.72779" lon="0.8801">
        <ele>352.20217895508</ele>
        <time>2020-06-19T14:35:53.521Z</time>
      </trkpt>
      <trkpt lat="45.72767" lon="0.88078">
        <ele>349.45269775391</ele>
        <time>2020-06-19T14:35:55.403Z</time>
      </trkpt>
      <trkpt lat="45.7276" lon="0.88111">
        <ele>348.29229736328</ele>
        <time>2020-06-19T14:35:57.289Z</time>
      </trkpt>
      <trkpt lat="45.72741" lon="0.88171">
        <ele>346.61141967773</ele>
        <time>2020-06-19T14:35:59.182Z</time>
      </trkpt>
      <trkpt lat="45.7274" lon="0.88173">
        <ele>346.53350830078</ele>
        <time>2020-06-19T14:36:01.076Z</time>
      </trkpt>
      <trkpt lat="45.72724" lon="0.88212">
        <ele>344.52377319336</ele>
        <time>2020-06-19T14:36:02.975Z</time>
      </trkpt>
      <trkpt lat="45.72711" lon="0.8824">
        <ele>343.20257568359</ele>
        <time>2020-06-19T14:36:04.878Z</time>
      </trkpt>
      <trkpt lat="45.72669" lon="0.88317">
        <ele>344.76351928711</ele>
        <time>2020-06-19T14:36:06.791Z</time>
      </trkpt>
      <trkpt lat="45.72668" lon="0.88318">
        <ele>344.84954833984</ele>
        <time>2020-06-19T14:36:08.705Z</time>
      </trkpt>
      <trkpt lat="45.72623" lon="0.88403">
        <ele>345.62854003906</ele>
        <time>2020-06-19T14:36:10.631Z</time>
      </trkpt>
      <trkpt lat="45.726" lon="0.88453">
        <ele>345.63912963867</ele>
        <time>2020-06-19T14:36:12.563Z</time>
      </trkpt>
      <trkpt lat="45.72599" lon="0.88455">
        <ele>345.60113525391</ele>
        <time>2020-06-19T14:36:14.495Z</time>
      </trkpt>
      <trkpt lat="45.72587" lon="0.88482">
        <ele>344.8952331543</ele>
        <time>2020-06-19T14:36:16.431Z</time>
      </trkpt>
      <trkpt lat="45.72559" lon="0.88566">
        <ele>343.49908447266</ele>
        <time>2020-06-19T14:36:18.378Z</time>
      </trkpt>
      <trkpt lat="45.72546" lon="0.88601">
        <ele>342.25131225586</ele>
        <time>2020-06-19T14:36:20.329Z</time>
      </trkpt>
      <trkpt lat="45.72545" lon="0.88603">
        <ele>342.19482421875</ele>
        <time>2020-06-19T14:36:22.280Z</time>
      </trkpt>
      <trkpt lat="45.72529" lon="0.88643">
        <ele>341.25329589844</ele>
        <time>2020-06-19T14:36:24.236Z</time>
      </trkpt>
      <trkpt lat="45.72513" lon="0.8867">
        <ele>340.42541503906</ele>
        <time>2020-06-19T14:36:26.196Z</time>
      </trkpt>
      <trkpt lat="45.72484" lon="0.88709">
        <ele>340.14157104492</ele>
        <time>2020-06-19T14:36:28.163Z</time>
      </trkpt>
      <trkpt lat="45.72476" lon="0.88718">
        <ele>340.08157348633</ele>
        <time>2020-06-19T14:36:30.131Z</time>
      </trkpt>
      <trkpt lat="45.72475" lon="0.88719">
        <ele>340.07354736328</ele>
        <time>2020-06-19T14:36:32.100Z</time>
      </trkpt>
      <trkpt lat="45.72458" lon="0.88738">
        <ele>341.19088745117</ele>
        <time>2020-06-19T14:36:34.072Z</time>
      </trkpt>
      <trkpt lat="45.72443" lon="0.88749">
        <ele>342.21072387695</ele>
        <time>2020-06-19T14:36:36.047Z</time>
      </trkpt>
      <trkpt lat="45.72412" lon="0.88771">
        <ele>344.55004882812</ele>
        <time>2020-06-19T14:36:38.027Z</time>
      </trkpt>
      <trkpt lat="45.72359" lon="0.88793">
        <ele>345.34375</ele>
        <time>2020-06-19T14:36:40.016Z</time>
      </trkpt>
      <trkpt lat="45.72359" lon="0.88793">
        <ele>345.32791137695</ele>
        <time>2020-06-19T14:36:42.005Z</time>
      </trkpt>
      <trkpt lat="45.72319" lon="0.88806">
        <ele>343.88000488281</ele>
        <time>2020-06-19T14:36:44.001Z</time>
      </trkpt>
      <trkpt lat="45.72269" lon="0.88828">
        <ele>342.20599365234</ele>
        <time>2020-06-19T14:36:46.005Z</time>
      </trkpt>
      <trkpt lat="45.72256" lon="0.88838">
        <ele>342.02603149414</ele>
        <time>2020-06-19T14:36:48.011Z</time>
      </trkpt>
      <trkpt lat="45.72255" lon="0.88839">
        <ele>342.00665283203</ele>
        <time>2020-06-19T14:36:50.018Z</time>
      </trkpt>
      <trkpt lat="45.72236" lon="0.88852">
        <ele>340.94778442383</ele>
        <time>2020-06-19T14:36:52.028Z</time>
      </trkpt>
      <trkpt lat="45.72206" lon="0.88882">
        <ele>340.12060546875</ele>
        <time>2020-06-19T14:36:54.044Z</time>
      </trkpt>
      <trkpt lat="45.72172" lon="0.88928">
        <ele>339.01806640625</ele>
        <time>2020-06-19T14:36:56.067Z</time>
      </trkpt>
      <trkpt lat="45.72159" lon="0.8895">
        <ele>337.39834594727</ele>
        <time>2020-06-19T14:36:58.094Z</time>
      </trkpt>
      <trkpt lat="45.72158" lon="0.88951">
        <ele>337.29800415039</ele>
        <time>2020-06-19T14:37:00.121Z</time>
      </trkpt>
      <trkpt lat="45.72086" lon="0.89077">
        <ele>336.42813110352</ele>
        <time>2020-06-19T14:37:02.166Z</time>
      </trkpt>
      <trkpt lat="45.72068" lon="0.89116">
        <ele>336.8264465332</ele>
        <time>2020-06-19T14:37:04.216Z</time>
      </trkpt>
      <trkpt lat="45.72068" lon="0.89117">
        <ele>336.8483581543</ele>
        <time>2020-06-19T14:37:06.266Z</time>
      </trkpt>
      <trkpt lat="45.7205" lon="0.89162">
        <ele>337.04260253906</ele>
        <time>2020-06-19T14:37:08.322Z</time>
      </trkpt>
      <trkpt lat="45.72036" lon="0.8921">
        <ele>336.83267211914</ele>
        <time>2020-06-19T14:37:10.384Z</time>
      </trkpt>
      <trkpt lat="45.72025" lon="0.89258">
        <ele>335.78707885742</ele>
        <time>2020-06-19T14:37:12.452Z</time>
      </trkpt>
      <trkpt lat="45.72025" lon="0.8926">
        <ele>335.73147583008</ele>
        <time>2020-06-19T14:37:14.520Z</time>
      </trkpt>
      <trkpt lat="45.72004" lon="0.89355">
        <ele>332.88577270508</ele>
        <time>2020-06-19T14:37:16.599Z</time>
      </trkpt>
      <trkpt lat="45.72004" lon="0.89357">
        <ele>332.79873657227</ele>
        <time>2020-06-19T14:37:18.678Z</time>
      </trkpt>
      <trkpt lat="45.71977" lon="0.89487">
        <ele>330.56848144531</ele>
        <time>2020-06-19T14:37:20.772Z</time>
      </trkpt>
      <trkpt lat="45.71977" lon="0.89489">
        <ele>330.59335327148</ele>
        <time>2020-06-19T14:37:22.867Z</time>
      </trkpt>
      <trkpt lat="45.71927" lon="0.8973">
        <ele>335.95834350586</ele>
        <time>2020-06-19T14:37:24.990Z</time>
      </trkpt>
      <trkpt lat="45.71927" lon="0.89731">
        <ele>335.9538269043</ele>
        <time>2020-06-19T14:37:27.113Z</time>
      </trkpt>
      <trkpt lat="45.71897" lon="0.89869">
        <ele>332.08981323242</ele>
        <time>2020-06-19T14:37:29.252Z</time>
      </trkpt>
      <trkpt lat="45.71897" lon="0.8987">
        <ele>332.06167602539</ele>
        <time>2020-06-19T14:37:31.391Z</time>
      </trkpt>
      <trkpt lat="45.71863" lon="0.90042">
        <ele>332.45938110352</ele>
        <time>2020-06-19T14:37:33.550Z</time>
      </trkpt>
      <trkpt lat="45.71863" lon="0.90042">
        <ele>332.45944213867</ele>
        <time>2020-06-19T14:37:35.709Z</time>
      </trkpt>
      <trkpt lat="45.71863" lon="0.90042">
        <ele>332.45385742188</ele>
        <time>2020-06-19T14:37:37.868Z</time>
      </trkpt>
      <trkpt lat="45.71805" lon="0.90312">
        <ele>337.16674804688</ele>
        <time>2020-06-19T14:37:40.059Z</time>
      </trkpt>
      <trkpt lat="45.71805" lon="0.90313">
        <ele>337.1774597168</ele>
        <time>2020-06-19T14:37:42.250Z</time>
      </trkpt>
      <trkpt lat="45.71805" lon="0.90313">
        <ele>337.18231201172</ele>
        <time>2020-06-19T14:37:44.441Z</time>
      </trkpt>
      <trkpt lat="45.7179" lon="0.9037">
        <ele>337.20568847656</ele>
        <time>2020-06-19T14:37:46.639Z</time>
      </trkpt>
      <trkpt lat="45.7178" lon="0.90397">
        <ele>337.82901000977</ele>
        <time>2020-06-19T14:37:48.840Z</time>
      </trkpt>
      <trkpt lat="45.71746" lon="0.90469">
        <ele>339.65878295898</ele>
        <time>2020-06-19T14:37:51.051Z</time>
      </trkpt>
      <trkpt lat="45.71727" lon="0.90505">
        <ele>340.43151855469</ele>
        <time>2020-06-19T14:37:53.267Z</time>
      </trkpt>
      <trkpt lat="45.71727" lon="0.90505">
        <ele>340.4362487793</ele>
        <time>2020-06-19T14:37:55.483Z</time>
      </trkpt>
      <trkpt lat="45.71726" lon="0.90506">
        <ele>340.44485473633</ele>
        <time>2020-06-19T14:37:57.699Z</time>
      </trkpt>
      <trkpt lat="45.71693" lon="0.90567">
        <ele>340.93399047852</ele>
        <time>2020-06-19T14:37:59.924Z</time>
      </trkpt>
      <trkpt lat="45.71671" lon="0.90615">
        <ele>341.02996826172</ele>
        <time>2020-06-19T14:38:02.155Z</time>
      </trkpt>
      <trkpt lat="45.71669" lon="0.90619">
        <ele>341.02996826172</ele>
        <time>2020-06-19T14:38:04.387Z</time>
      </trkpt>
      <trkpt lat="45.71669" lon="0.9062">
        <ele>341.02996826172</ele>
        <time>2020-06-19T14:38:06.619Z</time>
      </trkpt>
      <trkpt lat="45.71668" lon="0.90621">
        <ele>341.02996826172</ele>
        <time>2020-06-19T14:38:08.851Z</time>
      </trkpt>
      <trkpt lat="45.71646" lon="0.90689">
        <ele>341.71408081055</ele>
        <time>2020-06-19T14:38:11.092Z</time>
      </trkpt>
      <trkpt lat="45.71627" lon="0.90775">
        <ele>341.0419921875</ele>
        <time>2020-06-19T14:38:13.343Z</time>
      </trkpt>
      <trkpt lat="45.71622" lon="0.90803">
        <ele>340.80184936523</ele>
        <time>2020-06-19T14:38:15.597Z</time>
      </trkpt>
      <trkpt lat="45.71621" lon="0.90804">
        <ele>340.8076171875</ele>
        <time>2020-06-19T14:38:17.851Z</time>
      </trkpt>
      <trkpt lat="45.71621" lon="0.90806">
        <ele>340.83013916016</ele>
        <time>2020-06-19T14:38:20.105Z</time>
      </trkpt>
      <trkpt lat="45.71615" lon="0.90848">
        <ele>341.90023803711</ele>
        <time>2020-06-19T14:38:22.364Z</time>
      </trkpt>
      <trkpt lat="45.71615" lon="0.90947">
        <ele>344.09963989258</ele>
        <time>2020-06-19T14:38:24.634Z</time>
      </trkpt>
      <trkpt lat="45.71614" lon="0.91009">
        <ele>346.30364990234</ele>
        <time>2020-06-19T14:38:26.911Z</time>
      </trkpt>
      <trkpt lat="45.71614" lon="0.9101">
        <ele>346.31771850586</ele>
        <time>2020-06-19T14:38:29.188Z</time>
      </trkpt>
      <trkpt lat="45.71614" lon="0.91013">
        <ele>346.39627075195</ele>
        <time>2020-06-19T14:38:31.466Z</time>
      </trkpt>
      <trkpt lat="45.71616" lon="0.91133">
        <ele>346.41015625</ele>
        <time>2020-06-19T14:38:33.757Z</time>
      </trkpt>
      <trkpt lat="45.71614" lon="0.91217">
        <ele>344.93472290039</ele>
        <time>2020-06-19T14:38:36.058Z</time>
      </trkpt>
      <trkpt lat="45.71614" lon="0.91218">
        <ele>344.90536499023</ele>
        <time>2020-06-19T14:38:38.359Z</time>
      </trkpt>
      <trkpt lat="45.71614" lon="0.91221">
        <ele>344.74359130859</ele>
        <time>2020-06-19T14:38:40.660Z</time>
      </trkpt>
      <trkpt lat="45.7161" lon="0.91264">
        <ele>344.38143920898</ele>
        <time>2020-06-19T14:38:42.966Z</time>
      </trkpt>
      <trkpt lat="45.71598" lon="0.91319">
        <ele>343.6296081543</ele>
        <time>2020-06-19T14:38:45.278Z</time>
      </trkpt>
      <trkpt lat="45.71569" lon="0.91422">
        <ele>344.30093383789</ele>
        <time>2020-06-19T14:38:47.603Z</time>
      </trkpt>
      <trkpt lat="45.71569" lon="0.91423">
        <ele>344.28793334961</ele>
        <time>2020-06-19T14:38:49.928Z</time>
      </trkpt>
      <trkpt lat="45.71568" lon="0.91426">
        <ele>344.20657348633</ele>
        <time>2020-06-19T14:38:52.253Z</time>
      </trkpt>
      <trkpt lat="45.71518" lon="0.91588">
        <ele>339.70550537109</ele>
        <time>2020-06-19T14:38:54.598Z</time>
      </trkpt>
      <trkpt lat="45.71518" lon="0.91589">
        <ele>339.6803894043</ele>
        <time>2020-06-19T14:38:56.943Z</time>
      </trkpt>
      <trkpt lat="45.71517" lon="0.91592">
        <ele>339.52142333984</ele>
        <time>2020-06-19T14:38:59.289Z</time>
      </trkpt>
      <trkpt lat="45.71461" lon="0.91771">
        <ele>343.06161499023</ele>
        <time>2020-06-19T14:39:01.657Z</time>
      </trkpt>
      <trkpt lat="45.71461" lon="0.91772">
        <ele>343.08361816406</ele>
        <time>2020-06-19T14:39:04.025Z</time>
      </trkpt>
      <trkpt lat="45.7146" lon="0.91775">
        <ele>343.21853637695</ele>
        <time>2020-06-19T14:39:06.393Z</time>
      </trkpt>
      <trkpt lat="45.71403" lon="0.91958">
        <ele>346.98693847656</ele>
        <time>2020-06-19T14:39:08.783Z</time>
      </trkpt>
      <trkpt lat="45.71403" lon="0.91958">
        <ele>346.98135375977</ele>
        <time>2020-06-19T14:39:11.174Z</time>
      </trkpt>
      <trkpt lat="45.71402" lon="0.91962">
        <ele>346.94418334961</ele>
        <time>2020-06-19T14:39:13.565Z</time>
      </trkpt>
      <trkpt lat="45.71362" lon="0.92089">
        <ele>344.49517822266</ele>
        <time>2020-06-19T14:39:15.972Z</time>
      </trkpt>
      <trkpt lat="45.71362" lon="0.9209">
        <ele>344.49557495117</ele>
        <time>2020-06-19T14:39:18.379Z</time>
      </trkpt>
      <trkpt lat="45.71361" lon="0.92093">
        <ele>344.498046875</ele>
        <time>2020-06-19T14:39:20.786Z</time>
      </trkpt>
      <trkpt lat="45.71344" lon="0.92136">
        <ele>344.86486816406</ele>
        <time>2020-06-19T14:39:23.199Z</time>
      </trkpt>
      <trkpt lat="45.71299" lon="0.92221">
        <ele>345.68447875977</ele>
        <time>2020-06-19T14:39:25.624Z</time>
      </trkpt>
      <trkpt lat="45.71274" lon="0.92265">
        <ele>348.107421875</ele>
        <time>2020-06-19T14:39:28.055Z</time>
      </trkpt>
      <trkpt lat="45.71274" lon="0.92265">
        <ele>348.13177490234</ele>
        <time>2020-06-19T14:39:30.486Z</time>
      </trkpt>
      <trkpt lat="45.71272" lon="0.92268">
        <ele>348.27774047852</ele>
        <time>2020-06-19T14:39:32.917Z</time>
      </trkpt>
      <trkpt lat="45.71232" lon="0.92342">
        <ele>349.82177734375</ele>
        <time>2020-06-19T14:39:35.359Z</time>
      </trkpt>
      <trkpt lat="45.71211" lon="0.92393">
        <ele>350.20596313477</ele>
        <time>2020-06-19T14:39:37.807Z</time>
      </trkpt>
      <trkpt lat="45.71192" lon="0.92449">
        <ele>350.52355957031</ele>
        <time>2020-06-19T14:39:40.262Z</time>
      </trkpt>
      <trkpt lat="45.71187" lon="0.9247">
        <ele>351.7353515625</ele>
        <time>2020-06-19T14:39:42.720Z</time>
      </trkpt>
      <trkpt lat="45.71186" lon="0.9248">
        <ele>352.07427978516</ele>
        <time>2020-06-19T14:39:45.179Z</time>
      </trkpt>
      <trkpt lat="45.71185" lon="0.92481">
        <ele>352.0832824707</ele>
        <time>2020-06-19T14:39:47.638Z</time>
      </trkpt>
      <trkpt lat="45.71185" lon="0.92484">
        <ele>352.13153076172</ele>
        <time>2020-06-19T14:39:50.098Z</time>
      </trkpt>
      <trkpt lat="45.71175" lon="0.92557">
        <ele>353.28332519531</ele>
        <time>2020-06-19T14:39:52.566Z</time>
      </trkpt>
      <trkpt lat="45.71169" lon="0.92635">
        <ele>352.54067993164</ele>
        <time>2020-06-19T14:39:55.043Z</time>
      </trkpt>
      <trkpt lat="45.71168" lon="0.92656">
        <ele>352.50115966797</ele>
        <time>2020-06-19T14:39:57.522Z</time>
      </trkpt>
      <trkpt lat="45.71168" lon="0.92656">
        <ele>352.5</ele>
        <time>2020-06-19T14:40:00.001Z</time>
      </trkpt>
      <trkpt lat="45.71168" lon="0.9266">
        <ele>352.49267578125</ele>
        <time>2020-06-19T14:40:02.480Z</time>
      </trkpt>
      <trkpt lat="45.71158" lon="0.92803">
        <ele>352.51913452148</ele>
        <time>2020-06-19T14:40:04.976Z</time>
      </trkpt>
      <trkpt lat="45.7115" lon="0.92861">
        <ele>354.37069702148</ele>
        <time>2020-06-19T14:40:07.478Z</time>
      </trkpt>
      <trkpt lat="45.7114" lon="0.92903">
        <ele>356.01217651367</ele>
        <time>2020-06-19T14:40:09.985Z</time>
      </trkpt>
      <trkpt lat="45.71139" lon="0.92909">
        <ele>356.423828125</ele>
        <time>2020-06-19T14:40:12.493Z</time>
      </trkpt>
      <trkpt lat="45.71139" lon="0.9291">
        <ele>356.46148681641</ele>
        <time>2020-06-19T14:40:15.001Z</time>
      </trkpt>
      <trkpt lat="45.71138" lon="0.92914">
        <ele>356.73205566406</ele>
        <time>2020-06-19T14:40:17.509Z</time>
      </trkpt>
      <trkpt lat="45.7112" lon="0.92962">
        <ele>359.88436889648</ele>
        <time>2020-06-19T14:40:20.024Z</time>
      </trkpt>
      <trkpt lat="45.71096" lon="0.93015">
        <ele>362.48791503906</ele>
        <time>2020-06-19T14:40:22.546Z</time>
      </trkpt>
      <trkpt lat="45.71077" lon="0.93051">
        <ele>364.19165039062</ele>
        <time>2020-06-19T14:40:25.073Z</time>
      </trkpt>
      <trkpt lat="45.71052" lon="0.93093">
        <ele>365.60870361328</ele>
        <time>2020-06-19T14:40:27.606Z</time>
      </trkpt>
      <trkpt lat="45.71052" lon="0.93093">
        <ele>365.61410522461</ele>
        <time>2020-06-19T14:40:30.139Z</time>
      </trkpt>
      <trkpt lat="45.7105" lon="0.93096">
        <ele>365.64981079102</ele>
        <time>2020-06-19T14:40:32.672Z</time>
      </trkpt>
      <trkpt lat="45.70972" lon="0.93223">
        <ele>366.11926269531</ele>
        <time>2020-06-19T14:40:35.224Z</time>
      </trkpt>
      <trkpt lat="45.70955" lon="0.93245">
        <ele>365.41235351562</ele>
        <time>2020-06-19T14:40:37.780Z</time>
      </trkpt>
      <trkpt lat="45.7094" lon="0.93273">
        <ele>365.01205444336</ele>
        <time>2020-06-19T14:40:40.340Z</time>
      </trkpt>
      <trkpt lat="45.7094" lon="0.93274">
        <ele>365.00531005859</ele>
        <time>2020-06-19T14:40:42.900Z</time>
      </trkpt>
      <trkpt lat="45.70938" lon="0.93277">
        <ele>365.00384521484</ele>
        <time>2020-06-19T14:40:45.460Z</time>
      </trkpt>
      <trkpt lat="45.70845" lon="0.93433">
        <ele>368.537109375</ele>
        <time>2020-06-19T14:40:48.043Z</time>
      </trkpt>
      <trkpt lat="45.70845" lon="0.93434">
        <ele>368.54049682617</ele>
        <time>2020-06-19T14:40:50.626Z</time>
      </trkpt>
      <trkpt lat="45.70843" lon="0.93437">
        <ele>368.56631469727</ele>
        <time>2020-06-19T14:40:53.210Z</time>
      </trkpt>
      <trkpt lat="45.70776" lon="0.93545">
        <ele>370.38540649414</ele>
        <time>2020-06-19T14:40:55.810Z</time>
      </trkpt>
      <trkpt lat="45.70762" lon="0.93571">
        <ele>370.30383300781</ele>
        <time>2020-06-19T14:40:58.414Z</time>
      </trkpt>
      <trkpt lat="45.70761" lon="0.93571">
        <ele>370.30236816406</ele>
        <time>2020-06-19T14:41:01.018Z</time>
      </trkpt>
      <trkpt lat="45.70759" lon="0.93575">
        <ele>370.28942871094</ele>
        <time>2020-06-19T14:41:03.622Z</time>
      </trkpt>
      <trkpt lat="45.70742" lon="0.93602">
        <ele>371.22012329102</ele>
        <time>2020-06-19T14:41:06.231Z</time>
      </trkpt>
      <trkpt lat="45.70703" lon="0.93651">
        <ele>373.09509277344</ele>
        <time>2020-06-19T14:41:08.848Z</time>
      </trkpt>
      <trkpt lat="45.70686" lon="0.93672">
        <ele>372.32720947266</ele>
        <time>2020-06-19T14:41:11.468Z</time>
      </trkpt>
      <trkpt lat="45.70661" lon="0.93694">
        <ele>371.09140014648</ele>
        <time>2020-06-19T14:41:14.093Z</time>
      </trkpt>
      <trkpt lat="45.7062" lon="0.93724">
        <ele>369.97952270508</ele>
        <time>2020-06-19T14:41:16.725Z</time>
      </trkpt>
      <trkpt lat="45.7062" lon="0.93724">
        <ele>369.97961425781</ele>
        <time>2020-06-19T14:41:19.357Z</time>
      </trkpt>
      <trkpt lat="45.7062" lon="0.93724">
        <ele>369.99566650391</ele>
        <time>2020-06-19T14:41:21.990Z</time>
      </trkpt>
      <trkpt lat="45.70617" lon="0.93726">
        <ele>370.07330322266</ele>
        <time>2020-06-19T14:41:24.623Z</time>
      </trkpt>
      <trkpt lat="45.70528" lon="0.93787">
        <ele>371.55502319336</ele>
        <time>2020-06-19T14:41:27.272Z</time>
      </trkpt>
      <trkpt lat="45.70528" lon="0.93787">
        <ele>371.5549621582</ele>
        <time>2020-06-19T14:41:29.921Z</time>
      </trkpt>
      <trkpt lat="45.70528" lon="0.93787">
        <ele>371.55242919922</ele>
        <time>2020-06-19T14:41:32.570Z</time>
      </trkpt>
      <trkpt lat="45.70525" lon="0.93789">
        <ele>371.53536987305</ele>
        <time>2020-06-19T14:41:35.219Z</time>
      </trkpt>
      <trkpt lat="45.70483" lon="0.93824">
        <ele>371.01864624023</ele>
        <time>2020-06-19T14:41:37.876Z</time>
      </trkpt>
      <trkpt lat="45.70445" lon="0.93868">
        <ele>370.03799438477</ele>
        <time>2020-06-19T14:41:40.541Z</time>
      </trkpt>
      <trkpt lat="45.70409" lon="0.93926">
        <ele>371.10833740234</ele>
        <time>2020-06-19T14:41:43.215Z</time>
      </trkpt>
      <trkpt lat="45.70409" lon="0.93926">
        <ele>371.11569213867</ele>
        <time>2020-06-19T14:41:45.889Z</time>
      </trkpt>
      <trkpt lat="45.70407" lon="0.93929">
        <ele>371.16275024414</ele>
        <time>2020-06-19T14:41:48.563Z</time>
      </trkpt>
      <trkpt lat="45.70388" lon="0.93968">
        <ele>371.87063598633</ele>
        <time>2020-06-19T14:41:51.242Z</time>
      </trkpt>
      <trkpt lat="45.7037" lon="0.9402">
        <ele>372.90246582031</ele>
        <time>2020-06-19T14:41:53.928Z</time>
      </trkpt>
      <trkpt lat="45.70337" lon="0.94115">
        <ele>371.91354370117</ele>
        <time>2020-06-19T14:41:56.626Z</time>
      </trkpt>
      <trkpt lat="45.70337" lon="0.94116">
        <ele>371.9133605957</ele>
        <time>2020-06-19T14:41:59.324Z</time>
      </trkpt>
      <trkpt lat="45.70336" lon="0.94119">
        <ele>371.91213989258</ele>
        <time>2020-06-19T14:42:02.022Z</time>
      </trkpt>
      <trkpt lat="45.7032" lon="0.94164">
        <ele>372.35458374023</ele>
        <time>2020-06-19T14:42:04.726Z</time>
      </trkpt>
      <trkpt lat="45.70299" lon="0.9421">
        <ele>372.45056152344</ele>
        <time>2020-06-19T14:42:07.436Z</time>
      </trkpt>
      <trkpt lat="45.70276" lon="0.94248">
        <ele>371.3547668457</ele>
        <time>2020-06-19T14:42:10.152Z</time>
      </trkpt>
      <trkpt lat="45.70241" lon="0.94294">
        <ele>370.43167114258</ele>
        <time>2020-06-19T14:42:12.875Z</time>
      </trkpt>
      <trkpt lat="45.70212" lon="0.94325">
        <ele>370.53680419922</ele>
        <time>2020-06-19T14:42:15.604Z</time>
      </trkpt>
      <trkpt lat="45.7018" lon="0.9435">
        <ele>371.05270385742</ele>
        <time>2020-06-19T14:42:18.339Z</time>
      </trkpt>
      <trkpt lat="45.70164" lon="0.94359">
        <ele>371.18469238281</ele>
        <time>2020-06-19T14:42:21.077Z</time>
      </trkpt>
      <trkpt lat="45.70088" lon="0.94395">
        <ele>371.5686340332</ele>
        <time>2020-06-19T14:42:23.828Z</time>
      </trkpt>
      <trkpt lat="45.70037" lon="0.94418">
        <ele>372.30822753906</ele>
        <time>2020-06-19T14:42:26.587Z</time>
      </trkpt>
      <trkpt lat="45.69983" lon="0.94453">
        <ele>373.396484375</ele>
        <time>2020-06-19T14:42:29.356Z</time>
      </trkpt>
      <trkpt lat="45.6996" lon="0.94473">
        <ele>374.06820678711</ele>
        <time>2020-06-19T14:42:32.129Z</time>
      </trkpt>
      <trkpt lat="45.69919" lon="0.94517">
        <ele>375.25439453125</ele>
        <time>2020-06-19T14:42:34.910Z</time>
      </trkpt>
      <trkpt lat="45.69901" lon="0.94541">
        <ele>376.26220703125</ele>
        <time>2020-06-19T14:42:37.695Z</time>
      </trkpt>
      <trkpt lat="45.69888" lon="0.94562">
        <ele>377.19638061523</ele>
        <time>2020-06-19T14:42:40.483Z</time>
      </trkpt>
      <trkpt lat="45.69888" lon="0.94563">
        <ele>377.22448730469</ele>
        <time>2020-06-19T14:42:43.271Z</time>
      </trkpt>
      <trkpt lat="45.69886" lon="0.94566">
        <ele>377.41104125977</ele>
        <time>2020-06-19T14:42:46.060Z</time>
      </trkpt>
      <trkpt lat="45.69824" lon="0.94678">
        <ele>379.43795776367</ele>
        <time>2020-06-19T14:42:48.865Z</time>
      </trkpt>
      <trkpt lat="45.6978" lon="0.94765">
        <ele>378.43988037109</ele>
        <time>2020-06-19T14:42:51.682Z</time>
      </trkpt>
      <trkpt lat="45.69749" lon="0.94822">
        <ele>379.5227355957</ele>
        <time>2020-06-19T14:42:54.507Z</time>
      </trkpt>
      <trkpt lat="45.6971" lon="0.94882">
        <ele>379.22579956055</ele>
        <time>2020-06-19T14:42:57.341Z</time>
      </trkpt>
      <trkpt lat="45.69675" lon="0.94923">
        <ele>380.31192016602</ele>
        <time>2020-06-19T14:43:00.182Z</time>
      </trkpt>
      <trkpt lat="45.6964" lon="0.94955">
        <ele>380.76998901367</ele>
        <time>2020-06-19T14:43:03.030Z</time>
      </trkpt>
      <trkpt lat="45.69462" lon="0.95079">
        <ele>383.69879150391</ele>
        <time>2020-06-19T14:43:05.910Z</time>
      </trkpt>
      <trkpt lat="45.69462" lon="0.95079">
        <ele>383.6994934082</ele>
        <time>2020-06-19T14:43:08.790Z</time>
      </trkpt>
      <trkpt lat="45.69462" lon="0.95079">
        <ele>383.71398925781</ele>
        <time>2020-06-19T14:43:11.670Z</time>
      </trkpt>
      <trkpt lat="45.69459" lon="0.95081">
        <ele>383.82629394531</ele>
        <time>2020-06-19T14:43:14.550Z</time>
      </trkpt>
      <trkpt lat="45.69187" lon="0.95273">
        <ele>380.47814941406</ele>
        <time>2020-06-19T14:43:17.479Z</time>
      </trkpt>
      <trkpt lat="45.69187" lon="0.95273">
        <ele>380.47747802734</ele>
        <time>2020-06-19T14:43:20.408Z</time>
      </trkpt>
      <trkpt lat="45.69187" lon="0.95273">
        <ele>380.46685791016</ele>
        <time>2020-06-19T14:43:23.337Z</time>
      </trkpt>
      <trkpt lat="45.69184" lon="0.95275">
        <ele>380.54498291016</ele>
        <time>2020-06-19T14:43:26.266Z</time>
      </trkpt>
      <trkpt lat="45.69122" lon="0.95319">
        <ele>382.35122680664</ele>
        <time>2020-06-19T14:43:29.206Z</time>
      </trkpt>
      <trkpt lat="45.69099" lon="0.9534">
        <ele>381.11541748047</ele>
        <time>2020-06-19T14:43:32.151Z</time>
      </trkpt>
      <trkpt lat="45.69073" lon="0.95367">
        <ele>381.86270141602</ele>
        <time>2020-06-19T14:43:35.101Z</time>
      </trkpt>
      <trkpt lat="45.69052" lon="0.95399">
        <ele>382.96130371094</ele>
        <time>2020-06-19T14:43:38.056Z</time>
      </trkpt>
      <trkpt lat="45.69024" lon="0.95451">
        <ele>383.75271606445</ele>
        <time>2020-06-19T14:43:41.018Z</time>
      </trkpt>
      <trkpt lat="45.68989" lon="0.95526">
        <ele>384.6171875</ele>
        <time>2020-06-19T14:43:43.990Z</time>
      </trkpt>
      <trkpt lat="45.68989" lon="0.95526">
        <ele>384.61920166016</ele>
        <time>2020-06-19T14:43:46.962Z</time>
      </trkpt>
      <trkpt lat="45.68987" lon="0.9553">
        <ele>384.63470458984</ele>
        <time>2020-06-19T14:43:49.935Z</time>
      </trkpt>
      <trkpt lat="45.68914" lon="0.95685">
        <ele>383.88012695312</ele>
        <time>2020-06-19T14:43:52.929Z</time>
      </trkpt>
      <trkpt lat="45.68874" lon="0.95765">
        <ele>386.63861083984</ele>
        <time>2020-06-19T14:43:55.934Z</time>
      </trkpt>
      <trkpt lat="45.68839" lon="0.95821">
        <ele>386.10931396484</ele>
        <time>2020-06-19T14:43:58.947Z</time>
      </trkpt>
      <trkpt lat="45.68822" lon="0.95845">
        <ele>385.99649047852</ele>
        <time>2020-06-19T14:44:01.964Z</time>
      </trkpt>
      <trkpt lat="45.68795" lon="0.95876">
        <ele>386.62396240234</ele>
        <time>2020-06-19T14:44:04.987Z</time>
      </trkpt>
      <trkpt lat="45.68774" lon="0.95899">
        <ele>386.49209594727</ele>
        <time>2020-06-19T14:44:08.014Z</time>
      </trkpt>
      <trkpt lat="45.68753" lon="0.95917">
        <ele>386.42010498047</ele>
        <time>2020-06-19T14:44:11.045Z</time>
      </trkpt>
      <trkpt lat="45.68658" lon="0.9599">
        <ele>383.96246337891</ele>
        <time>2020-06-19T14:44:14.093Z</time>
      </trkpt>
      <trkpt lat="45.68625" lon="0.96014">
        <ele>383.19467163086</ele>
        <time>2020-06-19T14:44:17.147Z</time>
      </trkpt>
      <trkpt lat="45.68625" lon="0.96014">
        <ele>383.19464111328</ele>
        <time>2020-06-19T14:44:20.201Z</time>
      </trkpt>
      <trkpt lat="45.68624" lon="0.96015">
        <ele>383.18905639648</ele>
        <time>2020-06-19T14:44:23.255Z</time>
      </trkpt>
      <trkpt lat="45.68621" lon="0.96017">
        <ele>383.14038085938</ele>
        <time>2020-06-19T14:44:26.310Z</time>
      </trkpt>
      <trkpt lat="45.68362" lon="0.96208">
        <ele>379.43408203125</ele>
        <time>2020-06-19T14:44:29.411Z</time>
      </trkpt>
      <trkpt lat="45.68314" lon="0.96243">
        <ele>378.06283569336</ele>
        <time>2020-06-19T14:44:32.521Z</time>
      </trkpt>
      <trkpt lat="45.68285" lon="0.96273">
        <ele>378.96710205078</ele>
        <time>2020-06-19T14:44:35.637Z</time>
      </trkpt>
      <trkpt lat="45.68278" lon="0.9628">
        <ele>379.31301879883</ele>
        <time>2020-06-19T14:44:38.754Z</time>
      </trkpt>
      <trkpt lat="45.68278" lon="0.96281">
        <ele>379.32934570312</ele>
        <time>2020-06-19T14:44:41.871Z</time>
      </trkpt>
      <trkpt lat="45.68274" lon="0.96284">
        <ele>379.43063354492</ele>
        <time>2020-06-19T14:44:44.989Z</time>
      </trkpt>
      <trkpt lat="45.68242" lon="0.96325">
        <ele>380.62173461914</ele>
        <time>2020-06-19T14:44:48.114Z</time>
      </trkpt>
      <trkpt lat="45.6821" lon="0.96378">
        <ele>381.68627929688</ele>
        <time>2020-06-19T14:44:51.247Z</time>
      </trkpt>
      <trkpt lat="45.68198" lon="0.96406">
        <ele>382.17907714844</ele>
        <time>2020-06-19T14:44:54.383Z</time>
      </trkpt>
      <trkpt lat="45.68174" lon="0.96462">
        <ele>381.65151977539</ele>
        <time>2020-06-19T14:44:57.527Z</time>
      </trkpt>
      <trkpt lat="45.68118" lon="0.96608">
        <ele>382.76388549805</ele>
        <time>2020-06-19T14:45:00.689Z</time>
      </trkpt>
      <trkpt lat="45.68086" lon="0.96693">
        <ele>383.65817260742</ele>
        <time>2020-06-19T14:45:03.862Z</time>
      </trkpt>
      <trkpt lat="45.68072" lon="0.96726">
        <ele>384.49160766602</ele>
        <time>2020-06-19T14:45:07.040Z</time>
      </trkpt>
      <trkpt lat="45.68049" lon="0.9677">
        <ele>385.54187011719</ele>
        <time>2020-06-19T14:45:10.224Z</time>
      </trkpt>
      <trkpt lat="45.68013" lon="0.96825">
        <ele>386.86392211914</ele>
        <time>2020-06-19T14:45:13.416Z</time>
      </trkpt>
      <trkpt lat="45.67969" lon="0.96884">
        <ele>385.86352539062</ele>
        <time>2020-06-19T14:45:16.618Z</time>
      </trkpt>
      <trkpt lat="45.6795" lon="0.96904">
        <ele>385.75305175781</ele>
        <time>2020-06-19T14:45:19.824Z</time>
      </trkpt>
      <trkpt lat="45.67887" lon="0.96952">
        <ele>385.21313476562</ele>
        <time>2020-06-19T14:45:23.041Z</time>
      </trkpt>
      <trkpt lat="45.6787" lon="0.96962">
        <ele>384.6611328125</ele>
        <time>2020-06-19T14:45:26.261Z</time>
      </trkpt>
      <trkpt lat="45.6783" lon="0.96984">
        <ele>384.19937133789</ele>
        <time>2020-06-19T14:45:29.488Z</time>
      </trkpt>
      <trkpt lat="45.67803" lon="0.96994">
        <ele>383.23400878906</ele>
        <time>2020-06-19T14:45:32.719Z</time>
      </trkpt>
      <trkpt lat="45.67773" lon="0.97001">
        <ele>383.67791748047</ele>
        <time>2020-06-19T14:45:35.955Z</time>
      </trkpt>
      <trkpt lat="45.67737" lon="0.97007">
        <ele>384.90924072266</ele>
        <time>2020-06-19T14:45:39.197Z</time>
      </trkpt>
      <trkpt lat="45.6771" lon="0.9701">
        <ele>387.07702636719</ele>
        <time>2020-06-19T14:45:42.443Z</time>
      </trkpt>
      <trkpt lat="45.6771" lon="0.9701">
        <ele>387.07904052734</ele>
        <time>2020-06-19T14:45:45.689Z</time>
      </trkpt>
      <trkpt lat="45.67709" lon="0.9701">
        <ele>387.11904907227</ele>
        <time>2020-06-19T14:45:48.935Z</time>
      </trkpt>
      <trkpt lat="45.67704" lon="0.9701">
        <ele>387.63259887695</ele>
        <time>2020-06-19T14:45:52.182Z</time>
      </trkpt>
      <trkpt lat="45.67665" lon="0.9701">
        <ele>390.96746826172</ele>
        <time>2020-06-19T14:45:55.435Z</time>
      </trkpt>
      <trkpt lat="45.67629" lon="0.97006">
        <ele>391.73672485352</ele>
        <time>2020-06-19T14:45:58.694Z</time>
      </trkpt>
      <trkpt lat="45.67522" lon="0.96993">
        <ele>387.51382446289</ele>
        <time>2020-06-19T14:46:01.970Z</time>
      </trkpt>
      <trkpt lat="45.67414" lon="0.96976">
        <ele>384.38650512695</ele>
        <time>2020-06-19T14:46:05.264Z</time>
      </trkpt>
      <trkpt lat="45.67325" lon="0.96963">
        <ele>384.32104492188</ele>
        <time>2020-06-19T14:46:08.572Z</time>
      </trkpt>
      <trkpt lat="45.67265" lon="0.96954">
        <ele>383.14288330078</ele>
        <time>2020-06-19T14:46:11.890Z</time>
      </trkpt>
      <trkpt lat="45.672" lon="0.96955">
        <ele>381.29443359375</ele>
        <time>2020-06-19T14:46:15.218Z</time>
      </trkpt>
      <trkpt lat="45.67161" lon="0.96961">
        <ele>379.35110473633</ele>
        <time>2020-06-19T14:46:18.552Z</time>
      </trkpt>
      <trkpt lat="45.67161" lon="0.96961">
        <ele>379.34976196289</ele>
        <time>2020-06-19T14:46:21.886Z</time>
      </trkpt>
      <trkpt lat="45.67161" lon="0.96961">
        <ele>379.33053588867</ele>
        <time>2020-06-19T14:46:25.221Z</time>
      </trkpt>
      <trkpt lat="45.67156" lon="0.96962">
        <ele>379.09878540039</ele>
        <time>2020-06-19T14:46:28.556Z</time>
      </trkpt>
      <trkpt lat="45.67126" lon="0.96971">
        <ele>377.63174438477</ele>
        <time>2020-06-19T14:46:31.896Z</time>
      </trkpt>
      <trkpt lat="45.671" lon="0.9698">
        <ele>376.56405639648</ele>
        <time>2020-06-19T14:46:35.240Z</time>
      </trkpt>
      <trkpt lat="45.67048" lon="0.96998">
        <ele>373.97854614258</ele>
        <time>2020-06-19T14:46:38.593Z</time>
      </trkpt>
      <trkpt lat="45.6696" lon="0.97024">
        <ele>369.87521362305</ele>
        <time>2020-06-19T14:46:41.960Z</time>
      </trkpt>
      <trkpt lat="45.66924" lon="0.97036">
        <ele>369.56832885742</ele>
        <time>2020-06-19T14:46:45.333Z</time>
      </trkpt>
      <trkpt lat="45.66808" lon="0.97075">
        <ele>372.26763916016</ele>
        <time>2020-06-19T14:46:48.725Z</time>
      </trkpt>
      <trkpt lat="45.66746" lon="0.97094">
        <ele>371.86740112305</ele>
        <time>2020-06-19T14:46:52.128Z</time>
      </trkpt>
      <trkpt lat="45.66724" lon="0.97102">
        <ele>372.05938720703</ele>
        <time>2020-06-19T14:46:55.534Z</time>
      </trkpt>
      <trkpt lat="45.66695" lon="0.97109">
        <ele>373.99066162109</ele>
        <time>2020-06-19T14:46:58.945Z</time>
      </trkpt>
      <trkpt lat="45.66671" lon="0.97115">
        <ele>375.06811523438</ele>
        <time>2020-06-19T14:47:02.360Z</time>
      </trkpt>
      <trkpt lat="45.66671" lon="0.97115">
        <ele>375.0686340332</ele>
        <time>2020-06-19T14:47:05.775Z</time>
      </trkpt>
      <trkpt lat="45.6667" lon="0.97115">
        <ele>375.08166503906</ele>
        <time>2020-06-19T14:47:09.190Z</time>
      </trkpt>
      <trkpt lat="45.6667" lon="0.97115">
        <ele>375.09585571289</ele>
        <time>2020-06-19T14:47:12.605Z</time>
      </trkpt>
      <trkpt lat="45.66666" lon="0.97116">
        <ele>375.2278137207</ele>
        <time>2020-06-19T14:47:16.021Z</time>
      </trkpt>
      <trkpt lat="45.66623" lon="0.97123">
        <ele>376.37609863281</ele>
        <time>2020-06-19T14:47:19.444Z</time>
      </trkpt>
      <trkpt lat="45.66605" lon="0.97126">
        <ele>377.13009643555</ele>
        <time>2020-06-19T14:47:22.869Z</time>
      </trkpt>
      <trkpt lat="45.66582" lon="0.97129">
        <ele>378.30590820312</ele>
        <time>2020-06-19T14:47:26.298Z</time>
      </trkpt>
      <trkpt lat="45.66554" lon="0.97125">
        <ele>379.5537109375</ele>
        <time>2020-06-19T14:47:29.732Z</time>
      </trkpt>
      <trkpt lat="45.66534" lon="0.97124">
        <ele>379.13616943359</ele>
        <time>2020-06-19T14:47:33.169Z</time>
      </trkpt>
      <trkpt lat="45.66498" lon="0.9712">
        <ele>378.17633056641</ele>
        <time>2020-06-19T14:47:36.612Z</time>
      </trkpt>
      <trkpt lat="45.66462" lon="0.97117">
        <ele>377.06164550781</ele>
        <time>2020-06-19T14:47:40.060Z</time>
      </trkpt>
      <trkpt lat="45.66414" lon="0.97106">
        <ele>374.49404907227</ele>
        <time>2020-06-19T14:47:43.516Z</time>
      </trkpt>
      <trkpt lat="45.66287" lon="0.97061">
        <ele>369.24371337891</ele>
        <time>2020-06-19T14:47:46.993Z</time>
      </trkpt>
      <trkpt lat="45.66229" lon="0.97039">
        <ele>365.78161621094</ele>
        <time>2020-06-19T14:47:50.480Z</time>
      </trkpt>
      <trkpt lat="45.66184" lon="0.97024">
        <ele>364.30053710938</ele>
        <time>2020-06-19T14:47:53.974Z</time>
      </trkpt>
      <trkpt lat="45.66159" lon="0.97017">
        <ele>363.09732055664</ele>
        <time>2020-06-19T14:47:57.472Z</time>
      </trkpt>
      <trkpt lat="45.66159" lon="0.97017">
        <ele>363.09655761719</ele>
        <time>2020-06-19T14:48:00.970Z</time>
      </trkpt>
      <trkpt lat="45.66159" lon="0.97017">
        <ele>363.07775878906</ele>
        <time>2020-06-19T14:48:04.468Z</time>
      </trkpt>
      <trkpt lat="45.66154" lon="0.97016">
        <ele>362.86077880859</ele>
        <time>2020-06-19T14:48:07.967Z</time>
      </trkpt>
      <trkpt lat="45.66093" lon="0.97011">
        <ele>360.44995117188</ele>
        <time>2020-06-19T14:48:11.476Z</time>
      </trkpt>
      <trkpt lat="45.65948" lon="0.97004">
        <ele>354.1589050293</ele>
        <time>2020-06-19T14:48:15.008Z</time>
      </trkpt>
      <trkpt lat="45.65899" lon="0.97004">
        <ele>354.34381103516</ele>
        <time>2020-06-19T14:48:18.548Z</time>
      </trkpt>
      <trkpt lat="45.65857" lon="0.97013">
        <ele>355.6662902832</ele>
        <time>2020-06-19T14:48:22.095Z</time>
      </trkpt>
      <trkpt lat="45.65824" lon="0.97023">
        <ele>357.06597900391</ele>
        <time>2020-06-19T14:48:25.647Z</time>
      </trkpt>
      <trkpt lat="45.6579" lon="0.9704">
        <ele>357.7780456543</ele>
        <time>2020-06-19T14:48:29.205Z</time>
      </trkpt>
      <trkpt lat="45.65766" lon="0.97057">
        <ele>359.02160644531</ele>
        <time>2020-06-19T14:48:32.767Z</time>
      </trkpt>
      <trkpt lat="45.65743" lon="0.97076">
        <ele>360.57290649414</ele>
        <time>2020-06-19T14:48:36.333Z</time>
      </trkpt>
      <trkpt lat="45.65723" lon="0.97095">
        <ele>361.41903686523</ele>
        <time>2020-06-19T14:48:39.903Z</time>
      </trkpt>
      <trkpt lat="45.65697" lon="0.97125">
        <ele>361.81475830078</ele>
        <time>2020-06-19T14:48:43.479Z</time>
      </trkpt>
      <trkpt lat="45.65697" lon="0.97126">
        <ele>361.81912231445</ele>
        <time>2020-06-19T14:48:47.055Z</time>
      </trkpt>
      <trkpt lat="45.65694" lon="0.97129">
        <ele>361.85903930664</ele>
        <time>2020-06-19T14:48:50.631Z</time>
      </trkpt>
      <trkpt lat="45.65659" lon="0.97173">
        <ele>364.61907958984</ele>
        <time>2020-06-19T14:48:54.215Z</time>
      </trkpt>
      <trkpt lat="45.65621" lon="0.97228">
        <ele>366</ele>
        <time>2020-06-19T14:48:57.807Z</time>
      </trkpt>
      <trkpt lat="45.65565" lon="0.97307">
        <ele>370.20452880859</ele>
        <time>2020-06-19T14:49:01.412Z</time>
      </trkpt>
      <trkpt lat="45.65554" lon="0.97323">
        <ele>370.88522338867</ele>
        <time>2020-06-19T14:49:05.019Z</time>
      </trkpt>
      <trkpt lat="45.65517" lon="0.9737">
        <ele>372.61959838867</ele>
        <time>2020-06-19T14:49:08.634Z</time>
      </trkpt>
      <trkpt lat="45.65496" lon="0.9739">
        <ele>372.40365600586</ele>
        <time>2020-06-19T14:49:12.253Z</time>
      </trkpt>
      <trkpt lat="45.65479" lon="0.97406">
        <ele>371.41079711914</ele>
        <time>2020-06-19T14:49:15.876Z</time>
      </trkpt>
      <trkpt lat="45.6546" lon="0.97418">
        <ele>370.97546386719</ele>
        <time>2020-06-19T14:49:19.502Z</time>
      </trkpt>
      <trkpt lat="45.65439" lon="0.9743">
        <ele>370.47152709961</ele>
        <time>2020-06-19T14:49:23.132Z</time>
      </trkpt>
      <trkpt lat="45.65422" lon="0.9744">
        <ele>370.49667358398</ele>
        <time>2020-06-19T14:49:26.765Z</time>
      </trkpt>
      <trkpt lat="45.65355" lon="0.97475">
        <ele>371.75225830078</ele>
        <time>2020-06-19T14:49:30.409Z</time>
      </trkpt>
      <trkpt lat="45.65355" lon="0.97475">
        <ele>371.75283813477</ele>
        <time>2020-06-19T14:49:34.053Z</time>
      </trkpt>
      <trkpt lat="45.65354" lon="0.97475">
        <ele>371.76162719727</ele>
        <time>2020-06-19T14:49:37.697Z</time>
      </trkpt>
      <trkpt lat="45.65354" lon="0.97476">
        <ele>371.76641845703</ele>
        <time>2020-06-19T14:49:41.341Z</time>
      </trkpt>
      <trkpt lat="45.65331" lon="0.97488">
        <ele>372.31365966797</ele>
        <time>2020-06-19T14:49:44.989Z</time>
      </trkpt>
      <trkpt lat="45.65331" lon="0.97488">
        <ele>372.31387329102</ele>
        <time>2020-06-19T14:49:48.637Z</time>
      </trkpt>
      <trkpt lat="45.65331" lon="0.97488">
        <ele>372.31832885742</ele>
        <time>2020-06-19T14:49:52.285Z</time>
      </trkpt>
      <trkpt lat="45.65208" lon="0.97556">
        <ele>376.62890625</ele>
        <time>2020-06-19T14:49:55.954Z</time>
      </trkpt>
      <trkpt lat="45.65208" lon="0.97556">
        <ele>376.62997436523</ele>
        <time>2020-06-19T14:49:59.623Z</time>
      </trkpt>
      <trkpt lat="45.65207" lon="0.97556">
        <ele>376.63531494141</ele>
        <time>2020-06-19T14:50:03.292Z</time>
      </trkpt>
      <trkpt lat="45.65207" lon="0.97572">
        <ele>376.77569580078</ele>
        <time>2020-06-19T14:50:06.963Z</time>
      </trkpt>
      <trkpt lat="45.65207" lon="0.97572">
        <ele>376.779296875</ele>
        <time>2020-06-19T14:50:10.634Z</time>
      </trkpt>
      <trkpt lat="45.65197" lon="0.97596">
        <ele>377.52352905273</ele>
        <time>2020-06-19T14:50:14.308Z</time>
      </trkpt>
      <trkpt lat="45.65197" lon="0.97596">
        <ele>377.53039550781</ele>
        <time>2020-06-19T14:50:17.982Z</time>
      </trkpt>
      <trkpt lat="45.65199" lon="0.97595">
        <ele>377.4162902832</ele>
        <time>2020-06-19T14:50:21.657Z</time>
      </trkpt>
      <trkpt lat="45.65219" lon="0.9767">
        <ele>378.3840637207</ele>
        <time>2020-06-19T14:50:25.341Z</time>
      </trkpt>
      <trkpt lat="45.65229" lon="0.97684">
        <ele>378.93304443359</ele>
        <time>2020-06-19T14:50:29.027Z</time>
      </trkpt>
      <trkpt lat="45.65236" lon="0.97689">
        <ele>379.08901977539</ele>
        <time>2020-06-19T14:50:32.714Z</time>
      </trkpt>
      <trkpt lat="45.65255" lon="0.97696">
        <ele>379.1969909668</ele>
        <time>2020-06-19T14:50:36.404Z</time>
      </trkpt>
      <trkpt lat="45.65305" lon="0.97702">
        <ele>378.67132568359</ele>
        <time>2020-06-19T14:50:40.102Z</time>
      </trkpt>
      <trkpt lat="45.65335" lon="0.97705">
        <ele>379.21124267578</ele>
        <time>2020-06-19T14:50:43.805Z</time>
      </trkpt>
      <trkpt lat="45.65347" lon="0.97706">
        <ele>379.40786743164</ele>
        <time>2020-06-19T14:50:47.510Z</time>
      </trkpt>
      <trkpt lat="45.65347" lon="0.97706">
        <ele>379.40798950195</ele>
        <time>2020-06-19T14:50:51.215Z</time>
      </trkpt>
      <trkpt lat="45.65349" lon="0.97706">
        <ele>379.43920898438</ele>
        <time>2020-06-19T14:50:54.920Z</time>
      </trkpt>
      <trkpt lat="45.65351" lon="0.97706">
        <ele>379.46319580078</ele>
        <time>2020-06-19T14:50:58.626Z</time>
      </trkpt>
      <trkpt lat="45.65351" lon="0.97712">
        <ele>379.82315063477</ele>
        <time>2020-06-19T14:51:02.332Z</time>
      </trkpt>
      <trkpt lat="45.65348" lon="0.97732">
        <ele>380.72164916992</ele>
        <time>2020-06-19T14:51:06.041Z</time>
      </trkpt>
      <trkpt lat="45.65336" lon="0.97745">
        <ele>380.88961791992</ele>
        <time>2020-06-19T14:51:09.752Z</time>
      </trkpt>
      <trkpt lat="45.6532" lon="0.97759">
        <ele>381.23712158203</ele>
        <time>2020-06-19T14:51:13.466Z</time>
      </trkpt>
      <trkpt lat="45.65279" lon="0.9779">
        <ele>382.7766418457</ele>
        <time>2020-06-19T14:51:17.187Z</time>
      </trkpt>
      <trkpt lat="45.65277" lon="0.97792">
        <ele>382.96267700195</ele>
        <time>2020-06-19T14:51:20.909Z</time>
      </trkpt>
      <trkpt lat="45.65191" lon="0.97861">
        <ele>387.65280151367</ele>
        <time>2020-06-19T14:51:24.647Z</time>
      </trkpt>
      <trkpt lat="45.65187" lon="0.97867">
        <ele>388.05883789062</ele>
        <time>2020-06-19T14:51:28.386Z</time>
      </trkpt>
      <trkpt lat="45.65184" lon="0.97882">
        <ele>388.77871704102</ele>
        <time>2020-06-19T14:51:32.126Z</time>
      </trkpt>
      <trkpt lat="45.65185" lon="0.97898">
        <ele>389.21453857422</ele>
        <time>2020-06-19T14:51:35.868Z</time>
      </trkpt>
      <trkpt lat="45.65196" lon="0.97996">
        <ele>390.36993408203</ele>
        <time>2020-06-19T14:51:39.621Z</time>
      </trkpt>
      <trkpt lat="45.65196" lon="0.98">
        <ele>390.44445800781</ele>
        <time>2020-06-19T14:51:43.375Z</time>
      </trkpt>
      <trkpt lat="45.65195" lon="0.98019">
        <ele>390.93637084961</ele>
        <time>2020-06-19T14:51:47.131Z</time>
      </trkpt>
      <trkpt lat="45.65189" lon="0.98034">
        <ele>391.51226806641</ele>
        <time>2020-06-19T14:51:50.889Z</time>
      </trkpt>
      <trkpt lat="45.65179" lon="0.98069">
        <ele>392.58032226562</ele>
        <time>2020-06-19T14:51:54.651Z</time>
      </trkpt>
      <trkpt lat="45.65176" lon="0.98082">
        <ele>392.84426879883</ele>
        <time>2020-06-19T14:51:58.415Z</time>
      </trkpt>
      <trkpt lat="45.65233" lon="0.98088">
        <ele>391.02963256836</ele>
        <time>2020-06-19T14:52:02.188Z</time>
      </trkpt>
      <trkpt lat="45.65228" lon="0.98093">
        <ele>391.20962524414</ele>
        <time>2020-06-19T14:52:05.962Z</time>
      </trkpt>
      <trkpt lat="45.65225" lon="0.98097">
        <ele>391.32958984375</ele>
        <time>2020-06-19T14:52:09.736Z</time>
      </trkpt>
      <trkpt lat="45.65187" lon="0.9819">
        <ele>393.54748535156</ele>
        <time>2020-06-19T14:52:13.522Z</time>
      </trkpt>
      <trkpt lat="45.65177" lon="0.98217">
        <ele>394.02740478516</ele>
        <time>2020-06-19T14:52:17.312Z</time>
      </trkpt>
      <trkpt lat="45.65171" lon="0.98242">
        <ele>393.90054321289</ele>
        <time>2020-06-19T14:52:21.105Z</time>
      </trkpt>
      <trkpt lat="45.65157" lon="0.9835">
        <ele>389.20764160156</ele>
        <time>2020-06-19T14:52:24.910Z</time>
      </trkpt>
      <trkpt lat="45.65157" lon="0.98352">
        <ele>389.09811401367</ele>
        <time>2020-06-19T14:52:28.715Z</time>
      </trkpt>
      <trkpt lat="45.65147" lon="0.98454">
        <ele>385.21420288086</ele>
        <time>2020-06-19T14:52:32.532Z</time>
      </trkpt>
      <trkpt lat="45.6515" lon="0.98465">
        <ele>384.67431640625</ele>
        <time>2020-06-19T14:52:36.350Z</time>
      </trkpt>
      <trkpt lat="45.65153" lon="0.98468">
        <ele>384.42233276367</ele>
        <time>2020-06-19T14:52:40.169Z</time>
      </trkpt>
      <trkpt lat="45.65139" lon="0.98487">
        <ele>384.81387329102</ele>
        <time>2020-06-19T14:52:43.991Z</time>
      </trkpt>
      <trkpt lat="45.65116" lon="0.98523">
        <ele>385.47744750977</ele>
        <time>2020-06-19T14:52:47.818Z</time>
      </trkpt>
      <trkpt lat="45.65103" lon="0.98551">
        <ele>386.71170043945</ele>
        <time>2020-06-19T14:52:51.649Z</time>
      </trkpt>
      <trkpt lat="45.65102" lon="0.98554">
        <ele>386.88586425781</ele>
        <time>2020-06-19T14:52:55.481Z</time>
      </trkpt>
      <trkpt lat="45.65051" lon="0.98688">
        <ele>393.63290405273</ele>
        <time>2020-06-19T14:52:59.330Z</time>
      </trkpt>
      <trkpt lat="45.65037" lon="0.98716">
        <ele>394.55972290039</ele>
        <time>2020-06-19T14:53:03.183Z</time>
      </trkpt>
      <trkpt lat="45.65019" lon="0.98745">
        <ele>394.72280883789</ele>
        <time>2020-06-19T14:53:07.040Z</time>
      </trkpt>
      <trkpt lat="45.64977" lon="0.98796">
        <ele>398.05377197266</ele>
        <time>2020-06-19T14:53:10.906Z</time>
      </trkpt>
      <trkpt lat="45.64966" lon="0.98813">
        <ele>399.15371704102</ele>
        <time>2020-06-19T14:53:14.774Z</time>
      </trkpt>
      <trkpt lat="45.64953" lon="0.98838">
        <ele>399.7776184082</ele>
        <time>2020-06-19T14:53:18.646Z</time>
      </trkpt>
      <trkpt lat="45.64929" lon="0.9891">
        <ele>400.26321411133</ele>
        <time>2020-06-19T14:53:22.527Z</time>
      </trkpt>
      <trkpt lat="45.64908" lon="0.9895">
        <ele>399.83126831055</ele>
        <time>2020-06-19T14:53:26.413Z</time>
      </trkpt>
      <trkpt lat="45.64874" lon="0.98994">
        <ele>402.00299072266</ele>
        <time>2020-06-19T14:53:30.307Z</time>
      </trkpt>
      <trkpt lat="45.64848" lon="0.9904">
        <ele>405.92620849609</ele>
        <time>2020-06-19T14:53:34.207Z</time>
      </trkpt>
      <trkpt lat="45.64825" lon="0.99079">
        <ele>406.9407043457</ele>
        <time>2020-06-19T14:53:38.113Z</time>
      </trkpt>
      <trkpt lat="45.64799" lon="0.99117">
        <ele>409.21081542969</ele>
        <time>2020-06-19T14:53:42.025Z</time>
      </trkpt>
      <trkpt lat="45.6476" lon="0.99164">
        <ele>412.32968139648</ele>
        <time>2020-06-19T14:53:45.945Z</time>
      </trkpt>
      <trkpt lat="45.64741" lon="0.99195">
        <ele>413.31338500977</ele>
        <time>2020-06-19T14:53:49.870Z</time>
      </trkpt>
      <trkpt lat="45.64739" lon="0.99198">
        <ele>413.3703918457</ele>
        <time>2020-06-19T14:53:53.795Z</time>
      </trkpt>
      <trkpt lat="45.64716" lon="0.99254">
        <ele>414.38729858398</ele>
        <time>2020-06-19T14:53:57.728Z</time>
      </trkpt>
      <trkpt lat="45.64703" lon="0.993">
        <ele>415.28558349609</ele>
        <time>2020-06-19T14:54:01.666Z</time>
      </trkpt>
      <trkpt lat="45.64695" lon="0.99361">
        <ele>420.30184936523</ele>
        <time>2020-06-19T14:54:05.611Z</time>
      </trkpt>
      <trkpt lat="45.64685" lon="0.99493">
        <ele>428.02395629883</ele>
        <time>2020-06-19T14:54:09.571Z</time>
      </trkpt>
      <trkpt lat="45.64678" lon="0.99537">
        <ele>429.23446655273</ele>
        <time>2020-06-19T14:54:13.536Z</time>
      </trkpt>
      <trkpt lat="45.64673" lon="0.99558">
        <ele>429.99032592773</ele>
        <time>2020-06-19T14:54:17.504Z</time>
      </trkpt>
      <trkpt lat="45.64664" lon="0.99586">
        <ele>430.66543579102</ele>
        <time>2020-06-19T14:54:21.475Z</time>
      </trkpt>
      <trkpt lat="45.64656" lon="0.99607">
        <ele>431.16934204102</ele>
        <time>2020-06-19T14:54:25.449Z</time>
      </trkpt>
      <trkpt lat="45.64635" lon="0.99649">
        <ele>432.1081237793</ele>
        <time>2020-06-19T14:54:29.428Z</time>
      </trkpt>
      <trkpt lat="45.6461" lon="0.99687">
        <ele>433.16394042969</ele>
        <time>2020-06-19T14:54:33.413Z</time>
      </trkpt>
      <trkpt lat="45.64581" lon="0.99717">
        <ele>432.53341674805</ele>
        <time>2020-06-19T14:54:37.404Z</time>
      </trkpt>
      <trkpt lat="45.64563" lon="0.99732">
        <ele>432.12637329102</ele>
        <time>2020-06-19T14:54:41.398Z</time>
      </trkpt>
      <trkpt lat="45.64543" lon="0.99744">
        <ele>431.65802001953</ele>
        <time>2020-06-19T14:54:45.396Z</time>
      </trkpt>
      <trkpt lat="45.64523" lon="0.99754">
        <ele>431.29806518555</ele>
        <time>2020-06-19T14:54:49.397Z</time>
      </trkpt>
      <trkpt lat="45.64498" lon="0.99762">
        <ele>430.60855102539</ele>
        <time>2020-06-19T14:54:53.402Z</time>
      </trkpt>
      <trkpt lat="45.64405" lon="0.99778">
        <ele>424.16049194336</ele>
        <time>2020-06-19T14:54:57.422Z</time>
      </trkpt>
      <trkpt lat="45.64312" lon="0.99792">
        <ele>419.55905151367</ele>
        <time>2020-06-19T14:55:01.457Z</time>
      </trkpt>
      <trkpt lat="45.64312" lon="0.99792">
        <ele>419.556640625</ele>
        <time>2020-06-19T14:55:05.492Z</time>
      </trkpt>
      <trkpt lat="45.64308" lon="0.99793">
        <ele>419.41961669922</ele>
        <time>2020-06-19T14:55:09.528Z</time>
      </trkpt>
      <trkpt lat="45.6421" lon="0.99809">
        <ele>411.75735473633</ele>
        <time>2020-06-19T14:55:13.580Z</time>
      </trkpt>
      <trkpt lat="45.64156" lon="0.99821">
        <ele>410.02963256836</ele>
        <time>2020-06-19T14:55:17.640Z</time>
      </trkpt>
      <trkpt lat="45.64131" lon="0.99832">
        <ele>408.12435913086</ele>
        <time>2020-06-19T14:55:21.705Z</time>
      </trkpt>
      <trkpt lat="45.64109" lon="0.99848">
        <ele>406.1806640625</ele>
        <time>2020-06-19T14:55:25.774Z</time>
      </trkpt>
      <trkpt lat="45.64071" lon="0.99883">
        <ele>402.29333496094</ele>
        <time>2020-06-19T14:55:29.850Z</time>
      </trkpt>
      <trkpt lat="45.64047" lon="0.99915">
        <ele>400.35357666016</ele>
        <time>2020-06-19T14:55:33.931Z</time>
      </trkpt>
      <trkpt lat="45.64033" lon="0.99941">
        <ele>399.92166137695</ele>
        <time>2020-06-19T14:55:38.016Z</time>
      </trkpt>
      <trkpt lat="45.64011" lon="0.99992">
        <ele>399.0817565918</ele>
        <time>2020-06-19T14:55:42.108Z</time>
      </trkpt>
      <trkpt lat="45.63895" lon="1.00352">
        <ele>388.28875732422</ele>
        <time>2020-06-19T14:55:46.244Z</time>
      </trkpt>
      <trkpt lat="45.6385" lon="1.00486">
        <ele>386.84371948242</ele>
        <time>2020-06-19T14:55:50.397Z</time>
      </trkpt>
      <trkpt lat="45.63837" lon="1.00517">
        <ele>387.40438842773</ele>
        <time>2020-06-19T14:55:54.554Z</time>
      </trkpt>
      <trkpt lat="45.63816" lon="1.00556">
        <ele>385.28076171875</ele>
        <time>2020-06-19T14:55:58.716Z</time>
      </trkpt>
      <trkpt lat="45.63769" lon="1.00626">
        <ele>384.13598632812</ele>
        <time>2020-06-19T14:56:02.889Z</time>
      </trkpt>
      <trkpt lat="45.63754" lon="1.00647">
        <ele>382.16284179688</ele>
        <time>2020-06-19T14:56:07.065Z</time>
      </trkpt>
      <trkpt lat="45.63751" lon="1.00651">
        <ele>382.03057861328</ele>
        <time>2020-06-19T14:56:11.242Z</time>
      </trkpt>
      <trkpt lat="45.63664" lon="1.00776">
        <ele>383.14224243164</ele>
        <time>2020-06-19T14:56:15.439Z</time>
      </trkpt>
      <trkpt lat="45.63654" lon="1.00791">
        <ele>383.26220703125</ele>
        <time>2020-06-19T14:56:19.638Z</time>
      </trkpt>
      <trkpt lat="45.63656" lon="1.00807">
        <ele>384.15005493164</ele>
        <time>2020-06-19T14:56:23.839Z</time>
      </trkpt>
      <trkpt lat="45.63653" lon="1.00863">
        <ele>383.83279418945</ele>
        <time>2020-06-19T14:56:28.046Z</time>
      </trkpt>
      <trkpt lat="45.6365" lon="1.00887">
        <ele>383.68881225586</ele>
        <time>2020-06-19T14:56:32.256Z</time>
      </trkpt>
      <trkpt lat="45.6365" lon="1.00923">
        <ele>384.12213134766</ele>
        <time>2020-06-19T14:56:36.470Z</time>
      </trkpt>
      <trkpt lat="45.63653" lon="1.00948">
        <ele>385.02200317383</ele>
        <time>2020-06-19T14:56:40.687Z</time>
      </trkpt>
      <trkpt lat="45.63666" lon="1.00984">
        <ele>386.52963256836</ele>
        <time>2020-06-19T14:56:44.909Z</time>
      </trkpt>
      <trkpt lat="45.63674" lon="1.01009">
        <ele>388.02935791016</ele>
        <time>2020-06-19T14:56:49.134Z</time>
      </trkpt>
      <trkpt lat="45.63678" lon="1.01043">
        <ele>389.15203857422</ele>
        <time>2020-06-19T14:56:53.363Z</time>
      </trkpt>
      <trkpt lat="45.6368" lon="1.01084">
        <ele>389.90216064453</ele>
        <time>2020-06-19T14:56:57.596Z</time>
      </trkpt>
      <trkpt lat="45.63684" lon="1.01095">
        <ele>390.17810058594</ele>
        <time>2020-06-19T14:57:01.831Z</time>
      </trkpt>
      <trkpt lat="45.63692" lon="1.01106">
        <ele>390.59802246094</ele>
        <time>2020-06-19T14:57:06.067Z</time>
      </trkpt>
      <trkpt lat="45.63708" lon="1.01119">
        <ele>391.32992553711</ele>
        <time>2020-06-19T14:57:10.306Z</time>
      </trkpt>
      <trkpt lat="45.63734" lon="1.0114">
        <ele>392.33767700195</ele>
        <time>2020-06-19T14:57:14.550Z</time>
      </trkpt>
      <trkpt lat="45.6381" lon="1.01193">
        <ele>393.04864501953</ele>
        <time>2020-06-19T14:57:18.808Z</time>
      </trkpt>
      <trkpt lat="45.63847" lon="1.01208">
        <ele>394.02047729492</ele>
        <time>2020-06-19T14:57:23.072Z</time>
      </trkpt>
      <trkpt lat="45.63853" lon="1.01215">
        <ele>394.06845092773</ele>
        <time>2020-06-19T14:57:27.337Z</time>
      </trkpt>
      <trkpt lat="45.63851" lon="1.01223">
        <ele>393.80450439453</ele>
        <time>2020-06-19T14:57:31.603Z</time>
      </trkpt>
      <trkpt lat="45.63841" lon="1.01249">
        <ele>393.39144897461</ele>
        <time>2020-06-19T14:57:35.872Z</time>
      </trkpt>
      <trkpt lat="45.6382" lon="1.01304">
        <ele>396.30270385742</ele>
        <time>2020-06-19T14:57:40.148Z</time>
      </trkpt>
      <trkpt lat="45.63795" lon="1.01365">
        <ele>402.41729736328</ele>
        <time>2020-06-19T14:57:44.432Z</time>
      </trkpt>
      <trkpt lat="45.63778" lon="1.01406">
        <ele>405.38427734375</ele>
        <time>2020-06-19T14:57:48.722Z</time>
      </trkpt>
      <trkpt lat="45.6375" lon="1.01484">
        <ele>410.88552856445</ele>
        <time>2020-06-19T14:57:53.021Z</time>
      </trkpt>
      <trkpt lat="45.63747" lon="1.01491">
        <ele>411.47537231445</ele>
        <time>2020-06-19T14:57:57.321Z</time>
      </trkpt>
      <trkpt lat="45.63748" lon="1.01492">
        <ele>411.50701904297</ele>
        <time>2020-06-19T14:58:01.622Z</time>
      </trkpt>
      <trkpt lat="45.63725" lon="1.01555">
        <ele>415.70416259766</ele>
        <time>2020-06-19T14:58:05.930Z</time>
      </trkpt>
      <trkpt lat="45.63714" lon="1.01642">
        <ele>420.88864135742</ele>
        <time>2020-06-19T14:58:10.248Z</time>
      </trkpt>
      <trkpt lat="45.63716" lon="1.01736">
        <ele>422.59130859375</ele>
        <time>2020-06-19T14:58:14.577Z</time>
      </trkpt>
      <trkpt lat="45.63716" lon="1.01736">
        <ele>422.59039306641</ele>
        <time>2020-06-19T14:58:18.906Z</time>
      </trkpt>
      <trkpt lat="45.63714" lon="1.01804">
        <ele>421.54772949219</ele>
        <time>2020-06-19T14:58:23.243Z</time>
      </trkpt>
      <trkpt lat="45.63701" lon="1.01865">
        <ele>416.08868408203</ele>
        <time>2020-06-19T14:58:27.587Z</time>
      </trkpt>
      <trkpt lat="45.63515" lon="1.02195">
        <ele>408.29144287109</ele>
        <time>2020-06-19T14:58:31.978Z</time>
      </trkpt>
      <trkpt lat="45.63515" lon="1.02195">
        <ele>408.29153442383</ele>
        <time>2020-06-19T14:58:36.369Z</time>
      </trkpt>
      <trkpt lat="45.63381" lon="1.02433">
        <ele>420.48446655273</ele>
        <time>2020-06-19T14:58:40.795Z</time>
      </trkpt>
      <trkpt lat="45.63342" lon="1.02501">
        <ele>423.09408569336</ele>
        <time>2020-06-19T14:58:45.230Z</time>
      </trkpt>
      <trkpt lat="45.63342" lon="1.02501">
        <ele>423.09399414062</ele>
        <time>2020-06-19T14:58:49.665Z</time>
      </trkpt>
      <trkpt lat="45.63146" lon="1.02896">
        <ele>416.54904174805</ele>
        <time>2020-06-19T14:58:54.155Z</time>
      </trkpt>
      <trkpt lat="45.63146" lon="1.02897">
        <ele>416.50354003906</ele>
        <time>2020-06-19T14:58:58.645Z</time>
      </trkpt>
      <trkpt lat="45.63146" lon="1.02897">
        <ele>416.50466918945</ele>
        <time>2020-06-19T14:59:03.135Z</time>
      </trkpt>
      <trkpt lat="45.63133" lon="1.02923">
        <ele>413.92736816406</ele>
        <time>2020-06-19T14:59:07.628Z</time>
      </trkpt>
      <trkpt lat="45.63133" lon="1.02923">
        <ele>413.92666625977</ele>
        <time>2020-06-19T14:59:12.121Z</time>
      </trkpt>
      <trkpt lat="45.63053" lon="1.03095">
        <ele>405.44104003906</ele>
        <time>2020-06-19T14:59:16.638Z</time>
      </trkpt>
      <trkpt lat="45.62997" lon="1.03289">
        <ele>418.85629272461</ele>
        <time>2020-06-19T14:59:21.178Z</time>
      </trkpt>
      <trkpt lat="45.62958" lon="1.03471">
        <ele>424.25448608398</ele>
        <time>2020-06-19T14:59:25.740Z</time>
      </trkpt>
      <trkpt lat="45.62844" lon="1.03476">
        <ele>428.53540039062</ele>
        <time>2020-06-19T14:59:30.320Z</time>
      </trkpt>
      <trkpt lat="45.62844" lon="1.03476">
        <ele>428.53552246094</ele>
        <time>2020-06-19T14:59:34.900Z</time>
      </trkpt>
      <trkpt lat="45.6282" lon="1.03478">
        <ele>428.88363647461</ele>
        <time>2020-06-19T14:59:39.484Z</time>
      </trkpt>
      <trkpt lat="45.62819" lon="1.03478">
        <ele>428.9020690918</ele>
        <time>2020-06-19T14:59:44.068Z</time>
      </trkpt>
      <trkpt lat="45.62819" lon="1.03478">
        <ele>428.90197753906</ele>
        <time>2020-06-19T14:59:48.652Z</time>
      </trkpt>
      <trkpt lat="45.62746" lon="1.03482">
        <ele>431.48669433594</ele>
        <time>2020-06-19T14:59:53.248Z</time>
      </trkpt>
      <trkpt lat="45.62691" lon="1.03507">
        <ele>433.08267211914</ele>
        <time>2020-06-19T14:59:57.853Z</time>
      </trkpt>
      <trkpt lat="45.6269" lon="1.03508">
        <ele>433.11080932617</ele>
        <time>2020-06-19T15:00:02.458Z</time>
      </trkpt>
      <trkpt lat="45.6269" lon="1.03508">
        <ele>433.11071777344</ele>
        <time>2020-06-19T15:00:07.063Z</time>
      </trkpt>
      <trkpt lat="45.62685" lon="1.0351">
        <ele>433.21911621094</ele>
        <time>2020-06-19T15:00:11.669Z</time>
      </trkpt>
      <trkpt lat="45.62663" lon="1.03512">
        <ele>433.64727783203</ele>
        <time>2020-06-19T15:00:16.278Z</time>
      </trkpt>
      <trkpt lat="45.62654" lon="1.03561">
        <ele>435.62963867188</ele>
        <time>2020-06-19T15:00:20.893Z</time>
      </trkpt>
      <trkpt lat="45.62645" lon="1.0357">
        <ele>436.14990234375</ele>
        <time>2020-06-19T15:00:25.510Z</time>
      </trkpt>
      <trkpt lat="45.62667" lon="1.03638">
        <ele>437.52734375</ele>
        <time>2020-06-19T15:00:30.135Z</time>
      </trkpt>
      <trkpt lat="45.62635" lon="1.0363">
        <ele>437.6884765625</ele>
        <time>2020-06-19T15:00:34.766Z</time>
      </trkpt>
      <trkpt lat="45.62635" lon="1.0363">
        <ele>437.68826293945</ele>
        <time>2020-06-19T15:00:39.397Z</time>
      </trkpt>
      <trkpt lat="45.62554" lon="1.0362">
        <ele>433.37908935547</ele>
        <time>2020-06-19T15:00:44.041Z</time>
      </trkpt>
      <trkpt lat="45.62553" lon="1.0362">
        <ele>433.3014831543</ele>
        <time>2020-06-19T15:00:48.685Z</time>
      </trkpt>
      <trkpt lat="45.62553" lon="1.0362">
        <ele>433.30197143555</ele>
        <time>2020-06-19T15:00:53.329Z</time>
      </trkpt>
      <trkpt lat="45.62506" lon="1.03615">
        <ele>430.79037475586</ele>
        <time>2020-06-19T15:00:57.980Z</time>
      </trkpt>
      <trkpt lat="45.62484" lon="1.03611">
        <ele>429.15628051758</ele>
        <time>2020-06-19T15:01:02.635Z</time>
      </trkpt>
      <trkpt lat="45.62269" lon="1.03573">
        <ele>411.85198974609</ele>
        <time>2020-06-19T15:01:07.325Z</time>
      </trkpt>
      <trkpt lat="45.6225" lon="1.0357">
        <ele>410.74176025391</ele>
        <time>2020-06-19T15:01:12.018Z</time>
      </trkpt>
      <trkpt lat="45.62249" lon="1.0357">
        <ele>410.66693115234</ele>
        <time>2020-06-19T15:01:16.711Z</time>
      </trkpt>
      <trkpt lat="45.62249" lon="1.0357">
        <ele>410.66741943359</ele>
        <time>2020-06-19T15:01:21.404Z</time>
      </trkpt>
      <trkpt lat="45.62041" lon="1.03534">
        <ele>400.88208007812</ele>
        <time>2020-06-19T15:01:26.130Z</time>
      </trkpt>
      <trkpt lat="45.62041" lon="1.03534">
        <ele>400.88177490234</ele>
        <time>2020-06-19T15:01:30.856Z</time>
      </trkpt>
      <trkpt lat="45.61849" lon="1.03501">
        <ele>399.22348022461</ele>
        <time>2020-06-19T15:01:35.613Z</time>
      </trkpt>
      <trkpt lat="45.61809" lon="1.03494">
        <ele>398.86303710938</ele>
        <time>2020-06-19T15:01:40.377Z</time>
      </trkpt>
      <trkpt lat="45.61809" lon="1.03494">
        <ele>398.86303710938</ele>
        <time>2020-06-19T15:01:45.141Z</time>
      </trkpt>
      <trkpt lat="45.61644" lon="1.0341">
        <ele>396.94625854492</ele>
        <time>2020-06-19T15:01:49.933Z</time>
      </trkpt>
      <trkpt lat="45.61582" lon="1.03416">
        <ele>394.5680847168</ele>
        <time>2020-06-19T15:01:54.735Z</time>
      </trkpt>
      <trkpt lat="45.6158" lon="1.03416">
        <ele>394.50991821289</ele>
        <time>2020-06-19T15:01:59.537Z</time>
      </trkpt>
      <trkpt lat="45.6158" lon="1.03416">
        <ele>394.51031494141</ele>
        <time>2020-06-19T15:02:04.339Z</time>
      </trkpt>
      <trkpt lat="45.61523" lon="1.03422">
        <ele>392.36441040039</ele>
        <time>2020-06-19T15:02:09.150Z</time>
      </trkpt>
      <trkpt lat="45.61523" lon="1.03422">
        <ele>392.36431884766</ele>
        <time>2020-06-19T15:02:13.961Z</time>
      </trkpt>
      <trkpt lat="45.61512" lon="1.03423">
        <ele>392.24856567383</ele>
        <time>2020-06-19T15:02:18.774Z</time>
      </trkpt>
      <trkpt lat="45.61512" lon="1.03423">
        <ele>392.24847412109</ele>
        <time>2020-06-19T15:02:23.587Z</time>
      </trkpt>
      <trkpt lat="45.6149" lon="1.03421">
        <ele>392.34841918945</ele>
        <time>2020-06-19T15:02:28.403Z</time>
      </trkpt>
      <trkpt lat="45.61383" lon="1.03365">
        <ele>395.25430297852</ele>
        <time>2020-06-19T15:02:33.238Z</time>
      </trkpt>
      <trkpt lat="45.61383" lon="1.03365">
        <ele>395.25509643555</ele>
        <time>2020-06-19T15:02:38.073Z</time>
      </trkpt>
      <trkpt lat="45.61245" lon="1.03292">
        <ele>402.87817382812</ele>
        <time>2020-06-19T15:02:42.931Z</time>
      </trkpt>
      <trkpt lat="45.61245" lon="1.03292">
        <ele>402.87899780273</ele>
        <time>2020-06-19T15:02:47.789Z</time>
      </trkpt>
      <trkpt lat="45.61205" lon="1.03272">
        <ele>404.73263549805</ele>
        <time>2020-06-19T15:02:52.654Z</time>
      </trkpt>
      <trkpt lat="45.61132" lon="1.03253">
        <ele>410.69000244141</ele>
        <time>2020-06-19T15:02:57.531Z</time>
      </trkpt>
      <trkpt lat="45.61099" lon="1.03225">
        <ele>410.93927001953</ele>
        <time>2020-06-19T15:03:02.414Z</time>
      </trkpt>
      <trkpt lat="45.61063" lon="1.03177">
        <ele>410.12829589844</ele>
        <time>2020-06-19T15:03:07.305Z</time>
      </trkpt>
      <trkpt lat="45.61018" lon="1.0309">
        <ele>412.89465332031</ele>
        <time>2020-06-19T15:03:12.208Z</time>
      </trkpt>
      <trkpt lat="45.61018" lon="1.0309">
        <ele>412.89556884766</ele>
        <time>2020-06-19T15:03:17.111Z</time>
      </trkpt>
      <trkpt lat="45.61006" lon="1.03065">
        <ele>414.83352661133</ele>
        <time>2020-06-19T15:03:22.018Z</time>
      </trkpt>
      <trkpt lat="45.61005" lon="1.03064">
        <ele>414.94964599609</ele>
        <time>2020-06-19T15:03:26.925Z</time>
      </trkpt>
      <trkpt lat="45.61005" lon="1.03064">
        <ele>414.94943237305</ele>
        <time>2020-06-19T15:03:31.832Z</time>
      </trkpt>
      <trkpt lat="45.60947" lon="1.02949">
        <ele>419.08786010742</ele>
        <time>2020-06-19T15:03:36.755Z</time>
      </trkpt>
      <trkpt lat="45.60946" lon="1.02909">
        <ele>419.60244750977</ele>
        <time>2020-06-19T15:03:41.682Z</time>
      </trkpt>
      <trkpt lat="45.60946" lon="1.02909">
        <ele>419.60275268555</ele>
        <time>2020-06-19T15:03:46.609Z</time>
      </trkpt>
      <trkpt lat="45.6094" lon="1.02881">
        <ele>420.03472900391</ele>
        <time>2020-06-19T15:03:51.539Z</time>
      </trkpt>
      <trkpt lat="45.609" lon="1.02813">
        <ele>421.4635925293</ele>
        <time>2020-06-19T15:03:56.479Z</time>
      </trkpt>
      <trkpt lat="45.60897" lon="1.02818">
        <ele>421.57913208008</ele>
        <time>2020-06-19T15:04:01.420Z</time>
      </trkpt>
      <trkpt lat="45.60889" lon="1.02826">
        <ele>421.84976196289</ele>
        <time>2020-06-19T15:04:06.363Z</time>
      </trkpt>
      <trkpt lat="45.60865" lon="1.02849">
        <ele>423.22991943359</ele>
        <time>2020-06-19T15:04:11.310Z</time>
      </trkpt>
      <trkpt lat="45.60828" lon="1.02882">
        <ele>427.66668701172</ele>
        <time>2020-06-19T15:04:16.264Z</time>
      </trkpt>
      <trkpt lat="45.60827" lon="1.02884">
        <ele>427.88461303711</ele>
        <time>2020-06-19T15:04:21.218Z</time>
      </trkpt>
      <trkpt lat="45.60815" lon="1.02905">
        <ele>429.90798950195</ele>
        <time>2020-06-19T15:04:26.176Z</time>
      </trkpt>
      <trkpt lat="45.60814" lon="1.02906">
        <ele>430.00717163086</ele>
        <time>2020-06-19T15:04:31.134Z</time>
      </trkpt>
      <trkpt lat="45.60814" lon="1.02906">
        <ele>430.00607299805</ele>
        <time>2020-06-19T15:04:36.092Z</time>
      </trkpt>
      <trkpt lat="45.60796" lon="1.02937">
        <ele>431.6047668457</ele>
        <time>2020-06-19T15:04:41.054Z</time>
      </trkpt>
      <trkpt lat="45.60793" lon="1.02967">
        <ele>432.03057861328</ele>
        <time>2020-06-19T15:04:46.020Z</time>
      </trkpt>
      <trkpt lat="45.60772" lon="1.02964">
        <ele>433.67825317383</ele>
        <time>2020-06-19T15:04:50.989Z</time>
      </trkpt>
      <trkpt lat="45.60723" lon="1.02924">
        <ele>434.60507202148</ele>
        <time>2020-06-19T15:04:55.967Z</time>
      </trkpt>
      <trkpt lat="45.60684" lon="1.02895">
        <ele>433.48910522461</ele>
        <time>2020-06-19T15:05:00.952Z</time>
      </trkpt>
      <trkpt lat="45.60608" lon="1.02808">
        <ele>428.59698486328</ele>
        <time>2020-06-19T15:05:05.953Z</time>
      </trkpt>
      <trkpt lat="45.60607" lon="1.02807">
        <ele>428.57080078125</ele>
        <time>2020-06-19T15:05:10.954Z</time>
      </trkpt>
      <trkpt lat="45.60607" lon="1.02807">
        <ele>428.57009887695</ele>
        <time>2020-06-19T15:05:15.955Z</time>
      </trkpt>
      <trkpt lat="45.60565" lon="1.02761">
        <ele>427.51406860352</ele>
        <time>2020-06-19T15:05:20.964Z</time>
      </trkpt>
      <trkpt lat="45.60546" lon="1.02757">
        <ele>428.28244018555</ele>
        <time>2020-06-19T15:05:25.976Z</time>
      </trkpt>
      <trkpt lat="45.60507" lon="1.02752">
        <ele>427.35552978516</ele>
        <time>2020-06-19T15:05:30.995Z</time>
      </trkpt>
      <trkpt lat="45.6048" lon="1.02748">
        <ele>427.10382080078</ele>
        <time>2020-06-19T15:05:36.018Z</time>
      </trkpt>
      <trkpt lat="45.60413" lon="1.0277">
        <ele>429.48083496094</ele>
        <time>2020-06-19T15:05:41.052Z</time>
      </trkpt>
      <trkpt lat="45.60344" lon="1.02763">
        <ele>426.90637207031</ele>
        <time>2020-06-19T15:05:46.097Z</time>
      </trkpt>
      <trkpt lat="45.60313" lon="1.02763">
        <ele>425.59683227539</ele>
        <time>2020-06-19T15:05:51.147Z</time>
      </trkpt>
      <trkpt lat="45.60281" lon="1.02777">
        <ele>426.05541992188</ele>
        <time>2020-06-19T15:05:56.202Z</time>
      </trkpt>
      <trkpt lat="45.60245" lon="1.02799">
        <ele>425.89236450195</ele>
        <time>2020-06-19T15:06:01.264Z</time>
      </trkpt>
      <trkpt lat="45.60236" lon="1.02816">
        <ele>426.77709960938</ele>
        <time>2020-06-19T15:06:06.328Z</time>
      </trkpt>
      <trkpt lat="45.60211" lon="1.02801">
        <ele>424.40090942383</ele>
        <time>2020-06-19T15:06:11.396Z</time>
      </trkpt>
      <trkpt lat="45.60156" lon="1.02746">
        <ele>420.46194458008</ele>
        <time>2020-06-19T15:06:16.475Z</time>
      </trkpt>
      <trkpt lat="45.60104" lon="1.02763">
        <ele>414.40328979492</ele>
        <time>2020-06-19T15:06:21.563Z</time>
      </trkpt>
      <trkpt lat="45.60103" lon="1.02764">
        <ele>414.22775268555</ele>
        <time>2020-06-19T15:06:26.651Z</time>
      </trkpt>
      <trkpt lat="45.60061" lon="1.02781">
        <ele>409.83880615234</ele>
        <time>2020-06-19T15:06:31.746Z</time>
      </trkpt>
      <trkpt lat="45.60059" lon="1.02781">
        <ele>409.70901489258</ele>
        <time>2020-06-19T15:06:36.841Z</time>
      </trkpt>
      <trkpt lat="45.60059" lon="1.0278">
        <ele>409.69906616211</ele>
        <time>2020-06-19T15:06:41.936Z</time>
      </trkpt>
      <trkpt lat="45.60052" lon="1.02782">
        <ele>409.02716064453</ele>
        <time>2020-06-19T15:06:47.032Z</time>
      </trkpt>
      <trkpt lat="45.60035" lon="1.02776">
        <ele>408.19772338867</ele>
        <time>2020-06-19T15:06:52.131Z</time>
      </trkpt>
      <trkpt lat="45.60012" lon="1.02764">
        <ele>407.09390258789</ele>
        <time>2020-06-19T15:06:57.234Z</time>
      </trkpt>
      <trkpt lat="45.60007" lon="1.02763">
        <ele>406.83453369141</ele>
        <time>2020-06-19T15:07:02.338Z</time>
      </trkpt>
      <trkpt lat="45.60005" lon="1.02763">
        <ele>406.82321166992</ele>
        <time>2020-06-19T15:07:07.442Z</time>
      </trkpt>
      <trkpt lat="45.59982" lon="1.0276">
        <ele>407.15914916992</ele>
        <time>2020-06-19T15:07:12.550Z</time>
      </trkpt>
      <trkpt lat="45.59938" lon="1.02728">
        <ele>407.00448608398</ele>
        <time>2020-06-19T15:07:17.666Z</time>
      </trkpt>
      <trkpt lat="45.59917" lon="1.02716">
        <ele>407.40042114258</ele>
        <time>2020-06-19T15:07:22.785Z</time>
      </trkpt>
      <trkpt lat="45.599" lon="1.02715">
        <ele>408.34826660156</ele>
        <time>2020-06-19T15:07:27.907Z</time>
      </trkpt>
      <trkpt lat="45.59892" lon="1.02715">
        <ele>408.82818603516</ele>
        <time>2020-06-19T15:07:33.030Z</time>
      </trkpt>
      <trkpt lat="45.59864" lon="1.02726">
        <ele>409.79928588867</ele>
        <time>2020-06-19T15:07:38.158Z</time>
      </trkpt>
      <trkpt lat="45.59853" lon="1.0273">
        <ele>410.05126953125</ele>
        <time>2020-06-19T15:07:43.288Z</time>
      </trkpt>
      <trkpt lat="45.5984" lon="1.02728">
        <ele>409.70330810547</ele>
        <time>2020-06-19T15:07:48.420Z</time>
      </trkpt>
      <trkpt lat="45.59822" lon="1.02718">
        <ele>408.97521972656</ele>
        <time>2020-06-19T15:07:53.555Z</time>
      </trkpt>
      <trkpt lat="45.59809" lon="1.02708">
        <ele>408.45932006836</ele>
        <time>2020-06-19T15:07:58.692Z</time>
      </trkpt>
      <trkpt lat="45.59798" lon="1.02693">
        <ele>408.14019775391</ele>
        <time>2020-06-19T15:08:03.832Z</time>
      </trkpt>
      <trkpt lat="45.59777" lon="1.02653">
        <ele>408.4641418457</ele>
        <time>2020-06-19T15:08:08.977Z</time>
      </trkpt>
      <trkpt lat="45.59761" lon="1.02627">
        <ele>408.8720703125</ele>
        <time>2020-06-19T15:08:14.126Z</time>
      </trkpt>
      <trkpt lat="45.59745" lon="1.0261">
        <ele>409.60394287109</ele>
        <time>2020-06-19T15:08:19.279Z</time>
      </trkpt>
      <trkpt lat="45.59725" lon="1.02598">
        <ele>410.85174560547</ele>
        <time>2020-06-19T15:08:24.435Z</time>
      </trkpt>
      <trkpt lat="45.59705" lon="1.02596">
        <ele>411.5</ele>
        <time>2020-06-19T15:08:29.594Z</time>
      </trkpt>
      <trkpt lat="45.59674" lon="1.02585">
        <ele>411.47601318359</ele>
        <time>2020-06-19T15:08:34.758Z</time>
      </trkpt>
      <trkpt lat="45.59668" lon="1.02579">
        <ele>411.33203125</ele>
        <time>2020-06-19T15:08:39.924Z</time>
      </trkpt>
      <trkpt lat="45.59652" lon="1.02566">
        <ele>411.05609130859</ele>
        <time>2020-06-19T15:08:45.092Z</time>
      </trkpt>
      <trkpt lat="45.59622" lon="1.02539">
        <ele>409.96981811523</ele>
        <time>2020-06-19T15:08:50.266Z</time>
      </trkpt>
      <trkpt lat="45.59617" lon="1.02534">
        <ele>409.72985839844</ele>
        <time>2020-06-19T15:08:55.441Z</time>
      </trkpt>
      <trkpt lat="45.59603" lon="1.02528">
        <ele>409.58151245117</ele>
        <time>2020-06-19T15:09:00.618Z</time>
      </trkpt>
      <trkpt lat="45.59579" lon="1.02517">
        <ele>409.67749023438</ele>
        <time>2020-06-19T15:09:05.800Z</time>
      </trkpt>
      <trkpt lat="45.59561" lon="1.02502">
        <ele>409.10159301758</ele>
        <time>2020-06-19T15:09:10.985Z</time>
      </trkpt>
      <trkpt lat="45.59535" lon="1.0249">
        <ele>409.19757080078</ele>
        <time>2020-06-19T15:09:16.174Z</time>
      </trkpt>
      <trkpt lat="45.5948" lon="1.02462">
        <ele>408.9885559082</ele>
        <time>2020-06-19T15:09:21.373Z</time>
      </trkpt>
      <trkpt lat="45.59444" lon="1.02441">
        <ele>406.70031738281</ele>
        <time>2020-06-19T15:09:26.578Z</time>
      </trkpt>
      <trkpt lat="45.59442" lon="1.02441">
        <ele>406.64483642578</ele>
        <time>2020-06-19T15:09:31.783Z</time>
      </trkpt>
      <trkpt lat="45.5944" lon="1.02441">
        <ele>406.60433959961</ele>
        <time>2020-06-19T15:09:36.988Z</time>
      </trkpt>
      <trkpt lat="45.59432" lon="1.02441">
        <ele>406.4123840332</ele>
        <time>2020-06-19T15:09:42.195Z</time>
      </trkpt>
      <trkpt lat="45.59408" lon="1.02449">
        <ele>406.70031738281</ele>
        <time>2020-06-19T15:09:47.406Z</time>
      </trkpt>
      <trkpt lat="45.59365" lon="1.02476">
        <ele>408.57705688477</ele>
        <time>2020-06-19T15:09:52.624Z</time>
      </trkpt>
      <trkpt lat="45.59347" lon="1.02477">
        <ele>408.24111938477</ele>
        <time>2020-06-19T15:09:57.845Z</time>
      </trkpt>
      <trkpt lat="45.59312" lon="1.02467">
        <ele>406.13830566406</ele>
        <time>2020-06-19T15:10:03.072Z</time>
      </trkpt>
      <trkpt lat="45.59298" lon="1.02463">
        <ele>405.14517211914</ele>
        <time>2020-06-19T15:10:08.301Z</time>
      </trkpt>
      <trkpt lat="45.59286" lon="1.02463">
        <ele>404.42529296875</ele>
        <time>2020-06-19T15:10:13.532Z</time>
      </trkpt>
      <trkpt lat="45.59243" lon="1.02468">
        <ele>402.5055847168</ele>
        <time>2020-06-19T15:10:18.770Z</time>
      </trkpt>
      <trkpt lat="45.59226" lon="1.02472">
        <ele>402.013671875</ele>
        <time>2020-06-19T15:10:24.011Z</time>
      </trkpt>
      <trkpt lat="45.59212" lon="1.02471">
        <ele>401.20098876953</ele>
        <time>2020-06-19T15:10:29.254Z</time>
      </trkpt>
      <trkpt lat="45.59189" lon="1.02488">
        <ele>401.75479125977</ele>
        <time>2020-06-19T15:10:34.501Z</time>
      </trkpt>
      <trkpt lat="45.59141" lon="1.02509">
        <ele>401.39483642578</ele>
        <time>2020-06-19T15:10:39.756Z</time>
      </trkpt>
      <trkpt lat="45.59107" lon="1.02522">
        <ele>399.91076660156</ele>
        <time>2020-06-19T15:10:45.017Z</time>
      </trkpt>
      <trkpt lat="45.59083" lon="1.02531">
        <ele>398.10800170898</ele>
        <time>2020-06-19T15:10:50.282Z</time>
      </trkpt>
      <trkpt lat="45.59049" lon="1.02548">
        <ele>395.93579101562</ele>
        <time>2020-06-19T15:10:55.552Z</time>
      </trkpt>
      <trkpt lat="45.59013" lon="1.02592">
        <ele>396.68090820312</ele>
        <time>2020-06-19T15:11:00.830Z</time>
      </trkpt>
      <trkpt lat="45.58989" lon="1.02622">
        <ele>395.00436401367</ele>
        <time>2020-06-19T15:11:06.113Z</time>
      </trkpt>
      <trkpt lat="45.58972" lon="1.02641">
        <ele>393.39660644531</ele>
        <time>2020-06-19T15:11:11.400Z</time>
      </trkpt>
      <trkpt lat="45.5896" lon="1.02645">
        <ele>392.57711791992</ele>
        <time>2020-06-19T15:11:16.689Z</time>
      </trkpt>
      <trkpt lat="45.58938" lon="1.02649">
        <ele>391.35330200195</ele>
        <time>2020-06-19T15:11:21.981Z</time>
      </trkpt>
      <trkpt lat="45.58905" lon="1.02651">
        <ele>389.42163085938</ele>
        <time>2020-06-19T15:11:27.278Z</time>
      </trkpt>
      <trkpt lat="45.58894" lon="1.02651">
        <ele>388.76174926758</ele>
        <time>2020-06-19T15:11:32.577Z</time>
      </trkpt>
      <trkpt lat="45.58882" lon="1.02644">
        <ele>388.06781005859</ele>
        <time>2020-06-19T15:11:37.878Z</time>
      </trkpt>
      <trkpt lat="45.58868" lon="1.02627">
        <ele>386.9118347168</ele>
        <time>2020-06-19T15:11:43.182Z</time>
      </trkpt>
      <trkpt lat="45.58858" lon="1.02615">
        <ele>386.0573425293</ele>
        <time>2020-06-19T15:11:48.488Z</time>
      </trkpt>
      <trkpt lat="45.58843" lon="1.02607">
        <ele>385.47207641602</ele>
        <time>2020-06-19T15:11:53.797Z</time>
      </trkpt>
      <trkpt lat="45.58788" lon="1.02594">
        <ele>383.56378173828</ele>
        <time>2020-06-19T15:11:59.115Z</time>
      </trkpt>
      <trkpt lat="45.58758" lon="1.02592">
        <ele>381.26016235352</ele>
        <time>2020-06-19T15:12:04.438Z</time>
      </trkpt>
      <trkpt lat="45.58744" lon="1.02598">
        <ele>380.36288452148</ele>
        <time>2020-06-19T15:12:09.763Z</time>
      </trkpt>
      <trkpt lat="45.58735" lon="1.02605">
        <ele>379.8349609375</ele>
        <time>2020-06-19T15:12:15.090Z</time>
      </trkpt>
      <trkpt lat="45.58731" lon="1.02615">
        <ele>379.93096923828</ele>
        <time>2020-06-19T15:12:20.418Z</time>
      </trkpt>
      <trkpt lat="45.58726" lon="1.02629">
        <ele>380.12292480469</ele>
        <time>2020-06-19T15:12:25.748Z</time>
      </trkpt>
      <trkpt lat="45.5872" lon="1.02681">
        <ele>380.22061157227</ele>
        <time>2020-06-19T15:12:31.084Z</time>
      </trkpt>
      <trkpt lat="45.58717" lon="1.02726">
        <ele>379.84777832031</ele>
        <time>2020-06-19T15:12:36.425Z</time>
      </trkpt>
      <trkpt lat="45.58714" lon="1.02751">
        <ele>378.88793945312</ele>
        <time>2020-06-19T15:12:41.768Z</time>
      </trkpt>
      <trkpt lat="45.58706" lon="1.02772">
        <ele>377.42419433594</ele>
        <time>2020-06-19T15:12:47.114Z</time>
      </trkpt>
      <trkpt lat="45.58696" lon="1.02781">
        <ele>376.00842285156</ele>
        <time>2020-06-19T15:12:52.462Z</time>
      </trkpt>
      <trkpt lat="45.58687" lon="1.02785">
        <ele>375.44998168945</ele>
        <time>2020-06-19T15:12:57.812Z</time>
      </trkpt>
      <trkpt lat="45.58678" lon="1.02786">
        <ele>375.18603515625</ele>
        <time>2020-06-19T15:13:03.163Z</time>
      </trkpt>
      <trkpt lat="45.58671" lon="1.02784">
        <ele>374.81408691406</ele>
        <time>2020-06-19T15:13:08.515Z</time>
      </trkpt>
      <trkpt lat="45.58661" lon="1.02779">
        <ele>374.15420532227</ele>
        <time>2020-06-19T15:13:13.869Z</time>
      </trkpt>
      <trkpt lat="45.5861" lon="1.02747">
        <ele>372.80709838867</ele>
        <time>2020-06-19T15:13:19.232Z</time>
      </trkpt>
      <trkpt lat="45.58608" lon="1.02746">
        <ele>372.84057617188</ele>
        <time>2020-06-19T15:13:24.595Z</time>
      </trkpt>
      <trkpt lat="45.58567" lon="1.02719">
        <ele>373.60290527344</ele>
        <time>2020-06-19T15:13:29.965Z</time>
      </trkpt>
      <trkpt lat="45.58549" lon="1.02698">
        <ele>373.40774536133</ele>
        <time>2020-06-19T15:13:35.339Z</time>
      </trkpt>
      <trkpt lat="45.58537" lon="1.0268">
        <ele>373.98364257812</ele>
        <time>2020-06-19T15:13:40.716Z</time>
      </trkpt>
      <trkpt lat="45.58499" lon="1.02601">
        <ele>374.22360229492</ele>
        <time>2020-06-19T15:13:46.104Z</time>
      </trkpt>
      <trkpt lat="45.58487" lon="1.02588">
        <ele>375.1594543457</ele>
        <time>2020-06-19T15:13:51.494Z</time>
      </trkpt>
      <trkpt lat="45.58473" lon="1.0258">
        <ele>376.76718139648</ele>
        <time>2020-06-19T15:13:56.886Z</time>
      </trkpt>
      <trkpt lat="45.58445" lon="1.02562">
        <ele>378.17434692383</ele>
        <time>2020-06-19T15:14:02.283Z</time>
      </trkpt>
      <trkpt lat="45.58422" lon="1.02535">
        <ele>377.59197998047</ele>
        <time>2020-06-19T15:14:07.685Z</time>
      </trkpt>
      <trkpt lat="45.58402" lon="1.02524">
        <ele>378.21588134766</ele>
        <time>2020-06-19T15:14:13.091Z</time>
      </trkpt>
      <trkpt lat="45.58363" lon="1.02509">
        <ele>378.74545288086</ele>
        <time>2020-06-19T15:14:18.503Z</time>
      </trkpt>
      <trkpt lat="45.5828" lon="1.02475">
        <ele>377.23681640625</ele>
        <time>2020-06-19T15:14:23.929Z</time>
      </trkpt>
      <trkpt lat="45.58246" lon="1.02459">
        <ele>376.87689208984</ele>
        <time>2020-06-19T15:14:29.361Z</time>
      </trkpt>
      <trkpt lat="45.58234" lon="1.02448">
        <ele>376.49295043945</ele>
        <time>2020-06-19T15:14:34.795Z</time>
      </trkpt>
      <trkpt lat="45.5821" lon="1.02417">
        <ele>375.29315185547</ele>
        <time>2020-06-19T15:14:40.234Z</time>
      </trkpt>
      <trkpt lat="45.58194" lon="1.02405">
        <ele>374.90921020508</ele>
        <time>2020-06-19T15:14:45.676Z</time>
      </trkpt>
      <trkpt lat="45.58179" lon="1.02402">
        <ele>374.94522094727</ele>
        <time>2020-06-19T15:14:51.120Z</time>
      </trkpt>
      <trkpt lat="45.58158" lon="1.02408">
        <ele>375.48510742188</ele>
        <time>2020-06-19T15:14:56.568Z</time>
      </trkpt>
      <trkpt lat="45.58138" lon="1.02425">
        <ele>375.82931518555</ele>
        <time>2020-06-19T15:15:02.020Z</time>
      </trkpt>
      <trkpt lat="45.58124" lon="1.02444">
        <ele>375.6022644043</ele>
        <time>2020-06-19T15:15:07.475Z</time>
      </trkpt>
      <trkpt lat="45.5811" lon="1.02459">
        <ele>375.52111816406</ele>
        <time>2020-06-19T15:15:12.932Z</time>
      </trkpt>
      <trkpt lat="45.58094" lon="1.02467">
        <ele>375.90505981445</ele>
        <time>2020-06-19T15:15:18.392Z</time>
      </trkpt>
      <trkpt lat="45.58078" lon="1.0247">
        <ele>375.92904663086</ele>
        <time>2020-06-19T15:15:23.855Z</time>
      </trkpt>
      <trkpt lat="45.58057" lon="1.02466">
        <ele>375.38916015625</ele>
        <time>2020-06-19T15:15:29.321Z</time>
      </trkpt>
      <trkpt lat="45.58046" lon="1.02461">
        <ele>375.47854614258</ele>
        <time>2020-06-19T15:15:34.789Z</time>
      </trkpt>
      <trkpt lat="45.58035" lon="1.02449">
        <ele>375.67053222656</ele>
        <time>2020-06-19T15:15:40.259Z</time>
      </trkpt>
      <trkpt lat="45.58022" lon="1.02429">
        <ele>375.47854614258</ele>
        <time>2020-06-19T15:15:45.732Z</time>
      </trkpt>
      <trkpt lat="45.58011" lon="1.02405">
        <ele>374.80667114258</ele>
        <time>2020-06-19T15:15:51.208Z</time>
      </trkpt>
      <trkpt lat="45.57999" lon="1.02383">
        <ele>374.37475585938</ele>
        <time>2020-06-19T15:15:56.688Z</time>
      </trkpt>
      <trkpt lat="45.57986" lon="1.02369">
        <ele>374.61471557617</ele>
        <time>2020-06-19T15:16:02.170Z</time>
      </trkpt>
      <trkpt lat="45.57962" lon="1.02359">
        <ele>375.69146728516</ele>
        <time>2020-06-19T15:16:07.656Z</time>
      </trkpt>
      <trkpt lat="45.57928" lon="1.02354">
        <ele>375.73947143555</ele>
        <time>2020-06-19T15:16:13.148Z</time>
      </trkpt>
      <trkpt lat="45.57903" lon="1.02348">
        <ele>375.60748291016</ele>
        <time>2020-06-19T15:16:18.644Z</time>
      </trkpt>
      <trkpt lat="45.57891" lon="1.0234">
        <ele>375.17556762695</ele>
        <time>2020-06-19T15:16:24.142Z</time>
      </trkpt>
      <trkpt lat="45.57879" lon="1.02322">
        <ele>374.228515625</ele>
        <time>2020-06-19T15:16:29.643Z</time>
      </trkpt>
      <trkpt lat="45.57869" lon="1.02286">
        <ele>373.31140136719</ele>
        <time>2020-06-19T15:16:35.148Z</time>
      </trkpt>
      <trkpt lat="45.57861" lon="1.0226">
        <ele>372.9514465332</ele>
        <time>2020-06-19T15:16:40.656Z</time>
      </trkpt>
      <trkpt lat="45.57842" lon="1.02236">
        <ele>373.4553527832</ele>
        <time>2020-06-19T15:16:46.168Z</time>
      </trkpt>
      <trkpt lat="45.57789" lon="1.02179">
        <ele>376.85263061523</ele>
        <time>2020-06-19T15:16:51.691Z</time>
      </trkpt>
      <trkpt lat="45.57772" lon="1.02148">
        <ele>377.63739013672</ele>
        <time>2020-06-19T15:16:57.218Z</time>
      </trkpt>
      <trkpt lat="45.57771" lon="1.02147">
        <ele>377.66848754883</ele>
        <time>2020-06-19T15:17:02.745Z</time>
      </trkpt>
      <trkpt lat="45.57706" lon="1.0203">
        <ele>376.45556640625</ele>
        <time>2020-06-19T15:17:08.289Z</time>
      </trkpt>
      <trkpt lat="45.57687" lon="1.01994">
        <ele>375.81967163086</ele>
        <time>2020-06-19T15:17:13.838Z</time>
      </trkpt>
      <trkpt lat="45.57679" lon="1.01984">
        <ele>375.67572021484</ele>
        <time>2020-06-19T15:17:19.389Z</time>
      </trkpt>
      <trkpt lat="45.57662" lon="1.01974">
        <ele>375.55944824219</ele>
        <time>2020-06-19T15:17:24.943Z</time>
      </trkpt>
      <trkpt lat="45.57652" lon="1.01973">
        <ele>375.5954284668</ele>
        <time>2020-06-19T15:17:30.499Z</time>
      </trkpt>
      <trkpt lat="45.5763" lon="1.01971">
        <ele>375.45724487305</ele>
        <time>2020-06-19T15:17:36.058Z</time>
      </trkpt>
      <trkpt lat="45.5749" lon="1.01966">
        <ele>365.58712768555</ele>
        <time>2020-06-19T15:17:41.639Z</time>
      </trkpt>
      <trkpt lat="45.57472" lon="1.01971">
        <ele>364.29135131836</ele>
        <time>2020-06-19T15:17:47.223Z</time>
      </trkpt>
      <trkpt lat="45.57448" lon="1.01981">
        <ele>364.4787902832</ele>
        <time>2020-06-19T15:17:52.811Z</time>
      </trkpt>
      <trkpt lat="45.5737" lon="1.02021">
        <ele>367.27093505859</ele>
        <time>2020-06-19T15:17:58.413Z</time>
      </trkpt>
      <trkpt lat="45.57252" lon="1.02083">
        <ele>370.75036621094</ele>
        <time>2020-06-19T15:18:04.035Z</time>
      </trkpt>
      <trkpt lat="45.57202" lon="1.02111">
        <ele>373.03790283203</ele>
        <time>2020-06-19T15:18:09.665Z</time>
      </trkpt>
      <trkpt lat="45.57162" lon="1.0214">
        <ele>374.39041137695</ele>
        <time>2020-06-19T15:18:15.303Z</time>
      </trkpt>
      <trkpt lat="45.5713" lon="1.02175">
        <ele>375.99789428711</ele>
        <time>2020-06-19T15:18:20.947Z</time>
      </trkpt>
      <trkpt lat="45.57113" lon="1.02197">
        <ele>378.50549316406</ele>
        <time>2020-06-19T15:18:26.595Z</time>
      </trkpt>
      <trkpt lat="45.57094" lon="1.02232">
        <ele>380.22326660156</ele>
        <time>2020-06-19T15:18:32.248Z</time>
      </trkpt>
      <trkpt lat="45.57093" lon="1.02233">
        <ele>380.3551940918</ele>
        <time>2020-06-19T15:18:37.901Z</time>
      </trkpt>
      <trkpt lat="45.57075" lon="1.02266">
        <ele>382.65658569336</ele>
        <time>2020-06-19T15:18:43.559Z</time>
      </trkpt>
      <trkpt lat="45.57063" lon="1.02284">
        <ele>382.87255859375</ele>
        <time>2020-06-19T15:18:49.219Z</time>
      </trkpt>
      <trkpt lat="45.57044" lon="1.02292">
        <ele>383.80679321289</ele>
        <time>2020-06-19T15:18:54.883Z</time>
      </trkpt>
      <trkpt lat="45.57016" lon="1.02309">
        <ele>385.12249755859</ele>
        <time>2020-06-19T15:19:00.551Z</time>
      </trkpt>
      <trkpt lat="45.57003" lon="1.02321">
        <ele>386.33428955078</ele>
        <time>2020-06-19T15:19:06.222Z</time>
      </trkpt>
      <trkpt lat="45.56991" lon="1.02345">
        <ele>386.97192382812</ele>
        <time>2020-06-19T15:19:11.896Z</time>
      </trkpt>
      <trkpt lat="45.5698" lon="1.02377">
        <ele>385.68811035156</ele>
        <time>2020-06-19T15:19:17.574Z</time>
      </trkpt>
      <trkpt lat="45.56975" lon="1.02392">
        <ele>385.08822631836</ele>
        <time>2020-06-19T15:19:23.254Z</time>
      </trkpt>
      <trkpt lat="45.56966" lon="1.02411">
        <ele>386.18020629883</ele>
        <time>2020-06-19T15:19:28.937Z</time>
      </trkpt>
      <trkpt lat="45.5695" lon="1.02427">
        <ele>387.52398681641</ele>
        <time>2020-06-19T15:19:34.623Z</time>
      </trkpt>
      <trkpt lat="45.5693" lon="1.02443">
        <ele>388.89837646484</ele>
        <time>2020-06-19T15:19:40.312Z</time>
      </trkpt>
      <trkpt lat="45.5687" lon="1.02491">
        <ele>390.68954467773</ele>
        <time>2020-06-19T15:19:46.012Z</time>
      </trkpt>
      <trkpt lat="45.56812" lon="1.02537">
        <ele>390.6926574707</ele>
        <time>2020-06-19T15:19:51.723Z</time>
      </trkpt>
      <trkpt lat="45.56797" lon="1.0254">
        <ele>390.69897460938</ele>
        <time>2020-06-19T15:19:57.437Z</time>
      </trkpt>
      <trkpt lat="45.56771" lon="1.02529">
        <ele>390.21417236328</ele>
        <time>2020-06-19T15:20:03.155Z</time>
      </trkpt>
      <trkpt lat="45.56759" lon="1.02524">
        <ele>389.91421508789</ele>
        <time>2020-06-19T15:20:08.875Z</time>
      </trkpt>
      <trkpt lat="45.56746" lon="1.02524">
        <ele>389.91421508789</ele>
        <time>2020-06-19T15:20:14.597Z</time>
      </trkpt>
      <trkpt lat="45.56734" lon="1.02528">
        <ele>390.15417480469</ele>
        <time>2020-06-19T15:20:20.321Z</time>
      </trkpt>
      <trkpt lat="45.56726" lon="1.02534">
        <ele>390.51412963867</ele>
        <time>2020-06-19T15:20:26.046Z</time>
      </trkpt>
      <trkpt lat="45.56713" lon="1.02553">
        <ele>391.48016357422</ele>
        <time>2020-06-19T15:20:31.774Z</time>
      </trkpt>
      <trkpt lat="45.56703" lon="1.02574">
        <ele>392.38000488281</ele>
        <time>2020-06-19T15:20:37.505Z</time>
      </trkpt>
      <trkpt lat="45.56674" lon="1.02645">
        <ele>395.1042175293</ele>
        <time>2020-06-19T15:20:43.245Z</time>
      </trkpt>
      <trkpt lat="45.56658" lon="1.0268">
        <ele>397.54531860352</ele>
        <time>2020-06-19T15:20:48.990Z</time>
      </trkpt>
      <trkpt lat="45.56647" lon="1.02693">
        <ele>399.10507202148</ele>
        <time>2020-06-19T15:20:54.737Z</time>
      </trkpt>
      <trkpt lat="45.56641" lon="1.02696">
        <ele>399.46499633789</ele>
        <time>2020-06-19T15:21:00.485Z</time>
      </trkpt>
      <trkpt lat="45.56629" lon="1.02697">
        <ele>399.65075683594</ele>
        <time>2020-06-19T15:21:06.235Z</time>
      </trkpt>
      <trkpt lat="45.56596" lon="1.02685">
        <ele>398.60693359375</ele>
        <time>2020-06-19T15:21:11.991Z</time>
      </trkpt>
      <trkpt lat="45.56564" lon="1.02682">
        <ele>397.65844726562</ele>
        <time>2020-06-19T15:21:17.752Z</time>
      </trkpt>
      <trkpt lat="45.5654" lon="1.02689">
        <ele>398.47192382812</ele>
        <time>2020-06-19T15:21:23.517Z</time>
      </trkpt>
      <trkpt lat="45.56488" lon="1.02713">
        <ele>401.15933227539</ele>
        <time>2020-06-19T15:21:29.291Z</time>
      </trkpt>
      <trkpt lat="45.56473" lon="1.02715">
        <ele>401.43530273438</ele>
        <time>2020-06-19T15:21:35.067Z</time>
      </trkpt>
      <trkpt lat="45.56448" lon="1.02707">
        <ele>402.03173828125</ele>
        <time>2020-06-19T15:21:40.847Z</time>
      </trkpt>
      <trkpt lat="45.56448" lon="1.02707">
        <ele>402.03500366211</ele>
        <time>2020-06-19T15:21:46.627Z</time>
      </trkpt>
      <trkpt lat="45.56448" lon="1.02708">
        <ele>402.05575561523</ele>
        <time>2020-06-19T15:21:52.407Z</time>
      </trkpt>
      <trkpt lat="45.56425" lon="1.02697">
        <ele>402.34368896484</ele>
        <time>2020-06-19T15:21:58.191Z</time>
      </trkpt>
      <trkpt lat="45.56405" lon="1.02694">
        <ele>402.75161743164</ele>
        <time>2020-06-19T15:22:03.978Z</time>
      </trkpt>
      <trkpt lat="45.56388" lon="1.02695">
        <ele>403.18356323242</ele>
        <time>2020-06-19T15:22:09.768Z</time>
      </trkpt>
      <trkpt lat="45.56371" lon="1.02695">
        <ele>403.75274658203</ele>
        <time>2020-06-19T15:22:15.561Z</time>
      </trkpt>
      <trkpt lat="45.56354" lon="1.0269">
        <ele>404.24465942383</ele>
        <time>2020-06-19T15:22:21.357Z</time>
      </trkpt>
      <trkpt lat="45.56343" lon="1.02684">
        <ele>404.49661254883</ele>
        <time>2020-06-19T15:22:27.154Z</time>
      </trkpt>
      <trkpt lat="45.5633" lon="1.02678">
        <ele>404.318359375</ele>
        <time>2020-06-19T15:22:32.954Z</time>
      </trkpt>
      <trkpt lat="45.5627" lon="1.02648">
        <ele>403.59848022461</ele>
        <time>2020-06-19T15:22:38.764Z</time>
      </trkpt>
      <trkpt lat="45.56177" lon="1.026">
        <ele>402.03289794922</ele>
        <time>2020-06-19T15:22:44.590Z</time>
      </trkpt>
      <trkpt lat="45.56078" lon="1.02539">
        <ele>399.0910949707</ele>
        <time>2020-06-19T15:22:50.433Z</time>
      </trkpt>
      <trkpt lat="45.56017" lon="1.02501">
        <ele>397.16061401367</ele>
        <time>2020-06-19T15:22:56.287Z</time>
      </trkpt>
      <trkpt lat="45.55986" lon="1.02485">
        <ele>396.42874145508</ele>
        <time>2020-06-19T15:23:02.146Z</time>
      </trkpt>
      <trkpt lat="45.55973" lon="1.02478">
        <ele>396.12878417969</ele>
        <time>2020-06-19T15:23:08.007Z</time>
      </trkpt>
      <trkpt lat="45.55951" lon="1.0247">
        <ele>395.84228515625</ele>
        <time>2020-06-19T15:23:13.872Z</time>
      </trkpt>
      <trkpt lat="45.5595" lon="1.02469">
        <ele>395.82717895508</ele>
        <time>2020-06-19T15:23:19.737Z</time>
      </trkpt>
      <trkpt lat="45.5595" lon="1.02468">
        <ele>395.76718139648</ele>
        <time>2020-06-19T15:23:25.602Z</time>
      </trkpt>
      <trkpt lat="45.55927" lon="1.02456">
        <ele>395.32327270508</ele>
        <time>2020-06-19T15:23:31.471Z</time>
      </trkpt>
      <trkpt lat="45.55893" lon="1.02433">
        <ele>394.35140991211</ele>
        <time>2020-06-19T15:23:37.346Z</time>
      </trkpt>
      <trkpt lat="45.55842" lon="1.02396">
        <ele>393.25186157227</ele>
        <time>2020-06-19T15:23:43.230Z</time>
      </trkpt>
      <trkpt lat="45.55828" lon="1.02382">
        <ele>392.74795532227</ele>
        <time>2020-06-19T15:23:49.117Z</time>
      </trkpt>
      <trkpt lat="45.55813" lon="1.02361">
        <ele>391.84811401367</ele>
        <time>2020-06-19T15:23:55.007Z</time>
      </trkpt>
      <trkpt lat="45.55801" lon="1.02339">
        <ele>390.81607055664</ele>
        <time>2020-06-19T15:24:00.900Z</time>
      </trkpt>
      <trkpt lat="45.55773" lon="1.02297">
        <ele>389.14071655273</ele>
        <time>2020-06-19T15:24:06.800Z</time>
      </trkpt>
      <trkpt lat="45.55756" lon="1.0228">
        <ele>389.34466552734</ele>
        <time>2020-06-19T15:24:12.703Z</time>
      </trkpt>
      <trkpt lat="45.55732" lon="1.0226">
        <ele>389.58462524414</ele>
        <time>2020-06-19T15:24:18.611Z</time>
      </trkpt>
      <trkpt lat="45.5571" lon="1.02242">
        <ele>389.34100341797</ele>
        <time>2020-06-19T15:24:24.523Z</time>
      </trkpt>
      <trkpt lat="45.55656" lon="1.02197">
        <ele>386.64144897461</ele>
        <time>2020-06-19T15:24:30.445Z</time>
      </trkpt>
      <trkpt lat="45.55637" lon="1.02171">
        <ele>385.81356811523</ele>
        <time>2020-06-19T15:24:36.371Z</time>
      </trkpt>
      <trkpt lat="45.55615" lon="1.02125">
        <ele>385.33218383789</ele>
        <time>2020-06-19T15:24:42.303Z</time>
      </trkpt>
      <trkpt lat="45.55591" lon="1.02067">
        <ele>384.44094848633</ele>
        <time>2020-06-19T15:24:48.243Z</time>
      </trkpt>
      <trkpt lat="45.55566" lon="1.02008">
        <ele>383.54110717773</ele>
        <time>2020-06-19T15:24:54.191Z</time>
      </trkpt>
      <trkpt lat="45.55555" lon="1.01988">
        <ele>383.14517211914</ele>
        <time>2020-06-19T15:25:00.141Z</time>
      </trkpt>
      <trkpt lat="45.55542" lon="1.01974">
        <ele>382.74145507812</ele>
        <time>2020-06-19T15:25:06.094Z</time>
      </trkpt>
      <trkpt lat="45.5551" lon="1.01948">
        <ele>382.83746337891</ele>
        <time>2020-06-19T15:25:12.053Z</time>
      </trkpt>
      <trkpt lat="45.55399" lon="1.0186">
        <ele>382.29776000977</ele>
        <time>2020-06-19T15:25:18.032Z</time>
      </trkpt>
      <trkpt lat="45.55312" lon="1.01791">
        <ele>379.76354980469</ele>
        <time>2020-06-19T15:25:24.027Z</time>
      </trkpt>
      <trkpt lat="45.55271" lon="1.01757">
        <ele>378.85922241211</ele>
        <time>2020-06-19T15:25:30.030Z</time>
      </trkpt>
      <trkpt lat="45.55241" lon="1.01724">
        <ele>378.42242431641</ele>
        <time>2020-06-19T15:25:36.039Z</time>
      </trkpt>
      <trkpt lat="45.552" lon="1.01672">
        <ele>378.78234863281</ele>
        <time>2020-06-19T15:25:42.057Z</time>
      </trkpt>
      <trkpt lat="45.55158" lon="1.01618">
        <ele>379.1423034668</ele>
        <time>2020-06-19T15:25:48.084Z</time>
      </trkpt>
      <trkpt lat="45.55125" lon="1.01575">
        <ele>379.30749511719</ele>
        <time>2020-06-19T15:25:54.118Z</time>
      </trkpt>
      <trkpt lat="45.551" lon="1.01548">
        <ele>379.4162902832</ele>
        <time>2020-06-19T15:26:00.157Z</time>
      </trkpt>
      <trkpt lat="45.55099" lon="1.01547">
        <ele>379.42269897461</ele>
        <time>2020-06-19T15:26:06.196Z</time>
      </trkpt>
      <trkpt lat="45.55098" lon="1.01546">
        <ele>379.43469238281</ele>
        <time>2020-06-19T15:26:12.235Z</time>
      </trkpt>
      <trkpt lat="45.55082" lon="1.01535">
        <ele>379.6266784668</ele>
        <time>2020-06-19T15:26:18.277Z</time>
      </trkpt>
      <trkpt lat="45.55048" lon="1.01518">
        <ele>380.03460693359</ele>
        <time>2020-06-19T15:26:24.325Z</time>
      </trkpt>
      <trkpt lat="45.54941" lon="1.01464">
        <ele>380.63330078125</ele>
        <time>2020-06-19T15:26:30.391Z</time>
      </trkpt>
      <trkpt lat="45.54853" lon="1.01419">
        <ele>380.3498840332</ele>
        <time>2020-06-19T15:26:36.472Z</time>
      </trkpt>
      <trkpt lat="45.54801" lon="1.01396">
        <ele>380.85458374023</ele>
        <time>2020-06-19T15:26:42.562Z</time>
      </trkpt>
      <trkpt lat="45.54778" lon="1.01387">
        <ele>380.84371948242</ele>
        <time>2020-06-19T15:26:48.656Z</time>
      </trkpt>
      <trkpt lat="45.54766" lon="1.0138">
        <ele>380.86770629883</ele>
        <time>2020-06-19T15:26:54.752Z</time>
      </trkpt>
      <trkpt lat="45.54724" lon="1.01342">
        <ele>381.27563476562</ele>
        <time>2020-06-19T15:27:00.856Z</time>
      </trkpt>
      <trkpt lat="45.54692" lon="1.01312">
        <ele>380.99981689453</ele>
        <time>2020-06-19T15:27:06.966Z</time>
      </trkpt>
      <trkpt lat="45.54658" lon="1.01288">
        <ele>380.35192871094</ele>
        <time>2020-06-19T15:27:13.082Z</time>
      </trkpt>
      <trkpt lat="45.5456" lon="1.01231">
        <ele>380.86114501953</ele>
        <time>2020-06-19T15:27:19.215Z</time>
      </trkpt>
      <trkpt lat="45.5451" lon="1.01201">
        <ele>381.09149169922</ele>
        <time>2020-06-19T15:27:25.356Z</time>
      </trkpt>
      <trkpt lat="45.54504" lon="1.01197">
        <ele>381.10995483398</ele>
        <time>2020-06-19T15:27:31.498Z</time>
      </trkpt>
      <trkpt lat="45.54502" lon="1.01196">
        <ele>381.1155090332</ele>
        <time>2020-06-19T15:27:37.641Z</time>
      </trkpt>
      <trkpt lat="45.54502" lon="1.01197">
        <ele>381.09149169922</ele>
        <time>2020-06-19T15:27:43.784Z</time>
      </trkpt>
      <trkpt lat="45.54444" lon="1.01166">
        <ele>380.57672119141</ele>
        <time>2020-06-19T15:27:49.937Z</time>
      </trkpt>
      <trkpt lat="45.54412" lon="1.01154">
        <ele>379.71286010742</ele>
        <time>2020-06-19T15:27:56.095Z</time>
      </trkpt>
      <trkpt lat="45.54377" lon="1.01145">
        <ele>378.96240234375</ele>
        <time>2020-06-19T15:28:02.259Z</time>
      </trkpt>
      <trkpt lat="45.54355" lon="1.01139">
        <ele>379</ele>
        <time>2020-06-19T15:28:08.426Z</time>
      </trkpt>
      <trkpt lat="45.54342" lon="1.01138">
        <ele>379</ele>
        <time>2020-06-19T15:28:14.595Z</time>
      </trkpt>
      <trkpt lat="45.5431" lon="1.01155">
        <ele>378.88912963867</ele>
        <time>2020-06-19T15:28:20.770Z</time>
      </trkpt>
      <trkpt lat="45.54285" lon="1.01178">
        <ele>378.81094360352</ele>
        <time>2020-06-19T15:28:26.950Z</time>
      </trkpt>
      <trkpt lat="45.54248" lon="1.01196">
        <ele>378.08450317383</ele>
        <time>2020-06-19T15:28:33.136Z</time>
      </trkpt>
      <trkpt lat="45.54236" lon="1.01196">
        <ele>377.79653930664</ele>
        <time>2020-06-19T15:28:39.324Z</time>
      </trkpt>
      <trkpt lat="45.54235" lon="1.012">
        <ele>377.72457885742</ele>
        <time>2020-06-19T15:28:45.512Z</time>
      </trkpt>
      <trkpt lat="45.54226" lon="1.01219">
        <ele>377.28063964844</ele>
        <time>2020-06-19T15:28:51.703Z</time>
      </trkpt>
      <trkpt lat="45.54189" lon="1.01214">
        <ele>376.25552368164</ele>
        <time>2020-06-19T15:28:57.900Z</time>
      </trkpt>
      <trkpt lat="45.54178" lon="1.01215">
        <ele>376.15951538086</ele>
        <time>2020-06-19T15:29:04.099Z</time>
      </trkpt>
      <trkpt lat="45.54144" lon="1.01235">
        <ele>376.11920166016</ele>
        <time>2020-06-19T15:29:10.304Z</time>
      </trkpt>
      <trkpt lat="45.54114" lon="1.01258">
        <ele>374.55563354492</ele>
        <time>2020-06-19T15:29:16.514Z</time>
      </trkpt>
      <trkpt lat="45.54102" lon="1.01253">
        <ele>373.69177246094</ele>
        <time>2020-06-19T15:29:22.726Z</time>
      </trkpt>
      <trkpt lat="45.54036" lon="1.01242">
        <ele>368.8908996582</ele>
        <time>2020-06-19T15:29:28.949Z</time>
      </trkpt>
      <trkpt lat="45.53975" lon="1.01234">
        <ele>366.15533447266</ele>
        <time>2020-06-19T15:29:35.181Z</time>
      </trkpt>
      <trkpt lat="45.53927" lon="1.01234">
        <ele>364.33609008789</ele>
        <time>2020-06-19T15:29:41.421Z</time>
      </trkpt>
      <trkpt lat="45.53915" lon="1.01235">
        <ele>363.86846923828</ele>
        <time>2020-06-19T15:29:47.663Z</time>
      </trkpt>
      <trkpt lat="45.53911" lon="1.01235">
        <ele>363.73617553711</ele>
        <time>2020-06-19T15:29:53.906Z</time>
      </trkpt>
      <trkpt lat="45.53873" lon="1.01241">
        <ele>362.54608154297</ele>
        <time>2020-06-19T15:30:00.155Z</time>
      </trkpt>
      <trkpt lat="45.53828" lon="1.01253">
        <ele>361.31674194336</ele>
        <time>2020-06-19T15:30:06.411Z</time>
      </trkpt>
      <trkpt lat="45.53752" lon="1.01278">
        <ele>358.93197631836</ele>
        <time>2020-06-19T15:30:12.680Z</time>
      </trkpt>
      <trkpt lat="45.53726" lon="1.01286">
        <ele>358.02014160156</ele>
        <time>2020-06-19T15:30:18.953Z</time>
      </trkpt>
      <trkpt lat="45.53706" lon="1.01291">
        <ele>357.36022949219</ele>
        <time>2020-06-19T15:30:25.229Z</time>
      </trkpt>
      <trkpt lat="45.53682" lon="1.01289">
        <ele>357.04550170898</ele>
        <time>2020-06-19T15:30:31.509Z</time>
      </trkpt>
      <trkpt lat="45.53644" lon="1.01274">
        <ele>356.94952392578</ele>
        <time>2020-06-19T15:30:37.795Z</time>
      </trkpt>
      <trkpt lat="45.53617" lon="1.01266">
        <ele>356.2063293457</ele>
        <time>2020-06-19T15:30:44.086Z</time>
      </trkpt>
      <trkpt lat="45.53546" lon="1.01263">
        <ele>352.58432006836</ele>
        <time>2020-06-19T15:30:50.388Z</time>
      </trkpt>
      <trkpt lat="45.53509" lon="1.0126">
        <ele>352.24835205078</ele>
        <time>2020-06-19T15:30:56.696Z</time>
      </trkpt>
      <trkpt lat="45.53469" lon="1.0125">
        <ele>351.8515625</ele>
        <time>2020-06-19T15:31:03.010Z</time>
      </trkpt>
      <trkpt lat="45.53356" lon="1.01212">
        <ele>348.83581542969</ele>
        <time>2020-06-19T15:31:09.343Z</time>
      </trkpt>
      <trkpt lat="45.53333" lon="1.01212">
        <ele>348.00796508789</ele>
        <time>2020-06-19T15:31:15.680Z</time>
      </trkpt>
      <trkpt lat="45.53298" lon="1.01217">
        <ele>346.93255615234</ele>
        <time>2020-06-19T15:31:22.022Z</time>
      </trkpt>
      <trkpt lat="45.53262" lon="1.01225">
        <ele>345.61859130859</ele>
        <time>2020-06-19T15:31:28.370Z</time>
      </trkpt>
      <trkpt lat="45.53227" lon="1.01231">
        <ele>344.21228027344</ele>
        <time>2020-06-19T15:31:34.724Z</time>
      </trkpt>
      <trkpt lat="45.53207" lon="1.0123">
        <ele>343.76220703125</ele>
        <time>2020-06-19T15:31:41.081Z</time>
      </trkpt>
      <trkpt lat="45.53191" lon="1.01223">
        <ele>343.76477050781</ele>
        <time>2020-06-19T15:31:47.441Z</time>
      </trkpt>
      <trkpt lat="45.53174" lon="1.01213">
        <ele>343.92074584961</ele>
        <time>2020-06-19T15:31:53.804Z</time>
      </trkpt>
      <trkpt lat="45.53106" lon="1.01164">
        <ele>343.86444091797</ele>
        <time>2020-06-19T15:32:00.179Z</time>
      </trkpt>
      <trkpt lat="45.53078" lon="1.01146">
        <ele>343.16857910156</ele>
        <time>2020-06-19T15:32:06.559Z</time>
      </trkpt>
      <trkpt lat="45.5306" lon="1.01138">
        <ele>342.49990844727</ele>
        <time>2020-06-19T15:32:12.942Z</time>
      </trkpt>
      <trkpt lat="45.53025" lon="1.0113">
        <ele>341.36508178711</ele>
        <time>2020-06-19T15:32:19.330Z</time>
      </trkpt>
      <trkpt lat="45.53022" lon="1.0113">
        <ele>341.26501464844</ele>
        <time>2020-06-19T15:32:25.719Z</time>
      </trkpt>
      <trkpt lat="45.53019" lon="1.01129">
        <ele>341.1731262207</ele>
        <time>2020-06-19T15:32:32.108Z</time>
      </trkpt>
      <trkpt lat="45.52897" lon="1.01118">
        <ele>340.70132446289</ele>
        <time>2020-06-19T15:32:38.517Z</time>
      </trkpt>
      <trkpt lat="45.52874" lon="1.01109">
        <ele>341.0647277832</ele>
        <time>2020-06-19T15:32:44.930Z</time>
      </trkpt>
      <trkpt lat="45.52856" lon="1.01099">
        <ele>341.2087097168</ele>
        <time>2020-06-19T15:32:51.346Z</time>
      </trkpt>
      <trkpt lat="45.52842" lon="1.01087">
        <ele>341.47265625</ele>
        <time>2020-06-19T15:32:57.765Z</time>
      </trkpt>
      <trkpt lat="45.52827" lon="1.01072">
        <ele>341.83261108398</ele>
        <time>2020-06-19T15:33:04.186Z</time>
      </trkpt>
      <trkpt lat="45.52814" lon="1.01056">
        <ele>342.10144042969</ele>
        <time>2020-06-19T15:33:10.610Z</time>
      </trkpt>
      <trkpt lat="45.528" lon="1.01038">
        <ele>341.53204345703</ele>
        <time>2020-06-19T15:33:17.037Z</time>
      </trkpt>
      <trkpt lat="45.52792" lon="1.01025">
        <ele>341.60403442383</ele>
        <time>2020-06-19T15:33:23.466Z</time>
      </trkpt>
      <trkpt lat="45.52774" lon="1.01029">
        <ele>342.56387329102</ele>
        <time>2020-06-19T15:33:29.898Z</time>
      </trkpt>
      <trkpt lat="45.52738" lon="1.01035">
        <ele>343.49996948242</ele>
        <time>2020-06-19T15:33:36.336Z</time>
      </trkpt>
      <trkpt lat="45.52698" lon="1.01041">
        <ele>345.56985473633</ele>
        <time>2020-06-19T15:33:42.780Z</time>
      </trkpt>
      <trkpt lat="45.52649" lon="1.01054">
        <ele>348.19741821289</ele>
        <time>2020-06-19T15:33:49.232Z</time>
      </trkpt>
      <trkpt lat="45.52632" lon="1.01059">
        <ele>349.01022338867</ele>
        <time>2020-06-19T15:33:55.687Z</time>
      </trkpt>
      <trkpt lat="45.52596" lon="1.01062">
        <ele>349.37014770508</ele>
        <time>2020-06-19T15:34:02.148Z</time>
      </trkpt>
      <trkpt lat="45.5253" lon="1.0106">
        <ele>348.75442504883</ele>
        <time>2020-06-19T15:34:08.619Z</time>
      </trkpt>
      <trkpt lat="45.52434" lon="1.01051">
        <ele>343.41052246094</ele>
        <time>2020-06-19T15:34:15.106Z</time>
      </trkpt>
      <trkpt lat="45.52219" lon="1.01032">
        <ele>331.77407836914</ele>
        <time>2020-06-19T15:34:21.627Z</time>
      </trkpt>
      <trkpt lat="45.52204" lon="1.0103">
        <ele>330.85745239258</ele>
        <time>2020-06-19T15:34:28.151Z</time>
      </trkpt>
      <trkpt lat="45.52201" lon="1.0103">
        <ele>330.69332885742</ele>
        <time>2020-06-19T15:34:34.675Z</time>
      </trkpt>
      <trkpt lat="45.52144" lon="1.01024">
        <ele>328.12716674805</ele>
        <time>2020-06-19T15:34:41.208Z</time>
      </trkpt>
      <trkpt lat="45.51996" lon="1.01001">
        <ele>321.35241699219</ele>
        <time>2020-06-19T15:34:47.765Z</time>
      </trkpt>
      <trkpt lat="45.51925" lon="1.00988">
        <ele>319.84606933594</ele>
        <time>2020-06-19T15:34:54.334Z</time>
      </trkpt>
      <trkpt lat="45.51865" lon="1.00974">
        <ele>319.39758300781</ele>
        <time>2020-06-19T15:35:00.912Z</time>
      </trkpt>
      <trkpt lat="45.51832" lon="1.00966">
        <ele>318.68969726562</ele>
        <time>2020-06-19T15:35:07.496Z</time>
      </trkpt>
      <trkpt lat="45.51772" lon="1.00953">
        <ele>317.38397216797</ele>
        <time>2020-06-19T15:35:14.089Z</time>
      </trkpt>
      <trkpt lat="45.51724" lon="1.00951">
        <ele>316.328125</ele>
        <time>2020-06-19T15:35:20.690Z</time>
      </trkpt>
      <trkpt lat="45.51681" lon="1.00957">
        <ele>314.78616333008</ele>
        <time>2020-06-19T15:35:27.298Z</time>
      </trkpt>
      <trkpt lat="45.51578" lon="1.00971">
        <ele>313.53253173828</ele>
        <time>2020-06-19T15:35:33.923Z</time>
      </trkpt>
      <trkpt lat="45.51462" lon="1.00986">
        <ele>310.841796875</ele>
        <time>2020-06-19T15:35:40.566Z</time>
      </trkpt>
      <trkpt lat="45.51461" lon="1.00986">
        <ele>310.77352905273</ele>
        <time>2020-06-19T15:35:47.209Z</time>
      </trkpt>
      <trkpt lat="45.51459" lon="1.00987">
        <ele>310.673828125</ele>
        <time>2020-06-19T15:35:53.853Z</time>
      </trkpt>
      <trkpt lat="45.51428" lon="1.00994">
        <ele>309.25805664062</ele>
        <time>2020-06-19T15:36:00.502Z</time>
      </trkpt>
      <trkpt lat="45.51412" lon="1.01">
        <ele>308.29821777344</ele>
        <time>2020-06-19T15:36:07.153Z</time>
      </trkpt>
      <trkpt lat="45.51372" lon="1.01024">
        <ele>304.06002807617</ele>
        <time>2020-06-19T15:36:13.811Z</time>
      </trkpt>
      <trkpt lat="45.51343" lon="1.01048">
        <ele>300.06887817383</ele>
        <time>2020-06-19T15:36:20.475Z</time>
      </trkpt>
      <trkpt lat="45.51326" lon="1.01074">
        <ele>297.42977905273</ele>
        <time>2020-06-19T15:36:27.143Z</time>
      </trkpt>
      <trkpt lat="45.51317" lon="1.01098">
        <ele>294.88931274414</ele>
        <time>2020-06-19T15:36:33.814Z</time>
      </trkpt>
      <trkpt lat="45.51291" lon="1.01167">
        <ele>287.41305541992</ele>
        <time>2020-06-19T15:36:40.494Z</time>
      </trkpt>
      <trkpt lat="45.5128" lon="1.01205">
        <ele>283.755859375</ele>
        <time>2020-06-19T15:36:47.178Z</time>
      </trkpt>
      <trkpt lat="45.51284" lon="1.01238">
        <ele>283.87503051758</ele>
        <time>2020-06-19T15:36:53.866Z</time>
      </trkpt>
      <trkpt lat="45.51293" lon="1.01283">
        <ele>285.81872558594</ele>
        <time>2020-06-19T15:37:00.559Z</time>
      </trkpt>
      <trkpt lat="45.51293" lon="1.01298">
        <ele>286.35861206055</ele>
        <time>2020-06-19T15:37:07.254Z</time>
      </trkpt>
      <trkpt lat="45.51287" lon="1.0131">
        <ele>286.94454956055</ele>
        <time>2020-06-19T15:37:13.951Z</time>
      </trkpt>
      <trkpt lat="45.51279" lon="1.01315">
        <ele>287.20852661133</ele>
        <time>2020-06-19T15:37:20.649Z</time>
      </trkpt>
      <trkpt lat="45.51247" lon="1.01312">
        <ele>286.60861206055</ele>
        <time>2020-06-19T15:37:27.352Z</time>
      </trkpt>
      <trkpt lat="45.51191" lon="1.01307">
        <ele>288.33731079102</ele>
        <time>2020-06-19T15:37:34.064Z</time>
      </trkpt>
      <trkpt lat="45.51146" lon="1.01309">
        <ele>292.83801269531</ele>
        <time>2020-06-19T15:37:40.783Z</time>
      </trkpt>
      <trkpt lat="45.5114" lon="1.01308">
        <ele>293.32846069336</ele>
        <time>2020-06-19T15:37:47.503Z</time>
      </trkpt>
      <trkpt lat="45.51123" lon="1.01299">
        <ele>294.16287231445</ele>
        <time>2020-06-19T15:37:54.226Z</time>
      </trkpt>
      <trkpt lat="45.51082" lon="1.01272">
        <ele>295.15872192383</ele>
        <time>2020-06-19T15:38:00.956Z</time>
      </trkpt>
      <trkpt lat="45.51068" lon="1.01263">
        <ele>295.50665283203</ele>
        <time>2020-06-19T15:38:07.689Z</time>
      </trkpt>
      <trkpt lat="45.51058" lon="1.01259">
        <ele>295.84259033203</ele>
        <time>2020-06-19T15:38:14.424Z</time>
      </trkpt>
      <trkpt lat="45.5105" lon="1.01259">
        <ele>296.21871948242</ele>
        <time>2020-06-19T15:38:21.160Z</time>
      </trkpt>
      <trkpt lat="45.51045" lon="1.01264">
        <ele>296.45867919922</ele>
        <time>2020-06-19T15:38:27.897Z</time>
      </trkpt>
      <trkpt lat="45.51041" lon="1.01268">
        <ele>296.6506652832</ele>
        <time>2020-06-19T15:38:34.635Z</time>
      </trkpt>
      <trkpt lat="45.51037" lon="1.01275">
        <ele>296.95059204102</ele>
        <time>2020-06-19T15:38:41.374Z</time>
      </trkpt>
      <trkpt lat="45.51034" lon="1.01293">
        <ele>297.6344909668</ele>
        <time>2020-06-19T15:38:48.115Z</time>
      </trkpt>
      <trkpt lat="45.51028" lon="1.01335">
        <ele>299.85266113281</ele>
        <time>2020-06-19T15:38:54.860Z</time>
      </trkpt>
      <trkpt lat="45.51023" lon="1.01373">
        <ele>301.89318847656</ele>
        <time>2020-06-19T15:39:01.610Z</time>
      </trkpt>
      <trkpt lat="45.51015" lon="1.01408">
        <ele>302.34802246094</ele>
        <time>2020-06-19T15:39:08.364Z</time>
      </trkpt>
      <trkpt lat="45.51006" lon="1.01462">
        <ele>303.15142822266</ele>
        <time>2020-06-19T15:39:15.124Z</time>
      </trkpt>
      <trkpt lat="45.51006" lon="1.01484">
        <ele>303.57440185547</ele>
        <time>2020-06-19T15:39:21.887Z</time>
      </trkpt>
      <trkpt lat="45.51012" lon="1.01494">
        <ele>303.76638793945</ele>
        <time>2020-06-19T15:39:28.651Z</time>
      </trkpt>
      <trkpt lat="45.51042" lon="1.01528">
        <ele>304.53424072266</ele>
        <time>2020-06-19T15:39:35.421Z</time>
      </trkpt>
      <trkpt lat="45.51063" lon="1.01552">
        <ele>304.00054931641</ele>
        <time>2020-06-19T15:39:42.196Z</time>
      </trkpt>
      <trkpt lat="45.51077" lon="1.01573">
        <ele>303.76290893555</ele>
        <time>2020-06-19T15:39:48.974Z</time>
      </trkpt>
      <trkpt lat="45.51086" lon="1.01592">
        <ele>304.02688598633</ele>
        <time>2020-06-19T15:39:55.754Z</time>
      </trkpt>
      <trkpt lat="45.5109" lon="1.01612">
        <ele>304.3720703125</ele>
        <time>2020-06-19T15:40:02.537Z</time>
      </trkpt>
      <trkpt lat="45.51086" lon="1.01644">
        <ele>305.47952270508</ele>
        <time>2020-06-19T15:40:09.323Z</time>
      </trkpt>
      <trkpt lat="45.51071" lon="1.0173">
        <ele>311.28216552734</ele>
        <time>2020-06-19T15:40:16.119Z</time>
      </trkpt>
      <trkpt lat="45.5106" lon="1.01786">
        <ele>314.03067016602</ele>
        <time>2020-06-19T15:40:22.922Z</time>
      </trkpt>
      <trkpt lat="45.51046" lon="1.01847">
        <ele>317.76119995117</ele>
        <time>2020-06-19T15:40:29.732Z</time>
      </trkpt>
      <trkpt lat="45.51024" lon="1.01924">
        <ele>321.13897705078</ele>
        <time>2020-06-19T15:40:36.552Z</time>
      </trkpt>
      <trkpt lat="45.51004" lon="1.02024">
        <ele>318.33645629883</ele>
        <time>2020-06-19T15:40:43.383Z</time>
      </trkpt>
      <trkpt lat="45.50963" lon="1.0222">
        <ele>312.96148681641</ele>
        <time>2020-06-19T15:40:50.237Z</time>
      </trkpt>
      <trkpt lat="45.50947" lon="1.02258">
        <ele>313.54434204102</ele>
        <time>2020-06-19T15:40:57.096Z</time>
      </trkpt>
      <trkpt lat="45.50935" lon="1.02268">
        <ele>313.6403503418</ele>
        <time>2020-06-19T15:41:03.957Z</time>
      </trkpt>
      <trkpt lat="45.50922" lon="1.02274">
        <ele>313.99340820312</ele>
        <time>2020-06-19T15:41:10.821Z</time>
      </trkpt>
      <trkpt lat="45.50874" lon="1.02292">
        <ele>316.68203735352</ele>
        <time>2020-06-19T15:41:17.693Z</time>
      </trkpt>
      <trkpt lat="45.50823" lon="1.02314">
        <ele>320.94705200195</ele>
        <time>2020-06-19T15:41:24.573Z</time>
      </trkpt>
      <trkpt lat="45.50802" lon="1.02326">
        <ele>322</ele>
        <time>2020-06-19T15:41:31.457Z</time>
      </trkpt>
      <trkpt lat="45.50775" lon="1.02349">
        <ele>321.69793701172</ele>
        <time>2020-06-19T15:41:38.346Z</time>
      </trkpt>
      <trkpt lat="45.50752" lon="1.02382">
        <ele>322.33627319336</ele>
        <time>2020-06-19T15:41:45.240Z</time>
      </trkpt>
      <trkpt lat="45.50741" lon="1.02406">
        <ele>323.04415893555</ele>
        <time>2020-06-19T15:41:52.137Z</time>
      </trkpt>
      <trkpt lat="45.50701" lon="1.02492">
        <ele>329.33288574219</ele>
        <time>2020-06-19T15:41:59.046Z</time>
      </trkpt>
      <trkpt lat="45.50682" lon="1.02539">
        <ele>334.26477050781</ele>
        <time>2020-06-19T15:42:05.961Z</time>
      </trkpt>
      <trkpt lat="45.50666" lon="1.02568">
        <ele>337.71185302734</ele>
        <time>2020-06-19T15:42:12.880Z</time>
      </trkpt>
      <trkpt lat="45.50635" lon="1.02644">
        <ele>343.94094848633</ele>
        <time>2020-06-19T15:42:19.809Z</time>
      </trkpt>
      <trkpt lat="45.50629" lon="1.02653">
        <ele>343.98983764648</ele>
        <time>2020-06-19T15:42:26.739Z</time>
      </trkpt>
      <trkpt lat="45.50627" lon="1.02655">
        <ele>344.00091552734</ele>
        <time>2020-06-19T15:42:33.670Z</time>
      </trkpt>
      <trkpt lat="45.50621" lon="1.02659">
        <ele>344.09692382812</ele>
        <time>2020-06-19T15:42:40.602Z</time>
      </trkpt>
      <trkpt lat="45.50604" lon="1.02668">
        <ele>344.39685058594</ele>
        <time>2020-06-19T15:42:47.537Z</time>
      </trkpt>
      <trkpt lat="45.50556" lon="1.02688">
        <ele>345.78884887695</ele>
        <time>2020-06-19T15:42:54.480Z</time>
      </trkpt>
      <trkpt lat="45.50496" lon="1.02713">
        <ele>343.10296630859</ele>
        <time>2020-06-19T15:43:01.433Z</time>
      </trkpt>
      <trkpt lat="45.5047" lon="1.02726">
        <ele>342.14779663086</ele>
        <time>2020-06-19T15:43:08.390Z</time>
      </trkpt>
      <trkpt lat="45.50447" lon="1.02741">
        <ele>341.71160888672</ele>
        <time>2020-06-19T15:43:15.351Z</time>
      </trkpt>
      <trkpt lat="45.50426" lon="1.02757">
        <ele>341.39965820312</ele>
        <time>2020-06-19T15:43:22.316Z</time>
      </trkpt>
      <trkpt lat="45.50414" lon="1.02769">
        <ele>341.10000610352</ele>
        <time>2020-06-19T15:43:29.283Z</time>
      </trkpt>
      <trkpt lat="45.50409" lon="1.02779">
        <ele>340.92004394531</ele>
        <time>2020-06-19T15:43:36.252Z</time>
      </trkpt>
      <trkpt lat="45.50374" lon="1.02772">
        <ele>340.33975219727</ele>
        <time>2020-06-19T15:43:43.226Z</time>
      </trkpt>
      <trkpt lat="45.50266" lon="1.02763">
        <ele>339.93008422852</ele>
        <time>2020-06-19T15:43:50.218Z</time>
      </trkpt>
      <trkpt lat="45.50181" lon="1.02756">
        <ele>339.04312133789</ele>
        <time>2020-06-19T15:43:57.223Z</time>
      </trkpt>
      <trkpt lat="45.5015" lon="1.02755">
        <ele>338.49041748047</ele>
        <time>2020-06-19T15:44:04.233Z</time>
      </trkpt>
      <trkpt lat="45.50144" lon="1.02721">
        <ele>339.30798339844</ele>
        <time>2020-06-19T15:44:11.247Z</time>
      </trkpt>
      <trkpt lat="45.50133" lon="1.02647">
        <ele>339.93664550781</ele>
        <time>2020-06-19T15:44:18.270Z</time>
      </trkpt>
      <trkpt lat="45.50127" lon="1.02617">
        <ele>339.4797668457</ele>
        <time>2020-06-19T15:44:25.296Z</time>
      </trkpt>
      <trkpt lat="45.50112" lon="1.02602">
        <ele>339.83969116211</ele>
        <time>2020-06-19T15:44:32.325Z</time>
      </trkpt>
      <trkpt lat="45.5008" lon="1.02571">
        <ele>340.6435546875</ele>
        <time>2020-06-19T15:44:39.360Z</time>
      </trkpt>
      <trkpt lat="45.50016" lon="1.0251">
        <ele>341.23272705078</ele>
        <time>2020-06-19T15:44:46.408Z</time>
      </trkpt>
      <trkpt lat="45.50014" lon="1.02508">
        <ele>341.21429443359</ele>
        <time>2020-06-19T15:44:53.456Z</time>
      </trkpt>
      <trkpt lat="45.49918" lon="1.02408">
        <ele>341.35974121094</ele>
        <time>2020-06-19T15:45:00.523Z</time>
      </trkpt>
      <trkpt lat="45.49867" lon="1.02362">
        <ele>342.52542114258</ele>
        <time>2020-06-19T15:45:07.600Z</time>
      </trkpt>
      <trkpt lat="45.49802" lon="1.02307">
        <ele>343.02389526367</ele>
        <time>2020-06-19T15:45:14.689Z</time>
      </trkpt>
      <trkpt lat="45.4975" lon="1.02261">
        <ele>342.20837402344</ele>
        <time>2020-06-19T15:45:21.788Z</time>
      </trkpt>
      <trkpt lat="45.49689" lon="1.02203">
        <ele>342.41027832031</ele>
        <time>2020-06-19T15:45:28.898Z</time>
      </trkpt>
      <trkpt lat="45.49632" lon="1.02148">
        <ele>343.72937011719</ele>
        <time>2020-06-19T15:45:36.019Z</time>
      </trkpt>
      <trkpt lat="45.49575" lon="1.02091">
        <ele>342.25048828125</ele>
        <time>2020-06-19T15:45:43.152Z</time>
      </trkpt>
      <trkpt lat="45.4953" lon="1.02035">
        <ele>341.19494628906</ele>
        <time>2020-06-19T15:45:50.294Z</time>
      </trkpt>
      <trkpt lat="45.49503" lon="1.02001">
        <ele>341.43490600586</ele>
        <time>2020-06-19T15:45:57.442Z</time>
      </trkpt>
      <trkpt lat="45.49476" lon="1.01968">
        <ele>341.95098876953</ele>
        <time>2020-06-19T15:46:04.596Z</time>
      </trkpt>
      <trkpt lat="45.49449" lon="1.01939">
        <ele>342.66058349609</ele>
        <time>2020-06-19T15:46:11.755Z</time>
      </trkpt>
      <trkpt lat="45.49391" lon="1.01872">
        <ele>342.6130065918</ele>
        <time>2020-06-19T15:46:18.926Z</time>
      </trkpt>
      <trkpt lat="45.49352" lon="1.01821">
        <ele>341.29159545898</ele>
        <time>2020-06-19T15:46:26.106Z</time>
      </trkpt>
      <trkpt lat="45.4935" lon="1.01818">
        <ele>341.22451782227</ele>
        <time>2020-06-19T15:46:33.286Z</time>
      </trkpt>
      <trkpt lat="45.49305" lon="1.01757">
        <ele>342.2392578125</ele>
        <time>2020-06-19T15:46:40.476Z</time>
      </trkpt>
      <trkpt lat="45.4923" lon="1.0164">
        <ele>335.5973815918</ele>
        <time>2020-06-19T15:46:47.684Z</time>
      </trkpt>
      <trkpt lat="45.49186" lon="1.01571">
        <ele>333.29751586914</ele>
        <time>2020-06-19T15:46:54.902Z</time>
      </trkpt>
      <trkpt lat="45.49163" lon="1.01528">
        <ele>334.46865844727</ele>
        <time>2020-06-19T15:47:02.126Z</time>
      </trkpt>
      <trkpt lat="45.49137" lon="1.01491">
        <ele>336.24435424805</ele>
        <time>2020-06-19T15:47:09.356Z</time>
      </trkpt>
      <trkpt lat="45.49108" lon="1.01452">
        <ele>336.9762878418</ele>
        <time>2020-06-19T15:47:16.593Z</time>
      </trkpt>
      <trkpt lat="45.49089" lon="1.01431">
        <ele>336.99856567383</ele>
        <time>2020-06-19T15:47:23.833Z</time>
      </trkpt>
      <trkpt lat="45.49028" lon="1.01394">
        <ele>335.92465209961</ele>
        <time>2020-06-19T15:47:31.084Z</time>
      </trkpt>
      <trkpt lat="45.48947" lon="1.0134">
        <ele>334.55355834961</ele>
        <time>2020-06-19T15:47:38.349Z</time>
      </trkpt>
      <trkpt lat="45.48925" lon="1.01321">
        <ele>334.40957641602</ele>
        <time>2020-06-19T15:47:45.619Z</time>
      </trkpt>
      <trkpt lat="45.489" lon="1.01289">
        <ele>334.51083374023</ele>
        <time>2020-06-19T15:47:52.894Z</time>
      </trkpt>
      <trkpt lat="45.48859" lon="1.01236">
        <ele>333.28997802734</ele>
        <time>2020-06-19T15:48:00.178Z</time>
      </trkpt>
      <trkpt lat="45.4882" lon="1.01182">
        <ele>329.9348449707</ele>
        <time>2020-06-19T15:48:07.470Z</time>
      </trkpt>
      <trkpt lat="45.48798" lon="1.01155">
        <ele>327.93371582031</ele>
        <time>2020-06-19T15:48:14.767Z</time>
      </trkpt>
      <trkpt lat="45.48746" lon="1.01112">
        <ele>326.42034912109</ele>
        <time>2020-06-19T15:48:22.074Z</time>
      </trkpt>
      <trkpt lat="45.48733" lon="1.01104">
        <ele>326.04840087891</ele>
        <time>2020-06-19T15:48:29.383Z</time>
      </trkpt>
      <trkpt lat="45.48682" lon="1.01086">
        <ele>325.67028808594</ele>
        <time>2020-06-19T15:48:36.700Z</time>
      </trkpt>
      <trkpt lat="45.48652" lon="1.01089">
        <ele>325.07620239258</ele>
        <time>2020-06-19T15:48:44.022Z</time>
      </trkpt>
      <trkpt lat="45.48597" lon="1.01101">
        <ele>323.45153808594</ele>
        <time>2020-06-19T15:48:51.353Z</time>
      </trkpt>
      <trkpt lat="45.48547" lon="1.01096">
        <ele>323.65069580078</ele>
        <time>2020-06-19T15:48:58.692Z</time>
      </trkpt>
      <trkpt lat="45.48515" lon="1.01092">
        <ele>322.73886108398</ele>
        <time>2020-06-19T15:49:06.036Z</time>
      </trkpt>
      <trkpt lat="45.48498" lon="1.01083">
        <ele>322.66687011719</ele>
        <time>2020-06-19T15:49:13.383Z</time>
      </trkpt>
      <trkpt lat="45.48471" lon="1.01058">
        <ele>323.1823425293</ele>
        <time>2020-06-19T15:49:20.735Z</time>
      </trkpt>
      <trkpt lat="45.48451" lon="1.01037">
        <ele>322.662109375</ele>
        <time>2020-06-19T15:49:28.091Z</time>
      </trkpt>
      <trkpt lat="45.48429" lon="1.01015">
        <ele>321.86602783203</ele>
        <time>2020-06-19T15:49:35.452Z</time>
      </trkpt>
      <trkpt lat="45.48426" lon="1.01012">
        <ele>321.76226806641</ele>
        <time>2020-06-19T15:49:42.813Z</time>
      </trkpt>
      <trkpt lat="45.48384" lon="1.00967">
        <ele>319.86828613281</ele>
        <time>2020-06-19T15:49:50.183Z</time>
      </trkpt>
      <trkpt lat="45.48334" lon="1.00902">
        <ele>315.29830932617</ele>
        <time>2020-06-19T15:49:57.564Z</time>
      </trkpt>
      <trkpt lat="45.48316" lon="1.00875">
        <ele>313.57061767578</ele>
        <time>2020-06-19T15:50:04.949Z</time>
      </trkpt>
      <trkpt lat="45.48306" lon="1.00857">
        <ele>312.5387878418</ele>
        <time>2020-06-19T15:50:12.336Z</time>
      </trkpt>
      <trkpt lat="45.48291" lon="1.00815">
        <ele>310.63110351562</ele>
        <time>2020-06-19T15:50:19.729Z</time>
      </trkpt>
      <trkpt lat="45.48271" lon="1.00757">
        <ele>309.14712524414</ele>
        <time>2020-06-19T15:50:27.129Z</time>
      </trkpt>
      <trkpt lat="45.48249" lon="1.00721">
        <ele>308.04956054688</ele>
        <time>2020-06-19T15:50:34.534Z</time>
      </trkpt>
      <trkpt lat="45.48237" lon="1.00709">
        <ele>308.19351196289</ele>
        <time>2020-06-19T15:50:41.942Z</time>
      </trkpt>
      <trkpt lat="45.48222" lon="1.00699">
        <ele>308.31350708008</ele>
        <time>2020-06-19T15:50:49.352Z</time>
      </trkpt>
      <trkpt lat="45.48207" lon="1.00689">
        <ele>307.98181152344</ele>
        <time>2020-06-19T15:50:56.765Z</time>
      </trkpt>
      <trkpt lat="45.4819" lon="1.00676">
        <ele>307.32192993164</ele>
        <time>2020-06-19T15:51:04.181Z</time>
      </trkpt>
      <trkpt lat="45.48113" lon="1.00598">
        <ele>304.27780151367</ele>
        <time>2020-06-19T15:51:11.612Z</time>
      </trkpt>
      <trkpt lat="45.48081" lon="1.00566">
        <ele>303.12600708008</ele>
        <time>2020-06-19T15:51:19.049Z</time>
      </trkpt>
      <trkpt lat="45.48067" lon="1.0055">
        <ele>302.72329711914</ele>
        <time>2020-06-19T15:51:26.489Z</time>
      </trkpt>
      <trkpt lat="45.48039" lon="1.00517">
        <ele>301.98281860352</ele>
        <time>2020-06-19T15:51:33.935Z</time>
      </trkpt>
      <trkpt lat="45.4803" lon="1.00509">
        <ele>301.64688110352</ele>
        <time>2020-06-19T15:51:41.383Z</time>
      </trkpt>
      <trkpt lat="45.48016" lon="1.00505">
        <ele>301.02297973633</ele>
        <time>2020-06-19T15:51:48.833Z</time>
      </trkpt>
      <trkpt lat="45.4798" lon="1.00502">
        <ele>298.53451538086</ele>
        <time>2020-06-19T15:51:56.289Z</time>
      </trkpt>
      <trkpt lat="45.47969" lon="1.00501">
        <ele>297.41870117188</ele>
        <time>2020-06-19T15:52:03.747Z</time>
      </trkpt>
      <trkpt lat="45.47954" lon="1.00501">
        <ele>296.24420166016</ele>
        <time>2020-06-19T15:52:11.207Z</time>
      </trkpt>
      <trkpt lat="45.47947" lon="1.00486">
        <ele>296.82009887695</ele>
        <time>2020-06-19T15:52:18.669Z</time>
      </trkpt>
      <trkpt lat="45.47916" lon="1.00436">
        <ele>296.78091430664</ele>
        <time>2020-06-19T15:52:26.139Z</time>
      </trkpt>
      <trkpt lat="45.47888" lon="1.00391">
        <ele>296.22998046875</ele>
        <time>2020-06-19T15:52:33.615Z</time>
      </trkpt>
      <trkpt lat="45.47864" lon="1.00355">
        <ele>294.89147949219</ele>
        <time>2020-06-19T15:52:41.097Z</time>
      </trkpt>
      <trkpt lat="45.47861" lon="1.0035">
        <ele>294.70651245117</ele>
        <time>2020-06-19T15:52:48.580Z</time>
      </trkpt>
      <trkpt lat="45.47804" lon="1.00258">
        <ele>290.94641113281</ele>
        <time>2020-06-19T15:52:56.076Z</time>
      </trkpt>
      <trkpt lat="45.47788" lon="1.00298">
        <ele>290.59921264648</ele>
        <time>2020-06-19T15:53:03.578Z</time>
      </trkpt>
      <trkpt lat="45.47773" lon="1.00345">
        <ele>288.36032104492</ele>
        <time>2020-06-19T15:53:11.085Z</time>
      </trkpt>
      <trkpt lat="45.47766" lon="1.00369">
        <ele>287.62606811523</ele>
        <time>2020-06-19T15:53:18.595Z</time>
      </trkpt>
      <trkpt lat="45.47759" lon="1.00408">
        <ele>286.99862670898</ele>
        <time>2020-06-19T15:53:26.110Z</time>
      </trkpt>
      <trkpt lat="45.47755" lon="1.00444">
        <ele>285.69293212891</ele>
        <time>2020-06-19T15:53:33.629Z</time>
      </trkpt>
      <trkpt lat="45.47719" lon="1.00439">
        <ele>283.59329223633</ele>
        <time>2020-06-19T15:53:41.154Z</time>
      </trkpt>
      <trkpt lat="45.47683" lon="1.00433">
        <ele>281.10577392578</ele>
        <time>2020-06-19T15:53:48.685Z</time>
      </trkpt>
      <trkpt lat="45.47609" lon="1.00422">
        <ele>278</ele>
        <time>2020-06-19T15:53:56.227Z</time>
      </trkpt>
      <trkpt lat="45.47536" lon="1.00416">
        <ele>278.03610229492</ele>
        <time>2020-06-19T15:54:03.781Z</time>
      </trkpt>
      <trkpt lat="45.47501" lon="1.00409">
        <ele>278.95993041992</ele>
        <time>2020-06-19T15:54:11.341Z</time>
      </trkpt>
      <trkpt lat="45.47465" lon="1.00405">
        <ele>280.31817626953</ele>
        <time>2020-06-19T15:54:18.907Z</time>
      </trkpt>
      <trkpt lat="45.47433" lon="1.00398">
        <ele>280.15017700195</ele>
        <time>2020-06-19T15:54:26.478Z</time>
      </trkpt>
      <trkpt lat="45.47405" lon="1.00385">
        <ele>279.51473999023</ele>
        <time>2020-06-19T15:54:34.053Z</time>
      </trkpt>
      <trkpt lat="45.47393" lon="1.00365">
        <ele>278.07498168945</ele>
        <time>2020-06-19T15:54:41.631Z</time>
      </trkpt>
      <trkpt lat="45.47375" lon="1.00366">
        <ele>278.24221801758</ele>
        <time>2020-06-19T15:54:49.212Z</time>
      </trkpt>
      <trkpt lat="45.47357" lon="1.00364">
        <ele>278.31420898438</ele>
        <time>2020-06-19T15:54:56.796Z</time>
      </trkpt>
      <trkpt lat="45.47319" lon="1.00354">
        <ele>277.4216003418</ele>
        <time>2020-06-19T15:55:04.386Z</time>
      </trkpt>
      <trkpt lat="45.47278" lon="1.00338">
        <ele>278.23428344727</ele>
        <time>2020-06-19T15:55:11.983Z</time>
      </trkpt>
      <trkpt lat="45.47226" lon="1.00312">
        <ele>281.35375976562</ele>
        <time>2020-06-19T15:55:19.589Z</time>
      </trkpt>
      <trkpt lat="45.47192" lon="1.00298">
        <ele>284.03594970703</ele>
        <time>2020-06-19T15:55:27.201Z</time>
      </trkpt>
      <trkpt lat="45.47157" lon="1.00279">
        <ele>286.63952636719</ele>
        <time>2020-06-19T15:55:34.819Z</time>
      </trkpt>
      <trkpt lat="45.4706" lon="1.00219">
        <ele>287.11605834961</ele>
        <time>2020-06-19T15:55:42.454Z</time>
      </trkpt>
      <trkpt lat="45.47035" lon="1.00204">
        <ele>286.59185791016</ele>
        <time>2020-06-19T15:55:50.093Z</time>
      </trkpt>
      <trkpt lat="45.4703" lon="1.00201">
        <ele>286.44955444336</ele>
        <time>2020-06-19T15:55:57.733Z</time>
      </trkpt>
      <trkpt lat="45.4701" lon="1.00189">
        <ele>285.8796081543</ele>
        <time>2020-06-19T15:56:05.376Z</time>
      </trkpt>
      <trkpt lat="45.46985" lon="1.00164">
        <ele>284.37985229492</ele>
        <time>2020-06-19T15:56:13.024Z</time>
      </trkpt>
      <trkpt lat="45.46975" lon="1.00149">
        <ele>283.4020690918</ele>
        <time>2020-06-19T15:56:20.675Z</time>
      </trkpt>
      <trkpt lat="45.46956" lon="1.001">
        <ele>280.86569213867</ele>
        <time>2020-06-19T15:56:28.332Z</time>
      </trkpt>
      <trkpt lat="45.46939" lon="1.00065">
        <ele>279.37796020508</ele>
        <time>2020-06-19T15:56:35.994Z</time>
      </trkpt>
      <trkpt lat="45.46922" lon="1.0005">
        <ele>279.19021606445</ele>
        <time>2020-06-19T15:56:43.659Z</time>
      </trkpt>
      <trkpt lat="45.46899" lon="1.0005">
        <ele>280.01806640625</ele>
        <time>2020-06-19T15:56:51.328Z</time>
      </trkpt>
      <trkpt lat="45.46868" lon="1.00058">
        <ele>280.96621704102</ele>
        <time>2020-06-19T15:56:59.002Z</time>
      </trkpt>
      <trkpt lat="45.46836" lon="1.00055">
        <ele>280.67825317383</ele>
        <time>2020-06-19T15:57:06.681Z</time>
      </trkpt>
      <trkpt lat="45.46763" lon="1.0004">
        <ele>279.4563293457</ele>
        <time>2020-06-19T15:57:14.371Z</time>
      </trkpt>
      <trkpt lat="45.46692" lon="1.00026">
        <ele>278.21667480469</ele>
        <time>2020-06-19T15:57:22.073Z</time>
      </trkpt>
      <trkpt lat="45.4668" lon="1.00022">
        <ele>277.64077758789</ele>
        <time>2020-06-19T15:57:29.777Z</time>
      </trkpt>
      <trkpt lat="45.46653" lon="1.0001">
        <ele>275.31030273438</ele>
        <time>2020-06-19T15:57:37.485Z</time>
      </trkpt>
      <trkpt lat="45.4664" lon="0.99999">
        <ele>273.87054443359</ele>
        <time>2020-06-19T15:57:45.196Z</time>
      </trkpt>
      <trkpt lat="45.46616" lon="0.99968">
        <ele>271.46209716797</ele>
        <time>2020-06-19T15:57:52.912Z</time>
      </trkpt>
      <trkpt lat="45.46574" lon="0.99899">
        <ele>266.61544799805</ele>
        <time>2020-06-19T15:58:00.638Z</time>
      </trkpt>
      <trkpt lat="45.46552" lon="0.99884">
        <ele>266.14343261719</ele>
        <time>2020-06-19T15:58:08.368Z</time>
      </trkpt>
      <trkpt lat="45.46541" lon="0.99882">
        <ele>266.17462158203</ele>
        <time>2020-06-19T15:58:16.100Z</time>
      </trkpt>
      <trkpt lat="45.46521" lon="0.99884">
        <ele>266.35687255859</ele>
        <time>2020-06-19T15:58:23.835Z</time>
      </trkpt>
      <trkpt lat="45.46491" lon="0.99888">
        <ele>266.69281005859</ele>
        <time>2020-06-19T15:58:31.575Z</time>
      </trkpt>
      <trkpt lat="45.4645" lon="0.99893">
        <ele>266.66149902344</ele>
        <time>2020-06-19T15:58:39.322Z</time>
      </trkpt>
      <trkpt lat="45.46437" lon="0.99893">
        <ele>266.34954833984</ele>
        <time>2020-06-19T15:58:47.071Z</time>
      </trkpt>
      <trkpt lat="45.46385" lon="0.99885">
        <ele>264.33456420898</ele>
        <time>2020-06-19T15:58:54.828Z</time>
      </trkpt>
      <trkpt lat="45.46356" lon="0.99878">
        <ele>262.5680847168</ele>
        <time>2020-06-19T15:59:02.590Z</time>
      </trkpt>
      <trkpt lat="45.46346" lon="0.99873">
        <ele>261.6682434082</ele>
        <time>2020-06-19T15:59:10.353Z</time>
      </trkpt>
      <trkpt lat="45.46313" lon="0.99839">
        <ele>257.22897338867</ele>
        <time>2020-06-19T15:59:18.123Z</time>
      </trkpt>
      <trkpt lat="45.46279" lon="0.99808">
        <ele>254.46032714844</ele>
        <time>2020-06-19T15:59:25.899Z</time>
      </trkpt>
      <trkpt lat="45.4623" lon="0.99752">
        <ele>250.26103210449</ele>
        <time>2020-06-19T15:59:33.686Z</time>
      </trkpt>
      <trkpt lat="45.46208" lon="0.99741">
        <ele>249.83003234863</ele>
        <time>2020-06-19T15:59:41.476Z</time>
      </trkpt>
      <trkpt lat="45.46193" lon="0.99726">
        <ele>248.93019104004</ele>
        <time>2020-06-19T15:59:49.269Z</time>
      </trkpt>
      <trkpt lat="45.46186" lon="0.99706">
        <ele>247.94502258301</ele>
        <time>2020-06-19T15:59:57.065Z</time>
      </trkpt>
      <trkpt lat="45.46185" lon="0.99699">
        <ele>247.53753662109</ele>
        <time>2020-06-19T16:00:04.862Z</time>
      </trkpt>
      <trkpt lat="45.46184" lon="0.99692">
        <ele>247.13467407227</ele>
        <time>2020-06-19T16:00:12.659Z</time>
      </trkpt>
      <trkpt lat="45.46183" lon="0.9964">
        <ele>241.64236450195</ele>
        <time>2020-06-19T16:00:20.462Z</time>
      </trkpt>
      <trkpt lat="45.4618" lon="0.99622">
        <ele>240.38258361816</ele>
        <time>2020-06-19T16:00:28.267Z</time>
      </trkpt>
      <trkpt lat="45.46164" lon="0.9958">
        <ele>238.42781066895</ele>
        <time>2020-06-19T16:00:36.078Z</time>
      </trkpt>
      <trkpt lat="45.4615" lon="0.99549">
        <ele>237.07437133789</ele>
        <time>2020-06-19T16:00:43.893Z</time>
      </trkpt>
      <trkpt lat="45.46133" lon="0.99517">
        <ele>235.02270507812</ele>
        <time>2020-06-19T16:00:51.712Z</time>
      </trkpt>
      <trkpt lat="45.46094" lon="0.99464">
        <ele>233.00193786621</ele>
        <time>2020-06-19T16:00:59.540Z</time>
      </trkpt>
      <trkpt lat="45.46052" lon="0.99394">
        <ele>230.97711181641</ele>
        <time>2020-06-19T16:01:07.378Z</time>
      </trkpt>
      <trkpt lat="45.46035" lon="0.99356">
        <ele>228.96603393555</ele>
        <time>2020-06-19T16:01:15.221Z</time>
      </trkpt>
      <trkpt lat="45.46027" lon="0.99329">
        <ele>227.14233398438</ele>
        <time>2020-06-19T16:01:23.068Z</time>
      </trkpt>
      <trkpt lat="45.46012" lon="0.99289">
        <ele>224.05067443848</ele>
        <time>2020-06-19T16:01:30.920Z</time>
      </trkpt>
      <trkpt lat="45.46002" lon="0.99278">
        <ele>223.55876159668</ele>
        <time>2020-06-19T16:01:38.774Z</time>
      </trkpt>
      <trkpt lat="45.45987" lon="0.99268">
        <ele>223.67874145508</ele>
        <time>2020-06-19T16:01:46.630Z</time>
      </trkpt>
      <trkpt lat="45.45972" lon="0.99262">
        <ele>224.32662963867</ele>
        <time>2020-06-19T16:01:54.489Z</time>
      </trkpt>
      <trkpt lat="45.45945" lon="0.99251">
        <ele>224.45686340332</ele>
        <time>2020-06-19T16:02:02.352Z</time>
      </trkpt>
      <trkpt lat="45.45926" lon="0.9923">
        <ele>222.59716796875</ele>
        <time>2020-06-19T16:02:10.219Z</time>
      </trkpt>
      <trkpt lat="45.45907" lon="0.99209">
        <ele>222.07116699219</ele>
        <time>2020-06-19T16:02:18.090Z</time>
      </trkpt>
      <trkpt lat="45.459" lon="0.99201">
        <ele>222.02317810059</ele>
        <time>2020-06-19T16:02:25.963Z</time>
      </trkpt>
      <trkpt lat="45.45887" lon="0.99195">
        <ele>222.35911560059</ele>
        <time>2020-06-19T16:02:33.838Z</time>
      </trkpt>
      <trkpt lat="45.45863" lon="0.99195">
        <ele>222.56600952148</ele>
        <time>2020-06-19T16:02:41.717Z</time>
      </trkpt>
      <trkpt lat="45.45852" lon="0.99193">
        <ele>222.47001647949</ele>
        <time>2020-06-19T16:02:49.597Z</time>
      </trkpt>
      <trkpt lat="45.45845" lon="0.99188">
        <ele>222.27861022949</ele>
        <time>2020-06-19T16:02:57.479Z</time>
      </trkpt>
      <trkpt lat="45.45836" lon="0.99178">
        <ele>221.7501373291</ele>
        <time>2020-06-19T16:03:05.362Z</time>
      </trkpt>
      <trkpt lat="45.45824" lon="0.99142">
        <ele>220.02243041992</ele>
        <time>2020-06-19T16:03:13.250Z</time>
      </trkpt>
      <trkpt lat="45.45812" lon="0.99105">
        <ele>214.74017333984</ele>
        <time>2020-06-19T16:03:21.143Z</time>
      </trkpt>
      <trkpt lat="45.45804" lon="0.99083">
        <ele>211.57270812988</ele>
        <time>2020-06-19T16:03:29.038Z</time>
      </trkpt>
      <trkpt lat="45.45792" lon="0.99059">
        <ele>208.64581298828</ele>
        <time>2020-06-19T16:03:36.937Z</time>
      </trkpt>
      <trkpt lat="45.45787" lon="0.9905">
        <ele>207.9063873291</ele>
        <time>2020-06-19T16:03:44.837Z</time>
      </trkpt>
      <trkpt lat="45.45773" lon="0.99034">
        <ele>206.99453735352</ele>
        <time>2020-06-19T16:03:52.740Z</time>
      </trkpt>
      <trkpt lat="45.4575" lon="0.99015">
        <ele>206.37063598633</ele>
        <time>2020-06-19T16:04:00.647Z</time>
      </trkpt>
      <trkpt lat="45.45724" lon="0.99004">
        <ele>206.92254638672</ele>
        <time>2020-06-19T16:04:08.558Z</time>
      </trkpt>
      <trkpt lat="45.45713" lon="0.99001">
        <ele>207.13890075684</ele>
        <time>2020-06-19T16:04:16.471Z</time>
      </trkpt>
      <trkpt lat="45.45704" lon="0.99">
        <ele>207.01892089844</ele>
        <time>2020-06-19T16:04:24.386Z</time>
      </trkpt>
      <trkpt lat="45.45692" lon="0.98994">
        <ele>206.29904174805</ele>
        <time>2020-06-19T16:04:32.303Z</time>
      </trkpt>
      <trkpt lat="45.45674" lon="0.98982">
        <ele>204.85928344727</ele>
        <time>2020-06-19T16:04:40.223Z</time>
      </trkpt>
      <trkpt lat="45.45638" lon="0.9895">
        <ele>199.23187255859</ele>
        <time>2020-06-19T16:04:48.150Z</time>
      </trkpt>
      <trkpt lat="45.45606" lon="0.98931">
        <ele>199.10134887695</ele>
        <time>2020-06-19T16:04:56.082Z</time>
      </trkpt>
      <trkpt lat="45.45587" lon="0.98911">
        <ele>197.76957702637</ele>
        <time>2020-06-19T16:05:04.018Z</time>
      </trkpt>
      <trkpt lat="45.45578" lon="0.98905">
        <ele>197.80555725098</ele>
        <time>2020-06-19T16:05:11.956Z</time>
      </trkpt>
      <trkpt lat="45.45557" lon="0.98894">
        <ele>198.46545410156</ele>
        <time>2020-06-19T16:05:19.897Z</time>
      </trkpt>
      <trkpt lat="45.45543" lon="0.98888">
        <ele>198.79156494141</ele>
        <time>2020-06-19T16:05:27.841Z</time>
      </trkpt>
      <trkpt lat="45.45531" lon="0.98879">
        <ele>197.99969482422</ele>
        <time>2020-06-19T16:05:35.787Z</time>
      </trkpt>
      <trkpt lat="45.45479" lon="0.98802">
        <ele>187.63288879395</ele>
        <time>2020-06-19T16:05:43.745Z</time>
      </trkpt>
      <trkpt lat="45.45469" lon="0.98788">
        <ele>186.5569152832</ele>
        <time>2020-06-19T16:05:51.705Z</time>
      </trkpt>
      <trkpt lat="45.45465" lon="0.98783">
        <ele>186.21543884277</ele>
        <time>2020-06-19T16:05:59.666Z</time>
      </trkpt>
      <trkpt lat="45.45455" lon="0.98771">
        <ele>185.78350830078</ele>
        <time>2020-06-19T16:06:07.629Z</time>
      </trkpt>
      <trkpt lat="45.4545" lon="0.98768">
        <ele>186.03546142578</ele>
        <time>2020-06-19T16:06:15.593Z</time>
      </trkpt>
      <trkpt lat="45.45443" lon="0.98763">
        <ele>186.26342773438</ele>
        <time>2020-06-19T16:06:23.558Z</time>
      </trkpt>
      <trkpt lat="45.45437" lon="0.98755">
        <ele>185.87950134277</ele>
        <time>2020-06-19T16:06:31.524Z</time>
      </trkpt>
      <trkpt lat="45.45426" lon="0.98724">
        <ele>182.67581176758</ele>
        <time>2020-06-19T16:06:39.494Z</time>
      </trkpt>
      <trkpt lat="45.45423" lon="0.98699">
        <ele>180.7081451416</ele>
        <time>2020-06-19T16:06:47.467Z</time>
      </trkpt>
      <trkpt lat="45.45421" lon="0.98658">
        <ele>179.41946411133</ele>
        <time>2020-06-19T16:06:55.445Z</time>
      </trkpt>
      <trkpt lat="45.4542" lon="0.98629">
        <ele>179.50466918945</ele>
        <time>2020-06-19T16:07:03.426Z</time>
      </trkpt>
      <trkpt lat="45.45424" lon="0.98581">
        <ele>181.44781494141</ele>
        <time>2020-06-19T16:07:11.412Z</time>
      </trkpt>
      <trkpt lat="45.45426" lon="0.98568">
        <ele>183.37948608398</ele>
        <time>2020-06-19T16:07:19.400Z</time>
      </trkpt>
      <trkpt lat="45.45441" lon="0.98553">
        <ele>185.93823242188</ele>
        <time>2020-06-19T16:07:27.391Z</time>
      </trkpt>
      <trkpt lat="45.45458" lon="0.98535">
        <ele>188.47749328613</ele>
        <time>2020-06-19T16:07:35.385Z</time>
      </trkpt>
      <trkpt lat="45.45468" lon="0.98515">
        <ele>191.73304748535</ele>
        <time>2020-06-19T16:07:43.382Z</time>
      </trkpt>
      <trkpt lat="45.45471" lon="0.98502">
        <ele>192.72888183594</ele>
        <time>2020-06-19T16:07:51.381Z</time>
      </trkpt>
      <trkpt lat="45.45477" lon="0.98455">
        <ele>195.06033325195</ele>
        <time>2020-06-19T16:07:59.385Z</time>
      </trkpt>
      <trkpt lat="45.45477" lon="0.98442">
        <ele>195.06033325195</ele>
        <time>2020-06-19T16:08:07.390Z</time>
      </trkpt>
      <trkpt lat="45.45474" lon="0.9844">
        <ele>194.77238464355</ele>
        <time>2020-06-19T16:08:15.396Z</time>
      </trkpt>
      <trkpt lat="45.45471" lon="0.98437">
        <ele>194.48443603516</ele>
        <time>2020-06-19T16:08:23.403Z</time>
      </trkpt>
      <trkpt lat="45.45437" lon="0.98389">
        <ele>187.16798400879</ele>
        <time>2020-06-19T16:08:31.417Z</time>
      </trkpt>
      <trkpt lat="45.45399" lon="0.98334">
        <ele>180.68907165527</ele>
        <time>2020-06-19T16:08:39.440Z</time>
      </trkpt>
      <trkpt lat="45.45378" lon="0.98301">
        <ele>178.14361572266</ele>
        <time>2020-06-19T16:08:47.468Z</time>
      </trkpt>
      <trkpt lat="45.45342" lon="0.9827">
        <ele>178.63987731934</ele>
        <time>2020-06-19T16:08:55.503Z</time>
      </trkpt>
      <trkpt lat="45.45335" lon="0.9827">
        <ele>179.14379882812</ele>
        <time>2020-06-19T16:09:03.539Z</time>
      </trkpt>
      <trkpt lat="45.45318" lon="0.98275">
        <ele>180.66754150391</ele>
        <time>2020-06-19T16:09:11.578Z</time>
      </trkpt>
      <trkpt lat="45.45295" lon="0.98282">
        <ele>182.23225402832</ele>
        <time>2020-06-19T16:09:19.620Z</time>
      </trkpt>
      <trkpt lat="45.45257" lon="0.98302">
        <ele>183.34558105469</ele>
        <time>2020-06-19T16:09:27.669Z</time>
      </trkpt>
      <trkpt lat="45.45245" lon="0.98308">
        <ele>183.99348449707</ele>
        <time>2020-06-19T16:09:35.720Z</time>
      </trkpt>
      <trkpt lat="45.45197" lon="0.98318">
        <ele>183.46179199219</ele>
        <time>2020-06-19T16:09:43.779Z</time>
      </trkpt>
      <trkpt lat="45.45184" lon="0.9832">
        <ele>182.8018951416</ele>
        <time>2020-06-19T16:09:51.840Z</time>
      </trkpt>
      <trkpt lat="45.45169" lon="0.98333">
        <ele>182.6819152832</ele>
        <time>2020-06-19T16:09:59.904Z</time>
      </trkpt>
      <trkpt lat="45.45165" lon="0.98339">
        <ele>182.8018951416</ele>
        <time>2020-06-19T16:10:07.968Z</time>
      </trkpt>
      <trkpt lat="45.45151" lon="0.98343">
        <ele>183.19204711914</ele>
        <time>2020-06-19T16:10:16.035Z</time>
      </trkpt>
      <trkpt lat="45.45124" lon="0.98345">
        <ele>183.22651672363</ele>
        <time>2020-06-19T16:10:24.106Z</time>
      </trkpt>
      <trkpt lat="45.45102" lon="0.98353">
        <ele>183.65843200684</ele>
        <time>2020-06-19T16:10:32.181Z</time>
      </trkpt>
      <trkpt lat="45.45067" lon="0.98368">
        <ele>184.61827087402</ele>
        <time>2020-06-19T16:10:40.262Z</time>
      </trkpt>
      <trkpt lat="45.4504" lon="0.98381">
        <ele>186.08305358887</ele>
        <time>2020-06-19T16:10:48.347Z</time>
      </trkpt>
      <trkpt lat="45.45033" lon="0.98378">
        <ele>186.04248046875</ele>
        <time>2020-06-19T16:10:56.433Z</time>
      </trkpt>
      <trkpt lat="45.44999" lon="0.98362">
        <ele>185.77851867676</ele>
        <time>2020-06-19T16:11:04.525Z</time>
      </trkpt>
      <trkpt lat="45.44966" lon="0.98348">
        <ele>185.74252319336</ele>
        <time>2020-06-19T16:11:12.623Z</time>
      </trkpt>
      <trkpt lat="45.44906" lon="0.98332">
        <ele>184.91107177734</ele>
        <time>2020-06-19T16:11:20.730Z</time>
      </trkpt>
      <trkpt lat="45.44825" lon="0.98331">
        <ele>188.07446289062</ele>
        <time>2020-06-19T16:11:28.850Z</time>
      </trkpt>
      <trkpt lat="45.4482" lon="0.98331">
        <ele>188.0523223877</ele>
        <time>2020-06-19T16:11:36.971Z</time>
      </trkpt>
      <trkpt lat="45.44797" lon="0.98337">
        <ele>187.95782470703</ele>
        <time>2020-06-19T16:11:45.096Z</time>
      </trkpt>
      <trkpt lat="45.44784" lon="0.98344">
        <ele>187.71786499023</ele>
        <time>2020-06-19T16:11:53.223Z</time>
      </trkpt>
      <trkpt lat="45.44771" lon="0.98356">
        <ele>188.19778442383</ele>
        <time>2020-06-19T16:12:01.353Z</time>
      </trkpt>
      <trkpt lat="45.44764" lon="0.98364">
        <ele>187.83894348145</ele>
        <time>2020-06-19T16:12:09.484Z</time>
      </trkpt>
      <trkpt lat="45.44756" lon="0.98379">
        <ele>186.74713134766</ele>
        <time>2020-06-19T16:12:17.617Z</time>
      </trkpt>
      <trkpt lat="45.44742" lon="0.98413">
        <ele>184.33819580078</ele>
        <time>2020-06-19T16:12:25.755Z</time>
      </trkpt>
      <trkpt lat="45.44728" lon="0.98487">
        <ele>182.63047790527</ele>
        <time>2020-06-19T16:12:33.901Z</time>
      </trkpt>
      <trkpt lat="45.44713" lon="0.98568">
        <ele>181.86427307129</ele>
        <time>2020-06-19T16:12:42.057Z</time>
      </trkpt>
      <trkpt lat="45.44709" lon="0.98617">
        <ele>182.51217651367</ele>
        <time>2020-06-19T16:12:50.218Z</time>
      </trkpt>
      <trkpt lat="45.44711" lon="0.98687">
        <ele>187.07258605957</ele>
        <time>2020-06-19T16:12:58.387Z</time>
      </trkpt>
      <trkpt lat="45.44711" lon="0.9872">
        <ele>189.84223937988</ele>
        <time>2020-06-19T16:13:06.560Z</time>
      </trkpt>
      <trkpt lat="45.44698" lon="0.98774">
        <ele>190.69186401367</ele>
        <time>2020-06-19T16:13:14.739Z</time>
      </trkpt>
      <trkpt lat="45.4468" lon="0.98867">
        <ele>192.77568054199</ele>
        <time>2020-06-19T16:13:22.929Z</time>
      </trkpt>
      <trkpt lat="45.44669" lon="0.98917">
        <ele>194.16134643555</ele>
        <time>2020-06-19T16:13:31.125Z</time>
      </trkpt>
      <trkpt lat="45.44659" lon="0.98947">
        <ele>195.0848236084</ele>
        <time>2020-06-19T16:13:39.325Z</time>
      </trkpt>
      <trkpt lat="45.44652" lon="0.98961">
        <ele>195.2527923584</ele>
        <time>2020-06-19T16:13:47.527Z</time>
      </trkpt>
      <trkpt lat="45.44632" lon="0.98992">
        <ele>195.85386657715</ele>
        <time>2020-06-19T16:13:55.733Z</time>
      </trkpt>
      <trkpt lat="45.44618" lon="0.99006">
        <ele>197.36561584473</ele>
        <time>2020-06-19T16:14:03.942Z</time>
      </trkpt>
      <trkpt lat="45.44606" lon="0.99012">
        <ele>197.65356445312</ele>
        <time>2020-06-19T16:14:12.153Z</time>
      </trkpt>
      <trkpt lat="45.44591" lon="0.99014">
        <ele>197.08966064453</ele>
        <time>2020-06-19T16:14:20.367Z</time>
      </trkpt>
      <trkpt lat="45.44576" lon="0.99012">
        <ele>197.33615112305</ele>
        <time>2020-06-19T16:14:28.583Z</time>
      </trkpt>
      <trkpt lat="45.44548" lon="0.99004">
        <ele>197.2057800293</ele>
        <time>2020-06-19T16:14:36.804Z</time>
      </trkpt>
      <trkpt lat="45.44507" lon="0.98982">
        <ele>194.27825927734</ele>
        <time>2020-06-19T16:14:45.032Z</time>
      </trkpt>
      <trkpt lat="45.4445" lon="0.98952">
        <ele>191.1283416748</ele>
        <time>2020-06-19T16:14:53.269Z</time>
      </trkpt>
      <trkpt lat="45.44431" lon="0.98943">
        <ele>190.69454956055</ele>
        <time>2020-06-19T16:15:01.509Z</time>
      </trkpt>
      <trkpt lat="45.44411" lon="0.98928">
        <ele>188.71487426758</ele>
        <time>2020-06-19T16:15:09.753Z</time>
      </trkpt>
      <trkpt lat="45.44391" lon="0.9891">
        <ele>185.76336669922</ele>
        <time>2020-06-19T16:15:18.001Z</time>
      </trkpt>
      <trkpt lat="45.44357" lon="0.98869">
        <ele>180.03985595703</ele>
        <time>2020-06-19T16:15:26.256Z</time>
      </trkpt>
      <trkpt lat="45.44331" lon="0.98843">
        <ele>178.48011779785</ele>
        <time>2020-06-19T16:15:34.516Z</time>
      </trkpt>
      <trkpt lat="45.44318" lon="0.98839">
        <ele>179.42796325684</ele>
        <time>2020-06-19T16:15:42.778Z</time>
      </trkpt>
      <trkpt lat="45.44283" lon="0.98843">
        <ele>183.65664672852</ele>
        <time>2020-06-19T16:15:51.046Z</time>
      </trkpt>
      <trkpt lat="45.44244" lon="0.98849">
        <ele>187.14805603027</ele>
        <time>2020-06-19T16:15:59.320Z</time>
      </trkpt>
      <trkpt lat="45.44232" lon="0.98848">
        <ele>187.67596435547</ele>
        <time>2020-06-19T16:16:07.596Z</time>
      </trkpt>
      <trkpt lat="45.44222" lon="0.98842">
        <ele>187.12406921387</ele>
        <time>2020-06-19T16:16:15.874Z</time>
      </trkpt>
      <trkpt lat="45.44212" lon="0.98832">
        <ele>186.11877441406</ele>
        <time>2020-06-19T16:16:24.154Z</time>
      </trkpt>
      <trkpt lat="45.44204" lon="0.98819">
        <ele>184.77500915527</ele>
        <time>2020-06-19T16:16:32.436Z</time>
      </trkpt>
      <trkpt lat="45.4419" lon="0.98767">
        <ele>181.99301147461</ele>
        <time>2020-06-19T16:16:40.724Z</time>
      </trkpt>
      <trkpt lat="45.4418" lon="0.98718">
        <ele>179.1279296875</ele>
        <time>2020-06-19T16:16:49.018Z</time>
      </trkpt>
      <trkpt lat="45.44162" lon="0.98651">
        <ele>177.0326385498</ele>
        <time>2020-06-19T16:16:57.320Z</time>
      </trkpt>
      <trkpt lat="45.4415" lon="0.98623">
        <ele>176.10705566406</ele>
        <time>2020-06-19T16:17:05.625Z</time>
      </trkpt>
      <trkpt lat="45.44127" lon="0.98587">
        <ele>175.22134399414</ele>
        <time>2020-06-19T16:17:13.936Z</time>
      </trkpt>
      <trkpt lat="45.44118" lon="0.98564">
        <ele>174.57345581055</ele>
        <time>2020-06-19T16:17:22.250Z</time>
      </trkpt>
      <trkpt lat="45.4411" lon="0.98542">
        <ele>174.21597290039</ele>
        <time>2020-06-19T16:17:30.567Z</time>
      </trkpt>
      <trkpt lat="45.44079" lon="0.98468">
        <ele>176.31788635254</ele>
        <time>2020-06-19T16:17:38.893Z</time>
      </trkpt>
      <trkpt lat="45.44064" lon="0.98434">
        <ele>174.62615966797</ele>
        <time>2020-06-19T16:17:47.224Z</time>
      </trkpt>
      <trkpt lat="45.44056" lon="0.98422">
        <ele>174.38619995117</ele>
        <time>2020-06-19T16:17:55.557Z</time>
      </trkpt>
      <trkpt lat="45.44036" lon="0.98399">
        <ele>174.8553314209</ele>
        <time>2020-06-19T16:18:03.894Z</time>
      </trkpt>
      <trkpt lat="45.43999" lon="0.98359">
        <ele>176.30709838867</ele>
        <time>2020-06-19T16:18:12.238Z</time>
      </trkpt>
      <trkpt lat="45.43969" lon="0.98325">
        <ele>177.2896270752</ele>
        <time>2020-06-19T16:18:20.589Z</time>
      </trkpt>
      <trkpt lat="45.43964" lon="0.98319">
        <ele>177.46733093262</ele>
        <time>2020-06-19T16:18:28.941Z</time>
      </trkpt>
      <trkpt lat="45.43896" lon="0.98245">
        <ele>177.87236022949</ele>
        <time>2020-06-19T16:18:37.306Z</time>
      </trkpt>
      <trkpt lat="45.43842" lon="0.98171">
        <ele>180.23245239258</ele>
        <time>2020-06-19T16:18:45.683Z</time>
      </trkpt>
      <trkpt lat="45.43791" lon="0.98105">
        <ele>180.77700805664</ele>
        <time>2020-06-19T16:18:54.071Z</time>
      </trkpt>
      <trkpt lat="45.43764" lon="0.98074">
        <ele>178.62936401367</ele>
        <time>2020-06-19T16:19:02.465Z</time>
      </trkpt>
      <trkpt lat="45.43756" lon="0.98068">
        <ele>178.41340637207</ele>
        <time>2020-06-19T16:19:10.860Z</time>
      </trkpt>
      <trkpt lat="45.43742" lon="0.98062">
        <ele>178.62936401367</ele>
        <time>2020-06-19T16:19:19.258Z</time>
      </trkpt>
      <trkpt lat="45.4369" lon="0.98059">
        <ele>179.8098449707</ele>
        <time>2020-06-19T16:19:27.664Z</time>
      </trkpt>
      <trkpt lat="45.43635" lon="0.98058">
        <ele>179.03065490723</ele>
        <time>2020-06-19T16:19:36.079Z</time>
      </trkpt>
      <trkpt lat="45.43581" lon="0.98054">
        <ele>178.66247558594</ele>
        <time>2020-06-19T16:19:44.502Z</time>
      </trkpt>
      <trkpt lat="45.43548" lon="0.98052">
        <ele>178.50611877441</ele>
        <time>2020-06-19T16:19:52.931Z</time>
      </trkpt>
      <trkpt lat="45.4351" lon="0.98049">
        <ele>179.78802490234</ele>
        <time>2020-06-19T16:20:01.366Z</time>
      </trkpt>
      <trkpt lat="45.43492" lon="0.98044">
        <ele>180.05198669434</ele>
        <time>2020-06-19T16:20:09.804Z</time>
      </trkpt>
      <trkpt lat="45.43478" lon="0.98035">
        <ele>179.64405822754</ele>
        <time>2020-06-19T16:20:18.244Z</time>
      </trkpt>
      <trkpt lat="45.43461" lon="0.98019">
        <ele>178.92822265625</ele>
        <time>2020-06-19T16:20:26.687Z</time>
      </trkpt>
      <trkpt lat="45.43417" lon="0.97974">
        <ele>179.3200378418</ele>
        <time>2020-06-19T16:20:35.139Z</time>
      </trkpt>
      <trkpt lat="45.43395" lon="0.97952">
        <ele>179.05609130859</ele>
        <time>2020-06-19T16:20:43.595Z</time>
      </trkpt>
      <trkpt lat="45.43377" lon="0.97925">
        <ele>178.93603515625</ele>
        <time>2020-06-19T16:20:52.056Z</time>
      </trkpt>
      <trkpt lat="45.4336" lon="0.97879">
        <ele>178.74827575684</ele>
        <time>2020-06-19T16:21:00.523Z</time>
      </trkpt>
      <trkpt lat="45.43316" lon="0.97767">
        <ele>180.47035217285</ele>
        <time>2020-06-19T16:21:09.004Z</time>
      </trkpt>
      <trkpt lat="45.43306" lon="0.97736">
        <ele>179.37852478027</ele>
        <time>2020-06-19T16:21:17.489Z</time>
      </trkpt>
      <trkpt lat="45.43303" lon="0.97719">
        <ele>178.85429382324</ele>
        <time>2020-06-19T16:21:25.976Z</time>
      </trkpt>
      <trkpt lat="45.43301" lon="0.97694">
        <ele>176.41870117188</ele>
        <time>2020-06-19T16:21:34.466Z</time>
      </trkpt>
      <trkpt lat="45.43297" lon="0.97675">
        <ele>175.03355407715</ele>
        <time>2020-06-19T16:21:42.958Z</time>
      </trkpt>
      <trkpt lat="45.43285" lon="0.97655">
        <ele>175.32150268555</ele>
        <time>2020-06-19T16:21:51.453Z</time>
      </trkpt>
      <trkpt lat="45.43274" lon="0.97639">
        <ele>175.7826385498</ele>
        <time>2020-06-19T16:21:59.950Z</time>
      </trkpt>
      <trkpt lat="45.43244" lon="0.97598">
        <ele>176.49052429199</ele>
        <time>2020-06-19T16:22:08.454Z</time>
      </trkpt>
      <trkpt lat="45.4318" lon="0.97508">
        <ele>179.0368347168</ele>
        <time>2020-06-19T16:22:16.972Z</time>
      </trkpt>
      <trkpt lat="45.43168" lon="0.97489">
        <ele>179.51675415039</ele>
        <time>2020-06-19T16:22:25.493Z</time>
      </trkpt>
      <trkpt lat="45.43148" lon="0.97446">
        <ele>178.88580322266</ele>
        <time>2020-06-19T16:22:34.020Z</time>
      </trkpt>
      <trkpt lat="45.43137" lon="0.97401">
        <ele>176.1382598877</ele>
        <time>2020-06-19T16:22:42.552Z</time>
      </trkpt>
      <trkpt lat="45.43136" lon="0.97372">
        <ele>175.0765838623</ele>
        <time>2020-06-19T16:22:51.088Z</time>
      </trkpt>
      <trkpt lat="45.43136" lon="0.97344">
        <ele>173.73281860352</ele>
        <time>2020-06-19T16:22:59.627Z</time>
      </trkpt>
      <trkpt lat="45.43139" lon="0.97321">
        <ele>172.62899780273</ele>
        <time>2020-06-19T16:23:08.169Z</time>
      </trkpt>
      <trkpt lat="45.43146" lon="0.97271">
        <ele>173.76428222656</ele>
        <time>2020-06-19T16:23:16.716Z</time>
      </trkpt>
      <trkpt lat="45.43159" lon="0.97223">
        <ele>174.6986541748</ele>
        <time>2020-06-19T16:23:25.269Z</time>
      </trkpt>
      <trkpt lat="45.43168" lon="0.9717">
        <ele>178.08360290527</ele>
        <time>2020-06-19T16:23:33.828Z</time>
      </trkpt>
      <trkpt lat="45.43176" lon="0.97132">
        <ele>178.63551330566</ele>
        <time>2020-06-19T16:23:42.392Z</time>
      </trkpt>
      <trkpt lat="45.4318" lon="0.97108">
        <ele>178.97146606445</ele>
        <time>2020-06-19T16:23:50.958Z</time>
      </trkpt>
      <trkpt lat="45.43177" lon="0.97077">
        <ele>179.61480712891</ele>
        <time>2020-06-19T16:23:59.528Z</time>
      </trkpt>
      <trkpt lat="45.43172" lon="0.97057">
        <ele>179.86228942871</ele>
        <time>2020-06-19T16:24:08.100Z</time>
      </trkpt>
      <trkpt lat="45.4316" lon="0.97039">
        <ele>177.63066101074</ele>
        <time>2020-06-19T16:24:16.675Z</time>
      </trkpt>
      <trkpt lat="45.4314" lon="0.97027">
        <ele>175.85496520996</ele>
        <time>2020-06-19T16:24:25.254Z</time>
      </trkpt>
      <trkpt lat="45.43138" lon="0.97026">
        <ele>175.73504638672</ele>
        <time>2020-06-19T16:24:33.833Z</time>
      </trkpt>
      <trkpt lat="45.43132" lon="0.97024">
        <ele>175.35012817383</ele>
        <time>2020-06-19T16:24:42.413Z</time>
      </trkpt>
      <trkpt lat="45.43069" lon="0.97014">
        <ele>175.78205871582</ele>
        <time>2020-06-19T16:24:51.003Z</time>
      </trkpt>
      <trkpt lat="45.43051" lon="0.97012">
        <ele>175.99801635742</ele>
        <time>2020-06-19T16:24:59.596Z</time>
      </trkpt>
      <trkpt lat="45.43045" lon="0.96998">
        <ele>174.44386291504</ele>
        <time>2020-06-19T16:25:08.191Z</time>
      </trkpt>
      <trkpt lat="45.43031" lon="0.96957">
        <ele>171.57086181641</ele>
        <time>2020-06-19T16:25:16.791Z</time>
      </trkpt>
      <trkpt lat="45.42996" lon="0.96854">
        <ele>172.99615478516</ele>
        <time>2020-06-19T16:25:25.404Z</time>
      </trkpt>
      <trkpt lat="45.42994" lon="0.96842">
        <ele>174.53190612793</ele>
        <time>2020-06-19T16:25:34.018Z</time>
      </trkpt>
      <trkpt lat="45.42993" lon="0.96818">
        <ele>177.45941162109</ele>
        <time>2020-06-19T16:25:42.635Z</time>
      </trkpt>
      <trkpt lat="45.42969" lon="0.96815">
        <ele>178.97116088867</ele>
        <time>2020-06-19T16:25:51.256Z</time>
      </trkpt>
      <trkpt lat="45.42954" lon="0.96815">
        <ele>179.41421508789</ele>
        <time>2020-06-19T16:25:59.879Z</time>
      </trkpt>
      <trkpt lat="45.42946" lon="0.96818">
        <ele>179.24624633789</ele>
        <time>2020-06-19T16:26:08.504Z</time>
      </trkpt>
      <trkpt lat="45.42885" lon="0.96868">
        <ele>175.39942932129</ele>
        <time>2020-06-19T16:26:17.140Z</time>
      </trkpt>
      <trkpt lat="45.42876" lon="0.96875">
        <ele>174.89324951172</ele>
        <time>2020-06-19T16:26:25.777Z</time>
      </trkpt>
      <trkpt lat="45.42864" lon="0.9688">
        <ele>174.13510131836</ele>
        <time>2020-06-19T16:26:34.416Z</time>
      </trkpt>
      <trkpt lat="45.42848" lon="0.96882">
        <ele>173.00729370117</ele>
        <time>2020-06-19T16:26:43.058Z</time>
      </trkpt>
      <trkpt lat="45.42833" lon="0.9688">
        <ele>172.64735412598</ele>
        <time>2020-06-19T16:26:51.702Z</time>
      </trkpt>
      <trkpt lat="45.42814" lon="0.96873">
        <ele>172.99530029297</ele>
        <time>2020-06-19T16:27:00.350Z</time>
      </trkpt>
      <trkpt lat="45.42795" lon="0.96863">
        <ele>173.37609863281</ele>
        <time>2020-06-19T16:27:09.001Z</time>
      </trkpt>
      <trkpt lat="45.42747" lon="0.9683">
        <ele>170.67655944824</ele>
        <time>2020-06-19T16:27:17.660Z</time>
      </trkpt>
      <trkpt lat="45.42716" lon="0.96806">
        <ele>169.65570068359</ele>
        <time>2020-06-19T16:27:26.325Z</time>
      </trkpt>
      <trkpt lat="45.42682" lon="0.96784">
        <ele>175.39147949219</ele>
        <time>2020-06-19T16:27:34.996Z</time>
      </trkpt>
      <trkpt lat="45.42674" lon="0.9678">
        <ele>176.35131835938</ele>
        <time>2020-06-19T16:27:43.668Z</time>
      </trkpt>
      <trkpt lat="45.42664" lon="0.96779">
        <ele>176.20735168457</ele>
        <time>2020-06-19T16:27:52.342Z</time>
      </trkpt>
      <trkpt lat="45.42653" lon="0.96781">
        <ele>175.00755310059</ele>
        <time>2020-06-19T16:28:01.018Z</time>
      </trkpt>
      <trkpt lat="45.42648" lon="0.96783">
        <ele>174.095703125</ele>
        <time>2020-06-19T16:28:09.695Z</time>
      </trkpt>
      <trkpt lat="45.42637" lon="0.96793">
        <ele>170.20834350586</ele>
        <time>2020-06-19T16:28:18.374Z</time>
      </trkpt>
      <trkpt lat="45.4263" lon="0.96799">
        <ele>168.62968444824</ele>
        <time>2020-06-19T16:28:27.054Z</time>
      </trkpt>
      <trkpt lat="45.42618" lon="0.96812">
        <ele>170.19276428223</ele>
        <time>2020-06-19T16:28:35.736Z</time>
      </trkpt>
      <trkpt lat="45.42608" lon="0.96828">
        <ele>174.17610168457</ele>
        <time>2020-06-19T16:28:44.421Z</time>
      </trkpt>
      <trkpt lat="45.42597" lon="0.9686">
        <ele>178.13739013672</ele>
        <time>2020-06-19T16:28:53.110Z</time>
      </trkpt>
      <trkpt lat="45.42586" lon="0.96908">
        <ele>176.16600036621</ele>
        <time>2020-06-19T16:29:01.804Z</time>
      </trkpt>
      <trkpt lat="45.42577" lon="0.96954">
        <ele>176.96903991699</ele>
        <time>2020-06-19T16:29:10.504Z</time>
      </trkpt>
      <trkpt lat="45.42571" lon="0.97013">
        <ele>176.2887878418</ele>
        <time>2020-06-19T16:29:19.211Z</time>
      </trkpt>
      <trkpt lat="45.4257" lon="0.97047">
        <ele>174.18905639648</ele>
        <time>2020-06-19T16:29:27.921Z</time>
      </trkpt>
      <trkpt lat="45.4257" lon="0.97057">
        <ele>173.57723999023</ele>
        <time>2020-06-19T16:29:36.633Z</time>
      </trkpt>
      <trkpt lat="45.42577" lon="0.97106">
        <ele>173.01502990723</ele>
        <time>2020-06-19T16:29:45.350Z</time>
      </trkpt>
      <trkpt lat="45.42578" lon="0.97181">
        <ele>173.01979064941</ele>
        <time>2020-06-19T16:29:54.076Z</time>
      </trkpt>
      <trkpt lat="45.42573" lon="0.97238">
        <ele>171.67810058594</ele>
        <time>2020-06-19T16:30:02.808Z</time>
      </trkpt>
      <trkpt lat="45.42565" lon="0.97255">
        <ele>170.79598999023</ele>
        <time>2020-06-19T16:30:11.542Z</time>
      </trkpt>
      <trkpt lat="45.42559" lon="0.97279">
        <ele>169.28424072266</ele>
        <time>2020-06-19T16:30:20.279Z</time>
      </trkpt>
      <trkpt lat="45.42536" lon="0.97402">
        <ele>171.4031829834</ele>
        <time>2020-06-19T16:30:29.031Z</time>
      </trkpt>
      <trkpt lat="45.42532" lon="0.97433">
        <ele>172.13505554199</ele>
        <time>2020-06-19T16:30:37.786Z</time>
      </trkpt>
      <trkpt lat="45.42525" lon="0.97461">
        <ele>172.99565124512</ele>
        <time>2020-06-19T16:30:46.545Z</time>
      </trkpt>
      <trkpt lat="45.42516" lon="0.97488">
        <ele>174.33378601074</ele>
        <time>2020-06-19T16:30:55.307Z</time>
      </trkpt>
      <trkpt lat="45.42501" lon="0.97516">
        <ele>177.54083251953</ele>
        <time>2020-06-19T16:31:04.073Z</time>
      </trkpt>
      <trkpt lat="45.42473" lon="0.97559">
        <ele>171.15327453613</ele>
        <time>2020-06-19T16:31:12.845Z</time>
      </trkpt>
      <trkpt lat="45.42456" lon="0.97578">
        <ele>170.93049621582</ele>
        <time>2020-06-19T16:31:21.621Z</time>
      </trkpt>
      <trkpt lat="45.42454" lon="0.9758">
        <ele>171.06866455078</ele>
        <time>2020-06-19T16:31:30.397Z</time>
      </trkpt>
      <trkpt lat="45.42448" lon="0.97586">
        <ele>171.41041564941</ele>
        <time>2020-06-19T16:31:39.174Z</time>
      </trkpt>
      <trkpt lat="45.42438" lon="0.97592">
        <ele>172.2502746582</ele>
        <time>2020-06-19T16:31:47.953Z</time>
      </trkpt>
      <trkpt lat="45.4241" lon="0.97588">
        <ele>175.5892791748</ele>
        <time>2020-06-19T16:31:56.737Z</time>
      </trkpt>
      <trkpt lat="45.42399" lon="0.97586">
        <ele>175.94921875</ele>
        <time>2020-06-19T16:32:05.522Z</time>
      </trkpt>
      <trkpt lat="45.42387" lon="0.97583">
        <ele>176.4891204834</ele>
        <time>2020-06-19T16:32:14.309Z</time>
      </trkpt>
      <trkpt lat="45.42371" lon="0.97571">
        <ele>177.71603393555</ele>
        <time>2020-06-19T16:32:23.099Z</time>
      </trkpt>
      <trkpt lat="45.42343" lon="0.97555">
        <ele>178.13829040527</ele>
        <time>2020-06-19T16:32:31.894Z</time>
      </trkpt>
      <trkpt lat="45.42311" lon="0.97529">
        <ele>179.19410705566</ele>
        <time>2020-06-19T16:32:40.695Z</time>
      </trkpt>
      <trkpt lat="45.42303" lon="0.97522">
        <ele>179.53005981445</ele>
        <time>2020-06-19T16:32:49.498Z</time>
      </trkpt>
      <trkpt lat="45.42284" lon="0.97511">
        <ele>178.27854919434</ele>
        <time>2020-06-19T16:32:58.304Z</time>
      </trkpt>
      <trkpt lat="45.42254" lon="0.97494">
        <ele>175.68698120117</ele>
        <time>2020-06-19T16:33:07.115Z</time>
      </trkpt>
      <trkpt lat="45.42234" lon="0.9748">
        <ele>174.34320068359</ele>
        <time>2020-06-19T16:33:15.930Z</time>
      </trkpt>
      <trkpt lat="45.42202" lon="0.97464">
        <ele>171.88148498535</ele>
        <time>2020-06-19T16:33:24.750Z</time>
      </trkpt>
      <trkpt lat="45.42179" lon="0.97457">
        <ele>169.93780517578</ele>
        <time>2020-06-19T16:33:33.574Z</time>
      </trkpt>
      <trkpt lat="45.42147" lon="0.9745">
        <ele>166.80632019043</ele>
        <time>2020-06-19T16:33:42.403Z</time>
      </trkpt>
      <trkpt lat="45.42136" lon="0.97443">
        <ele>166.44638061523</ele>
        <time>2020-06-19T16:33:51.234Z</time>
      </trkpt>
      <trkpt lat="45.42133" lon="0.97452">
        <ele>164.64668273926</ele>
        <time>2020-06-19T16:34:00.066Z</time>
      </trkpt>
      <trkpt lat="45.42129" lon="0.97461">
        <ele>162.67823791504</ele>
        <time>2020-06-19T16:34:08.899Z</time>
      </trkpt>
      <trkpt lat="45.42105" lon="0.97514">
        <ele>159.40484619141</ele>
        <time>2020-06-19T16:34:17.739Z</time>
      </trkpt>
      <trkpt lat="45.42089" lon="0.97536">
        <ele>160.52101135254</ele>
        <time>2020-06-19T16:34:26.583Z</time>
      </trkpt>
      <trkpt lat="45.42087" lon="0.97537">
        <ele>160.73698425293</ele>
        <time>2020-06-19T16:34:35.427Z</time>
      </trkpt>
      <trkpt lat="45.42071" lon="0.97529">
        <ele>161.31288146973</ele>
        <time>2020-06-19T16:34:44.274Z</time>
      </trkpt>
      <trkpt lat="45.42034" lon="0.97501">
        <ele>161.43106079102</ele>
        <time>2020-06-19T16:34:53.128Z</time>
      </trkpt>
      <trkpt lat="45.42026" lon="0.975">
        <ele>161.64701843262</ele>
        <time>2020-06-19T16:35:01.983Z</time>
      </trkpt>
      <trkpt lat="45.42022" lon="0.97503">
        <ele>162.00695800781</ele>
        <time>2020-06-19T16:35:10.839Z</time>
      </trkpt>
      <trkpt lat="45.42018" lon="0.97509">
        <ele>162.58285522461</ele>
        <time>2020-06-19T16:35:19.696Z</time>
      </trkpt>
      <trkpt lat="45.42016" lon="0.97517">
        <ele>163.23075866699</ele>
        <time>2020-06-19T16:35:28.554Z</time>
      </trkpt>
      <trkpt lat="45.42001" lon="0.97518">
        <ele>164.49618530273</ele>
        <time>2020-06-19T16:35:37.414Z</time>
      </trkpt>
      <trkpt lat="45.41989" lon="0.97514">
        <ele>165.31205749512</ele>
        <time>2020-06-19T16:35:46.276Z</time>
      </trkpt>
      <trkpt lat="45.41982" lon="0.9751">
        <ele>165.52801513672</ele>
        <time>2020-06-19T16:35:55.139Z</time>
      </trkpt>
      <trkpt lat="45.41947" lon="0.97482">
        <ele>165.1396484375</ele>
        <time>2020-06-19T16:36:04.009Z</time>
      </trkpt>
      <trkpt lat="45.41922" lon="0.97458">
        <ele>164.4938659668</ele>
        <time>2020-06-19T16:36:12.883Z</time>
      </trkpt>
      <trkpt lat="45.41911" lon="0.9745">
        <ele>164.63844299316</ele>
        <time>2020-06-19T16:36:21.759Z</time>
      </trkpt>
      <trkpt lat="45.41904" lon="0.97445">
        <ele>164.72183227539</ele>
        <time>2020-06-19T16:36:30.637Z</time>
      </trkpt>
      <trkpt lat="45.41858" lon="0.97416">
        <ele>166.43807983398</ele>
        <time>2020-06-19T16:36:39.523Z</time>
      </trkpt>
      <trkpt lat="45.41853" lon="0.97414">
        <ele>166.83401489258</ele>
        <time>2020-06-19T16:36:48.410Z</time>
      </trkpt>
      <trkpt lat="45.41841" lon="0.97418">
        <ele>168.94566345215</ele>
        <time>2020-06-19T16:36:57.298Z</time>
      </trkpt>
      <trkpt lat="45.41822" lon="0.97384">
        <ele>167.13975524902</ele>
        <time>2020-06-19T16:37:06.191Z</time>
      </trkpt>
      <trkpt lat="45.41798" lon="0.97343">
        <ele>165.89616394043</ele>
        <time>2020-06-19T16:37:15.090Z</time>
      </trkpt>
      <trkpt lat="45.41775" lon="0.97317">
        <ele>166.67602539062</ele>
        <time>2020-06-19T16:37:23.994Z</time>
      </trkpt>
      <trkpt lat="45.41763" lon="0.97308">
        <ele>167.57588195801</ele>
        <time>2020-06-19T16:37:32.900Z</time>
      </trkpt>
      <trkpt lat="45.4173" lon="0.97287">
        <ele>170.45539855957</ele>
        <time>2020-06-19T16:37:41.812Z</time>
      </trkpt>
      <trkpt lat="45.41694" lon="0.97265">
        <ele>170.36825561523</ele>
        <time>2020-06-19T16:37:50.730Z</time>
      </trkpt>
      <trkpt lat="45.41655" lon="0.97245">
        <ele>168.20860290527</ele>
        <time>2020-06-19T16:37:59.655Z</time>
      </trkpt>
      <trkpt lat="45.41629" lon="0.97235">
        <ele>168.14979553223</ele>
        <time>2020-06-19T16:38:08.584Z</time>
      </trkpt>
      <trkpt lat="45.41594" lon="0.97227">
        <ele>168.29376220703</ele>
        <time>2020-06-19T16:38:17.519Z</time>
      </trkpt>
      <trkpt lat="45.41577" lon="0.97225">
        <ele>168.72569274902</ele>
        <time>2020-06-19T16:38:26.457Z</time>
      </trkpt>
      <trkpt lat="45.4155" lon="0.97227">
        <ele>170.3532409668</ele>
        <time>2020-06-19T16:38:35.399Z</time>
      </trkpt>
      <trkpt lat="45.41521" lon="0.97239">
        <ele>170.75476074219</ele>
        <time>2020-06-19T16:38:44.346Z</time>
      </trkpt>
      <trkpt lat="45.41491" lon="0.97265">
        <ele>172.52783203125</ele>
        <time>2020-06-19T16:38:53.298Z</time>
      </trkpt>
      <trkpt lat="45.41457" lon="0.97301">
        <ele>174.13781738281</ele>
        <time>2020-06-19T16:39:02.257Z</time>
      </trkpt>
      <trkpt lat="45.41421" lon="0.97343">
        <ele>169.88745117188</ele>
        <time>2020-06-19T16:39:11.224Z</time>
      </trkpt>
      <trkpt lat="45.41405" lon="0.97369">
        <ele>169.37046813965</ele>
        <time>2020-06-19T16:39:20.195Z</time>
      </trkpt>
      <trkpt lat="45.414" lon="0.97376">
        <ele>169.25263977051</ele>
        <time>2020-06-19T16:39:29.167Z</time>
      </trkpt>
      <trkpt lat="45.41388" lon="0.97405">
        <ele>169.14971923828</ele>
        <time>2020-06-19T16:39:38.143Z</time>
      </trkpt>
      <trkpt lat="45.41382" lon="0.97428">
        <ele>169.32968139648</ele>
        <time>2020-06-19T16:39:47.121Z</time>
      </trkpt>
      <trkpt lat="45.41369" lon="0.97444">
        <ele>168.81230163574</ele>
        <time>2020-06-19T16:39:56.102Z</time>
      </trkpt>
      <trkpt lat="45.41362" lon="0.9745">
        <ele>168.44036865234</ele>
        <time>2020-06-19T16:40:05.084Z</time>
      </trkpt>
      <trkpt lat="45.41345" lon="0.9745">
        <ele>169.08721923828</ele>
        <time>2020-06-19T16:40:14.069Z</time>
      </trkpt>
      <trkpt lat="45.41311" lon="0.97449">
        <ele>171.73876953125</ele>
        <time>2020-06-19T16:40:23.059Z</time>
      </trkpt>
      <trkpt lat="45.41292" lon="0.97456">
        <ele>174.36682128906</ele>
        <time>2020-06-19T16:40:32.053Z</time>
      </trkpt>
      <trkpt lat="45.41262" lon="0.97471">
        <ele>175.37434387207</ele>
        <time>2020-06-19T16:40:41.052Z</time>
      </trkpt>
      <trkpt lat="45.41236" lon="0.97485">
        <ele>176.11892700195</ele>
        <time>2020-06-19T16:40:50.055Z</time>
      </trkpt>
      <trkpt lat="45.41209" lon="0.97498">
        <ele>176.12716674805</ele>
        <time>2020-06-19T16:40:59.063Z</time>
      </trkpt>
      <trkpt lat="45.41199" lon="0.97498">
        <ele>175.28730773926</ele>
        <time>2020-06-19T16:41:08.072Z</time>
      </trkpt>
      <trkpt lat="45.41161" lon="0.97486">
        <ele>170.22415161133</ele>
        <time>2020-06-19T16:41:17.088Z</time>
      </trkpt>
      <trkpt lat="45.41139" lon="0.97478">
        <ele>167.12867736816</ele>
        <time>2020-06-19T16:41:26.107Z</time>
      </trkpt>
      <trkpt lat="45.4113" lon="0.97477">
        <ele>166.52319335938</ele>
        <time>2020-06-19T16:41:35.128Z</time>
      </trkpt>
      <trkpt lat="45.41117" lon="0.97477">
        <ele>167.92695617676</ele>
        <time>2020-06-19T16:41:44.151Z</time>
      </trkpt>
      <trkpt lat="45.41099" lon="0.97482">
        <ele>170.53053283691</ele>
        <time>2020-06-19T16:41:53.177Z</time>
      </trkpt>
      <trkpt lat="45.41063" lon="0.97482">
        <ele>174.41787719727</ele>
        <time>2020-06-19T16:42:02.208Z</time>
      </trkpt>
      <trkpt lat="45.40992" lon="0.97472">
        <ele>177.27922058105</ele>
        <time>2020-06-19T16:42:11.251Z</time>
      </trkpt>
      <trkpt lat="45.40957" lon="0.97475">
        <ele>179.37925720215</ele>
        <time>2020-06-19T16:42:20.299Z</time>
      </trkpt>
      <trkpt lat="45.4094" lon="0.97482">
        <ele>181.41891479492</ele>
        <time>2020-06-19T16:42:29.350Z</time>
      </trkpt>
      <trkpt lat="45.40921" lon="0.97491">
        <ele>183.93849182129</ele>
        <time>2020-06-19T16:42:38.404Z</time>
      </trkpt>
      <trkpt lat="45.40904" lon="0.97495">
        <ele>185.36625671387</ele>
        <time>2020-06-19T16:42:47.461Z</time>
      </trkpt>
      <trkpt lat="45.40888" lon="0.97493">
        <ele>185.38703918457</ele>
        <time>2020-06-19T16:42:56.521Z</time>
      </trkpt>
      <trkpt lat="45.4087" lon="0.97484">
        <ele>183.38003540039</ele>
        <time>2020-06-19T16:43:05.584Z</time>
      </trkpt>
      <trkpt lat="45.40851" lon="0.97478">
        <ele>181.54434204102</ele>
        <time>2020-06-19T16:43:14.650Z</time>
      </trkpt>
      <trkpt lat="45.40836" lon="0.97477">
        <ele>180.81245422363</ele>
        <time>2020-06-19T16:43:23.718Z</time>
      </trkpt>
      <trkpt lat="45.40829" lon="0.97479">
        <ele>180.94444274902</ele>
        <time>2020-06-19T16:43:32.788Z</time>
      </trkpt>
      <trkpt lat="45.40818" lon="0.97489">
        <ele>182.4681854248</ele>
        <time>2020-06-19T16:43:41.860Z</time>
      </trkpt>
      <trkpt lat="45.4081" lon="0.97502">
        <ele>183.91177368164</ele>
        <time>2020-06-19T16:43:50.934Z</time>
      </trkpt>
      <trkpt lat="45.40805" lon="0.97511">
        <ele>184.78762817383</ele>
        <time>2020-06-19T16:44:00.009Z</time>
      </trkpt>
      <trkpt lat="45.40791" lon="0.97565">
        <ele>191.4659576416</ele>
        <time>2020-06-19T16:44:09.090Z</time>
      </trkpt>
      <trkpt lat="45.40786" lon="0.9758">
        <ele>193.50561523438</ele>
        <time>2020-06-19T16:44:18.173Z</time>
      </trkpt>
      <trkpt lat="45.40775" lon="0.97597">
        <ele>195.30531311035</ele>
        <time>2020-06-19T16:44:27.259Z</time>
      </trkpt>
      <trkpt lat="45.40752" lon="0.97638">
        <ele>198.94728088379</ele>
        <time>2020-06-19T16:44:36.351Z</time>
      </trkpt>
      <trkpt lat="45.40712" lon="0.97708">
        <ele>210.7440032959</ele>
        <time>2020-06-19T16:44:45.453Z</time>
      </trkpt>
      <trkpt lat="45.40696" lon="0.97726">
        <ele>211.63372802734</ele>
        <time>2020-06-19T16:44:54.558Z</time>
      </trkpt>
      <trkpt lat="45.40674" lon="0.9775">
        <ele>209.11415100098</ele>
        <time>2020-06-19T16:45:03.668Z</time>
      </trkpt>
      <trkpt lat="45.40661" lon="0.97765">
        <ele>208.64279174805</ele>
        <time>2020-06-19T16:45:12.780Z</time>
      </trkpt>
      <trkpt lat="45.40656" lon="0.97771">
        <ele>208.99765014648</ele>
        <time>2020-06-19T16:45:21.893Z</time>
      </trkpt>
      <trkpt lat="45.40623" lon="0.9782">
        <ele>211.48098754883</ele>
        <time>2020-06-19T16:45:31.014Z</time>
      </trkpt>
      <trkpt lat="45.40617" lon="0.97843">
        <ele>211.66096496582</ele>
        <time>2020-06-19T16:45:40.138Z</time>
      </trkpt>
      <trkpt lat="45.40621" lon="0.97882">
        <ele>213.56814575195</ele>
        <time>2020-06-19T16:45:49.266Z</time>
      </trkpt>
      <trkpt lat="45.40626" lon="0.97906">
        <ele>215.00337219238</ele>
        <time>2020-06-19T16:45:58.397Z</time>
      </trkpt>
      <trkpt lat="45.40628" lon="0.97924">
        <ele>215.55528259277</ele>
        <time>2020-06-19T16:46:07.530Z</time>
      </trkpt>
      <trkpt lat="45.40624" lon="0.97963">
        <ele>216.25115966797</ele>
        <time>2020-06-19T16:46:16.668Z</time>
      </trkpt>
      <trkpt lat="45.40621" lon="0.97985">
        <ele>216.85859680176</ele>
        <time>2020-06-19T16:46:25.808Z</time>
      </trkpt>
      <trkpt lat="45.40623" lon="0.98008">
        <ele>217.48249816895</ele>
        <time>2020-06-19T16:46:34.951Z</time>
      </trkpt>
      <trkpt lat="45.40632" lon="0.98034">
        <ele>218.43034362793</ele>
        <time>2020-06-19T16:46:44.097Z</time>
      </trkpt>
      <trkpt lat="45.40646" lon="0.98077">
        <ele>220.02362060547</ele>
        <time>2020-06-19T16:46:53.248Z</time>
      </trkpt>
      <trkpt lat="45.40664" lon="0.98122">
        <ele>222.07527160645</ele>
        <time>2020-06-19T16:47:02.405Z</time>
      </trkpt>
      <trkpt lat="45.40708" lon="0.98224">
        <ele>224.9743347168</ele>
        <time>2020-06-19T16:47:11.576Z</time>
      </trkpt>
      <trkpt lat="45.40711" lon="0.98231">
        <ele>225.14811706543</ele>
        <time>2020-06-19T16:47:20.747Z</time>
      </trkpt>
      <trkpt lat="45.40715" lon="0.98239">
        <ele>225.34281921387</ele>
        <time>2020-06-19T16:47:29.920Z</time>
      </trkpt>
      <trkpt lat="45.40729" lon="0.9828">
        <ele>226.32666015625</ele>
        <time>2020-06-19T16:47:39.098Z</time>
      </trkpt>
      <trkpt lat="45.40738" lon="0.98326">
        <ele>228.29144287109</ele>
        <time>2020-06-19T16:47:48.281Z</time>
      </trkpt>
      <trkpt lat="45.40741" lon="0.9835">
        <ele>229.82597351074</ele>
        <time>2020-06-19T16:47:57.467Z</time>
      </trkpt>
      <trkpt lat="45.40735" lon="0.9836">
        <ele>230.35388183594</ele>
        <time>2020-06-19T16:48:06.654Z</time>
      </trkpt>
      <trkpt lat="45.40733" lon="0.98374">
        <ele>231.16973876953</ele>
        <time>2020-06-19T16:48:15.843Z</time>
      </trkpt>
      <trkpt lat="45.4073" lon="0.984">
        <ele>232.89967346191</ele>
        <time>2020-06-19T16:48:25.035Z</time>
      </trkpt>
      <trkpt lat="45.40727" lon="0.98412">
        <ele>233.8715057373</ele>
        <time>2020-06-19T16:48:34.228Z</time>
      </trkpt>
      <trkpt lat="45.40715" lon="0.98427">
        <ele>234.99119567871</ele>
        <time>2020-06-19T16:48:43.424Z</time>
      </trkpt>
      <trkpt lat="45.40706" lon="0.98466">
        <ele>238.35513305664</ele>
        <time>2020-06-19T16:48:52.625Z</time>
      </trkpt>
      <trkpt lat="45.40704" lon="0.98477">
        <ele>238.78681945801</ele>
        <time>2020-06-19T16:49:01.827Z</time>
      </trkpt>
      <trkpt lat="45.40705" lon="0.98491">
        <ele>239.99862670898</ele>
        <time>2020-06-19T16:49:11.030Z</time>
      </trkpt>
      <trkpt lat="45.40707" lon="0.98513">
        <ele>241.92645263672</ele>
        <time>2020-06-19T16:49:20.236Z</time>
      </trkpt>
      <trkpt lat="45.40708" lon="0.98522">
        <ele>242.71017456055</ele>
        <time>2020-06-19T16:49:29.443Z</time>
      </trkpt>
      <trkpt lat="45.40713" lon="0.98568">
        <ele>247.41416931152</ele>
        <time>2020-06-19T16:49:38.655Z</time>
      </trkpt>
      <trkpt lat="45.4068" lon="0.98579">
        <ele>247.15020751953</ele>
        <time>2020-06-19T16:49:47.873Z</time>
      </trkpt>
      <trkpt lat="45.40638" lon="0.98589">
        <ele>245.5973815918</ele>
        <time>2020-06-19T16:49:57.097Z</time>
      </trkpt>
      <trkpt lat="45.40607" lon="0.98594">
        <ele>243.95141601562</ele>
        <time>2020-06-19T16:50:06.326Z</time>
      </trkpt>
      <trkpt lat="45.40501" lon="0.98608">
        <ele>235.97766113281</ele>
        <time>2020-06-19T16:50:15.572Z</time>
      </trkpt>
      <trkpt lat="45.40431" lon="0.98618">
        <ele>233.0811920166</ele>
        <time>2020-06-19T16:50:24.830Z</time>
      </trkpt>
      <trkpt lat="45.40416" lon="0.98619">
        <ele>232.388671875</ele>
        <time>2020-06-19T16:50:34.090Z</time>
      </trkpt>
      <trkpt lat="45.4041" lon="0.98619">
        <ele>232.08535766602</ele>
        <time>2020-06-19T16:50:43.351Z</time>
      </trkpt>
      <trkpt lat="45.40385" lon="0.98619">
        <ele>230.88554382324</ele>
        <time>2020-06-19T16:50:52.616Z</time>
      </trkpt>
      <trkpt lat="45.40361" lon="0.98616">
        <ele>231.44233703613</ele>
        <time>2020-06-19T16:51:01.885Z</time>
      </trkpt>
      <trkpt lat="45.40314" lon="0.986">
        <ele>231.99461364746</ele>
        <time>2020-06-19T16:51:11.162Z</time>
      </trkpt>
      <trkpt lat="45.40232" lon="0.98559">
        <ele>232.97845458984</ele>
        <time>2020-06-19T16:51:20.453Z</time>
      </trkpt>
      <trkpt lat="45.40162" lon="0.98523">
        <ele>232.17808532715</ele>
        <time>2020-06-19T16:51:29.755Z</time>
      </trkpt>
      <trkpt lat="45.40148" lon="0.98517">
        <ele>232.27406311035</ele>
        <time>2020-06-19T16:51:39.060Z</time>
      </trkpt>
      <trkpt lat="45.40125" lon="0.9851">
        <ele>232.4637298584</ele>
        <time>2020-06-19T16:51:48.369Z</time>
      </trkpt>
      <trkpt lat="45.40122" lon="0.9851">
        <ele>232.4683380127</ele>
        <time>2020-06-19T16:51:57.678Z</time>
      </trkpt>
      <trkpt lat="45.40122" lon="0.9851">
        <ele>232.46449279785</ele>
        <time>2020-06-19T16:52:06.987Z</time>
      </trkpt>
      <trkpt lat="45.40113" lon="0.98507">
        <ele>232.30168151855</ele>
        <time>2020-06-19T16:52:16.298Z</time>
      </trkpt>
      <trkpt lat="45.40063" lon="0.9851">
        <ele>232.70919799805</ele>
        <time>2020-06-19T16:52:25.617Z</time>
      </trkpt>
      <trkpt lat="45.40009" lon="0.98518">
        <ele>232.60612487793</ele>
        <time>2020-06-19T16:52:34.944Z</time>
      </trkpt>
      <trkpt lat="45.40009" lon="0.98518">
        <ele>232.60621643066</ele>
        <time>2020-06-19T16:52:44.271Z</time>
      </trkpt>
      <trkpt lat="45.39975" lon="0.98519">
        <ele>231.44786071777</ele>
        <time>2020-06-19T16:52:53.604Z</time>
      </trkpt>
      <trkpt lat="45.39922" lon="0.98535">
        <ele>230.69943237305</ele>
        <time>2020-06-19T16:53:02.945Z</time>
      </trkpt>
      <trkpt lat="45.39831" lon="0.98621">
        <ele>228</ele>
        <time>2020-06-19T16:53:12.304Z</time>
      </trkpt>
      <trkpt lat="45.39717" lon="0.98701">
        <ele>231.04203796387</ele>
        <time>2020-06-19T16:53:21.683Z</time>
      </trkpt>
      <trkpt lat="45.39667" lon="0.98754">
        <ele>225.3737487793</ele>
        <time>2020-06-19T16:53:31.072Z</time>
      </trkpt>
      <trkpt lat="45.39657" lon="0.98754">
        <ele>225</ele>
        <time>2020-06-19T16:53:40.463Z</time>
      </trkpt>
      <trkpt lat="45.39628" lon="0.98836">
        <ele>225.9659576416</ele>
        <time>2020-06-19T16:53:49.864Z</time>
      </trkpt>
      <trkpt lat="45.39624" lon="0.98847">
        <ele>226.30062866211</ele>
        <time>2020-06-19T16:53:59.267Z</time>
      </trkpt>
      <trkpt lat="45.39574" lon="0.98994">
        <ele>227.91571044922</ele>
        <time>2020-06-19T16:54:08.688Z</time>
      </trkpt>
      <trkpt lat="45.39559" lon="0.99066">
        <ele>229.32289123535</ele>
        <time>2020-06-19T16:54:18.117Z</time>
      </trkpt>
      <trkpt lat="45.3956" lon="0.99119">
        <ele>231.34986877441</ele>
        <time>2020-06-19T16:54:27.552Z</time>
      </trkpt>
      <trkpt lat="45.39573" lon="0.99203">
        <ele>235.68446350098</ele>
        <time>2020-06-19T16:54:36.997Z</time>
      </trkpt>
      <trkpt lat="45.39573" lon="0.99203">
        <ele>235.68295288086</ele>
        <time>2020-06-19T16:54:46.442Z</time>
      </trkpt>
      <trkpt lat="45.39592" lon="0.99331">
        <ele>241.12054443359</ele>
        <time>2020-06-19T16:54:55.902Z</time>
      </trkpt>
      <trkpt lat="45.39609" lon="0.99433">
        <ele>244.66815185547</ele>
        <time>2020-06-19T16:55:05.374Z</time>
      </trkpt>
      <trkpt lat="45.39651" lon="0.99545">
        <ele>247.29913330078</ele>
        <time>2020-06-19T16:55:14.860Z</time>
      </trkpt>
      <trkpt lat="45.39687" lon="0.99632">
        <ele>248.55235290527</ele>
        <time>2020-06-19T16:55:24.357Z</time>
      </trkpt>
      <trkpt lat="45.39621" lon="0.99718">
        <ele>248.59942626953</ele>
        <time>2020-06-19T16:55:33.869Z</time>
      </trkpt>
      <trkpt lat="45.39553" lon="0.99906">
        <ele>243.33680725098</ele>
        <time>2020-06-19T16:55:43.405Z</time>
      </trkpt>
      <trkpt lat="45.3949" lon="0.99973">
        <ele>243.33367919922</ele>
        <time>2020-06-19T16:55:52.953Z</time>
      </trkpt>
      <trkpt lat="45.3946" lon="1">
        <ele>244.12040710449</ele>
        <time>2020-06-19T16:56:02.507Z</time>
      </trkpt>
      <trkpt lat="45.3946" lon="1">
        <ele>244.12120056152</ele>
        <time>2020-06-19T16:56:12.061Z</time>
      </trkpt>
      <trkpt lat="45.3942" lon="1.00032">
        <ele>247.55377197266</ele>
        <time>2020-06-19T16:56:21.622Z</time>
      </trkpt>
      <trkpt lat="45.3942" lon="1.00032">
        <ele>247.55377197266</ele>
        <time>2020-06-19T16:56:31.183Z</time>
      </trkpt>
      <trkpt lat="45.39341" lon="1.00097">
        <ele>252.9323425293</ele>
        <time>2020-06-19T16:56:40.759Z</time>
      </trkpt>
      <trkpt lat="45.39307" lon="1.00135">
        <ele>252.01931762695</ele>
        <time>2020-06-19T16:56:50.342Z</time>
      </trkpt>
      <trkpt lat="45.39287" lon="1.00172">
        <ele>253.64228820801</ele>
        <time>2020-06-19T16:56:59.930Z</time>
      </trkpt>
      <trkpt lat="45.39273" lon="1.00244">
        <ele>256.55072021484</ele>
        <time>2020-06-19T16:57:09.526Z</time>
      </trkpt>
      <trkpt lat="45.39279" lon="1.00321">
        <ele>258.94876098633</ele>
        <time>2020-06-19T16:57:19.131Z</time>
      </trkpt>
      <trkpt lat="45.39275" lon="1.00354">
        <ele>258.52395629883</ele>
        <time>2020-06-19T16:57:28.740Z</time>
      </trkpt>
      <trkpt lat="45.39263" lon="1.00387">
        <ele>258.77505493164</ele>
        <time>2020-06-19T16:57:38.353Z</time>
      </trkpt>
      <trkpt lat="45.39246" lon="1.00409">
        <ele>261.55303955078</ele>
        <time>2020-06-19T16:57:47.970Z</time>
      </trkpt>
      <trkpt lat="45.39204" lon="1.00439">
        <ele>262.79309082031</ele>
        <time>2020-06-19T16:57:57.594Z</time>
      </trkpt>
      <trkpt lat="45.39187" lon="1.00438">
        <ele>264.11895751953</ele>
        <time>2020-06-19T16:58:07.221Z</time>
      </trkpt>
      <trkpt lat="45.39109" lon="1.0038">
        <ele>273.52813720703</ele>
        <time>2020-06-19T16:58:16.862Z</time>
      </trkpt>
      <trkpt lat="45.39084" lon="1.00381">
        <ele>274.03018188477</ele>
        <time>2020-06-19T16:58:26.507Z</time>
      </trkpt>
      <trkpt lat="45.39002" lon="1.0044">
        <ele>277.74987792969</ele>
        <time>2020-06-19T16:58:36.167Z</time>
      </trkpt>
      <trkpt lat="45.38962" lon="1.00481">
        <ele>282.96731567383</ele>
        <time>2020-06-19T16:58:45.835Z</time>
      </trkpt>
      <trkpt lat="45.38935" lon="1.00536">
        <ele>282.6325378418</ele>
        <time>2020-06-19T16:58:55.510Z</time>
      </trkpt>
      <trkpt lat="45.38913" lon="1.00598">
        <ele>281.50692749023</ele>
        <time>2020-06-19T16:59:05.193Z</time>
      </trkpt>
      <trkpt lat="45.38913" lon="1.00598">
        <ele>281.50653076172</ele>
        <time>2020-06-19T16:59:14.876Z</time>
      </trkpt>
      <trkpt lat="45.3891" lon="1.00604">
        <ele>281.61996459961</ele>
        <time>2020-06-19T16:59:24.560Z</time>
      </trkpt>
      <trkpt lat="45.38885" lon="1.0064">
        <ele>282.85571289062</ele>
        <time>2020-06-19T16:59:34.250Z</time>
      </trkpt>
      <trkpt lat="45.38862" lon="1.0067">
        <ele>280.11883544922</ele>
        <time>2020-06-19T16:59:43.945Z</time>
      </trkpt>
      <trkpt lat="45.38858" lon="1.00677">
        <ele>279.43661499023</ele>
        <time>2020-06-19T16:59:53.641Z</time>
      </trkpt>
      <trkpt lat="45.38845" lon="1.00702">
        <ele>278.12231445312</ele>
        <time>2020-06-19T17:00:03.340Z</time>
      </trkpt>
      <trkpt lat="45.38811" lon="1.00812">
        <ele>273.30114746094</ele>
        <time>2020-06-19T17:00:13.053Z</time>
      </trkpt>
      <trkpt lat="45.38768" lon="1.00943">
        <ele>270.14981079102</ele>
        <time>2020-06-19T17:00:22.782Z</time>
      </trkpt>
      <trkpt lat="45.38731" lon="1.00973">
        <ele>267.19351196289</ele>
        <time>2020-06-19T17:00:32.518Z</time>
      </trkpt>
      <trkpt lat="45.38708" lon="1.00995">
        <ele>265.91201782227</ele>
        <time>2020-06-19T17:00:42.258Z</time>
      </trkpt>
      <trkpt lat="45.38679" lon="1.01046">
        <ele>264.98602294922</ele>
        <time>2020-06-19T17:00:52.006Z</time>
      </trkpt>
      <trkpt lat="45.38666" lon="1.01132">
        <ele>264.98645019531</ele>
        <time>2020-06-19T17:01:01.764Z</time>
      </trkpt>
      <trkpt lat="45.38654" lon="1.01157">
        <ele>263.69918823242</ele>
        <time>2020-06-19T17:01:11.525Z</time>
      </trkpt>
      <trkpt lat="45.38569" lon="1.01238">
        <ele>256.63180541992</ele>
        <time>2020-06-19T17:01:21.302Z</time>
      </trkpt>
      <trkpt lat="45.38435" lon="1.01522">
        <ele>264.58233642578</ele>
        <time>2020-06-19T17:01:31.118Z</time>
      </trkpt>
      <trkpt lat="45.38358" lon="1.01651">
        <ele>270.83135986328</ele>
        <time>2020-06-19T17:01:40.953Z</time>
      </trkpt>
      <trkpt lat="45.38358" lon="1.01651">
        <ele>270.83126831055</ele>
        <time>2020-06-19T17:01:50.788Z</time>
      </trkpt>
      <trkpt lat="45.38321" lon="1.01714">
        <ele>270.55584716797</ele>
        <time>2020-06-19T17:02:00.632Z</time>
      </trkpt>
      <trkpt lat="45.38287" lon="1.01759">
        <ele>269.9990234375</ele>
        <time>2020-06-19T17:02:10.484Z</time>
      </trkpt>
      <trkpt lat="45.38232" lon="1.01756">
        <ele>267.9909362793</ele>
        <time>2020-06-19T17:02:20.344Z</time>
      </trkpt>
      <trkpt lat="45.38091" lon="1.01714">
        <ele>266.18963623047</ele>
        <time>2020-06-19T17:02:30.228Z</time>
      </trkpt>
      <trkpt lat="45.38063" lon="1.01714">
        <ele>267.19369506836</ele>
        <time>2020-06-19T17:02:40.116Z</time>
      </trkpt>
      <trkpt lat="45.38036" lon="1.01727">
        <ele>268.45324707031</ele>
        <time>2020-06-19T17:02:50.009Z</time>
      </trkpt>
      <trkpt lat="45.37975" lon="1.0179">
        <ele>271.41390991211</ele>
        <time>2020-06-19T17:02:59.914Z</time>
      </trkpt>
      <trkpt lat="45.37938" lon="1.01853">
        <ele>274.00653076172</ele>
        <time>2020-06-19T17:03:09.828Z</time>
      </trkpt>
      <trkpt lat="45.37892" lon="1.01994">
        <ele>279.36972045898</ele>
        <time>2020-06-19T17:03:19.759Z</time>
      </trkpt>
      <trkpt lat="45.37887" lon="1.02006">
        <ele>280.43814086914</ele>
        <time>2020-06-19T17:03:29.692Z</time>
      </trkpt>
      <trkpt lat="45.37887" lon="1.02006">
        <ele>280.43914794922</ele>
        <time>2020-06-19T17:03:39.625Z</time>
      </trkpt>
      <trkpt lat="45.37771" lon="1.02207">
        <ele>286.60952758789</ele>
        <time>2020-06-19T17:03:49.587Z</time>
      </trkpt>
      <trkpt lat="45.37755" lon="1.02261">
        <ele>285.88763427734</ele>
        <time>2020-06-19T17:03:59.556Z</time>
      </trkpt>
      <trkpt lat="45.37751" lon="1.02357">
        <ele>285.28421020508</ele>
        <time>2020-06-19T17:04:09.536Z</time>
      </trkpt>
      <trkpt lat="45.37725" lon="1.02427">
        <ele>282.26644897461</ele>
        <time>2020-06-19T17:04:19.525Z</time>
      </trkpt>
      <trkpt lat="45.3758" lon="1.02602">
        <ele>277.11169433594</ele>
        <time>2020-06-19T17:04:29.544Z</time>
      </trkpt>
      <trkpt lat="45.37561" lon="1.02617">
        <ele>276.05615234375</ele>
        <time>2020-06-19T17:04:39.567Z</time>
      </trkpt>
      <trkpt lat="45.37547" lon="1.02618">
        <ele>275.65625</ele>
        <time>2020-06-19T17:04:49.592Z</time>
      </trkpt>
      <trkpt lat="45.37531" lon="1.02615">
        <ele>276.69891357422</ele>
        <time>2020-06-19T17:04:59.620Z</time>
      </trkpt>
      <trkpt lat="45.37504" lon="1.02588">
        <ele>278.95159912109</ele>
        <time>2020-06-19T17:05:09.653Z</time>
      </trkpt>
      <trkpt lat="45.37489" lon="1.02542">
        <ele>280.15127563477</ele>
        <time>2020-06-19T17:05:19.692Z</time>
      </trkpt>
      <trkpt lat="45.37483" lon="1.02397">
        <ele>278.54843139648</ele>
        <time>2020-06-19T17:05:29.747Z</time>
      </trkpt>
      <trkpt lat="45.37474" lon="1.02385">
        <ele>278.91323852539</ele>
        <time>2020-06-19T17:05:39.804Z</time>
      </trkpt>
      <trkpt lat="45.37462" lon="1.02382">
        <ele>279.78283691406</ele>
        <time>2020-06-19T17:05:49.863Z</time>
      </trkpt>
      <trkpt lat="45.37448" lon="1.02387">
        <ele>281.37902832031</ele>
        <time>2020-06-19T17:05:59.924Z</time>
      </trkpt>
      <trkpt lat="45.37321" lon="1.02541">
        <ele>300.17446899414</ele>
        <time>2020-06-19T17:06:10.012Z</time>
      </trkpt>
      <trkpt lat="45.3729" lon="1.02552">
        <ele>302.64248657227</ele>
        <time>2020-06-19T17:06:20.105Z</time>
      </trkpt>
      <trkpt lat="45.37253" lon="1.02548">
        <ele>301.66436767578</ele>
        <time>2020-06-19T17:06:30.204Z</time>
      </trkpt>
      <trkpt lat="45.37219" lon="1.02566">
        <ele>301.10424804688</ele>
        <time>2020-06-19T17:06:40.309Z</time>
      </trkpt>
      <trkpt lat="45.372" lon="1.02596">
        <ele>300.84030151367</ele>
        <time>2020-06-19T17:06:50.418Z</time>
      </trkpt>
      <trkpt lat="45.37142" lon="1.02719">
        <ele>300.37835693359</ele>
        <time>2020-06-19T17:07:00.544Z</time>
      </trkpt>
      <trkpt lat="45.37142" lon="1.02719">
        <ele>300.37814331055</ele>
        <time>2020-06-19T17:07:10.670Z</time>
      </trkpt>
      <trkpt lat="45.37114" lon="1.02779">
        <ele>299.86032104492</ele>
        <time>2020-06-19T17:07:20.804Z</time>
      </trkpt>
      <trkpt lat="45.36997" lon="1.02886">
        <ele>298.54629516602</ele>
        <time>2020-06-19T17:07:30.960Z</time>
      </trkpt>
      <trkpt lat="45.36974" lon="1.0299">
        <ele>299.01849365234</ele>
        <time>2020-06-19T17:07:41.129Z</time>
      </trkpt>
      <trkpt lat="45.36952" lon="1.03023">
        <ele>298.24554443359</ele>
        <time>2020-06-19T17:07:51.303Z</time>
      </trkpt>
      <trkpt lat="45.36935" lon="1.03032">
        <ele>297.41094970703</ele>
        <time>2020-06-19T17:08:01.480Z</time>
      </trkpt>
      <trkpt lat="45.3688" lon="1.03038">
        <ele>297.16586303711</ele>
        <time>2020-06-19T17:08:11.665Z</time>
      </trkpt>
      <trkpt lat="45.36815" lon="1.03074">
        <ele>296.12078857422</ele>
        <time>2020-06-19T17:08:21.862Z</time>
      </trkpt>
      <trkpt lat="45.36761" lon="1.03075">
        <ele>293.17541503906</ele>
        <time>2020-06-19T17:08:32.067Z</time>
      </trkpt>
      <trkpt lat="45.36739" lon="1.03108">
        <ele>294.31362915039</ele>
        <time>2020-06-19T17:08:42.277Z</time>
      </trkpt>
      <trkpt lat="45.36698" lon="1.03125">
        <ele>291.74584960938</ele>
        <time>2020-06-19T17:08:52.494Z</time>
      </trkpt>
      <trkpt lat="45.36676" lon="1.03143">
        <ele>291.27203369141</ele>
        <time>2020-06-19T17:09:02.715Z</time>
      </trkpt>
      <trkpt lat="45.36614" lon="1.03241">
        <ele>287.18133544922</ele>
        <time>2020-06-19T17:09:12.951Z</time>
      </trkpt>
      <trkpt lat="45.36564" lon="1.03285">
        <ele>279.83981323242</ele>
        <time>2020-06-19T17:09:23.197Z</time>
      </trkpt>
      <trkpt lat="45.36536" lon="1.03324">
        <ele>276.86608886719</ele>
        <time>2020-06-19T17:09:33.449Z</time>
      </trkpt>
      <trkpt lat="45.36536" lon="1.03324">
        <ele>276.86529541016</ele>
        <time>2020-06-19T17:09:43.701Z</time>
      </trkpt>
      <trkpt lat="45.36507" lon="1.03354">
        <ele>274.18005371094</ele>
        <time>2020-06-19T17:09:53.959Z</time>
      </trkpt>
      <trkpt lat="45.3643" lon="1.03382">
        <ele>268.052734375</ele>
        <time>2020-06-19T17:10:04.229Z</time>
      </trkpt>
      <trkpt lat="45.36166" lon="1.03544">
        <ele>249.89030456543</ele>
        <time>2020-06-19T17:10:14.545Z</time>
      </trkpt>
      <trkpt lat="45.36166" lon="1.03544">
        <ele>249.89060974121</ele>
        <time>2020-06-19T17:10:24.861Z</time>
      </trkpt>
      <trkpt lat="45.36099" lon="1.03585">
        <ele>248.30914306641</ele>
        <time>2020-06-19T17:10:35.189Z</time>
      </trkpt>
      <trkpt lat="45.36043" lon="1.03596">
        <ele>247.43501281738</ele>
        <time>2020-06-19T17:10:45.526Z</time>
      </trkpt>
      <trkpt lat="45.35989" lon="1.03583">
        <ele>246.30224609375</ele>
        <time>2020-06-19T17:10:55.872Z</time>
      </trkpt>
      <trkpt lat="45.35935" lon="1.03554">
        <ele>245.58619689941</ele>
        <time>2020-06-19T17:11:06.227Z</time>
      </trkpt>
      <trkpt lat="45.35798" lon="1.03402">
        <ele>238.72961425781</ele>
        <time>2020-06-19T17:11:16.610Z</time>
      </trkpt>
      <trkpt lat="45.35762" lon="1.03376">
        <ele>238.20021057129</ele>
        <time>2020-06-19T17:11:26.999Z</time>
      </trkpt>
      <trkpt lat="45.35577" lon="1.03299">
        <ele>236.29963684082</ele>
        <time>2020-06-19T17:11:37.419Z</time>
      </trkpt>
      <trkpt lat="45.35514" lon="1.03257">
        <ele>236.59071350098</ele>
        <time>2020-06-19T17:11:47.851Z</time>
      </trkpt>
      <trkpt lat="45.35453" lon="1.03243">
        <ele>235.46273803711</ele>
        <time>2020-06-19T17:11:58.292Z</time>
      </trkpt>
      <trkpt lat="45.35453" lon="1.03243">
        <ele>235.46263122559</ele>
        <time>2020-06-19T17:12:08.733Z</time>
      </trkpt>
      <trkpt lat="45.35407" lon="1.03265">
        <ele>234.21089172363</ele>
        <time>2020-06-19T17:12:19.182Z</time>
      </trkpt>
      <trkpt lat="45.35359" lon="1.0332">
        <ele>230.95869445801</ele>
        <time>2020-06-19T17:12:29.641Z</time>
      </trkpt>
      <trkpt lat="45.35326" lon="1.03384">
        <ele>228.71694946289</ele>
        <time>2020-06-19T17:12:40.109Z</time>
      </trkpt>
      <trkpt lat="45.35295" lon="1.03483">
        <ele>232.52786254883</ele>
        <time>2020-06-19T17:12:50.589Z</time>
      </trkpt>
      <trkpt lat="45.35286" lon="1.0351">
        <ele>230.94454956055</ele>
        <time>2020-06-19T17:13:01.072Z</time>
      </trkpt>
      <trkpt lat="45.35286" lon="1.0351">
        <ele>230.94393920898</ele>
        <time>2020-06-19T17:13:11.555Z</time>
      </trkpt>
      <trkpt lat="45.3525" lon="1.03612">
        <ele>230.19006347656</ele>
        <time>2020-06-19T17:13:22.051Z</time>
      </trkpt>
      <trkpt lat="45.35216" lon="1.03633">
        <ele>234.2706451416</ele>
        <time>2020-06-19T17:13:32.553Z</time>
      </trkpt>
      <trkpt lat="45.35155" lon="1.0365">
        <ele>236.70280456543</ele>
        <time>2020-06-19T17:13:43.065Z</time>
      </trkpt>
      <trkpt lat="45.35136" lon="1.03662">
        <ele>237.59100341797</ele>
        <time>2020-06-19T17:13:53.581Z</time>
      </trkpt>
      <trkpt lat="45.35122" lon="1.03687">
        <ele>237.52102661133</ele>
        <time>2020-06-19T17:14:04.100Z</time>
      </trkpt>
      <trkpt lat="45.35119" lon="1.03736">
        <ele>237.86891174316</ele>
        <time>2020-06-19T17:14:14.625Z</time>
      </trkpt>
      <trkpt lat="45.35129" lon="1.03809">
        <ele>236.77052307129</ele>
        <time>2020-06-19T17:14:25.158Z</time>
      </trkpt>
      <trkpt lat="45.35128" lon="1.03832">
        <ele>236.3328704834</ele>
        <time>2020-06-19T17:14:35.694Z</time>
      </trkpt>
      <trkpt lat="45.35105" lon="1.03966">
        <ele>233.00898742676</ele>
        <time>2020-06-19T17:14:46.245Z</time>
      </trkpt>
      <trkpt lat="45.35082" lon="1.04025">
        <ele>229.86145019531</ele>
        <time>2020-06-19T17:14:56.804Z</time>
      </trkpt>
      <trkpt lat="45.35082" lon="1.04025">
        <ele>229.86184692383</ele>
        <time>2020-06-19T17:15:07.363Z</time>
      </trkpt>
      <trkpt lat="45.34907" lon="1.04152">
        <ele>219.26878356934</ele>
        <time>2020-06-19T17:15:17.953Z</time>
      </trkpt>
      <trkpt lat="45.34866" lon="1.04202">
        <ele>212.28228759766</ele>
        <time>2020-06-19T17:15:28.552Z</time>
      </trkpt>
      <trkpt lat="45.34823" lon="1.04262">
        <ele>208.23590087891</ele>
        <time>2020-06-19T17:15:39.161Z</time>
      </trkpt>
      <trkpt lat="45.3478" lon="1.0432">
        <ele>205.0311126709</ele>
        <time>2020-06-19T17:15:49.779Z</time>
      </trkpt>
      <trkpt lat="45.3478" lon="1.0432">
        <ele>205.03271484375</ele>
        <time>2020-06-19T17:16:00.397Z</time>
      </trkpt>
      <trkpt lat="45.34734" lon="1.04383">
        <ele>203.53514099121</ele>
        <time>2020-06-19T17:16:11.025Z</time>
      </trkpt>
      <trkpt lat="45.347" lon="1.04404">
        <ele>202.68922424316</ele>
        <time>2020-06-19T17:16:21.659Z</time>
      </trkpt>
      <trkpt lat="45.3461" lon="1.04436">
        <ele>198.59770202637</ele>
        <time>2020-06-19T17:16:32.308Z</time>
      </trkpt>
      <trkpt lat="45.3461" lon="1.04436">
        <ele>198.59729003906</ele>
        <time>2020-06-19T17:16:42.957Z</time>
      </trkpt>
      <trkpt lat="45.34572" lon="1.04455">
        <ele>197.44189453125</ele>
        <time>2020-06-19T17:16:53.613Z</time>
      </trkpt>
      <trkpt lat="45.3453" lon="1.04478">
        <ele>197.09078979492</ele>
        <time>2020-06-19T17:17:04.276Z</time>
      </trkpt>
      <trkpt lat="45.3453" lon="1.04478">
        <ele>197.09048461914</ele>
        <time>2020-06-19T17:17:14.939Z</time>
      </trkpt>
      <trkpt lat="45.34496" lon="1.04497">
        <ele>197.75453186035</ele>
        <time>2020-06-19T17:17:25.608Z</time>
      </trkpt>
      <trkpt lat="45.3447" lon="1.04513">
        <ele>197.19741821289</ele>
        <time>2020-06-19T17:17:36.281Z</time>
      </trkpt>
      <trkpt lat="45.34424" lon="1.04567">
        <ele>196.15940856934</ele>
        <time>2020-06-19T17:17:46.964Z</time>
      </trkpt>
      <trkpt lat="45.34332" lon="1.04622">
        <ele>191.6664276123</ele>
        <time>2020-06-19T17:17:57.663Z</time>
      </trkpt>
      <trkpt lat="45.34332" lon="1.04622">
        <ele>191.66693115234</ele>
        <time>2020-06-19T17:18:08.362Z</time>
      </trkpt>
      <trkpt lat="45.3426" lon="1.04702">
        <ele>189.90773010254</ele>
        <time>2020-06-19T17:18:19.075Z</time>
      </trkpt>
      <trkpt lat="45.34225" lon="1.04726">
        <ele>192.43916320801</ele>
        <time>2020-06-19T17:18:29.795Z</time>
      </trkpt>
      <trkpt lat="45.34054" lon="1.04782">
        <ele>186.04502868652</ele>
        <time>2020-06-19T17:18:40.543Z</time>
      </trkpt>
      <trkpt lat="45.34054" lon="1.04782">
        <ele>186.04573059082</ele>
        <time>2020-06-19T17:18:51.291Z</time>
      </trkpt>
      <trkpt lat="45.33988" lon="1.04804">
        <ele>181.56430053711</ele>
        <time>2020-06-19T17:19:02.050Z</time>
      </trkpt>
      <trkpt lat="45.33966" lon="1.04812">
        <ele>179.86979675293</ele>
        <time>2020-06-19T17:19:12.812Z</time>
      </trkpt>
      <trkpt lat="45.33963" lon="1.04859">
        <ele>176.39559936523</ele>
        <time>2020-06-19T17:19:23.580Z</time>
      </trkpt>
      <trkpt lat="45.3395" lon="1.04882">
        <ele>174.92813110352</ele>
        <time>2020-06-19T17:19:34.351Z</time>
      </trkpt>
      <trkpt lat="45.33892" lon="1.04935">
        <ele>170.32832336426</ele>
        <time>2020-06-19T17:19:45.133Z</time>
      </trkpt>
      <trkpt lat="45.33873" lon="1.05131">
        <ele>158.2896270752</ele>
        <time>2020-06-19T17:19:55.937Z</time>
      </trkpt>
      <trkpt lat="45.33882" lon="1.05174">
        <ele>157.61085510254</ele>
        <time>2020-06-19T17:20:06.746Z</time>
      </trkpt>
      <trkpt lat="45.33882" lon="1.05174">
        <ele>157.61074829102</ele>
        <time>2020-06-19T17:20:17.555Z</time>
      </trkpt>
      <trkpt lat="45.33891" lon="1.05217">
        <ele>156.98352050781</ele>
        <time>2020-06-19T17:20:28.369Z</time>
      </trkpt>
      <trkpt lat="45.33886" lon="1.05243">
        <ele>156.51533508301</ele>
        <time>2020-06-19T17:20:39.186Z</time>
      </trkpt>
      <trkpt lat="45.33876" lon="1.05275">
        <ele>155.77925109863</ele>
        <time>2020-06-19T17:20:50.007Z</time>
      </trkpt>
      <trkpt lat="45.3386" lon="1.05296">
        <ele>155.15850830078</ele>
        <time>2020-06-19T17:21:00.832Z</time>
      </trkpt>
      <trkpt lat="45.33829" lon="1.05313">
        <ele>154.90510559082</ele>
        <time>2020-06-19T17:21:11.662Z</time>
      </trkpt>
      <trkpt lat="45.33737" lon="1.05329">
        <ele>154.75946044922</ele>
        <time>2020-06-19T17:21:22.507Z</time>
      </trkpt>
      <trkpt lat="45.33737" lon="1.05329">
        <ele>154.75946044922</ele>
        <time>2020-06-19T17:21:33.352Z</time>
      </trkpt>
      <trkpt lat="45.33734" lon="1.05408">
        <ele>153.81977844238</ele>
        <time>2020-06-19T17:21:44.206Z</time>
      </trkpt>
      <trkpt lat="45.33729" lon="1.05541">
        <ele>151.22358703613</ele>
        <time>2020-06-19T17:21:55.075Z</time>
      </trkpt>
      <trkpt lat="45.33724" lon="1.05686">
        <ele>148.36625671387</ele>
        <time>2020-06-19T17:22:05.960Z</time>
      </trkpt>
      <trkpt lat="45.33724" lon="1.05686">
        <ele>148.36636352539</ele>
        <time>2020-06-19T17:22:16.845Z</time>
      </trkpt>
      <trkpt lat="45.33718" lon="1.05916">
        <ele>149.23945617676</ele>
        <time>2020-06-19T17:22:27.756Z</time>
      </trkpt>
      <trkpt lat="45.33718" lon="1.05947">
        <ele>149.61285400391</ele>
        <time>2020-06-19T17:22:38.671Z</time>
      </trkpt>
      <trkpt lat="45.33718" lon="1.06027">
        <ele>150.44931030273</ele>
        <time>2020-06-19T17:22:49.595Z</time>
      </trkpt>
      <trkpt lat="45.33719" lon="1.06051">
        <ele>150.71963500977</ele>
        <time>2020-06-23T18:38:48.000Z</time>
      </trkpt>
      <trkpt lat="45.33719" lon="1.06051">
        <ele>150.71963500977</ele>
        <time>2020-06-23T18:38:48.000Z</time>
      </trkpt>
      <trkpt lat="45.33721" lon="1.06118">
        <ele>148.88902282715</ele>
        <time>2020-06-23T18:38:48.008Z</time>
      </trkpt>
      <trkpt lat="45.33724" lon="1.06149">
        <ele>148.07559204102</ele>
        <time>2020-06-23T18:38:48.019Z</time>
      </trkpt>
      <trkpt lat="45.33725" lon="1.06153">
        <ele>148.12358093262</ele>
        <time>2020-06-23T18:38:48.031Z</time>
      </trkpt>
      <trkpt lat="45.33719" lon="1.06155">
        <ele>148.06005859375</ele>
        <time>2020-06-23T18:38:48.044Z</time>
      </trkpt>
      <trkpt lat="45.33717" lon="1.06157">
        <ele>148.03605651855</ele>
        <time>2020-06-23T18:38:48.057Z</time>
      </trkpt>
      <trkpt lat="45.33714" lon="1.06169">
        <ele>148.00006103516</ele>
        <time>2020-06-23T18:38:48.071Z</time>
      </trkpt>
      <trkpt lat="45.33712" lon="1.06191">
        <ele>148</ele>
        <time>2020-06-23T18:38:48.088Z</time>
      </trkpt>
      <trkpt lat="45.33702" lon="1.06255">
        <ele>148.20347595215</ele>
        <time>2020-06-23T18:38:48.112Z</time>
      </trkpt>
      <trkpt lat="45.33683" lon="1.06397">
        <ele>148.25625610352</ele>
        <time>2020-06-23T18:38:48.153Z</time>
      </trkpt>
      <trkpt lat="45.33678" lon="1.06433">
        <ele>148.13824462891</ele>
        <time>2020-06-23T18:38:48.198Z</time>
      </trkpt>
      <trkpt lat="45.33678" lon="1.06434">
        <ele>148.13627624512</ele>
        <time>2020-06-23T18:38:48.243Z</time>
      </trkpt>
      <trkpt lat="45.33672" lon="1.06474">
        <ele>148.94989013672</ele>
        <time>2020-06-23T18:38:48.292Z</time>
      </trkpt>
      <trkpt lat="45.33669" lon="1.06493">
        <ele>149.81163024902</ele>
        <time>2020-06-23T18:38:48.344Z</time>
      </trkpt>
      <trkpt lat="45.33664" lon="1.06492">
        <ele>149.76364135742</ele>
        <time>2020-06-23T18:38:48.396Z</time>
      </trkpt>
      <trkpt lat="45.33643" lon="1.0649">
        <ele>149.66766357422</ele>
        <time>2020-06-23T18:38:48.452Z</time>
      </trkpt>
      <trkpt lat="45.33602" lon="1.06483">
        <ele>150.70655822754</ele>
        <time>2020-06-23T18:38:48.514Z</time>
      </trkpt>
      <trkpt lat="45.33587" lon="1.06482">
        <ele>151.37844848633</ele>
        <time>2020-06-23T18:38:48.579Z</time>
      </trkpt>
      <trkpt lat="45.33563" lon="1.06485">
        <ele>152.67422485352</ele>
        <time>2020-06-23T18:38:48.648Z</time>
      </trkpt>
      <trkpt lat="45.33506" lon="1.06497">
        <ele>157.96775817871</ele>
        <time>2020-06-23T18:38:48.726Z</time>
      </trkpt>
      <trkpt lat="45.3348" lon="1.06503">
        <ele>160.38269042969</ele>
        <time>2020-06-23T18:38:48.808Z</time>
      </trkpt>
      <trkpt lat="45.33479" lon="1.06503">
        <ele>160.42021179199</ele>
        <time>2020-06-23T18:38:48.890Z</time>
      </trkpt>
      <trkpt lat="45.33468" lon="1.06505">
        <ele>161.10411071777</ele>
        <time>2020-06-23T18:38:48.974Z</time>
      </trkpt>
      <trkpt lat="45.33436" lon="1.06517">
        <ele>161.15548706055</ele>
        <time>2020-06-23T18:38:49.063Z</time>
      </trkpt>
      <trkpt lat="45.33406" lon="1.06531">
        <ele>161.67181396484</ele>
        <time>2020-06-23T18:38:49.157Z</time>
      </trkpt>
      <trkpt lat="45.33375" lon="1.06549">
        <ele>162.69165039062</ele>
        <time>2020-06-23T18:38:49.257Z</time>
      </trkpt>
      <trkpt lat="45.33363" lon="1.06564">
        <ele>163.26600646973</ele>
        <time>2020-06-23T18:38:49.359Z</time>
      </trkpt>
      <trkpt lat="45.33338" lon="1.06608">
        <ele>164.37544250488</ele>
        <time>2020-06-23T18:38:49.468Z</time>
      </trkpt>
      <trkpt lat="45.33316" lon="1.06652">
        <ele>167.21115112305</ele>
        <time>2020-06-23T18:38:49.583Z</time>
      </trkpt>
      <trkpt lat="45.33297" lon="1.0671">
        <ele>167.99690246582</ele>
        <time>2020-06-23T18:38:49.705Z</time>
      </trkpt>
      <trkpt lat="45.33295" lon="1.06715">
        <ele>167.97644042969</ele>
        <time>2020-06-23T18:38:49.828Z</time>
      </trkpt>
      <trkpt lat="45.33295" lon="1.06716">
        <ele>167.97290039062</ele>
        <time>2020-06-23T18:38:49.951Z</time>
      </trkpt>
      <trkpt lat="45.33263" lon="1.06813">
        <ele>170.85548400879</ele>
        <time>2020-06-23T18:38:50.086Z</time>
      </trkpt>
      <trkpt lat="45.33252" lon="1.06829">
        <ele>172.34323120117</ele>
        <time>2020-06-23T18:38:50.223Z</time>
      </trkpt>
      <trkpt lat="45.33237" lon="1.06848">
        <ele>173.64738464355</ele>
        <time>2020-06-23T18:38:50.364Z</time>
      </trkpt>
      <trkpt lat="45.3317" lon="1.06926">
        <ele>177.37663269043</ele>
        <time>2020-06-23T18:38:50.519Z</time>
      </trkpt>
      <trkpt lat="45.33136" lon="1.06964">
        <ele>178.72273254395</ele>
        <time>2020-06-23T18:38:50.680Z</time>
      </trkpt>
      <trkpt lat="45.33135" lon="1.06965">
        <ele>178.75952148438</ele>
        <time>2020-06-23T18:38:50.842Z</time>
      </trkpt>
      <trkpt lat="45.33102" lon="1.06994">
        <ele>182.29830932617</ele>
        <time>2020-06-23T18:38:51.010Z</time>
      </trkpt>
      <trkpt lat="45.3306" lon="1.07029">
        <ele>186.2925567627</ele>
        <time>2020-06-23T18:38:51.186Z</time>
      </trkpt>
      <trkpt lat="45.32987" lon="1.07089">
        <ele>192.1975402832</ele>
        <time>2020-06-23T18:38:51.375Z</time>
      </trkpt>
      <trkpt lat="45.32972" lon="1.07099">
        <ele>192.61747741699</ele>
        <time>2020-06-23T18:38:51.567Z</time>
      </trkpt>
      <trkpt lat="45.32958" lon="1.07103">
        <ele>192.9836730957</ele>
        <time>2020-06-23T18:38:51.761Z</time>
      </trkpt>
      <trkpt lat="45.32937" lon="1.07092">
        <ele>193.7635345459</ele>
        <time>2020-06-23T18:38:51.959Z</time>
      </trkpt>
      <trkpt lat="45.32923" lon="1.07079">
        <ele>194.54627990723</ele>
        <time>2020-06-23T18:38:52.159Z</time>
      </trkpt>
      <trkpt lat="45.32922" lon="1.07078">
        <ele>194.61540222168</ele>
        <time>2020-06-23T18:38:52.360Z</time>
      </trkpt>
      <trkpt lat="45.32922" lon="1.07077">
        <ele>194.66339111328</ele>
        <time>2020-06-23T18:38:52.561Z</time>
      </trkpt>
      <trkpt lat="45.32897" lon="1.07046">
        <ele>196.45109558105</ele>
        <time>2020-06-23T18:38:52.767Z</time>
      </trkpt>
      <trkpt lat="45.32878" lon="1.07022">
        <ele>197.80059814453</ele>
        <time>2020-06-23T18:38:52.977Z</time>
      </trkpt>
      <trkpt lat="45.32856" lon="1.07002">
        <ele>198.76043701172</ele>
        <time>2020-06-23T18:38:53.191Z</time>
      </trkpt>
      <trkpt lat="45.32848" lon="1.06998">
        <ele>198.95240783691</ele>
        <time>2020-06-23T18:38:53.407Z</time>
      </trkpt>
      <trkpt lat="45.32831" lon="1.06998">
        <ele>198.95240783691</ele>
        <time>2020-06-23T18:38:53.625Z</time>
      </trkpt>
      <trkpt lat="45.32771" lon="1.07008">
        <ele>201.68081665039</ele>
        <time>2020-06-23T18:38:53.853Z</time>
      </trkpt>
      <trkpt lat="45.32758" lon="1.07013">
        <ele>202.90461730957</ele>
        <time>2020-06-23T18:38:54.083Z</time>
      </trkpt>
      <trkpt lat="45.3274" lon="1.07024">
        <ele>204.47305297852</ele>
        <time>2020-06-23T18:38:54.316Z</time>
      </trkpt>
      <trkpt lat="45.32738" lon="1.07025">
        <ele>204.63232421875</ele>
        <time>2020-06-23T18:38:54.550Z</time>
      </trkpt>
      <trkpt lat="45.32714" lon="1.07047">
        <ele>206.43202209473</ele>
        <time>2020-06-23T18:38:54.788Z</time>
      </trkpt>
      <trkpt lat="45.32698" lon="1.07065">
        <ele>208.21308898926</ele>
        <time>2020-06-23T18:38:55.029Z</time>
      </trkpt>
      <trkpt lat="45.32686" lon="1.07083">
        <ele>209.72483825684</ele>
        <time>2020-06-23T18:38:55.273Z</time>
      </trkpt>
      <trkpt lat="45.32669" lon="1.07116">
        <ele>211.99200439453</ele>
        <time>2020-06-23T18:38:55.522Z</time>
      </trkpt>
      <trkpt lat="45.32652" lon="1.07164">
        <ele>214.38999938965</ele>
        <time>2020-06-23T18:38:55.777Z</time>
      </trkpt>
      <trkpt lat="45.3262" lon="1.07274">
        <ele>219.40417480469</ele>
        <time>2020-06-23T18:38:56.045Z</time>
      </trkpt>
      <trkpt lat="45.32612" lon="1.07306">
        <ele>220.59484863281</ele>
        <time>2020-06-23T18:38:56.317Z</time>
      </trkpt>
      <trkpt lat="45.32609" lon="1.07332">
        <ele>221.07331848145</ele>
        <time>2020-06-23T18:38:56.592Z</time>
      </trkpt>
      <trkpt lat="45.32609" lon="1.07339">
        <ele>221.15313720703</ele>
        <time>2020-06-23T18:38:56.868Z</time>
      </trkpt>
      <trkpt lat="45.32609" lon="1.07342">
        <ele>221.19329833984</ele>
        <time>2020-06-23T18:38:57.144Z</time>
      </trkpt>
      <trkpt lat="45.32607" lon="1.07383">
        <ele>221.69033813477</ele>
        <time>2020-06-23T18:38:57.425Z</time>
      </trkpt>
      <trkpt lat="45.3259" lon="1.07478">
        <ele>221.39213562012</ele>
        <time>2020-06-23T18:38:57.717Z</time>
      </trkpt>
      <trkpt lat="45.32567" lon="1.07527">
        <ele>224.09313964844</ele>
        <time>2020-06-23T18:38:58.016Z</time>
      </trkpt>
      <trkpt lat="45.32567" lon="1.07596">
        <ele>225.52328491211</ele>
        <time>2020-06-23T18:38:58.322Z</time>
      </trkpt>
      <trkpt lat="45.32567" lon="1.07707">
        <ele>227.82872009277</ele>
        <time>2020-06-23T18:38:58.641Z</time>
      </trkpt>
      <trkpt lat="45.32567" lon="1.07724">
        <ele>228.44062805176</ele>
        <time>2020-06-23T18:38:58.962Z</time>
      </trkpt>
      <trkpt lat="45.32559" lon="1.07725">
        <ele>228.66857910156</ele>
        <time>2020-06-23T18:38:59.284Z</time>
      </trkpt>
      <trkpt lat="45.32542" lon="1.07729">
        <ele>228.80865478516</ele>
        <time>2020-06-23T18:38:59.609Z</time>
      </trkpt>
      <trkpt lat="45.32524" lon="1.07732">
        <ele>228.44871520996</ele>
        <time>2020-06-23T18:38:59.937Z</time>
      </trkpt>
      <trkpt lat="45.32497" lon="1.07748">
        <ele>227.35690307617</ele>
        <time>2020-06-23T18:39:00.269Z</time>
      </trkpt>
      <trkpt lat="45.32494" lon="1.0775">
        <ele>227.23561096191</ele>
        <time>2020-06-23T18:39:00.602Z</time>
      </trkpt>
      <trkpt lat="45.32491" lon="1.07751">
        <ele>227.14094543457</ele>
        <time>2020-06-23T18:39:00.936Z</time>
      </trkpt>
      <trkpt lat="45.32416" lon="1.07787">
        <ele>223.69003295898</ele>
        <time>2020-06-23T18:39:01.282Z</time>
      </trkpt>
      <trkpt lat="45.32371" lon="1.07806">
        <ele>224.22650146484</ele>
        <time>2020-06-23T18:39:01.636Z</time>
      </trkpt>
      <trkpt lat="45.32336" lon="1.07815">
        <ele>224.68077087402</ele>
        <time>2020-06-23T18:39:01.995Z</time>
      </trkpt>
      <trkpt lat="45.32331" lon="1.07816">
        <ele>224.76382446289</ele>
        <time>2020-06-23T18:39:02.355Z</time>
      </trkpt>
      <trkpt lat="45.32328" lon="1.07816">
        <ele>224.80075073242</ele>
        <time>2020-06-23T18:39:02.716Z</time>
      </trkpt>
      <trkpt lat="45.32306" lon="1.07817">
        <ele>225.25668334961</ele>
        <time>2020-06-23T18:39:03.080Z</time>
      </trkpt>
      <trkpt lat="45.32279" lon="1.07814">
        <ele>226.80799865723</ele>
        <time>2020-06-23T18:39:03.449Z</time>
      </trkpt>
      <trkpt lat="45.3225" lon="1.07808">
        <ele>227.67530822754</ele>
        <time>2020-06-23T18:39:03.822Z</time>
      </trkpt>
      <trkpt lat="45.32211" lon="1.07802">
        <ele>228.87536621094</ele>
        <time>2020-06-23T18:39:04.202Z</time>
      </trkpt>
      <trkpt lat="45.32194" lon="1.07802">
        <ele>228.67138671875</ele>
        <time>2020-06-23T18:39:04.584Z</time>
      </trkpt>
      <trkpt lat="45.32168" lon="1.07809">
        <ele>228.44343566895</ele>
        <time>2020-06-23T18:39:04.970Z</time>
      </trkpt>
      <trkpt lat="45.32133" lon="1.07827">
        <ele>228.68717956543</ele>
        <time>2020-06-23T18:39:05.362Z</time>
      </trkpt>
      <trkpt lat="45.32106" lon="1.07842">
        <ele>227.97521972656</ele>
        <time>2020-06-23T18:39:05.759Z</time>
      </trkpt>
      <trkpt lat="45.32104" lon="1.07843">
        <ele>227.93376159668</ele>
        <time>2020-06-23T18:39:06.156Z</time>
      </trkpt>
      <trkpt lat="45.32043" lon="1.07887">
        <ele>224.97671508789</ele>
        <time>2020-06-23T18:39:06.564Z</time>
      </trkpt>
      <trkpt lat="45.32011" lon="1.07908">
        <ele>225.54023742676</ele>
        <time>2020-06-23T18:39:06.978Z</time>
      </trkpt>
      <trkpt lat="45.31969" lon="1.07929">
        <ele>224.82217407227</ele>
        <time>2020-06-23T18:39:07.399Z</time>
      </trkpt>
      <trkpt lat="45.31924" lon="1.07956">
        <ele>225.19386291504</ele>
        <time>2020-06-23T18:39:07.828Z</time>
      </trkpt>
      <trkpt lat="45.31923" lon="1.07957">
        <ele>225.18441772461</ele>
        <time>2020-06-23T18:39:08.257Z</time>
      </trkpt>
      <trkpt lat="45.31899" lon="1.07975">
        <ele>224.82447814941</ele>
        <time>2020-06-23T18:39:08.690Z</time>
      </trkpt>
      <trkpt lat="45.31883" lon="1.07986">
        <ele>224.4313659668</ele>
        <time>2020-06-23T18:39:09.126Z</time>
      </trkpt>
      <trkpt lat="45.31865" lon="1.07994">
        <ele>224.28128051758</ele>
        <time>2020-06-23T18:39:09.565Z</time>
      </trkpt>
      <trkpt lat="45.31849" lon="1.07994">
        <ele>224.85717773438</ele>
        <time>2020-06-23T18:39:10.007Z</time>
      </trkpt>
      <trkpt lat="45.31815" lon="1.07977">
        <ele>227.30477905273</ele>
        <time>2020-06-23T18:39:10.455Z</time>
      </trkpt>
      <trkpt lat="45.31763" lon="1.07952">
        <ele>232.43231201172</ele>
        <time>2020-06-23T18:39:10.911Z</time>
      </trkpt>
      <trkpt lat="45.31755" lon="1.07951">
        <ele>233.2481842041</ele>
        <time>2020-06-23T18:39:11.369Z</time>
      </trkpt>
      <trkpt lat="45.31748" lon="1.07952">
        <ele>233.8720703125</ele>
        <time>2020-06-23T18:39:11.828Z</time>
      </trkpt>
      <trkpt lat="45.31743" lon="1.07957">
        <ele>234.1120300293</ele>
        <time>2020-06-23T18:39:12.288Z</time>
      </trkpt>
      <trkpt lat="45.31733" lon="1.07979">
        <ele>234.14379882812</ele>
        <time>2020-06-23T18:39:12.751Z</time>
      </trkpt>
      <trkpt lat="45.31729" lon="1.07998">
        <ele>234.37600708008</ele>
        <time>2020-06-23T18:39:13.216Z</time>
      </trkpt>
      <trkpt lat="45.31726" lon="1.08024">
        <ele>233.97085571289</ele>
        <time>2020-06-23T18:39:13.684Z</time>
      </trkpt>
      <trkpt lat="45.31726" lon="1.08024">
        <ele>233.96806335449</ele>
        <time>2020-06-23T18:39:14.152Z</time>
      </trkpt>
      <trkpt lat="45.31721" lon="1.08074">
        <ele>234.42283630371</ele>
        <time>2020-06-23T18:39:14.626Z</time>
      </trkpt>
      <trkpt lat="45.3171" lon="1.0813">
        <ele>237.94560241699</ele>
        <time>2020-06-23T18:39:15.106Z</time>
      </trkpt>
      <trkpt lat="45.31676" lon="1.08255">
        <ele>248.78366088867</ele>
        <time>2020-06-23T18:39:15.601Z</time>
      </trkpt>
      <trkpt lat="45.31664" lon="1.08303">
        <ele>250.36920166016</ele>
        <time>2020-06-23T18:39:16.102Z</time>
      </trkpt>
      <trkpt lat="45.31664" lon="1.08304">
        <ele>250.38334655762</ele>
        <time>2020-06-23T18:39:16.603Z</time>
      </trkpt>
      <trkpt lat="45.31634" lon="1.08415">
        <ele>249.37510681152</ele>
        <time>2020-06-23T18:39:17.118Z</time>
      </trkpt>
      <trkpt lat="45.31618" lon="1.08469">
        <ele>247.71621704102</ele>
        <time>2020-06-23T18:39:17.639Z</time>
      </trkpt>
      <trkpt lat="45.31607" lon="1.08497">
        <ele>247.74397277832</ele>
        <time>2020-06-23T18:39:18.164Z</time>
      </trkpt>
      <trkpt lat="45.31579" lon="1.08564">
        <ele>248.93258666992</ele>
        <time>2020-06-23T18:39:18.698Z</time>
      </trkpt>
      <trkpt lat="45.31579" lon="1.08565">
        <ele>248.98809814453</ele>
        <time>2020-06-23T18:39:19.232Z</time>
      </trkpt>
      <trkpt lat="45.31553" lon="1.08613">
        <ele>253.75843811035</ele>
        <time>2020-06-23T18:39:19.773Z</time>
      </trkpt>
      <trkpt lat="45.31493" lon="1.08666">
        <ele>259.0407409668</ele>
        <time>2020-06-23T18:39:20.325Z</time>
      </trkpt>
      <trkpt lat="45.3147" lon="1.08686">
        <ele>263.0182800293</ele>
        <time>2020-06-23T18:39:20.881Z</time>
      </trkpt>
      <trkpt lat="45.31449" lon="1.08709">
        <ele>265.41265869141</ele>
        <time>2020-06-23T18:39:21.442Z</time>
      </trkpt>
      <trkpt lat="45.31436" lon="1.08728">
        <ele>267.41098022461</ele>
        <time>2020-06-23T18:39:22.006Z</time>
      </trkpt>
      <trkpt lat="45.31423" lon="1.08752">
        <ele>268.25085449219</ele>
        <time>2020-06-23T18:39:22.573Z</time>
      </trkpt>
      <trkpt lat="45.31417" lon="1.08771">
        <ele>269.2998046875</ele>
        <time>2020-06-23T18:39:23.142Z</time>
      </trkpt>
      <trkpt lat="45.31414" lon="1.08788">
        <ele>270.76358032227</ele>
        <time>2020-06-23T18:39:23.713Z</time>
      </trkpt>
      <trkpt lat="45.31414" lon="1.08829">
        <ele>273.51629638672</ele>
        <time>2020-06-23T18:39:24.289Z</time>
      </trkpt>
      <trkpt lat="45.31411" lon="1.08863">
        <ele>275.99249267578</ele>
        <time>2020-06-23T18:39:24.869Z</time>
      </trkpt>
      <trkpt lat="45.31408" lon="1.08876">
        <ele>277.22830200195</ele>
        <time>2020-06-23T18:39:25.450Z</time>
      </trkpt>
      <trkpt lat="45.31392" lon="1.08911">
        <ele>279.79797363281</ele>
        <time>2020-06-23T18:39:26.036Z</time>
      </trkpt>
      <trkpt lat="45.31373" lon="1.0894">
        <ele>281.51153564453</ele>
        <time>2020-06-23T18:39:26.626Z</time>
      </trkpt>
      <trkpt lat="45.31357" lon="1.08956">
        <ele>281.86953735352</ele>
        <time>2020-06-23T18:39:27.220Z</time>
      </trkpt>
      <trkpt lat="45.31339" lon="1.08972">
        <ele>284.05316162109</ele>
        <time>2020-06-23T18:39:27.817Z</time>
      </trkpt>
      <trkpt lat="45.31325" lon="1.0898">
        <ele>284.90560913086</ele>
        <time>2020-06-23T18:39:28.416Z</time>
      </trkpt>
      <trkpt lat="45.31307" lon="1.08985">
        <ele>285.43353271484</ele>
        <time>2020-06-23T18:39:29.018Z</time>
      </trkpt>
      <trkpt lat="45.31297" lon="1.08983">
        <ele>286.38067626953</ele>
        <time>2020-06-23T18:39:29.622Z</time>
      </trkpt>
      <trkpt lat="45.3128" lon="1.08975">
        <ele>287.1100769043</ele>
        <time>2020-06-23T18:39:30.229Z</time>
      </trkpt>
      <trkpt lat="45.31264" lon="1.08964">
        <ele>287.47003173828</ele>
        <time>2020-06-23T18:39:30.839Z</time>
      </trkpt>
      <trkpt lat="45.31252" lon="1.08956">
        <ele>287.81164550781</ele>
        <time>2020-06-23T18:39:31.451Z</time>
      </trkpt>
      <trkpt lat="45.31251" lon="1.08956">
        <ele>287.82995605469</ele>
        <time>2020-06-23T18:39:32.063Z</time>
      </trkpt>
      <trkpt lat="45.31215" lon="1.08933">
        <ele>288.76580810547</ele>
        <time>2020-06-23T18:39:32.681Z</time>
      </trkpt>
      <trkpt lat="45.31209" lon="1.08932">
        <ele>288.74127197266</ele>
        <time>2020-06-23T18:39:33.300Z</time>
      </trkpt>
      <trkpt lat="45.31196" lon="1.08856">
        <ele>285.27124023438</ele>
        <time>2020-06-23T18:39:33.928Z</time>
      </trkpt>
      <trkpt lat="45.31195" lon="1.08847">
        <ele>284.89929199219</ele>
        <time>2020-06-23T18:39:34.557Z</time>
      </trkpt>
      <trkpt lat="45.31178" lon="1.08853">
        <ele>286.20709228516</ele>
        <time>2020-06-23T18:39:35.189Z</time>
      </trkpt>
      <trkpt lat="45.31168" lon="1.08857">
        <ele>286.32080078125</ele>
        <time>2020-06-23T18:39:35.823Z</time>
      </trkpt>
      <trkpt lat="45.31161" lon="1.08861">
        <ele>286.14083862305</ele>
        <time>2020-06-23T18:39:36.458Z</time>
      </trkpt>
      <trkpt lat="45.31149" lon="1.08877">
        <ele>285.61291503906</ele>
        <time>2020-06-23T18:39:37.095Z</time>
      </trkpt>
      <trkpt lat="45.31147" lon="1.08887">
        <ele>285.34896850586</ele>
        <time>2020-06-23T18:39:37.734Z</time>
      </trkpt>
      <trkpt lat="45.31142" lon="1.08929">
        <ele>285.69961547852</ele>
        <time>2020-06-23T18:39:38.377Z</time>
      </trkpt>
      <trkpt lat="45.31137" lon="1.08951">
        <ele>284.95574951172</ele>
        <time>2020-06-23T18:39:39.023Z</time>
      </trkpt>
      <trkpt lat="45.31109" lon="1.09002">
        <ele>281.76010131836</ele>
        <time>2020-06-23T18:39:39.676Z</time>
      </trkpt>
      <trkpt lat="45.31108" lon="1.09003">
        <ele>281.70181274414</ele>
        <time>2020-06-23T18:39:40.330Z</time>
      </trkpt>
      <trkpt lat="45.311" lon="1.09016">
        <ele>280.95791625977</ele>
        <time>2020-06-23T18:39:40.985Z</time>
      </trkpt>
      <trkpt lat="45.31094" lon="1.09036">
        <ele>280.20040893555</ele>
        <time>2020-06-23T18:39:41.643Z</time>
      </trkpt>
      <trkpt lat="45.31092" lon="1.09047">
        <ele>279.73251342773</ele>
        <time>2020-06-23T18:39:42.302Z</time>
      </trkpt>
      <trkpt lat="45.31094" lon="1.09069">
        <ele>279.69473266602</ele>
        <time>2020-06-23T18:39:42.964Z</time>
      </trkpt>
      <trkpt lat="45.31098" lon="1.09096">
        <ele>279.71871948242</ele>
        <time>2020-06-23T18:39:43.629Z</time>
      </trkpt>
      <trkpt lat="45.31098" lon="1.09119">
        <ele>279.26318359375</ele>
        <time>2020-06-23T18:39:44.296Z</time>
      </trkpt>
      <trkpt lat="45.31095" lon="1.09129">
        <ele>278.67529296875</ele>
        <time>2020-06-23T18:39:44.965Z</time>
      </trkpt>
      <trkpt lat="45.31086" lon="1.09142">
        <ele>277.11553955078</ele>
        <time>2020-06-23T18:39:45.636Z</time>
      </trkpt>
      <trkpt lat="45.31074" lon="1.09151">
        <ele>274.66790771484</ele>
        <time>2020-06-23T18:39:46.309Z</time>
      </trkpt>
      <trkpt lat="45.31051" lon="1.09161">
        <ele>270.52481079102</ele>
        <time>2020-06-23T18:39:46.986Z</time>
      </trkpt>
      <trkpt lat="45.31038" lon="1.09165">
        <ele>269.05267333984</ele>
        <time>2020-06-23T18:39:47.665Z</time>
      </trkpt>
      <trkpt lat="45.31015" lon="1.09166">
        <ele>267.32534790039</ele>
        <time>2020-06-23T18:39:48.348Z</time>
      </trkpt>
      <trkpt lat="45.31014" lon="1.09166">
        <ele>267.26495361328</ele>
        <time>2020-06-23T18:39:49.031Z</time>
      </trkpt>
      <trkpt lat="45.31001" lon="1.09164">
        <ele>266.44909667969</ele>
        <time>2020-06-23T18:39:49.716Z</time>
      </trkpt>
      <trkpt lat="45.30979" lon="1.09149">
        <ele>265.76522827148</ele>
        <time>2020-06-23T18:39:50.405Z</time>
      </trkpt>
      <trkpt lat="45.30899" lon="1.09086">
        <ele>257.34497070312</ele>
        <time>2020-06-23T18:39:51.108Z</time>
      </trkpt>
      <trkpt lat="45.30888" lon="1.09078">
        <ele>256.06118774414</ele>
        <time>2020-06-23T18:39:51.813Z</time>
      </trkpt>
      <trkpt lat="45.30881" lon="1.09076">
        <ele>255.28131103516</ele>
        <time>2020-06-23T18:39:52.519Z</time>
      </trkpt>
      <trkpt lat="45.30871" lon="1.09077">
        <ele>254.10322570801</ele>
        <time>2020-06-23T18:39:53.227Z</time>
      </trkpt>
      <trkpt lat="45.30862" lon="1.09081">
        <ele>253.07141113281</ele>
        <time>2020-06-23T18:39:53.937Z</time>
      </trkpt>
      <trkpt lat="45.30796" lon="1.09123">
        <ele>246.44459533691</ele>
        <time>2020-06-23T18:39:54.658Z</time>
      </trkpt>
      <trkpt lat="45.3078" lon="1.09133">
        <ele>245.42047119141</ele>
        <time>2020-06-23T18:39:55.382Z</time>
      </trkpt>
      <trkpt lat="45.30632" lon="1.09227">
        <ele>239.95056152344</ele>
        <time>2020-06-23T18:39:56.132Z</time>
      </trkpt>
      <trkpt lat="45.30567" lon="1.0927">
        <ele>235.67222595215</ele>
        <time>2020-06-23T18:39:56.893Z</time>
      </trkpt>
      <trkpt lat="45.30526" lon="1.09296">
        <ele>234.41528320312</ele>
        <time>2020-06-23T18:39:57.662Z</time>
      </trkpt>
      <trkpt lat="45.305" lon="1.0931">
        <ele>235.6781463623</ele>
        <time>2020-06-23T18:39:58.435Z</time>
      </trkpt>
      <trkpt lat="45.30475" lon="1.09316">
        <ele>236.21806335449</ele>
        <time>2020-06-23T18:39:59.212Z</time>
      </trkpt>
      <trkpt lat="45.30465" lon="1.09317">
        <ele>236.58471679688</ele>
        <time>2020-06-23T18:39:59.991Z</time>
      </trkpt>
      <trkpt lat="45.30429" lon="1.09313">
        <ele>238.09101867676</ele>
        <time>2020-06-23T18:40:00.775Z</time>
      </trkpt>
      <trkpt lat="45.30372" lon="1.09302">
        <ele>240.0080871582</ele>
        <time>2020-06-23T18:40:01.569Z</time>
      </trkpt>
      <trkpt lat="45.30371" lon="1.09302">
        <ele>240.01454162598</ele>
        <time>2020-06-23T18:40:02.363Z</time>
      </trkpt>
      <trkpt lat="45.30325" lon="1.09294">
        <ele>240.47045898438</ele>
        <time>2020-06-23T18:40:03.164Z</time>
      </trkpt>
      <trkpt lat="45.30303" lon="1.0929">
        <ele>240.68643188477</ele>
        <time>2020-06-23T18:40:03.969Z</time>
      </trkpt>
      <trkpt lat="45.30288" lon="1.09292">
        <ele>240.89039611816</ele>
        <time>2020-06-23T18:40:04.776Z</time>
      </trkpt>
      <trkpt lat="45.30273" lon="1.09296">
        <ele>241</ele>
        <time>2020-06-23T18:40:05.586Z</time>
      </trkpt>
      <trkpt lat="45.30252" lon="1.09308">
        <ele>241</ele>
        <time>2020-06-23T18:40:06.399Z</time>
      </trkpt>
      <trkpt lat="45.30211" lon="1.09332">
        <ele>240.35382080078</ele>
        <time>2020-06-23T18:40:07.219Z</time>
      </trkpt>
      <trkpt lat="45.30135" lon="1.09374">
        <ele>238.53829956055</ele>
        <time>2020-06-23T18:40:08.052Z</time>
      </trkpt>
      <trkpt lat="45.30118" lon="1.09375">
        <ele>238.12805175781</ele>
        <time>2020-06-23T18:40:08.888Z</time>
      </trkpt>
      <trkpt lat="45.30102" lon="1.09371">
        <ele>237.59590148926</ele>
        <time>2020-06-23T18:40:09.727Z</time>
      </trkpt>
      <trkpt lat="45.3006" lon="1.09357">
        <ele>236.42008972168</ele>
        <time>2020-06-23T18:40:10.573Z</time>
      </trkpt>
      <trkpt lat="45.30033" lon="1.09351">
        <ele>234.98532104492</ele>
        <time>2020-06-23T18:40:11.423Z</time>
      </trkpt>
      <trkpt lat="45.30011" lon="1.09353">
        <ele>233.49757385254</ele>
        <time>2020-06-23T18:40:12.277Z</time>
      </trkpt>
      <trkpt lat="45.29999" lon="1.09357">
        <ele>232.68798828125</ele>
        <time>2020-06-23T18:40:13.133Z</time>
      </trkpt>
      <trkpt lat="45.29973" lon="1.09374">
        <ele>231.11625671387</ele>
        <time>2020-06-23T18:40:13.993Z</time>
      </trkpt>
      <trkpt lat="45.29931" lon="1.09414">
        <ele>228.80908203125</ele>
        <time>2020-06-23T18:40:14.861Z</time>
      </trkpt>
      <trkpt lat="45.29887" lon="1.09463">
        <ele>224.82836914062</ele>
        <time>2020-06-23T18:40:15.738Z</time>
      </trkpt>
      <trkpt lat="45.29851" lon="1.09501">
        <ele>219.6229095459</ele>
        <time>2020-06-23T18:40:16.622Z</time>
      </trkpt>
      <trkpt lat="45.29822" lon="1.0953">
        <ele>215.08869934082</ele>
        <time>2020-06-23T18:40:17.512Z</time>
      </trkpt>
      <trkpt lat="45.29802" lon="1.09542">
        <ele>212.97706604004</ele>
        <time>2020-06-23T18:40:18.406Z</time>
      </trkpt>
      <trkpt lat="45.2979" lon="1.09548">
        <ele>211.82525634766</ele>
        <time>2020-06-23T18:40:19.302Z</time>
      </trkpt>
      <trkpt lat="45.29773" lon="1.0955">
        <ele>211.14712524414</ele>
        <time>2020-06-23T18:40:20.200Z</time>
      </trkpt>
      <trkpt lat="45.29759" lon="1.0955">
        <ele>210.81117248535</ele>
        <time>2020-06-23T18:40:21.101Z</time>
      </trkpt>
      <trkpt lat="45.29712" lon="1.09545">
        <ele>210.02737426758</ele>
        <time>2020-06-23T18:40:22.009Z</time>
      </trkpt>
      <trkpt lat="45.29655" lon="1.09537">
        <ele>207.70233154297</ele>
        <time>2020-06-23T18:40:22.926Z</time>
      </trkpt>
      <trkpt lat="45.29626" lon="1.09535">
        <ele>206.10682678223</ele>
        <time>2020-06-23T18:40:23.848Z</time>
      </trkpt>
      <trkpt lat="45.29615" lon="1.09537">
        <ele>205.12300109863</ele>
        <time>2020-06-23T18:40:24.772Z</time>
      </trkpt>
      <trkpt lat="45.29606" lon="1.09542">
        <ele>204.06771850586</ele>
        <time>2020-06-23T18:40:25.697Z</time>
      </trkpt>
      <trkpt lat="45.2959" lon="1.09554">
        <ele>202.10003662109</ele>
        <time>2020-06-23T18:40:26.625Z</time>
      </trkpt>
      <trkpt lat="45.29561" lon="1.09582">
        <ele>199.07279968262</ele>
        <time>2020-06-23T18:40:27.559Z</time>
      </trkpt>
      <trkpt lat="45.29561" lon="1.09582">
        <ele>199.0676574707</ele>
        <time>2020-06-23T18:40:28.493Z</time>
      </trkpt>
      <trkpt lat="45.29503" lon="1.09644">
        <ele>193.90594482422</ele>
        <time>2020-06-23T18:40:29.438Z</time>
      </trkpt>
      <trkpt lat="45.29481" lon="1.09663">
        <ele>192.85011291504</ele>
        <time>2020-06-23T18:40:30.387Z</time>
      </trkpt>
      <trkpt lat="45.29462" lon="1.09672">
        <ele>191.89196777344</ele>
        <time>2020-06-23T18:40:31.340Z</time>
      </trkpt>
      <trkpt lat="45.29435" lon="1.09672">
        <ele>189.62434387207</ele>
        <time>2020-06-23T18:40:32.297Z</time>
      </trkpt>
      <trkpt lat="45.29411" lon="1.09665">
        <ele>187.60868835449</ele>
        <time>2020-06-23T18:40:33.258Z</time>
      </trkpt>
      <trkpt lat="45.2939" lon="1.09661">
        <ele>185.93684387207</ele>
        <time>2020-06-23T18:40:34.222Z</time>
      </trkpt>
      <trkpt lat="45.29377" lon="1.09663">
        <ele>185.02499389648</ele>
        <time>2020-06-23T18:40:35.188Z</time>
      </trkpt>
      <trkpt lat="45.29317" lon="1.09686">
        <ele>179.64332580566</ele>
        <time>2020-06-23T18:40:36.164Z</time>
      </trkpt>
      <trkpt lat="45.29306" lon="1.09691">
        <ele>177.95161437988</ele>
        <time>2020-06-23T18:40:37.142Z</time>
      </trkpt>
      <trkpt lat="45.29287" lon="1.09705">
        <ele>176.03805541992</ele>
        <time>2020-06-23T18:40:38.124Z</time>
      </trkpt>
      <trkpt lat="45.29278" lon="1.09718">
        <ele>175.41416931152</ele>
        <time>2020-06-23T18:40:39.108Z</time>
      </trkpt>
      <trkpt lat="45.29268" lon="1.0974">
        <ele>174.67916870117</ele>
        <time>2020-06-23T18:40:40.095Z</time>
      </trkpt>
      <trkpt lat="45.29243" lon="1.0983">
        <ele>170.7530670166</ele>
        <time>2020-06-23T18:40:41.093Z</time>
      </trkpt>
      <trkpt lat="45.29234" lon="1.09863">
        <ele>167.79193115234</ele>
        <time>2020-06-23T18:40:42.095Z</time>
      </trkpt>
      <trkpt lat="45.29215" lon="1.09905">
        <ele>163.82513427734</ele>
        <time>2020-06-23T18:40:43.102Z</time>
      </trkpt>
      <trkpt lat="45.29194" lon="1.09929">
        <ele>162.91302490234</ele>
        <time>2020-06-23T18:40:44.114Z</time>
      </trkpt>
      <trkpt lat="45.29168" lon="1.09949">
        <ele>162.33200073242</ele>
        <time>2020-06-23T18:40:45.130Z</time>
      </trkpt>
      <trkpt lat="45.29141" lon="1.09967">
        <ele>162.11604309082</ele>
        <time>2020-06-23T18:40:46.151Z</time>
      </trkpt>
      <trkpt lat="45.29117" lon="1.0998">
        <ele>161.41596984863</ele>
        <time>2020-06-23T18:40:47.176Z</time>
      </trkpt>
      <trkpt lat="45.29075" lon="1.10001">
        <ele>159.14834594727</ele>
        <time>2020-06-23T18:40:48.208Z</time>
      </trkpt>
      <trkpt lat="45.29024" lon="1.10028">
        <ele>157.8430480957</ele>
        <time>2020-06-23T18:40:49.249Z</time>
      </trkpt>
      <trkpt lat="45.29005" lon="1.10037">
        <ele>157.05679321289</ele>
        <time>2020-06-23T18:40:50.293Z</time>
      </trkpt>
      <trkpt lat="45.28976" lon="1.1006">
        <ele>155.46105957031</ele>
        <time>2020-06-23T18:40:51.342Z</time>
      </trkpt>
      <trkpt lat="45.28946" lon="1.10087">
        <ele>153.93975830078</ele>
        <time>2020-06-23T18:40:52.397Z</time>
      </trkpt>
      <trkpt lat="45.28909" lon="1.10126">
        <ele>151.23211669922</ele>
        <time>2020-06-23T18:40:53.460Z</time>
      </trkpt>
      <trkpt lat="45.28836" lon="1.10201">
        <ele>145.03846740723</ele>
        <time>2020-06-23T18:40:54.537Z</time>
      </trkpt>
      <trkpt lat="45.28789" lon="1.10249">
        <ele>142.01763916016</ele>
        <time>2020-06-23T18:40:55.623Z</time>
      </trkpt>
      <trkpt lat="45.28789" lon="1.10249">
        <ele>141.99545288086</ele>
        <time>2020-06-23T18:40:56.709Z</time>
      </trkpt>
      <trkpt lat="45.28732" lon="1.10308">
        <ele>140.77397155762</ele>
        <time>2020-06-23T18:40:57.807Z</time>
      </trkpt>
      <trkpt lat="45.28684" lon="1.1036">
        <ele>141.1005859375</ele>
        <time>2020-06-23T18:40:58.914Z</time>
      </trkpt>
      <trkpt lat="45.28626" lon="1.10418">
        <ele>141.20634460449</ele>
        <time>2020-06-23T18:41:00.033Z</time>
      </trkpt>
      <trkpt lat="45.28572" lon="1.10475">
        <ele>143.14086914062</ele>
        <time>2020-06-23T18:41:01.162Z</time>
      </trkpt>
      <trkpt lat="45.2852" lon="1.10526">
        <ele>141.68397521973</ele>
        <time>2020-06-23T18:41:02.301Z</time>
      </trkpt>
      <trkpt lat="45.28484" lon="1.10564">
        <ele>139.50103759766</ele>
        <time>2020-06-23T18:41:03.448Z</time>
      </trkpt>
      <trkpt lat="45.28397" lon="1.10655">
        <ele>136.48150634766</ele>
        <time>2020-06-23T18:41:04.612Z</time>
      </trkpt>
      <trkpt lat="45.28348" lon="1.10705">
        <ele>138.11968994141</ele>
        <time>2020-06-23T18:41:05.786Z</time>
      </trkpt>
      <trkpt lat="45.28348" lon="1.10706">
        <ele>138.13111877441</ele>
        <time>2020-06-23T18:41:06.960Z</time>
      </trkpt>
      <trkpt lat="45.28303" lon="1.10751">
        <ele>138.92111206055</ele>
        <time>2020-06-23T18:41:08.143Z</time>
      </trkpt>
      <trkpt lat="45.28295" lon="1.1076">
        <ele>139</ele>
        <time>2020-06-23T18:41:09.327Z</time>
      </trkpt>
      <trkpt lat="45.2829" lon="1.10755">
        <ele>139</ele>
        <time>2020-06-23T18:41:10.512Z</time>
      </trkpt>
      <trkpt lat="45.28267" lon="1.10734">
        <ele>139</ele>
        <time>2020-06-23T18:41:11.702Z</time>
      </trkpt>
      <trkpt lat="45.2825" lon="1.10722">
        <ele>139.05754089355</ele>
        <time>2020-06-23T18:41:12.895Z</time>
      </trkpt>
      <trkpt lat="45.28234" lon="1.10714">
        <ele>139.15353393555</ele>
        <time>2020-06-23T18:41:14.090Z</time>
      </trkpt>
      <trkpt lat="45.2821" lon="1.10699">
        <ele>139.4073638916</ele>
        <time>2020-06-23T18:41:15.289Z</time>
      </trkpt>
      <trkpt lat="45.28199" lon="1.10686">
        <ele>139.8272857666</ele>
        <time>2020-06-23T18:41:16.491Z</time>
      </trkpt>
      <trkpt lat="45.28191" lon="1.10672">
        <ele>140.1872253418</ele>
        <time>2020-06-23T18:41:17.695Z</time>
      </trkpt>
      <trkpt lat="45.28174" lon="1.10648">
        <ele>140.88311767578</ele>
        <time>2020-06-23T18:41:18.903Z</time>
      </trkpt>
      <trkpt lat="45.28156" lon="1.10633">
        <ele>141.11889648438</ele>
        <time>2020-06-23T18:41:20.114Z</time>
      </trkpt>
      <trkpt lat="45.28136" lon="1.10622">
        <ele>141.33486938477</ele>
        <time>2020-06-23T18:41:21.328Z</time>
      </trkpt>
      <trkpt lat="45.28089" lon="1.10607">
        <ele>141.45994567871</ele>
        <time>2020-06-23T18:41:22.550Z</time>
      </trkpt>
      <trkpt lat="45.2806" lon="1.10599">
        <ele>140.86004638672</ele>
        <time>2020-06-23T18:41:23.777Z</time>
      </trkpt>
      <trkpt lat="45.28026" lon="1.10597">
        <ele>141.29098510742</ele>
        <time>2020-06-23T18:41:25.009Z</time>
      </trkpt>
      <trkpt lat="45.27967" lon="1.10594">
        <ele>142.01402282715</ele>
        <time>2020-06-23T18:41:26.251Z</time>
      </trkpt>
      <trkpt lat="45.27866" lon="1.10573">
        <ele>145.07150268555</ele>
        <time>2020-06-23T18:41:27.509Z</time>
      </trkpt>
      <trkpt lat="45.27866" lon="1.10573">
        <ele>145.07446289062</ele>
        <time>2020-06-23T18:41:28.767Z</time>
      </trkpt>
      <trkpt lat="45.27804" lon="1.10561">
        <ele>145.93536376953</ele>
        <time>2020-06-23T18:41:30.035Z</time>
      </trkpt>
      <trkpt lat="45.27785" lon="1.10557">
        <ele>146.45709228516</ele>
        <time>2020-06-23T18:41:31.306Z</time>
      </trkpt>
      <trkpt lat="45.27784" lon="1.10553">
        <ele>146.22912597656</ele>
        <time>2020-06-23T18:41:32.578Z</time>
      </trkpt>
      <trkpt lat="45.27777" lon="1.10554">
        <ele>146.72103881836</ele>
        <time>2020-06-23T18:41:33.851Z</time>
      </trkpt>
      <trkpt lat="45.27765" lon="1.10552">
        <ele>147.29695129395</ele>
        <time>2020-06-23T18:41:35.126Z</time>
      </trkpt>
      <trkpt lat="45.27755" lon="1.10548">
        <ele>147.60890197754</ele>
        <time>2020-06-23T18:41:36.402Z</time>
      </trkpt>
      <trkpt lat="45.27735" lon="1.10537">
        <ele>148.01683044434</ele>
        <time>2020-06-23T18:41:37.682Z</time>
      </trkpt>
      <trkpt lat="45.27728" lon="1.10531">
        <ele>148.00483703613</ele>
        <time>2020-06-23T18:41:38.963Z</time>
      </trkpt>
      <trkpt lat="45.27704" lon="1.10504">
        <ele>148.58009338379</ele>
        <time>2020-06-23T18:41:40.249Z</time>
      </trkpt>
      <trkpt lat="45.27658" lon="1.10451">
        <ele>151.1893157959</ele>
        <time>2020-06-23T18:41:41.545Z</time>
      </trkpt>
      <trkpt lat="45.27601" lon="1.10406">
        <ele>154.62496948242</ele>
        <time>2020-06-23T18:41:42.851Z</time>
      </trkpt>
      <trkpt lat="45.27579" lon="1.10389">
        <ele>155.9256439209</ele>
        <time>2020-06-23T18:41:44.161Z</time>
      </trkpt>
      <trkpt lat="45.2754" lon="1.10368">
        <ele>159.10029602051</ele>
        <time>2020-06-23T18:41:45.478Z</time>
      </trkpt>
      <trkpt lat="45.2752" lon="1.10363">
        <ele>159.8801574707</ele>
        <time>2020-06-23T18:41:46.798Z</time>
      </trkpt>
      <trkpt lat="45.27503" lon="1.10361">
        <ele>161.36276245117</ele>
        <time>2020-06-23T18:41:48.121Z</time>
      </trkpt>
      <trkpt lat="45.27478" lon="1.10363">
        <ele>164.72219848633</ele>
        <time>2020-06-23T18:41:49.448Z</time>
      </trkpt>
      <trkpt lat="45.2746" lon="1.10367">
        <ele>167.42457580566</ele>
        <time>2020-06-23T18:41:50.778Z</time>
      </trkpt>
      <trkpt lat="45.27439" lon="1.10376">
        <ele>170.14703369141</ele>
        <time>2020-06-23T18:41:52.111Z</time>
      </trkpt>
      <trkpt lat="45.27368" lon="1.10405">
        <ele>176.11268615723</ele>
        <time>2020-06-23T18:41:53.456Z</time>
      </trkpt>
      <trkpt lat="45.27324" lon="1.10424">
        <ele>178.03900146484</ele>
        <time>2020-06-23T18:41:54.808Z</time>
      </trkpt>
      <trkpt lat="45.27289" lon="1.10434">
        <ele>180.44439697266</ele>
        <time>2020-06-23T18:41:56.166Z</time>
      </trkpt>
      <trkpt lat="45.27268" lon="1.10437">
        <ele>181.09228515625</ele>
        <time>2020-06-23T18:41:57.527Z</time>
      </trkpt>
      <trkpt lat="45.27267" lon="1.10437">
        <ele>181.12139892578</ele>
        <time>2020-06-23T18:41:58.889Z</time>
      </trkpt>
      <trkpt lat="45.27164" lon="1.10449">
        <ele>187.17665100098</ele>
        <time>2020-06-23T18:42:00.267Z</time>
      </trkpt>
      <trkpt lat="45.27148" lon="1.10456">
        <ele>188.31646728516</ele>
        <time>2020-06-23T18:42:01.648Z</time>
      </trkpt>
      <trkpt lat="45.2714" lon="1.10462">
        <ele>189.15632629395</ele>
        <time>2020-06-23T18:42:03.030Z</time>
      </trkpt>
      <trkpt lat="45.27134" lon="1.10473">
        <ele>190.48809814453</ele>
        <time>2020-06-23T18:42:04.414Z</time>
      </trkpt>
      <trkpt lat="45.27134" lon="1.10474">
        <ele>190.57810974121</ele>
        <time>2020-06-23T18:42:05.798Z</time>
      </trkpt>
      <trkpt lat="45.2713" lon="1.10494">
        <ele>192.02931213379</ele>
        <time>2020-06-23T18:42:07.184Z</time>
      </trkpt>
      <trkpt lat="45.27129" lon="1.10516">
        <ele>193.35432434082</ele>
        <time>2020-06-23T18:42:08.573Z</time>
      </trkpt>
      <trkpt lat="45.27127" lon="1.10574">
        <ele>196.63623046875</ele>
        <time>2020-06-23T18:42:09.968Z</time>
      </trkpt>
      <trkpt lat="45.27127" lon="1.106">
        <ele>197.88401794434</ele>
        <time>2020-06-23T18:42:11.366Z</time>
      </trkpt>
      <trkpt lat="45.27133" lon="1.10628">
        <ele>199.25856018066</ele>
        <time>2020-06-23T18:42:12.768Z</time>
      </trkpt>
      <trkpt lat="45.27142" lon="1.10663">
        <ele>201.15132141113</ele>
        <time>2020-06-23T18:42:14.174Z</time>
      </trkpt>
      <trkpt lat="45.27144" lon="1.10682">
        <ele>201.90719604492</ele>
        <time>2020-06-23T18:42:15.582Z</time>
      </trkpt>
      <trkpt lat="45.2714" lon="1.10747">
        <ele>204.23606872559</ele>
        <time>2020-06-23T18:42:16.997Z</time>
      </trkpt>
      <trkpt lat="45.27136" lon="1.10827">
        <ele>206.14724731445</ele>
        <time>2020-06-23T18:42:18.421Z</time>
      </trkpt>
      <trkpt lat="45.27134" lon="1.10863">
        <ele>207.27505493164</ele>
        <time>2020-06-23T18:42:19.849Z</time>
      </trkpt>
      <trkpt lat="45.2713" lon="1.10884">
        <ele>207.69499206543</ele>
        <time>2020-06-23T18:42:21.280Z</time>
      </trkpt>
      <trkpt lat="45.27122" lon="1.10897">
        <ele>208.11320495605</ele>
        <time>2020-06-23T18:42:22.713Z</time>
      </trkpt>
      <trkpt lat="45.27107" lon="1.1091">
        <ele>208.84507751465</ele>
        <time>2020-06-23T18:42:24.149Z</time>
      </trkpt>
      <trkpt lat="45.27054" lon="1.10925">
        <ele>209.40240478516</ele>
        <time>2020-06-23T18:42:25.593Z</time>
      </trkpt>
      <trkpt lat="45.27023" lon="1.10936">
        <ele>210.03309631348</ele>
        <time>2020-06-23T18:42:27.042Z</time>
      </trkpt>
      <trkpt lat="45.27009" lon="1.10944">
        <ele>210.61354064941</ele>
        <time>2020-06-23T18:42:28.494Z</time>
      </trkpt>
      <trkpt lat="45.27009" lon="1.10944">
        <ele>210.61743164062</ele>
        <time>2020-06-23T18:42:29.946Z</time>
      </trkpt>
      <trkpt lat="45.27003" lon="1.10949">
        <ele>211.1414642334</ele>
        <time>2020-06-23T18:42:31.399Z</time>
      </trkpt>
      <trkpt lat="45.26989" lon="1.10965">
        <ele>212.89317321777</ele>
        <time>2020-06-23T18:42:32.855Z</time>
      </trkpt>
      <trkpt lat="45.26978" lon="1.10977">
        <ele>214.2106628418</ele>
        <time>2020-06-23T18:42:34.313Z</time>
      </trkpt>
      <trkpt lat="45.26964" lon="1.11002">
        <ele>216.81195068359</ele>
        <time>2020-06-23T18:42:35.775Z</time>
      </trkpt>
      <trkpt lat="45.26932" lon="1.11057">
        <ele>220.06341552734</ele>
        <time>2020-06-23T18:42:37.245Z</time>
      </trkpt>
      <trkpt lat="45.26915" lon="1.11081">
        <ele>221.47695922852</ele>
        <time>2020-06-23T18:42:38.719Z</time>
      </trkpt>
      <trkpt lat="45.26902" lon="1.11092">
        <ele>221.70491027832</ele>
        <time>2020-06-23T18:42:40.195Z</time>
      </trkpt>
      <trkpt lat="45.26887" lon="1.11098">
        <ele>221.16500854492</ele>
        <time>2020-06-23T18:42:41.673Z</time>
      </trkpt>
      <trkpt lat="45.26861" lon="1.11102">
        <ele>222.5725402832</ele>
        <time>2020-06-23T18:42:43.156Z</time>
      </trkpt>
      <trkpt lat="45.26837" lon="1.11099">
        <ele>224.22827148438</ele>
        <time>2020-06-23T18:42:44.642Z</time>
      </trkpt>
      <trkpt lat="45.26807" lon="1.11086">
        <ele>225.00825500488</ele>
        <time>2020-06-23T18:42:46.133Z</time>
      </trkpt>
      <trkpt lat="45.26786" lon="1.11068">
        <ele>224.3321685791</ele>
        <time>2020-06-23T18:42:47.628Z</time>
      </trkpt>
      <trkpt lat="45.26772" lon="1.11044">
        <ele>223.96601867676</ele>
        <time>2020-06-23T18:42:49.127Z</time>
      </trkpt>
      <trkpt lat="45.2674" lon="1.10979">
        <ele>222.62139892578</ele>
        <time>2020-06-23T18:42:50.635Z</time>
      </trkpt>
      <trkpt lat="45.26723" lon="1.10954">
        <ele>223.28746032715</ele>
        <time>2020-06-23T18:42:52.147Z</time>
      </trkpt>
      <trkpt lat="45.26712" lon="1.10944">
        <ele>224.06977844238</ele>
        <time>2020-06-23T18:42:53.661Z</time>
      </trkpt>
      <trkpt lat="45.26672" lon="1.10915">
        <ele>224.24974060059</ele>
        <time>2020-06-23T18:42:55.182Z</time>
      </trkpt>
      <trkpt lat="45.26541" lon="1.10836">
        <ele>225.60270690918</ele>
        <time>2020-06-23T18:42:56.726Z</time>
      </trkpt>
      <trkpt lat="45.26514" lon="1.10812">
        <ele>225.85467529297</ele>
        <time>2020-06-23T18:42:58.275Z</time>
      </trkpt>
      <trkpt lat="45.26507" lon="1.10804">
        <ele>226.06553649902</ele>
        <time>2020-06-23T18:42:59.825Z</time>
      </trkpt>
      <trkpt lat="45.26479" lon="1.10755">
        <ele>226.65342712402</ele>
        <time>2020-06-23T18:43:01.383Z</time>
      </trkpt>
      <trkpt lat="45.26432" lon="1.10671">
        <ele>226.56132507324</ele>
        <time>2020-06-23T18:43:02.953Z</time>
      </trkpt>
      <trkpt lat="45.26359" lon="1.1054">
        <ele>222.76286315918</ele>
        <time>2020-06-23T18:43:04.542Z</time>
      </trkpt>
      <trkpt lat="45.26296" lon="1.10428">
        <ele>220.83338928223</ele>
        <time>2020-06-23T18:43:06.147Z</time>
      </trkpt>
      <trkpt lat="45.26279" lon="1.10398">
        <ele>220.72540283203</ele>
        <time>2020-06-23T18:43:07.756Z</time>
      </trkpt>
      <trkpt lat="45.26268" lon="1.10385">
        <ele>220.91026306152</ele>
        <time>2020-06-23T18:43:09.367Z</time>
      </trkpt>
      <trkpt lat="45.26253" lon="1.10372">
        <ele>221.29420471191</ele>
        <time>2020-06-23T18:43:10.981Z</time>
      </trkpt>
      <trkpt lat="45.26237" lon="1.10361">
        <ele>221.73812866211</ele>
        <time>2020-06-23T18:43:12.598Z</time>
      </trkpt>
      <trkpt lat="45.26213" lon="1.10354">
        <ele>222.5179901123</ele>
        <time>2020-06-23T18:43:14.219Z</time>
      </trkpt>
      <trkpt lat="45.26202" lon="1.10353">
        <ele>222.64410400391</ele>
        <time>2020-06-23T18:43:15.842Z</time>
      </trkpt>
      <trkpt lat="45.26169" lon="1.10354">
        <ele>223.2081451416</ele>
        <time>2020-06-23T18:43:17.470Z</time>
      </trkpt>
      <trkpt lat="45.261" lon="1.10356">
        <ele>224.85202026367</ele>
        <time>2020-06-23T18:43:19.109Z</time>
      </trkpt>
      <trkpt lat="45.26049" lon="1.10357">
        <ele>226.3992767334</ele>
        <time>2020-06-23T18:43:20.756Z</time>
      </trkpt>
      <trkpt lat="45.2602" lon="1.10353">
        <ele>226.43406677246</ele>
        <time>2020-06-23T18:43:22.408Z</time>
      </trkpt>
      <trkpt lat="45.25981" lon="1.10334">
        <ele>224.94288635254</ele>
        <time>2020-06-23T18:43:24.066Z</time>
      </trkpt>
      <trkpt lat="45.25936" lon="1.1031">
        <ele>223.95825195312</ele>
        <time>2020-06-23T18:43:25.732Z</time>
      </trkpt>
      <trkpt lat="45.25936" lon="1.1031">
        <ele>223.96272277832</ele>
        <time>2020-06-23T18:43:27.398Z</time>
      </trkpt>
      <trkpt lat="45.2581" lon="1.10241">
        <ele>220.19281005859</ele>
        <time>2020-06-23T18:43:29.086Z</time>
      </trkpt>
      <trkpt lat="45.2581" lon="1.10241">
        <ele>220.17327880859</ele>
        <time>2020-06-23T18:43:30.774Z</time>
      </trkpt>
      <trkpt lat="45.2579" lon="1.1023">
        <ele>219.34135437012</ele>
        <time>2020-06-23T18:43:32.465Z</time>
      </trkpt>
      <trkpt lat="45.25777" lon="1.10227">
        <ele>219.47334289551</ele>
        <time>2020-06-23T18:43:34.158Z</time>
      </trkpt>
      <trkpt lat="45.25765" lon="1.10225">
        <ele>219.66186523438</ele>
        <time>2020-06-23T18:43:35.853Z</time>
      </trkpt>
      <trkpt lat="45.25744" lon="1.10229">
        <ele>220.3851776123</ele>
        <time>2020-06-23T18:43:37.552Z</time>
      </trkpt>
      <trkpt lat="45.2571" lon="1.10246">
        <ele>221.63035583496</ele>
        <time>2020-06-23T18:43:39.256Z</time>
      </trkpt>
      <trkpt lat="45.25666" lon="1.10265">
        <ele>221.2776184082</ele>
        <time>2020-06-23T18:43:40.968Z</time>
      </trkpt>
      <trkpt lat="45.25639" lon="1.10278">
        <ele>221.57757568359</ele>
        <time>2020-06-23T18:43:42.684Z</time>
      </trkpt>
      <trkpt lat="45.25638" lon="1.10278">
        <ele>221.58648681641</ele>
        <time>2020-06-23T18:43:44.400Z</time>
      </trkpt>
      <trkpt lat="45.25481" lon="1.1035">
        <ele>217.84396362305</ele>
        <time>2020-06-23T18:43:46.143Z</time>
      </trkpt>
      <trkpt lat="45.25441" lon="1.10366">
        <ele>215.81005859375</ele>
        <time>2020-06-23T18:43:47.893Z</time>
      </trkpt>
      <trkpt lat="45.25421" lon="1.10377">
        <ele>215.50064086914</ele>
        <time>2020-06-23T18:43:49.646Z</time>
      </trkpt>
      <trkpt lat="45.25395" lon="1.10393">
        <ele>215.18870544434</ele>
        <time>2020-06-23T18:43:51.404Z</time>
      </trkpt>
      <trkpt lat="45.25372" lon="1.1041">
        <ele>216.54347229004</ele>
        <time>2020-06-23T18:43:53.166Z</time>
      </trkpt>
      <trkpt lat="45.25352" lon="1.10424">
        <ele>218.51113891602</ele>
        <time>2020-06-23T18:43:54.931Z</time>
      </trkpt>
      <trkpt lat="45.25334" lon="1.10444">
        <ele>221.11408996582</ele>
        <time>2020-06-23T18:43:56.700Z</time>
      </trkpt>
      <trkpt lat="45.25338" lon="1.10453">
        <ele>221.65496826172</ele>
        <time>2020-06-23T18:43:58.470Z</time>
      </trkpt>
      <trkpt lat="45.25309" lon="1.1048">
        <ele>226.40629577637</ele>
        <time>2020-06-23T18:44:00.246Z</time>
      </trkpt>
      <trkpt lat="45.25218" lon="1.10626">
        <ele>237.3006439209</ele>
        <time>2020-06-23T18:44:02.044Z</time>
      </trkpt>
      <trkpt lat="45.25194" lon="1.10626">
        <ele>237.35426330566</ele>
        <time>2020-06-23T18:44:03.846Z</time>
      </trkpt>
      <trkpt lat="45.25109" lon="1.10548">
        <ele>237.16749572754</ele>
        <time>2020-06-23T18:44:05.664Z</time>
      </trkpt>
      <trkpt lat="45.25075" lon="1.10518">
        <ele>241.04281616211</ele>
        <time>2020-06-23T18:44:07.488Z</time>
      </trkpt>
      <trkpt lat="45.25043" lon="1.10522">
        <ele>243.2438659668</ele>
        <time>2020-06-23T18:44:09.317Z</time>
      </trkpt>
      <trkpt lat="45.24969" lon="1.1058">
        <ele>240.36524963379</ele>
        <time>2020-06-23T18:44:11.160Z</time>
      </trkpt>
      <trkpt lat="45.24868" lon="1.10614">
        <ele>232.49092102051</ele>
        <time>2020-06-23T18:44:13.019Z</time>
      </trkpt>
      <trkpt lat="45.24821" lon="1.10639">
        <ele>228.62631225586</ele>
        <time>2020-06-23T18:44:14.886Z</time>
      </trkpt>
      <trkpt lat="45.24762" lon="1.1065">
        <ele>224.97903442383</ele>
        <time>2020-06-23T18:44:16.763Z</time>
      </trkpt>
      <trkpt lat="45.24718" lon="1.10711">
        <ele>226.04393005371</ele>
        <time>2020-06-23T18:44:18.650Z</time>
      </trkpt>
      <trkpt lat="45.24692" lon="1.10733">
        <ele>227.39553833008</ele>
        <time>2020-06-23T18:44:20.542Z</time>
      </trkpt>
      <trkpt lat="45.24653" lon="1.10736">
        <ele>227.52426147461</ele>
        <time>2020-06-23T18:44:22.440Z</time>
      </trkpt>
      <trkpt lat="45.246" lon="1.10717">
        <ele>225.38031005859</ele>
        <time>2020-06-23T18:44:24.347Z</time>
      </trkpt>
      <trkpt lat="45.24589" lon="1.10721">
        <ele>224.94305419922</ele>
        <time>2020-06-23T18:44:26.256Z</time>
      </trkpt>
      <trkpt lat="45.24577" lon="1.10724">
        <ele>224.40200805664</ele>
        <time>2020-06-23T18:44:28.167Z</time>
      </trkpt>
      <trkpt lat="45.24503" lon="1.10796">
        <ele>220.23971557617</ele>
        <time>2020-06-23T18:44:30.092Z</time>
      </trkpt>
      <trkpt lat="45.24476" lon="1.10805">
        <ele>216.73840332031</ele>
        <time>2020-06-23T18:44:32.021Z</time>
      </trkpt>
      <trkpt lat="45.24432" lon="1.10785">
        <ele>215.88259887695</ele>
        <time>2020-06-23T18:44:33.958Z</time>
      </trkpt>
      <trkpt lat="45.24392" lon="1.10789">
        <ele>213.03778076172</ele>
        <time>2020-06-23T18:44:35.901Z</time>
      </trkpt>
      <trkpt lat="45.24376" lon="1.10802">
        <ele>211.17971801758</ele>
        <time>2020-06-23T18:44:37.847Z</time>
      </trkpt>
      <trkpt lat="45.24358" lon="1.10835">
        <ele>210.5910949707</ele>
        <time>2020-06-23T18:44:39.798Z</time>
      </trkpt>
      <trkpt lat="45.24358" lon="1.10835">
        <ele>210.591796875</ele>
        <time>2020-06-23T18:44:41.749Z</time>
      </trkpt>
      <trkpt lat="45.24358" lon="1.10835">
        <ele>210.5910949707</ele>
        <time>2020-06-23T18:44:43.700Z</time>
      </trkpt>
      <trkpt lat="45.24321" lon="1.10889">
        <ele>206.59825134277</ele>
        <time>2020-06-23T18:44:45.659Z</time>
      </trkpt>
      <trkpt lat="45.24291" lon="1.10902">
        <ele>205.85504150391</ele>
        <time>2020-06-23T18:44:47.623Z</time>
      </trkpt>
      <trkpt lat="45.24289" lon="1.10915">
        <ele>205.57174682617</ele>
        <time>2020-06-23T18:44:49.589Z</time>
      </trkpt>
      <trkpt lat="45.24268" lon="1.1092">
        <ele>205.7004699707</ele>
        <time>2020-06-23T18:44:51.558Z</time>
      </trkpt>
      <trkpt lat="45.24223" lon="1.10967">
        <ele>198.99371337891</ele>
        <time>2020-06-23T18:44:53.536Z</time>
      </trkpt>
      <trkpt lat="45.24168" lon="1.10992">
        <ele>197.90684509277</ele>
        <time>2020-06-23T18:44:55.523Z</time>
      </trkpt>
      <trkpt lat="45.24146" lon="1.10983">
        <ele>197.39195251465</ele>
        <time>2020-06-23T18:44:57.514Z</time>
      </trkpt>
      <trkpt lat="45.24123" lon="1.10957">
        <ele>199.25036621094</ele>
        <time>2020-06-23T18:44:59.510Z</time>
      </trkpt>
      <trkpt lat="45.24073" lon="1.10932">
        <ele>197.15303039551</ele>
        <time>2020-06-23T18:45:01.514Z</time>
      </trkpt>
      <trkpt lat="45.23868" lon="1.1075">
        <ele>198.95343017578</ele>
        <time>2020-06-23T18:45:03.557Z</time>
      </trkpt>
      <trkpt lat="45.2384" lon="1.10724">
        <ele>201.27561950684</ele>
        <time>2020-06-23T18:45:05.605Z</time>
      </trkpt>
      <trkpt lat="45.23779" lon="1.107">
        <ele>206.38670349121</ele>
        <time>2020-06-23T18:45:07.663Z</time>
      </trkpt>
      <trkpt lat="45.23702" lon="1.10685">
        <ele>206.86515808105</ele>
        <time>2020-06-23T18:45:09.734Z</time>
      </trkpt>
      <trkpt lat="45.23661" lon="1.10662">
        <ele>205.78387451172</ele>
        <time>2020-06-23T18:45:11.812Z</time>
      </trkpt>
      <trkpt lat="45.23579" lon="1.10559">
        <ele>204.88395690918</ele>
        <time>2020-06-23T18:45:13.908Z</time>
      </trkpt>
      <trkpt lat="45.23557" lon="1.10514">
        <ele>207.81767272949</ele>
        <time>2020-06-23T18:45:16.010Z</time>
      </trkpt>
      <trkpt lat="45.23557" lon="1.10514">
        <ele>207.81695556641</ele>
        <time>2020-06-23T18:45:18.112Z</time>
      </trkpt>
      <trkpt lat="45.23489" lon="1.10373">
        <ele>214.88136291504</ele>
        <time>2020-06-23T18:45:20.233Z</time>
      </trkpt>
      <trkpt lat="45.23403" lon="1.10237">
        <ele>218.30783081055</ele>
        <time>2020-06-23T18:45:22.375Z</time>
      </trkpt>
      <trkpt lat="45.2338" lon="1.1023">
        <ele>218.87422180176</ele>
        <time>2020-06-23T18:45:24.520Z</time>
      </trkpt>
      <trkpt lat="45.2332" lon="1.10239">
        <ele>222.08865356445</ele>
        <time>2020-06-23T18:45:26.675Z</time>
      </trkpt>
      <trkpt lat="45.23308" lon="1.10242">
        <ele>222.62120056152</ele>
        <time>2020-06-23T18:45:28.832Z</time>
      </trkpt>
      <trkpt lat="45.23281" lon="1.1023">
        <ele>225.41897583008</ele>
        <time>2020-06-23T18:45:30.994Z</time>
      </trkpt>
      <trkpt lat="45.23253" lon="1.10217">
        <ele>228.30311584473</ele>
        <time>2020-06-23T18:45:33.160Z</time>
      </trkpt>
      <trkpt lat="45.23241" lon="1.10212">
        <ele>229.38439941406</ele>
        <time>2020-06-23T18:45:35.328Z</time>
      </trkpt>
      <trkpt lat="45.23241" lon="1.10212">
        <ele>229.38531494141</ele>
        <time>2020-06-23T18:45:37.496Z</time>
      </trkpt>
      <trkpt lat="45.2321" lon="1.102">
        <ele>231.96011352539</ele>
        <time>2020-06-23T18:45:39.669Z</time>
      </trkpt>
      <trkpt lat="45.2321" lon="1.102">
        <ele>231.96041870117</ele>
        <time>2020-06-23T18:45:41.842Z</time>
      </trkpt>
      <trkpt lat="45.23192" lon="1.10193">
        <ele>231.02575683594</ele>
        <time>2020-06-23T18:45:44.019Z</time>
      </trkpt>
      <trkpt lat="45.23166" lon="1.10259">
        <ele>229.2088470459</ele>
        <time>2020-06-23T18:45:46.204Z</time>
      </trkpt>
      <trkpt lat="45.23141" lon="1.1034">
        <ele>228.77281188965</ele>
        <time>2020-06-23T18:45:48.399Z</time>
      </trkpt>
      <trkpt lat="45.23099" lon="1.10355">
        <ele>229.89152526855</ele>
        <time>2020-06-23T18:45:50.601Z</time>
      </trkpt>
      <trkpt lat="45.2302" lon="1.10395">
        <ele>228.75637817383</ele>
        <time>2020-06-23T18:45:52.816Z</time>
      </trkpt>
      <trkpt lat="45.22787" lon="1.10555">
        <ele>231.92333984375</ele>
        <time>2020-06-23T18:45:55.073Z</time>
      </trkpt>
      <trkpt lat="45.22787" lon="1.10555">
        <ele>231.92263793945</ele>
        <time>2020-06-23T18:45:57.330Z</time>
      </trkpt>
      <trkpt lat="45.22777" lon="1.10562">
        <ele>232.34846496582</ele>
        <time>2020-06-23T18:45:59.589Z</time>
      </trkpt>
      <trkpt lat="45.22729" lon="1.10568">
        <ele>235.97848510742</ele>
        <time>2020-06-23T18:46:01.855Z</time>
      </trkpt>
      <trkpt lat="45.2265" lon="1.106">
        <ele>236.83511352539</ele>
        <time>2020-06-23T18:46:04.135Z</time>
      </trkpt>
      <trkpt lat="45.22585" lon="1.10562">
        <ele>243.51448059082</ele>
        <time>2020-06-23T18:46:06.426Z</time>
      </trkpt>
      <trkpt lat="45.22538" lon="1.1055">
        <ele>246.41069030762</ele>
        <time>2020-06-23T18:46:08.724Z</time>
      </trkpt>
      <trkpt lat="45.22353" lon="1.10601">
        <ele>247.25218200684</ele>
        <time>2020-06-23T18:46:11.053Z</time>
      </trkpt>
      <trkpt lat="45.22298" lon="1.10637">
        <ele>250.27716064453</ele>
        <time>2020-06-23T18:46:13.391Z</time>
      </trkpt>
      <trkpt lat="45.22298" lon="1.10637">
        <ele>250.27816772461</ele>
        <time>2020-06-23T18:46:15.729Z</time>
      </trkpt>
      <trkpt lat="45.22273" lon="1.10654">
        <ele>251.48321533203</ele>
        <time>2020-06-23T18:46:18.072Z</time>
      </trkpt>
      <trkpt lat="45.22105" lon="1.10775">
        <ele>260.46865844727</ele>
        <time>2020-06-23T18:46:20.445Z</time>
      </trkpt>
      <trkpt lat="45.22055" lon="1.10848">
        <ele>268.02108764648</ele>
        <time>2020-06-23T18:46:22.829Z</time>
      </trkpt>
      <trkpt lat="45.22055" lon="1.10848">
        <ele>268.01867675781</ele>
        <time>2020-06-23T18:46:25.213Z</time>
      </trkpt>
      <trkpt lat="45.21964" lon="1.10982">
        <ele>279.84466552734</ele>
        <time>2020-06-23T18:46:27.618Z</time>
      </trkpt>
      <trkpt lat="45.21922" lon="1.11044">
        <ele>282.30810546875</ele>
        <time>2020-06-23T18:46:30.033Z</time>
      </trkpt>
      <trkpt lat="45.219" lon="1.1107">
        <ele>283.74951171875</ele>
        <time>2020-06-23T18:46:32.453Z</time>
      </trkpt>
      <trkpt lat="45.21788" lon="1.1121">
        <ele>282.38217163086</ele>
        <time>2020-06-23T18:46:34.897Z</time>
      </trkpt>
      <trkpt lat="45.21751" lon="1.11254">
        <ele>275.97555541992</ele>
        <time>2020-06-23T18:46:37.348Z</time>
      </trkpt>
      <trkpt lat="45.2164" lon="1.11356">
        <ele>263.27349853516</ele>
        <time>2020-06-23T18:46:39.821Z</time>
      </trkpt>
      <trkpt lat="45.21512" lon="1.11521">
        <ele>260.92471313477</ele>
        <time>2020-06-23T18:46:42.321Z</time>
      </trkpt>
      <trkpt lat="45.21483" lon="1.11568">
        <ele>261.27868652344</ele>
        <time>2020-06-23T18:46:44.828Z</time>
      </trkpt>
      <trkpt lat="45.21385" lon="1.11814">
        <ele>250.41297912598</ele>
        <time>2020-06-23T18:46:47.367Z</time>
      </trkpt>
      <trkpt lat="45.21362" lon="1.11856">
        <ele>247.13223266602</ele>
        <time>2020-06-23T18:46:49.912Z</time>
      </trkpt>
      <trkpt lat="45.21327" lon="1.11876">
        <ele>242.07098388672</ele>
        <time>2020-06-23T18:46:52.463Z</time>
      </trkpt>
      <trkpt lat="45.21268" lon="1.11864">
        <ele>236.91650390625</ele>
        <time>2020-06-23T18:46:55.024Z</time>
      </trkpt>
      <trkpt lat="45.21254" lon="1.11857">
        <ele>236.50921630859</ele>
        <time>2020-06-23T18:46:57.587Z</time>
      </trkpt>
      <trkpt lat="45.21254" lon="1.11857">
        <ele>236.50952148438</ele>
        <time>2020-06-23T18:47:00.150Z</time>
      </trkpt>
      <trkpt lat="45.21193" lon="1.11825">
        <ele>236.61601257324</ele>
        <time>2020-06-23T18:47:02.724Z</time>
      </trkpt>
      <trkpt lat="45.21161" lon="1.11825">
        <ele>239.31852722168</ele>
        <time>2020-06-23T18:47:05.303Z</time>
      </trkpt>
      <trkpt lat="45.21125" lon="1.11826">
        <ele>242.50067138672</ele>
        <time>2020-06-23T18:47:07.887Z</time>
      </trkpt>
      <trkpt lat="45.21097" lon="1.11826">
        <ele>246.51689147949</ele>
        <time>2020-06-23T18:47:10.476Z</time>
      </trkpt>
      <trkpt lat="45.21081" lon="1.11856">
        <ele>248.60855102539</ele>
        <time>2020-06-23T18:47:13.069Z</time>
      </trkpt>
      <trkpt lat="45.21066" lon="1.11901">
        <ele>249.58242797852</ele>
        <time>2020-06-23T18:47:15.668Z</time>
      </trkpt>
      <trkpt lat="45.21051" lon="1.11974">
        <ele>250.47972106934</ele>
        <time>2020-06-23T18:47:18.275Z</time>
      </trkpt>
      <trkpt lat="45.21048" lon="1.11988">
        <ele>250.43020629883</ele>
        <time>2020-06-23T18:47:20.884Z</time>
      </trkpt>
      <trkpt lat="45.21033" lon="1.12055">
        <ele>251.58493041992</ele>
        <time>2020-06-23T18:47:23.501Z</time>
      </trkpt>
      <trkpt lat="45.21006" lon="1.1212">
        <ele>257.10137939453</ele>
        <time>2020-06-23T18:47:26.127Z</time>
      </trkpt>
      <trkpt lat="45.20924" lon="1.12274">
        <ele>270.04843139648</ele>
        <time>2020-06-23T18:47:28.774Z</time>
      </trkpt>
      <trkpt lat="45.20924" lon="1.12274">
        <ele>270.04803466797</ele>
        <time>2020-06-23T18:47:31.421Z</time>
      </trkpt>
      <trkpt lat="45.20897" lon="1.12326">
        <ele>274.08401489258</ele>
        <time>2020-06-23T18:47:34.076Z</time>
      </trkpt>
      <trkpt lat="45.20872" lon="1.12349">
        <ele>278.64666748047</ele>
        <time>2020-06-23T18:47:36.736Z</time>
      </trkpt>
      <trkpt lat="45.2085" lon="1.12349">
        <ele>280.96459960938</ele>
        <time>2020-06-23T18:47:39.399Z</time>
      </trkpt>
      <trkpt lat="45.20784" lon="1.12325">
        <ele>286.47317504883</ele>
        <time>2020-06-23T18:47:42.073Z</time>
      </trkpt>
      <trkpt lat="45.20766" lon="1.12325">
        <ele>286.69192504883</ele>
        <time>2020-06-23T18:47:44.750Z</time>
      </trkpt>
      <trkpt lat="45.20716" lon="1.12338">
        <ele>287.61883544922</ele>
        <time>2020-06-23T18:47:47.435Z</time>
      </trkpt>
      <trkpt lat="45.20697" lon="1.12334">
        <ele>287.39169311523</ele>
        <time>2020-06-23T18:47:50.123Z</time>
      </trkpt>
      <trkpt lat="45.2062" lon="1.12289">
        <ele>284.65032958984</ele>
        <time>2020-06-23T18:47:52.824Z</time>
      </trkpt>
      <trkpt lat="45.20561" lon="1.12296">
        <ele>281.04333496094</ele>
        <time>2020-06-23T18:47:55.535Z</time>
      </trkpt>
      <trkpt lat="45.20335" lon="1.12278">
        <ele>267.96810913086</ele>
        <time>2020-06-23T18:47:58.282Z</time>
      </trkpt>
      <trkpt lat="45.20325" lon="1.1227">
        <ele>267.71246337891</ele>
        <time>2020-06-23T18:48:01.031Z</time>
      </trkpt>
      <trkpt lat="45.20325" lon="1.1227">
        <ele>267.71264648438</ele>
        <time>2020-06-23T18:48:03.780Z</time>
      </trkpt>
      <trkpt lat="45.20269" lon="1.12229">
        <ele>267.94213867188</ele>
        <time>2020-06-23T18:48:06.539Z</time>
      </trkpt>
      <trkpt lat="45.20231" lon="1.12188">
        <ele>270.22543334961</ele>
        <time>2020-06-23T18:48:09.306Z</time>
      </trkpt>
      <trkpt lat="45.20216" lon="1.1215">
        <ele>271.69287109375</ele>
        <time>2020-06-23T18:48:12.078Z</time>
      </trkpt>
      <trkpt lat="45.20211" lon="1.12079">
        <ele>275.97567749023</ele>
        <time>2020-06-23T18:48:14.858Z</time>
      </trkpt>
      <trkpt lat="45.20201" lon="1.12066">
        <ele>277.79159545898</ele>
        <time>2020-06-23T18:48:17.640Z</time>
      </trkpt>
      <trkpt lat="45.2014" lon="1.12033">
        <ele>283.73162841797</ele>
        <time>2020-06-23T18:48:20.432Z</time>
      </trkpt>
      <trkpt lat="45.20069" lon="1.11976">
        <ele>290.76083374023</ele>
        <time>2020-06-23T18:48:23.237Z</time>
      </trkpt>
      <trkpt lat="45.20042" lon="1.11954">
        <ele>292.48281860352</ele>
        <time>2020-06-23T18:48:26.047Z</time>
      </trkpt>
      <trkpt lat="45.2001" lon="1.11949">
        <ele>295.31127929688</ele>
        <time>2020-06-23T18:48:28.862Z</time>
      </trkpt>
      <trkpt lat="45.19898" lon="1.11969">
        <ele>303.47705078125</ele>
        <time>2020-06-23T18:48:31.696Z</time>
      </trkpt>
      <trkpt lat="45.19898" lon="1.11969">
        <ele>303.47735595703</ele>
        <time>2020-06-23T18:48:34.530Z</time>
      </trkpt>
      <trkpt lat="45.19852" lon="1.11979">
        <ele>306.65521240234</ele>
        <time>2020-06-23T18:48:37.371Z</time>
      </trkpt>
      <trkpt lat="45.19801" lon="1.11968">
        <ele>308.5852355957</ele>
        <time>2020-06-23T18:48:40.220Z</time>
      </trkpt>
      <trkpt lat="45.19768" lon="1.1198">
        <ele>309.78521728516</ele>
        <time>2020-06-23T18:48:43.075Z</time>
      </trkpt>
      <trkpt lat="45.19754" lon="1.12006">
        <ele>310.54479980469</ele>
        <time>2020-06-23T18:48:45.933Z</time>
      </trkpt>
      <trkpt lat="45.19746" lon="1.12151">
        <ele>309.57775878906</ele>
        <time>2020-06-23T18:48:48.808Z</time>
      </trkpt>
      <trkpt lat="45.19742" lon="1.12196">
        <ele>303.97436523438</ele>
        <time>2020-06-23T18:48:51.688Z</time>
      </trkpt>
      <trkpt lat="45.1972" lon="1.12244">
        <ele>302.93453979492</ele>
        <time>2020-06-23T18:48:54.574Z</time>
      </trkpt>
      <trkpt lat="45.19683" lon="1.12283">
        <ele>301.41635131836</ele>
        <time>2020-06-23T18:48:57.468Z</time>
      </trkpt>
      <trkpt lat="45.1967" lon="1.12315">
        <ele>304.68432617188</ele>
        <time>2020-06-23T18:49:00.366Z</time>
      </trkpt>
      <trkpt lat="45.19649" lon="1.12452">
        <ele>308.40335083008</ele>
        <time>2020-06-23T18:49:03.280Z</time>
      </trkpt>
      <trkpt lat="45.19592" lon="1.12575">
        <ele>318.81442260742</ele>
        <time>2020-06-23T18:49:06.210Z</time>
      </trkpt>
      <trkpt lat="45.1955" lon="1.12617">
        <ele>320.62173461914</ele>
        <time>2020-06-23T18:49:09.149Z</time>
      </trkpt>
      <trkpt lat="45.19419" lon="1.12647">
        <ele>328.62112426758</ele>
        <time>2020-06-23T18:49:12.109Z</time>
      </trkpt>
      <trkpt lat="45.19419" lon="1.12647">
        <ele>328.61929321289</ele>
        <time>2020-06-23T18:49:15.069Z</time>
      </trkpt>
      <trkpt lat="45.19264" lon="1.12682">
        <ele>336.23080444336</ele>
        <time>2020-06-23T18:49:18.054Z</time>
      </trkpt>
      <trkpt lat="45.19081" lon="1.12756">
        <ele>319.11096191406</ele>
        <time>2020-06-23T18:49:21.069Z</time>
      </trkpt>
      <trkpt lat="45.19039" lon="1.12765">
        <ele>313.50875854492</ele>
        <time>2020-06-23T18:49:24.091Z</time>
      </trkpt>
      <trkpt lat="45.19029" lon="1.12764">
        <ele>312.79956054688</ele>
        <time>2020-06-23T18:49:27.115Z</time>
      </trkpt>
      <trkpt lat="45.19029" lon="1.12764">
        <ele>312.8000793457</ele>
        <time>2020-06-23T18:49:30.139Z</time>
      </trkpt>
      <trkpt lat="45.19007" lon="1.12761">
        <ele>311.37191772461</ele>
        <time>2020-06-23T18:49:33.166Z</time>
      </trkpt>
      <trkpt lat="45.18876" lon="1.12706">
        <ele>305.76773071289</ele>
        <time>2020-06-23T18:49:36.215Z</time>
      </trkpt>
      <trkpt lat="45.18874" lon="1.12698">
        <ele>306.10250854492</ele>
        <time>2020-06-23T18:49:39.265Z</time>
      </trkpt>
      <trkpt lat="45.1883" lon="1.12693">
        <ele>306.02224731445</ele>
        <time>2020-06-23T18:49:42.322Z</time>
      </trkpt>
      <trkpt lat="45.18707" lon="1.12741">
        <ele>304.98193359375</ele>
        <time>2020-06-23T18:49:45.400Z</time>
      </trkpt>
      <trkpt lat="45.18591" lon="1.12712">
        <ele>307.47265625</ele>
        <time>2020-06-23T18:49:48.497Z</time>
      </trkpt>
      <trkpt lat="45.18532" lon="1.12758">
        <ele>302.7428894043</ele>
        <time>2020-06-23T18:49:51.604Z</time>
      </trkpt>
      <trkpt lat="45.18419" lon="1.12807">
        <ele>302.9274597168</ele>
        <time>2020-06-23T18:49:54.730Z</time>
      </trkpt>
      <trkpt lat="45.18188" lon="1.12848">
        <ele>303.59994506836</ele>
        <time>2020-06-23T18:49:57.894Z</time>
      </trkpt>
      <trkpt lat="45.18152" lon="1.12828">
        <ele>303.12365722656</ele>
        <time>2020-06-23T18:50:01.064Z</time>
      </trkpt>
      <trkpt lat="45.18136" lon="1.12819">
        <ele>302.87387084961</ele>
        <time>2020-06-23T18:50:04.237Z</time>
      </trkpt>
      <trkpt lat="45.18076" lon="1.12733">
        <ele>305.52416992188</ele>
        <time>2020-06-23T18:50:07.423Z</time>
      </trkpt>
      <trkpt lat="45.17997" lon="1.12702">
        <ele>310.05563354492</ele>
        <time>2020-06-23T18:50:10.622Z</time>
      </trkpt>
      <trkpt lat="45.17954" lon="1.12713">
        <ele>310.97766113281</ele>
        <time>2020-06-23T18:50:13.828Z</time>
      </trkpt>
      <trkpt lat="45.17907" lon="1.12793">
        <ele>308.3935546875</ele>
        <time>2020-06-23T18:50:17.046Z</time>
      </trkpt>
      <trkpt lat="45.17907" lon="1.12793">
        <ele>308.39373779297</ele>
        <time>2020-06-23T18:50:20.264Z</time>
      </trkpt>
      <trkpt lat="45.17898" lon="1.12808">
        <ele>308.72399902344</ele>
        <time>2020-06-23T18:50:23.484Z</time>
      </trkpt>
      <trkpt lat="45.17869" lon="1.12824">
        <ele>309.9889831543</ele>
        <time>2020-06-23T18:50:26.709Z</time>
      </trkpt>
      <trkpt lat="45.17765" lon="1.12803">
        <ele>312.11825561523</ele>
        <time>2020-06-23T18:50:29.951Z</time>
      </trkpt>
      <trkpt lat="45.17697" lon="1.12832">
        <ele>309.00729370117</ele>
        <time>2020-06-23T18:50:33.205Z</time>
      </trkpt>
      <trkpt lat="45.17563" lon="1.12788">
        <ele>302.85473632812</ele>
        <time>2020-06-23T18:50:36.481Z</time>
      </trkpt>
      <trkpt lat="45.17563" lon="1.12788">
        <ele>302.85443115234</ele>
        <time>2020-06-23T18:50:39.757Z</time>
      </trkpt>
      <trkpt lat="45.17444" lon="1.12749">
        <ele>297.61489868164</ele>
        <time>2020-06-23T18:50:43.052Z</time>
      </trkpt>
      <trkpt lat="45.17337" lon="1.12698">
        <ele>300.98895263672</ele>
        <time>2020-06-23T18:50:46.365Z</time>
      </trkpt>
      <trkpt lat="45.17247" lon="1.12583">
        <ele>296.78186035156</ele>
        <time>2020-06-23T18:50:49.698Z</time>
      </trkpt>
      <trkpt lat="45.17099" lon="1.1247">
        <ele>290.37606811523</ele>
        <time>2020-06-23T18:50:53.058Z</time>
      </trkpt>
      <trkpt lat="45.16949" lon="1.12447">
        <ele>287.73715209961</ele>
        <time>2020-06-23T18:50:56.442Z</time>
      </trkpt>
      <trkpt lat="45.16841" lon="1.12491">
        <ele>278.69018554688</ele>
        <time>2020-06-23T18:50:59.844Z</time>
      </trkpt>
      <trkpt lat="45.16818" lon="1.12511">
        <ele>276.77368164062</ele>
        <time>2020-06-23T18:51:03.250Z</time>
      </trkpt>
      <trkpt lat="45.16794" lon="1.12544">
        <ele>275.48251342773</ele>
        <time>2020-06-23T18:51:06.661Z</time>
      </trkpt>
      <trkpt lat="45.16764" lon="1.12593">
        <ele>272.32788085938</ele>
        <time>2020-06-23T18:51:10.080Z</time>
      </trkpt>
      <trkpt lat="45.16735" lon="1.12614">
        <ele>273.58953857422</ele>
        <time>2020-06-23T18:51:13.504Z</time>
      </trkpt>
      <trkpt lat="45.16673" lon="1.1264">
        <ele>274.63842773438</ele>
        <time>2020-06-23T18:51:16.938Z</time>
      </trkpt>
      <trkpt lat="45.16635" lon="1.12653">
        <ele>273.21588134766</ele>
        <time>2020-06-23T18:51:20.378Z</time>
      </trkpt>
      <trkpt lat="45.166" lon="1.12665">
        <ele>270.12054443359</ele>
        <time>2020-06-23T18:51:23.824Z</time>
      </trkpt>
      <trkpt lat="45.16563" lon="1.1269">
        <ele>267.02975463867</ele>
        <time>2020-06-23T18:51:27.277Z</time>
      </trkpt>
      <trkpt lat="45.16529" lon="1.12728">
        <ele>264.10894775391</ele>
        <time>2020-06-23T18:51:30.737Z</time>
      </trkpt>
      <trkpt lat="45.16519" lon="1.12753">
        <ele>259.705078125</ele>
        <time>2020-06-23T18:51:34.200Z</time>
      </trkpt>
      <trkpt lat="45.16505" lon="1.12763">
        <ele>256.0364074707</ele>
        <time>2020-06-23T18:51:37.666Z</time>
      </trkpt>
      <trkpt lat="45.16386" lon="1.12763">
        <ele>239.03736877441</ele>
        <time>2020-06-23T18:51:41.151Z</time>
      </trkpt>
      <trkpt lat="45.16311" lon="1.12756">
        <ele>229.25378417969</ele>
        <time>2020-06-23T18:51:44.648Z</time>
      </trkpt>
      <trkpt lat="45.16311" lon="1.12756">
        <ele>229.25459289551</ele>
        <time>2020-06-23T18:51:48.145Z</time>
      </trkpt>
      <trkpt lat="45.16295" lon="1.12755">
        <ele>227.72015380859</ele>
        <time>2020-06-23T18:51:51.644Z</time>
      </trkpt>
      <trkpt lat="45.16274" lon="1.12723">
        <ele>225.21243286133</ele>
        <time>2020-06-23T18:51:55.148Z</time>
      </trkpt>
      <trkpt lat="45.16185" lon="1.12688">
        <ele>212.46971130371</ele>
        <time>2020-06-23T18:51:58.667Z</time>
      </trkpt>
      <trkpt lat="45.15939" lon="1.1265">
        <ele>195.54472351074</ele>
        <time>2020-06-23T18:52:02.226Z</time>
      </trkpt>
      <trkpt lat="45.15855" lon="1.12614">
        <ele>189.17391967773</ele>
        <time>2020-06-23T18:52:05.799Z</time>
      </trkpt>
      <trkpt lat="45.1577" lon="1.12561">
        <ele>182.2972869873</ele>
        <time>2020-06-23T18:52:09.386Z</time>
      </trkpt>
      <trkpt lat="45.15729" lon="1.12526">
        <ele>178.2691192627</ele>
        <time>2020-06-23T18:52:12.981Z</time>
      </trkpt>
      <trkpt lat="45.15661" lon="1.12437">
        <ele>171.77206420898</ele>
        <time>2020-06-23T18:52:16.591Z</time>
      </trkpt>
      <trkpt lat="45.15623" lon="1.12357">
        <ele>165.31364440918</ele>
        <time>2020-06-23T18:52:20.212Z</time>
      </trkpt>
      <trkpt lat="45.15563" lon="1.12321">
        <ele>163.52397155762</ele>
        <time>2020-06-23T18:52:23.843Z</time>
      </trkpt>
      <trkpt lat="45.15563" lon="1.12321">
        <ele>163.52436828613</ele>
        <time>2020-06-23T18:52:27.474Z</time>
      </trkpt>
      <trkpt lat="45.15476" lon="1.12305">
        <ele>159.55047607422</ele>
        <time>2020-06-23T18:52:31.119Z</time>
      </trkpt>
      <trkpt lat="45.15289" lon="1.1229">
        <ele>149.82894897461</ele>
        <time>2020-06-23T18:52:34.794Z</time>
      </trkpt>
      <trkpt lat="45.15289" lon="1.1229">
        <ele>149.82844543457</ele>
        <time>2020-06-23T18:52:38.469Z</time>
      </trkpt>
      <trkpt lat="45.15258" lon="1.12287">
        <ele>150.59213256836</ele>
        <time>2020-06-23T18:52:42.149Z</time>
      </trkpt>
      <trkpt lat="45.15243" lon="1.12287">
        <ele>150.59213256836</ele>
        <time>2020-06-23T18:52:45.832Z</time>
      </trkpt>
      <trkpt lat="45.15227" lon="1.12287">
        <ele>150.59213256836</ele>
        <time>2020-06-23T18:52:49.517Z</time>
      </trkpt>
      <trkpt lat="45.15216" lon="1.12287">
        <ele>150.59213256836</ele>
        <time>2020-06-23T18:52:53.204Z</time>
      </trkpt>
      <trkpt lat="45.15191" lon="1.12267">
        <ele>147.21102905273</ele>
        <time>2020-06-23T18:52:56.896Z</time>
      </trkpt>
      <trkpt lat="45.15191" lon="1.12267">
        <ele>147.21192932129</ele>
        <time>2020-06-23T18:53:00.588Z</time>
      </trkpt>
      <trkpt lat="45.1517" lon="1.1225">
        <ele>143.93228149414</ele>
        <time>2020-06-23T18:53:04.284Z</time>
      </trkpt>
      <trkpt lat="45.15132" lon="1.12248">
        <ele>139.95111083984</ele>
        <time>2020-06-23T18:53:07.986Z</time>
      </trkpt>
      <trkpt lat="45.15122" lon="1.12283">
        <ele>141.74871826172</ele>
        <time>2020-06-23T18:53:11.692Z</time>
      </trkpt>
      <trkpt lat="45.15114" lon="1.12285">
        <ele>141.56507873535</ele>
        <time>2020-06-23T18:53:15.399Z</time>
      </trkpt>
      <trkpt lat="45.15114" lon="1.12285">
        <ele>141.56549072266</ele>
        <time>2020-06-23T18:53:19.106Z</time>
      </trkpt>
      <trkpt lat="45.15101" lon="1.1229">
        <ele>140.71553039551</ele>
        <time>2020-06-23T18:53:22.815Z</time>
      </trkpt>
      <trkpt lat="45.15097" lon="1.12331">
        <ele>140.15348815918</ele>
        <time>2020-06-23T18:53:26.529Z</time>
      </trkpt>
      <trkpt lat="45.15095" lon="1.12349">
        <ele>140.11839294434</ele>
        <time>2020-06-23T18:53:30.245Z</time>
      </trkpt>
      <trkpt lat="45.15095" lon="1.12349">
        <ele>140.11849975586</ele>
        <time>2020-06-23T18:53:33.961Z</time>
      </trkpt>
      <trkpt lat="45.1509" lon="1.12392">
        <ele>139.60841369629</ele>
        <time>2020-06-23T18:53:37.682Z</time>
      </trkpt>
      <trkpt lat="45.15089" lon="1.12406">
        <ele>139.74728393555</ele>
        <time>2020-06-23T18:53:41.405Z</time>
      </trkpt>
      <trkpt lat="45.15054" lon="1.1241">
        <ele>134.58111572266</ele>
        <time>2020-06-23T18:53:45.133Z</time>
      </trkpt>
      <trkpt lat="45.15044" lon="1.12411">
        <ele>133.01406860352</ele>
        <time>2020-06-23T18:53:48.863Z</time>
      </trkpt>
      <trkpt lat="45.15019" lon="1.12406">
        <ele>134.49440002441</ele>
        <time>2020-06-23T18:53:52.597Z</time>
      </trkpt>
      <trkpt lat="45.15009" lon="1.12404">
        <ele>135.1385345459</ele>
        <time>2020-06-23T18:53:56.332Z</time>
      </trkpt>
      <trkpt lat="45.14997" lon="1.12415">
        <ele>135.84600830078</ele>
        <time>2020-06-23T18:54:00.070Z</time>
      </trkpt>
      <trkpt lat="45.14983" lon="1.12424">
        <ele>136.3005065918</ele>
        <time>2020-06-23T18:54:03.810Z</time>
      </trkpt>
      <trkpt lat="45.14983" lon="1.12424">
        <ele>136.30039978027</ele>
        <time>2020-06-23T18:54:07.550Z</time>
      </trkpt>
      <trkpt lat="45.14965" lon="1.12436">
        <ele>135.92459106445</ele>
        <time>2020-06-23T18:54:11.293Z</time>
      </trkpt>
      <trkpt lat="45.14941" lon="1.12468">
        <ele>138.11070251465</ele>
        <time>2020-06-23T18:54:15.042Z</time>
      </trkpt>
      <trkpt lat="45.14895" lon="1.12614">
        <ele>144.23677062988</ele>
        <time>2020-06-23T18:54:18.809Z</time>
      </trkpt>
      <trkpt lat="45.14893" lon="1.12618">
        <ele>144.57144165039</ele>
        <time>2020-06-23T18:54:22.576Z</time>
      </trkpt>
      <trkpt lat="45.14882" lon="1.1263">
        <ele>146.36222839355</ele>
        <time>2020-06-23T18:54:26.346Z</time>
      </trkpt>
      <trkpt lat="45.14848" lon="1.1263">
        <ele>151.95123291016</ele>
        <time>2020-06-23T18:54:30.121Z</time>
      </trkpt>
      <trkpt lat="45.14838" lon="1.12638">
        <ele>152.9810333252</ele>
        <time>2020-06-23T18:54:33.898Z</time>
      </trkpt>
      <trkpt lat="45.14805" lon="1.12652">
        <ele>157.67059326172</ele>
        <time>2020-06-23T18:54:37.680Z</time>
      </trkpt>
      <trkpt lat="45.14789" lon="1.1264">
        <ele>159.68562316895</ele>
        <time>2020-06-23T18:54:41.465Z</time>
      </trkpt>
      <trkpt lat="45.14782" lon="1.12645">
        <ele>160.59956359863</ele>
        <time>2020-06-23T18:54:45.251Z</time>
      </trkpt>
      <trkpt lat="45.14766" lon="1.12685">
        <ele>163.19869995117</ele>
        <time>2020-06-23T18:54:49.043Z</time>
      </trkpt>
      <trkpt lat="45.14755" lon="1.12691">
        <ele>164.61911010742</ele>
        <time>2020-06-23T18:54:52.837Z</time>
      </trkpt>
      <trkpt lat="45.14616" lon="1.12678">
        <ele>179.36102294922</ele>
        <time>2020-06-23T18:54:56.653Z</time>
      </trkpt>
      <trkpt lat="45.14551" lon="1.12671">
        <ele>189.2611541748</ele>
        <time>2020-06-23T18:55:00.479Z</time>
      </trkpt>
      <trkpt lat="45.144" lon="1.12578">
        <ele>206.40400695801</ele>
        <time>2020-06-23T18:55:04.332Z</time>
      </trkpt>
      <trkpt lat="45.1428" lon="1.12557">
        <ele>217.2262878418</ele>
        <time>2020-06-23T18:55:08.204Z</time>
      </trkpt>
      <trkpt lat="45.14254" lon="1.12549">
        <ele>217.81278991699</ele>
        <time>2020-06-23T18:55:12.080Z</time>
      </trkpt>
      <trkpt lat="45.14254" lon="1.12549">
        <ele>217.81278991699</ele>
        <time>2020-06-23T18:55:15.956Z</time>
      </trkpt>
      <trkpt lat="45.14213" lon="1.12536">
        <ele>218.77098083496</ele>
        <time>2020-06-23T18:55:19.839Z</time>
      </trkpt>
      <trkpt lat="45.1415" lon="1.12478">
        <ele>223.66732788086</ele>
        <time>2020-06-23T18:55:23.734Z</time>
      </trkpt>
      <trkpt lat="45.14102" lon="1.12461">
        <ele>225.63336181641</ele>
        <time>2020-06-23T18:55:27.637Z</time>
      </trkpt>
      <trkpt lat="45.14056" lon="1.12454">
        <ele>228.8772277832</ele>
        <time>2020-06-23T18:55:31.547Z</time>
      </trkpt>
      <trkpt lat="45.1398" lon="1.12488">
        <ele>232.33612060547</ele>
        <time>2020-06-23T18:55:35.470Z</time>
      </trkpt>
      <trkpt lat="45.139" lon="1.12544">
        <ele>235.22308349609</ele>
        <time>2020-06-23T18:55:39.407Z</time>
      </trkpt>
      <trkpt lat="45.13852" lon="1.12607">
        <ele>237.4995880127</ele>
        <time>2020-06-23T18:55:43.355Z</time>
      </trkpt>
      <trkpt lat="45.13796" lon="1.12742">
        <ele>242.93334960938</ele>
        <time>2020-06-23T18:55:47.321Z</time>
      </trkpt>
      <trkpt lat="45.13776" lon="1.12765">
        <ele>242.79309082031</ele>
        <time>2020-06-23T18:55:51.291Z</time>
      </trkpt>
      <trkpt lat="45.13696" lon="1.12828">
        <ele>250.47035217285</ele>
        <time>2020-06-23T18:55:55.275Z</time>
      </trkpt>
      <trkpt lat="45.13657" lon="1.12828">
        <ele>255.23315429688</ele>
        <time>2020-06-23T18:55:59.266Z</time>
      </trkpt>
      <trkpt lat="45.13565" lon="1.12811">
        <ele>265.18533325195</ele>
        <time>2020-06-23T18:56:03.271Z</time>
      </trkpt>
      <trkpt lat="45.13565" lon="1.12811">
        <ele>265.18463134766</ele>
        <time>2020-06-23T18:56:07.276Z</time>
      </trkpt>
      <trkpt lat="45.13552" lon="1.12808">
        <ele>266.41064453125</ele>
        <time>2020-06-23T18:56:11.284Z</time>
      </trkpt>
      <trkpt lat="45.13514" lon="1.12796">
        <ele>269.3342590332</ele>
        <time>2020-06-23T18:56:15.298Z</time>
      </trkpt>
      <trkpt lat="45.1349" lon="1.12777">
        <ele>271.25164794922</ele>
        <time>2020-06-23T18:56:19.316Z</time>
      </trkpt>
      <trkpt lat="45.1349" lon="1.12777">
        <ele>271.25225830078</ele>
        <time>2020-06-23T18:56:23.334Z</time>
      </trkpt>
      <trkpt lat="45.13411" lon="1.12638">
        <ele>271.45147705078</ele>
        <time>2020-06-23T18:56:27.372Z</time>
      </trkpt>
      <trkpt lat="45.13395" lon="1.12622">
        <ele>272.41690063477</ele>
        <time>2020-06-23T18:56:31.414Z</time>
      </trkpt>
      <trkpt lat="45.13376" lon="1.12566">
        <ele>273.71926879883</ele>
        <time>2020-06-23T18:56:35.463Z</time>
      </trkpt>
      <trkpt lat="45.13365" lon="1.12495">
        <ele>270.60955810547</ele>
        <time>2020-06-23T18:56:39.520Z</time>
      </trkpt>
      <trkpt lat="45.13331" lon="1.1224">
        <ele>268.90414428711</ele>
        <time>2020-06-23T18:56:43.606Z</time>
      </trkpt>
      <trkpt lat="45.1329" lon="1.12176">
        <ele>275.05493164062</ele>
        <time>2020-06-23T18:56:47.702Z</time>
      </trkpt>
      <trkpt lat="45.13233" lon="1.12107">
        <ele>275.51763916016</ele>
        <time>2020-06-23T18:56:51.810Z</time>
      </trkpt>
      <trkpt lat="45.13145" lon="1.12036">
        <ele>271.46087646484</ele>
        <time>2020-06-23T18:56:55.934Z</time>
      </trkpt>
      <trkpt lat="45.13145" lon="1.12036">
        <ele>271.46197509766</ele>
        <time>2020-06-23T18:57:00.058Z</time>
      </trkpt>
      <trkpt lat="45.13105" lon="1.12005">
        <ele>269.33187866211</ele>
        <time>2020-06-23T18:57:04.189Z</time>
      </trkpt>
      <trkpt lat="45.13089" lon="1.12005">
        <ele>269.33187866211</ele>
        <time>2020-06-23T18:57:08.323Z</time>
      </trkpt>
      <trkpt lat="45.12942" lon="1.12079">
        <ele>265.78002929688</ele>
        <time>2020-06-23T18:57:12.482Z</time>
      </trkpt>
      <trkpt lat="45.12942" lon="1.12079">
        <ele>265.77993774414</ele>
        <time>2020-06-23T18:57:16.641Z</time>
      </trkpt>
      <trkpt lat="45.12937" lon="1.12082">
        <ele>265.71566772461</ele>
        <time>2020-06-23T18:57:20.801Z</time>
      </trkpt>
      <trkpt lat="45.12873" lon="1.1211">
        <ele>262.08432006836</ele>
        <time>2020-06-23T18:57:24.972Z</time>
      </trkpt>
      <trkpt lat="45.12762" lon="1.12167">
        <ele>258.27395629883</ele>
        <time>2020-06-23T18:57:29.162Z</time>
      </trkpt>
      <trkpt lat="45.12647" lon="1.12249">
        <ele>256.52728271484</ele>
        <time>2020-06-23T18:57:33.372Z</time>
      </trkpt>
      <trkpt lat="45.12539" lon="1.12306">
        <ele>259.09039306641</ele>
        <time>2020-06-23T18:57:37.601Z</time>
      </trkpt>
      <trkpt lat="45.12501" lon="1.12346">
        <ele>255.07279968262</ele>
        <time>2020-06-23T18:57:41.837Z</time>
      </trkpt>
      <trkpt lat="45.12427" lon="1.12476">
        <ele>260.40844726562</ele>
        <time>2020-06-23T18:57:46.092Z</time>
      </trkpt>
      <trkpt lat="45.12337" lon="1.12629">
        <ele>258.43447875977</ele>
        <time>2020-06-23T18:57:50.370Z</time>
      </trkpt>
      <trkpt lat="45.12326" lon="1.12637">
        <ele>258.97653198242</ele>
        <time>2020-06-23T18:57:54.650Z</time>
      </trkpt>
      <trkpt lat="45.12326" lon="1.12637">
        <ele>258.97601318359</ele>
        <time>2020-06-23T18:57:58.930Z</time>
      </trkpt>
      <trkpt lat="45.12286" lon="1.12664">
        <ele>259.37133789062</ele>
        <time>2020-06-23T18:58:03.217Z</time>
      </trkpt>
      <trkpt lat="45.12194" lon="1.127">
        <ele>254.46350097656</ele>
        <time>2020-06-23T18:58:07.519Z</time>
      </trkpt>
      <trkpt lat="45.12109" lon="1.12731">
        <ele>252.71426391602</ele>
        <time>2020-06-23T18:58:11.835Z</time>
      </trkpt>
      <trkpt lat="45.12049" lon="1.12724">
        <ele>252.57516479492</ele>
        <time>2020-06-23T18:58:16.161Z</time>
      </trkpt>
      <trkpt lat="45.11946" lon="1.12675">
        <ele>247.51301574707</ele>
        <time>2020-06-23T18:58:20.504Z</time>
      </trkpt>
      <trkpt lat="45.11899" lon="1.12686">
        <ele>246.1153717041</ele>
        <time>2020-06-23T18:58:24.855Z</time>
      </trkpt>
      <trkpt lat="45.11777" lon="1.12791">
        <ele>231.78048706055</ele>
        <time>2020-06-23T18:58:29.229Z</time>
      </trkpt>
      <trkpt lat="45.11658" lon="1.12809">
        <ele>227.79396057129</ele>
        <time>2020-06-23T18:58:33.622Z</time>
      </trkpt>
      <trkpt lat="45.11607" lon="1.12852">
        <ele>218.99363708496</ele>
        <time>2020-06-23T18:58:38.024Z</time>
      </trkpt>
      <trkpt lat="45.11536" lon="1.12895">
        <ele>214.62994384766</ele>
        <time>2020-06-23T18:58:42.439Z</time>
      </trkpt>
      <trkpt lat="45.11493" lon="1.12952">
        <ele>213.60040283203</ele>
        <time>2020-06-23T18:58:46.863Z</time>
      </trkpt>
      <trkpt lat="45.11493" lon="1.12952">
        <ele>213.60130310059</ele>
        <time>2020-06-23T18:58:51.287Z</time>
      </trkpt>
      <trkpt lat="45.11463" lon="1.12982">
        <ele>214.46139526367</ele>
        <time>2020-06-23T18:58:55.717Z</time>
      </trkpt>
      <trkpt lat="45.11463" lon="1.12982">
        <ele>214.46159362793</ele>
        <time>2020-06-23T18:59:00.147Z</time>
      </trkpt>
      <trkpt lat="45.11458" lon="1.12986">
        <ele>214.44366455078</ele>
        <time>2020-06-23T18:59:04.578Z</time>
      </trkpt>
      <trkpt lat="45.11352" lon="1.13029">
        <ele>209.95858764648</ele>
        <time>2020-06-23T18:59:09.026Z</time>
      </trkpt>
      <trkpt lat="45.11257" lon="1.13138">
        <ele>208.82739257812</ele>
        <time>2020-06-23T18:59:13.494Z</time>
      </trkpt>
      <trkpt lat="45.11188" lon="1.13209">
        <ele>214.49224853516</ele>
        <time>2020-06-23T18:59:17.976Z</time>
      </trkpt>
      <trkpt lat="45.11167" lon="1.13235">
        <ele>216.47611999512</ele>
        <time>2020-06-23T18:59:22.462Z</time>
      </trkpt>
      <trkpt lat="45.11144" lon="1.13239">
        <ele>216.20570373535</ele>
        <time>2020-06-23T18:59:26.952Z</time>
      </trkpt>
      <trkpt lat="45.11068" lon="1.13272">
        <ele>208.73564147949</ele>
        <time>2020-06-23T18:59:31.455Z</time>
      </trkpt>
      <trkpt lat="45.10932" lon="1.1324">
        <ele>190.55545043945</ele>
        <time>2020-06-23T18:59:35.980Z</time>
      </trkpt>
      <trkpt lat="45.10901" lon="1.13259">
        <ele>186.3990020752</ele>
        <time>2020-06-23T18:59:40.510Z</time>
      </trkpt>
      <trkpt lat="45.1084" lon="1.13364">
        <ele>178.50941467285</ele>
        <time>2020-06-23T18:59:45.056Z</time>
      </trkpt>
      <trkpt lat="45.1084" lon="1.13364">
        <ele>178.51062011719</ele>
        <time>2020-06-23T18:59:49.602Z</time>
      </trkpt>
      <trkpt lat="45.10806" lon="1.13422">
        <ele>171.11103820801</ele>
        <time>2020-06-23T18:59:54.156Z</time>
      </trkpt>
      <trkpt lat="45.10747" lon="1.1354">
        <ele>162.00694274902</ele>
        <time>2020-06-23T18:59:58.726Z</time>
      </trkpt>
      <trkpt lat="45.10722" lon="1.1358">
        <ele>156.45338439941</ele>
        <time>2020-06-23T19:00:03.302Z</time>
      </trkpt>
      <trkpt lat="45.10672" lon="1.13635">
        <ele>145.20417785645</ele>
        <time>2020-06-23T19:00:07.889Z</time>
      </trkpt>
      <trkpt lat="45.10658" lon="1.1364">
        <ele>141.21371459961</ele>
        <time>2020-06-23T19:00:12.478Z</time>
      </trkpt>
      <trkpt lat="45.10643" lon="1.13637">
        <ele>136.59251403809</ele>
        <time>2020-06-23T19:00:17.069Z</time>
      </trkpt>
      <trkpt lat="45.10638" lon="1.13635">
        <ele>135.12072753906</ele>
        <time>2020-06-23T19:00:21.661Z</time>
      </trkpt>
      <trkpt lat="45.10624" lon="1.13633">
        <ele>131.34365844727</ele>
        <time>2020-06-23T19:00:26.255Z</time>
      </trkpt>
      <trkpt lat="45.10621" lon="1.13636">
        <ele>131.08605957031</ele>
        <time>2020-06-23T19:00:30.850Z</time>
      </trkpt>
      <trkpt lat="45.10602" lon="1.13719">
        <ele>132.54150390625</ele>
        <time>2020-06-23T19:00:35.455Z</time>
      </trkpt>
      <trkpt lat="45.10578" lon="1.13793">
        <ele>131.06582641602</ele>
        <time>2020-06-23T19:00:40.069Z</time>
      </trkpt>
      <trkpt lat="45.10574" lon="1.13799">
        <ele>130.27395629883</ele>
        <time>2020-06-23T19:00:44.684Z</time>
      </trkpt>
      <trkpt lat="45.10544" lon="1.13888">
        <ele>127.74934387207</ele>
        <time>2020-06-23T19:00:49.310Z</time>
      </trkpt>
      <trkpt lat="45.10532" lon="1.1393">
        <ele>127.64515686035</ele>
        <time>2020-06-23T19:00:53.941Z</time>
      </trkpt>
      <trkpt lat="45.10488" lon="1.14074">
        <ele>126.15087890625</ele>
        <time>2020-06-23T19:00:58.590Z</time>
      </trkpt>
      <trkpt lat="45.1047" lon="1.14136">
        <ele>126.41483306885</ele>
        <time>2020-06-23T19:01:03.247Z</time>
      </trkpt>
      <trkpt lat="45.10424" lon="1.14293">
        <ele>118.74578094482</ele>
        <time>2020-06-23T19:01:07.923Z</time>
      </trkpt>
      <trkpt lat="45.10405" lon="1.14343">
        <ele>114.67734527588</ele>
        <time>2020-06-23T19:01:12.605Z</time>
      </trkpt>
      <trkpt lat="45.10369" lon="1.14418">
        <ele>116.10997772217</ele>
        <time>2020-06-23T19:01:17.298Z</time>
      </trkpt>
      <trkpt lat="45.10341" lon="1.1447">
        <ele>119.0686416626</ele>
        <time>2020-06-23T19:01:21.998Z</time>
      </trkpt>
      <trkpt lat="45.10324" lon="1.14501">
        <ele>121.31285858154</ele>
        <time>2020-06-23T19:01:26.702Z</time>
      </trkpt>
      <trkpt lat="45.10307" lon="1.14543">
        <ele>122.51243591309</ele>
        <time>2020-06-23T19:01:31.412Z</time>
      </trkpt>
      <trkpt lat="45.10293" lon="1.14601">
        <ele>123.39707183838</ele>
        <time>2020-06-23T19:01:36.129Z</time>
      </trkpt>
      <trkpt lat="45.10287" lon="1.14638">
        <ele>123.99412536621</ele>
        <time>2020-06-23T19:01:40.850Z</time>
      </trkpt>
      <trkpt lat="45.10282" lon="1.14701">
        <ele>124.4458770752</ele>
        <time>2020-06-23T19:01:45.578Z</time>
      </trkpt>
      <trkpt lat="45.10277" lon="1.14815">
        <ele>120.62850952148</ele>
        <time>2020-06-23T19:01:50.319Z</time>
      </trkpt>
      <trkpt lat="45.10277" lon="1.14816">
        <ele>120.72449493408</ele>
        <time>2020-06-23T19:01:55.060Z</time>
      </trkpt>
      <trkpt lat="45.10274" lon="1.14841">
        <ele>122.80014801025</ele>
        <time>2020-06-23T19:01:59.804Z</time>
      </trkpt>
      <trkpt lat="45.10258" lon="1.14932">
        <ele>127.22779083252</ele>
        <time>2020-06-23T19:02:04.559Z</time>
      </trkpt>
      <trkpt lat="45.10239" lon="1.14999">
        <ele>125.6247177124</ele>
        <time>2020-06-23T19:02:09.322Z</time>
      </trkpt>
      <trkpt lat="45.10224" lon="1.15039">
        <ele>124.69574737549</ele>
        <time>2020-06-23T19:02:14.090Z</time>
      </trkpt>
      <trkpt lat="45.10187" lon="1.15105">
        <ele>124.7213973999</ele>
        <time>2020-06-23T19:02:18.868Z</time>
      </trkpt>
      <trkpt lat="45.10154" lon="1.15152">
        <ele>121.98356628418</ele>
        <time>2020-06-23T19:02:23.653Z</time>
      </trkpt>
      <trkpt lat="45.10118" lon="1.15196">
        <ele>124.48455810547</ele>
        <time>2020-06-23T19:02:28.446Z</time>
      </trkpt>
      <trkpt lat="45.1007" lon="1.15242">
        <ele>121.85663604736</ele>
        <time>2020-06-23T19:02:33.248Z</time>
      </trkpt>
      <trkpt lat="45.10029" lon="1.15277">
        <ele>120.75363922119</ele>
        <time>2020-06-23T19:02:38.058Z</time>
      </trkpt>
      <trkpt lat="45.09962" lon="1.15329">
        <ele>123.46258544922</ele>
        <time>2020-06-23T19:02:42.880Z</time>
      </trkpt>
      <trkpt lat="45.09915" lon="1.15358">
        <ele>124.80735015869</ele>
        <time>2020-06-23T19:02:47.710Z</time>
      </trkpt>
      <trkpt lat="45.0987" lon="1.15382">
        <ele>121.94386291504</ele>
        <time>2020-06-23T19:02:52.548Z</time>
      </trkpt>
      <trkpt lat="45.09809" lon="1.15407">
        <ele>123.85984802246</ele>
        <time>2020-06-23T19:02:57.396Z</time>
      </trkpt>
      <trkpt lat="45.09764" lon="1.15424">
        <ele>122.84030151367</ele>
        <time>2020-06-23T19:03:02.252Z</time>
      </trkpt>
      <trkpt lat="45.09675" lon="1.15456">
        <ele>119.11360931396</ele>
        <time>2020-06-23T19:03:07.122Z</time>
      </trkpt>
      <trkpt lat="45.09633" lon="1.15473">
        <ele>118.74167633057</ele>
        <time>2020-06-23T19:03:11.999Z</time>
      </trkpt>
      <trkpt lat="45.09542" lon="1.15493">
        <ele>114.97417449951</ele>
        <time>2020-06-23T19:03:16.891Z</time>
      </trkpt>
      <trkpt lat="45.09505" lon="1.15499">
        <ele>116.56990814209</ele>
        <time>2020-06-23T19:03:21.789Z</time>
      </trkpt>
      <trkpt lat="45.09428" lon="1.15518">
        <ele>116.72107696533</ele>
        <time>2020-06-23T19:03:26.700Z</time>
      </trkpt>
      <trkpt lat="45.09384" lon="1.15535">
        <ele>115.35330963135</ele>
        <time>2020-06-23T19:03:31.618Z</time>
      </trkpt>
      <trkpt lat="45.09345" lon="1.15552">
        <ele>114.45748901367</ele>
        <time>2020-06-23T19:03:36.542Z</time>
      </trkpt>
      <trkpt lat="45.093" lon="1.15573">
        <ele>111.38408660889</ele>
        <time>2020-06-23T19:03:41.474Z</time>
      </trkpt>
      <trkpt lat="45.09194" lon="1.15629">
        <ele>111.74686431885</ele>
        <time>2020-06-23T19:03:46.424Z</time>
      </trkpt>
      <trkpt lat="45.0913" lon="1.15656">
        <ele>107.82659912109</ele>
        <time>2020-06-23T19:03:51.385Z</time>
      </trkpt>
      <trkpt lat="45.09072" lon="1.15677">
        <ele>107.74780273438</ele>
        <time>2020-06-23T19:03:56.355Z</time>
      </trkpt>
      <trkpt lat="45.08994" lon="1.15695">
        <ele>108.68210601807</ele>
        <time>2020-06-23T19:04:01.338Z</time>
      </trkpt>
      <trkpt lat="45.08936" lon="1.15705">
        <ele>111.51496124268</ele>
        <time>2020-06-23T19:04:06.330Z</time>
      </trkpt>
      <trkpt lat="45.08854" lon="1.15711">
        <ele>114.33785247803</ele>
        <time>2020-06-23T19:04:11.335Z</time>
      </trkpt>
      <trkpt lat="45.08828" lon="1.15711">
        <ele>114.02590942383</ele>
        <time>2020-06-23T19:04:16.345Z</time>
      </trkpt>
      <trkpt lat="45.08782" lon="1.15707">
        <ele>112.38997650146</ele>
        <time>2020-06-23T19:04:21.362Z</time>
      </trkpt>
      <trkpt lat="45.08743" lon="1.15703">
        <ele>111.08982086182</ele>
        <time>2020-06-23T19:04:26.385Z</time>
      </trkpt>
      <trkpt lat="45.08684" lon="1.15693">
        <ele>109.3099899292</ele>
        <time>2020-06-23T19:04:31.418Z</time>
      </trkpt>
      <trkpt lat="45.08654" lon="1.15691">
        <ele>109.08927154541</ele>
        <time>2020-06-23T19:04:36.456Z</time>
      </trkpt>
      <trkpt lat="45.08602" lon="1.15693">
        <ele>109.22747802734</ele>
        <time>2020-06-23T19:04:41.502Z</time>
      </trkpt>
      <trkpt lat="45.08581" lon="1.15697">
        <ele>110.01756286621</ele>
        <time>2020-06-23T19:04:46.551Z</time>
      </trkpt>
      <trkpt lat="45.08561" lon="1.15701">
        <ele>110.9294052124</ele>
        <time>2020-06-23T19:04:51.604Z</time>
      </trkpt>
      <trkpt lat="45.08523" lon="1.15717">
        <ele>113.06744384766</ele>
        <time>2020-06-23T19:04:56.663Z</time>
      </trkpt>
      <trkpt lat="45.0844" lon="1.15758">
        <ele>110.05791473389</ele>
        <time>2020-06-23T19:05:01.736Z</time>
      </trkpt>
      <trkpt lat="45.08401" lon="1.15782">
        <ele>110.02649688721</ele>
        <time>2020-06-23T19:05:06.816Z</time>
      </trkpt>
      <trkpt lat="45.08385" lon="1.15792">
        <ele>109.71454620361</ele>
        <time>2020-06-23T19:05:11.899Z</time>
      </trkpt>
      <trkpt lat="45.08347" lon="1.15826">
        <ele>109.57849121094</ele>
        <time>2020-06-23T19:05:16.989Z</time>
      </trkpt>
      <trkpt lat="45.08315" lon="1.15872">
        <ele>110.99150085449</ele>
        <time>2020-06-23T19:05:22.086Z</time>
      </trkpt>
      <trkpt lat="45.08294" lon="1.15902">
        <ele>111.47453308105</ele>
        <time>2020-06-23T19:05:27.188Z</time>
      </trkpt>
      <trkpt lat="45.0828" lon="1.15918">
        <ele>111.62071228027</ele>
        <time>2020-06-23T19:05:32.293Z</time>
      </trkpt>
      <trkpt lat="45.08231" lon="1.15963">
        <ele>108.65407562256</ele>
        <time>2020-06-23T19:05:37.407Z</time>
      </trkpt>
      <trkpt lat="45.08203" lon="1.15986">
        <ele>107.31311798096</ele>
        <time>2020-06-23T19:05:42.526Z</time>
      </trkpt>
      <trkpt lat="45.08167" lon="1.16005">
        <ele>108.82486724854</ele>
        <time>2020-06-23T19:05:47.651Z</time>
      </trkpt>
      <trkpt lat="45.0813" lon="1.16021">
        <ele>109.14010620117</ele>
        <time>2020-06-23T19:05:52.783Z</time>
      </trkpt>
      <trkpt lat="45.0809" lon="1.1604">
        <ele>108.04457092285</ele>
        <time>2020-06-23T19:05:57.921Z</time>
      </trkpt>
      <trkpt lat="45.0804" lon="1.16">
        <ele>94.37287902832</ele>
        <time>2020-06-23T19:06:03.069Z</time>
      </trkpt>
      <trkpt lat="45.08005" lon="1.15971">
        <ele>89.71046447754</ele>
        <time>2020-06-23T19:06:08.223Z</time>
      </trkpt>
      <trkpt lat="45.07924" lon="1.15906">
        <ele>91.00173950195</ele>
        <time>2020-06-23T19:06:13.392Z</time>
      </trkpt>
      <trkpt lat="45.07887" lon="1.15874">
        <ele>95.31225585938</ele>
        <time>2020-06-23T19:06:18.568Z</time>
      </trkpt>
      <trkpt lat="45.0784" lon="1.15836">
        <ele>102.21537780762</ele>
        <time>2020-06-23T19:06:23.753Z</time>
      </trkpt>
      <trkpt lat="45.07818" lon="1.1582">
        <ele>105.33485412598</ele>
        <time>2020-06-23T19:06:28.942Z</time>
      </trkpt>
      <trkpt lat="45.07801" lon="1.15812">
        <ele>107.32652282715</ele>
        <time>2020-06-23T19:06:34.133Z</time>
      </trkpt>
      <trkpt lat="45.0777" lon="1.15802">
        <ele>111.98607635498</ele>
        <time>2020-06-23T19:06:39.330Z</time>
      </trkpt>
      <trkpt lat="45.07669" lon="1.15782">
        <ele>127.00002288818</ele>
        <time>2020-06-23T19:06:44.543Z</time>
      </trkpt>
      <trkpt lat="45.07645" lon="1.15777">
        <ele>129.35163879395</ele>
        <time>2020-06-23T19:06:49.760Z</time>
      </trkpt>
      <trkpt lat="45.07624" lon="1.15772">
        <ele>131.29600524902</ele>
        <time>2020-06-23T19:06:54.980Z</time>
      </trkpt>
      <trkpt lat="45.07601" lon="1.15771">
        <ele>132.9037322998</ele>
        <time>2020-06-23T19:07:00.204Z</time>
      </trkpt>
      <trkpt lat="45.07582" lon="1.15776">
        <ele>133.95133972168</ele>
        <time>2020-06-23T19:07:05.431Z</time>
      </trkpt>
      <trkpt lat="45.07567" lon="1.15784">
        <ele>134.03532409668</ele>
        <time>2020-06-23T19:07:10.660Z</time>
      </trkpt>
      <trkpt lat="45.07563" lon="1.15787">
        <ele>134.04731750488</ele>
        <time>2020-06-23T19:07:15.890Z</time>
      </trkpt>
      <trkpt lat="45.0753" lon="1.15809">
        <ele>134.76463317871</ele>
        <time>2020-06-23T19:07:21.126Z</time>
      </trkpt>
      <trkpt lat="45.07509" lon="1.15816">
        <ele>135.50961303711</ele>
        <time>2020-06-23T19:07:26.365Z</time>
      </trkpt>
      <trkpt lat="45.07423" lon="1.15837">
        <ele>137.81491088867</ele>
        <time>2020-06-23T19:07:31.618Z</time>
      </trkpt>
      <trkpt lat="45.07221" lon="1.15887">
        <ele>134.17575073242</ele>
        <time>2020-06-23T19:07:36.904Z</time>
      </trkpt>
      <trkpt lat="45.07211" lon="1.15895">
        <ele>133.98377990723</ele>
        <time>2020-06-23T19:07:42.192Z</time>
      </trkpt>
      <trkpt lat="45.07166" lon="1.15961">
        <ele>129.83149719238</ele>
        <time>2020-06-23T19:07:47.490Z</time>
      </trkpt>
      <trkpt lat="45.07105" lon="1.16055">
        <ele>124.32324981689</ele>
        <time>2020-06-23T19:07:52.803Z</time>
      </trkpt>
      <trkpt lat="45.0708" lon="1.16093">
        <ele>120.79516601562</ele>
        <time>2020-06-23T19:07:58.122Z</time>
      </trkpt>
      <trkpt lat="45.07057" lon="1.16124">
        <ele>120.18877410889</ele>
        <time>2020-06-23T19:08:03.446Z</time>
      </trkpt>
      <trkpt lat="45.07034" lon="1.16143">
        <ele>119.71302032471</ele>
        <time>2020-06-23T19:08:08.774Z</time>
      </trkpt>
      <trkpt lat="45.07022" lon="1.16151">
        <ele>119.32791137695</ele>
        <time>2020-06-23T19:08:14.104Z</time>
      </trkpt>
      <trkpt lat="45.07007" lon="1.16158">
        <ele>118.87198638916</ele>
        <time>2020-06-23T19:08:19.437Z</time>
      </trkpt>
      <trkpt lat="45.06992" lon="1.16163">
        <ele>118.39206695557</ele>
        <time>2020-06-23T19:08:24.772Z</time>
      </trkpt>
      <trkpt lat="45.06977" lon="1.16164">
        <ele>117.91623687744</ele>
        <time>2020-06-23T19:08:30.110Z</time>
      </trkpt>
      <trkpt lat="45.06951" lon="1.16163">
        <ele>117.26103973389</ele>
        <time>2020-06-23T19:08:35.452Z</time>
      </trkpt>
      <trkpt lat="45.06852" lon="1.16149">
        <ele>112.33950805664</ele>
        <time>2020-06-23T19:08:40.810Z</time>
      </trkpt>
      <trkpt lat="45.06794" lon="1.16138">
        <ele>109.51385498047</ele>
        <time>2020-06-23T19:08:46.177Z</time>
      </trkpt>
      <trkpt lat="45.06765" lon="1.16129">
        <ele>106.81135559082</ele>
        <time>2020-06-23T19:08:51.549Z</time>
      </trkpt>
      <trkpt lat="45.06753" lon="1.16122">
        <ele>105.86351776123</ele>
        <time>2020-06-23T19:08:56.923Z</time>
      </trkpt>
      <trkpt lat="45.06721" lon="1.16099">
        <ele>103.28394317627</ele>
        <time>2020-06-23T19:09:02.303Z</time>
      </trkpt>
      <trkpt lat="45.06689" lon="1.16071">
        <ele>99.90670013428</ele>
        <time>2020-06-23T19:09:07.689Z</time>
      </trkpt>
      <trkpt lat="45.06678" lon="1.16065">
        <ele>98.64691162109</ele>
        <time>2020-06-23T19:09:13.077Z</time>
      </trkpt>
      <trkpt lat="45.06659" lon="1.16061">
        <ele>96.54973602295</ele>
        <time>2020-06-23T19:09:18.468Z</time>
      </trkpt>
      <trkpt lat="45.06637" lon="1.16059">
        <ele>94.41409301758</ele>
        <time>2020-06-23T19:09:23.862Z</time>
      </trkpt>
      <trkpt lat="45.06624" lon="1.1606">
        <ele>92.83881378174</ele>
        <time>2020-06-23T19:09:29.258Z</time>
      </trkpt>
      <trkpt lat="45.06618" lon="1.16065">
        <ele>92.02025604248</ele>
        <time>2020-06-23T19:09:34.655Z</time>
      </trkpt>
      <trkpt lat="45.06601" lon="1.16079">
        <ele>90.11257171631</ele>
        <time>2020-06-23T19:09:40.056Z</time>
      </trkpt>
      <trkpt lat="45.06583" lon="1.16099">
        <ele>88.21688842773</ele>
        <time>2020-06-23T19:09:45.460Z</time>
      </trkpt>
      <trkpt lat="45.06559" lon="1.16119">
        <ele>83.52415466309</ele>
        <time>2020-06-23T19:09:50.869Z</time>
      </trkpt>
      <trkpt lat="45.06523" lon="1.16141">
        <ele>79.00936126709</ele>
        <time>2020-06-23T19:09:56.284Z</time>
      </trkpt>
      <trkpt lat="45.06491" lon="1.16164">
        <ele>77.51400756836</ele>
        <time>2020-06-23T19:10:01.705Z</time>
      </trkpt>
      <trkpt lat="45.0646" lon="1.16185">
        <ele>77.95011138916</ele>
        <time>2020-06-23T19:10:07.131Z</time>
      </trkpt>
      <trkpt lat="45.06432" lon="1.16203">
        <ele>80</ele>
        <time>2020-06-23T19:10:12.562Z</time>
      </trkpt>
      <trkpt lat="45.06422" lon="1.16219">
        <ele>80</ele>
        <time>2020-06-23T19:10:17.996Z</time>
      </trkpt>
      <trkpt lat="45.06417" lon="1.16234">
        <ele>80.07543182373</ele>
        <time>2020-06-23T19:10:23.431Z</time>
      </trkpt>
      <trkpt lat="45.06416" lon="1.16248">
        <ele>80.24340057373</ele>
        <time>2020-06-23T19:10:28.868Z</time>
      </trkpt>
      <trkpt lat="45.06416" lon="1.16256">
        <ele>80.33938598633</ele>
        <time>2020-06-23T19:10:34.306Z</time>
      </trkpt>
      <trkpt lat="45.06411" lon="1.16257">
        <ele>80.35138702393</ele>
        <time>2020-06-23T19:10:39.745Z</time>
      </trkpt>
      <trkpt lat="45.06389" lon="1.16272">
        <ele>80.53135681152</ele>
        <time>2020-06-23T19:10:45.188Z</time>
      </trkpt>
      <trkpt lat="45.06341" lon="1.16313">
        <ele>80.15760040283</ele>
        <time>2020-06-23T19:10:50.640Z</time>
      </trkpt>
      <trkpt lat="45.06327" lon="1.16326">
        <ele>79.82165527344</ele>
        <time>2020-06-23T19:10:56.094Z</time>
      </trkpt>
      <trkpt lat="45.06311" lon="1.16346">
        <ele>79.43772125244</ele>
        <time>2020-06-23T19:11:01.552Z</time>
      </trkpt>
      <trkpt lat="45.06301" lon="1.1637">
        <ele>79.19776153564</ele>
        <time>2020-06-23T19:11:07.013Z</time>
      </trkpt>
      <trkpt lat="45.06281" lon="1.16433">
        <ele>78.39588928223</ele>
        <time>2020-06-23T19:11:12.482Z</time>
      </trkpt>
      <trkpt lat="45.06264" lon="1.16501">
        <ele>78.62393951416</ele>
        <time>2020-06-23T19:11:17.959Z</time>
      </trkpt>
      <trkpt lat="45.06265" lon="1.16535">
        <ele>79</ele>
        <time>2020-06-23T19:11:23.440Z</time>
      </trkpt>
      <trkpt lat="45.0623" lon="1.16541">
        <ele>79</ele>
        <time>2020-06-23T19:11:28.926Z</time>
      </trkpt>
      <trkpt lat="45.06137" lon="1.1656">
        <ele>79.82912445068</ele>
        <time>2020-06-23T19:11:34.427Z</time>
      </trkpt>
      <trkpt lat="45.06139" lon="1.16585">
        <ele>80.1078414917</ele>
        <time>2020-06-23T19:11:39.931Z</time>
      </trkpt>
      <trkpt lat="45.0613" lon="1.166">
        <ele>80.79172515869</ele>
        <time>2020-06-23T19:11:45.438Z</time>
      </trkpt>
      <trkpt lat="45.06109" lon="1.16631">
        <ele>81.47253417969</ele>
        <time>2020-06-23T19:11:50.949Z</time>
      </trkpt>
      <trkpt lat="45.06105" lon="1.16644">
        <ele>81.73648834229</ele>
        <time>2020-06-23T19:11:56.462Z</time>
      </trkpt>
      <trkpt lat="45.06104" lon="1.16658">
        <ele>81.57269287109</ele>
        <time>2020-06-23T19:12:01.977Z</time>
      </trkpt>
      <trkpt lat="45.06103" lon="1.16705">
        <ele>80.9935760498</ele>
        <time>2020-06-23T19:12:07.497Z</time>
      </trkpt>
      <trkpt lat="45.06086" lon="1.16822">
        <ele>80.64956665039</ele>
        <time>2020-06-23T19:12:13.031Z</time>
      </trkpt>
      <trkpt lat="45.06072" lon="1.16919">
        <ele>82.06053924561</ele>
        <time>2020-06-23T19:12:18.576Z</time>
      </trkpt>
      <trkpt lat="45.0606" lon="1.16923">
        <ele>82.51259613037</ele>
        <time>2020-06-23T19:12:24.123Z</time>
      </trkpt>
      <trkpt lat="45.06047" lon="1.16923">
        <ele>83.13649749756</ele>
        <time>2020-06-23T19:12:29.672Z</time>
      </trkpt>
      <trkpt lat="45.06022" lon="1.16918">
        <ele>82.78494262695</ele>
        <time>2020-06-23T19:12:35.225Z</time>
      </trkpt>
      <trkpt lat="45.05893" lon="1.16881">
        <ele>82.26887512207</ele>
        <time>2020-06-23T19:12:40.799Z</time>
      </trkpt>
      <trkpt lat="45.05818" lon="1.16858">
        <ele>83</ele>
        <time>2020-06-23T19:12:46.385Z</time>
      </trkpt>
      <trkpt lat="45.05697" lon="1.16824">
        <ele>90.26303863525</ele>
        <time>2020-06-23T19:12:51.991Z</time>
      </trkpt>
      <trkpt lat="45.05653" lon="1.16802">
        <ele>92.74834442139</ele>
        <time>2020-06-23T19:12:57.604Z</time>
      </trkpt>
      <trkpt lat="45.05646" lon="1.16798">
        <ele>93.13228607178</ele>
        <time>2020-06-23T19:13:03.219Z</time>
      </trkpt>
      <trkpt lat="45.0563" lon="1.16789">
        <ele>94.02013397217</ele>
        <time>2020-06-23T19:13:08.836Z</time>
      </trkpt>
      <trkpt lat="45.05603" lon="1.16767">
        <ele>98.88809204102</ele>
        <time>2020-06-23T19:13:14.458Z</time>
      </trkpt>
      <trkpt lat="45.05589" lon="1.16754">
        <ele>101.64762878418</ele>
        <time>2020-06-23T19:13:20.083Z</time>
      </trkpt>
      <trkpt lat="45.05574" lon="1.16734">
        <ele>104.16721343994</ele>
        <time>2020-06-23T19:13:25.711Z</time>
      </trkpt>
      <trkpt lat="45.05564" lon="1.16713">
        <ele>104.0523223877</ele>
        <time>2020-06-23T19:13:31.342Z</time>
      </trkpt>
      <trkpt lat="45.05524" lon="1.16623">
        <ele>101.89343261719</ele>
        <time>2020-06-23T19:13:36.985Z</time>
      </trkpt>
      <trkpt lat="45.05499" lon="1.16566">
        <ele>103.40518188477</ele>
        <time>2020-06-23T19:13:42.636Z</time>
      </trkpt>
      <trkpt lat="45.05484" lon="1.16544">
        <ele>104.10571289062</ele>
        <time>2020-06-23T19:13:48.290Z</time>
      </trkpt>
      <trkpt lat="45.05458" lon="1.16509">
        <ele>105.12036132812</ele>
        <time>2020-06-23T19:13:53.950Z</time>
      </trkpt>
      <trkpt lat="45.05443" lon="1.16496">
        <ele>105.97222137451</ele>
        <time>2020-06-23T19:13:59.613Z</time>
      </trkpt>
      <trkpt lat="45.05426" lon="1.16486">
        <ele>107.67594146729</ele>
        <time>2020-06-23T19:14:05.279Z</time>
      </trkpt>
      <trkpt lat="45.05408" lon="1.16485">
        <ele>110.97538757324</ele>
        <time>2020-06-23T19:14:10.948Z</time>
      </trkpt>
      <trkpt lat="45.05397" lon="1.16485">
        <ele>113.08703613281</ele>
        <time>2020-06-23T19:14:16.618Z</time>
      </trkpt>
      <trkpt lat="45.05373" lon="1.16493">
        <ele>118.73707580566</ele>
        <time>2020-06-23T19:14:22.292Z</time>
      </trkpt>
      <trkpt lat="45.05359" lon="1.16499">
        <ele>120.58477020264</ele>
        <time>2020-06-23T19:14:27.969Z</time>
      </trkpt>
      <trkpt lat="45.05343" lon="1.16502">
        <ele>122.04852294922</ele>
        <time>2020-06-23T19:14:33.648Z</time>
      </trkpt>
      <trkpt lat="45.05324" lon="1.16514">
        <ele>125.20400238037</ele>
        <time>2020-06-23T19:14:39.331Z</time>
      </trkpt>
      <trkpt lat="45.05283" lon="1.16547">
        <ele>131.59550476074</ele>
        <time>2020-06-23T19:14:45.021Z</time>
      </trkpt>
      <trkpt lat="45.05264" lon="1.16566">
        <ele>131.93168640137</ele>
        <time>2020-06-23T19:14:50.715Z</time>
      </trkpt>
      <trkpt lat="45.0519" lon="1.16677">
        <ele>130.53036499023</ele>
        <time>2020-06-23T19:14:56.426Z</time>
      </trkpt>
      <trkpt lat="45.0514" lon="1.16756">
        <ele>128.58354187012</ele>
        <time>2020-06-23T19:15:02.149Z</time>
      </trkpt>
      <trkpt lat="45.05064" lon="1.1688">
        <ele>127.34275054932</ele>
        <time>2020-06-23T19:15:07.891Z</time>
      </trkpt>
      <trkpt lat="45.05005" lon="1.16966">
        <ele>129.3037109375</ele>
        <time>2020-06-23T19:15:13.646Z</time>
      </trkpt>
      <trkpt lat="45.04977" lon="1.17002">
        <ele>127.61212921143</ele>
        <time>2020-06-23T19:15:19.407Z</time>
      </trkpt>
      <trkpt lat="45.04964" lon="1.17019">
        <ele>127.45615386963</ele>
        <time>2020-06-23T19:15:25.171Z</time>
      </trkpt>
      <trkpt lat="45.04942" lon="1.17042">
        <ele>127.3243560791</ele>
        <time>2020-06-23T19:15:30.940Z</time>
      </trkpt>
      <trkpt lat="45.04935" lon="1.1705">
        <ele>126.07466888428</ele>
        <time>2020-06-23T19:15:36.710Z</time>
      </trkpt>
      <trkpt lat="45.04929" lon="1.17051">
        <ele>124.5389251709</ele>
        <time>2020-06-23T19:15:42.481Z</time>
      </trkpt>
      <trkpt lat="45.04916" lon="1.17048">
        <ele>120.96351623535</ele>
        <time>2020-06-23T19:15:48.254Z</time>
      </trkpt>
      <trkpt lat="45.04898" lon="1.17041">
        <ele>115.87636566162</ele>
        <time>2020-06-23T19:15:54.030Z</time>
      </trkpt>
      <trkpt lat="45.04879" lon="1.1703">
        <ele>110.3332901001</ele>
        <time>2020-06-23T19:15:59.810Z</time>
      </trkpt>
      <trkpt lat="45.04855" lon="1.1702">
        <ele>109.77411651611</ele>
        <time>2020-06-23T19:16:05.594Z</time>
      </trkpt>
      <trkpt lat="45.0484" lon="1.17015">
        <ele>110.07406616211</ele>
        <time>2020-06-23T19:16:11.380Z</time>
      </trkpt>
      <trkpt lat="45.04826" lon="1.17014">
        <ele>110.3377532959</ele>
        <time>2020-06-23T19:16:17.168Z</time>
      </trkpt>
      <trkpt lat="45.04787" lon="1.17007">
        <ele>109.49850463867</ele>
        <time>2020-06-23T19:16:22.963Z</time>
      </trkpt>
      <trkpt lat="45.04761" lon="1.17006">
        <ele>110.45834350586</ele>
        <time>2020-06-23T19:16:28.762Z</time>
      </trkpt>
      <trkpt lat="45.04751" lon="1.17008">
        <ele>110.77029418945</ele>
        <time>2020-06-23T19:16:34.562Z</time>
      </trkpt>
      <trkpt lat="45.04712" lon="1.17028">
        <ele>113.96527099609</ele>
        <time>2020-06-23T19:16:40.369Z</time>
      </trkpt>
      <trkpt lat="45.04673" lon="1.17051">
        <ele>115.93497467041</ele>
        <time>2020-06-23T19:16:46.183Z</time>
      </trkpt>
      <trkpt lat="45.04646" lon="1.17063">
        <ele>117.3169708252</ele>
        <time>2020-06-23T19:16:52.001Z</time>
      </trkpt>
      <trkpt lat="45.04629" lon="1.17071">
        <ele>118.27989959717</ele>
        <time>2020-06-23T19:16:57.822Z</time>
      </trkpt>
      <trkpt lat="45.04612" lon="1.17081">
        <ele>119.28242492676</ele>
        <time>2020-06-23T19:17:03.646Z</time>
      </trkpt>
      <trkpt lat="45.04598" lon="1.17096">
        <ele>120.33824920654</ele>
        <time>2020-06-23T19:17:09.473Z</time>
      </trkpt>
      <trkpt lat="45.04587" lon="1.17116">
        <ele>121.56204223633</ele>
        <time>2020-06-23T19:17:15.303Z</time>
      </trkpt>
      <trkpt lat="45.04577" lon="1.17146">
        <ele>123.36500549316</ele>
        <time>2020-06-23T19:17:21.136Z</time>
      </trkpt>
      <trkpt lat="45.04569" lon="1.17195">
        <ele>128.87524414062</ele>
        <time>2020-06-23T19:17:26.975Z</time>
      </trkpt>
      <trkpt lat="45.04563" lon="1.1722">
        <ele>130.8309173584</ele>
        <time>2020-06-23T19:17:32.817Z</time>
      </trkpt>
      <trkpt lat="45.04554" lon="1.17246">
        <ele>134.00457763672</ele>
        <time>2020-06-23T19:17:38.662Z</time>
      </trkpt>
      <trkpt lat="45.04539" lon="1.17278">
        <ele>133.55274963379</ele>
        <time>2020-06-23T19:17:44.512Z</time>
      </trkpt>
      <trkpt lat="45.0453" lon="1.17293">
        <ele>136.03633117676</ele>
        <time>2020-06-23T19:17:50.364Z</time>
      </trkpt>
      <trkpt lat="45.0452" lon="1.17308">
        <ele>136.42749023438</ele>
        <time>2020-06-23T19:17:56.218Z</time>
      </trkpt>
      <trkpt lat="45.04494" lon="1.17343">
        <ele>143.22657775879</ele>
        <time>2020-06-23T19:18:02.078Z</time>
      </trkpt>
      <trkpt lat="45.04474" lon="1.17362">
        <ele>141.85285949707</ele>
        <time>2020-06-23T19:18:07.942Z</time>
      </trkpt>
      <trkpt lat="45.04451" lon="1.17376">
        <ele>142.29667663574</ele>
        <time>2020-06-23T19:18:13.810Z</time>
      </trkpt>
      <trkpt lat="45.04434" lon="1.17383">
        <ele>145.84155273438</ele>
        <time>2020-06-23T19:18:19.681Z</time>
      </trkpt>
      <trkpt lat="45.04411" lon="1.1739">
        <ele>150.55676269531</ele>
        <time>2020-06-23T19:18:25.556Z</time>
      </trkpt>
      <trkpt lat="45.04363" lon="1.17401">
        <ele>160.91636657715</ele>
        <time>2020-06-23T19:18:31.438Z</time>
      </trkpt>
      <trkpt lat="45.04345" lon="1.17407">
        <ele>164.6597442627</ele>
        <time>2020-06-23T19:18:37.323Z</time>
      </trkpt>
      <trkpt lat="45.0431" lon="1.1742">
        <ele>171.25074768066</ele>
        <time>2020-06-23T19:18:43.214Z</time>
      </trkpt>
      <trkpt lat="45.04283" lon="1.17432">
        <ele>174.03221130371</ele>
        <time>2020-06-23T19:18:49.110Z</time>
      </trkpt>
      <trkpt lat="45.04283" lon="1.17433">
        <ele>174.04420471191</ele>
        <time>2020-06-23T19:18:55.006Z</time>
      </trkpt>
      <trkpt lat="45.04252" lon="1.17452">
        <ele>179.1312713623</ele>
        <time>2020-06-23T19:19:00.907Z</time>
      </trkpt>
      <trkpt lat="45.04248" lon="1.17458">
        <ele>179.6351776123</ele>
        <time>2020-06-23T19:19:06.809Z</time>
      </trkpt>
      <trkpt lat="45.04241" lon="1.1749">
        <ele>181.85317993164</ele>
        <time>2020-06-23T19:19:12.715Z</time>
      </trkpt>
      <trkpt lat="45.04235" lon="1.17538">
        <ele>185.19760131836</ele>
        <time>2020-06-23T19:19:18.626Z</time>
      </trkpt>
      <trkpt lat="45.04229" lon="1.17554">
        <ele>185.86947631836</ele>
        <time>2020-06-23T19:19:24.540Z</time>
      </trkpt>
      <trkpt lat="45.04218" lon="1.17574">
        <ele>187.65670776367</ele>
        <time>2020-06-23T19:19:30.456Z</time>
      </trkpt>
      <trkpt lat="45.04199" lon="1.17608">
        <ele>189.56158447266</ele>
        <time>2020-06-23T19:19:36.377Z</time>
      </trkpt>
      <trkpt lat="45.04188" lon="1.17635">
        <ele>190.50479125977</ele>
        <time>2020-06-23T19:19:42.302Z</time>
      </trkpt>
      <trkpt lat="45.04169" lon="1.17678">
        <ele>192.80004882812</ele>
        <time>2020-06-23T19:19:48.233Z</time>
      </trkpt>
      <trkpt lat="45.04148" lon="1.1772">
        <ele>197.48341369629</ele>
        <time>2020-06-23T19:19:54.169Z</time>
      </trkpt>
      <trkpt lat="45.04083" lon="1.17841">
        <ele>204.42167663574</ele>
        <time>2020-06-23T19:20:00.123Z</time>
      </trkpt>
      <trkpt lat="45.04044" lon="1.17912">
        <ele>203.8973236084</ele>
        <time>2020-06-23T19:20:06.087Z</time>
      </trkpt>
      <trkpt lat="45.0403" lon="1.17943">
        <ele>205.45147705078</ele>
        <time>2020-06-23T19:20:12.055Z</time>
      </trkpt>
      <trkpt lat="45.04022" lon="1.17967">
        <ele>206.42459106445</ele>
        <time>2020-06-23T19:20:18.026Z</time>
      </trkpt>
      <trkpt lat="45.04019" lon="1.17992">
        <ele>207.02442932129</ele>
        <time>2020-06-23T19:20:24.000Z</time>
      </trkpt>
      <trkpt lat="45.0402" lon="1.18004">
        <ele>207.75630187988</ele>
        <time>2020-06-23T19:20:29.975Z</time>
      </trkpt>
      <trkpt lat="45.04021" lon="1.18017">
        <ele>208.53617858887</ele>
        <time>2020-06-23T19:20:35.952Z</time>
      </trkpt>
      <trkpt lat="45.04028" lon="1.18037">
        <ele>210.58784484863</ele>
        <time>2020-06-23T19:20:41.931Z</time>
      </trkpt>
      <trkpt lat="45.04039" lon="1.18066">
        <ele>213.75108337402</ele>
        <time>2020-06-23T19:20:47.914Z</time>
      </trkpt>
      <trkpt lat="45.04047" lon="1.18099">
        <ele>217.08932495117</ele>
        <time>2020-06-23T19:20:53.901Z</time>
      </trkpt>
      <trkpt lat="45.04049" lon="1.1811">
        <ele>218.10916137695</ele>
        <time>2020-06-23T19:20:59.889Z</time>
      </trkpt>
      <trkpt lat="45.04049" lon="1.18132">
        <ele>219.42893981934</ele>
        <time>2020-06-23T19:21:05.880Z</time>
      </trkpt>
      <trkpt lat="45.04047" lon="1.18144">
        <ele>219.78887939453</ele>
        <time>2020-06-23T19:21:11.872Z</time>
      </trkpt>
      <trkpt lat="45.04042" lon="1.18158">
        <ele>219.91146850586</ele>
        <time>2020-06-23T19:21:17.866Z</time>
      </trkpt>
      <trkpt lat="45.04032" lon="1.18172">
        <ele>219.71951293945</ele>
        <time>2020-06-23T19:21:23.862Z</time>
      </trkpt>
      <trkpt lat="45.04026" lon="1.18176">
        <ele>219.28758239746</ele>
        <time>2020-06-23T19:21:29.859Z</time>
      </trkpt>
      <trkpt lat="45.04008" lon="1.18179">
        <ele>217.34390258789</ele>
        <time>2020-06-23T19:21:35.859Z</time>
      </trkpt>
      <trkpt lat="45.03985" lon="1.18184">
        <ele>215.42436218262</ele>
        <time>2020-06-23T19:21:41.863Z</time>
      </trkpt>
      <trkpt lat="45.03969" lon="1.18197">
        <ele>215.48434448242</ele>
        <time>2020-06-23T19:21:47.870Z</time>
      </trkpt>
      <trkpt lat="45.03961" lon="1.18207">
        <ele>215.89227294922</ele>
        <time>2020-06-23T19:21:53.879Z</time>
      </trkpt>
      <trkpt lat="45.03939" lon="1.18252">
        <ele>220.53414916992</ele>
        <time>2020-06-23T19:21:59.894Z</time>
      </trkpt>
      <trkpt lat="45.03927" lon="1.18273">
        <ele>223.08972167969</ele>
        <time>2020-06-23T19:22:05.912Z</time>
      </trkpt>
      <trkpt lat="45.03915" lon="1.18285">
        <ele>224.24153137207</ele>
        <time>2020-06-23T19:22:11.932Z</time>
      </trkpt>
      <trkpt lat="45.03899" lon="1.18288">
        <ele>223.74960327148</ele>
        <time>2020-06-23T19:22:17.955Z</time>
      </trkpt>
      <trkpt lat="45.03883" lon="1.18292">
        <ele>223.41366577148</ele>
        <time>2020-06-23T19:22:23.980Z</time>
      </trkpt>
      <trkpt lat="45.03874" lon="1.18297">
        <ele>223.91708374023</ele>
        <time>2020-06-23T19:22:30.007Z</time>
      </trkpt>
      <trkpt lat="45.03852" lon="1.18307">
        <ele>226.4309387207</ele>
        <time>2020-06-23T19:22:36.038Z</time>
      </trkpt>
      <trkpt lat="45.03833" lon="1.18308">
        <ele>227.2108001709</ele>
        <time>2020-06-23T19:22:42.072Z</time>
      </trkpt>
      <trkpt lat="45.03815" lon="1.18304">
        <ele>227.47476196289</ele>
        <time>2020-06-23T19:22:48.109Z</time>
      </trkpt>
      <trkpt lat="45.03808" lon="1.183">
        <ele>227.34278869629</ele>
        <time>2020-06-23T19:22:54.147Z</time>
      </trkpt>
      <trkpt lat="45.03793" lon="1.18276">
        <ele>225.57908630371</ele>
        <time>2020-06-23T19:23:00.188Z</time>
      </trkpt>
      <trkpt lat="45.03784" lon="1.18248">
        <ele>224.01615905762</ele>
        <time>2020-06-23T19:23:06.233Z</time>
      </trkpt>
      <trkpt lat="45.03779" lon="1.1822">
        <ele>222.08503723145</ele>
        <time>2020-06-23T19:23:12.281Z</time>
      </trkpt>
      <trkpt lat="45.03775" lon="1.18208">
        <ele>221.63757324219</ele>
        <time>2020-06-23T19:23:18.331Z</time>
      </trkpt>
      <trkpt lat="45.03765" lon="1.18189">
        <ele>221.46960449219</ele>
        <time>2020-06-23T19:23:24.383Z</time>
      </trkpt>
      <trkpt lat="45.03742" lon="1.1816">
        <ele>222.14147949219</ele>
        <time>2020-06-23T19:23:30.440Z</time>
      </trkpt>
      <trkpt lat="45.03712" lon="1.1813">
        <ele>224.46305847168</ele>
        <time>2020-06-23T19:23:36.503Z</time>
      </trkpt>
      <trkpt lat="45.03691" lon="1.18119">
        <ele>225.5552520752</ele>
        <time>2020-06-23T19:23:42.570Z</time>
      </trkpt>
      <trkpt lat="45.03671" lon="1.18112">
        <ele>226.2405090332</ele>
        <time>2020-06-23T19:23:48.640Z</time>
      </trkpt>
      <trkpt lat="45.03657" lon="1.18106">
        <ele>226.5524597168</ele>
        <time>2020-06-23T19:23:54.712Z</time>
      </trkpt>
      <trkpt lat="45.03646" lon="1.18098">
        <ele>226.87640380859</ele>
        <time>2020-06-23T19:24:00.786Z</time>
      </trkpt>
      <trkpt lat="45.03624" lon="1.18073">
        <ele>227.38447570801</ele>
        <time>2020-06-23T19:24:06.865Z</time>
      </trkpt>
      <trkpt lat="45.03608" lon="1.18045">
        <ele>224.79290771484</ele>
        <time>2020-06-23T19:24:12.948Z</time>
      </trkpt>
      <trkpt lat="45.03586" lon="1.17985">
        <ele>220.86465454102</ele>
        <time>2020-06-23T19:24:19.039Z</time>
      </trkpt>
      <trkpt lat="45.03577" lon="1.17943">
        <ele>220.08489990234</ele>
        <time>2020-06-23T19:24:25.135Z</time>
      </trkpt>
      <trkpt lat="45.03573" lon="1.17889">
        <ele>220.59292602539</ele>
        <time>2020-06-23T19:24:31.237Z</time>
      </trkpt>
      <trkpt lat="45.03574" lon="1.17849">
        <ele>221.25280761719</ele>
        <time>2020-06-23T19:24:37.343Z</time>
      </trkpt>
      <trkpt lat="45.03573" lon="1.17832">
        <ele>221.03660583496</ele>
        <time>2020-06-23T19:24:43.451Z</time>
      </trkpt>
      <trkpt lat="45.03565" lon="1.17811">
        <ele>219.55174255371</ele>
        <time>2020-06-23T19:24:49.562Z</time>
      </trkpt>
      <trkpt lat="45.03557" lon="1.17802">
        <ele>218.62789916992</ele>
        <time>2020-06-23T19:24:55.675Z</time>
      </trkpt>
      <trkpt lat="45.03549" lon="1.17798">
        <ele>217.52409362793</ele>
        <time>2020-06-23T19:25:01.789Z</time>
      </trkpt>
      <trkpt lat="45.03529" lon="1.17791">
        <ele>214.33741760254</ele>
        <time>2020-06-23T19:25:07.906Z</time>
      </trkpt>
      <trkpt lat="45.03507" lon="1.17788">
        <ele>208.90367126465</ele>
        <time>2020-06-23T19:25:14.027Z</time>
      </trkpt>
      <trkpt lat="45.03487" lon="1.17783">
        <ele>203.50456237793</ele>
        <time>2020-06-23T19:25:20.151Z</time>
      </trkpt>
      <trkpt lat="45.03471" lon="1.17778">
        <ele>199.35325622559</ele>
        <time>2020-06-23T19:25:26.278Z</time>
      </trkpt>
      <trkpt lat="45.03457" lon="1.17765">
        <ele>197.26335144043</ele>
        <time>2020-06-23T19:25:32.407Z</time>
      </trkpt>
      <trkpt lat="45.03432" lon="1.17733">
        <ele>196.03955078125</ele>
        <time>2020-06-23T19:25:38.542Z</time>
      </trkpt>
      <trkpt lat="45.03405" lon="1.17698">
        <ele>194.43226623535</ele>
        <time>2020-06-23T19:25:44.683Z</time>
      </trkpt>
      <trkpt lat="45.03317" lon="1.17612">
        <ele>182.66743469238</ele>
        <time>2020-06-23T19:25:50.841Z</time>
      </trkpt>
      <trkpt lat="45.03283" lon="1.17575">
        <ele>179.42219543457</ele>
        <time>2020-06-23T19:25:57.006Z</time>
      </trkpt>
      <trkpt lat="45.03233" lon="1.1753">
        <ele>174.72863769531</ele>
        <time>2020-06-23T19:26:03.180Z</time>
      </trkpt>
      <trkpt lat="45.03182" lon="1.17484">
        <ele>170.14646911621</ele>
        <time>2020-06-23T19:26:09.364Z</time>
      </trkpt>
      <trkpt lat="45.03155" lon="1.17456">
        <ele>167.91673278809</ele>
        <time>2020-06-23T19:26:15.553Z</time>
      </trkpt>
      <trkpt lat="45.03089" lon="1.17393">
        <ele>161.29702758789</ele>
        <time>2020-06-23T19:26:21.755Z</time>
      </trkpt>
      <trkpt lat="45.03065" lon="1.17356">
        <ele>160.3132019043</ele>
        <time>2020-06-23T19:26:27.963Z</time>
      </trkpt>
      <trkpt lat="45.03053" lon="1.17332">
        <ele>160.74513244629</ele>
        <time>2020-06-23T19:26:34.174Z</time>
      </trkpt>
      <trkpt lat="45.03039" lon="1.17293">
        <ele>161.33433532715</ele>
        <time>2020-06-23T19:26:40.390Z</time>
      </trkpt>
      <trkpt lat="45.03026" lon="1.17267">
        <ele>158.68278503418</ele>
        <time>2020-06-23T19:26:46.609Z</time>
      </trkpt>
      <trkpt lat="45.03019" lon="1.17262">
        <ele>156.49914550781</ele>
        <time>2020-06-23T19:26:52.830Z</time>
      </trkpt>
      <trkpt lat="45.03009" lon="1.17257">
        <ele>153.19969177246</ele>
        <time>2020-06-23T19:26:59.052Z</time>
      </trkpt>
      <trkpt lat="45.02995" lon="1.17255">
        <ele>148.16053771973</ele>
        <time>2020-06-23T19:27:05.277Z</time>
      </trkpt>
      <trkpt lat="45.02975" lon="1.17258">
        <ele>142.14831542969</ele>
        <time>2020-06-23T19:27:11.505Z</time>
      </trkpt>
      <trkpt lat="45.02959" lon="1.17265">
        <ele>138.36894226074</ele>
        <time>2020-06-23T19:27:17.736Z</time>
      </trkpt>
      <trkpt lat="45.02936" lon="1.17286">
        <ele>141.56149291992</ele>
        <time>2020-06-23T19:27:23.971Z</time>
      </trkpt>
      <trkpt lat="45.02928" lon="1.17301">
        <ele>141.72689819336</ele>
        <time>2020-06-23T19:27:30.208Z</time>
      </trkpt>
      <trkpt lat="45.029" lon="1.17326">
        <ele>143.0025177002</ele>
        <time>2020-06-23T19:27:36.450Z</time>
      </trkpt>
      <trkpt lat="45.02884" lon="1.17337">
        <ele>143.90237426758</ele>
        <time>2020-06-23T19:27:42.695Z</time>
      </trkpt>
      <trkpt lat="45.02871" lon="1.17344">
        <ele>144.93580627441</ele>
        <time>2020-06-23T19:27:48.942Z</time>
      </trkpt>
      <trkpt lat="45.02849" lon="1.17348">
        <ele>147.62336730957</ele>
        <time>2020-06-23T19:27:55.193Z</time>
      </trkpt>
      <trkpt lat="45.02795" lon="1.17356">
        <ele>148.66203308105</ele>
        <time>2020-06-23T19:28:01.453Z</time>
      </trkpt>
      <trkpt lat="45.02746" lon="1.17366">
        <ele>152.80940246582</ele>
        <time>2020-06-23T19:28:07.721Z</time>
      </trkpt>
      <trkpt lat="45.02658" lon="1.17384">
        <ele>156.06953430176</ele>
        <time>2020-06-23T19:28:14.003Z</time>
      </trkpt>
      <trkpt lat="45.02633" lon="1.17394">
        <ele>155.58961486816</ele>
        <time>2020-06-23T19:28:20.289Z</time>
      </trkpt>
      <trkpt lat="45.02573" lon="1.17424">
        <ele>163.00274658203</ele>
        <time>2020-06-23T19:28:26.585Z</time>
      </trkpt>
      <trkpt lat="45.02555" lon="1.1743">
        <ele>162.87036132812</ele>
        <time>2020-06-23T19:28:32.884Z</time>
      </trkpt>
      <trkpt lat="45.02543" lon="1.17431">
        <ele>162.93035888672</ele>
        <time>2020-06-23T19:28:39.185Z</time>
      </trkpt>
      <trkpt lat="45.02532" lon="1.17433">
        <ele>164.11018371582</ele>
        <time>2020-06-23T19:28:45.488Z</time>
      </trkpt>
      <trkpt lat="45.0251" lon="1.17441">
        <ele>166.34181213379</ele>
        <time>2020-06-23T19:28:51.795Z</time>
      </trkpt>
      <trkpt lat="45.02498" lon="1.17448">
        <ele>166.31454467773</ele>
        <time>2020-06-23T19:28:58.104Z</time>
      </trkpt>
      <trkpt lat="45.02482" lon="1.17459">
        <ele>165.55867004395</ele>
        <time>2020-06-23T19:29:04.415Z</time>
      </trkpt>
      <trkpt lat="45.02467" lon="1.17467">
        <ele>165.21073913574</ele>
        <time>2020-06-23T19:29:10.729Z</time>
      </trkpt>
      <trkpt lat="45.02431" lon="1.17484">
        <ele>169.33409118652</ele>
        <time>2020-06-23T19:29:17.049Z</time>
      </trkpt>
      <trkpt lat="45.02414" lon="1.17494">
        <ele>172.59753417969</ele>
        <time>2020-06-23T19:29:23.372Z</time>
      </trkpt>
      <trkpt lat="45.02387" lon="1.17514">
        <ele>173.66241455078</ele>
        <time>2020-06-23T19:29:29.700Z</time>
      </trkpt>
      <trkpt lat="45.02373" lon="1.17523">
        <ele>172.66218566895</ele>
        <time>2020-06-23T19:29:36.030Z</time>
      </trkpt>
      <trkpt lat="45.02361" lon="1.17526">
        <ele>173.31007385254</ele>
        <time>2020-06-23T19:29:42.362Z</time>
      </trkpt>
      <trkpt lat="45.02348" lon="1.17523">
        <ele>175.06178283691</ele>
        <time>2020-06-23T19:29:48.696Z</time>
      </trkpt>
      <trkpt lat="45.02314" lon="1.17504">
        <ele>181.66682434082</ele>
        <time>2020-06-23T19:29:55.036Z</time>
      </trkpt>
      <trkpt lat="45.02296" lon="1.17493">
        <ele>185.49418640137</ele>
        <time>2020-06-23T19:30:01.379Z</time>
      </trkpt>
      <trkpt lat="45.02282" lon="1.17481">
        <ele>188.32020568848</ele>
        <time>2020-06-23T19:30:07.725Z</time>
      </trkpt>
      <trkpt lat="45.02265" lon="1.17466">
        <ele>191.95277404785</ele>
        <time>2020-06-23T19:30:14.074Z</time>
      </trkpt>
      <trkpt lat="45.02259" lon="1.17461">
        <ele>193.22456359863</ele>
        <time>2020-06-23T19:30:20.424Z</time>
      </trkpt>
      <trkpt lat="45.02251" lon="1.17459">
        <ele>194.13639831543</ele>
        <time>2020-06-23T19:30:26.776Z</time>
      </trkpt>
      <trkpt lat="45.02243" lon="1.17458">
        <ele>194.88027954102</ele>
        <time>2020-06-23T19:30:33.129Z</time>
      </trkpt>
      <trkpt lat="45.02233" lon="1.17458">
        <ele>195.60015869141</ele>
        <time>2020-06-23T19:30:39.484Z</time>
      </trkpt>
      <trkpt lat="45.02214" lon="1.17466">
        <ele>195.6241607666</ele>
        <time>2020-06-23T19:30:45.842Z</time>
      </trkpt>
      <trkpt lat="45.02187" lon="1.1748">
        <ele>196.79499816895</ele>
        <time>2020-06-23T19:30:52.204Z</time>
      </trkpt>
      <trkpt lat="45.02173" lon="1.17496">
        <ele>198.06678771973</ele>
        <time>2020-06-23T19:30:58.569Z</time>
      </trkpt>
      <trkpt lat="45.02164" lon="1.17516">
        <ele>198.53471374512</ele>
        <time>2020-06-23T19:31:04.937Z</time>
      </trkpt>
      <trkpt lat="45.02163" lon="1.17543">
        <ele>198.02450561523</ele>
        <time>2020-06-23T19:31:11.308Z</time>
      </trkpt>
      <trkpt lat="45.02165" lon="1.17579">
        <ele>197.08543395996</ele>
        <time>2020-06-23T19:31:17.683Z</time>
      </trkpt>
      <trkpt lat="45.02163" lon="1.17594">
        <ele>197.19342041016</ele>
        <time>2020-06-23T19:31:24.060Z</time>
      </trkpt>
      <trkpt lat="45.02155" lon="1.17616">
        <ele>198.68426513672</ele>
        <time>2020-06-23T19:31:30.440Z</time>
      </trkpt>
      <trkpt lat="45.02145" lon="1.17637">
        <ele>200.6159362793</ele>
        <time>2020-06-23T19:31:36.822Z</time>
      </trkpt>
      <trkpt lat="45.02088" lon="1.17736">
        <ele>203.72172546387</ele>
        <time>2020-06-23T19:31:43.219Z</time>
      </trkpt>
      <trkpt lat="45.02019" lon="1.17857">
        <ele>207.08424377441</ele>
        <time>2020-06-23T19:31:49.634Z</time>
      </trkpt>
      <trkpt lat="45.02004" lon="1.17889">
        <ele>208.71170043945</ele>
        <time>2020-06-23T19:31:56.053Z</time>
      </trkpt>
      <trkpt lat="45.01995" lon="1.17909">
        <ele>210.20420837402</ele>
        <time>2020-06-23T19:32:02.475Z</time>
      </trkpt>
      <trkpt lat="45.01983" lon="1.17928">
        <ele>212.41021728516</ele>
        <time>2020-06-23T19:32:08.900Z</time>
      </trkpt>
      <trkpt lat="45.01964" lon="1.17956">
        <ele>214.70182800293</ele>
        <time>2020-06-23T19:32:15.329Z</time>
      </trkpt>
      <trkpt lat="45.01922" lon="1.18005">
        <ele>217.39489746094</ele>
        <time>2020-06-23T19:32:21.767Z</time>
      </trkpt>
      <trkpt lat="45.01909" lon="1.1802">
        <ele>217.49508666992</ele>
        <time>2020-06-23T19:32:28.207Z</time>
      </trkpt>
      <trkpt lat="45.01875" lon="1.18041">
        <ele>220.99423217773</ele>
        <time>2020-06-23T19:32:34.653Z</time>
      </trkpt>
      <trkpt lat="45.01808" lon="1.18076">
        <ele>230.29627990723</ele>
        <time>2020-06-23T19:32:41.111Z</time>
      </trkpt>
      <trkpt lat="45.01783" lon="1.18085">
        <ele>233.54139709473</ele>
        <time>2020-06-23T19:32:47.573Z</time>
      </trkpt>
      <trkpt lat="45.01752" lon="1.18102">
        <ele>232.10163879395</ele>
        <time>2020-06-23T19:32:54.040Z</time>
      </trkpt>
      <trkpt lat="45.01699" lon="1.18135">
        <ele>237.04689025879</ele>
        <time>2020-06-23T19:33:00.516Z</time>
      </trkpt>
      <trkpt lat="45.01687" lon="1.18141">
        <ele>238.12351989746</ele>
        <time>2020-06-23T19:33:06.994Z</time>
      </trkpt>
      <trkpt lat="45.01658" lon="1.18154">
        <ele>238.96565246582</ele>
        <time>2020-06-23T19:33:13.477Z</time>
      </trkpt>
      <trkpt lat="45.01626" lon="1.18171">
        <ele>240.72099304199</ele>
        <time>2020-06-23T19:33:19.966Z</time>
      </trkpt>
      <trkpt lat="45.01612" lon="1.1818">
        <ele>240.24385070801</ele>
        <time>2020-06-23T19:33:26.457Z</time>
      </trkpt>
      <trkpt lat="45.01577" lon="1.18214">
        <ele>241.94688415527</ele>
        <time>2020-06-23T19:33:32.955Z</time>
      </trkpt>
      <trkpt lat="45.01536" lon="1.1825">
        <ele>247.04096984863</ele>
        <time>2020-06-23T19:33:39.461Z</time>
      </trkpt>
      <trkpt lat="45.01528" lon="1.18255">
        <ele>247.22093200684</ele>
        <time>2020-06-23T19:33:45.968Z</time>
      </trkpt>
      <trkpt lat="45.01503" lon="1.18265">
        <ele>248.12078857422</ele>
        <time>2020-06-23T19:33:52.479Z</time>
      </trkpt>
      <trkpt lat="45.01423" lon="1.18295">
        <ele>247.60751342773</ele>
        <time>2020-06-23T19:33:59.004Z</time>
      </trkpt>
      <trkpt lat="45.01294" lon="1.18341">
        <ele>252.3641204834</ele>
        <time>2020-06-23T19:34:05.550Z</time>
      </trkpt>
      <trkpt lat="45.0127" lon="1.1835">
        <ele>253.33596801758</ele>
        <time>2020-06-23T19:34:12.100Z</time>
      </trkpt>
      <trkpt lat="45.01234" lon="1.18366">
        <ele>254.93391418457</ele>
        <time>2020-06-23T19:34:18.656Z</time>
      </trkpt>
      <trkpt lat="45.01225" lon="1.18369">
        <ele>255.47381591797</ele>
        <time>2020-06-23T19:34:25.213Z</time>
      </trkpt>
      <trkpt lat="45.01218" lon="1.18372">
        <ele>255.84576416016</ele>
        <time>2020-06-23T19:34:31.772Z</time>
      </trkpt>
      <trkpt lat="45.01213" lon="1.18368">
        <ele>256.55364990234</ele>
        <time>2020-06-23T19:34:38.331Z</time>
      </trkpt>
      <trkpt lat="45.01178" lon="1.18352">
        <ele>258.44372558594</ele>
        <time>2020-06-23T19:34:44.896Z</time>
      </trkpt>
      <trkpt lat="45.01164" lon="1.18338">
        <ele>259.61950683594</ele>
        <time>2020-06-23T19:34:51.464Z</time>
      </trkpt>
      <trkpt lat="45.01149" lon="1.18324">
        <ele>260.80731201172</ele>
        <time>2020-06-23T19:34:58.035Z</time>
      </trkpt>
      <trkpt lat="45.01127" lon="1.18314">
        <ele>261.8313293457</ele>
        <time>2020-06-23T19:35:04.610Z</time>
      </trkpt>
      <trkpt lat="45.01096" lon="1.18313">
        <ele>261.96145629883</ele>
        <time>2020-06-23T19:35:11.190Z</time>
      </trkpt>
      <trkpt lat="45.01066" lon="1.18315">
        <ele>261.91345214844</ele>
        <time>2020-06-23T19:35:17.774Z</time>
      </trkpt>
      <trkpt lat="45.01051" lon="1.18321">
        <ele>261.76950073242</ele>
        <time>2020-06-23T19:35:24.361Z</time>
      </trkpt>
      <trkpt lat="45.01025" lon="1.18323">
        <ele>261.31634521484</ele>
        <time>2020-06-23T19:35:30.952Z</time>
      </trkpt>
      <trkpt lat="45.00989" lon="1.18324">
        <ele>260.42849731445</ele>
        <time>2020-06-23T19:35:37.549Z</time>
      </trkpt>
      <trkpt lat="45.00946" lon="1.18321">
        <ele>259.09753417969</ele>
        <time>2020-06-23T19:35:44.153Z</time>
      </trkpt>
      <trkpt lat="45.00809" lon="1.18306">
        <ele>250.35289001465</ele>
        <time>2020-06-23T19:35:50.779Z</time>
      </trkpt>
      <trkpt lat="45.00759" lon="1.183">
        <ele>248.12342834473</ele>
        <time>2020-06-23T19:35:57.413Z</time>
      </trkpt>
      <trkpt lat="45.00726" lon="1.18299">
        <ele>246.23974609375</ele>
        <time>2020-06-23T19:36:04.052Z</time>
      </trkpt>
      <trkpt lat="45.00701" lon="1.18306">
        <ele>244.04290771484</ele>
        <time>2020-06-23T19:36:10.695Z</time>
      </trkpt>
      <trkpt lat="45.00689" lon="1.1831">
        <ele>242.74711608887</ele>
        <time>2020-06-23T19:36:17.340Z</time>
      </trkpt>
      <trkpt lat="45.00673" lon="1.18321">
        <ele>241.0990447998</ele>
        <time>2020-06-23T19:36:23.988Z</time>
      </trkpt>
      <trkpt lat="45.00658" lon="1.18334">
        <ele>239.55130004883</ele>
        <time>2020-06-23T19:36:30.639Z</time>
      </trkpt>
      <trkpt lat="45.00645" lon="1.18349">
        <ele>238.50157165527</ele>
        <time>2020-06-23T19:36:37.292Z</time>
      </trkpt>
      <trkpt lat="45.00628" lon="1.18384">
        <ele>237.26577758789</ele>
        <time>2020-06-23T19:36:43.950Z</time>
      </trkpt>
      <trkpt lat="45.00624" lon="1.18408">
        <ele>236.73690795898</ele>
        <time>2020-06-23T19:36:50.611Z</time>
      </trkpt>
      <trkpt lat="45.00622" lon="1.18439">
        <ele>236.0890045166</ele>
        <time>2020-06-23T19:36:57.276Z</time>
      </trkpt>
      <trkpt lat="45.00619" lon="1.18467">
        <ele>235.56109619141</ele>
        <time>2020-06-23T19:37:03.944Z</time>
      </trkpt>
      <trkpt lat="45.00614" lon="1.18492">
        <ele>235.76823425293</ele>
        <time>2020-06-23T19:37:10.615Z</time>
      </trkpt>
      <trkpt lat="45.00614" lon="1.18508">
        <ele>236.34414672852</ele>
        <time>2020-06-23T19:37:17.288Z</time>
      </trkpt>
      <trkpt lat="45.00624" lon="1.18543">
        <ele>237.36396789551</ele>
        <time>2020-06-23T19:37:23.965Z</time>
      </trkpt>
      <trkpt lat="45.00631" lon="1.18577">
        <ele>238.02391052246</ele>
        <time>2020-06-23T19:37:30.646Z</time>
      </trkpt>
      <trkpt lat="45.00633" lon="1.18602">
        <ele>237.79594421387</ele>
        <time>2020-06-23T19:37:37.330Z</time>
      </trkpt>
      <trkpt lat="45.00631" lon="1.18627">
        <ele>237.42401123047</ele>
        <time>2020-06-23T19:37:44.017Z</time>
      </trkpt>
      <trkpt lat="45.00628" lon="1.18678">
        <ele>235.14419555664</ele>
        <time>2020-06-23T19:37:50.709Z</time>
      </trkpt>
      <trkpt lat="45.00632" lon="1.18754">
        <ele>232.41108703613</ele>
        <time>2020-06-23T19:37:57.410Z</time>
      </trkpt>
      <trkpt lat="45.00631" lon="1.18777">
        <ele>232.35108947754</ele>
        <time>2020-06-23T19:38:04.114Z</time>
      </trkpt>
      <trkpt lat="45.00627" lon="1.18801">
        <ele>232.11112976074</ele>
        <time>2020-06-23T19:38:10.821Z</time>
      </trkpt>
      <trkpt lat="45.00621" lon="1.18823">
        <ele>232.22674560547</ele>
        <time>2020-06-23T19:38:17.530Z</time>
      </trkpt>
      <trkpt lat="45.00607" lon="1.18852">
        <ele>232.75465393066</ele>
        <time>2020-06-23T19:38:24.243Z</time>
      </trkpt>
      <trkpt lat="45.00583" lon="1.18895">
        <ele>228.93893432617</ele>
        <time>2020-06-23T19:38:30.962Z</time>
      </trkpt>
      <trkpt lat="45.00569" lon="1.18934">
        <ele>226.0359954834</ele>
        <time>2020-06-23T19:38:37.686Z</time>
      </trkpt>
      <trkpt lat="45.00553" lon="1.18974">
        <ele>221.81269836426</ele>
        <time>2020-06-23T19:38:44.416Z</time>
      </trkpt>
      <trkpt lat="45.00535" lon="1.18999">
        <ele>219.07685852051</ele>
        <time>2020-06-23T19:38:51.150Z</time>
      </trkpt>
      <trkpt lat="45.00509" lon="1.19023">
        <ele>218.88488769531</ele>
        <time>2020-06-23T19:38:57.889Z</time>
      </trkpt>
      <trkpt lat="45.00491" lon="1.19039">
        <ele>217.09230041504</ele>
        <time>2020-06-23T19:39:04.631Z</time>
      </trkpt>
      <trkpt lat="45.00469" lon="1.19067">
        <ele>214.38960266113</ele>
        <time>2020-06-23T19:39:11.378Z</time>
      </trkpt>
      <trkpt lat="45.0045" lon="1.19093">
        <ele>216.9482421875</ele>
        <time>2020-06-23T19:39:18.129Z</time>
      </trkpt>
      <trkpt lat="45.0043" lon="1.19116">
        <ele>219.59980773926</ele>
        <time>2020-06-23T19:39:24.884Z</time>
      </trkpt>
      <trkpt lat="45.00416" lon="1.1913">
        <ele>217.30764770508</ele>
        <time>2020-06-23T19:39:31.642Z</time>
      </trkpt>
      <trkpt lat="45.0039" lon="1.1915">
        <ele>214.28588867188</ele>
        <time>2020-06-23T19:39:38.405Z</time>
      </trkpt>
      <trkpt lat="45.00347" lon="1.1918">
        <ele>212.33729553223</ele>
        <time>2020-06-23T19:39:45.175Z</time>
      </trkpt>
      <trkpt lat="45.00336" lon="1.19192">
        <ele>212.10765075684</ele>
        <time>2020-06-23T19:39:51.947Z</time>
      </trkpt>
      <trkpt lat="45.0033" lon="1.19202">
        <ele>210.76387023926</ele>
        <time>2020-06-23T19:39:58.721Z</time>
      </trkpt>
      <trkpt lat="45.0032" lon="1.19216">
        <ele>208.65222167969</ele>
        <time>2020-06-23T19:40:05.497Z</time>
      </trkpt>
      <trkpt lat="45.00313" lon="1.19223">
        <ele>207.3084564209</ele>
        <time>2020-06-23T19:40:12.275Z</time>
      </trkpt>
      <trkpt lat="45.00305" lon="1.19225">
        <ele>206.06065368652</ele>
        <time>2020-06-23T19:40:19.054Z</time>
      </trkpt>
      <trkpt lat="45.00283" lon="1.19223">
        <ele>204.12760925293</ele>
        <time>2020-06-23T19:40:25.836Z</time>
      </trkpt>
      <trkpt lat="45.00265" lon="1.19219">
        <ele>204.63153076172</ele>
        <time>2020-06-23T19:40:32.621Z</time>
      </trkpt>
      <trkpt lat="45.00248" lon="1.19217">
        <ele>205.17143249512</ele>
        <time>2020-06-23T19:40:39.409Z</time>
      </trkpt>
      <trkpt lat="45.00235" lon="1.19218">
        <ele>205.67535400391</ele>
        <time>2020-06-23T19:40:46.199Z</time>
      </trkpt>
      <trkpt lat="45.00211" lon="1.19224">
        <ele>206.75517272949</ele>
        <time>2020-06-23T19:40:52.993Z</time>
      </trkpt>
      <trkpt lat="45.00194" lon="1.19227">
        <ele>205.97711181641</ele>
        <time>2020-06-23T19:40:59.790Z</time>
      </trkpt>
      <trkpt lat="45.00177" lon="1.19226">
        <ele>204.76531982422</ele>
        <time>2020-06-23T19:41:06.590Z</time>
      </trkpt>
      <trkpt lat="45.00169" lon="1.19224">
        <ele>204.21340942383</ele>
        <time>2020-06-23T19:41:13.391Z</time>
      </trkpt>
      <trkpt lat="45.00142" lon="1.19211">
        <ele>202.42570495605</ele>
        <time>2020-06-23T19:41:20.196Z</time>
      </trkpt>
      <trkpt lat="45.00106" lon="1.19192">
        <ele>200.74829101562</ele>
        <time>2020-06-23T19:41:27.008Z</time>
      </trkpt>
      <trkpt lat="45.00089" lon="1.19178">
        <ele>200.30436706543</ele>
        <time>2020-06-23T19:41:33.823Z</time>
      </trkpt>
      <trkpt lat="45.0007" lon="1.19158">
        <ele>199.86044311523</ele>
        <time>2020-06-23T19:41:40.641Z</time>
      </trkpt>
      <trkpt lat="45.00044" lon="1.1914">
        <ele>199.54922485352</ele>
        <time>2020-06-23T19:41:47.464Z</time>
      </trkpt>
      <trkpt lat="45.0003" lon="1.1913">
        <ele>200.29257202148</ele>
        <time>2020-06-23T19:41:54.290Z</time>
      </trkpt>
      <trkpt lat="45.00012" lon="1.1912">
        <ele>199.01658630371</ele>
        <time>2020-06-23T19:42:01.119Z</time>
      </trkpt>
      <trkpt lat="44.99962" lon="1.19099">
        <ele>196.49700927734</ele>
        <time>2020-06-23T19:42:07.956Z</time>
      </trkpt>
      <trkpt lat="44.99892" lon="1.19074">
        <ele>199.06944274902</ele>
        <time>2020-06-23T19:42:14.805Z</time>
      </trkpt>
      <trkpt lat="44.99835" lon="1.1905">
        <ele>196.99990844727</ele>
        <time>2020-06-23T19:42:21.663Z</time>
      </trkpt>
      <trkpt lat="44.99807" lon="1.19038">
        <ele>195.08023071289</ele>
        <time>2020-06-23T19:42:28.526Z</time>
      </trkpt>
      <trkpt lat="44.99788" lon="1.19034">
        <ele>194.41191101074</ele>
        <time>2020-06-23T19:42:35.392Z</time>
      </trkpt>
      <trkpt lat="44.9976" lon="1.19036">
        <ele>195.23248291016</ele>
        <time>2020-06-23T19:42:42.262Z</time>
      </trkpt>
      <trkpt lat="44.99739" lon="1.19035">
        <ele>196.07234191895</ele>
        <time>2020-06-23T19:42:49.136Z</time>
      </trkpt>
      <trkpt lat="44.99726" lon="1.19031">
        <ele>196.02433776855</ele>
        <time>2020-06-23T19:42:56.012Z</time>
      </trkpt>
      <trkpt lat="44.99713" lon="1.19023">
        <ele>195.30445861816</ele>
        <time>2020-06-23T19:43:02.890Z</time>
      </trkpt>
      <trkpt lat="44.99679" lon="1.19002">
        <ele>192.3540802002</ele>
        <time>2020-06-23T19:43:09.774Z</time>
      </trkpt>
      <trkpt lat="44.99674" lon="1.19">
        <ele>192.078125</ele>
        <time>2020-06-23T19:43:16.659Z</time>
      </trkpt>
      <trkpt lat="44.99639" lon="1.18992">
        <ele>191.15428161621</ele>
        <time>2020-06-23T19:43:23.550Z</time>
      </trkpt>
      <trkpt lat="44.99582" lon="1.1898">
        <ele>187.26759338379</ele>
        <time>2020-06-23T19:43:30.450Z</time>
      </trkpt>
      <trkpt lat="44.99559" lon="1.18979">
        <ele>185.98379516602</ele>
        <time>2020-06-23T19:43:37.354Z</time>
      </trkpt>
      <trkpt lat="44.99539" lon="1.18981">
        <ele>185.18559265137</ele>
        <time>2020-06-23T19:43:44.261Z</time>
      </trkpt>
      <trkpt lat="44.99472" lon="1.18995">
        <ele>182.28419494629</ele>
        <time>2020-06-23T19:43:51.179Z</time>
      </trkpt>
      <trkpt lat="44.99425" lon="1.19005">
        <ele>182.78549194336</ele>
        <time>2020-06-23T19:43:58.104Z</time>
      </trkpt>
      <trkpt lat="44.99391" lon="1.19017">
        <ele>182.61212158203</ele>
        <time>2020-06-23T19:44:05.035Z</time>
      </trkpt>
      <trkpt lat="44.99371" lon="1.19027">
        <ele>182.3356628418</ele>
        <time>2020-06-23T19:44:11.969Z</time>
      </trkpt>
      <trkpt lat="44.99333" lon="1.19059">
        <ele>187.30282592773</ele>
        <time>2020-06-23T19:44:18.910Z</time>
      </trkpt>
      <trkpt lat="44.99322" lon="1.19065">
        <ele>188.80078125</ele>
        <time>2020-06-23T19:44:25.853Z</time>
      </trkpt>
      <trkpt lat="44.99301" lon="1.19072">
        <ele>191.35804748535</ele>
        <time>2020-06-23T19:44:32.800Z</time>
      </trkpt>
      <trkpt lat="44.99275" lon="1.19073">
        <ele>193.27456665039</ele>
        <time>2020-06-23T19:44:39.751Z</time>
      </trkpt>
      <trkpt lat="44.99263" lon="1.19071">
        <ele>193.41854858398</ele>
        <time>2020-06-23T19:44:46.704Z</time>
      </trkpt>
      <trkpt lat="44.99248" lon="1.19066">
        <ele>193.05860900879</ele>
        <time>2020-06-23T19:44:53.659Z</time>
      </trkpt>
      <trkpt lat="44.9924" lon="1.19059">
        <ele>192.02145385742</ele>
        <time>2020-06-23T19:45:00.616Z</time>
      </trkpt>
      <trkpt lat="44.9921" lon="1.19035">
        <ele>189.14193725586</ele>
        <time>2020-06-23T19:45:07.578Z</time>
      </trkpt>
      <trkpt lat="44.99177" lon="1.19011">
        <ele>184.15902709961</ele>
        <time>2020-06-23T19:45:14.546Z</time>
      </trkpt>
      <trkpt lat="44.99159" lon="1.19004">
        <ele>182.46730041504</ele>
        <time>2020-06-23T19:45:21.517Z</time>
      </trkpt>
      <trkpt lat="44.99141" lon="1.19002">
        <ele>181.12113952637</ele>
        <time>2020-06-23T19:45:28.491Z</time>
      </trkpt>
      <trkpt lat="44.99136" lon="1.19002">
        <ele>180.64122009277</ele>
        <time>2020-06-23T19:45:35.466Z</time>
      </trkpt>
      <trkpt lat="44.99116" lon="1.19009">
        <ele>179.79672241211</ele>
        <time>2020-06-23T19:45:42.444Z</time>
      </trkpt>
      <trkpt lat="44.99098" lon="1.19019">
        <ele>179.79672241211</ele>
        <time>2020-06-23T19:45:49.425Z</time>
      </trkpt>
      <trkpt lat="44.99056" lon="1.19042">
        <ele>178.57646179199</ele>
        <time>2020-06-23T19:45:56.413Z</time>
      </trkpt>
      <trkpt lat="44.99022" lon="1.19053">
        <ele>179.31106567383</ele>
        <time>2020-06-23T19:46:03.407Z</time>
      </trkpt>
      <trkpt lat="44.99007" lon="1.19054">
        <ele>180.72682189941</ele>
        <time>2020-06-23T19:46:10.403Z</time>
      </trkpt>
      <trkpt lat="44.98988" lon="1.19052">
        <ele>182.0106048584</ele>
        <time>2020-06-23T19:46:17.402Z</time>
      </trkpt>
      <trkpt lat="44.98969" lon="1.19046">
        <ele>182.67050170898</ele>
        <time>2020-06-23T19:46:24.405Z</time>
      </trkpt>
      <trkpt lat="44.98956" lon="1.19039">
        <ele>182.46154785156</ele>
        <time>2020-06-23T19:46:31.410Z</time>
      </trkpt>
      <trkpt lat="44.9892" lon="1.19014">
        <ele>178.13026428223</ele>
        <time>2020-06-23T19:46:38.421Z</time>
      </trkpt>
      <trkpt lat="44.98906" lon="1.19009">
        <ele>177.18241882324</ele>
        <time>2020-06-23T19:46:45.435Z</time>
      </trkpt>
      <trkpt lat="44.98891" lon="1.19006">
        <ele>176.53453063965</ele>
        <time>2020-06-23T19:46:52.451Z</time>
      </trkpt>
      <trkpt lat="44.98875" lon="1.19007">
        <ele>176.49853515625</ele>
        <time>2020-06-23T19:46:59.470Z</time>
      </trkpt>
      <trkpt lat="44.98866" lon="1.19009">
        <ele>176.59655761719</ele>
        <time>2020-06-23T19:47:06.490Z</time>
      </trkpt>
      <trkpt lat="44.98845" lon="1.19013">
        <ele>176.71653747559</ele>
        <time>2020-06-23T19:47:13.513Z</time>
      </trkpt>
      <trkpt lat="44.98828" lon="1.19018">
        <ele>177.04875183105</ele>
        <time>2020-06-23T19:47:20.539Z</time>
      </trkpt>
      <trkpt lat="44.98801" lon="1.19019">
        <ele>176.22090148926</ele>
        <time>2020-06-23T19:47:27.569Z</time>
      </trkpt>
      <trkpt lat="44.98759" lon="1.19018">
        <ele>174.95489501953</ele>
        <time>2020-06-23T19:47:34.606Z</time>
      </trkpt>
      <trkpt lat="44.98755" lon="1.19018">
        <ele>174.85891723633</ele>
        <time>2020-06-23T19:47:41.644Z</time>
      </trkpt>
      <trkpt lat="44.98615" lon="1.19023">
        <ele>173.18522644043</ele>
        <time>2020-06-23T19:47:48.704Z</time>
      </trkpt>
      <trkpt lat="44.98563" lon="1.19029">
        <ele>172.07954406738</ele>
        <time>2020-06-23T19:47:55.773Z</time>
      </trkpt>
      <trkpt lat="44.9852" lon="1.1904">
        <ele>170.42098999023</ele>
        <time>2020-06-23T19:48:02.849Z</time>
      </trkpt>
      <trkpt lat="44.98502" lon="1.19046">
        <ele>170.27700805664</ele>
        <time>2020-06-23T19:48:09.928Z</time>
      </trkpt>
      <trkpt lat="44.98434" lon="1.19064">
        <ele>170.76539611816</ele>
        <time>2020-06-23T19:48:17.018Z</time>
      </trkpt>
      <trkpt lat="44.98404" lon="1.19072">
        <ele>172.66108703613</ele>
        <time>2020-06-23T19:48:24.112Z</time>
      </trkpt>
      <trkpt lat="44.98393" lon="1.19075">
        <ele>173.36897277832</ele>
        <time>2020-06-23T19:48:31.208Z</time>
      </trkpt>
      <trkpt lat="44.98378" lon="1.19074">
        <ele>173.5783996582</ele>
        <time>2020-06-23T19:48:38.307Z</time>
      </trkpt>
      <trkpt lat="44.98367" lon="1.19074">
        <ele>173.78845214844</ele>
        <time>2020-06-23T19:48:45.407Z</time>
      </trkpt>
      <trkpt lat="44.98333" lon="1.19068">
        <ele>172.90058898926</ele>
        <time>2020-06-23T19:48:52.513Z</time>
      </trkpt>
      <trkpt lat="44.98311" lon="1.19063">
        <ele>172.08473205566</ele>
        <time>2020-06-23T19:48:59.622Z</time>
      </trkpt>
      <trkpt lat="44.98296" lon="1.19062">
        <ele>172.04873657227</ele>
        <time>2020-06-23T19:49:06.734Z</time>
      </trkpt>
      <trkpt lat="44.98282" lon="1.19062">
        <ele>171.75407409668</ele>
        <time>2020-06-23T19:49:13.848Z</time>
      </trkpt>
      <trkpt lat="44.98264" lon="1.19057">
        <ele>170.47163391113</ele>
        <time>2020-06-23T19:49:20.965Z</time>
      </trkpt>
      <trkpt lat="44.98208" lon="1.19036">
        <ele>165.9363861084</ele>
        <time>2020-06-23T19:49:28.091Z</time>
      </trkpt>
      <trkpt lat="44.98194" lon="1.19033">
        <ele>165.0725402832</ele>
        <time>2020-06-23T19:49:35.220Z</time>
      </trkpt>
      <trkpt lat="44.98178" lon="1.19032">
        <ele>164.3702545166</ele>
        <time>2020-06-23T19:49:42.351Z</time>
      </trkpt>
      <trkpt lat="44.98149" lon="1.19036">
        <ele>163.41041564941</ele>
        <time>2020-06-23T19:49:49.487Z</time>
      </trkpt>
      <trkpt lat="44.98089" lon="1.19048">
        <ele>163.7024230957</ele>
        <time>2020-06-23T19:49:56.633Z</time>
      </trkpt>
      <trkpt lat="44.98004" lon="1.19065">
        <ele>164.73008728027</ele>
        <time>2020-06-23T19:50:03.792Z</time>
      </trkpt>
      <trkpt lat="44.97972" lon="1.19068">
        <ele>164.50213623047</ele>
        <time>2020-06-23T19:50:10.956Z</time>
      </trkpt>
      <trkpt lat="44.97946" lon="1.19063">
        <ele>162.94284057617</ele>
        <time>2020-06-23T19:50:18.125Z</time>
      </trkpt>
      <trkpt lat="44.97895" lon="1.19048">
        <ele>160.67701721191</ele>
        <time>2020-06-23T19:50:25.302Z</time>
      </trkpt>
      <trkpt lat="44.9788" lon="1.19042">
        <ele>159.95713806152</ele>
        <time>2020-06-23T19:50:32.481Z</time>
      </trkpt>
      <trkpt lat="44.97861" lon="1.19041">
        <ele>158.78550720215</ele>
        <time>2020-06-23T19:50:39.663Z</time>
      </trkpt>
      <trkpt lat="44.97841" lon="1.19047">
        <ele>157.0166015625</ele>
        <time>2020-06-23T19:50:46.849Z</time>
      </trkpt>
      <trkpt lat="44.9779" lon="1.19072">
        <ele>151.82688903809</ele>
        <time>2020-06-23T19:50:54.043Z</time>
      </trkpt>
      <trkpt lat="44.97791" lon="1.19085">
        <ele>151.70690917969</ele>
        <time>2020-06-23T19:51:01.239Z</time>
      </trkpt>
      <trkpt lat="44.97774" lon="1.19093">
        <ele>150.9990234375</ele>
        <time>2020-06-23T19:51:08.438Z</time>
      </trkpt>
      <trkpt lat="44.9774" lon="1.19108">
        <ele>150.28874206543</ele>
        <time>2020-06-23T19:51:15.642Z</time>
      </trkpt>
      <trkpt lat="44.97723" lon="1.19113">
        <ele>150.67266845703</ele>
        <time>2020-06-23T19:51:22.849Z</time>
      </trkpt>
      <trkpt lat="44.97678" lon="1.19123">
        <ele>151.37808227539</ele>
        <time>2020-06-23T19:51:30.064Z</time>
      </trkpt>
      <trkpt lat="44.97658" lon="1.19127">
        <ele>151.18612670898</ele>
        <time>2020-06-23T19:51:37.282Z</time>
      </trkpt>
      <trkpt lat="44.97642" lon="1.19137">
        <ele>151.11413574219</ele>
        <time>2020-06-23T19:51:44.503Z</time>
      </trkpt>
      <trkpt lat="44.97636" lon="1.19146">
        <ele>151.23176574707</ele>
        <time>2020-06-23T19:51:51.725Z</time>
      </trkpt>
      <trkpt lat="44.97621" lon="1.19177">
        <ele>153.44361877441</ele>
        <time>2020-06-23T19:51:58.951Z</time>
      </trkpt>
      <trkpt lat="44.97608" lon="1.19223">
        <ele>156.67547607422</ele>
        <time>2020-06-23T19:52:06.183Z</time>
      </trkpt>
      <trkpt lat="44.97603" lon="1.19234">
        <ele>157.22659301758</ele>
        <time>2020-06-23T19:52:13.416Z</time>
      </trkpt>
      <trkpt lat="44.97567" lon="1.1923">
        <ele>156.45872497559</ele>
        <time>2020-06-23T19:52:20.655Z</time>
      </trkpt>
      <trkpt lat="44.97544" lon="1.19229">
        <ele>156.09878540039</ele>
        <time>2020-06-23T19:52:27.898Z</time>
      </trkpt>
      <trkpt lat="44.97529" lon="1.19234">
        <ele>157.24755859375</ele>
        <time>2020-06-23T19:52:35.143Z</time>
      </trkpt>
      <trkpt lat="44.97492" lon="1.1925">
        <ele>160.9909362793</ele>
        <time>2020-06-23T19:52:42.394Z</time>
      </trkpt>
      <trkpt lat="44.97474" lon="1.19254">
        <ele>162.76663208008</ele>
        <time>2020-06-23T19:52:49.648Z</time>
      </trkpt>
      <trkpt lat="44.97461" lon="1.19255">
        <ele>164.02642822266</ele>
        <time>2020-06-23T19:52:56.904Z</time>
      </trkpt>
      <trkpt lat="44.97446" lon="1.19249">
        <ele>165.10800170898</ele>
        <time>2020-06-23T19:53:04.163Z</time>
      </trkpt>
      <trkpt lat="44.97407" lon="1.19246">
        <ele>167.87953186035</ele>
        <time>2020-06-23T19:53:11.428Z</time>
      </trkpt>
      <trkpt lat="44.97365" lon="1.19252">
        <ele>169.59967041016</ele>
        <time>2020-06-23T19:53:18.700Z</time>
      </trkpt>
      <trkpt lat="44.97315" lon="1.1926">
        <ele>169</ele>
        <time>2020-06-23T19:53:25.980Z</time>
      </trkpt>
      <trkpt lat="44.97279" lon="1.19264">
        <ele>169.4402923584</ele>
        <time>2020-06-23T19:53:33.266Z</time>
      </trkpt>
      <trkpt lat="44.97267" lon="1.19262">
        <ele>169.87222290039</ele>
        <time>2020-06-23T19:53:40.554Z</time>
      </trkpt>
      <trkpt lat="44.97236" lon="1.19251">
        <ele>170.98803710938</ele>
        <time>2020-06-23T19:53:47.847Z</time>
      </trkpt>
      <trkpt lat="44.97214" lon="1.1925">
        <ele>172.90811157227</ele>
        <time>2020-06-23T19:53:55.143Z</time>
      </trkpt>
      <trkpt lat="44.97158" lon="1.19249">
        <ele>177.08753967285</ele>
        <time>2020-06-23T19:54:02.448Z</time>
      </trkpt>
      <trkpt lat="44.97139" lon="1.19251">
        <ele>178.59928894043</ele>
        <time>2020-06-23T19:54:09.756Z</time>
      </trkpt>
      <trkpt lat="44.97122" lon="1.19258">
        <ele>180.29655456543</ele>
        <time>2020-06-23T19:54:17.067Z</time>
      </trkpt>
      <trkpt lat="44.97089" lon="1.19274">
        <ele>183.42803955078</ele>
        <time>2020-06-23T19:54:24.384Z</time>
      </trkpt>
      <trkpt lat="44.97071" lon="1.19279">
        <ele>184.86779785156</ele>
        <time>2020-06-23T19:54:31.704Z</time>
      </trkpt>
      <trkpt lat="44.97043" lon="1.19281">
        <ele>186.69148254395</ele>
        <time>2020-06-23T19:54:39.028Z</time>
      </trkpt>
      <trkpt lat="44.97028" lon="1.19279">
        <ele>188.08041381836</ele>
        <time>2020-06-23T19:54:46.355Z</time>
      </trkpt>
      <trkpt lat="44.97002" lon="1.19274">
        <ele>190.43020629883</ele>
        <time>2020-06-23T19:54:53.686Z</time>
      </trkpt>
      <trkpt lat="44.96984" lon="1.19273">
        <ele>191.28205871582</ele>
        <time>2020-06-23T19:55:01.020Z</time>
      </trkpt>
      <trkpt lat="44.96952" lon="1.19282">
        <ele>192.99589538574</ele>
        <time>2020-06-23T19:55:08.359Z</time>
      </trkpt>
      <trkpt lat="44.96937" lon="1.19293">
        <ele>194.05511474609</ele>
        <time>2020-06-23T19:55:15.701Z</time>
      </trkpt>
      <trkpt lat="44.96903" lon="1.19325">
        <ele>197.75433349609</ele>
        <time>2020-06-23T19:55:23.049Z</time>
      </trkpt>
      <trkpt lat="44.96862" lon="1.19371">
        <ele>201.17597961426</ele>
        <time>2020-06-23T19:55:30.406Z</time>
      </trkpt>
      <trkpt lat="44.96837" lon="1.1941">
        <ele>201.99311828613</ele>
        <time>2020-06-23T19:55:37.769Z</time>
      </trkpt>
      <trkpt lat="44.96824" lon="1.1943">
        <ele>202.78828430176</ele>
        <time>2020-06-23T19:55:45.135Z</time>
      </trkpt>
      <trkpt lat="44.968" lon="1.19459">
        <ele>202.21238708496</ele>
        <time>2020-06-23T19:55:52.506Z</time>
      </trkpt>
      <trkpt lat="44.96782" lon="1.19475">
        <ele>202.0707244873</ele>
        <time>2020-06-23T19:55:59.880Z</time>
      </trkpt>
      <trkpt lat="44.96768" lon="1.19484">
        <ele>202.62239074707</ele>
        <time>2020-06-23T19:56:07.257Z</time>
      </trkpt>
      <trkpt lat="44.96753" lon="1.19487">
        <ele>202.98233032227</ele>
        <time>2020-06-23T19:56:14.636Z</time>
      </trkpt>
      <trkpt lat="44.96736" lon="1.19486">
        <ele>203.12631225586</ele>
        <time>2020-06-23T19:56:22.018Z</time>
      </trkpt>
      <trkpt lat="44.96728" lon="1.19485">
        <ele>203.16230773926</ele>
        <time>2020-06-23T19:56:29.401Z</time>
      </trkpt>
      <trkpt lat="44.967" lon="1.19488">
        <ele>204.16957092285</ele>
        <time>2020-06-23T19:56:36.788Z</time>
      </trkpt>
      <trkpt lat="44.96667" lon="1.19506">
        <ele>207.44502258301</ele>
        <time>2020-06-23T19:56:44.181Z</time>
      </trkpt>
      <trkpt lat="44.96614" lon="1.19547">
        <ele>212.62576293945</ele>
        <time>2020-06-23T19:56:51.584Z</time>
      </trkpt>
      <trkpt lat="44.96589" lon="1.19565">
        <ele>214.09538269043</ele>
        <time>2020-06-23T19:56:58.991Z</time>
      </trkpt>
      <trkpt lat="44.96576" lon="1.19571">
        <ele>214.83926391602</ele>
        <time>2020-06-23T19:57:06.400Z</time>
      </trkpt>
      <trkpt lat="44.96544" lon="1.19578">
        <ele>215.7869720459</ele>
        <time>2020-06-23T19:57:13.815Z</time>
      </trkpt>
      <trkpt lat="44.96526" lon="1.19585">
        <ele>217.02922058105</ele>
        <time>2020-06-23T19:57:21.233Z</time>
      </trkpt>
      <trkpt lat="44.96509" lon="1.19596">
        <ele>218.57695007324</ele>
        <time>2020-06-23T19:57:28.654Z</time>
      </trkpt>
      <trkpt lat="44.96467" lon="1.19636">
        <ele>221.45268249512</ele>
        <time>2020-06-23T19:57:36.083Z</time>
      </trkpt>
      <trkpt lat="44.96453" lon="1.19652">
        <ele>222.39764404297</ele>
        <time>2020-06-23T19:57:43.515Z</time>
      </trkpt>
      <trkpt lat="44.96427" lon="1.19687">
        <ele>224.48530578613</ele>
        <time>2020-06-23T19:57:50.952Z</time>
      </trkpt>
      <trkpt lat="44.96404" lon="1.19717">
        <ele>224.7805480957</ele>
        <time>2020-06-23T19:57:58.394Z</time>
      </trkpt>
      <trkpt lat="44.9637" lon="1.19738">
        <ele>224.52378845215</ele>
        <time>2020-06-23T19:58:05.842Z</time>
      </trkpt>
      <trkpt lat="44.9635" lon="1.19748">
        <ele>224.40380859375</ele>
        <time>2020-06-23T19:58:13.294Z</time>
      </trkpt>
      <trkpt lat="44.96337" lon="1.19752">
        <ele>224.47579956055</ele>
        <time>2020-06-23T19:58:20.748Z</time>
      </trkpt>
      <trkpt lat="44.96329" lon="1.19751">
        <ele>224.72775268555</ele>
        <time>2020-06-23T19:58:28.203Z</time>
      </trkpt>
      <trkpt lat="44.96322" lon="1.19748">
        <ele>225.07569885254</ele>
        <time>2020-06-23T19:58:35.659Z</time>
      </trkpt>
      <trkpt lat="44.96313" lon="1.19739">
        <ele>225.83157348633</ele>
        <time>2020-06-23T19:58:43.117Z</time>
      </trkpt>
      <trkpt lat="44.96296" lon="1.19719">
        <ele>227.21621704102</ele>
        <time>2020-06-23T19:58:50.579Z</time>
      </trkpt>
      <trkpt lat="44.96286" lon="1.19713">
        <ele>227.61135864258</ele>
        <time>2020-06-23T19:58:58.042Z</time>
      </trkpt>
      <trkpt lat="44.96273" lon="1.19711">
        <ele>227.84855651855</ele>
        <time>2020-06-23T19:59:05.507Z</time>
      </trkpt>
      <trkpt lat="44.96219" lon="1.19721">
        <ele>228.90437316895</ele>
        <time>2020-06-23T19:59:12.981Z</time>
      </trkpt>
      <trkpt lat="44.96176" lon="1.19729">
        <ele>229.71891784668</ele>
        <time>2020-06-23T19:59:20.462Z</time>
      </trkpt>
      <trkpt lat="44.96121" lon="1.19744">
        <ele>230.61041259766</ele>
        <time>2020-06-23T19:59:27.952Z</time>
      </trkpt>
      <trkpt lat="44.96086" lon="1.19753">
        <ele>233.95785522461</ele>
        <time>2020-06-23T19:59:35.448Z</time>
      </trkpt>
      <trkpt lat="44.9604" lon="1.19771">
        <ele>240.70896911621</ele>
        <time>2020-06-23T19:59:42.951Z</time>
      </trkpt>
      <trkpt lat="44.96014" lon="1.19785">
        <ele>245.88636779785</ele>
        <time>2020-06-23T19:59:50.459Z</time>
      </trkpt>
      <trkpt lat="44.95986" lon="1.19837">
        <ele>251.76982116699</ele>
        <time>2020-06-23T19:59:57.974Z</time>
      </trkpt>
      <trkpt lat="44.95957" lon="1.19886">
        <ele>260.23782348633</ele>
        <time>2020-06-23T20:00:05.497Z</time>
      </trkpt>
      <trkpt lat="44.95944" lon="1.19906">
        <ele>262.52548217773</ele>
        <time>2020-06-23T20:00:13.023Z</time>
      </trkpt>
      <trkpt lat="44.95934" lon="1.19926">
        <ele>264.08520507812</ele>
        <time>2020-06-23T20:00:20.551Z</time>
      </trkpt>
      <trkpt lat="44.95922" lon="1.19973">
        <ele>264.31295776367</ele>
        <time>2020-06-23T20:00:28.085Z</time>
      </trkpt>
      <trkpt lat="44.95919" lon="1.20035">
        <ele>265.28082275391</ele>
        <time>2020-06-23T20:00:35.626Z</time>
      </trkpt>
      <trkpt lat="44.95921" lon="1.20106">
        <ele>264.93218994141</ele>
        <time>2020-06-23T20:00:43.175Z</time>
      </trkpt>
      <trkpt lat="44.95921" lon="1.20129">
        <ele>263.96969604492</ele>
        <time>2020-06-23T20:00:50.727Z</time>
      </trkpt>
      <trkpt lat="44.95919" lon="1.20145">
        <ele>263.32180786133</ele>
        <time>2020-06-23T20:00:58.281Z</time>
      </trkpt>
      <trkpt lat="44.95912" lon="1.2016">
        <ele>263.20141601562</ele>
        <time>2020-06-23T20:01:05.837Z</time>
      </trkpt>
      <trkpt lat="44.95902" lon="1.2017">
        <ele>263.44137573242</ele>
        <time>2020-06-23T20:01:13.395Z</time>
      </trkpt>
      <trkpt lat="44.95893" lon="1.20174">
        <ele>262.97250366211</ele>
        <time>2020-06-23T20:01:20.954Z</time>
      </trkpt>
      <trkpt lat="44.95879" lon="1.20174">
        <ele>262.63656616211</ele>
        <time>2020-06-23T20:01:28.515Z</time>
      </trkpt>
      <trkpt lat="44.95867" lon="1.2017">
        <ele>262.125</ele>
        <time>2020-06-23T20:01:36.078Z</time>
      </trkpt>
      <trkpt lat="44.95861" lon="1.20166">
        <ele>261.8850402832</ele>
        <time>2020-06-23T20:01:43.642Z</time>
      </trkpt>
      <trkpt lat="44.95852" lon="1.20156">
        <ele>262.00500488281</ele>
        <time>2020-06-23T20:01:51.208Z</time>
      </trkpt>
      <trkpt lat="44.95844" lon="1.20143">
        <ele>262.55612182617</ele>
        <time>2020-06-23T20:01:58.776Z</time>
      </trkpt>
      <trkpt lat="44.95831" lon="1.20112">
        <ele>263.97189331055</ele>
        <time>2020-06-23T20:02:06.348Z</time>
      </trkpt>
      <trkpt lat="44.95819" lon="1.20079">
        <ele>265.18594360352</ele>
        <time>2020-06-23T20:02:13.925Z</time>
      </trkpt>
      <trkpt lat="44.95805" lon="1.20049">
        <ele>265.92227172852</ele>
        <time>2020-06-23T20:02:21.506Z</time>
      </trkpt>
      <trkpt lat="44.95792" lon="1.20025">
        <ele>266.7141418457</ele>
        <time>2020-06-23T20:02:29.090Z</time>
      </trkpt>
      <trkpt lat="44.95758" lon="1.19978">
        <ele>267.26239013672</ele>
        <time>2020-06-23T20:02:36.682Z</time>
      </trkpt>
      <trkpt lat="44.95743" lon="1.19957">
        <ele>268.01824951172</ele>
        <time>2020-06-23T20:02:44.277Z</time>
      </trkpt>
      <trkpt lat="44.95682" lon="1.19874">
        <ele>271.8134765625</ele>
        <time>2020-06-23T20:02:51.886Z</time>
      </trkpt>
      <trkpt lat="44.95629" lon="1.19804">
        <ele>277.62313842773</ele>
        <time>2020-06-23T20:02:59.506Z</time>
      </trkpt>
      <trkpt lat="44.95572" lon="1.19745">
        <ele>285.93957519531</ele>
        <time>2020-06-23T20:03:07.138Z</time>
      </trkpt>
      <trkpt lat="44.95555" lon="1.19728">
        <ele>288.35516357422</ele>
        <time>2020-06-23T20:03:14.773Z</time>
      </trkpt>
      <trkpt lat="44.95537" lon="1.19715">
        <ele>288.79766845703</ele>
        <time>2020-06-23T20:03:22.411Z</time>
      </trkpt>
      <trkpt lat="44.95525" lon="1.1971">
        <ele>289.09759521484</ele>
        <time>2020-06-23T20:03:30.051Z</time>
      </trkpt>
      <trkpt lat="44.955" lon="1.19708">
        <ele>289.9606628418</ele>
        <time>2020-06-23T20:03:37.695Z</time>
      </trkpt>
      <trkpt lat="44.95483" lon="1.1971">
        <ele>290.52456665039</ele>
        <time>2020-06-23T20:03:45.342Z</time>
      </trkpt>
      <trkpt lat="44.9545" lon="1.19719">
        <ele>290.76754760742</ele>
        <time>2020-06-23T20:03:52.994Z</time>
      </trkpt>
      <trkpt lat="44.95355" lon="1.19767">
        <ele>292.29208374023</ele>
        <time>2020-06-23T20:04:00.662Z</time>
      </trkpt>
      <trkpt lat="44.95309" lon="1.19793">
        <ele>298.18325805664</ele>
        <time>2020-06-23T20:04:08.338Z</time>
      </trkpt>
      <trkpt lat="44.95288" lon="1.19808">
        <ele>301.46112060547</ele>
        <time>2020-06-23T20:04:16.018Z</time>
      </trkpt>
      <trkpt lat="44.95266" lon="1.19827">
        <ele>305.38635253906</ele>
        <time>2020-06-23T20:04:23.702Z</time>
      </trkpt>
      <trkpt lat="44.95259" lon="1.19836">
        <ele>306.22622680664</ele>
        <time>2020-06-23T20:04:31.388Z</time>
      </trkpt>
      <trkpt lat="44.95249" lon="1.19856">
        <ele>306.89590454102</ele>
        <time>2020-06-23T20:04:39.077Z</time>
      </trkpt>
      <trkpt lat="44.95241" lon="1.19879">
        <ele>307.53179931641</ele>
        <time>2020-06-23T20:04:46.768Z</time>
      </trkpt>
      <trkpt lat="44.95226" lon="1.19928">
        <ele>306.75268554688</ele>
        <time>2020-06-23T20:04:54.466Z</time>
      </trkpt>
      <trkpt lat="44.95217" lon="1.1995">
        <ele>304.8330078125</ele>
        <time>2020-06-23T20:05:02.166Z</time>
      </trkpt>
      <trkpt lat="44.95206" lon="1.19969">
        <ele>303.56823730469</ele>
        <time>2020-06-23T20:05:09.869Z</time>
      </trkpt>
      <trkpt lat="44.95193" lon="1.19984">
        <ele>302.95999145508</ele>
        <time>2020-06-23T20:05:17.575Z</time>
      </trkpt>
      <trkpt lat="44.95176" lon="1.19999">
        <ele>303.17593383789</ele>
        <time>2020-06-23T20:05:25.284Z</time>
      </trkpt>
      <trkpt lat="44.95161" lon="1.20008">
        <ele>303.82382202148</ele>
        <time>2020-06-23T20:05:32.996Z</time>
      </trkpt>
      <trkpt lat="44.95075" lon="1.2005">
        <ele>307.55310058594</ele>
        <time>2020-06-23T20:05:40.722Z</time>
      </trkpt>
      <trkpt lat="44.95025" lon="1.2008">
        <ele>307.33364868164</ele>
        <time>2020-06-23T20:05:48.457Z</time>
      </trkpt>
      <trkpt lat="44.94997" lon="1.20096">
        <ele>305.17401123047</ele>
        <time>2020-06-23T20:05:56.197Z</time>
      </trkpt>
      <trkpt lat="44.94953" lon="1.20136">
        <ele>308.00042724609</ele>
        <time>2020-06-23T20:06:03.945Z</time>
      </trkpt>
      <trkpt lat="44.94912" lon="1.20174">
        <ele>307.20523071289</ele>
        <time>2020-06-23T20:06:11.701Z</time>
      </trkpt>
      <trkpt lat="44.94896" lon="1.20188">
        <ele>307.87295532227</ele>
        <time>2020-06-23T20:06:19.460Z</time>
      </trkpt>
      <trkpt lat="44.94884" lon="1.20191">
        <ele>308.95278930664</ele>
        <time>2020-06-23T20:06:27.221Z</time>
      </trkpt>
      <trkpt lat="44.94857" lon="1.20191">
        <ele>309.27920532227</ele>
        <time>2020-06-23T20:06:34.986Z</time>
      </trkpt>
      <trkpt lat="44.94846" lon="1.20189">
        <ele>308.93124389648</ele>
        <time>2020-06-23T20:06:42.753Z</time>
      </trkpt>
      <trkpt lat="44.94843" lon="1.20186">
        <ele>308.89526367188</ele>
        <time>2020-06-23T20:06:50.521Z</time>
      </trkpt>
      <trkpt lat="44.94809" lon="1.20212">
        <ele>310.55938720703</ele>
        <time>2020-06-23T20:06:58.295Z</time>
      </trkpt>
      <trkpt lat="44.94756" lon="1.20253">
        <ele>310.42156982422</ele>
        <time>2020-06-23T20:07:06.079Z</time>
      </trkpt>
      <trkpt lat="44.94699" lon="1.2029">
        <ele>315.36227416992</ele>
        <time>2020-06-23T20:07:13.873Z</time>
      </trkpt>
      <trkpt lat="44.94676" lon="1.20303">
        <ele>317.66510009766</ele>
        <time>2020-06-23T20:07:21.671Z</time>
      </trkpt>
      <trkpt lat="44.94657" lon="1.2031">
        <ele>320.30465698242</ele>
        <time>2020-06-23T20:07:29.472Z</time>
      </trkpt>
      <trkpt lat="44.94634" lon="1.20316">
        <ele>322.57443237305</ele>
        <time>2020-06-23T20:07:37.276Z</time>
      </trkpt>
      <trkpt lat="44.94578" lon="1.20313">
        <ele>326.19818115234</ele>
        <time>2020-06-23T20:07:45.089Z</time>
      </trkpt>
      <trkpt lat="44.94535" lon="1.20311">
        <ele>328.4931640625</ele>
        <time>2020-06-23T20:07:52.909Z</time>
      </trkpt>
      <trkpt lat="44.94522" lon="1.20313">
        <ele>329.8020324707</ele>
        <time>2020-06-23T20:08:00.731Z</time>
      </trkpt>
      <trkpt lat="44.94509" lon="1.20319">
        <ele>331.0498046875</ele>
        <time>2020-06-23T20:08:08.556Z</time>
      </trkpt>
      <trkpt lat="44.94495" lon="1.20332">
        <ele>332.39358520508</ele>
        <time>2020-06-23T20:08:16.383Z</time>
      </trkpt>
      <trkpt lat="44.94429" lon="1.20394">
        <ele>332.70791625977</ele>
        <time>2020-06-23T20:08:24.223Z</time>
      </trkpt>
      <trkpt lat="44.94385" lon="1.20433">
        <ele>332.04177856445</ele>
        <time>2020-06-23T20:08:32.071Z</time>
      </trkpt>
      <trkpt lat="44.94357" lon="1.20458">
        <ele>332.49002075195</ele>
        <time>2020-06-23T20:08:39.925Z</time>
      </trkpt>
      <trkpt lat="44.94343" lon="1.20477">
        <ele>333.10162353516</ele>
        <time>2020-06-23T20:08:47.782Z</time>
      </trkpt>
      <trkpt lat="44.94319" lon="1.20512">
        <ele>334.32168579102</ele>
        <time>2020-06-23T20:08:55.644Z</time>
      </trkpt>
      <trkpt lat="44.94301" lon="1.2055">
        <ele>334.7536315918</ele>
        <time>2020-06-23T20:09:03.511Z</time>
      </trkpt>
      <trkpt lat="44.94277" lon="1.20597">
        <ele>333.25918579102</ele>
        <time>2020-06-23T20:09:11.385Z</time>
      </trkpt>
      <trkpt lat="44.94275" lon="1.20594">
        <ele>333.10321044922</ele>
        <time>2020-06-23T20:09:19.260Z</time>
      </trkpt>
      <trkpt lat="44.94273" lon="1.20588">
        <ele>332.98324584961</ele>
        <time>2020-06-23T20:09:27.135Z</time>
      </trkpt>
      <trkpt lat="44.94275" lon="1.20498">
        <ele>333.30117797852</ele>
        <time>2020-06-23T20:09:35.020Z</time>
      </trkpt>
      <trkpt lat="44.94279" lon="1.20434">
        <ele>333.05935668945</ele>
        <time>2020-06-23T20:09:42.913Z</time>
      </trkpt>
      <trkpt lat="44.94286" lon="1.20357">
        <ele>331.60491943359</ele>
        <time>2020-06-23T20:09:50.815Z</time>
      </trkpt>
      <trkpt lat="44.94289" lon="1.20327">
        <ele>330.5251159668</ele>
        <time>2020-06-23T20:09:58.720Z</time>
      </trkpt>
      <trkpt lat="44.94292" lon="1.20284">
        <ele>329.09323120117</ele>
        <time>2020-06-23T20:10:06.630Z</time>
      </trkpt>
      <trkpt lat="44.94293" lon="1.20212">
        <ele>327.94934082031</ele>
        <time>2020-06-23T20:10:14.548Z</time>
      </trkpt>
      <trkpt lat="44.94276" lon="1.2019">
        <ele>327.78137207031</ele>
        <time>2020-06-23T20:10:22.470Z</time>
      </trkpt>
      <trkpt lat="44.9425" lon="1.20168">
        <ele>326.96548461914</ele>
        <time>2020-06-23T20:10:30.397Z</time>
      </trkpt>
      <trkpt lat="44.94233" lon="1.20159">
        <ele>326.17361450195</ele>
        <time>2020-06-23T20:10:38.327Z</time>
      </trkpt>
      <trkpt lat="44.94217" lon="1.20157">
        <ele>325.03311157227</ele>
        <time>2020-06-23T20:10:46.259Z</time>
      </trkpt>
      <trkpt lat="44.94161" lon="1.2016">
        <ele>319.84722900391</ele>
        <time>2020-06-23T20:10:54.200Z</time>
      </trkpt>
      <trkpt lat="44.94122" lon="1.2015">
        <ele>317.48806762695</ele>
        <time>2020-06-23T20:11:02.147Z</time>
      </trkpt>
      <trkpt lat="44.94075" lon="1.20131">
        <ele>317.91491699219</ele>
        <time>2020-06-23T20:11:10.102Z</time>
      </trkpt>
      <trkpt lat="44.94068" lon="1.20128">
        <ele>317.85491943359</ele>
        <time>2020-06-23T20:11:18.058Z</time>
      </trkpt>
      <trkpt lat="44.94038" lon="1.20126">
        <ele>318.15115356445</ele>
        <time>2020-06-23T20:11:26.019Z</time>
      </trkpt>
      <trkpt lat="44.94015" lon="1.20125">
        <ele>318.72296142578</ele>
        <time>2020-06-23T20:11:33.984Z</time>
      </trkpt>
      <trkpt lat="44.94003" lon="1.20152">
        <ele>319.771484375</ele>
        <time>2020-06-23T20:11:41.953Z</time>
      </trkpt>
      <trkpt lat="44.93982" lon="1.20177">
        <ele>318.95401000977</ele>
        <time>2020-06-23T20:11:49.926Z</time>
      </trkpt>
      <trkpt lat="44.93963" lon="1.20195">
        <ele>320.78970336914</ele>
        <time>2020-06-23T20:11:57.903Z</time>
      </trkpt>
      <trkpt lat="44.93913" lon="1.20231">
        <ele>321.81259155273</ele>
        <time>2020-06-23T20:12:05.889Z</time>
      </trkpt>
      <trkpt lat="44.93883" lon="1.2025">
        <ele>321.31427001953</ele>
        <time>2020-06-23T20:12:13.880Z</time>
      </trkpt>
      <trkpt lat="44.93869" lon="1.20261">
        <ele>320.77508544922</ele>
        <time>2020-06-23T20:12:21.873Z</time>
      </trkpt>
      <trkpt lat="44.93854" lon="1.2027">
        <ele>318.36346435547</ele>
        <time>2020-06-23T20:12:29.869Z</time>
      </trkpt>
      <trkpt lat="44.93843" lon="1.20273">
        <ele>316.76773071289</ele>
        <time>2020-06-23T20:12:37.867Z</time>
      </trkpt>
      <trkpt lat="44.93831" lon="1.20275">
        <ele>315.16323852539</ele>
        <time>2020-06-23T20:12:45.867Z</time>
      </trkpt>
      <trkpt lat="44.93827" lon="1.20278">
        <ele>314.57534790039</ele>
        <time>2020-06-23T20:12:53.868Z</time>
      </trkpt>
      <trkpt lat="44.93806" lon="1.20314">
        <ele>310.70544433594</ele>
        <time>2020-06-23T20:13:01.874Z</time>
      </trkpt>
      <trkpt lat="44.93784" lon="1.20354">
        <ele>307.29614257812</ele>
        <time>2020-06-23T20:13:09.886Z</time>
      </trkpt>
      <trkpt lat="44.93744" lon="1.20429">
        <ele>298.84140014648</ele>
        <time>2020-06-23T20:13:17.908Z</time>
      </trkpt>
      <trkpt lat="44.93728" lon="1.20456">
        <ele>296.52471923828</ele>
        <time>2020-06-23T20:13:25.934Z</time>
      </trkpt>
      <trkpt lat="44.93715" lon="1.20464">
        <ele>295.08493041992</ele>
        <time>2020-06-23T20:13:33.963Z</time>
      </trkpt>
      <trkpt lat="44.93695" lon="1.20469">
        <ele>292.85375976562</ele>
        <time>2020-06-23T20:13:41.995Z</time>
      </trkpt>
      <trkpt lat="44.93659" lon="1.20475">
        <ele>289.90225219727</ele>
        <time>2020-06-23T20:13:50.033Z</time>
      </trkpt>
      <trkpt lat="44.93646" lon="1.20477">
        <ele>288.83444213867</ele>
        <time>2020-06-23T20:13:58.073Z</time>
      </trkpt>
      <trkpt lat="44.93634" lon="1.20476">
        <ele>287.81460571289</ele>
        <time>2020-06-23T20:14:06.115Z</time>
      </trkpt>
      <trkpt lat="44.93621" lon="1.20479">
        <ele>286.67474365234</ele>
        <time>2020-06-23T20:14:14.159Z</time>
      </trkpt>
      <trkpt lat="44.93607" lon="1.20479">
        <ele>285.33096313477</ele>
        <time>2020-06-23T20:14:22.205Z</time>
      </trkpt>
      <trkpt lat="44.93598" lon="1.20471">
        <ele>284.41970825195</ele>
        <time>2020-06-23T20:14:30.253Z</time>
      </trkpt>
      <trkpt lat="44.93593" lon="1.20458">
        <ele>283.78381347656</ele>
        <time>2020-06-23T20:14:38.302Z</time>
      </trkpt>
      <trkpt lat="44.93583" lon="1.20443">
        <ele>282.64401245117</ele>
        <time>2020-06-23T20:14:46.354Z</time>
      </trkpt>
      <trkpt lat="44.93571" lon="1.20433">
        <ele>281.37222290039</ele>
        <time>2020-06-23T20:14:54.408Z</time>
      </trkpt>
      <trkpt lat="44.93543" lon="1.20429">
        <ele>278.63668823242</ele>
        <time>2020-06-23T20:15:02.466Z</time>
      </trkpt>
      <trkpt lat="44.93527" lon="1.2043">
        <ele>277.27618408203</ele>
        <time>2020-06-23T20:15:10.527Z</time>
      </trkpt>
      <trkpt lat="44.93497" lon="1.20435">
        <ele>274.81436157227</ele>
        <time>2020-06-23T20:15:18.593Z</time>
      </trkpt>
      <trkpt lat="44.93484" lon="1.20439">
        <ele>273.56658935547</ele>
        <time>2020-06-23T20:15:26.661Z</time>
      </trkpt>
      <trkpt lat="44.93471" lon="1.20437">
        <ele>272.31878662109</ele>
        <time>2020-06-23T20:15:34.731Z</time>
      </trkpt>
      <trkpt lat="44.93432" lon="1.20431">
        <ele>270.09078979492</ele>
        <time>2020-06-23T20:15:42.807Z</time>
      </trkpt>
      <trkpt lat="44.93395" lon="1.20428">
        <ele>268.47491455078</ele>
        <time>2020-06-23T20:15:50.889Z</time>
      </trkpt>
      <trkpt lat="44.93323" lon="1.20429">
        <ele>262.31698608398</ele>
        <time>2020-06-23T20:15:58.983Z</time>
      </trkpt>
      <trkpt lat="44.93305" lon="1.20431">
        <ele>260.78121948242</ele>
        <time>2020-06-23T20:16:07.080Z</time>
      </trkpt>
      <trkpt lat="44.93299" lon="1.20434">
        <ele>260.24130249023</ele>
        <time>2020-06-23T20:16:15.178Z</time>
      </trkpt>
      <trkpt lat="44.93278" lon="1.20444">
        <ele>259.5637512207</ele>
        <time>2020-06-23T20:16:23.279Z</time>
      </trkpt>
      <trkpt lat="44.93245" lon="1.20451">
        <ele>260.09338378906</ele>
        <time>2020-06-23T20:16:31.386Z</time>
      </trkpt>
      <trkpt lat="44.93204" lon="1.20464">
        <ele>261.4248046875</ele>
        <time>2020-06-23T20:16:39.499Z</time>
      </trkpt>
      <trkpt lat="44.93188" lon="1.20469">
        <ele>263.53643798828</ele>
        <time>2020-06-23T20:16:47.615Z</time>
      </trkpt>
      <trkpt lat="44.93176" lon="1.20468">
        <ele>265.12017822266</ele>
        <time>2020-06-23T20:16:55.733Z</time>
      </trkpt>
      <trkpt lat="44.93167" lon="1.20466">
        <ele>266.30798339844</ele>
        <time>2020-06-23T20:17:03.852Z</time>
      </trkpt>
      <trkpt lat="44.93153" lon="1.20453">
        <ele>268.15567016602</ele>
        <time>2020-06-23T20:17:11.974Z</time>
      </trkpt>
      <trkpt lat="44.9314" lon="1.20426">
        <ele>269.87139892578</ele>
        <time>2020-06-23T20:17:20.100Z</time>
      </trkpt>
      <trkpt lat="44.93124" lon="1.20404">
        <ele>271.98303222656</ele>
        <time>2020-06-23T20:17:28.229Z</time>
      </trkpt>
      <trkpt lat="44.93114" lon="1.20395">
        <ele>271.99642944336</ele>
        <time>2020-06-23T20:17:36.360Z</time>
      </trkpt>
      <trkpt lat="44.931" lon="1.20389">
        <ele>271.70849609375</ele>
        <time>2020-06-23T20:17:44.493Z</time>
      </trkpt>
      <trkpt lat="44.93087" lon="1.20428">
        <ele>272</ele>
        <time>2020-06-23T20:17:52.631Z</time>
      </trkpt>
      <trkpt lat="44.93063" lon="1.2046">
        <ele>273.01861572266</ele>
        <time>2020-06-23T20:18:00.775Z</time>
      </trkpt>
      <trkpt lat="44.93047" lon="1.20474">
        <ele>273.73849487305</ele>
        <time>2020-06-23T20:18:08.922Z</time>
      </trkpt>
      <trkpt lat="44.93034" lon="1.20481">
        <ele>274.09280395508</ele>
        <time>2020-06-23T20:18:17.071Z</time>
      </trkpt>
      <trkpt lat="44.92997" lon="1.20501">
        <ele>274.81268310547</ele>
        <time>2020-06-23T20:18:25.226Z</time>
      </trkpt>
      <trkpt lat="44.92923" lon="1.20539">
        <ele>272.31503295898</ele>
        <time>2020-06-23T20:18:33.394Z</time>
      </trkpt>
      <trkpt lat="44.92914" lon="1.20546">
        <ele>270.88726806641</ele>
        <time>2020-06-23T20:18:41.563Z</time>
      </trkpt>
      <trkpt lat="44.929" lon="1.20535">
        <ele>270.7673034668</ele>
        <time>2020-06-23T20:18:49.735Z</time>
      </trkpt>
      <trkpt lat="44.92901" lon="1.20531">
        <ele>271.23522949219</ele>
        <time>2020-06-23T20:18:57.908Z</time>
      </trkpt>
      <trkpt lat="44.92902" lon="1.20523">
        <ele>272.08709716797</ele>
        <time>2020-06-23T20:19:06.081Z</time>
      </trkpt>
      <trkpt lat="44.92899" lon="1.2051">
        <ele>273.08291625977</ele>
        <time>2020-06-23T20:19:14.256Z</time>
      </trkpt>
      <trkpt lat="44.92887" lon="1.20481">
        <ele>273.96905517578</ele>
        <time>2020-06-23T20:19:22.435Z</time>
      </trkpt>
      <trkpt lat="44.92874" lon="1.20468">
        <ele>274.37512207031</ele>
        <time>2020-06-23T20:19:30.616Z</time>
      </trkpt>
      <trkpt lat="44.92863" lon="1.20461">
        <ele>275.66656494141</ele>
        <time>2020-06-23T20:19:38.799Z</time>
      </trkpt>
      <trkpt lat="44.92839" lon="1.20456">
        <ele>277.85238647461</ele>
        <time>2020-06-23T20:19:46.986Z</time>
      </trkpt>
      <trkpt lat="44.9282" lon="1.20448">
        <ele>279.70007324219</ele>
        <time>2020-06-23T20:19:55.176Z</time>
      </trkpt>
      <trkpt lat="44.92796" lon="1.20428">
        <ele>282.62759399414</ele>
        <time>2020-06-23T20:20:03.371Z</time>
      </trkpt>
      <trkpt lat="44.92773" lon="1.20401">
        <ele>288.42010498047</ele>
        <time>2020-06-23T20:20:11.571Z</time>
      </trkpt>
      <trkpt lat="44.92729" lon="1.20327">
        <ele>299.67425537109</ele>
        <time>2020-06-23T20:20:19.782Z</time>
      </trkpt>
      <trkpt lat="44.9271" lon="1.20287">
        <ele>303.38818359375</ele>
        <time>2020-06-23T20:20:27.998Z</time>
      </trkpt>
      <trkpt lat="44.92694" lon="1.20257">
        <ele>303.97573852539</ele>
        <time>2020-06-23T20:20:36.218Z</time>
      </trkpt>
      <trkpt lat="44.92685" lon="1.20245">
        <ele>304.19171142578</ele>
        <time>2020-06-23T20:20:44.440Z</time>
      </trkpt>
      <trkpt lat="44.92665" lon="1.2023">
        <ele>305.09155273438</ele>
        <time>2020-06-23T20:20:52.666Z</time>
      </trkpt>
      <trkpt lat="44.92645" lon="1.20223">
        <ele>306.34390258789</ele>
        <time>2020-06-23T20:21:00.895Z</time>
      </trkpt>
      <trkpt lat="44.92623" lon="1.20223">
        <ele>307.87091064453</ele>
        <time>2020-06-23T20:21:09.128Z</time>
      </trkpt>
      <trkpt lat="44.9258" lon="1.20222">
        <ele>305.15396118164</ele>
        <time>2020-06-23T20:21:17.368Z</time>
      </trkpt>
      <trkpt lat="44.92562" lon="1.20217">
        <ele>304.09814453125</ele>
        <time>2020-06-23T20:21:25.611Z</time>
      </trkpt>
      <trkpt lat="44.92543" lon="1.20204">
        <ele>303.35427856445</ele>
        <time>2020-06-23T20:21:33.857Z</time>
      </trkpt>
      <trkpt lat="44.92538" lon="1.202">
        <ele>303.06915283203</ele>
        <time>2020-06-23T20:21:42.104Z</time>
      </trkpt>
      <trkpt lat="44.92521" lon="1.20186">
        <ele>301.70138549805</ele>
        <time>2020-06-23T20:21:50.354Z</time>
      </trkpt>
      <trkpt lat="44.92505" lon="1.20171">
        <ele>300.50158691406</ele>
        <time>2020-06-23T20:21:58.607Z</time>
      </trkpt>
      <trkpt lat="44.92496" lon="1.20196">
        <ele>297.78784179688</ele>
        <time>2020-06-23T20:22:06.863Z</time>
      </trkpt>
      <trkpt lat="44.9249" lon="1.2021">
        <ele>295.67617797852</ele>
        <time>2020-06-23T20:22:15.121Z</time>
      </trkpt>
      <trkpt lat="44.92481" lon="1.20232">
        <ele>292.64190673828</ele>
        <time>2020-06-23T20:22:23.382Z</time>
      </trkpt>
      <trkpt lat="44.92463" lon="1.20276">
        <ele>289.2790222168</ele>
        <time>2020-06-23T20:22:31.649Z</time>
      </trkpt>
      <trkpt lat="44.9243" lon="1.20355">
        <ele>279.42184448242</ele>
        <time>2020-06-23T20:22:39.926Z</time>
      </trkpt>
      <trkpt lat="44.92411" lon="1.20398">
        <ele>272.140625</ele>
        <time>2020-06-23T20:22:48.209Z</time>
      </trkpt>
      <trkpt lat="44.92399" lon="1.2042">
        <ele>267.26943969727</ele>
        <time>2020-06-23T20:22:56.495Z</time>
      </trkpt>
      <trkpt lat="44.92397" lon="1.20422">
        <ele>266.81784057617</ele>
        <time>2020-06-23T20:23:04.782Z</time>
      </trkpt>
      <trkpt lat="44.92386" lon="1.20434">
        <ele>264.4182434082</ele>
        <time>2020-06-23T20:23:13.071Z</time>
      </trkpt>
      <trkpt lat="44.9237" lon="1.20445">
        <ele>261.03784179688</ele>
        <time>2020-06-23T20:23:21.363Z</time>
      </trkpt>
      <trkpt lat="44.92356" lon="1.20455">
        <ele>257.94235229492</ele>
        <time>2020-06-23T20:23:29.657Z</time>
      </trkpt>
      <trkpt lat="44.92343" lon="1.20477">
        <ele>255.46656799316</ele>
        <time>2020-06-23T20:23:37.954Z</time>
      </trkpt>
      <trkpt lat="44.92333" lon="1.20494">
        <ele>252.73231506348</ele>
        <time>2020-06-23T20:23:46.254Z</time>
      </trkpt>
      <trkpt lat="44.92315" lon="1.20538">
        <ele>249.37126159668</ele>
        <time>2020-06-23T20:23:54.560Z</time>
      </trkpt>
      <trkpt lat="44.92291" lon="1.20606">
        <ele>246.50535583496</ele>
        <time>2020-06-23T20:24:02.874Z</time>
      </trkpt>
      <trkpt lat="44.92282" lon="1.20631">
        <ele>245.26240539551</ele>
        <time>2020-06-23T20:24:11.191Z</time>
      </trkpt>
      <trkpt lat="44.92282" lon="1.20636">
        <ele>245.20240783691</ele>
        <time>2020-06-23T20:24:19.509Z</time>
      </trkpt>
      <trkpt lat="44.92273" lon="1.20641">
        <ele>245.44555664062</ele>
        <time>2020-06-23T20:24:27.829Z</time>
      </trkpt>
      <trkpt lat="44.92237" lon="1.20659">
        <ele>245.02615356445</ele>
        <time>2020-06-23T20:24:36.155Z</time>
      </trkpt>
      <trkpt lat="44.92207" lon="1.20673">
        <ele>245.3358001709</ele>
        <time>2020-06-23T20:24:44.486Z</time>
      </trkpt>
      <trkpt lat="44.92191" lon="1.20675">
        <ele>245.7437286377</ele>
        <time>2020-06-23T20:24:52.819Z</time>
      </trkpt>
      <trkpt lat="44.92183" lon="1.20675">
        <ele>245.93569946289</ele>
        <time>2020-06-23T20:25:01.154Z</time>
      </trkpt>
      <trkpt lat="44.92181" lon="1.20682">
        <ele>246.06767272949</ele>
        <time>2020-06-23T20:25:09.489Z</time>
      </trkpt>
      <trkpt lat="44.92178" lon="1.20686">
        <ele>246.18765258789</ele>
        <time>2020-06-23T20:25:17.825Z</time>
      </trkpt>
      <trkpt lat="44.92171" lon="1.20693">
        <ele>246.43962097168</ele>
        <time>2020-06-23T20:25:26.163Z</time>
      </trkpt>
      <trkpt lat="44.9214" lon="1.20717">
        <ele>247.47145080566</ele>
        <time>2020-06-23T20:25:34.506Z</time>
      </trkpt>
      <trkpt lat="44.92127" lon="1.20719">
        <ele>247.80738830566</ele>
        <time>2020-06-23T20:25:42.851Z</time>
      </trkpt>
      <trkpt lat="44.92103" lon="1.20718">
        <ele>247.37496948242</ele>
        <time>2020-06-23T20:25:51.200Z</time>
      </trkpt>
      <trkpt lat="44.92067" lon="1.20718">
        <ele>246.94303894043</ele>
        <time>2020-06-23T20:25:59.555Z</time>
      </trkpt>
      <trkpt lat="44.92036" lon="1.2072">
        <ele>246.69537353516</ele>
        <time>2020-06-23T20:26:07.915Z</time>
      </trkpt>
      <trkpt lat="44.92014" lon="1.20726">
        <ele>247.19802856445</ele>
        <time>2020-06-23T20:26:16.278Z</time>
      </trkpt>
      <trkpt lat="44.92002" lon="1.20731">
        <ele>247.36889648438</ele>
        <time>2020-06-23T20:26:24.643Z</time>
      </trkpt>
      <trkpt lat="44.9199" lon="1.20741">
        <ele>247.15293884277</ele>
        <time>2020-06-23T20:26:33.011Z</time>
      </trkpt>
      <trkpt lat="44.91938" lon="1.20793">
        <ele>247.3253326416</ele>
        <time>2020-06-23T20:26:41.389Z</time>
      </trkpt>
      <trkpt lat="44.91897" lon="1.20835">
        <ele>247.88531494141</ele>
        <time>2020-06-23T20:26:49.775Z</time>
      </trkpt>
      <trkpt lat="44.91875" lon="1.20862">
        <ele>249.52197265625</ele>
        <time>2020-06-23T20:26:58.166Z</time>
      </trkpt>
      <trkpt lat="44.91858" lon="1.20881">
        <ele>248.9627532959</ele>
        <time>2020-06-23T20:27:06.560Z</time>
      </trkpt>
      <trkpt lat="44.91837" lon="1.20899">
        <ele>249.4679107666</ele>
        <time>2020-06-23T20:27:14.958Z</time>
      </trkpt>
      <trkpt lat="44.91819" lon="1.20916">
        <ele>248.8440246582</ele>
        <time>2020-06-23T20:27:23.360Z</time>
      </trkpt>
      <trkpt lat="44.91802" lon="1.20927">
        <ele>251.27839660645</ele>
        <time>2020-06-23T20:27:31.765Z</time>
      </trkpt>
      <trkpt lat="44.9179" lon="1.20933">
        <ele>253.54032897949</ele>
        <time>2020-06-23T20:27:40.172Z</time>
      </trkpt>
      <trkpt lat="44.91782" lon="1.20936">
        <ele>253.90026855469</ele>
        <time>2020-06-23T20:27:48.580Z</time>
      </trkpt>
      <trkpt lat="44.91757" lon="1.20938">
        <ele>254.14022827148</ele>
        <time>2020-06-23T20:27:56.992Z</time>
      </trkpt>
      <trkpt lat="44.9172" lon="1.2094">
        <ele>255.90686035156</ele>
        <time>2020-06-23T20:28:05.410Z</time>
      </trkpt>
      <trkpt lat="44.91697" lon="1.20943">
        <ele>257.15579223633</ele>
        <time>2020-06-23T20:28:13.832Z</time>
      </trkpt>
      <trkpt lat="44.9168" lon="1.20948">
        <ele>258.19961547852</ele>
        <time>2020-06-23T20:28:22.256Z</time>
      </trkpt>
      <trkpt lat="44.91664" lon="1.20955">
        <ele>258.86679077148</ele>
        <time>2020-06-23T20:28:30.683Z</time>
      </trkpt>
      <trkpt lat="44.9165" lon="1.20967">
        <ele>260.11459350586</ele>
        <time>2020-06-23T20:28:39.113Z</time>
      </trkpt>
      <trkpt lat="44.91605" lon="1.21014">
        <ele>260.2248840332</ele>
        <time>2020-06-23T20:28:47.552Z</time>
      </trkpt>
      <trkpt lat="44.91592" lon="1.21032">
        <ele>259.31951904297</ele>
        <time>2020-06-23T20:28:55.993Z</time>
      </trkpt>
      <trkpt lat="44.91571" lon="1.21061">
        <ele>258.98358154297</ele>
        <time>2020-06-23T20:29:04.439Z</time>
      </trkpt>
      <trkpt lat="44.91549" lon="1.21086">
        <ele>256.20761108398</ele>
        <time>2020-06-23T20:29:12.890Z</time>
      </trkpt>
      <trkpt lat="44.91532" lon="1.21109">
        <ele>255.73426818848</ele>
        <time>2020-06-23T20:29:21.344Z</time>
      </trkpt>
      <trkpt lat="44.91522" lon="1.21124">
        <ele>255.61428833008</ele>
        <time>2020-06-23T20:29:29.801Z</time>
      </trkpt>
      <trkpt lat="44.91499" lon="1.21147">
        <ele>257.36557006836</ele>
        <time>2020-06-23T20:29:38.262Z</time>
      </trkpt>
      <trkpt lat="44.91487" lon="1.21155">
        <ele>256.93365478516</ele>
        <time>2020-06-23T20:29:46.725Z</time>
      </trkpt>
      <trkpt lat="44.91426" lon="1.21181">
        <ele>258.13717651367</ele>
        <time>2020-06-23T20:29:55.199Z</time>
      </trkpt>
      <trkpt lat="44.91414" lon="1.21184">
        <ele>258.71307373047</ele>
        <time>2020-06-23T20:30:03.675Z</time>
      </trkpt>
      <trkpt lat="44.91385" lon="1.21188">
        <ele>262.89633178711</ele>
        <time>2020-06-23T20:30:12.155Z</time>
      </trkpt>
      <trkpt lat="44.91357" lon="1.21194">
        <ele>264.5576171875</ele>
        <time>2020-06-23T20:30:20.640Z</time>
      </trkpt>
      <trkpt lat="44.91315" lon="1.21209">
        <ele>268.80850219727</ele>
        <time>2020-06-23T20:30:29.132Z</time>
      </trkpt>
      <trkpt lat="44.91246" lon="1.21238">
        <ele>275.17483520508</ele>
        <time>2020-06-23T20:30:37.635Z</time>
      </trkpt>
      <trkpt lat="44.91207" lon="1.21259">
        <ele>277.81866455078</ele>
        <time>2020-06-23T20:30:46.145Z</time>
      </trkpt>
      <trkpt lat="44.9118" lon="1.21276">
        <ele>280.45959472656</ele>
        <time>2020-06-23T20:30:54.660Z</time>
      </trkpt>
      <trkpt lat="44.91149" lon="1.21298">
        <ele>284.16687011719</ele>
        <time>2020-06-23T20:31:03.180Z</time>
      </trkpt>
      <trkpt lat="44.91133" lon="1.21313">
        <ele>286.29229736328</ele>
        <time>2020-06-23T20:31:11.703Z</time>
      </trkpt>
      <trkpt lat="44.91136" lon="1.21338">
        <ele>285.31274414062</ele>
        <time>2020-06-23T20:31:20.229Z</time>
      </trkpt>
      <trkpt lat="44.91144" lon="1.21383">
        <ele>283.21310424805</ele>
        <time>2020-06-23T20:31:28.760Z</time>
      </trkpt>
      <trkpt lat="44.91148" lon="1.21406">
        <ele>282.01617431641</ele>
        <time>2020-06-23T20:31:37.294Z</time>
      </trkpt>
      <trkpt lat="44.91151" lon="1.21417">
        <ele>281.30828857422</ele>
        <time>2020-06-23T20:31:45.830Z</time>
      </trkpt>
      <trkpt lat="44.91146" lon="1.21422">
        <ele>280.95584106445</ele>
        <time>2020-06-23T20:31:54.366Z</time>
      </trkpt>
      <trkpt lat="44.91133" lon="1.21432">
        <ele>279.04815673828</ele>
        <time>2020-06-23T20:32:02.905Z</time>
      </trkpt>
      <trkpt lat="44.91125" lon="1.21423">
        <ele>280.05596923828</ele>
        <time>2020-06-23T20:32:11.446Z</time>
      </trkpt>
      <trkpt lat="44.91113" lon="1.21417">
        <ele>278.97067260742</ele>
        <time>2020-06-23T20:32:19.989Z</time>
      </trkpt>
      <trkpt lat="44.91105" lon="1.21413">
        <ele>278.10681152344</ele>
        <time>2020-06-23T20:32:28.533Z</time>
      </trkpt>
      <trkpt lat="44.91098" lon="1.21415">
        <ele>276.55908203125</ele>
        <time>2020-06-23T20:32:37.078Z</time>
      </trkpt>
      <trkpt lat="44.91095" lon="1.21416">
        <ele>275.87518310547</ele>
        <time>2020-06-23T20:32:45.624Z</time>
      </trkpt>
      <trkpt lat="44.91088" lon="1.21418">
        <ele>274.32745361328</ele>
        <time>2020-06-23T20:32:54.171Z</time>
      </trkpt>
      <trkpt lat="44.9108" lon="1.21415">
        <ele>273.3196105957</ele>
        <time>2020-06-23T20:33:02.719Z</time>
      </trkpt>
      <trkpt lat="44.91071" lon="1.21416">
        <ele>271.55590820312</ele>
        <time>2020-06-23T20:33:11.268Z</time>
      </trkpt>
      <trkpt lat="44.91063" lon="1.21419">
        <ele>269.80960083008</ele>
        <time>2020-06-23T20:33:19.819Z</time>
      </trkpt>
      <trkpt lat="44.91059" lon="1.21418">
        <ele>269.62963867188</ele>
        <time>2020-06-23T20:33:28.370Z</time>
      </trkpt>
      <trkpt lat="44.91051" lon="1.21426">
        <ele>269.14971923828</ele>
        <time>2020-06-23T20:33:36.923Z</time>
      </trkpt>
      <trkpt lat="44.91029" lon="1.21448">
        <ele>264.47320556641</ele>
        <time>2020-06-23T20:33:45.480Z</time>
      </trkpt>
      <trkpt lat="44.91016" lon="1.21465">
        <ele>261.39974975586</ele>
        <time>2020-06-23T20:33:54.040Z</time>
      </trkpt>
      <trkpt lat="44.91004" lon="1.21484">
        <ele>260.46813964844</ele>
        <time>2020-06-23T20:34:02.603Z</time>
      </trkpt>
      <trkpt lat="44.90981" lon="1.21511">
        <ele>255.01928710938</ele>
        <time>2020-06-23T20:34:11.171Z</time>
      </trkpt>
      <trkpt lat="44.90955" lon="1.2151">
        <ele>255.32638549805</ele>
        <time>2020-06-23T20:34:19.743Z</time>
      </trkpt>
      <trkpt lat="44.90928" lon="1.21525">
        <ele>250.64717102051</ele>
        <time>2020-06-23T20:34:28.320Z</time>
      </trkpt>
      <trkpt lat="44.90918" lon="1.21529">
        <ele>249.22369384766</ele>
        <time>2020-06-23T20:34:36.898Z</time>
      </trkpt>
      <trkpt lat="44.90906" lon="1.2153">
        <ele>247.55596923828</ele>
        <time>2020-06-23T20:34:45.478Z</time>
      </trkpt>
      <trkpt lat="44.9089" lon="1.21528">
        <ele>244.65246582031</ele>
        <time>2020-06-23T20:34:54.061Z</time>
      </trkpt>
      <trkpt lat="44.90874" lon="1.21522">
        <ele>240.93307495117</ele>
        <time>2020-06-23T20:35:02.646Z</time>
      </trkpt>
      <trkpt lat="44.90865" lon="1.21524">
        <ele>239.42755126953</ele>
        <time>2020-06-23T20:35:11.233Z</time>
      </trkpt>
      <trkpt lat="44.90849" lon="1.21526">
        <ele>236.38005065918</ele>
        <time>2020-06-23T20:35:19.822Z</time>
      </trkpt>
      <trkpt lat="44.90839" lon="1.21531">
        <ele>235.32569885254</ele>
        <time>2020-06-23T20:35:28.413Z</time>
      </trkpt>
      <trkpt lat="44.90809" lon="1.21559">
        <ele>235.94958496094</ele>
        <time>2020-06-23T20:35:37.010Z</time>
      </trkpt>
      <trkpt lat="44.90798" lon="1.21567">
        <ele>235.17552185059</ele>
        <time>2020-06-23T20:35:45.609Z</time>
      </trkpt>
      <trkpt lat="44.90779" lon="1.21571">
        <ele>233.48617553711</ele>
        <time>2020-06-23T20:35:54.211Z</time>
      </trkpt>
      <trkpt lat="44.90768" lon="1.2157">
        <ele>231.81845092773</ele>
        <time>2020-06-23T20:36:02.815Z</time>
      </trkpt>
      <trkpt lat="44.90708" lon="1.21532">
        <ele>217.12980651855</ele>
        <time>2020-06-23T20:36:11.429Z</time>
      </trkpt>
      <trkpt lat="44.90641" lon="1.21487">
        <ele>207.83396911621</ele>
        <time>2020-06-23T20:36:20.055Z</time>
      </trkpt>
      <trkpt lat="44.90626" lon="1.21478">
        <ele>205.97639465332</ele>
        <time>2020-06-23T20:36:28.684Z</time>
      </trkpt>
      <trkpt lat="44.90595" lon="1.21469">
        <ele>200.86784362793</ele>
        <time>2020-06-23T20:36:37.318Z</time>
      </trkpt>
      <trkpt lat="44.90553" lon="1.21469">
        <ele>194.82084655762</ele>
        <time>2020-06-23T20:36:45.959Z</time>
      </trkpt>
      <trkpt lat="44.90533" lon="1.2147">
        <ele>192.98735046387</ele>
        <time>2020-06-23T20:36:54.603Z</time>
      </trkpt>
      <trkpt lat="44.90521" lon="1.21473">
        <ele>192.19409179688</ele>
        <time>2020-06-23T20:37:03.249Z</time>
      </trkpt>
      <trkpt lat="44.90492" lon="1.2149">
        <ele>190.64424133301</ele>
        <time>2020-06-23T20:37:11.900Z</time>
      </trkpt>
      <trkpt lat="44.90473" lon="1.21501">
        <ele>189.70838928223</ele>
        <time>2020-06-23T20:37:20.554Z</time>
      </trkpt>
      <trkpt lat="44.90455" lon="1.21505">
        <ele>188.52108764648</ele>
        <time>2020-06-23T20:37:29.211Z</time>
      </trkpt>
      <trkpt lat="44.90409" lon="1.21486">
        <ele>185.72555541992</ele>
        <time>2020-06-23T20:37:37.876Z</time>
      </trkpt>
      <trkpt lat="44.90383" lon="1.21477">
        <ele>184.24980163574</ele>
        <time>2020-06-23T20:37:46.545Z</time>
      </trkpt>
      <trkpt lat="44.90356" lon="1.21472">
        <ele>182.29481506348</ele>
        <time>2020-06-23T20:37:55.218Z</time>
      </trkpt>
      <trkpt lat="44.90344" lon="1.21466">
        <ele>180.92704772949</ele>
        <time>2020-06-23T20:38:03.893Z</time>
      </trkpt>
      <trkpt lat="44.90326" lon="1.21454">
        <ele>178.47944641113</ele>
        <time>2020-06-23T20:38:12.571Z</time>
      </trkpt>
      <trkpt lat="44.9031" lon="1.21436">
        <ele>175.33598327637</ele>
        <time>2020-06-23T20:38:21.253Z</time>
      </trkpt>
      <trkpt lat="44.90297" lon="1.21426">
        <ele>173.3923034668</ele>
        <time>2020-06-23T20:38:29.937Z</time>
      </trkpt>
      <trkpt lat="44.90283" lon="1.21418">
        <ele>171.41026306152</ele>
        <time>2020-06-23T20:38:38.624Z</time>
      </trkpt>
      <trkpt lat="44.90272" lon="1.21417">
        <ele>170.35443115234</ele>
        <time>2020-06-23T20:38:47.312Z</time>
      </trkpt>
      <trkpt lat="44.90255" lon="1.21419">
        <ele>169.19062805176</ele>
        <time>2020-06-23T20:38:56.003Z</time>
      </trkpt>
      <trkpt lat="44.9023" lon="1.21423">
        <ele>167.5114440918</ele>
        <time>2020-06-23T20:39:04.698Z</time>
      </trkpt>
      <trkpt lat="44.902" lon="1.21429">
        <ele>165.72598266602</ele>
        <time>2020-06-23T20:39:13.398Z</time>
      </trkpt>
      <trkpt lat="44.90183" lon="1.21435">
        <ele>166.57783508301</ele>
        <time>2020-06-23T20:39:22.101Z</time>
      </trkpt>
      <trkpt lat="44.90173" lon="1.21436">
        <ele>166.8058013916</ele>
        <time>2020-06-23T20:39:30.805Z</time>
      </trkpt>
      <trkpt lat="44.90161" lon="1.21437">
        <ele>167.00819396973</ele>
        <time>2020-06-23T20:39:39.511Z</time>
      </trkpt>
      <trkpt lat="44.90148" lon="1.21432">
        <ele>166.52827453613</ele>
        <time>2020-06-23T20:39:48.219Z</time>
      </trkpt>
      <trkpt lat="44.9013" lon="1.21423">
        <ele>165.66442871094</ele>
        <time>2020-06-23T20:39:56.930Z</time>
      </trkpt>
      <trkpt lat="44.90121" lon="1.2142">
        <ele>165.31956481934</ele>
        <time>2020-06-23T20:40:05.643Z</time>
      </trkpt>
      <trkpt lat="44.90114" lon="1.21421">
        <ele>165.24757385254</ele>
        <time>2020-06-23T20:40:14.357Z</time>
      </trkpt>
      <trkpt lat="44.90077" lon="1.21428">
        <ele>165.03161621094</ele>
        <time>2020-06-23T20:40:23.077Z</time>
      </trkpt>
      <trkpt lat="44.90049" lon="1.21432">
        <ele>165.0770111084</ele>
        <time>2020-06-23T20:40:31.802Z</time>
      </trkpt>
      <trkpt lat="44.90025" lon="1.21422">
        <ele>163.70922851562</ele>
        <time>2020-06-23T20:40:40.531Z</time>
      </trkpt>
      <trkpt lat="44.90016" lon="1.21418">
        <ele>163.16932678223</ele>
        <time>2020-06-23T20:40:49.261Z</time>
      </trkpt>
      <trkpt lat="44.89999" lon="1.2142">
        <ele>163.18132019043</ele>
        <time>2020-06-23T20:40:57.994Z</time>
      </trkpt>
      <trkpt lat="44.89972" lon="1.21423">
        <ele>163.18132019043</ele>
        <time>2020-06-23T20:41:06.731Z</time>
      </trkpt>
      <trkpt lat="44.89948" lon="1.21433">
        <ele>163.86907958984</ele>
        <time>2020-06-23T20:41:15.472Z</time>
      </trkpt>
      <trkpt lat="44.89929" lon="1.21448">
        <ele>165.03289794922</ele>
        <time>2020-06-23T20:41:24.217Z</time>
      </trkpt>
      <trkpt lat="44.89929" lon="1.21447">
        <ele>164.92491149902</ele>
        <time>2020-06-23T20:41:32.962Z</time>
      </trkpt>
      <trkpt lat="44.89922" lon="1.21453">
        <ele>164.96864318848</ele>
        <time>2020-06-23T20:41:41.708Z</time>
      </trkpt>
      <trkpt lat="44.89911" lon="1.21457">
        <ele>164.41673278809</ele>
        <time>2020-06-23T20:41:50.456Z</time>
      </trkpt>
      <trkpt lat="44.89904" lon="1.21455">
        <ele>163.7928314209</ele>
        <time>2020-06-23T20:41:59.205Z</time>
      </trkpt>
      <trkpt lat="44.89884" lon="1.21445">
        <ele>161.75317382812</ele>
        <time>2020-06-23T20:42:07.957Z</time>
      </trkpt>
      <trkpt lat="44.8985" lon="1.21423">
        <ele>158.5456237793</ele>
        <time>2020-06-23T20:42:16.715Z</time>
      </trkpt>
      <trkpt lat="44.89831" lon="1.21411">
        <ele>156.91389465332</ele>
        <time>2020-06-23T20:42:25.477Z</time>
      </trkpt>
      <trkpt lat="44.89822" lon="1.21411">
        <ele>156.48196411133</ele>
        <time>2020-06-23T20:42:34.240Z</time>
      </trkpt>
      <trkpt lat="44.89815" lon="1.21414">
        <ele>156.32598876953</ele>
        <time>2020-06-23T20:42:43.004Z</time>
      </trkpt>
      <trkpt lat="44.89793" lon="1.21431">
        <ele>154.32583618164</ele>
        <time>2020-06-23T20:42:51.772Z</time>
      </trkpt>
      <trkpt lat="44.89767" lon="1.21466">
        <ele>154.05264282227</ele>
        <time>2020-06-23T20:43:00.546Z</time>
      </trkpt>
      <trkpt lat="44.89757" lon="1.21478">
        <ele>153.23678588867</ele>
        <time>2020-06-23T20:43:09.322Z</time>
      </trkpt>
      <trkpt lat="44.89745" lon="1.21463">
        <ele>153.67349243164</ele>
        <time>2020-06-23T20:43:18.101Z</time>
      </trkpt>
      <trkpt lat="44.89745" lon="1.21462">
        <ele>153.71670532227</ele>
        <time>2020-06-23T20:43:26.880Z</time>
      </trkpt>
      <trkpt lat="44.89738" lon="1.21458">
        <ele>153.74069213867</ele>
        <time>2020-06-23T20:43:35.660Z</time>
      </trkpt>
      <trkpt lat="44.89724" lon="1.21455">
        <ele>153.54872131348</ele>
        <time>2020-06-23T20:43:44.442Z</time>
      </trkpt>
      <trkpt lat="44.89694" lon="1.21461">
        <ele>152.54089355469</ele>
        <time>2020-06-23T20:43:53.229Z</time>
      </trkpt>
      <trkpt lat="44.89651" lon="1.21477">
        <ele>151.3896484375</ele>
        <time>2020-06-23T20:44:02.023Z</time>
      </trkpt>
      <trkpt lat="44.89584" lon="1.21491">
        <ele>152.09167480469</ele>
        <time>2020-06-23T20:44:10.828Z</time>
      </trkpt>
      <trkpt lat="44.89568" lon="1.21495">
        <ele>152.52360534668</ele>
        <time>2020-06-23T20:44:19.636Z</time>
      </trkpt>
      <trkpt lat="44.8953" lon="1.21512">
        <ele>151.79737854004</ele>
        <time>2020-06-23T20:44:28.450Z</time>
      </trkpt>
      <trkpt lat="44.895" lon="1.21527">
        <ele>151.25746154785</ele>
        <time>2020-06-23T20:44:37.269Z</time>
      </trkpt>
      <trkpt lat="44.89474" lon="1.2154">
        <ele>150.78953552246</ele>
        <time>2020-06-23T20:44:46.093Z</time>
      </trkpt>
      <trkpt lat="44.89462" lon="1.21548">
        <ele>150.50158691406</ele>
        <time>2020-06-23T20:44:54.919Z</time>
      </trkpt>
      <trkpt lat="44.89457" lon="1.21551">
        <ele>150.39361572266</ele>
        <time>2020-06-23T20:45:03.746Z</time>
      </trkpt>
      <trkpt lat="44.89436" lon="1.21547">
        <ele>150.22261047363</ele>
        <time>2020-06-23T20:45:12.576Z</time>
      </trkpt>
      <trkpt lat="44.89393" lon="1.21541">
        <ele>149.47874450684</ele>
        <time>2020-06-23T20:45:21.413Z</time>
      </trkpt>
      <trkpt lat="44.89378" lon="1.21539">
        <ele>149.21478271484</ele>
        <time>2020-06-23T20:45:30.252Z</time>
      </trkpt>
      <trkpt lat="44.89379" lon="1.21537">
        <ele>149.33476257324</ele>
        <time>2020-06-23T20:45:39.092Z</time>
      </trkpt>
      <trkpt lat="44.89379" lon="1.21535">
        <ele>149.43074035645</ele>
        <time>2020-06-23T20:45:47.932Z</time>
      </trkpt>
      <trkpt lat="44.89377" lon="1.21531">
        <ele>149.57472229004</ele>
        <time>2020-06-23T20:45:56.773Z</time>
      </trkpt>
      <trkpt lat="44.89374" lon="1.21529">
        <ele>149.59872436523</ele>
        <time>2020-06-23T20:46:05.614Z</time>
      </trkpt>
      <trkpt lat="44.89369" lon="1.21531">
        <ele>149.43370056152</ele>
        <time>2020-06-23T20:46:14.456Z</time>
      </trkpt>
      <trkpt lat="44.89368" lon="1.21536">
        <ele>149.18174743652</ele>
        <time>2020-06-23T20:46:23.298Z</time>
      </trkpt>
      <trkpt lat="44.89368" lon="1.21537">
        <ele>149.13375854492</ele>
        <time>2020-06-23T20:46:32.141Z</time>
      </trkpt>
      <trkpt lat="44.89321" lon="1.21532">
        <ele>149.07749938965</ele>
        <time>2020-06-23T20:46:40.991Z</time>
      </trkpt>
      <trkpt lat="44.89299" lon="1.2153">
        <ele>149.14947509766</ele>
        <time>2020-06-23T20:46:49.845Z</time>
      </trkpt>
      <trkpt lat="44.89289" lon="1.21534">
        <ele>149.00550842285</ele>
        <time>2020-06-23T20:46:58.700Z</time>
      </trkpt>
      <trkpt lat="44.89274" lon="1.21533">
        <ele>149.04150390625</ele>
        <time>2020-06-23T20:47:07.558Z</time>
      </trkpt>
      <trkpt lat="44.89256" lon="1.21532">
        <ele>149.17260742188</ele>
        <time>2020-06-23T20:47:16.419Z</time>
      </trkpt>
      <trkpt lat="44.89162" lon="1.21524">
        <ele>151.06907653809</ele>
        <time>2020-06-23T20:47:25.295Z</time>
      </trkpt>
      <trkpt lat="44.89135" lon="1.21526">
        <ele>151.71696472168</ele>
        <time>2020-06-23T20:47:34.175Z</time>
      </trkpt>
      <trkpt lat="44.89108" lon="1.21538">
        <ele>152.5472869873</ele>
        <time>2020-06-23T20:47:43.060Z</time>
      </trkpt>
      <trkpt lat="44.89115" lon="1.21586">
        <ele>152.09184265137</ele>
        <time>2020-06-23T20:47:51.950Z</time>
      </trkpt>
      <trkpt lat="44.89118" lon="1.21592">
        <ele>152.23582458496</ele>
        <time>2020-06-23T20:48:00.841Z</time>
      </trkpt>
      <trkpt lat="44.89121" lon="1.21595">
        <ele>152.34381103516</ele>
        <time>2020-06-23T20:48:09.733Z</time>
      </trkpt>
      <trkpt lat="44.89122" lon="1.21602">
        <ele>152.45178222656</ele>
        <time>2020-06-23T20:48:18.625Z</time>
      </trkpt>
      <trkpt lat="44.89121" lon="1.21611">
        <ele>152.53576660156</ele>
        <time>2020-06-23T20:48:27.518Z</time>
      </trkpt>
      <trkpt lat="44.89116" lon="1.21625">
        <ele>152.58377075195</ele>
        <time>2020-06-23T20:48:36.413Z</time>
      </trkpt>
      <trkpt lat="44.89088" lon="1.21663">
        <ele>151.94816589355</ele>
        <time>2020-06-23T20:48:45.314Z</time>
      </trkpt>
      <trkpt lat="44.89074" lon="1.21683">
        <ele>151.99617004395</ele>
        <time>2020-06-23T20:48:54.219Z</time>
      </trkpt>
      <trkpt lat="44.8907" lon="1.21696">
        <ele>152.27212524414</ele>
        <time>2020-06-23T20:49:03.125Z</time>
      </trkpt>
      <trkpt lat="44.89065" lon="1.21746">
        <ele>152.99822998047</ele>
        <time>2020-06-23T20:49:12.037Z</time>
      </trkpt>
      <trkpt lat="44.89067" lon="1.21824">
        <ele>153.50706481934</ele>
        <time>2020-06-23T20:49:20.958Z</time>
      </trkpt>
      <trkpt lat="44.89068" lon="1.2185">
        <ele>153.69329833984</ele>
        <time>2020-06-23T20:49:29.882Z</time>
      </trkpt>
      <trkpt lat="44.8906" lon="1.21864">
        <ele>154.38917541504</ele>
        <time>2020-06-23T20:49:38.808Z</time>
      </trkpt>
      <trkpt lat="44.89057" lon="1.21867">
        <ele>154.56915283203</ele>
        <time>2020-06-23T20:49:47.734Z</time>
      </trkpt>
      <trkpt lat="44.89056" lon="1.21866">
        <ele>154.55714416504</ele>
        <time>2020-06-23T20:49:56.661Z</time>
      </trkpt>
      <trkpt lat="44.89054" lon="1.21864">
        <ele>154.53315734863</ele>
        <time>2020-06-23T20:50:05.588Z</time>
      </trkpt>
      <trkpt lat="44.89051" lon="1.21865">
        <ele>154.64112854004</ele>
        <time>2020-06-23T20:50:14.515Z</time>
      </trkpt>
      <trkpt lat="44.89047" lon="1.2187">
        <ele>154.91708374023</ele>
        <time>2020-06-23T20:50:23.443Z</time>
      </trkpt>
      <trkpt lat="44.89042" lon="1.21869">
        <ele>155.00106811523</ele>
        <time>2020-06-23T20:50:32.372Z</time>
      </trkpt>
      <trkpt lat="44.89019" lon="1.21865">
        <ele>154.90850830078</ele>
        <time>2020-06-23T20:50:41.305Z</time>
      </trkpt>
      <trkpt lat="44.89008" lon="1.21864">
        <ele>154.89810180664</ele>
        <time>2020-06-23T20:50:50.240Z</time>
      </trkpt>
      <trkpt lat="44.88991" lon="1.21863">
        <ele>155.62998962402</ele>
        <time>2020-06-23T20:50:59.177Z</time>
      </trkpt>
      <trkpt lat="44.88973" lon="1.21864">
        <ele>156.57781982422</ele>
        <time>2020-06-23T20:51:08.117Z</time>
      </trkpt>
      <trkpt lat="44.88953" lon="1.2187">
        <ele>157.66253662109</ele>
        <time>2020-06-23T20:51:17.061Z</time>
      </trkpt>
      <trkpt lat="44.88898" lon="1.21859">
        <ele>153.44479370117</ele>
        <time>2020-06-23T20:51:26.013Z</time>
      </trkpt>
      <trkpt lat="44.88833" lon="1.21861">
        <ele>151.4928894043</ele>
        <time>2020-06-23T20:51:34.976Z</time>
      </trkpt>
      <trkpt lat="44.8876" lon="1.21848">
        <ele>152.39901733398</ele>
        <time>2020-06-23T20:51:43.951Z</time>
      </trkpt>
      <trkpt lat="44.88762" lon="1.21848">
        <ele>152.1646270752</ele>
        <time>2020-06-23T20:51:52.926Z</time>
      </trkpt>
      <trkpt lat="44.88757" lon="1.21775">
        <ele>144.78175354004</ele>
        <time>2020-06-23T20:52:01.909Z</time>
      </trkpt>
      <trkpt lat="44.88752" lon="1.21748">
        <ele>143.16201782227</ele>
        <time>2020-06-23T20:52:10.895Z</time>
      </trkpt>
      <trkpt lat="44.88743" lon="1.21725">
        <ele>141.91290283203</ele>
        <time>2020-06-23T20:52:19.884Z</time>
      </trkpt>
      <trkpt lat="44.88733" lon="1.21707">
        <ele>141.48097229004</ele>
        <time>2020-06-23T20:52:28.876Z</time>
      </trkpt>
      <trkpt lat="44.88717" lon="1.21667">
        <ele>140.51635742188</ele>
        <time>2020-06-23T20:52:37.873Z</time>
      </trkpt>
      <trkpt lat="44.88724" lon="1.21654">
        <ele>140.42730712891</ele>
        <time>2020-06-23T20:52:46.872Z</time>
      </trkpt>
      <trkpt lat="44.88724" lon="1.21634">
        <ele>140.96504211426</ele>
        <time>2020-06-23T20:52:55.873Z</time>
      </trkpt>
      <trkpt lat="44.88724" lon="1.21613">
        <ele>141.98571777344</ele>
        <time>2020-06-23T20:53:04.877Z</time>
      </trkpt>
      <trkpt lat="44.88724" lon="1.21611">
        <ele>142.06597900391</ele>
        <time>2020-06-23T20:53:13.881Z</time>
      </trkpt>
      <trkpt lat="44.88675" lon="1.21628">
        <ele>140.52616882324</ele>
        <time>2020-06-23T20:53:22.893Z</time>
      </trkpt>
      <trkpt lat="44.88649" lon="1.21635">
        <ele>138.91844177246</ele>
        <time>2020-06-23T20:53:31.909Z</time>
      </trkpt>
      <trkpt lat="44.88616" lon="1.21643">
        <ele>137.41407775879</ele>
        <time>2020-06-23T20:53:40.931Z</time>
      </trkpt>
      <trkpt lat="44.88582" lon="1.21648">
        <ele>137.52598571777</ele>
        <time>2020-06-23T20:53:49.958Z</time>
      </trkpt>
      <trkpt lat="44.88534" lon="1.21643">
        <ele>138.20620727539</ele>
        <time>2020-06-23T20:53:58.993Z</time>
      </trkpt>
      <trkpt lat="44.88455" lon="1.21629">
        <ele>139.92543029785</ele>
        <time>2020-06-23T20:54:08.041Z</time>
      </trkpt>
      <trkpt lat="44.88246" lon="1.21587">
        <ele>132.5721282959</ele>
        <time>2020-06-23T20:54:17.122Z</time>
      </trkpt>
      <trkpt lat="44.88134" lon="1.21566">
        <ele>130.2142791748</ele>
        <time>2020-06-23T20:54:26.222Z</time>
      </trkpt>
      <trkpt lat="44.88065" lon="1.21555">
        <ele>131.97515869141</ele>
        <time>2020-06-23T20:54:35.333Z</time>
      </trkpt>
      <trkpt lat="44.8804" lon="1.21557">
        <ele>132.4070892334</ele>
        <time>2020-06-23T20:54:44.448Z</time>
      </trkpt>
      <trkpt lat="44.88006" lon="1.21567">
        <ele>131.69616699219</ele>
        <time>2020-06-23T20:54:53.568Z</time>
      </trkpt>
      <trkpt lat="44.87989" lon="1.21574">
        <ele>131.27624511719</ele>
        <time>2020-06-23T20:55:02.691Z</time>
      </trkpt>
      <trkpt lat="44.87953" lon="1.21597">
        <ele>129.85635375977</ele>
        <time>2020-06-23T20:55:11.820Z</time>
      </trkpt>
      <trkpt lat="44.87925" lon="1.21615">
        <ele>128.49151611328</ele>
        <time>2020-06-23T20:55:20.954Z</time>
      </trkpt>
      <trkpt lat="44.87918" lon="1.21618">
        <ele>128.70747375488</ele>
        <time>2020-06-23T20:55:30.089Z</time>
      </trkpt>
      <trkpt lat="44.87909" lon="1.21618">
        <ele>129.03141784668</ele>
        <time>2020-06-23T20:55:39.226Z</time>
      </trkpt>
      <trkpt lat="44.87901" lon="1.21616">
        <ele>129.34336853027</ele>
        <time>2020-06-23T20:55:48.364Z</time>
      </trkpt>
      <trkpt lat="44.87891" lon="1.21612">
        <ele>129.75129699707</ele>
        <time>2020-06-23T20:55:57.504Z</time>
      </trkpt>
      <trkpt lat="44.87889" lon="1.21609">
        <ele>129.85928344727</ele>
        <time>2020-06-23T20:56:06.644Z</time>
      </trkpt>
      <trkpt lat="44.87885" lon="1.21605">
        <ele>130.05125427246</ele>
        <time>2020-06-23T20:56:15.785Z</time>
      </trkpt>
      <trkpt lat="44.87881" lon="1.21604">
        <ele>130.20722961426</ele>
        <time>2020-06-23T20:56:24.927Z</time>
      </trkpt>
      <trkpt lat="44.87873" lon="1.21608">
        <ele>130.44718933105</ele>
        <time>2020-06-23T20:56:34.070Z</time>
      </trkpt>
      <trkpt lat="44.8787" lon="1.21618">
        <ele>130.14758300781</ele>
        <time>2020-06-23T20:56:43.214Z</time>
      </trkpt>
      <trkpt lat="44.8787" lon="1.21624">
        <ele>130.07559204102</ele>
        <time>2020-06-23T20:56:52.359Z</time>
      </trkpt>
      <trkpt lat="44.87871" lon="1.21627">
        <ele>130.09959411621</ele>
        <time>2020-06-23T20:57:01.504Z</time>
      </trkpt>
      <trkpt lat="44.87859" lon="1.21668">
        <ele>129.22364807129</ele>
        <time>2020-06-23T20:57:10.654Z</time>
      </trkpt>
      <trkpt lat="44.87851" lon="1.21688">
        <ele>128.69573974609</ele>
        <time>2020-06-23T20:57:19.807Z</time>
      </trkpt>
      <trkpt lat="44.8784" lon="1.21709">
        <ele>129.01008605957</ele>
        <time>2020-06-23T20:57:28.963Z</time>
      </trkpt>
      <trkpt lat="44.87826" lon="1.21726">
        <ele>130.53382873535</ele>
        <time>2020-06-23T20:57:38.122Z</time>
      </trkpt>
      <trkpt lat="44.87818" lon="1.21731">
        <ele>131.29234313965</ele>
        <time>2020-06-23T20:57:47.282Z</time>
      </trkpt>
      <trkpt lat="44.87809" lon="1.21733">
        <ele>131.88024902344</ele>
        <time>2020-06-23T20:57:56.444Z</time>
      </trkpt>
      <trkpt lat="44.87787" lon="1.21728">
        <ele>131.85018920898</ele>
        <time>2020-06-23T20:58:05.609Z</time>
      </trkpt>
      <trkpt lat="44.87733" lon="1.21713">
        <ele>128.71870422363</ele>
        <time>2020-06-23T20:58:14.783Z</time>
      </trkpt>
      <trkpt lat="44.87732" lon="1.21712">
        <ele>128.63471984863</ele>
        <time>2020-06-23T20:58:23.957Z</time>
      </trkpt>
      <trkpt lat="44.87724" lon="1.21709">
        <ele>128.14280700684</ele>
        <time>2020-06-23T20:58:33.133Z</time>
      </trkpt>
      <trkpt lat="44.87715" lon="1.21712">
        <ele>127.81886291504</ele>
        <time>2020-06-23T20:58:42.310Z</time>
      </trkpt>
      <trkpt lat="44.87709" lon="1.21721">
        <ele>127.85485076904</ele>
        <time>2020-06-23T20:58:51.489Z</time>
      </trkpt>
      <trkpt lat="44.87707" lon="1.21735">
        <ele>128.44076538086</ele>
        <time>2020-06-23T20:59:00.669Z</time>
      </trkpt>
      <trkpt lat="44.87711" lon="1.21748">
        <ele>129.55657958984</ele>
        <time>2020-06-23T20:59:09.851Z</time>
      </trkpt>
      <trkpt lat="44.87715" lon="1.21754">
        <ele>130.25247192383</ele>
        <time>2020-06-23T20:59:19.034Z</time>
      </trkpt>
      <trkpt lat="44.87717" lon="1.21756">
        <ele>130.54042053223</ele>
        <time>2020-06-23T20:59:28.217Z</time>
      </trkpt>
      <trkpt lat="44.87716" lon="1.21768">
        <ele>131.17631530762</ele>
        <time>2020-06-23T20:59:37.402Z</time>
      </trkpt>
      <trkpt lat="44.87711" lon="1.21786">
        <ele>131.83619689941</ele>
        <time>2020-06-23T20:59:46.589Z</time>
      </trkpt>
      <trkpt lat="44.8766" lon="1.21922">
        <ele>146.37771606445</ele>
        <time>2020-06-23T20:59:55.793Z</time>
      </trkpt>
      <trkpt lat="44.87609" lon="1.22065">
        <ele>144.87748718262</ele>
        <time>2020-06-23T21:00:05.016Z</time>
      </trkpt>
      <trkpt lat="44.87558" lon="1.22207">
        <ele>151.67375183105</ele>
        <time>2020-06-23T21:00:14.257Z</time>
      </trkpt>
      <trkpt lat="44.87549" lon="1.22246">
        <ele>153.43655395508</ele>
        <time>2020-06-23T21:00:23.502Z</time>
      </trkpt>
      <trkpt lat="44.87543" lon="1.2227">
        <ele>153.79649353027</ele>
        <time>2020-06-23T21:00:32.750Z</time>
      </trkpt>
      <trkpt lat="44.87542" lon="1.22271">
        <ele>153.85647583008</ele>
        <time>2020-06-23T21:00:41.998Z</time>
      </trkpt>
      <trkpt lat="44.87538" lon="1.22264">
        <ele>154.17358398438</ele>
        <time>2020-06-23T21:00:51.247Z</time>
      </trkpt>
      <trkpt lat="44.87532" lon="1.22264">
        <ele>154.82147216797</ele>
        <time>2020-06-23T21:01:00.497Z</time>
      </trkpt>
      <trkpt lat="44.87528" lon="1.22266">
        <ele>155.25340270996</ele>
        <time>2020-06-23T21:01:09.748Z</time>
      </trkpt>
      <trkpt lat="44.87513" lon="1.22303">
        <ele>157.7152557373</ele>
        <time>2020-06-23T21:01:19.004Z</time>
      </trkpt>
      <trkpt lat="44.87498" lon="1.22324">
        <ele>160.20318603516</ele>
        <time>2020-06-23T21:01:28.263Z</time>
      </trkpt>
      <trkpt lat="44.87499" lon="1.22326">
        <ele>159.99922180176</ele>
        <time>2020-06-23T21:01:37.523Z</time>
      </trkpt>
      <trkpt lat="44.87496" lon="1.22347">
        <ele>159.96322631836</ele>
        <time>2020-06-23T21:01:46.785Z</time>
      </trkpt>
      <trkpt lat="44.87498" lon="1.22356">
        <ele>159.27694702148</ele>
        <time>2020-06-23T21:01:56.048Z</time>
      </trkpt>
      <trkpt lat="44.87499" lon="1.22371">
        <ele>157.7532043457</ele>
        <time>2020-06-23T21:02:05.313Z</time>
      </trkpt>
      <trkpt lat="44.87499" lon="1.22377">
        <ele>157.17730712891</ele>
        <time>2020-06-23T21:02:14.578Z</time>
      </trkpt>
      <trkpt lat="44.87489" lon="1.22412">
        <ele>156.05125427246</ele>
        <time>2020-06-23T21:02:23.848Z</time>
      </trkpt>
      <trkpt lat="44.87428" lon="1.22576">
        <ele>157.20115661621</ele>
        <time>2020-06-23T21:02:33.139Z</time>
      </trkpt>
      <trkpt lat="44.87401" lon="1.2265">
        <ele>160.03268432617</ele>
        <time>2020-06-23T21:02:42.439Z</time>
      </trkpt>
      <trkpt lat="44.87371" lon="1.22734">
        <ele>162.09823608398</ele>
        <time>2020-06-23T21:02:51.750Z</time>
      </trkpt>
      <trkpt lat="44.87351" lon="1.22792">
        <ele>163.10330200195</ele>
        <time>2020-06-23T21:03:01.068Z</time>
      </trkpt>
      <trkpt lat="44.8733" lon="1.22849">
        <ele>164.67677307129</ele>
        <time>2020-06-23T21:03:10.394Z</time>
      </trkpt>
      <trkpt lat="44.87293" lon="1.22939">
        <ele>166.14552307129</ele>
        <time>2020-06-23T21:03:19.731Z</time>
      </trkpt>
      <trkpt lat="44.8728" lon="1.22965">
        <ele>166.30149841309</ele>
        <time>2020-06-23T21:03:29.072Z</time>
      </trkpt>
      <trkpt lat="44.87259" lon="1.22999">
        <ele>165.13258361816</ele>
        <time>2020-06-23T21:03:38.418Z</time>
      </trkpt>
      <trkpt lat="44.87258" lon="1.22998">
        <ele>165.21656799316</ele>
        <time>2020-06-23T21:03:47.764Z</time>
      </trkpt>
      <trkpt lat="44.87256" lon="1.22998">
        <ele>165.28855895996</ele>
        <time>2020-06-23T21:03:57.111Z</time>
      </trkpt>
      <trkpt lat="44.87254" lon="1.22998">
        <ele>165.36054992676</ele>
        <time>2020-06-23T21:04:06.458Z</time>
      </trkpt>
      <trkpt lat="44.87251" lon="1.23">
        <ele>165.37254333496</ele>
        <time>2020-06-23T21:04:15.806Z</time>
      </trkpt>
      <trkpt lat="44.87249" lon="1.23008">
        <ele>165.06059265137</ele>
        <time>2020-06-23T21:04:25.154Z</time>
      </trkpt>
      <trkpt lat="44.8724" lon="1.23014">
        <ele>165.04690551758</ele>
        <time>2020-06-23T21:04:34.504Z</time>
      </trkpt>
      <trkpt lat="44.87156" lon="1.23084">
        <ele>164.35340881348</ele>
        <time>2020-06-23T21:04:43.870Z</time>
      </trkpt>
      <trkpt lat="44.87124" lon="1.23108">
        <ele>163.68835449219</ele>
        <time>2020-06-23T21:04:53.242Z</time>
      </trkpt>
      <trkpt lat="44.87089" lon="1.2313">
        <ele>164.48916625977</ele>
        <time>2020-06-23T21:05:02.620Z</time>
      </trkpt>
      <trkpt lat="44.87068" lon="1.23141">
        <ele>164.17721557617</ele>
        <time>2020-06-23T21:05:12.001Z</time>
      </trkpt>
      <trkpt lat="44.8704" lon="1.23153">
        <ele>164.54061889648</ele>
        <time>2020-06-23T21:05:21.387Z</time>
      </trkpt>
      <trkpt lat="44.87004" lon="1.23169">
        <ele>164.44462585449</ele>
        <time>2020-06-23T21:05:30.779Z</time>
      </trkpt>
      <trkpt lat="44.8699" lon="1.2317">
        <ele>164.72058105469</ele>
        <time>2020-06-23T21:05:40.173Z</time>
      </trkpt>
      <trkpt lat="44.86971" lon="1.23184">
        <ele>164.62033081055</ele>
        <time>2020-06-23T21:05:49.571Z</time>
      </trkpt>
      <trkpt lat="44.86924" lon="1.23231">
        <ele>162.04981994629</ele>
        <time>2020-06-23T21:05:58.978Z</time>
      </trkpt>
      <trkpt lat="44.86896" lon="1.23258">
        <ele>159.32446289062</ele>
        <time>2020-06-23T21:06:08.390Z</time>
      </trkpt>
      <trkpt lat="44.86886" lon="1.23266">
        <ele>159.06051635742</ele>
        <time>2020-06-23T21:06:17.804Z</time>
      </trkpt>
      <trkpt lat="44.86811" lon="1.23331">
        <ele>154.32402038574</ele>
        <time>2020-06-23T21:06:27.232Z</time>
      </trkpt>
      <trkpt lat="44.86781" lon="1.23354">
        <ele>152.19110107422</ele>
        <time>2020-06-23T21:06:36.666Z</time>
      </trkpt>
      <trkpt lat="44.86753" lon="1.23382">
        <ele>149.90058898926</ele>
        <time>2020-06-23T21:06:46.105Z</time>
      </trkpt>
      <trkpt lat="44.86715" lon="1.23435">
        <ele>146.21905517578</ele>
        <time>2020-06-23T21:06:55.553Z</time>
      </trkpt>
      <trkpt lat="44.86702" lon="1.23453">
        <ele>144.98263549805</ele>
        <time>2020-06-23T21:07:05.004Z</time>
      </trkpt>
      <trkpt lat="44.86674" lon="1.23484">
        <ele>143.49258422852</ele>
        <time>2020-06-23T21:07:14.460Z</time>
      </trkpt>
      <trkpt lat="44.86627" lon="1.23537">
        <ele>140.36430358887</ele>
        <time>2020-06-23T21:07:23.926Z</time>
      </trkpt>
      <trkpt lat="44.86603" lon="1.2356">
        <ele>139.66537475586</ele>
        <time>2020-06-23T21:07:33.397Z</time>
      </trkpt>
      <trkpt lat="44.86505" lon="1.23657">
        <ele>135.75686645508</ele>
        <time>2020-06-23T21:07:42.887Z</time>
      </trkpt>
      <trkpt lat="44.86452" lon="1.23698">
        <ele>135.13108825684</ele>
        <time>2020-06-23T21:07:52.387Z</time>
      </trkpt>
      <trkpt lat="44.86404" lon="1.23732">
        <ele>133.8278503418</ele>
        <time>2020-06-23T21:08:01.895Z</time>
      </trkpt>
      <trkpt lat="44.86398" lon="1.23735">
        <ele>133.86383056641</ele>
        <time>2020-06-23T21:08:11.404Z</time>
      </trkpt>
      <trkpt lat="44.86375" lon="1.23745">
        <ele>132.18612670898</ele>
        <time>2020-06-23T21:08:20.917Z</time>
      </trkpt>
      <trkpt lat="44.86343" lon="1.23751">
        <ele>132.44940185547</ele>
        <time>2020-06-23T21:08:30.435Z</time>
      </trkpt>
      <trkpt lat="44.86253" lon="1.23767">
        <ele>132.59161376953</ele>
        <time>2020-06-23T21:08:39.968Z</time>
      </trkpt>
      <trkpt lat="44.86221" lon="1.23775">
        <ele>132.87956237793</ele>
        <time>2020-06-23T21:08:49.506Z</time>
      </trkpt>
      <trkpt lat="44.86203" lon="1.23782">
        <ele>132.81831359863</ele>
        <time>2020-06-23T21:08:59.047Z</time>
      </trkpt>
      <trkpt lat="44.86186" lon="1.2379">
        <ele>132.33839416504</ele>
        <time>2020-06-23T21:09:08.591Z</time>
      </trkpt>
      <trkpt lat="44.86163" lon="1.23799">
        <ele>133.22584533691</ele>
        <time>2020-06-23T21:09:18.139Z</time>
      </trkpt>
      <trkpt lat="44.86135" lon="1.23808">
        <ele>134.4616394043</ele>
        <time>2020-06-23T21:09:27.691Z</time>
      </trkpt>
      <trkpt lat="44.86124" lon="1.23818">
        <ele>134.81684875488</ele>
        <time>2020-06-23T21:09:37.245Z</time>
      </trkpt>
      <trkpt lat="44.86115" lon="1.23814">
        <ele>134.86701965332</ele>
        <time>2020-06-23T21:09:46.801Z</time>
      </trkpt>
      <trkpt lat="44.86101" lon="1.2381">
        <ele>134.79502868652</ele>
        <time>2020-06-23T21:09:56.359Z</time>
      </trkpt>
      <trkpt lat="44.86061" lon="1.23803">
        <ele>134.48307800293</ele>
        <time>2020-06-23T21:10:05.924Z</time>
      </trkpt>
      <trkpt lat="44.86023" lon="1.23795">
        <ele>134.61163330078</ele>
        <time>2020-06-23T21:10:15.495Z</time>
      </trkpt>
      <trkpt lat="44.85993" lon="1.23794">
        <ele>134.99557495117</ele>
        <time>2020-06-23T21:10:25.070Z</time>
      </trkpt>
      <trkpt lat="44.85987" lon="1.23795">
        <ele>135.04356384277</ele>
        <time>2020-06-23T21:10:34.646Z</time>
      </trkpt>
      <trkpt lat="44.8597" lon="1.23799">
        <ele>135.15155029297</ele>
        <time>2020-06-23T21:10:44.225Z</time>
      </trkpt>
      <trkpt lat="44.85917" lon="1.23818">
        <ele>135.79956054688</ele>
        <time>2020-06-23T21:10:53.813Z</time>
      </trkpt>
      <trkpt lat="44.85892" lon="1.23825">
        <ele>136.23149108887</ele>
        <time>2020-06-23T21:11:03.405Z</time>
      </trkpt>
      <trkpt lat="44.85874" lon="1.23829">
        <ele>136.19903564453</ele>
        <time>2020-06-23T21:11:13.000Z</time>
      </trkpt>
      <trkpt lat="44.85836" lon="1.23833">
        <ele>135.12730407715</ele>
        <time>2020-06-23T21:11:22.601Z</time>
      </trkpt>
      <trkpt lat="44.85824" lon="1.23833">
        <ele>134.83934020996</ele>
        <time>2020-06-23T21:11:32.204Z</time>
      </trkpt>
      <trkpt lat="44.85812" lon="1.23835">
        <ele>134.45553588867</ele>
        <time>2020-06-23T21:11:41.809Z</time>
      </trkpt>
      <trkpt lat="44.85803" lon="1.23809">
        <ele>135.56666564941</ele>
        <time>2020-06-23T21:11:51.417Z</time>
      </trkpt>
      <trkpt lat="44.85812" lon="1.23835">
        <ele>134.45553588867</ele>
        <time>2020-06-23T19:21:51.000Z</time>
      </trkpt>
      <trkpt lat="44.85812" lon="1.23835">
        <ele>134.45553588867</ele>
        <time>2020-06-23T19:21:51.000Z</time>
      </trkpt>
      <trkpt lat="44.85806" lon="1.23961">
        <ele>132.01583862305</ele>
        <time>2020-06-23T19:21:51.014Z</time>
      </trkpt>
      <trkpt lat="44.85804" lon="1.24014">
        <ele>130.56420898438</ele>
        <time>2020-06-23T19:21:51.034Z</time>
      </trkpt>
      <trkpt lat="44.85802" lon="1.24051">
        <ele>129.2564239502</ele>
        <time>2020-06-23T19:21:51.059Z</time>
      </trkpt>
      <trkpt lat="44.85793" lon="1.24082">
        <ele>129.04420471191</ele>
        <time>2020-06-23T19:21:51.087Z</time>
      </trkpt>
      <trkpt lat="44.8577" lon="1.24147">
        <ele>132.26013183594</ele>
        <time>2020-06-23T19:21:51.124Z</time>
      </trkpt>
      <trkpt lat="44.85759" lon="1.24169">
        <ele>134.37178039551</ele>
        <time>2020-06-23T19:21:51.164Z</time>
      </trkpt>
      <trkpt lat="44.8575" lon="1.24177">
        <ele>135.97950744629</ele>
        <time>2020-06-23T19:21:51.205Z</time>
      </trkpt>
      <trkpt lat="44.85727" lon="1.24188">
        <ele>139.97485351562</ele>
        <time>2020-06-23T19:21:51.250Z</time>
      </trkpt>
      <trkpt lat="44.85718" lon="1.24199">
        <ele>141.6185760498</ele>
        <time>2020-06-23T19:21:51.297Z</time>
      </trkpt>
      <trkpt lat="44.85714" lon="1.24215">
        <ele>142.482421875</ele>
        <time>2020-06-23T19:21:51.346Z</time>
      </trkpt>
      <trkpt lat="44.85713" lon="1.24235">
        <ele>143.31893920898</ele>
        <time>2020-06-23T19:21:51.397Z</time>
      </trkpt>
      <trkpt lat="44.85716" lon="1.24261">
        <ele>144.20959472656</ele>
        <time>2020-06-23T19:21:51.451Z</time>
      </trkpt>
      <trkpt lat="44.85719" lon="1.24272">
        <ele>144.34156799316</ele>
        <time>2020-06-23T19:21:51.507Z</time>
      </trkpt>
      <trkpt lat="44.8574" lon="1.24271">
        <ele>141.5220489502</ele>
        <time>2020-06-23T19:21:51.566Z</time>
      </trkpt>
      <trkpt lat="44.85748" lon="1.24293">
        <ele>141.5220489502</ele>
        <time>2020-06-23T19:21:51.628Z</time>
      </trkpt>
      <trkpt lat="44.85765" lon="1.24338">
        <ele>141.74528503418</ele>
        <time>2020-06-23T19:21:51.696Z</time>
      </trkpt>
      <trkpt lat="44.85783" lon="1.24395">
        <ele>142.72221374512</ele>
        <time>2020-06-23T19:21:51.771Z</time>
      </trkpt>
      <trkpt lat="44.85785" lon="1.24437">
        <ele>140.07350158691</ele>
        <time>2020-06-23T19:21:51.851Z</time>
      </trkpt>
      <trkpt lat="44.85785" lon="1.24438">
        <ele>139.9826965332</ele>
        <time>2020-06-23T19:21:51.931Z</time>
      </trkpt>
      <trkpt lat="44.85787" lon="1.24479">
        <ele>137.55043029785</ele>
        <time>2020-06-23T19:21:52.015Z</time>
      </trkpt>
      <trkpt lat="44.85785" lon="1.24511">
        <ele>137.26988220215</ele>
        <time>2020-06-23T19:21:52.103Z</time>
      </trkpt>
      <trkpt lat="44.85789" lon="1.24584">
        <ele>133.26467895508</ele>
        <time>2020-06-23T19:21:52.199Z</time>
      </trkpt>
      <trkpt lat="44.85796" lon="1.24675">
        <ele>127.91980743408</ele>
        <time>2020-06-23T19:21:52.306Z</time>
      </trkpt>
      <trkpt lat="44.85791" lon="1.24712">
        <ele>127.97979736328</ele>
        <time>2020-06-23T19:21:52.417Z</time>
      </trkpt>
      <trkpt lat="44.85773" lon="1.24761">
        <ele>129.18368530273</ele>
        <time>2020-06-23T19:21:52.534Z</time>
      </trkpt>
      <trkpt lat="44.85769" lon="1.24786">
        <ele>129.26766967773</ele>
        <time>2020-06-23T19:21:52.654Z</time>
      </trkpt>
      <trkpt lat="44.85765" lon="1.24863">
        <ele>127.26905059814</ele>
        <time>2020-06-23T19:21:52.783Z</time>
      </trkpt>
      <trkpt lat="44.85761" lon="1.24878">
        <ele>127.10717773438</ele>
        <time>2020-06-23T19:21:52.914Z</time>
      </trkpt>
      <trkpt lat="44.8575" lon="1.24902">
        <ele>126.72113800049</ele>
        <time>2020-06-23T19:21:53.048Z</time>
      </trkpt>
      <trkpt lat="44.85741" lon="1.24921">
        <ele>126.2532119751</ele>
        <time>2020-06-23T19:21:53.185Z</time>
      </trkpt>
      <trkpt lat="44.85737" lon="1.24935">
        <ele>126.04071044922</ele>
        <time>2020-06-23T19:21:53.324Z</time>
      </trkpt>
      <trkpt lat="44.85738" lon="1.24944">
        <ele>125.88474273682</ele>
        <time>2020-06-23T19:21:53.464Z</time>
      </trkpt>
      <trkpt lat="44.85743" lon="1.24953">
        <ele>125.53679656982</ele>
        <time>2020-06-23T19:21:53.605Z</time>
      </trkpt>
      <trkpt lat="44.85755" lon="1.24972">
        <ele>124.73293304443</ele>
        <time>2020-06-23T19:21:53.749Z</time>
      </trkpt>
      <trkpt lat="44.85779" lon="1.25002">
        <ele>123.7689743042</ele>
        <time>2020-06-23T19:21:53.898Z</time>
      </trkpt>
      <trkpt lat="44.85846" lon="1.25067">
        <ele>118.91673278809</ele>
        <time>2020-06-23T19:21:54.060Z</time>
      </trkpt>
      <trkpt lat="44.85863" lon="1.25098">
        <ele>115.25733947754</ele>
        <time>2020-06-23T19:21:54.226Z</time>
      </trkpt>
      <trkpt lat="44.85868" lon="1.25126">
        <ele>112.85105133057</ele>
        <time>2020-06-23T19:21:54.396Z</time>
      </trkpt>
      <trkpt lat="44.85868" lon="1.25126">
        <ele>112.82174682617</ele>
        <time>2020-06-23T19:21:54.566Z</time>
      </trkpt>
      <trkpt lat="44.85869" lon="1.25127">
        <ele>112.66577148438</ele>
        <time>2020-06-23T19:21:54.736Z</time>
      </trkpt>
      <trkpt lat="44.85878" lon="1.25187">
        <ele>112.90222930908</ele>
        <time>2020-06-23T19:21:54.913Z</time>
      </trkpt>
      <trkpt lat="44.85832" lon="1.25238">
        <ele>123.99835968018</ele>
        <time>2020-06-23T19:21:55.099Z</time>
      </trkpt>
      <trkpt lat="44.85809" lon="1.25268">
        <ele>130.03393554688</ele>
        <time>2020-06-23T19:21:55.290Z</time>
      </trkpt>
      <trkpt lat="44.85796" lon="1.25293">
        <ele>128.4022064209</ele>
        <time>2020-06-23T19:21:55.485Z</time>
      </trkpt>
      <trkpt lat="44.85788" lon="1.25315">
        <ele>127.33846282959</ele>
        <time>2020-06-23T19:21:55.683Z</time>
      </trkpt>
      <trkpt lat="44.85786" lon="1.25328">
        <ele>127.51843261719</ele>
        <time>2020-06-23T19:21:55.882Z</time>
      </trkpt>
      <trkpt lat="44.85791" lon="1.25359">
        <ele>125.38906860352</ele>
        <time>2020-06-23T19:21:56.085Z</time>
      </trkpt>
      <trkpt lat="44.85797" lon="1.25379">
        <ele>124.89978027344</ele>
        <time>2020-06-23T19:21:56.290Z</time>
      </trkpt>
      <trkpt lat="44.85798" lon="1.25381">
        <ele>124.84915924072</ele>
        <time>2020-06-23T19:21:56.495Z</time>
      </trkpt>
      <trkpt lat="44.85715" lon="1.25512">
        <ele>130.37448120117</ele>
        <time>2020-06-23T19:21:56.720Z</time>
      </trkpt>
      <trkpt lat="44.85715" lon="1.25512">
        <ele>130.37327575684</ele>
        <time>2020-06-23T19:21:56.945Z</time>
      </trkpt>
      <trkpt lat="44.85714" lon="1.25513">
        <ele>130.17077636719</ele>
        <time>2020-06-23T19:21:57.171Z</time>
      </trkpt>
      <trkpt lat="44.85713" lon="1.25513">
        <ele>130.27351379395</ele>
        <time>2020-06-23T19:21:57.397Z</time>
      </trkpt>
      <trkpt lat="44.85657" lon="1.25598">
        <ele>121.65128326416</ele>
        <time>2020-06-23T19:21:57.636Z</time>
      </trkpt>
      <trkpt lat="44.85609" lon="1.25673">
        <ele>118.72119903564</ele>
        <time>2020-06-23T19:21:57.886Z</time>
      </trkpt>
      <trkpt lat="44.85537" lon="1.25779">
        <ele>109.37468719482</ele>
        <time>2020-06-23T19:21:58.153Z</time>
      </trkpt>
      <trkpt lat="44.85421" lon="1.25953">
        <ele>119.59984588623</ele>
        <time>2020-06-23T19:21:58.447Z</time>
      </trkpt>
      <trkpt lat="44.85421" lon="1.25953">
        <ele>119.60035705566</ele>
        <time>2020-06-23T19:21:58.741Z</time>
      </trkpt>
      <trkpt lat="44.85419" lon="1.25956">
        <ele>119.76886749268</ele>
        <time>2020-06-23T19:21:59.036Z</time>
      </trkpt>
      <trkpt lat="44.85367" lon="1.2604">
        <ele>120.3826675415</ele>
        <time>2020-06-23T19:21:59.343Z</time>
      </trkpt>
      <trkpt lat="44.85339" lon="1.26106">
        <ele>117.88320159912</ele>
        <time>2020-06-23T19:21:59.659Z</time>
      </trkpt>
      <trkpt lat="44.85317" lon="1.26175">
        <ele>122.05920410156</ele>
        <time>2020-06-23T19:21:59.984Z</time>
      </trkpt>
      <trkpt lat="44.85311" lon="1.26199">
        <ele>124.14685058594</ele>
        <time>2020-06-23T19:22:00.312Z</time>
      </trkpt>
      <trkpt lat="44.85304" lon="1.26225">
        <ele>126.4864654541</ele>
        <time>2020-06-23T19:22:00.643Z</time>
      </trkpt>
      <trkpt lat="44.85296" lon="1.26272">
        <ele>127.02711486816</ele>
        <time>2020-06-23T19:22:00.979Z</time>
      </trkpt>
      <trkpt lat="44.85291" lon="1.26313">
        <ele>127.60846710205</ele>
        <time>2020-06-23T19:22:01.320Z</time>
      </trkpt>
      <trkpt lat="44.85288" lon="1.26365">
        <ele>123.24881744385</ele>
        <time>2020-06-23T19:22:01.667Z</time>
      </trkpt>
      <trkpt lat="44.85288" lon="1.2645">
        <ele>119.04612731934</ele>
        <time>2020-06-23T19:22:02.024Z</time>
      </trkpt>
      <trkpt lat="44.85302" lon="1.26608">
        <ele>114.99105072021</ele>
        <time>2020-06-23T19:22:02.399Z</time>
      </trkpt>
      <trkpt lat="44.85312" lon="1.26703">
        <ele>112.81385803223</ele>
        <time>2020-06-23T19:22:02.785Z</time>
      </trkpt>
      <trkpt lat="44.85313" lon="1.26761">
        <ele>113.5725479126</ele>
        <time>2020-06-23T19:22:03.177Z</time>
      </trkpt>
      <trkpt lat="44.85311" lon="1.26809">
        <ele>115.68419647217</ele>
        <time>2020-06-23T19:22:03.575Z</time>
      </trkpt>
      <trkpt lat="44.85303" lon="1.26856">
        <ele>117.40237426758</ele>
        <time>2020-06-23T19:22:03.978Z</time>
      </trkpt>
      <trkpt lat="44.85291" lon="1.2693">
        <ele>119.95172119141</ele>
        <time>2020-06-23T19:22:04.390Z</time>
      </trkpt>
      <trkpt lat="44.85287" lon="1.26954">
        <ele>119.22402954102</ele>
        <time>2020-06-23T19:22:04.805Z</time>
      </trkpt>
      <trkpt lat="44.85279" lon="1.26978">
        <ele>118.17693328857</ele>
        <time>2020-06-23T19:22:05.223Z</time>
      </trkpt>
      <trkpt lat="44.85262" lon="1.27017">
        <ele>114.72779846191</ele>
        <time>2020-06-23T19:22:05.646Z</time>
      </trkpt>
      <trkpt lat="44.85242" lon="1.27059">
        <ele>112.50095367432</ele>
        <time>2020-06-23T19:22:06.075Z</time>
      </trkpt>
      <trkpt lat="44.85242" lon="1.27059">
        <ele>112.5005645752</ele>
        <time>2020-06-23T19:22:06.504Z</time>
      </trkpt>
      <trkpt lat="44.8524" lon="1.27063">
        <ele>112.33081817627</ele>
        <time>2020-06-23T19:22:06.933Z</time>
      </trkpt>
      <trkpt lat="44.85239" lon="1.27064">
        <ele>112.16284942627</ele>
        <time>2020-06-23T19:22:07.362Z</time>
      </trkpt>
      <trkpt lat="44.85201" lon="1.27125">
        <ele>102.65572357178</ele>
        <time>2020-06-23T19:22:07.801Z</time>
      </trkpt>
      <trkpt lat="44.85178" lon="1.27154">
        <ele>100.69052886963</ele>
        <time>2020-06-23T19:22:08.245Z</time>
      </trkpt>
      <trkpt lat="44.85161" lon="1.27171">
        <ele>101.30242919922</ele>
        <time>2020-06-23T19:22:08.692Z</time>
      </trkpt>
      <trkpt lat="44.85129" lon="1.27198">
        <ele>100.69826507568</ele>
        <time>2020-06-23T19:22:09.145Z</time>
      </trkpt>
      <trkpt lat="44.85101" lon="1.27218">
        <ele>99.336441040039</ele>
        <time>2020-06-23T19:22:09.603Z</time>
      </trkpt>
      <trkpt lat="44.85071" lon="1.27233">
        <ele>97.328308105469</ele>
        <time>2020-06-23T19:22:10.066Z</time>
      </trkpt>
      <trkpt lat="44.85032" lon="1.27248">
        <ele>94.8369140625</ele>
        <time>2020-06-23T19:22:10.536Z</time>
      </trkpt>
      <trkpt lat="44.84946" lon="1.27283">
        <ele>83.20280456543</ele>
        <time>2020-06-23T19:22:11.020Z</time>
      </trkpt>
      <trkpt lat="44.84832" lon="1.27329">
        <ele>89.866828918457</ele>
        <time>2020-06-23T19:22:11.523Z</time>
      </trkpt>
      <trkpt lat="44.84796" lon="1.27346">
        <ele>92.437728881836</ele>
        <time>2020-06-23T19:22:12.032Z</time>
      </trkpt>
      <trkpt lat="44.84752" lon="1.27374">
        <ele>94.566345214844</ele>
        <time>2020-06-23T19:22:12.549Z</time>
      </trkpt>
      <trkpt lat="44.84729" lon="1.27391">
        <ele>93.786468505859</ele>
        <time>2020-06-23T19:22:13.070Z</time>
      </trkpt>
      <trkpt lat="44.84678" lon="1.27433">
        <ele>97.485015869141</ele>
        <time>2020-06-23T19:22:13.600Z</time>
      </trkpt>
      <trkpt lat="44.84667" lon="1.27442">
        <ele>98.21826171875</ele>
        <time>2020-06-23T19:22:14.132Z</time>
      </trkpt>
      <trkpt lat="44.84667" lon="1.27442">
        <ele>98.217819213867</ele>
        <time>2020-06-23T19:22:14.664Z</time>
      </trkpt>
      <trkpt lat="44.84663" lon="1.27445">
        <ele>97.973541259766</ele>
        <time>2020-06-23T19:22:15.197Z</time>
      </trkpt>
      <trkpt lat="44.8463" lon="1.27471">
        <ele>96.005867004395</ele>
        <time>2020-06-23T19:22:15.736Z</time>
      </trkpt>
      <trkpt lat="44.84611" lon="1.27483">
        <ele>95.950210571289</ele>
        <time>2020-06-23T19:22:16.278Z</time>
      </trkpt>
      <trkpt lat="44.84576" lon="1.27503">
        <ele>99.129676818848</ele>
        <time>2020-06-23T19:22:16.826Z</time>
      </trkpt>
      <trkpt lat="44.84553" lon="1.27513">
        <ele>100.59390258789</ele>
        <time>2020-06-23T19:22:17.378Z</time>
      </trkpt>
      <trkpt lat="44.84509" lon="1.27528">
        <ele>105.7286605835</ele>
        <time>2020-06-23T19:22:17.938Z</time>
      </trkpt>
      <trkpt lat="44.84465" lon="1.27536">
        <ele>106.93013000488</ele>
        <time>2020-06-23T19:22:18.505Z</time>
      </trkpt>
      <trkpt lat="44.844" lon="1.27537">
        <ele>105.47814941406</ele>
        <time>2020-06-23T19:22:19.082Z</time>
      </trkpt>
      <trkpt lat="44.84357" lon="1.27535">
        <ele>103.81121063232</ele>
        <time>2020-06-23T19:22:19.666Z</time>
      </trkpt>
      <trkpt lat="44.84318" lon="1.27532">
        <ele>102.92389678955</ele>
        <time>2020-06-23T19:22:20.256Z</time>
      </trkpt>
      <trkpt lat="44.84288" lon="1.27531">
        <ele>102.32399749756</ele>
        <time>2020-06-23T19:22:20.851Z</time>
      </trkpt>
      <trkpt lat="44.84267" lon="1.27534">
        <ele>102.79191589355</ele>
        <time>2020-06-23T19:22:21.449Z</time>
      </trkpt>
      <trkpt lat="44.84241" lon="1.27539">
        <ele>101.36362457275</ele>
        <time>2020-06-23T19:22:22.052Z</time>
      </trkpt>
      <trkpt lat="44.84221" lon="1.27545">
        <ele>100.05011749268</ele>
        <time>2020-06-23T19:22:22.658Z</time>
      </trkpt>
      <trkpt lat="44.84221" lon="1.27545">
        <ele>100.04972076416</ele>
        <time>2020-06-23T19:22:23.264Z</time>
      </trkpt>
      <trkpt lat="44.84217" lon="1.27546">
        <ele>99.779891967773</ele>
        <time>2020-06-23T19:22:23.871Z</time>
      </trkpt>
      <trkpt lat="44.84132" lon="1.27578">
        <ele>97.912384033203</ele>
        <time>2020-06-23T19:22:24.492Z</time>
      </trkpt>
      <trkpt lat="44.84091" lon="1.27592">
        <ele>97.706703186035</ele>
        <time>2020-06-23T19:22:25.119Z</time>
      </trkpt>
      <trkpt lat="44.84054" lon="1.27596">
        <ele>96.902839660645</ele>
        <time>2020-06-23T19:22:25.752Z</time>
      </trkpt>
      <trkpt lat="44.84015" lon="1.27599">
        <ele>96.183250427246</ele>
        <time>2020-06-23T19:22:26.392Z</time>
      </trkpt>
      <trkpt lat="44.83993" lon="1.276">
        <ele>95.787315368652</ele>
        <time>2020-06-23T19:22:27.035Z</time>
      </trkpt>
      <trkpt lat="44.83946" lon="1.27591">
        <ele>92.60083770752</ele>
        <time>2020-06-23T19:22:27.686Z</time>
      </trkpt>
      <trkpt lat="44.83941" lon="1.2759">
        <ele>92.828796386719</ele>
        <time>2020-06-23T19:22:28.337Z</time>
      </trkpt>
      <trkpt lat="44.83885" lon="1.27569">
        <ele>94.676490783691</ele>
        <time>2020-06-23T19:22:28.998Z</time>
      </trkpt>
      <trkpt lat="44.83729" lon="1.27505">
        <ele>105.66039276123</ele>
        <time>2020-06-23T19:22:29.685Z</time>
      </trkpt>
      <trkpt lat="44.83729" lon="1.27505">
        <ele>105.68334960938</ele>
        <time>2020-06-23T19:22:30.372Z</time>
      </trkpt>
      <trkpt lat="44.83729" lon="1.27505">
        <ele>105.68427276611</ele>
        <time>2020-06-23T19:22:31.059Z</time>
      </trkpt>
      <trkpt lat="44.83725" lon="1.27504">
        <ele>106.08032989502</ele>
        <time>2020-06-23T19:22:31.746Z</time>
      </trkpt>
      <trkpt lat="44.83603" lon="1.27453">
        <ele>107.24787902832</ele>
        <time>2020-06-23T19:22:32.454Z</time>
      </trkpt>
      <trkpt lat="44.83482" lon="1.27401">
        <ele>101.19706726074</ele>
        <time>2020-06-23T19:22:33.182Z</time>
      </trkpt>
      <trkpt lat="44.83347" lon="1.27345">
        <ele>100.54981994629</ele>
        <time>2020-06-23T19:22:33.933Z</time>
      </trkpt>
      <trkpt lat="44.83316" lon="1.27334">
        <ele>99.410011291504</ele>
        <time>2020-06-23T19:22:34.689Z</time>
      </trkpt>
      <trkpt lat="44.8328" lon="1.27324">
        <ele>98.373275756836</ele>
        <time>2020-06-23T19:22:35.451Z</time>
      </trkpt>
      <trkpt lat="44.83233" lon="1.27322">
        <ele>98.889190673828</ele>
        <time>2020-06-23T19:22:36.220Z</time>
      </trkpt>
      <trkpt lat="44.83188" lon="1.2733">
        <ele>98.584167480469</ele>
        <time>2020-06-23T19:22:36.996Z</time>
      </trkpt>
      <trkpt lat="44.83161" lon="1.2734">
        <ele>98.140243530273</ele>
        <time>2020-06-23T19:22:37.777Z</time>
      </trkpt>
      <trkpt lat="44.83144" lon="1.2735">
        <ele>98</ele>
        <time>2020-06-23T19:22:38.561Z</time>
      </trkpt>
      <trkpt lat="44.8313" lon="1.27358">
        <ele>98</ele>
        <time>2020-06-23T19:22:39.347Z</time>
      </trkpt>
      <trkpt lat="44.83097" lon="1.27384">
        <ele>98.008674621582</ele>
        <time>2020-06-23T19:22:40.139Z</time>
      </trkpt>
      <trkpt lat="44.83066" lon="1.27417">
        <ele>99.172477722168</ele>
        <time>2020-06-23T19:22:40.937Z</time>
      </trkpt>
      <trkpt lat="44.83038" lon="1.27459">
        <ele>99.732406616211</ele>
        <time>2020-06-23T19:22:41.742Z</time>
      </trkpt>
      <trkpt lat="44.83016" lon="1.27501">
        <ele>100.22220611572</ele>
        <time>2020-06-23T19:22:42.553Z</time>
      </trkpt>
      <trkpt lat="44.82963" lon="1.27616">
        <ele>101.73147583008</ele>
        <time>2020-06-23T19:22:43.379Z</time>
      </trkpt>
      <trkpt lat="44.82963" lon="1.27616">
        <ele>101.73187255859</ele>
        <time>2020-06-23T19:22:44.205Z</time>
      </trkpt>
      <trkpt lat="44.82961" lon="1.27621">
        <ele>101.91836547852</ele>
        <time>2020-06-23T19:22:45.032Z</time>
      </trkpt>
      <trkpt lat="44.82879" lon="1.278">
        <ele>100.49217224121</ele>
        <time>2020-06-23T19:22:45.883Z</time>
      </trkpt>
      <trkpt lat="44.82863" lon="1.27836">
        <ele>99.729301452637</ele>
        <time>2020-06-23T19:22:46.739Z</time>
      </trkpt>
      <trkpt lat="44.82844" lon="1.27874">
        <ele>98.607292175293</ele>
        <time>2020-06-23T19:22:47.601Z</time>
      </trkpt>
      <trkpt lat="44.82823" lon="1.27915">
        <ele>95.779975891113</ele>
        <time>2020-06-23T19:22:48.468Z</time>
      </trkpt>
      <trkpt lat="44.82798" lon="1.27963">
        <ele>91.652870178223</ele>
        <time>2020-06-23T19:22:49.342Z</time>
      </trkpt>
      <trkpt lat="44.82786" lon="1.27988">
        <ele>89.626937866211</ele>
        <time>2020-06-23T19:22:50.220Z</time>
      </trkpt>
      <trkpt lat="44.82766" lon="1.28044">
        <ele>86.984939575195</ele>
        <time>2020-06-23T19:22:51.105Z</time>
      </trkpt>
      <trkpt lat="44.82801" lon="1.28092">
        <ele>93.26375579834</ele>
        <time>2020-06-23T19:22:51.997Z</time>
      </trkpt>
      <trkpt lat="44.82805" lon="1.28101">
        <ele>94.031631469727</ele>
        <time>2020-06-23T19:22:52.891Z</time>
      </trkpt>
      <trkpt lat="44.82806" lon="1.2812">
        <ele>93.419731140137</ele>
        <time>2020-06-23T19:22:53.787Z</time>
      </trkpt>
      <trkpt lat="44.82806" lon="1.28225">
        <ele>88.792922973633</ele>
        <time>2020-06-23T19:22:54.695Z</time>
      </trkpt>
      <trkpt lat="44.82812" lon="1.28291">
        <ele>87.370788574219</ele>
        <time>2020-06-23T19:22:55.610Z</time>
      </trkpt>
      <trkpt lat="44.8282" lon="1.28342">
        <ele>85.384918212891</ele>
        <time>2020-06-23T19:22:56.531Z</time>
      </trkpt>
      <trkpt lat="44.82825" lon="1.2837">
        <ele>85.775505065918</ele>
        <time>2020-06-23T19:22:57.456Z</time>
      </trkpt>
      <trkpt lat="44.82843" lon="1.28443">
        <ele>85.356033325195</ele>
        <time>2020-06-23T19:22:58.389Z</time>
      </trkpt>
      <trkpt lat="44.82855" lon="1.28478">
        <ele>85.736602783203</ele>
        <time>2020-06-23T19:22:59.327Z</time>
      </trkpt>
      <trkpt lat="44.82855" lon="1.28478">
        <ele>85.736877441406</ele>
        <time>2020-06-23T19:23:00.265Z</time>
      </trkpt>
      <trkpt lat="44.82857" lon="1.28485">
        <ele>85.845504760742</ele>
        <time>2020-06-23T19:23:01.204Z</time>
      </trkpt>
      <trkpt lat="44.82877" lon="1.28535">
        <ele>86.511268615723</ele>
        <time>2020-06-23T19:23:02.149Z</time>
      </trkpt>
      <trkpt lat="44.82897" lon="1.28578">
        <ele>87.072723388672</ele>
        <time>2020-06-23T19:23:03.100Z</time>
      </trkpt>
      <trkpt lat="44.8294" lon="1.28651">
        <ele>88.642753601074</ele>
        <time>2020-06-23T19:23:04.062Z</time>
      </trkpt>
      <trkpt lat="44.82965" lon="1.28688">
        <ele>89.843048095703</ele>
        <time>2020-06-23T19:23:05.030Z</time>
      </trkpt>
      <trkpt lat="44.83013" lon="1.28763">
        <ele>90.670906066895</ele>
        <time>2020-06-23T19:23:06.009Z</time>
      </trkpt>
      <trkpt lat="44.83133" lon="1.28949">
        <ele>93.887115478516</ele>
        <time>2020-06-23T19:23:07.017Z</time>
      </trkpt>
      <trkpt lat="44.83189" lon="1.29034">
        <ele>95.502433776855</ele>
        <time>2020-06-23T19:23:08.038Z</time>
      </trkpt>
      <trkpt lat="44.83189" lon="1.29034">
        <ele>95.502647399902</ele>
        <time>2020-06-23T19:23:09.059Z</time>
      </trkpt>
      <trkpt lat="44.83193" lon="1.2904">
        <ele>95.652763366699</ele>
        <time>2020-06-23T19:23:10.081Z</time>
      </trkpt>
      <trkpt lat="44.83298" lon="1.29203">
        <ele>99.245803833008</ele>
        <time>2020-06-23T19:23:11.128Z</time>
      </trkpt>
      <trkpt lat="44.8336" lon="1.29302">
        <ele>102.571434021</ele>
        <time>2020-06-23T19:23:12.190Z</time>
      </trkpt>
      <trkpt lat="44.83625" lon="1.29711">
        <ele>105.56930541992</ele>
        <time>2020-06-23T19:23:13.315Z</time>
      </trkpt>
      <trkpt lat="44.83625" lon="1.29711">
        <ele>105.56960296631</ele>
        <time>2020-06-23T19:23:14.440Z</time>
      </trkpt>
      <trkpt lat="44.8363" lon="1.29718">
        <ele>105.80545806885</ele>
        <time>2020-06-23T19:23:15.566Z</time>
      </trkpt>
      <trkpt lat="44.83639" lon="1.29732">
        <ele>106.17607116699</ele>
        <time>2020-06-23T19:23:16.694Z</time>
      </trkpt>
      <trkpt lat="44.8367" lon="1.29775">
        <ele>106.03209686279</ele>
        <time>2020-06-23T19:23:17.829Z</time>
      </trkpt>
      <trkpt lat="44.83687" lon="1.29796">
        <ele>106.0158996582</ele>
        <time>2020-06-23T19:23:18.968Z</time>
      </trkpt>
      <trkpt lat="44.83721" lon="1.29831">
        <ele>104.43064117432</ele>
        <time>2020-06-23T19:23:20.114Z</time>
      </trkpt>
      <trkpt lat="44.83826" lon="1.29942">
        <ele>94.048561096191</ele>
        <time>2020-06-23T19:23:21.281Z</time>
      </trkpt>
      <trkpt lat="44.83914" lon="1.30027">
        <ele>91.860992431641</ele>
        <time>2020-06-23T19:23:22.465Z</time>
      </trkpt>
      <trkpt lat="44.83961" lon="1.30071">
        <ele>93.318046569824</ele>
        <time>2020-06-23T19:23:23.658Z</time>
      </trkpt>
      <trkpt lat="44.83999" lon="1.30111">
        <ele>90.72647857666</ele>
        <time>2020-06-23T19:23:24.858Z</time>
      </trkpt>
      <trkpt lat="44.84056" lon="1.3017">
        <ele>87.146873474121</ele>
        <time>2020-06-23T19:23:26.070Z</time>
      </trkpt>
      <trkpt lat="44.84074" lon="1.30187">
        <ele>86.195693969727</ele>
        <time>2020-06-23T19:23:27.285Z</time>
      </trkpt>
      <trkpt lat="44.84074" lon="1.30187">
        <ele>86.195281982422</ele>
        <time>2020-06-23T19:23:28.500Z</time>
      </trkpt>
      <trkpt lat="44.8408" lon="1.30193">
        <ele>85.839088439941</ele>
        <time>2020-06-23T19:23:29.716Z</time>
      </trkpt>
      <trkpt lat="44.84138" lon="1.30262">
        <ele>83.779067993164</ele>
        <time>2020-06-23T19:23:30.944Z</time>
      </trkpt>
      <trkpt lat="44.84157" lon="1.30284">
        <ele>84.318977355957</ele>
        <time>2020-06-23T19:23:32.176Z</time>
      </trkpt>
      <trkpt lat="44.84197" lon="1.30334">
        <ele>85.773284912109</ele>
        <time>2020-06-23T19:23:33.417Z</time>
      </trkpt>
      <trkpt lat="44.84224" lon="1.30367">
        <ele>86.810363769531</ele>
        <time>2020-06-23T19:23:34.664Z</time>
      </trkpt>
      <trkpt lat="44.84257" lon="1.30415">
        <ele>87.200080871582</ele>
        <time>2020-06-23T19:23:35.918Z</time>
      </trkpt>
      <trkpt lat="44.84272" lon="1.30443">
        <ele>86.756156921387</ele>
        <time>2020-06-23T19:23:37.176Z</time>
      </trkpt>
      <trkpt lat="44.84289" lon="1.30487">
        <ele>85.502433776855</ele>
        <time>2020-06-23T19:23:38.440Z</time>
      </trkpt>
      <trkpt lat="44.8432" lon="1.30579">
        <ele>84.624130249023</ele>
        <time>2020-06-23T19:23:39.716Z</time>
      </trkpt>
      <trkpt lat="44.84367" lon="1.30716">
        <ele>80.497604370117</ele>
        <time>2020-06-23T19:23:41.009Z</time>
      </trkpt>
      <trkpt lat="44.84373" lon="1.30729">
        <ele>80.215126037598</ele>
        <time>2020-06-23T19:23:42.304Z</time>
      </trkpt>
      <trkpt lat="44.8438" lon="1.30778">
        <ele>80.546165466309</ele>
        <time>2020-06-23T19:23:43.604Z</time>
      </trkpt>
      <trkpt lat="44.84381" lon="1.3078">
        <ele>80.618156433105</ele>
        <time>2020-06-23T19:23:44.905Z</time>
      </trkpt>
      <trkpt lat="44.84424" lon="1.30854">
        <ele>83.713638305664</ele>
        <time>2020-06-23T19:23:46.216Z</time>
      </trkpt>
      <trkpt lat="44.84428" lon="1.3086">
        <ele>83.994117736816</ele>
        <time>2020-06-23T19:23:47.528Z</time>
      </trkpt>
      <trkpt lat="44.84428" lon="1.3086">
        <ele>83.994583129883</ele>
        <time>2020-06-23T19:23:48.840Z</time>
      </trkpt>
      <trkpt lat="44.84434" lon="1.30868">
        <ele>84.433517456055</ele>
        <time>2020-06-23T19:23:50.154Z</time>
      </trkpt>
      <trkpt lat="44.84451" lon="1.30888">
        <ele>85.65731048584</ele>
        <time>2020-06-23T19:23:51.471Z</time>
      </trkpt>
      <trkpt lat="44.84509" lon="1.30948">
        <ele>81.825775146484</ele>
        <time>2020-06-23T19:23:52.800Z</time>
      </trkpt>
      <trkpt lat="44.84539" lon="1.30974">
        <ele>79.882095336914</ele>
        <time>2020-06-23T19:23:54.134Z</time>
      </trkpt>
      <trkpt lat="44.84587" lon="1.31012">
        <ele>77.854362487793</ele>
        <time>2020-06-23T19:23:55.477Z</time>
      </trkpt>
      <trkpt lat="44.84637" lon="1.31053">
        <ele>76.902153015137</ele>
        <time>2020-06-23T19:23:56.829Z</time>
      </trkpt>
      <trkpt lat="44.84647" lon="1.31067">
        <ele>76.84171295166</ele>
        <time>2020-06-23T19:23:58.184Z</time>
      </trkpt>
      <trkpt lat="44.8465" lon="1.31077">
        <ele>76.829711914062</ele>
        <time>2020-06-23T19:23:59.540Z</time>
      </trkpt>
      <trkpt lat="44.8466" lon="1.31114">
        <ele>77.056144714355</ele>
        <time>2020-06-23T19:24:00.900Z</time>
      </trkpt>
      <trkpt lat="44.84664" lon="1.31139">
        <ele>77.404083251953</ele>
        <time>2020-06-23T19:24:02.263Z</time>
      </trkpt>
      <trkpt lat="44.84675" lon="1.31199">
        <ele>77.630439758301</ele>
        <time>2020-06-23T19:24:03.633Z</time>
      </trkpt>
      <trkpt lat="44.84706" lon="1.31253">
        <ele>78.004753112793</ele>
        <time>2020-06-23T19:24:05.011Z</time>
      </trkpt>
      <trkpt lat="44.84752" lon="1.31321">
        <ele>78.930046081543</ele>
        <time>2020-06-23T19:24:06.400Z</time>
      </trkpt>
      <trkpt lat="44.84802" lon="1.31394">
        <ele>78.069770812988</ele>
        <time>2020-06-23T19:24:07.801Z</time>
      </trkpt>
      <trkpt lat="44.8483" lon="1.31441">
        <ele>77.548767089844</ele>
        <time>2020-06-23T19:24:09.209Z</time>
      </trkpt>
      <trkpt lat="44.84836" lon="1.31453">
        <ele>77.548767089844</ele>
        <time>2020-06-23T19:24:10.618Z</time>
      </trkpt>
      <trkpt lat="44.84836" lon="1.31453">
        <ele>77.548767089844</ele>
        <time>2020-06-23T19:24:12.027Z</time>
      </trkpt>
      <trkpt lat="44.84841" lon="1.31463">
        <ele>77.548767089844</ele>
        <time>2020-06-23T19:24:13.438Z</time>
      </trkpt>
      <trkpt lat="44.84868" lon="1.3154">
        <ele>77.107894897461</ele>
        <time>2020-06-23T19:24:14.858Z</time>
      </trkpt>
      <trkpt lat="44.84884" lon="1.3159">
        <ele>77.771461486816</ele>
        <time>2020-06-23T19:24:16.285Z</time>
      </trkpt>
      <trkpt lat="44.849" lon="1.31656">
        <ele>79.329986572266</ele>
        <time>2020-06-23T19:24:17.720Z</time>
      </trkpt>
      <trkpt lat="44.84956" lon="1.31978">
        <ele>78.005630493164</ele>
        <time>2020-06-23T19:24:19.192Z</time>
      </trkpt>
      <trkpt lat="44.8497" lon="1.32075">
        <ele>78.475448608398</ele>
        <time>2020-06-23T19:24:20.676Z</time>
      </trkpt>
      <trkpt lat="44.85017" lon="1.32064">
        <ele>79.471282958984</ele>
        <time>2020-06-23T19:24:22.167Z</time>
      </trkpt>
      <trkpt lat="44.8505" lon="1.32152">
        <ele>80.870315551758</ele>
        <time>2020-06-23T19:24:23.670Z</time>
      </trkpt>
      <trkpt lat="44.8508" lon="1.32221">
        <ele>79.316871643066</ele>
        <time>2020-06-23T19:24:25.182Z</time>
      </trkpt>
      <trkpt lat="44.85137" lon="1.32336">
        <ele>81.986083984375</ele>
        <time>2020-06-23T19:24:26.710Z</time>
      </trkpt>
      <trkpt lat="44.8516" lon="1.32379">
        <ele>81.785911560059</ele>
        <time>2020-06-23T19:24:28.244Z</time>
      </trkpt>
      <trkpt lat="44.8516" lon="1.32379">
        <ele>81.785865783691</ele>
        <time>2020-06-23T19:24:29.778Z</time>
      </trkpt>
      <trkpt lat="44.85166" lon="1.3239">
        <ele>81.73412322998</ele>
        <time>2020-06-23T19:24:31.313Z</time>
      </trkpt>
      <trkpt lat="44.85195" lon="1.32441">
        <ele>82.608192443848</ele>
        <time>2020-06-23T19:24:32.856Z</time>
      </trkpt>
      <trkpt lat="44.85213" lon="1.32471">
        <ele>83.597534179688</ele>
        <time>2020-06-23T19:24:34.403Z</time>
      </trkpt>
      <trkpt lat="44.8522" lon="1.32476">
        <ele>84.185432434082</ele>
        <time>2020-06-23T19:24:35.952Z</time>
      </trkpt>
      <trkpt lat="44.85225" lon="1.32466">
        <ele>84.605361938477</ele>
        <time>2020-06-23T19:24:37.502Z</time>
      </trkpt>
      <trkpt lat="44.85242" lon="1.32436">
        <ele>86.033126831055</ele>
        <time>2020-06-23T19:24:39.056Z</time>
      </trkpt>
      <trkpt lat="44.85244" lon="1.32483">
        <ele>86.232032775879</ele>
        <time>2020-06-23T19:24:40.616Z</time>
      </trkpt>
      <trkpt lat="44.85249" lon="1.32562">
        <ele>87.138320922852</ele>
        <time>2020-06-23T19:24:42.185Z</time>
      </trkpt>
      <trkpt lat="44.8527" lon="1.32917">
        <ele>89.622802734375</ele>
        <time>2020-06-23T19:24:43.794Z</time>
      </trkpt>
      <trkpt lat="44.85274" lon="1.32993">
        <ele>90.581741333008</ele>
        <time>2020-06-23T19:24:45.412Z</time>
      </trkpt>
      <trkpt lat="44.85274" lon="1.32993">
        <ele>90.581649780273</ele>
        <time>2020-06-23T19:24:47.030Z</time>
      </trkpt>
      <trkpt lat="44.85275" lon="1.33009">
        <ele>90.462783813477</ele>
        <time>2020-06-23T19:24:48.650Z</time>
      </trkpt>
      <trkpt lat="44.85288" lon="1.33221">
        <ele>90.826309204102</ele>
        <time>2020-06-23T19:24:50.294Z</time>
      </trkpt>
      <trkpt lat="44.853" lon="1.33412">
        <ele>86.387565612793</ele>
        <time>2020-06-23T19:24:51.960Z</time>
      </trkpt>
      <trkpt lat="44.85308" lon="1.33484">
        <ele>86.552711486816</ele>
        <time>2020-06-23T19:24:53.634Z</time>
      </trkpt>
      <trkpt lat="44.85294" lon="1.33499">
        <ele>86.163703918457</ele>
        <time>2020-06-23T19:24:55.311Z</time>
      </trkpt>
      <trkpt lat="44.85295" lon="1.33511">
        <ele>86.295684814453</ele>
        <time>2020-06-23T19:24:56.989Z</time>
      </trkpt>
      <trkpt lat="44.85319" lon="1.33554">
        <ele>86.523643493652</ele>
        <time>2020-06-23T19:24:58.674Z</time>
      </trkpt>
      <trkpt lat="44.85367" lon="1.33661">
        <ele>84.305419921875</ele>
        <time>2020-06-23T19:25:00.373Z</time>
      </trkpt>
      <trkpt lat="44.85378" lon="1.33686">
        <ele>84.191696166992</ele>
        <time>2020-06-23T19:25:02.075Z</time>
      </trkpt>
      <trkpt lat="44.85441" lon="1.33805">
        <ele>85.283622741699</ele>
        <time>2020-06-23T19:25:03.794Z</time>
      </trkpt>
      <trkpt lat="44.85467" lon="1.33852">
        <ele>83.908744812012</ele>
        <time>2020-06-23T19:25:05.520Z</time>
      </trkpt>
      <trkpt lat="44.85467" lon="1.33852">
        <ele>83.908348083496</ele>
        <time>2020-06-23T19:25:07.246Z</time>
      </trkpt>
      <trkpt lat="44.85475" lon="1.33867">
        <ele>83.327171325684</ele>
        <time>2020-06-23T19:25:08.974Z</time>
      </trkpt>
      <trkpt lat="44.85538" lon="1.33988">
        <ele>81.954139709473</ele>
        <time>2020-06-23T19:25:10.719Z</time>
      </trkpt>
      <trkpt lat="44.85583" lon="1.34067">
        <ele>85.004653930664</ele>
        <time>2020-06-23T19:25:12.476Z</time>
      </trkpt>
      <trkpt lat="44.85617" lon="1.3413">
        <ele>84.428749084473</ele>
        <time>2020-06-23T19:25:14.242Z</time>
      </trkpt>
      <trkpt lat="44.85652" lon="1.34195">
        <ele>85.324363708496</ele>
        <time>2020-06-23T19:25:16.017Z</time>
      </trkpt>
      <trkpt lat="44.85674" lon="1.34249">
        <ele>85.656867980957</ele>
        <time>2020-06-23T19:25:17.799Z</time>
      </trkpt>
      <trkpt lat="44.85698" lon="1.34317">
        <ele>85.380882263184</ele>
        <time>2020-06-23T19:25:19.590Z</time>
      </trkpt>
      <trkpt lat="44.85718" lon="1.34387">
        <ele>83.798652648926</ele>
        <time>2020-06-23T19:25:21.389Z</time>
      </trkpt>
      <trkpt lat="44.85738" lon="1.34458">
        <ele>83.236206054688</ele>
        <time>2020-06-23T19:25:23.197Z</time>
      </trkpt>
      <trkpt lat="44.85754" lon="1.34503">
        <ele>82.966369628906</ele>
        <time>2020-06-23T19:25:25.011Z</time>
      </trkpt>
      <trkpt lat="44.85773" lon="1.34546">
        <ele>82.49845123291</ele>
        <time>2020-06-23T19:25:26.830Z</time>
      </trkpt>
      <trkpt lat="44.85784" lon="1.34567">
        <ele>82.61156463623</ele>
        <time>2020-06-23T19:25:28.652Z</time>
      </trkpt>
      <trkpt lat="44.85807" lon="1.34606">
        <ele>84.32852935791</ele>
        <time>2020-06-23T19:25:30.480Z</time>
      </trkpt>
      <trkpt lat="44.85828" lon="1.34632">
        <ele>86.476173400879</ele>
        <time>2020-06-23T19:25:32.313Z</time>
      </trkpt>
      <trkpt lat="44.85907" lon="1.34714">
        <ele>99.49195098877</ele>
        <time>2020-06-23T19:25:34.161Z</time>
      </trkpt>
      <trkpt lat="44.85968" lon="1.34783">
        <ele>108.16621398926</ele>
        <time>2020-06-23T19:25:36.022Z</time>
      </trkpt>
      <trkpt lat="44.85988" lon="1.34805">
        <ele>110.32008361816</ele>
        <time>2020-06-23T19:25:37.887Z</time>
      </trkpt>
      <trkpt lat="44.85989" lon="1.34805">
        <ele>110.32084655762</ele>
        <time>2020-06-23T19:25:39.752Z</time>
      </trkpt>
      <trkpt lat="44.86" lon="1.34818">
        <ele>110.98243713379</ele>
        <time>2020-06-23T19:25:41.619Z</time>
      </trkpt>
      <trkpt lat="44.86036" lon="1.34857">
        <ele>109.21873474121</ele>
        <time>2020-06-23T19:25:43.494Z</time>
      </trkpt>
      <trkpt lat="44.86095" lon="1.34909">
        <ele>106.42654418945</ele>
        <time>2020-06-23T19:25:45.380Z</time>
      </trkpt>
      <trkpt lat="44.8614" lon="1.34951">
        <ele>101.38304138184</ele>
        <time>2020-06-23T19:25:47.274Z</time>
      </trkpt>
      <trkpt lat="44.86214" lon="1.35021">
        <ele>93.24382019043</ele>
        <time>2020-06-23T19:25:49.183Z</time>
      </trkpt>
      <trkpt lat="44.86252" lon="1.35074">
        <ele>88.57080078125</ele>
        <time>2020-06-23T19:25:51.100Z</time>
      </trkpt>
      <trkpt lat="44.86275" lon="1.35113">
        <ele>87.586959838867</ele>
        <time>2020-06-23T19:25:53.023Z</time>
      </trkpt>
      <trkpt lat="44.86293" lon="1.35149">
        <ele>86.83358001709</ele>
        <time>2020-06-23T19:25:54.951Z</time>
      </trkpt>
      <trkpt lat="44.86335" lon="1.35235">
        <ele>90.017021179199</ele>
        <time>2020-06-23T19:25:56.891Z</time>
      </trkpt>
      <trkpt lat="44.86378" lon="1.35321">
        <ele>84.422996520996</ele>
        <time>2020-06-23T19:25:58.843Z</time>
      </trkpt>
      <trkpt lat="44.86411" lon="1.35381">
        <ele>86.870590209961</ele>
        <time>2020-06-23T19:26:00.803Z</time>
      </trkpt>
      <trkpt lat="44.86419" lon="1.35393">
        <ele>87.480224609375</ele>
        <time>2020-06-23T19:26:02.765Z</time>
      </trkpt>
      <trkpt lat="44.86419" lon="1.35393">
        <ele>87.480712890625</ele>
        <time>2020-06-23T19:26:04.727Z</time>
      </trkpt>
      <trkpt lat="44.86426" lon="1.35404">
        <ele>87.726013183594</ele>
        <time>2020-06-23T19:26:06.691Z</time>
      </trkpt>
      <trkpt lat="44.86429" lon="1.35409">
        <ele>87.714012145996</ele>
        <time>2020-06-23T19:26:08.656Z</time>
      </trkpt>
      <trkpt lat="44.86446" lon="1.35434">
        <ele>87.845993041992</ele>
        <time>2020-06-23T19:26:10.625Z</time>
      </trkpt>
      <trkpt lat="44.86475" lon="1.35471">
        <ele>88.636734008789</ele>
        <time>2020-06-23T19:26:12.600Z</time>
      </trkpt>
      <trkpt lat="44.86517" lon="1.35518">
        <ele>86.793510437012</ele>
        <time>2020-06-23T19:26:14.584Z</time>
      </trkpt>
      <trkpt lat="44.86547" lon="1.35547">
        <ele>85.60041809082</ele>
        <time>2020-06-23T19:26:16.573Z</time>
      </trkpt>
      <trkpt lat="44.86571" lon="1.35566">
        <ele>85.599517822266</ele>
        <time>2020-06-23T19:26:18.567Z</time>
      </trkpt>
      <trkpt lat="44.8661" lon="1.35603">
        <ele>86.283401489258</ele>
        <time>2020-06-23T19:26:20.568Z</time>
      </trkpt>
      <trkpt lat="44.86639" lon="1.3563">
        <ele>85.485733032227</ele>
        <time>2020-06-23T19:26:22.575Z</time>
      </trkpt>
      <trkpt lat="44.86666" lon="1.3566">
        <ele>84.258201599121</ele>
        <time>2020-06-23T19:26:24.587Z</time>
      </trkpt>
      <trkpt lat="44.86667" lon="1.35667">
        <ele>84.126220703125</ele>
        <time>2020-06-23T19:26:26.600Z</time>
      </trkpt>
      <trkpt lat="44.86665" lon="1.35677">
        <ele>83.814277648926</ele>
        <time>2020-06-23T19:26:28.614Z</time>
      </trkpt>
      <trkpt lat="44.86664" lon="1.35685">
        <ele>83.586311340332</ele>
        <time>2020-06-23T19:26:30.629Z</time>
      </trkpt>
      <trkpt lat="44.86673" lon="1.35682">
        <ele>83.982246398926</ele>
        <time>2020-06-23T19:26:32.646Z</time>
      </trkpt>
      <trkpt lat="44.86683" lon="1.35703">
        <ele>83.838272094727</ele>
        <time>2020-06-23T19:26:34.666Z</time>
      </trkpt>
      <trkpt lat="44.86697" lon="1.35735">
        <ele>83.50040435791</ele>
        <time>2020-06-23T19:26:36.690Z</time>
      </trkpt>
      <trkpt lat="44.86704" lon="1.35754">
        <ele>84.148300170898</ele>
        <time>2020-06-23T19:26:38.716Z</time>
      </trkpt>
      <trkpt lat="44.86709" lon="1.35755">
        <ele>84.700836181641</ele>
        <time>2020-06-23T19:26:40.743Z</time>
      </trkpt>
      <trkpt lat="44.86715" lon="1.35758">
        <ele>85.600685119629</ele>
        <time>2020-06-23T19:26:42.771Z</time>
      </trkpt>
      <trkpt lat="44.86727" lon="1.35777">
        <ele>87.556365966797</ele>
        <time>2020-06-23T19:26:44.802Z</time>
      </trkpt>
      <trkpt lat="44.86771" lon="1.35916">
        <ele>86.232696533203</ele>
        <time>2020-06-23T19:26:46.850Z</time>
      </trkpt>
      <trkpt lat="44.86806" lon="1.36019">
        <ele>84.733192443848</ele>
        <time>2020-06-23T19:26:48.911Z</time>
      </trkpt>
      <trkpt lat="44.86822" lon="1.36056">
        <ele>85.441078186035</ele>
        <time>2020-06-23T19:26:50.977Z</time>
      </trkpt>
      <trkpt lat="44.8684" lon="1.3609">
        <ele>85.098030090332</ele>
        <time>2020-06-23T19:26:53.048Z</time>
      </trkpt>
      <trkpt lat="44.86875" lon="1.36144">
        <ele>84.463836669922</ele>
        <time>2020-06-23T19:26:55.127Z</time>
      </trkpt>
      <trkpt lat="44.86875" lon="1.36144">
        <ele>84.464141845703</ele>
        <time>2020-06-23T19:26:57.206Z</time>
      </trkpt>
      <trkpt lat="44.86879" lon="1.36151">
        <ele>84.611152648926</ele>
        <time>2020-06-23T19:26:59.287Z</time>
      </trkpt>
      <trkpt lat="44.86884" lon="1.36159">
        <ele>84.666969299316</ele>
        <time>2020-06-23T19:27:01.369Z</time>
      </trkpt>
      <trkpt lat="44.86948" lon="1.3625">
        <ele>87.176223754883</ele>
        <time>2020-06-23T19:27:03.465Z</time>
      </trkpt>
      <trkpt lat="44.86965" lon="1.36273">
        <ele>87.012504577637</ele>
        <time>2020-06-23T19:27:05.565Z</time>
      </trkpt>
      <trkpt lat="44.87005" lon="1.36323">
        <ele>86.619117736816</ele>
        <time>2020-06-23T19:27:07.674Z</time>
      </trkpt>
      <trkpt lat="44.87172" lon="1.36561">
        <ele>86</ele>
        <time>2020-06-23T19:27:09.821Z</time>
      </trkpt>
      <trkpt lat="44.87271" lon="1.36702">
        <ele>84.68123626709</ele>
        <time>2020-06-23T19:27:11.990Z</time>
      </trkpt>
      <trkpt lat="44.87309" lon="1.36757">
        <ele>84.620788574219</ele>
        <time>2020-06-23T19:27:14.168Z</time>
      </trkpt>
      <trkpt lat="44.87309" lon="1.36757">
        <ele>84.620635986328</ele>
        <time>2020-06-23T19:27:16.346Z</time>
      </trkpt>
      <trkpt lat="44.87319" lon="1.36771">
        <ele>84.396423339844</ele>
        <time>2020-06-23T19:27:18.526Z</time>
      </trkpt>
      <trkpt lat="44.87448" lon="1.36955">
        <ele>84.801788330078</ele>
        <time>2020-06-23T19:27:20.736Z</time>
      </trkpt>
      <trkpt lat="44.87524" lon="1.37062">
        <ele>84.842964172363</ele>
        <time>2020-06-23T19:27:22.963Z</time>
      </trkpt>
      <trkpt lat="44.87777" lon="1.37425">
        <ele>83</ele>
        <time>2020-06-23T19:27:25.248Z</time>
      </trkpt>
      <trkpt lat="44.87777" lon="1.37425">
        <ele>83</ele>
        <time>2020-06-23T19:27:27.533Z</time>
      </trkpt>
      <trkpt lat="44.87787" lon="1.3744">
        <ele>83</ele>
        <time>2020-06-23T19:27:29.820Z</time>
      </trkpt>
      <trkpt lat="44.88009" lon="1.37756">
        <ele>91.236824035645</ele>
        <time>2020-06-23T19:27:32.158Z</time>
      </trkpt>
      <trkpt lat="44.88046" lon="1.37809">
        <ele>91.573638916016</ele>
        <time>2020-06-23T19:27:34.504Z</time>
      </trkpt>
      <trkpt lat="44.88085" lon="1.37859">
        <ele>92.11009979248</ele>
        <time>2020-06-23T19:27:36.858Z</time>
      </trkpt>
      <trkpt lat="44.88113" lon="1.37894">
        <ele>92.396354675293</ele>
        <time>2020-06-23T19:27:39.218Z</time>
      </trkpt>
      <trkpt lat="44.88157" lon="1.37939">
        <ele>89.063789367676</ele>
        <time>2020-06-23T19:27:41.587Z</time>
      </trkpt>
      <trkpt lat="44.882" lon="1.37981">
        <ele>85.071350097656</ele>
        <time>2020-06-23T19:27:43.965Z</time>
      </trkpt>
      <trkpt lat="44.882" lon="1.37981">
        <ele>85.070610046387</ele>
        <time>2020-06-23T19:27:46.343Z</time>
      </trkpt>
      <trkpt lat="44.88213" lon="1.37993">
        <ele>85.079360961914</ele>
        <time>2020-06-23T19:27:48.723Z</time>
      </trkpt>
      <trkpt lat="44.8829" lon="1.38057">
        <ele>85.911003112793</ele>
        <time>2020-06-23T19:27:51.117Z</time>
      </trkpt>
      <trkpt lat="44.88455" lon="1.38202">
        <ele>84.403861999512</ele>
        <time>2020-06-23T19:27:53.542Z</time>
      </trkpt>
      <trkpt lat="44.88562" lon="1.38296">
        <ele>83.533332824707</ele>
        <time>2020-06-23T19:27:55.988Z</time>
      </trkpt>
      <trkpt lat="44.88612" lon="1.38346">
        <ele>84.357917785645</ele>
        <time>2020-06-23T19:27:58.443Z</time>
      </trkpt>
      <trkpt lat="44.88634" lon="1.38374">
        <ele>84.680152893066</ele>
        <time>2020-06-23T19:28:00.903Z</time>
      </trkpt>
      <trkpt lat="44.88634" lon="1.38374">
        <ele>84.680297851562</ele>
        <time>2020-06-23T19:28:03.363Z</time>
      </trkpt>
      <trkpt lat="44.88646" lon="1.38389">
        <ele>84.93236541748</ele>
        <time>2020-06-23T19:28:05.826Z</time>
      </trkpt>
      <trkpt lat="44.88671" lon="1.38428">
        <ele>85.005241394043</ele>
        <time>2020-06-23T19:28:08.295Z</time>
      </trkpt>
      <trkpt lat="44.88705" lon="1.38494">
        <ele>84.83145904541</ele>
        <time>2020-06-23T19:28:10.773Z</time>
      </trkpt>
      <trkpt lat="44.88726" lon="1.38543">
        <ele>85.667205810547</ele>
        <time>2020-06-23T19:28:13.258Z</time>
      </trkpt>
      <trkpt lat="44.88742" lon="1.38588">
        <ele>86.000373840332</ele>
        <time>2020-06-23T19:28:15.748Z</time>
      </trkpt>
      <trkpt lat="44.88754" lon="1.3863">
        <ele>86.281127929688</ele>
        <time>2020-06-23T19:28:18.243Z</time>
      </trkpt>
      <trkpt lat="44.88767" lon="1.387">
        <ele>85.660011291504</ele>
        <time>2020-06-23T19:28:20.747Z</time>
      </trkpt>
      <trkpt lat="44.88777" lon="1.38794">
        <ele>86.44278717041</ele>
        <time>2020-06-23T19:28:23.261Z</time>
      </trkpt>
      <trkpt lat="44.88804" lon="1.39101">
        <ele>86.587387084961</ele>
        <time>2020-06-23T19:28:25.811Z</time>
      </trkpt>
      <trkpt lat="44.88823" lon="1.39314">
        <ele>84.603294372559</ele>
        <time>2020-06-23T19:28:28.385Z</time>
      </trkpt>
      <trkpt lat="44.88827" lon="1.39376">
        <ele>84.632888793945</ele>
        <time>2020-06-23T19:28:30.966Z</time>
      </trkpt>
      <trkpt lat="44.88827" lon="1.39376">
        <ele>84.633071899414</ele>
        <time>2020-06-23T19:28:33.547Z</time>
      </trkpt>
      <trkpt lat="44.88829" lon="1.394">
        <ele>84.94026184082</ele>
        <time>2020-06-23T19:28:36.131Z</time>
      </trkpt>
      <trkpt lat="44.88833" lon="1.39465">
        <ele>84.753395080566</ele>
        <time>2020-06-23T19:28:38.722Z</time>
      </trkpt>
      <trkpt lat="44.88834" lon="1.39518">
        <ele>84.590362548828</ele>
        <time>2020-06-23T19:28:41.319Z</time>
      </trkpt>
      <trkpt lat="44.88836" lon="1.39526">
        <ele>84.662353515625</ele>
        <time>2020-06-23T19:28:43.917Z</time>
      </trkpt>
      <trkpt lat="44.88837" lon="1.3955">
        <ele>84.953033447266</ele>
        <time>2020-06-23T19:28:46.518Z</time>
      </trkpt>
      <trkpt lat="44.88839" lon="1.39629">
        <ele>83.821464538574</ele>
        <time>2020-06-23T19:28:49.128Z</time>
      </trkpt>
      <trkpt lat="44.88841" lon="1.39698">
        <ele>84.80712890625</ele>
        <time>2020-06-23T19:28:51.746Z</time>
      </trkpt>
      <trkpt lat="44.88838" lon="1.39716">
        <ele>84.499977111816</ele>
        <time>2020-06-23T19:28:54.366Z</time>
      </trkpt>
      <trkpt lat="44.88839" lon="1.39744">
        <ele>84.360443115234</ele>
        <time>2020-06-23T19:28:56.989Z</time>
      </trkpt>
      <trkpt lat="44.88846" lon="1.39805">
        <ele>84.902587890625</ele>
        <time>2020-06-23T19:28:59.619Z</time>
      </trkpt>
      <trkpt lat="44.88848" lon="1.39868">
        <ele>83.821937561035</ele>
        <time>2020-06-23T19:29:02.256Z</time>
      </trkpt>
      <trkpt lat="44.88849" lon="1.39894">
        <ele>83.710090637207</ele>
        <time>2020-06-23T19:29:04.896Z</time>
      </trkpt>
      <trkpt lat="44.88852" lon="1.39911">
        <ele>83.59400177002</ele>
        <time>2020-06-23T19:29:07.538Z</time>
      </trkpt>
      <trkpt lat="44.8886" lon="1.39981">
        <ele>83</ele>
        <time>2020-06-23T19:29:10.188Z</time>
      </trkpt>
      <trkpt lat="44.88865" lon="1.40049">
        <ele>83.807807922363</ele>
        <time>2020-06-23T19:29:12.846Z</time>
      </trkpt>
      <trkpt lat="44.88865" lon="1.40084">
        <ele>84.585273742676</ele>
        <time>2020-06-23T19:29:15.508Z</time>
      </trkpt>
      <trkpt lat="44.88865" lon="1.40087">
        <ele>84.693252563477</ele>
        <time>2020-06-23T19:29:18.170Z</time>
      </trkpt>
      <trkpt lat="44.8887" lon="1.40089">
        <ele>84.825233459473</ele>
        <time>2020-06-23T19:29:20.833Z</time>
      </trkpt>
      <trkpt lat="44.88873" lon="1.40092">
        <ele>84.969207763672</ele>
        <time>2020-06-23T19:29:23.497Z</time>
      </trkpt>
      <trkpt lat="44.88875" lon="1.40101">
        <ele>85.471420288086</ele>
        <time>2020-06-23T19:29:26.162Z</time>
      </trkpt>
      <trkpt lat="44.88874" lon="1.4013">
        <ele>86.41926574707</ele>
        <time>2020-06-23T19:29:28.830Z</time>
      </trkpt>
      <trkpt lat="44.88872" lon="1.40185">
        <ele>88.716278076172</ele>
        <time>2020-06-23T19:29:31.505Z</time>
      </trkpt>
      <trkpt lat="44.88866" lon="1.40249">
        <ele>89.776176452637</ele>
        <time>2020-06-23T19:29:34.187Z</time>
      </trkpt>
      <trkpt lat="44.88861" lon="1.40272">
        <ele>88.528388977051</ele>
        <time>2020-06-23T19:29:36.872Z</time>
      </trkpt>
      <trkpt lat="44.88852" lon="1.40312">
        <ele>86.984336853027</ele>
        <time>2020-06-23T19:29:39.561Z</time>
      </trkpt>
      <trkpt lat="44.8884" lon="1.40369">
        <ele>88.816871643066</ele>
        <time>2020-06-23T19:29:42.257Z</time>
      </trkpt>
      <trkpt lat="44.88836" lon="1.40379">
        <ele>88.43293762207</ele>
        <time>2020-06-23T19:29:44.954Z</time>
      </trkpt>
      <trkpt lat="44.88828" lon="1.40392">
        <ele>87.665061950684</ele>
        <time>2020-06-23T19:29:47.653Z</time>
      </trkpt>
      <trkpt lat="44.88822" lon="1.40396">
        <ele>87.089157104492</ele>
        <time>2020-06-23T19:29:50.353Z</time>
      </trkpt>
      <trkpt lat="44.88811" lon="1.40414">
        <ele>86.594566345215</ele>
        <time>2020-06-23T19:29:53.056Z</time>
      </trkpt>
      <trkpt lat="44.8879" lon="1.40455">
        <ele>86.054656982422</ele>
        <time>2020-06-23T19:29:55.765Z</time>
      </trkpt>
      <trkpt lat="44.88759" lon="1.40501">
        <ele>86.35262298584</ele>
        <time>2020-06-23T19:29:58.481Z</time>
      </trkpt>
      <trkpt lat="44.88732" lon="1.4054">
        <ele>85.525619506836</ele>
        <time>2020-06-23T19:30:01.203Z</time>
      </trkpt>
      <trkpt lat="44.88732" lon="1.4054">
        <ele>85.525215148926</ele>
        <time>2020-06-23T19:30:03.925Z</time>
      </trkpt>
      <trkpt lat="44.88719" lon="1.40559">
        <ele>84.751754760742</ele>
        <time>2020-06-23T19:30:06.650Z</time>
      </trkpt>
      <trkpt lat="44.88662" lon="1.40646">
        <ele>84.903541564941</ele>
        <time>2020-06-23T19:30:09.389Z</time>
      </trkpt>
      <trkpt lat="44.88653" lon="1.40659">
        <ele>85.349906921387</ele>
        <time>2020-06-23T19:30:12.130Z</time>
      </trkpt>
      <trkpt lat="44.88634" lon="1.40683">
        <ele>86.04972076416</ele>
        <time>2020-06-23T19:30:14.875Z</time>
      </trkpt>
      <trkpt lat="44.88619" lon="1.40697">
        <ele>86.330047607422</ele>
        <time>2020-06-23T19:30:17.623Z</time>
      </trkpt>
      <trkpt lat="44.88603" lon="1.40721">
        <ele>86.922454833984</ele>
        <time>2020-06-23T19:30:20.375Z</time>
      </trkpt>
      <trkpt lat="44.88594" lon="1.40736">
        <ele>86.253005981445</ele>
        <time>2020-06-23T19:30:23.129Z</time>
      </trkpt>
      <trkpt lat="44.88598" lon="1.40741">
        <ele>86.492965698242</ele>
        <time>2020-06-23T19:30:25.884Z</time>
      </trkpt>
      <trkpt lat="44.88601" lon="1.4076">
        <ele>86.67293548584</ele>
        <time>2020-06-23T19:30:28.641Z</time>
      </trkpt>
      <trkpt lat="44.88597" lon="1.40781">
        <ele>86.432975769043</ele>
        <time>2020-06-23T19:30:31.400Z</time>
      </trkpt>
      <trkpt lat="44.88566" lon="1.40833">
        <ele>84.573287963867</ele>
        <time>2020-06-23T19:30:34.167Z</time>
      </trkpt>
      <trkpt lat="44.88555" lon="1.40845">
        <ele>84.440002441406</ele>
        <time>2020-06-23T19:30:36.936Z</time>
      </trkpt>
      <trkpt lat="44.88541" lon="1.40852">
        <ele>84.356018066406</ele>
        <time>2020-06-23T19:30:39.708Z</time>
      </trkpt>
      <trkpt lat="44.88535" lon="1.4086">
        <ele>84.614555358887</ele>
        <time>2020-06-23T19:30:42.481Z</time>
      </trkpt>
      <trkpt lat="44.88532" lon="1.40859">
        <ele>84.578559875488</ele>
        <time>2020-06-23T19:30:45.255Z</time>
      </trkpt>
      <trkpt lat="44.88526" lon="1.40862">
        <ele>84.686546325684</ele>
        <time>2020-06-23T19:30:48.030Z</time>
      </trkpt>
      <trkpt lat="44.88512" lon="1.40877">
        <ele>85.07568359375</ele>
        <time>2020-06-23T19:30:50.807Z</time>
      </trkpt>
      <trkpt lat="44.88493" lon="1.4092">
        <ele>84.87760925293</ele>
        <time>2020-06-23T19:30:53.590Z</time>
      </trkpt>
      <trkpt lat="44.88452" lon="1.41042">
        <ele>83.721824645996</ele>
        <time>2020-06-23T19:30:56.388Z</time>
      </trkpt>
      <trkpt lat="44.88439" lon="1.41072">
        <ele>84.028358459473</ele>
        <time>2020-06-23T19:30:59.190Z</time>
      </trkpt>
      <trkpt lat="44.88439" lon="1.41072">
        <ele>84.028717041016</ele>
        <time>2020-06-23T19:31:01.992Z</time>
      </trkpt>
      <trkpt lat="44.88429" lon="1.41094">
        <ele>84.708084106445</ele>
        <time>2020-06-23T19:31:04.797Z</time>
      </trkpt>
      <trkpt lat="44.88415" lon="1.41138">
        <ele>85.011833190918</ele>
        <time>2020-06-23T19:31:07.608Z</time>
      </trkpt>
      <trkpt lat="44.88406" lon="1.4118">
        <ele>84.57991027832</ele>
        <time>2020-06-23T19:31:10.424Z</time>
      </trkpt>
      <trkpt lat="44.88397" lon="1.41214">
        <ele>84.646461486816</ele>
        <time>2020-06-23T19:31:13.244Z</time>
      </trkpt>
      <trkpt lat="44.88352" lon="1.41315">
        <ele>84.494171142578</ele>
        <time>2020-06-23T19:31:16.078Z</time>
      </trkpt>
      <trkpt lat="44.88319" lon="1.41397">
        <ele>84.332260131836</ele>
        <time>2020-06-23T19:31:18.922Z</time>
      </trkpt>
      <trkpt lat="44.88281" lon="1.41485">
        <ele>84.975135803223</ele>
        <time>2020-06-23T19:31:21.778Z</time>
      </trkpt>
      <trkpt lat="44.88237" lon="1.41572">
        <ele>87.078857421875</ele>
        <time>2020-06-23T19:31:24.646Z</time>
      </trkpt>
      <trkpt lat="44.8821" lon="1.41615">
        <ele>87.006874084473</ele>
        <time>2020-06-23T19:31:27.521Z</time>
      </trkpt>
      <trkpt lat="44.88183" lon="1.41653">
        <ele>86.912712097168</ele>
        <time>2020-06-23T19:31:30.402Z</time>
      </trkpt>
      <trkpt lat="44.88166" lon="1.41672">
        <ele>87.26065826416</ele>
        <time>2020-06-23T19:31:33.286Z</time>
      </trkpt>
      <trkpt lat="44.8813" lon="1.41707">
        <ele>87.003631591797</ele>
        <time>2020-06-23T19:31:36.177Z</time>
      </trkpt>
      <trkpt lat="44.88095" lon="1.41734">
        <ele>87.186302185059</ele>
        <time>2020-06-23T19:31:39.075Z</time>
      </trkpt>
      <trkpt lat="44.87997" lon="1.41822">
        <ele>89.624717712402</ele>
        <time>2020-06-23T19:31:41.991Z</time>
      </trkpt>
      <trkpt lat="44.87968" lon="1.41853">
        <ele>90.188621520996</ele>
        <time>2020-06-23T19:31:44.913Z</time>
      </trkpt>
      <trkpt lat="44.87942" lon="1.41887">
        <ele>92.440185546875</ele>
        <time>2020-06-23T19:31:47.841Z</time>
      </trkpt>
      <trkpt lat="44.87928" lon="1.41903">
        <ele>92.768562316895</ele>
        <time>2020-06-23T19:31:50.772Z</time>
      </trkpt>
      <trkpt lat="44.87911" lon="1.41911">
        <ele>92.612586975098</ele>
        <time>2020-06-23T19:31:53.706Z</time>
      </trkpt>
      <trkpt lat="44.87856" lon="1.41937">
        <ele>91.40453338623</ele>
        <time>2020-06-23T19:31:56.649Z</time>
      </trkpt>
      <trkpt lat="44.87838" lon="1.41948">
        <ele>91.40503692627</ele>
        <time>2020-06-23T19:31:59.595Z</time>
      </trkpt>
      <trkpt lat="44.87813" lon="1.41962">
        <ele>89.041427612305</ele>
        <time>2020-06-23T19:32:02.545Z</time>
      </trkpt>
      <trkpt lat="44.8779" lon="1.41982">
        <ele>87.03776550293</ele>
        <time>2020-06-23T19:32:05.500Z</time>
      </trkpt>
      <trkpt lat="44.87786" lon="1.41986">
        <ele>87.05623626709</ele>
        <time>2020-06-23T19:32:08.455Z</time>
      </trkpt>
      <trkpt lat="44.87786" lon="1.41992">
        <ele>87.272201538086</ele>
        <time>2020-06-23T19:32:11.411Z</time>
      </trkpt>
      <trkpt lat="44.87786" lon="1.42006">
        <ele>87.77611541748</ele>
        <time>2020-06-23T19:32:14.369Z</time>
      </trkpt>
      <trkpt lat="44.87785" lon="1.42039">
        <ele>88.939918518066</ele>
        <time>2020-06-23T19:32:17.330Z</time>
      </trkpt>
      <trkpt lat="44.87787" lon="1.42052">
        <ele>89.455833435059</ele>
        <time>2020-06-23T19:32:20.293Z</time>
      </trkpt>
      <trkpt lat="44.87788" lon="1.42058">
        <ele>89.695793151855</ele>
        <time>2020-06-23T19:32:23.257Z</time>
      </trkpt>
      <trkpt lat="44.87795" lon="1.42068">
        <ele>90.480499267578</ele>
        <time>2020-06-23T19:32:26.222Z</time>
      </trkpt>
      <trkpt lat="44.87827" lon="1.4209">
        <ele>93.575988769531</ele>
        <time>2020-06-23T19:32:29.193Z</time>
      </trkpt>
      <trkpt lat="44.87831" lon="1.42096">
        <ele>94.079902648926</ele>
        <time>2020-06-23T19:32:32.165Z</time>
      </trkpt>
      <trkpt lat="44.87837" lon="1.42114">
        <ele>95.175285339355</ele>
        <time>2020-06-23T19:32:35.139Z</time>
      </trkpt>
      <trkpt lat="44.87837" lon="1.42144">
        <ele>96.615043640137</ele>
        <time>2020-06-23T19:32:38.117Z</time>
      </trkpt>
      <trkpt lat="44.87817" lon="1.42241">
        <ele>98.533348083496</ele>
        <time>2020-06-23T19:32:41.106Z</time>
      </trkpt>
      <trkpt lat="44.87775" lon="1.42407">
        <ele>98.769668579102</ele>
        <time>2020-06-23T19:32:44.115Z</time>
      </trkpt>
      <trkpt lat="44.87762" lon="1.4247">
        <ele>97.864555358887</ele>
        <time>2020-06-23T19:32:47.132Z</time>
      </trkpt>
      <trkpt lat="44.87748" lon="1.42553">
        <ele>97.852554321289</ele>
        <time>2020-06-23T19:32:50.158Z</time>
      </trkpt>
      <trkpt lat="44.87743" lon="1.4259">
        <ele>98.231269836426</ele>
        <time>2020-06-23T19:32:53.189Z</time>
      </trkpt>
      <trkpt lat="44.87742" lon="1.42631">
        <ele>98.784774780273</ele>
        <time>2020-06-23T19:32:56.224Z</time>
      </trkpt>
      <trkpt lat="44.87743" lon="1.42661">
        <ele>98.788948059082</ele>
        <time>2020-06-23T19:32:59.263Z</time>
      </trkpt>
      <trkpt lat="44.87745" lon="1.42682">
        <ele>98.453010559082</ele>
        <time>2020-06-23T19:33:02.304Z</time>
      </trkpt>
      <trkpt lat="44.87737" lon="1.42688">
        <ele>97.841575622559</ele>
        <time>2020-06-23T19:33:05.346Z</time>
      </trkpt>
      <trkpt lat="44.87727" lon="1.42697">
        <ele>97.241676330566</ele>
        <time>2020-06-23T19:33:08.390Z</time>
      </trkpt>
      <trkpt lat="44.87703" lon="1.42725">
        <ele>95.801910400391</ele>
        <time>2020-06-23T19:33:11.439Z</time>
      </trkpt>
      <trkpt lat="44.87693" lon="1.42733">
        <ele>95.489891052246</ele>
        <time>2020-06-23T19:33:14.490Z</time>
      </trkpt>
      <trkpt lat="44.87694" lon="1.42774">
        <ele>94.05012512207</ele>
        <time>2020-06-23T19:33:17.546Z</time>
      </trkpt>
      <trkpt lat="44.87698" lon="1.42832">
        <ele>93.0986328125</ele>
        <time>2020-06-23T19:33:20.609Z</time>
      </trkpt>
      <trkpt lat="44.87697" lon="1.42891">
        <ele>93.759063720703</ele>
        <time>2020-06-23T19:33:23.678Z</time>
      </trkpt>
      <trkpt lat="44.87699" lon="1.429">
        <ele>93.737174987793</ele>
        <time>2020-06-23T19:33:26.748Z</time>
      </trkpt>
      <trkpt lat="44.87713" lon="1.4291">
        <ele>94.321449279785</ele>
        <time>2020-06-23T19:33:29.821Z</time>
      </trkpt>
      <trkpt lat="44.87725" lon="1.42915">
        <ele>94.897354125977</ele>
        <time>2020-06-23T19:33:32.896Z</time>
      </trkpt>
      <trkpt lat="44.87728" lon="1.42923">
        <ele>95.041328430176</ele>
        <time>2020-06-23T19:33:35.972Z</time>
      </trkpt>
      <trkpt lat="44.87734" lon="1.42945">
        <ele>95.329284667969</ele>
        <time>2020-06-23T19:33:39.051Z</time>
      </trkpt>
      <trkpt lat="44.87739" lon="1.4297">
        <ele>95.569244384766</ele>
        <time>2020-06-23T19:33:42.132Z</time>
      </trkpt>
      <trkpt lat="44.87757" lon="1.43042">
        <ele>97.150924682617</ele>
        <time>2020-06-23T19:33:45.222Z</time>
      </trkpt>
      <trkpt lat="44.87757" lon="1.43124">
        <ele>98.134757995605</ele>
        <time>2020-06-23T19:33:48.321Z</time>
      </trkpt>
      <trkpt lat="44.87758" lon="1.43202">
        <ele>97.843589782715</ele>
        <time>2020-06-23T19:33:51.429Z</time>
      </trkpt>
      <trkpt lat="44.87757" lon="1.43221">
        <ele>97.56763458252</ele>
        <time>2020-06-23T19:33:54.540Z</time>
      </trkpt>
      <trkpt lat="44.87755" lon="1.4323">
        <ele>97.363670349121</ele>
        <time>2020-06-23T19:33:57.652Z</time>
      </trkpt>
      <trkpt lat="44.87777" lon="1.43247">
        <ele>98.392936706543</ele>
        <time>2020-06-23T19:34:00.768Z</time>
      </trkpt>
      <trkpt lat="44.87829" lon="1.43291">
        <ele>101.36065673828</ele>
        <time>2020-06-23T19:34:03.893Z</time>
      </trkpt>
      <trkpt lat="44.87876" lon="1.43332">
        <ele>104.19724273682</ele>
        <time>2020-06-23T19:34:07.027Z</time>
      </trkpt>
      <trkpt lat="44.87887" lon="1.43349">
        <ele>104.40120697021</ele>
        <time>2020-06-23T19:34:10.164Z</time>
      </trkpt>
      <trkpt lat="44.87896" lon="1.43354">
        <ele>104.46119689941</ele>
        <time>2020-06-23T19:34:13.302Z</time>
      </trkpt>
      <trkpt lat="44.8791" lon="1.43354">
        <ele>104.46119689941</ele>
        <time>2020-06-23T19:34:16.443Z</time>
      </trkpt>
      <trkpt lat="44.87919" lon="1.43349">
        <ele>104.55194854736</ele>
        <time>2020-06-23T19:34:19.585Z</time>
      </trkpt>
      <trkpt lat="44.87927" lon="1.43345">
        <ele>104.64793395996</ele>
        <time>2020-06-23T19:34:22.729Z</time>
      </trkpt>
      <trkpt lat="44.87935" lon="1.4334">
        <ele>104.74391937256</ele>
        <time>2020-06-23T19:34:25.874Z</time>
      </trkpt>
      <trkpt lat="44.87944" lon="1.43342">
        <ele>104.85189819336</ele>
        <time>2020-06-23T19:34:29.020Z</time>
      </trkpt>
      <trkpt lat="44.87978" lon="1.43361">
        <ele>105.77949523926</ele>
        <time>2020-06-23T19:34:32.172Z</time>
      </trkpt>
      <trkpt lat="44.88001" lon="1.43365">
        <ele>106.60736083984</ele>
        <time>2020-06-23T19:34:35.328Z</time>
      </trkpt>
      <trkpt lat="44.88068" lon="1.43373">
        <ele>107.71797180176</ele>
        <time>2020-06-23T19:34:38.495Z</time>
      </trkpt>
      <trkpt lat="44.88159" lon="1.43387">
        <ele>111.58882904053</ele>
        <time>2020-06-23T19:34:41.676Z</time>
      </trkpt>
      <trkpt lat="44.88228" lon="1.43385">
        <ele>115.61113739014</ele>
        <time>2020-06-23T19:34:44.868Z</time>
      </trkpt>
      <trkpt lat="44.88245" lon="1.43383">
        <ele>116.19903564453</ele>
        <time>2020-06-23T19:34:48.063Z</time>
      </trkpt>
      <trkpt lat="44.88246" lon="1.4342">
        <ele>115.91976165771</ele>
        <time>2020-06-23T19:34:51.262Z</time>
      </trkpt>
      <trkpt lat="44.88255" lon="1.43514">
        <ele>113.98808288574</ele>
        <time>2020-06-23T19:34:54.472Z</time>
      </trkpt>
      <trkpt lat="44.8826" lon="1.43553">
        <ele>113.23220825195</ele>
        <time>2020-06-23T19:34:57.687Z</time>
      </trkpt>
      <trkpt lat="44.8827" lon="1.43601">
        <ele>112.01563262939</ele>
        <time>2020-06-23T19:35:00.907Z</time>
      </trkpt>
      <trkpt lat="44.88284" lon="1.43659">
        <ele>110.43190002441</ele>
        <time>2020-06-23T19:35:04.134Z</time>
      </trkpt>
      <trkpt lat="44.88288" lon="1.43669">
        <ele>110.19847869873</ele>
        <time>2020-06-23T19:35:07.363Z</time>
      </trkpt>
      <trkpt lat="44.88288" lon="1.43669">
        <ele>110.19819641113</ele>
        <time>2020-06-23T19:35:10.592Z</time>
      </trkpt>
      <trkpt lat="44.88298" lon="1.43699">
        <ele>110.09120941162</ele>
        <time>2020-06-23T19:35:13.824Z</time>
      </trkpt>
      <trkpt lat="44.88328" lon="1.43777">
        <ele>108.60520172119</ele>
        <time>2020-06-23T19:35:17.066Z</time>
      </trkpt>
      <trkpt lat="44.88342" lon="1.43805">
        <ele>107.42939758301</ele>
        <time>2020-06-23T19:35:20.312Z</time>
      </trkpt>
      <trkpt lat="44.88364" lon="1.43842">
        <ele>105.78912353516</ele>
        <time>2020-06-23T19:35:23.564Z</time>
      </trkpt>
      <trkpt lat="44.88427" lon="1.43936">
        <ele>99.899803161621</ele>
        <time>2020-06-23T19:35:26.831Z</time>
      </trkpt>
      <trkpt lat="44.88442" lon="1.43954">
        <ele>98.855972290039</ele>
        <time>2020-06-23T19:35:30.101Z</time>
      </trkpt>
      <trkpt lat="44.88455" lon="1.43966">
        <ele>98.556022644043</ele>
        <time>2020-06-23T19:35:33.373Z</time>
      </trkpt>
      <trkpt lat="44.88471" lon="1.43976">
        <ele>98.288566589355</ele>
        <time>2020-06-23T19:35:36.648Z</time>
      </trkpt>
      <trkpt lat="44.88489" lon="1.43983">
        <ele>98.68009185791</ele>
        <time>2020-06-23T19:35:39.926Z</time>
      </trkpt>
      <trkpt lat="44.88508" lon="1.43985">
        <ele>100.10785675049</ele>
        <time>2020-06-23T19:35:43.207Z</time>
      </trkpt>
      <trkpt lat="44.88532" lon="1.43981">
        <ele>102.5718536377</ele>
        <time>2020-06-23T19:35:46.492Z</time>
      </trkpt>
      <trkpt lat="44.88544" lon="1.43976">
        <ele>104.19136810303</ele>
        <time>2020-06-23T19:35:49.779Z</time>
      </trkpt>
      <trkpt lat="44.88583" lon="1.43951">
        <ele>108.35467529297</ele>
        <time>2020-06-23T19:35:53.073Z</time>
      </trkpt>
      <trkpt lat="44.88625" lon="1.43926">
        <ele>113.66265106201</ele>
        <time>2020-06-23T19:35:56.374Z</time>
      </trkpt>
      <trkpt lat="44.8865" lon="1.43918">
        <ele>112.9923248291</ele>
        <time>2020-06-23T19:35:59.679Z</time>
      </trkpt>
      <trkpt lat="44.88668" lon="1.43911">
        <ele>112.5604019165</ele>
        <time>2020-06-23T19:36:02.987Z</time>
      </trkpt>
      <trkpt lat="44.88693" lon="1.43898">
        <ele>112.65649414062</ele>
        <time>2020-06-23T19:36:06.299Z</time>
      </trkpt>
      <trkpt lat="44.88715" lon="1.43887">
        <ele>114.53865814209</ele>
        <time>2020-06-23T19:36:09.615Z</time>
      </trkpt>
      <trkpt lat="44.88729" lon="1.43882">
        <ele>114.88660430908</ele>
        <time>2020-06-23T19:36:12.933Z</time>
      </trkpt>
      <trkpt lat="44.88748" lon="1.43881">
        <ele>113.20687866211</ele>
        <time>2020-06-23T19:36:16.254Z</time>
      </trkpt>
      <trkpt lat="44.88785" lon="1.43884">
        <ele>109.68277740479</ele>
        <time>2020-06-23T19:36:19.581Z</time>
      </trkpt>
      <trkpt lat="44.88859" lon="1.43894">
        <ele>102.97463989258</ele>
        <time>2020-06-23T19:36:22.920Z</time>
      </trkpt>
      <trkpt lat="44.88925" lon="1.43898">
        <ele>103.09411621094</ele>
        <time>2020-06-23T19:36:26.270Z</time>
      </trkpt>
      <trkpt lat="44.88958" lon="1.43898">
        <ele>104.66596221924</ele>
        <time>2020-06-23T19:36:29.625Z</time>
      </trkpt>
      <trkpt lat="44.8898" lon="1.43904">
        <ele>104.1657409668</ele>
        <time>2020-06-23T19:36:32.984Z</time>
      </trkpt>
      <trkpt lat="44.89067" lon="1.43931">
        <ele>102.50659942627</ele>
        <time>2020-06-23T19:36:36.357Z</time>
      </trkpt>
      <trkpt lat="44.89088" lon="1.43942">
        <ele>101.33000183105</ele>
        <time>2020-06-23T19:36:39.734Z</time>
      </trkpt>
      <trkpt lat="44.8911" lon="1.43957">
        <ele>99.566291809082</ele>
        <time>2020-06-23T19:36:43.114Z</time>
      </trkpt>
      <trkpt lat="44.89128" lon="1.43976">
        <ele>95.864112854004</ele>
        <time>2020-06-23T19:36:46.498Z</time>
      </trkpt>
      <trkpt lat="44.89141" lon="1.43993">
        <ele>93.659492492676</ele>
        <time>2020-06-23T19:36:49.885Z</time>
      </trkpt>
      <trkpt lat="44.89168" lon="1.44055">
        <ele>89.844123840332</ele>
        <time>2020-06-23T19:36:53.280Z</time>
      </trkpt>
      <trkpt lat="44.89277" lon="1.44347">
        <ele>88.22045135498</ele>
        <time>2020-06-23T19:36:56.713Z</time>
      </trkpt>
      <trkpt lat="44.89501" lon="1.44943">
        <ele>90.505645751953</ele>
        <time>2020-06-23T19:37:00.222Z</time>
      </trkpt>
      <trkpt lat="44.89501" lon="1.44943">
        <ele>90.505966186523</ele>
        <time>2020-06-23T19:37:03.731Z</time>
      </trkpt>
      <trkpt lat="44.89512" lon="1.44973">
        <ele>90.443572998047</ele>
        <time>2020-06-23T19:37:07.244Z</time>
      </trkpt>
      <trkpt lat="44.89558" lon="1.451">
        <ele>90.059730529785</ele>
        <time>2020-06-23T19:37:10.773Z</time>
      </trkpt>
      <trkpt lat="44.89618" lon="1.45306">
        <ele>89.11051940918</ele>
        <time>2020-06-23T19:37:14.328Z</time>
      </trkpt>
      <trkpt lat="44.89803" lon="1.45975">
        <ele>91</ele>
        <time>2020-06-23T19:37:17.964Z</time>
      </trkpt>
      <trkpt lat="44.89818" lon="1.46037">
        <ele>89.716804504395</ele>
        <time>2020-06-23T19:37:21.608Z</time>
      </trkpt>
      <trkpt lat="44.89827" lon="1.46101">
        <ele>88.88826751709</ele>
        <time>2020-06-23T19:37:25.259Z</time>
      </trkpt>
      <trkpt lat="44.89828" lon="1.46145">
        <ele>89.403747558594</ele>
        <time>2020-06-23T19:37:28.915Z</time>
      </trkpt>
      <trkpt lat="44.89824" lon="1.4618">
        <ele>89.408142089844</ele>
        <time>2020-06-23T19:37:32.575Z</time>
      </trkpt>
      <trkpt lat="44.89809" lon="1.46235">
        <ele>88.566093444824</ele>
        <time>2020-06-23T19:37:36.242Z</time>
      </trkpt>
      <trkpt lat="44.898" lon="1.46263">
        <ele>89.450714111328</ele>
        <time>2020-06-23T19:37:39.913Z</time>
      </trkpt>
      <trkpt lat="44.89798" lon="1.46263">
        <ele>89.378723144531</ele>
        <time>2020-06-23T19:37:43.584Z</time>
      </trkpt>
      <trkpt lat="44.89795" lon="1.46262">
        <ele>89.234748840332</ele>
        <time>2020-06-23T19:37:47.255Z</time>
      </trkpt>
      <trkpt lat="44.89791" lon="1.46263">
        <ele>89.126770019531</ele>
        <time>2020-06-23T19:37:50.927Z</time>
      </trkpt>
      <trkpt lat="44.89785" lon="1.46268">
        <ele>89.329895019531</ele>
        <time>2020-06-23T19:37:54.600Z</time>
      </trkpt>
      <trkpt lat="44.89781" lon="1.46276">
        <ele>89.665840148926</ele>
        <time>2020-06-23T19:37:58.274Z</time>
      </trkpt>
      <trkpt lat="44.89781" lon="1.46286">
        <ele>90.025779724121</ele>
        <time>2020-06-23T19:38:01.949Z</time>
      </trkpt>
      <trkpt lat="44.89784" lon="1.46295">
        <ele>90.31372833252</ele>
        <time>2020-06-23T19:38:05.626Z</time>
      </trkpt>
      <trkpt lat="44.89786" lon="1.46297">
        <ele>90.361724853516</ele>
        <time>2020-06-23T19:38:09.303Z</time>
      </trkpt>
      <trkpt lat="44.89776" lon="1.46314">
        <ele>91.093597412109</ele>
        <time>2020-06-23T19:38:12.982Z</time>
      </trkpt>
      <trkpt lat="44.89675" lon="1.46476">
        <ele>91.321922302246</ele>
        <time>2020-06-23T19:38:16.686Z</time>
      </trkpt>
      <trkpt lat="44.89619" lon="1.46567">
        <ele>90.959327697754</ele>
        <time>2020-06-23T19:38:20.404Z</time>
      </trkpt>
      <trkpt lat="44.89581" lon="1.46631">
        <ele>91.843307495117</ele>
        <time>2020-06-23T19:38:24.131Z</time>
      </trkpt>
      <trkpt lat="44.89561" lon="1.46671">
        <ele>93.010932922363</ele>
        <time>2020-06-23T19:38:27.864Z</time>
      </trkpt>
      <trkpt lat="44.89561" lon="1.46671">
        <ele>93.01114654541</ele>
        <time>2020-06-23T19:38:31.597Z</time>
      </trkpt>
      <trkpt lat="44.89557" lon="1.46667">
        <ele>93.004379272461</ele>
        <time>2020-06-23T19:38:35.330Z</time>
      </trkpt>
      <trkpt lat="44.89546" lon="1.46687">
        <ele>93.377479553223</ele>
        <time>2020-06-23T19:38:39.066Z</time>
      </trkpt>
      <trkpt lat="44.89546" lon="1.46687">
        <ele>93.377380371094</ele>
        <time>2020-06-23T19:38:42.802Z</time>
      </trkpt>
      <trkpt lat="44.89528" lon="1.46727">
        <ele>93.772972106934</ele>
        <time>2020-06-23T19:38:46.544Z</time>
      </trkpt>
      <trkpt lat="44.89507" lon="1.46767">
        <ele>94</ele>
        <time>2020-06-23T19:38:50.291Z</time>
      </trkpt>
      <trkpt lat="44.89494" lon="1.46794">
        <ele>93.717399597168</ele>
        <time>2020-06-23T19:38:54.042Z</time>
      </trkpt>
      <trkpt lat="44.89472" lon="1.46842">
        <ele>93.415306091309</ele>
        <time>2020-06-23T19:38:57.800Z</time>
      </trkpt>
      <trkpt lat="44.89443" lon="1.46901">
        <ele>92.022537231445</ele>
        <time>2020-06-23T19:39:01.566Z</time>
      </trkpt>
      <trkpt lat="44.89435" lon="1.46915">
        <ele>92.189872741699</ele>
        <time>2020-06-23T19:39:05.334Z</time>
      </trkpt>
      <trkpt lat="44.89421" lon="1.46945">
        <ele>92.550308227539</ele>
        <time>2020-06-23T19:39:09.106Z</time>
      </trkpt>
      <trkpt lat="44.89379" lon="1.47037">
        <ele>93.019828796387</ele>
        <time>2020-06-23T19:39:12.890Z</time>
      </trkpt>
      <trkpt lat="44.89367" lon="1.47062">
        <ele>92.716293334961</ele>
        <time>2020-06-23T19:39:16.678Z</time>
      </trkpt>
      <trkpt lat="44.89345" lon="1.47133">
        <ele>92.130012512207</ele>
        <time>2020-06-23T19:39:20.475Z</time>
      </trkpt>
      <trkpt lat="44.89293" lon="1.47402">
        <ele>92.099296569824</ele>
        <time>2020-06-23T19:39:24.303Z</time>
      </trkpt>
      <trkpt lat="44.89293" lon="1.47402">
        <ele>92.099502563477</ele>
        <time>2020-06-23T19:39:28.131Z</time>
      </trkpt>
      <trkpt lat="44.89255" lon="1.47589">
        <ele>90.60228729248</ele>
        <time>2020-06-23T19:39:31.981Z</time>
      </trkpt>
      <trkpt lat="44.89253" lon="1.47603">
        <ele>90.666648864746</ele>
        <time>2020-06-23T19:39:35.833Z</time>
      </trkpt>
      <trkpt lat="44.89252" lon="1.47606">
        <ele>90.653778076172</ele>
        <time>2020-06-23T19:39:39.685Z</time>
      </trkpt>
      <trkpt lat="44.89252" lon="1.47659">
        <ele>92.087020874023</ele>
        <time>2020-06-23T19:39:43.543Z</time>
      </trkpt>
      <trkpt lat="44.89286" lon="1.47721">
        <ele>92.911056518555</ele>
        <time>2020-06-23T19:39:47.410Z</time>
      </trkpt>
      <trkpt lat="44.89295" lon="1.47736">
        <ele>93.234031677246</ele>
        <time>2020-06-23T19:39:51.280Z</time>
      </trkpt>
      <trkpt lat="44.89335" lon="1.47802">
        <ele>95.426597595215</ele>
        <time>2020-06-23T19:39:55.159Z</time>
      </trkpt>
      <trkpt lat="44.89335" lon="1.47802">
        <ele>95.426895141602</ele>
        <time>2020-06-23T19:39:59.038Z</time>
      </trkpt>
      <trkpt lat="44.89363" lon="1.4784">
        <ele>98.362648010254</ele>
        <time>2020-06-23T19:40:02.924Z</time>
      </trkpt>
      <trkpt lat="44.89388" lon="1.47867">
        <ele>101.35972595215</ele>
        <time>2020-06-23T19:40:06.815Z</time>
      </trkpt>
      <trkpt lat="44.89388" lon="1.47867">
        <ele>101.36013031006</ele>
        <time>2020-06-23T19:40:10.706Z</time>
      </trkpt>
      <trkpt lat="44.89402" lon="1.47902">
        <ele>104.45980834961</ele>
        <time>2020-06-23T19:40:14.601Z</time>
      </trkpt>
      <trkpt lat="44.89404" lon="1.47908">
        <ele>104.77197265625</ele>
        <time>2020-06-23T19:40:18.497Z</time>
      </trkpt>
      <trkpt lat="44.89404" lon="1.47908">
        <ele>104.77297210693</ele>
        <time>2020-06-23T19:40:22.393Z</time>
      </trkpt>
      <trkpt lat="44.89421" lon="1.47951">
        <ele>107.24824523926</ele>
        <time>2020-06-23T19:40:26.295Z</time>
      </trkpt>
      <trkpt lat="44.89453" lon="1.47938">
        <ele>108.17502593994</ele>
        <time>2020-06-23T19:40:30.202Z</time>
      </trkpt>
      <trkpt lat="44.89486" lon="1.47923">
        <ele>107.90403747559</ele>
        <time>2020-06-23T19:40:34.114Z</time>
      </trkpt>
      <trkpt lat="44.89486" lon="1.47923">
        <ele>107.90393066406</ele>
        <time>2020-06-23T19:40:38.026Z</time>
      </trkpt>
      <trkpt lat="44.89512" lon="1.47912">
        <ele>107.95542144775</ele>
        <time>2020-06-23T19:40:41.943Z</time>
      </trkpt>
      <trkpt lat="44.89521" lon="1.47971">
        <ele>109.56912231445</ele>
        <time>2020-06-23T19:40:45.867Z</time>
      </trkpt>
      <trkpt lat="44.89519" lon="1.48075">
        <ele>117.27381134033</ele>
        <time>2020-06-23T19:40:49.802Z</time>
      </trkpt>
      <trkpt lat="44.89518" lon="1.48082">
        <ele>117.65088653564</ele>
        <time>2020-06-23T19:40:53.738Z</time>
      </trkpt>
      <trkpt lat="44.89518" lon="1.48082">
        <ele>117.65189361572</ele>
        <time>2020-06-23T19:40:57.674Z</time>
      </trkpt>
      <trkpt lat="44.89517" lon="1.48137">
        <ele>121.36682891846</ele>
        <time>2020-06-23T19:41:01.616Z</time>
      </trkpt>
      <trkpt lat="44.89521" lon="1.48149">
        <ele>122.39642333984</ele>
        <time>2020-06-23T19:41:05.560Z</time>
      </trkpt>
      <trkpt lat="44.8952" lon="1.48155">
        <ele>122.76457214355</ele>
        <time>2020-06-23T19:41:09.505Z</time>
      </trkpt>
      <trkpt lat="44.89469" lon="1.48193">
        <ele>128.95796203613</ele>
        <time>2020-06-23T19:41:13.459Z</time>
      </trkpt>
      <trkpt lat="44.89468" lon="1.48241">
        <ele>135.32330322266</ele>
        <time>2020-06-23T19:41:17.418Z</time>
      </trkpt>
      <trkpt lat="44.89476" lon="1.48289">
        <ele>140.6905670166</ele>
        <time>2020-06-23T19:41:21.383Z</time>
      </trkpt>
      <trkpt lat="44.89476" lon="1.48293">
        <ele>141.38302612305</ele>
        <time>2020-06-23T19:41:25.349Z</time>
      </trkpt>
      <trkpt lat="44.89477" lon="1.483">
        <ele>142.33804321289</ele>
        <time>2020-06-23T19:41:29.315Z</time>
      </trkpt>
      <trkpt lat="44.89477" lon="1.483">
        <ele>142.3341217041</ele>
        <time>2020-06-23T19:41:33.281Z</time>
      </trkpt>
      <trkpt lat="44.89481" lon="1.48391">
        <ele>151.64280700684</ele>
        <time>2020-06-23T19:41:37.258Z</time>
      </trkpt>
      <trkpt lat="44.89459" lon="1.4849">
        <ele>163.23796081543</ele>
        <time>2020-06-23T19:41:41.247Z</time>
      </trkpt>
      <trkpt lat="44.89463" lon="1.48504">
        <ele>163.71423339844</ele>
        <time>2020-06-23T19:41:45.237Z</time>
      </trkpt>
      <trkpt lat="44.89479" lon="1.48518">
        <ele>163.19863891602</ele>
        <time>2020-06-23T19:41:49.230Z</time>
      </trkpt>
      <trkpt lat="44.89479" lon="1.48518">
        <ele>163.19934082031</ele>
        <time>2020-06-23T19:41:53.223Z</time>
      </trkpt>
      <trkpt lat="44.89494" lon="1.48517">
        <ele>161.51963806152</ele>
        <time>2020-06-23T19:41:57.219Z</time>
      </trkpt>
      <trkpt lat="44.89505" lon="1.48508">
        <ele>158.26145935059</ele>
        <time>2020-06-23T19:42:01.217Z</time>
      </trkpt>
      <trkpt lat="44.89505" lon="1.48508">
        <ele>158.08268737793</ele>
        <time>2020-06-23T19:42:05.215Z</time>
      </trkpt>
      <trkpt lat="44.89507" lon="1.48503">
        <ele>156.93644714355</ele>
        <time>2020-06-23T19:42:09.213Z</time>
      </trkpt>
      <trkpt lat="44.89507" lon="1.48503">
        <ele>156.9405670166</ele>
        <time>2020-06-23T19:42:13.211Z</time>
      </trkpt>
      <trkpt lat="44.89537" lon="1.48443">
        <ele>145.60777282715</ele>
        <time>2020-06-23T19:42:17.218Z</time>
      </trkpt>
      <trkpt lat="44.89556" lon="1.48388">
        <ele>146.23007202148</ele>
        <time>2020-06-23T19:42:21.232Z</time>
      </trkpt>
      <trkpt lat="44.89595" lon="1.48228">
        <ele>145.21995544434</ele>
        <time>2020-06-23T19:42:25.265Z</time>
      </trkpt>
      <trkpt lat="44.89624" lon="1.48171">
        <ele>148.52244567871</ele>
        <time>2020-06-23T19:42:29.306Z</time>
      </trkpt>
      <trkpt lat="44.89637" lon="1.4816">
        <ele>151.24601745605</ele>
        <time>2020-06-23T19:42:33.349Z</time>
      </trkpt>
      <trkpt lat="44.89641" lon="1.48157">
        <ele>151.89877319336</ele>
        <time>2020-06-23T19:42:37.393Z</time>
      </trkpt>
      <trkpt lat="44.89641" lon="1.48157">
        <ele>151.90098571777</ele>
        <time>2020-06-23T19:42:41.437Z</time>
      </trkpt>
      <trkpt lat="44.89664" lon="1.48138">
        <ele>156.10609436035</ele>
        <time>2020-06-23T19:42:45.485Z</time>
      </trkpt>
      <trkpt lat="44.89715" lon="1.4813">
        <ele>166.68971252441</ele>
        <time>2020-06-23T19:42:49.542Z</time>
      </trkpt>
      <trkpt lat="44.89743" lon="1.48146">
        <ele>169.81771850586</ele>
        <time>2020-06-23T19:42:53.603Z</time>
      </trkpt>
      <trkpt lat="44.89756" lon="1.48168">
        <ele>172.57995605469</ele>
        <time>2020-06-23T19:42:57.668Z</time>
      </trkpt>
      <trkpt lat="44.89764" lon="1.48202">
        <ele>176.04263305664</ele>
        <time>2020-06-23T19:43:01.737Z</time>
      </trkpt>
      <trkpt lat="44.8974" lon="1.48306">
        <ele>182.08744812012</ele>
        <time>2020-06-23T19:43:05.818Z</time>
      </trkpt>
      <trkpt lat="44.89672" lon="1.48472">
        <ele>186.29606628418</ele>
        <time>2020-06-23T19:43:09.921Z</time>
      </trkpt>
      <trkpt lat="44.89656" lon="1.48501">
        <ele>184.9299621582</ele>
        <time>2020-06-23T19:43:14.028Z</time>
      </trkpt>
      <trkpt lat="44.89632" lon="1.48575">
        <ele>188.11639404297</ele>
        <time>2020-06-23T19:43:18.144Z</time>
      </trkpt>
      <trkpt lat="44.89611" lon="1.48675">
        <ele>191.22193908691</ele>
        <time>2020-06-23T19:43:22.272Z</time>
      </trkpt>
      <trkpt lat="44.8961" lon="1.48681">
        <ele>191.29597473145</ele>
        <time>2020-06-23T19:43:26.401Z</time>
      </trkpt>
      <trkpt lat="44.8961" lon="1.48681">
        <ele>191.29658508301</ele>
        <time>2020-06-23T19:43:30.530Z</time>
      </trkpt>
      <trkpt lat="44.89579" lon="1.48827">
        <ele>193.37619018555</ele>
        <time>2020-06-23T19:43:34.676Z</time>
      </trkpt>
      <trkpt lat="44.89581" lon="1.48976">
        <ele>212.96270751953</ele>
        <time>2020-06-23T19:43:38.839Z</time>
      </trkpt>
      <trkpt lat="44.89569" lon="1.49011">
        <ele>214.90142822266</ele>
        <time>2020-06-23T19:43:43.007Z</time>
      </trkpt>
      <trkpt lat="44.89512" lon="1.49131">
        <ele>227.77149963379</ele>
        <time>2020-06-23T19:43:47.191Z</time>
      </trkpt>
      <trkpt lat="44.89488" lon="1.49227">
        <ele>224.49345397949</ele>
        <time>2020-06-23T19:43:51.387Z</time>
      </trkpt>
      <trkpt lat="44.89488" lon="1.49227">
        <ele>224.49424743652</ele>
        <time>2020-06-23T19:43:55.583Z</time>
      </trkpt>
      <trkpt lat="44.89483" lon="1.49299">
        <ele>220.28929138184</ele>
        <time>2020-06-23T19:43:59.787Z</time>
      </trkpt>
      <trkpt lat="44.89487" lon="1.49455">
        <ele>222.55812072754</ele>
        <time>2020-06-23T19:44:04.009Z</time>
      </trkpt>
      <trkpt lat="44.89462" lon="1.49525">
        <ele>226.08995056152</ele>
        <time>2020-06-23T19:44:08.239Z</time>
      </trkpt>
      <trkpt lat="44.89438" lon="1.49564">
        <ele>231.03337097168</ele>
        <time>2020-06-23T19:44:12.475Z</time>
      </trkpt>
      <trkpt lat="44.89353" lon="1.49642">
        <ele>243.52394104004</ele>
        <time>2020-06-23T19:44:16.728Z</time>
      </trkpt>
      <trkpt lat="44.89328" lon="1.49648">
        <ele>245.54490661621</ele>
        <time>2020-06-23T19:44:20.985Z</time>
      </trkpt>
      <trkpt lat="44.89264" lon="1.4964">
        <ele>245.42616271973</ele>
        <time>2020-06-23T19:44:25.252Z</time>
      </trkpt>
      <trkpt lat="44.89191" lon="1.49671">
        <ele>241.1954498291</ele>
        <time>2020-06-23T19:44:29.531Z</time>
      </trkpt>
      <trkpt lat="44.89152" lon="1.49708">
        <ele>238.3377532959</ele>
        <time>2020-06-23T19:44:33.818Z</time>
      </trkpt>
      <trkpt lat="44.88967" lon="1.4997">
        <ele>228.7859954834</ele>
        <time>2020-06-23T19:44:38.147Z</time>
      </trkpt>
      <trkpt lat="44.88955" lon="1.49982">
        <ele>228.96908569336</ele>
        <time>2020-06-23T19:44:42.478Z</time>
      </trkpt>
      <trkpt lat="44.88951" lon="1.49985">
        <ele>229.10418701172</ele>
        <time>2020-06-23T19:44:46.810Z</time>
      </trkpt>
      <trkpt lat="44.88951" lon="1.49985">
        <ele>229.10368347168</ele>
        <time>2020-06-23T19:44:51.142Z</time>
      </trkpt>
      <trkpt lat="44.88941" lon="1.49996">
        <ele>228.98170471191</ele>
        <time>2020-06-23T19:44:55.476Z</time>
      </trkpt>
      <trkpt lat="44.88929" lon="1.50004">
        <ele>228.99456787109</ele>
        <time>2020-06-23T19:44:59.812Z</time>
      </trkpt>
      <trkpt lat="44.88892" lon="1.50005">
        <ele>230.3500213623</ele>
        <time>2020-06-23T19:45:04.154Z</time>
      </trkpt>
      <trkpt lat="44.8888" lon="1.50015">
        <ele>231.1609954834</ele>
        <time>2020-06-23T19:45:08.498Z</time>
      </trkpt>
      <trkpt lat="44.88801" lon="1.50102">
        <ele>233.30323791504</ele>
        <time>2020-06-23T19:45:12.858Z</time>
      </trkpt>
      <trkpt lat="44.88746" lon="1.50135">
        <ele>237.09217834473</ele>
        <time>2020-06-23T19:45:17.228Z</time>
      </trkpt>
      <trkpt lat="44.88704" lon="1.50179">
        <ele>239.60852050781</ele>
        <time>2020-06-23T19:45:21.606Z</time>
      </trkpt>
      <trkpt lat="44.88685" lon="1.50218">
        <ele>236.31474304199</ele>
        <time>2020-06-23T19:45:25.989Z</time>
      </trkpt>
      <trkpt lat="44.8868" lon="1.5026">
        <ele>230.37864685059</ele>
        <time>2020-06-23T19:45:30.377Z</time>
      </trkpt>
      <trkpt lat="44.88703" lon="1.50413">
        <ele>222.57231140137</ele>
        <time>2020-06-23T19:45:34.783Z</time>
      </trkpt>
      <trkpt lat="44.88696" lon="1.50455">
        <ele>231.02952575684</ele>
        <time>2020-06-23T19:45:39.194Z</time>
      </trkpt>
      <trkpt lat="44.88649" lon="1.50505">
        <ele>232.01226806641</ele>
        <time>2020-06-23T19:45:43.614Z</time>
      </trkpt>
      <trkpt lat="44.88632" lon="1.50559">
        <ele>228.16781616211</ele>
        <time>2020-06-23T19:45:48.041Z</time>
      </trkpt>
      <trkpt lat="44.88633" lon="1.50588">
        <ele>228.82662963867</ele>
        <time>2020-06-23T19:45:52.471Z</time>
      </trkpt>
      <trkpt lat="44.88656" lon="1.50696">
        <ele>237.76330566406</ele>
        <time>2020-06-23T19:45:56.914Z</time>
      </trkpt>
      <trkpt lat="44.88658" lon="1.50792">
        <ele>247.15234375</ele>
        <time>2020-06-23T19:46:01.368Z</time>
      </trkpt>
      <trkpt lat="44.88662" lon="1.50834">
        <ele>253.18305969238</ele>
        <time>2020-06-23T19:46:05.827Z</time>
      </trkpt>
      <trkpt lat="44.88704" lon="1.50946">
        <ele>270.27633666992</ele>
        <time>2020-06-23T19:46:10.300Z</time>
      </trkpt>
      <trkpt lat="44.88718" lon="1.51063">
        <ele>278.59866333008</ele>
        <time>2020-06-23T19:46:14.787Z</time>
      </trkpt>
      <trkpt lat="44.88719" lon="1.51069">
        <ele>279.05215454102</ele>
        <time>2020-06-23T19:46:19.275Z</time>
      </trkpt>
      <trkpt lat="44.88719" lon="1.51069">
        <ele>279.05307006836</ele>
        <time>2020-06-23T19:46:23.763Z</time>
      </trkpt>
      <trkpt lat="44.88722" lon="1.51094">
        <ele>280.89797973633</ele>
        <time>2020-06-23T19:46:28.253Z</time>
      </trkpt>
      <trkpt lat="44.88741" lon="1.51143">
        <ele>281.94067382812</ele>
        <time>2020-06-23T19:46:32.750Z</time>
      </trkpt>
      <trkpt lat="44.88783" lon="1.51207">
        <ele>282.85858154297</ele>
        <time>2020-06-23T19:46:37.257Z</time>
      </trkpt>
      <trkpt lat="44.88787" lon="1.51226">
        <ele>284.5075378418</ele>
        <time>2020-06-23T19:46:41.766Z</time>
      </trkpt>
      <trkpt lat="44.88814" lon="1.51268">
        <ele>286.53186035156</ele>
        <time>2020-06-23T19:46:46.281Z</time>
      </trkpt>
      <trkpt lat="44.88927" lon="1.5137">
        <ele>295.98587036133</ele>
        <time>2020-06-23T19:46:50.818Z</time>
      </trkpt>
      <trkpt lat="44.88974" lon="1.51439">
        <ele>301.08459472656</ele>
        <time>2020-06-23T19:46:55.366Z</time>
      </trkpt>
      <trkpt lat="44.88984" lon="1.51473">
        <ele>302.62847900391</ele>
        <time>2020-06-23T19:46:59.918Z</time>
      </trkpt>
      <trkpt lat="44.88977" lon="1.51583">
        <ele>306.68377685547</ele>
        <time>2020-06-23T19:47:04.483Z</time>
      </trkpt>
      <trkpt lat="44.88985" lon="1.51626">
        <ele>304.16204833984</ele>
        <time>2020-06-23T19:47:09.053Z</time>
      </trkpt>
      <trkpt lat="44.89015" lon="1.51721">
        <ele>292.45333862305</ele>
        <time>2020-06-23T19:47:13.634Z</time>
      </trkpt>
      <trkpt lat="44.89015" lon="1.51742">
        <ele>290.70291137695</ele>
        <time>2020-06-23T19:47:18.218Z</time>
      </trkpt>
      <trkpt lat="44.89001" lon="1.51804">
        <ele>288.67608642578</ele>
        <time>2020-06-23T19:47:22.809Z</time>
      </trkpt>
      <trkpt lat="44.88993" lon="1.51885">
        <ele>284.96649169922</ele>
        <time>2020-06-23T19:47:27.409Z</time>
      </trkpt>
      <trkpt lat="44.88941" lon="1.51971">
        <ele>287.53411865234</ele>
        <time>2020-06-23T19:47:32.022Z</time>
      </trkpt>
      <trkpt lat="44.88978" lon="1.5198">
        <ele>286.62121582031</ele>
        <time>2020-06-23T19:47:36.641Z</time>
      </trkpt>
      <trkpt lat="44.89028" lon="1.51964">
        <ele>285.36431884766</ele>
        <time>2020-06-23T19:47:41.269Z</time>
      </trkpt>
      <trkpt lat="44.89093" lon="1.5193">
        <ele>283.70474243164</ele>
        <time>2020-06-23T19:47:45.908Z</time>
      </trkpt>
      <trkpt lat="44.89098" lon="1.51928">
        <ele>283.67352294922</ele>
        <time>2020-06-23T19:47:50.547Z</time>
      </trkpt>
      <trkpt lat="44.89098" lon="1.51928">
        <ele>283.67373657227</ele>
        <time>2020-06-23T19:47:55.186Z</time>
      </trkpt>
      <trkpt lat="44.89204" lon="1.51872">
        <ele>284.16015625</ele>
        <time>2020-06-23T19:47:59.844Z</time>
      </trkpt>
      <trkpt lat="44.89294" lon="1.51837">
        <ele>277.67013549805</ele>
        <time>2020-06-23T19:48:04.517Z</time>
      </trkpt>
      <trkpt lat="44.89323" lon="1.5184">
        <ele>275.85791015625</ele>
        <time>2020-06-23T19:48:09.194Z</time>
      </trkpt>
      <trkpt lat="44.89368" lon="1.51822">
        <ele>272.49819946289</ele>
        <time>2020-06-23T19:48:13.879Z</time>
      </trkpt>
      <trkpt lat="44.89404" lon="1.5182">
        <ele>268.9391784668</ele>
        <time>2020-06-23T19:48:18.570Z</time>
      </trkpt>
      <trkpt lat="44.89449" lon="1.51832">
        <ele>264.15060424805</ele>
        <time>2020-06-23T19:48:23.268Z</time>
      </trkpt>
      <trkpt lat="44.89497" lon="1.51866">
        <ele>260.76870727539</ele>
        <time>2020-06-23T19:48:27.974Z</time>
      </trkpt>
      <trkpt lat="44.89501" lon="1.51869">
        <ele>260.54418945312</ele>
        <time>2020-06-23T19:48:32.681Z</time>
      </trkpt>
      <trkpt lat="44.89502" lon="1.51869">
        <ele>260.50738525391</ele>
        <time>2020-06-23T19:48:37.388Z</time>
      </trkpt>
      <trkpt lat="44.89669" lon="1.51947">
        <ele>257.25006103516</ele>
        <time>2020-06-23T19:48:42.124Z</time>
      </trkpt>
      <trkpt lat="44.89662" lon="1.51959">
        <ele>255.43502807617</ele>
        <time>2020-06-23T19:48:46.861Z</time>
      </trkpt>
      <trkpt lat="44.89671" lon="1.5208">
        <ele>246.40493774414</ele>
        <time>2020-06-23T19:48:51.612Z</time>
      </trkpt>
      <trkpt lat="44.89663" lon="1.52103">
        <ele>244.60278320312</ele>
        <time>2020-06-23T19:48:56.366Z</time>
      </trkpt>
      <trkpt lat="44.89637" lon="1.52112">
        <ele>241.97680664062</ele>
        <time>2020-06-23T19:49:01.124Z</time>
      </trkpt>
      <trkpt lat="44.89625" lon="1.52125">
        <ele>240.3677520752</ele>
        <time>2020-06-23T19:49:05.885Z</time>
      </trkpt>
      <trkpt lat="44.89594" lon="1.52341">
        <ele>235.07803344727</ele>
        <time>2020-06-23T19:49:10.671Z</time>
      </trkpt>
      <trkpt lat="44.89588" lon="1.52352">
        <ele>234.74334716797</ele>
        <time>2020-06-23T19:49:15.458Z</time>
      </trkpt>
      <trkpt lat="44.89533" lon="1.52367">
        <ele>234.74827575684</ele>
        <time>2020-06-23T19:49:20.254Z</time>
      </trkpt>
      <trkpt lat="44.89462" lon="1.52465">
        <ele>235.40380859375</ele>
        <time>2020-06-23T19:49:25.066Z</time>
      </trkpt>
      <trkpt lat="44.89466" lon="1.52507">
        <ele>236.19088745117</ele>
        <time>2020-06-23T19:49:29.883Z</time>
      </trkpt>
      <trkpt lat="44.89534" lon="1.52626">
        <ele>236.58595275879</ele>
        <time>2020-06-23T19:49:34.717Z</time>
      </trkpt>
      <trkpt lat="44.89529" lon="1.52643">
        <ele>235.65930175781</ele>
        <time>2020-06-23T19:49:39.554Z</time>
      </trkpt>
      <trkpt lat="44.8949" lon="1.52703">
        <ele>231.63470458984</ele>
        <time>2020-06-23T19:49:44.400Z</time>
      </trkpt>
      <trkpt lat="44.89487" lon="1.52708">
        <ele>231.69401550293</ele>
        <time>2020-06-23T19:49:49.247Z</time>
      </trkpt>
      <trkpt lat="44.89487" lon="1.52708">
        <ele>231.69380187988</ele>
        <time>2020-06-23T19:49:54.094Z</time>
      </trkpt>
      <trkpt lat="44.89477" lon="1.52723">
        <ele>231.86848449707</ele>
        <time>2020-06-23T19:49:58.943Z</time>
      </trkpt>
      <trkpt lat="44.8943" lon="1.52756">
        <ele>230.50593566895</ele>
        <time>2020-06-23T19:50:03.800Z</time>
      </trkpt>
      <trkpt lat="44.89417" lon="1.52775">
        <ele>229.57911682129</ele>
        <time>2020-06-23T19:50:08.660Z</time>
      </trkpt>
      <trkpt lat="44.89417" lon="1.52798">
        <ele>229.28218078613</ele>
        <time>2020-06-23T19:50:13.523Z</time>
      </trkpt>
      <trkpt lat="44.89454" lon="1.52927">
        <ele>223.05722045898</ele>
        <time>2020-06-23T19:50:18.402Z</time>
      </trkpt>
      <trkpt lat="44.89454" lon="1.52927">
        <ele>223.05722045898</ele>
        <time>2020-06-23T19:50:23.281Z</time>
      </trkpt>
      <trkpt lat="44.89497" lon="1.53083">
        <ele>219.52644348145</ele>
        <time>2020-06-23T19:50:28.179Z</time>
      </trkpt>
      <trkpt lat="44.89594" lon="1.53269">
        <ele>217.29965209961</ele>
        <time>2020-06-23T19:50:33.103Z</time>
      </trkpt>
      <trkpt lat="44.89598" lon="1.53287">
        <ele>217.40100097656</ele>
        <time>2020-06-23T19:50:38.029Z</time>
      </trkpt>
      <trkpt lat="44.896" lon="1.53293">
        <ele>217.43782043457</ele>
        <time>2020-06-23T19:50:42.956Z</time>
      </trkpt>
      <trkpt lat="44.896" lon="1.53293">
        <ele>217.43782043457</ele>
        <time>2020-06-23T19:50:47.883Z</time>
      </trkpt>
      <trkpt lat="44.8962" lon="1.53376">
        <ele>217.87628173828</ele>
        <time>2020-06-23T19:50:52.820Z</time>
      </trkpt>
      <trkpt lat="44.89624" lon="1.53442">
        <ele>218.50329589844</ele>
        <time>2020-06-23T19:50:57.764Z</time>
      </trkpt>
      <trkpt lat="44.89672" lon="1.53672">
        <ele>216.29974365234</ele>
        <time>2020-06-23T19:51:02.736Z</time>
      </trkpt>
      <trkpt lat="44.89682" lon="1.53729">
        <ele>215.17854309082</ele>
        <time>2020-06-23T19:51:07.714Z</time>
      </trkpt>
      <trkpt lat="44.89687" lon="1.53747">
        <ele>215.24446105957</ele>
        <time>2020-06-23T19:51:12.695Z</time>
      </trkpt>
      <trkpt lat="44.89728" lon="1.53806">
        <ele>215.48046875</ele>
        <time>2020-06-23T19:51:17.685Z</time>
      </trkpt>
      <trkpt lat="44.89872" lon="1.53937">
        <ele>215.65689086914</ele>
        <time>2020-06-23T19:51:22.702Z</time>
      </trkpt>
      <trkpt lat="44.89876" lon="1.53949">
        <ele>216.63137817383</ele>
        <time>2020-06-23T19:51:27.721Z</time>
      </trkpt>
      <trkpt lat="44.89874" lon="1.53978">
        <ele>218.61373901367</ele>
        <time>2020-06-23T19:51:32.743Z</time>
      </trkpt>
      <trkpt lat="44.89865" lon="1.5403">
        <ele>220.97593688965</ele>
        <time>2020-06-23T19:51:37.771Z</time>
      </trkpt>
      <trkpt lat="44.8987" lon="1.54062">
        <ele>222.64936828613</ele>
        <time>2020-06-23T19:51:42.803Z</time>
      </trkpt>
      <trkpt lat="44.89915" lon="1.5412">
        <ele>224.75555419922</ele>
        <time>2020-06-23T19:51:47.845Z</time>
      </trkpt>
      <trkpt lat="44.89954" lon="1.54222">
        <ele>222.55683898926</ele>
        <time>2020-06-23T19:51:52.900Z</time>
      </trkpt>
      <trkpt lat="44.89966" lon="1.54324">
        <ele>218.88343811035</ele>
        <time>2020-06-23T19:51:57.967Z</time>
      </trkpt>
      <trkpt lat="44.89969" lon="1.54346">
        <ele>218.45327758789</ele>
        <time>2020-06-23T19:52:03.036Z</time>
      </trkpt>
      <trkpt lat="44.89959" lon="1.54384">
        <ele>217.43644714355</ele>
        <time>2020-06-23T19:52:08.110Z</time>
      </trkpt>
      <trkpt lat="44.89895" lon="1.54485">
        <ele>215.00506591797</ele>
        <time>2020-06-23T19:52:13.199Z</time>
      </trkpt>
      <trkpt lat="44.89895" lon="1.54561">
        <ele>214.58921813965</ele>
        <time>2020-06-23T19:52:18.297Z</time>
      </trkpt>
      <trkpt lat="44.89889" lon="1.54593">
        <ele>214.11543273926</ele>
        <time>2020-06-23T19:52:23.399Z</time>
      </trkpt>
      <trkpt lat="44.898" lon="1.54812">
        <ele>221.4983215332</ele>
        <time>2020-06-23T19:52:28.529Z</time>
      </trkpt>
      <trkpt lat="44.89801" lon="1.54906">
        <ele>225.41226196289</ele>
        <time>2020-06-23T19:52:33.670Z</time>
      </trkpt>
      <trkpt lat="44.89801" lon="1.54912">
        <ele>225.94856262207</ele>
        <time>2020-06-23T19:52:38.812Z</time>
      </trkpt>
      <trkpt lat="44.89801" lon="1.54912">
        <ele>225.94955444336</ele>
        <time>2020-06-23T19:52:43.954Z</time>
      </trkpt>
      <trkpt lat="44.89801" lon="1.54974">
        <ele>229.64294433594</ele>
        <time>2020-06-23T19:52:49.103Z</time>
      </trkpt>
      <trkpt lat="44.89809" lon="1.55016">
        <ele>232.10908508301</ele>
        <time>2020-06-23T19:52:54.257Z</time>
      </trkpt>
      <trkpt lat="44.89812" lon="1.55061">
        <ele>234.85081481934</ele>
        <time>2020-06-23T19:52:59.416Z</time>
      </trkpt>
      <trkpt lat="44.89797" lon="1.55187">
        <ele>242.05567932129</ele>
        <time>2020-06-23T19:53:04.589Z</time>
      </trkpt>
      <trkpt lat="44.89798" lon="1.55239">
        <ele>246.32643127441</ele>
        <time>2020-06-23T19:53:09.768Z</time>
      </trkpt>
      <trkpt lat="44.89808" lon="1.55296">
        <ele>249.36946105957</ele>
        <time>2020-06-23T19:53:14.954Z</time>
      </trkpt>
      <trkpt lat="44.89795" lon="1.5543">
        <ele>255.30210876465</ele>
        <time>2020-06-23T19:53:20.155Z</time>
      </trkpt>
      <trkpt lat="44.89802" lon="1.55543">
        <ele>263.70233154297</ele>
        <time>2020-06-23T19:53:25.369Z</time>
      </trkpt>
      <trkpt lat="44.89789" lon="1.55593">
        <ele>266.41552734375</ele>
        <time>2020-06-23T19:53:30.589Z</time>
      </trkpt>
      <trkpt lat="44.89766" lon="1.55629">
        <ele>264.95288085938</ele>
        <time>2020-06-23T19:53:35.815Z</time>
      </trkpt>
      <trkpt lat="44.89757" lon="1.55669">
        <ele>265.92602539062</ele>
        <time>2020-06-23T19:53:41.046Z</time>
      </trkpt>
      <trkpt lat="44.89713" lon="1.55718">
        <ele>260.63946533203</ele>
        <time>2020-06-23T19:53:46.286Z</time>
      </trkpt>
      <trkpt lat="44.897" lon="1.55788">
        <ele>258.9387512207</ele>
        <time>2020-06-23T19:53:51.534Z</time>
      </trkpt>
      <trkpt lat="44.8969" lon="1.55849">
        <ele>259.53048706055</ele>
        <time>2020-06-23T19:53:56.789Z</time>
      </trkpt>
      <trkpt lat="44.89653" lon="1.55898">
        <ele>259.86389160156</ele>
        <time>2020-06-23T19:54:02.052Z</time>
      </trkpt>
      <trkpt lat="44.89653" lon="1.55898">
        <ele>259.86419677734</ele>
        <time>2020-06-23T19:54:07.315Z</time>
      </trkpt>
      <trkpt lat="44.89648" lon="1.55911">
        <ele>259.37860107422</ele>
        <time>2020-06-23T19:54:12.580Z</time>
      </trkpt>
      <trkpt lat="44.89645" lon="1.56003">
        <ele>259.31033325195</ele>
        <time>2020-06-23T19:54:17.855Z</time>
      </trkpt>
      <trkpt lat="44.89584" lon="1.56137">
        <ele>247.96621704102</ele>
        <time>2020-06-23T19:54:23.148Z</time>
      </trkpt>
      <trkpt lat="44.89581" lon="1.56143">
        <ele>247.16316223145</ele>
        <time>2020-06-23T19:54:28.442Z</time>
      </trkpt>
      <trkpt lat="44.89581" lon="1.56143">
        <ele>247.16195678711</ele>
        <time>2020-06-23T19:54:33.736Z</time>
      </trkpt>
      <trkpt lat="44.89548" lon="1.56217">
        <ele>232.50054931641</ele>
        <time>2020-06-23T19:54:39.040Z</time>
      </trkpt>
      <trkpt lat="44.89534" lon="1.56232">
        <ele>230.21220397949</ele>
        <time>2020-06-23T19:54:44.347Z</time>
      </trkpt>
      <trkpt lat="44.8949" lon="1.56241">
        <ele>234.48550415039</ele>
        <time>2020-06-23T19:54:49.661Z</time>
      </trkpt>
      <trkpt lat="44.89446" lon="1.56296">
        <ele>227.69114685059</ele>
        <time>2020-06-23T19:54:54.984Z</time>
      </trkpt>
      <trkpt lat="44.8935" lon="1.56438">
        <ele>199.5295715332</ele>
        <time>2020-06-23T19:55:00.330Z</time>
      </trkpt>
      <trkpt lat="44.89273" lon="1.56593">
        <ele>170.40235900879</ele>
        <time>2020-06-23T19:55:05.697Z</time>
      </trkpt>
      <trkpt lat="44.89243" lon="1.56637">
        <ele>165.66273498535</ele>
        <time>2020-06-23T19:55:11.071Z</time>
      </trkpt>
      <trkpt lat="44.891" lon="1.56777">
        <ele>154.78021240234</ele>
        <time>2020-06-23T19:55:16.473Z</time>
      </trkpt>
      <trkpt lat="44.891" lon="1.56777">
        <ele>154.78082275391</ele>
        <time>2020-06-23T19:55:21.875Z</time>
      </trkpt>
      <trkpt lat="44.8906" lon="1.56803">
        <ele>153.94602966309</ele>
        <time>2020-06-23T19:55:27.284Z</time>
      </trkpt>
      <trkpt lat="44.88992" lon="1.5682">
        <ele>151.5146484375</ele>
        <time>2020-06-23T19:55:32.704Z</time>
      </trkpt>
      <trkpt lat="44.88965" lon="1.5684">
        <ele>149.21966552734</ele>
        <time>2020-06-23T19:55:38.129Z</time>
      </trkpt>
      <trkpt lat="44.8886" lon="1.56844">
        <ele>147.2253112793</ele>
        <time>2020-06-23T19:55:43.571Z</time>
      </trkpt>
      <trkpt lat="44.88735" lon="1.56928">
        <ele>141.37927246094</ele>
        <time>2020-06-23T19:55:49.035Z</time>
      </trkpt>
      <trkpt lat="44.88626" lon="1.56941">
        <ele>140.55587768555</ele>
        <time>2020-06-23T19:55:54.516Z</time>
      </trkpt>
      <trkpt lat="44.88614" lon="1.56951">
        <ele>139.70753479004</ele>
        <time>2020-06-23T19:56:00.000Z</time>
      </trkpt>
      <trkpt lat="44.88609" lon="1.56966">
        <ele>139.21838378906</ele>
        <time>2020-06-23T19:56:05.486Z</time>
      </trkpt>
      <trkpt lat="44.88609" lon="1.56986">
        <ele>139.27481079102</ele>
        <time>2020-06-23T19:56:10.974Z</time>
      </trkpt>
      <trkpt lat="44.88609" lon="1.56993">
        <ele>139.10615539551</ele>
        <time>2020-06-23T19:56:16.463Z</time>
      </trkpt>
      <trkpt lat="44.88609" lon="1.56993">
        <ele>139.10595703125</ele>
        <time>2020-06-23T19:56:21.952Z</time>
      </trkpt>
      <trkpt lat="44.88607" lon="1.57106">
        <ele>134.63989257812</ele>
        <time>2020-06-23T19:56:27.453Z</time>
      </trkpt>
      <trkpt lat="44.88607" lon="1.57106">
        <ele>134.63980102539</ele>
        <time>2020-06-23T19:56:32.954Z</time>
      </trkpt>
      <trkpt lat="44.8869" lon="1.57193">
        <ele>128.93898010254</ele>
        <time>2020-06-23T19:56:38.472Z</time>
      </trkpt>
      <trkpt lat="44.8869" lon="1.57193">
        <ele>128.93867492676</ele>
        <time>2020-06-23T19:56:43.990Z</time>
      </trkpt>
      <trkpt lat="44.88772" lon="1.57261">
        <ele>127.95886230469</ele>
        <time>2020-06-23T19:56:49.523Z</time>
      </trkpt>
      <trkpt lat="44.88808" lon="1.57326">
        <ele>119.96367645264</ele>
        <time>2020-06-23T19:56:55.066Z</time>
      </trkpt>
      <trkpt lat="44.88853" lon="1.57331">
        <ele>118.84377288818</ele>
        <time>2020-06-23T19:57:00.616Z</time>
      </trkpt>
      <trkpt lat="44.88883" lon="1.57356">
        <ele>116.1649017334</ele>
        <time>2020-06-23T19:57:06.171Z</time>
      </trkpt>
      <trkpt lat="44.88908" lon="1.57356">
        <ele>116.75703430176</ele>
        <time>2020-06-23T19:57:11.730Z</time>
      </trkpt>
      <trkpt lat="44.8899" lon="1.574">
        <ele>112.35846710205</ele>
        <time>2020-06-23T19:57:17.303Z</time>
      </trkpt>
      <trkpt lat="44.89031" lon="1.57395">
        <ele>111.79207611084</ele>
        <time>2020-06-23T19:57:22.883Z</time>
      </trkpt>
      <trkpt lat="44.89049" lon="1.5741">
        <ele>111.13182830811</ele>
        <time>2020-06-23T19:57:28.466Z</time>
      </trkpt>
      <trkpt lat="44.89066" lon="1.57455">
        <ele>110.6519241333</ele>
        <time>2020-06-23T19:57:34.055Z</time>
      </trkpt>
      <trkpt lat="44.89118" lon="1.57513">
        <ele>110.0832824707</ele>
        <time>2020-06-23T19:57:39.655Z</time>
      </trkpt>
      <trkpt lat="44.89128" lon="1.57533">
        <ele>109.98109436035</ele>
        <time>2020-06-23T19:57:45.257Z</time>
      </trkpt>
      <trkpt lat="44.89131" lon="1.57538">
        <ele>110.17617034912</ele>
        <time>2020-06-23T19:57:50.860Z</time>
      </trkpt>
      <trkpt lat="44.89131" lon="1.57538">
        <ele>110.17516326904</ele>
        <time>2020-06-23T19:57:56.463Z</time>
      </trkpt>
      <trkpt lat="44.89174" lon="1.57618">
        <ele>107.60382080078</ele>
        <time>2020-06-23T19:58:02.078Z</time>
      </trkpt>
      <trkpt lat="44.89244" lon="1.57687">
        <ele>108.0997467041</ele>
        <time>2020-06-23T19:58:07.706Z</time>
      </trkpt>
      <trkpt lat="44.89363" lon="1.57757">
        <ele>113.51194763184</ele>
        <time>2020-06-23T19:58:13.355Z</time>
      </trkpt>
      <trkpt lat="44.89392" lon="1.5778">
        <ele>111.86852264404</ele>
        <time>2020-06-23T19:58:19.009Z</time>
      </trkpt>
      <trkpt lat="44.89409" lon="1.57803">
        <ele>109.01103973389</ele>
        <time>2020-06-23T19:58:24.667Z</time>
      </trkpt>
      <trkpt lat="44.89429" lon="1.57876">
        <ele>105.27765655518</ele>
        <time>2020-06-23T19:58:30.334Z</time>
      </trkpt>
      <trkpt lat="44.8943" lon="1.57907">
        <ele>104.54392242432</ele>
        <time>2020-06-23T19:58:36.004Z</time>
      </trkpt>
      <trkpt lat="44.89429" lon="1.57919">
        <ele>104.24785614014</ele>
        <time>2020-06-23T19:58:41.676Z</time>
      </trkpt>
      <trkpt lat="44.89401" lon="1.58006">
        <ele>103</ele>
        <time>2020-06-23T19:58:47.359Z</time>
      </trkpt>
      <trkpt lat="44.89307" lon="1.58133">
        <ele>102.98429870605</ele>
        <time>2020-06-23T19:58:53.063Z</time>
      </trkpt>
      <trkpt lat="44.89273" lon="1.5819">
        <ele>103.73403167725</ele>
        <time>2020-06-23T19:58:58.775Z</time>
      </trkpt>
      <trkpt lat="44.89162" lon="1.58621">
        <ele>109.59802246094</ele>
        <time>2020-06-23T19:59:04.539Z</time>
      </trkpt>
      <trkpt lat="44.89108" lon="1.58759">
        <ele>106.10209655762</ele>
        <time>2020-06-23T19:59:10.321Z</time>
      </trkpt>
      <trkpt lat="44.89105" lon="1.58765">
        <ele>106.14454650879</ele>
        <time>2020-06-23T19:59:16.104Z</time>
      </trkpt>
      <trkpt lat="44.89105" lon="1.58765">
        <ele>106.14434814453</ele>
        <time>2020-06-23T19:59:21.887Z</time>
      </trkpt>
      <trkpt lat="44.89096" lon="1.58788">
        <ele>106.31349945068</ele>
        <time>2020-06-23T19:59:27.673Z</time>
      </trkpt>
      <trkpt lat="44.89096" lon="1.58887">
        <ele>107.24126434326</ele>
        <time>2020-06-23T19:59:33.470Z</time>
      </trkpt>
      <trkpt lat="44.89108" lon="1.58943">
        <ele>108.91760253906</ele>
        <time>2020-06-23T19:59:39.274Z</time>
      </trkpt>
      <trkpt lat="44.89098" lon="1.58985">
        <ele>108.35489654541</ele>
        <time>2020-06-23T19:59:45.083Z</time>
      </trkpt>
      <trkpt lat="44.89086" lon="1.59013">
        <ele>108.97277832031</ele>
        <time>2020-06-23T19:59:50.896Z</time>
      </trkpt>
      <trkpt lat="44.89043" lon="1.59067">
        <ele>105.35057067871</ele>
        <time>2020-06-23T19:59:56.718Z</time>
      </trkpt>
      <trkpt lat="44.89005" lon="1.59181">
        <ele>109.54051208496</ele>
        <time>2020-06-23T20:00:02.554Z</time>
      </trkpt>
      <trkpt lat="44.88936" lon="1.59303">
        <ele>108.97975921631</ele>
        <time>2020-06-23T20:00:08.408Z</time>
      </trkpt>
      <trkpt lat="44.88842" lon="1.59414">
        <ele>106.64874267578</ele>
        <time>2020-06-23T20:00:14.282Z</time>
      </trkpt>
      <trkpt lat="44.88815" lon="1.59436">
        <ele>106.88925933838</ele>
        <time>2020-06-23T20:00:20.160Z</time>
      </trkpt>
      <trkpt lat="44.88811" lon="1.5944">
        <ele>106.85224914551</ele>
        <time>2020-06-23T20:00:26.039Z</time>
      </trkpt>
      <trkpt lat="44.88811" lon="1.5944">
        <ele>106.85265350342</ele>
        <time>2020-06-23T20:00:31.918Z</time>
      </trkpt>
      <trkpt lat="44.88765" lon="1.59478">
        <ele>107.74045562744</ele>
        <time>2020-06-23T20:00:37.806Z</time>
      </trkpt>
      <trkpt lat="44.88752" lon="1.59543">
        <ele>108.69870758057</ele>
        <time>2020-06-23T20:00:43.702Z</time>
      </trkpt>
      <trkpt lat="44.88704" lon="1.59584">
        <ele>108.84635925293</ele>
        <time>2020-06-23T20:00:49.607Z</time>
      </trkpt>
      <trkpt lat="44.88665" lon="1.5961">
        <ele>109.00093078613</ele>
        <time>2020-06-23T20:00:55.518Z</time>
      </trkpt>
      <trkpt lat="44.88659" lon="1.59643">
        <ele>110.09112548828</ele>
        <time>2020-06-23T20:01:01.433Z</time>
      </trkpt>
      <trkpt lat="44.88637" lon="1.59661">
        <ele>111.0998840332</ele>
        <time>2020-06-23T20:01:07.352Z</time>
      </trkpt>
      <trkpt lat="44.88637" lon="1.59661">
        <ele>111.10028076172</ele>
        <time>2020-06-23T20:01:13.271Z</time>
      </trkpt>
      <trkpt lat="44.88631" lon="1.59676">
        <ele>110.43519592285</ele>
        <time>2020-06-23T20:01:19.192Z</time>
      </trkpt>
      <trkpt lat="44.8863" lon="1.597">
        <ele>109.04285430908</ele>
        <time>2020-06-23T20:01:25.116Z</time>
      </trkpt>
      <trkpt lat="44.8863" lon="1.59707">
        <ele>108.63314819336</ele>
        <time>2020-06-23T20:01:31.041Z</time>
      </trkpt>
      <trkpt lat="44.8863" lon="1.59706">
        <ele>108.63465881348</ele>
        <time>2020-06-23T20:01:36.966Z</time>
      </trkpt>
      <trkpt lat="44.88629" lon="1.59733">
        <ele>107.04963684082</ele>
        <time>2020-06-23T20:01:42.894Z</time>
      </trkpt>
      <trkpt lat="44.88647" lon="1.59735">
        <ele>106.71942901611</ele>
        <time>2020-06-23T20:01:48.825Z</time>
      </trkpt>
      <trkpt lat="44.88634" lon="1.59873">
        <ele>107.38692474365</ele>
        <time>2020-06-23T20:01:54.772Z</time>
      </trkpt>
      <trkpt lat="44.88647" lon="1.59896">
        <ele>107.85033416748</ele>
        <time>2020-06-23T20:02:00.722Z</time>
      </trkpt>
      <trkpt lat="44.88653" lon="1.59955">
        <ele>109.72657012939</ele>
        <time>2020-06-23T20:02:06.679Z</time>
      </trkpt>
      <trkpt lat="44.88664" lon="1.59963">
        <ele>110.42168426514</ele>
        <time>2020-06-23T20:02:12.638Z</time>
      </trkpt>
      <trkpt lat="44.88669" lon="1.6">
        <ele>111.21506500244</ele>
        <time>2020-06-23T20:02:18.601Z</time>
      </trkpt>
      <trkpt lat="44.88669" lon="1.6">
        <ele>111.21546173096</ele>
        <time>2020-06-23T20:02:24.564Z</time>
      </trkpt>
      <trkpt lat="44.88678" lon="1.60083">
        <ele>112.31349182129</ele>
        <time>2020-06-23T20:02:30.536Z</time>
      </trkpt>
      <trkpt lat="44.88695" lon="1.60211">
        <ele>113.57342529297</ele>
        <time>2020-06-23T20:02:36.523Z</time>
      </trkpt>
      <trkpt lat="44.88696" lon="1.60218">
        <ele>113.66250610352</ele>
        <time>2020-06-23T20:02:42.511Z</time>
      </trkpt>
      <trkpt lat="44.88696" lon="1.60218">
        <ele>113.6628112793</ele>
        <time>2020-06-23T20:02:48.499Z</time>
      </trkpt>
      <trkpt lat="44.88725" lon="1.60439">
        <ele>117.6703414917</ele>
        <time>2020-06-23T20:02:54.513Z</time>
      </trkpt>
      <trkpt lat="44.88751" lon="1.60528">
        <ele>120.59455871582</ele>
        <time>2020-06-23T20:03:00.538Z</time>
      </trkpt>
      <trkpt lat="44.88797" lon="1.60603">
        <ele>123.41669464111</ele>
        <time>2020-06-23T20:03:06.574Z</time>
      </trkpt>
      <trkpt lat="44.88884" lon="1.60782">
        <ele>125.12825775146</ele>
        <time>2020-06-23T20:03:12.635Z</time>
      </trkpt>
      <trkpt lat="44.88953" lon="1.60865">
        <ele>125.95209503174</ele>
        <time>2020-06-23T20:03:18.710Z</time>
      </trkpt>
      <trkpt lat="44.88964" lon="1.60889">
        <ele>126.17504882812</ele>
        <time>2020-06-23T20:03:24.788Z</time>
      </trkpt>
      <trkpt lat="44.88967" lon="1.60894">
        <ele>126.24128723145</ele>
        <time>2020-06-23T20:03:30.867Z</time>
      </trkpt>
      <trkpt lat="44.88967" lon="1.60894">
        <ele>126.2414855957</ele>
        <time>2020-06-23T20:03:36.946Z</time>
      </trkpt>
      <trkpt lat="44.89017" lon="1.60999">
        <ele>124.50701904297</ele>
        <time>2020-06-23T20:03:43.039Z</time>
      </trkpt>
      <trkpt lat="44.89043" lon="1.61035">
        <ele>121.18592834473</ele>
        <time>2020-06-23T20:03:49.138Z</time>
      </trkpt>
      <trkpt lat="44.89092" lon="1.6103">
        <ele>123.56280517578</ele>
        <time>2020-06-23T20:03:55.245Z</time>
      </trkpt>
      <trkpt lat="44.89153" lon="1.61013">
        <ele>127.37684631348</ele>
        <time>2020-06-23T20:04:01.362Z</time>
      </trkpt>
      <trkpt lat="44.89311" lon="1.61003">
        <ele>132.26455688477</ele>
        <time>2020-06-23T20:04:07.504Z</time>
      </trkpt>
      <trkpt lat="44.89404" lon="1.60958">
        <ele>138</ele>
        <time>2020-06-23T20:04:13.662Z</time>
      </trkpt>
      <trkpt lat="44.89478" lon="1.60953">
        <ele>135.01713562012</ele>
        <time>2020-06-23T20:04:19.832Z</time>
      </trkpt>
      <trkpt lat="44.89603" lon="1.60895">
        <ele>130.8247833252</ele>
        <time>2020-06-23T20:04:26.023Z</time>
      </trkpt>
      <trkpt lat="44.89796" lon="1.6084">
        <ele>129.95397949219</ele>
        <time>2020-06-23T20:04:32.246Z</time>
      </trkpt>
      <trkpt lat="44.89796" lon="1.6084">
        <ele>129.95397949219</ele>
        <time>2020-06-23T20:04:38.469Z</time>
      </trkpt>
      <trkpt lat="44.90008" lon="1.60948">
        <ele>132.92561340332</ele>
        <time>2020-06-23T20:04:44.728Z</time>
      </trkpt>
      <trkpt lat="44.90038" lon="1.60944">
        <ele>134.40635681152</ele>
        <time>2020-06-23T20:04:50.991Z</time>
      </trkpt>
      <trkpt lat="44.90069" lon="1.60949">
        <ele>136.55230712891</ele>
        <time>2020-06-23T20:04:57.259Z</time>
      </trkpt>
      <trkpt lat="44.90099" lon="1.60968">
        <ele>138.48318481445</ele>
        <time>2020-06-23T20:05:03.533Z</time>
      </trkpt>
      <trkpt lat="44.90143" lon="1.61025">
        <ele>133.82855224609</ele>
        <time>2020-06-23T20:05:09.816Z</time>
      </trkpt>
      <trkpt lat="44.90237" lon="1.61098">
        <ele>124.73679351807</ele>
        <time>2020-06-23T20:05:16.116Z</time>
      </trkpt>
      <trkpt lat="44.90241" lon="1.61102">
        <ele>124.44125366211</ele>
        <time>2020-06-23T20:05:22.417Z</time>
      </trkpt>
      <trkpt lat="44.90241" lon="1.61102">
        <ele>124.43944549561</ele>
        <time>2020-06-23T20:05:28.718Z</time>
      </trkpt>
      <trkpt lat="44.90357" lon="1.61193">
        <ele>121.04944610596</ele>
        <time>2020-06-23T20:05:35.040Z</time>
      </trkpt>
      <trkpt lat="44.90408" lon="1.61201">
        <ele>127.60729980469</ele>
        <time>2020-06-23T20:05:41.371Z</time>
      </trkpt>
      <trkpt lat="44.90436" lon="1.61228">
        <ele>121.95629119873</ele>
        <time>2020-06-23T20:05:47.707Z</time>
      </trkpt>
      <trkpt lat="44.90511" lon="1.61356">
        <ele>114.31596374512</ele>
        <time>2020-06-23T20:05:54.062Z</time>
      </trkpt>
      <trkpt lat="44.90722" lon="1.61646">
        <ele>121.0403137207</ele>
        <time>2020-06-23T20:06:00.464Z</time>
      </trkpt>
      <trkpt lat="44.90833" lon="1.61828">
        <ele>114.22447967529</ele>
        <time>2020-06-23T20:06:06.894Z</time>
      </trkpt>
      <trkpt lat="44.90937" lon="1.62009">
        <ele>123.36553192139</ele>
        <time>2020-06-23T20:06:13.350Z</time>
      </trkpt>
      <trkpt lat="44.90978" lon="1.62164">
        <ele>127.92282867432</ele>
        <time>2020-06-23T20:06:19.825Z</time>
      </trkpt>
      <trkpt lat="44.90996" lon="1.62217">
        <ele>131.23153686523</ele>
        <time>2020-06-23T20:06:26.306Z</time>
      </trkpt>
      <trkpt lat="44.91022" lon="1.62264">
        <ele>135.84846496582</ele>
        <time>2020-06-23T20:06:32.794Z</time>
      </trkpt>
      <trkpt lat="44.91048" lon="1.62369">
        <ele>126.33792114258</ele>
        <time>2020-06-23T20:06:39.295Z</time>
      </trkpt>
      <trkpt lat="44.91066" lon="1.62494">
        <ele>117.49395751953</ele>
        <time>2020-06-23T20:06:45.810Z</time>
      </trkpt>
      <trkpt lat="44.9107" lon="1.62504">
        <ele>118.06842803955</ele>
        <time>2020-06-23T20:06:52.327Z</time>
      </trkpt>
      <trkpt lat="44.91073" lon="1.6251">
        <ele>118.41574859619</ele>
        <time>2020-06-23T20:06:58.844Z</time>
      </trkpt>
      <trkpt lat="44.91073" lon="1.6251">
        <ele>118.41493988037</ele>
        <time>2020-06-23T20:07:05.361Z</time>
      </trkpt>
      <trkpt lat="44.91095" lon="1.62563">
        <ele>122.89157104492</ele>
        <time>2020-06-23T20:07:11.886Z</time>
      </trkpt>
      <trkpt lat="44.91097" lon="1.62588">
        <ele>121.98244476318</ele>
        <time>2020-06-23T20:07:18.413Z</time>
      </trkpt>
      <trkpt lat="44.91107" lon="1.62649">
        <ele>121.49328613281</ele>
        <time>2020-06-23T20:07:24.948Z</time>
      </trkpt>
      <trkpt lat="44.91122" lon="1.62768">
        <ele>121.2100982666</ele>
        <time>2020-06-23T20:07:31.496Z</time>
      </trkpt>
      <trkpt lat="44.91123" lon="1.62827">
        <ele>118.82946777344</ele>
        <time>2020-06-23T20:07:38.051Z</time>
      </trkpt>
      <trkpt lat="44.91128" lon="1.62841">
        <ele>120.62683868408</ele>
        <time>2020-06-23T20:07:44.608Z</time>
      </trkpt>
      <trkpt lat="44.91136" lon="1.62914">
        <ele>121.86456298828</ele>
        <time>2020-06-23T20:07:51.173Z</time>
      </trkpt>
      <trkpt lat="44.91143" lon="1.63032">
        <ele>122.36724853516</ele>
        <time>2020-06-23T20:07:57.752Z</time>
      </trkpt>
      <trkpt lat="44.91137" lon="1.63211">
        <ele>119.20836639404</ele>
        <time>2020-06-23T20:08:04.351Z</time>
      </trkpt>
      <trkpt lat="44.9114" lon="1.63224">
        <ele>119.82263183594</ele>
        <time>2020-06-23T20:08:10.951Z</time>
      </trkpt>
      <trkpt lat="44.91141" lon="1.6323">
        <ele>120.16374969482</ele>
        <time>2020-06-23T20:08:17.552Z</time>
      </trkpt>
      <trkpt lat="44.91141" lon="1.6323">
        <ele>120.16374969482</ele>
        <time>2020-06-23T20:08:24.153Z</time>
      </trkpt>
      <trkpt lat="44.91161" lon="1.63323">
        <ele>125.42967987061</ele>
        <time>2020-06-23T20:08:30.765Z</time>
      </trkpt>
      <trkpt lat="44.91116" lon="1.63418">
        <ele>124.99977111816</ele>
        <time>2020-06-23T20:08:37.390Z</time>
      </trkpt>
      <trkpt lat="44.91034" lon="1.63643">
        <ele>123.31145477295</ele>
        <time>2020-06-23T20:08:44.044Z</time>
      </trkpt>
      <trkpt lat="44.91036" lon="1.63666">
        <ele>124.51044464111</ele>
        <time>2020-06-23T20:08:50.701Z</time>
      </trkpt>
      <trkpt lat="44.91025" lon="1.6368">
        <ele>124.22624206543</ele>
        <time>2020-06-23T20:08:57.360Z</time>
      </trkpt>
      <trkpt lat="44.91026" lon="1.63703">
        <ele>125.97689819336</ele>
        <time>2020-06-23T20:09:04.022Z</time>
      </trkpt>
      <trkpt lat="44.90973" lon="1.63764">
        <ele>122.52069854736</ele>
        <time>2020-06-23T20:09:10.695Z</time>
      </trkpt>
      <trkpt lat="44.90965" lon="1.63788">
        <ele>124.8762588501</ele>
        <time>2020-06-23T20:09:17.371Z</time>
      </trkpt>
      <trkpt lat="44.90967" lon="1.6379">
        <ele>125.06784820557</ele>
        <time>2020-06-23T20:09:24.047Z</time>
      </trkpt>
      <trkpt lat="44.9097" lon="1.63795">
        <ele>125.5319519043</ele>
        <time>2020-06-23T20:09:30.724Z</time>
      </trkpt>
      <trkpt lat="44.9097" lon="1.63795">
        <ele>125.53185272217</ele>
        <time>2020-06-23T20:09:37.401Z</time>
      </trkpt>
      <trkpt lat="44.90975" lon="1.63803">
        <ele>126.20222473145</ele>
        <time>2020-06-23T20:09:44.079Z</time>
      </trkpt>
      <trkpt lat="44.90984" lon="1.63805">
        <ele>126.30520629883</ele>
        <time>2020-06-23T20:09:50.758Z</time>
      </trkpt>
      <trkpt lat="44.91048" lon="1.63752">
        <ele>128.30387878418</ele>
        <time>2020-06-23T20:09:57.449Z</time>
      </trkpt>
      <trkpt lat="44.91144" lon="1.63733">
        <ele>132.09294128418</ele>
        <time>2020-06-23T20:10:04.156Z</time>
      </trkpt>
      <trkpt lat="44.91216" lon="1.63706">
        <ele>138.66117858887</ele>
        <time>2020-06-23T20:10:10.875Z</time>
      </trkpt>
      <trkpt lat="44.91319" lon="1.63701">
        <ele>137.22148132324</ele>
        <time>2020-06-23T20:10:17.610Z</time>
      </trkpt>
      <trkpt lat="44.91324" lon="1.637">
        <ele>137.3526763916</ele>
        <time>2020-06-23T20:10:24.346Z</time>
      </trkpt>
      <trkpt lat="44.91324" lon="1.637">
        <ele>137.3526763916</ele>
        <time>2020-06-23T20:10:31.082Z</time>
      </trkpt>
      <trkpt lat="44.91608" lon="1.63686">
        <ele>155.28118896484</ele>
        <time>2020-06-23T20:10:37.863Z</time>
      </trkpt>
      <trkpt lat="44.91608" lon="1.63686">
        <ele>155.27978515625</ele>
        <time>2020-06-23T20:10:44.644Z</time>
      </trkpt>
      <trkpt lat="44.91633" lon="1.6369">
        <ele>150.08023071289</ele>
        <time>2020-06-23T20:10:51.429Z</time>
      </trkpt>
      <trkpt lat="44.91722" lon="1.63677">
        <ele>159.12106323242</ele>
        <time>2020-06-23T20:10:58.229Z</time>
      </trkpt>
      <trkpt lat="44.91899" lon="1.63702">
        <ele>146.15766906738</ele>
        <time>2020-06-23T20:11:05.057Z</time>
      </trkpt>
      <trkpt lat="44.92114" lon="1.63793">
        <ele>127.9236907959</ele>
        <time>2020-06-23T20:11:11.921Z</time>
      </trkpt>
      <trkpt lat="44.92122" lon="1.63798">
        <ele>127.97518157959</ele>
        <time>2020-06-23T20:11:18.787Z</time>
      </trkpt>
      <trkpt lat="44.92258" lon="1.63926">
        <ele>116.10520935059</ele>
        <time>2020-06-23T20:11:25.679Z</time>
      </trkpt>
      <trkpt lat="44.92435" lon="1.64105">
        <ele>118.55545043945</ele>
        <time>2020-06-23T20:11:32.606Z</time>
      </trkpt>
      <trkpt lat="44.92466" lon="1.6415">
        <ele>117.13925933838</ele>
        <time>2020-06-23T20:11:39.540Z</time>
      </trkpt>
      <trkpt lat="44.92511" lon="1.64254">
        <ele>115.44262695312</ele>
        <time>2020-06-23T20:11:46.488Z</time>
      </trkpt>
      <trkpt lat="44.9261" lon="1.64367">
        <ele>116.24681091309</ele>
        <time>2020-06-23T20:11:53.456Z</time>
      </trkpt>
      <trkpt lat="44.92674" lon="1.6444">
        <ele>116.34871673584</ele>
        <time>2020-06-23T20:12:00.437Z</time>
      </trkpt>
      <trkpt lat="44.92697" lon="1.64458">
        <ele>117.86469268799</ele>
        <time>2020-06-23T20:12:07.422Z</time>
      </trkpt>
      <trkpt lat="44.92701" lon="1.64462">
        <ele>118.16222381592</ele>
        <time>2020-06-23T20:12:14.408Z</time>
      </trkpt>
      <trkpt lat="44.92701" lon="1.64462">
        <ele>118.1625289917</ele>
        <time>2020-06-23T20:12:21.394Z</time>
      </trkpt>
      <trkpt lat="44.92751" lon="1.64503">
        <ele>119.06272888184</ele>
        <time>2020-06-23T20:12:28.389Z</time>
      </trkpt>
      <trkpt lat="44.92814" lon="1.64515">
        <ele>125.41471862793</ele>
        <time>2020-06-23T20:12:35.395Z</time>
      </trkpt>
      <trkpt lat="44.92843" lon="1.64541">
        <ele>123.83140563965</ele>
        <time>2020-06-23T20:12:42.406Z</time>
      </trkpt>
      <trkpt lat="44.92843" lon="1.64541">
        <ele>123.83210754395</ele>
        <time>2020-06-23T20:12:49.417Z</time>
      </trkpt>
      <trkpt lat="44.92878" lon="1.64571">
        <ele>122.66729736328</ele>
        <time>2020-06-23T20:12:56.435Z</time>
      </trkpt>
      <trkpt lat="44.92887" lon="1.64601">
        <ele>121.74464416504</ele>
        <time>2020-06-23T20:13:03.456Z</time>
      </trkpt>
      <trkpt lat="44.9291" lon="1.64647">
        <ele>122.10376739502</ele>
        <time>2020-06-23T20:13:10.484Z</time>
      </trkpt>
      <trkpt lat="44.93021" lon="1.64798">
        <ele>122.41973876953</ele>
        <time>2020-06-23T20:13:17.536Z</time>
      </trkpt>
      <trkpt lat="44.93063" lon="1.64861">
        <ele>121.60497283936</ele>
        <time>2020-06-23T20:13:24.598Z</time>
      </trkpt>
      <trkpt lat="44.93203" lon="1.6513">
        <ele>114.53985595703</ele>
        <time>2020-06-23T20:13:31.698Z</time>
      </trkpt>
      <trkpt lat="44.93287" lon="1.65186">
        <ele>119.28482818604</ele>
        <time>2020-06-23T20:13:38.813Z</time>
      </trkpt>
      <trkpt lat="44.93314" lon="1.65213">
        <ele>120.68711853027</ele>
        <time>2020-06-23T20:13:45.933Z</time>
      </trkpt>
      <trkpt lat="44.93362" lon="1.65297">
        <ele>118.0998916626</ele>
        <time>2020-06-23T20:13:53.066Z</time>
      </trkpt>
      <trkpt lat="44.93402" lon="1.65399">
        <ele>123.34936523438</ele>
        <time>2020-06-23T20:14:00.212Z</time>
      </trkpt>
      <trkpt lat="44.93417" lon="1.65505">
        <ele>120.83438110352</ele>
        <time>2020-06-23T20:14:07.370Z</time>
      </trkpt>
      <trkpt lat="44.93452" lon="1.65564">
        <ele>118.00244140625</ele>
        <time>2020-06-23T20:14:14.537Z</time>
      </trkpt>
      <trkpt lat="44.93543" lon="1.65652">
        <ele>121.72180938721</ele>
        <time>2020-06-23T20:14:21.722Z</time>
      </trkpt>
      <trkpt lat="44.93577" lon="1.657">
        <ele>120.44291687012</ele>
        <time>2020-06-23T20:14:28.914Z</time>
      </trkpt>
      <trkpt lat="44.93615" lon="1.65781">
        <ele>119.54965209961</ele>
        <time>2020-06-23T20:14:36.117Z</time>
      </trkpt>
      <trkpt lat="44.93696" lon="1.65894">
        <ele>118.93482208252</ele>
        <time>2020-06-23T20:14:43.339Z</time>
      </trkpt>
      <trkpt lat="44.937" lon="1.65899">
        <ele>118.90087127686</ele>
        <time>2020-06-23T20:14:50.561Z</time>
      </trkpt>
      <trkpt lat="44.937" lon="1.65899">
        <ele>118.90087127686</ele>
        <time>2020-06-23T20:14:57.783Z</time>
      </trkpt>
      <trkpt lat="44.93757" lon="1.65979">
        <ele>118.29248046875</ele>
        <time>2020-06-23T20:15:05.018Z</time>
      </trkpt>
      <trkpt lat="44.93844" lon="1.66066">
        <ele>118.37190246582</ele>
        <time>2020-06-23T20:15:12.270Z</time>
      </trkpt>
      <trkpt lat="44.93903" lon="1.66102">
        <ele>118.83588409424</ele>
        <time>2020-06-23T20:15:19.533Z</time>
      </trkpt>
      <trkpt lat="44.9396" lon="1.66143">
        <ele>118.09387207031</ele>
        <time>2020-06-23T20:15:26.806Z</time>
      </trkpt>
      <trkpt lat="44.93946" lon="1.66197">
        <ele>117</ele>
        <time>2020-06-23T20:15:34.085Z</time>
      </trkpt>
      <trkpt lat="44.93931" lon="1.66228">
        <ele>116.77340698242</ele>
        <time>2020-06-23T20:15:41.369Z</time>
      </trkpt>
      <trkpt lat="44.93931" lon="1.66228">
        <ele>116.77330780029</ele>
        <time>2020-06-23T20:15:48.653Z</time>
      </trkpt>
      <trkpt lat="44.9392" lon="1.66248">
        <ele>116.41287994385</ele>
        <time>2020-06-23T20:15:55.939Z</time>
      </trkpt>
      <trkpt lat="44.93913" lon="1.66278">
        <ele>115.96234130859</ele>
        <time>2020-06-23T20:16:03.229Z</time>
      </trkpt>
      <trkpt lat="44.93916" lon="1.66324">
        <ele>115.34217071533</ele>
        <time>2020-06-23T20:16:10.524Z</time>
      </trkpt>
      <trkpt lat="44.93912" lon="1.66371">
        <ele>113.60942840576</ele>
        <time>2020-06-23T20:16:17.825Z</time>
      </trkpt>
      <trkpt lat="44.93911" lon="1.66378">
        <ele>113.35126495361</ele>
        <time>2020-06-23T20:16:25.126Z</time>
      </trkpt>
      <trkpt lat="44.93911" lon="1.66378">
        <ele>113.35186767578</ele>
        <time>2020-06-23T20:16:32.428Z</time>
      </trkpt>
      <trkpt lat="44.93908" lon="1.66416">
        <ele>112.72931671143</ele>
        <time>2020-06-23T20:16:39.734Z</time>
      </trkpt>
      <trkpt lat="44.93896" lon="1.66478">
        <ele>114.08092498779</ele>
        <time>2020-06-23T20:16:47.047Z</time>
      </trkpt>
      <trkpt lat="44.9389" lon="1.66517">
        <ele>114.36968231201</ele>
        <time>2020-06-23T20:16:54.365Z</time>
      </trkpt>
      <trkpt lat="44.93897" lon="1.66591">
        <ele>115.25788116455</ele>
        <time>2020-06-23T20:17:01.691Z</time>
      </trkpt>
      <trkpt lat="44.9388" lon="1.6681">
        <ele>114.26672363281</ele>
        <time>2020-06-23T20:17:09.042Z</time>
      </trkpt>
      <trkpt lat="44.93879" lon="1.66985">
        <ele>114.98207092285</ele>
        <time>2020-06-23T20:17:16.413Z</time>
      </trkpt>
      <trkpt lat="44.93879" lon="1.66985">
        <ele>114.98207092285</ele>
        <time>2020-06-23T20:17:23.784Z</time>
      </trkpt>
      <trkpt lat="44.93879" lon="1.67001">
        <ele>114.71210479736</ele>
        <time>2020-06-23T20:17:31.157Z</time>
      </trkpt>
      <trkpt lat="44.93878" lon="1.67031">
        <ele>113.9783706665</ele>
        <time>2020-06-23T20:17:38.533Z</time>
      </trkpt>
      <trkpt lat="44.93899" lon="1.6721">
        <ele>116.37057495117</ele>
        <time>2020-06-23T20:17:45.930Z</time>
      </trkpt>
      <trkpt lat="44.93902" lon="1.67229">
        <ele>116.81525421143</ele>
        <time>2020-06-23T20:17:53.329Z</time>
      </trkpt>
      <trkpt lat="44.93902" lon="1.67229">
        <ele>116.81507873535</ele>
        <time>2020-06-23T20:18:00.728Z</time>
      </trkpt>
      <trkpt lat="44.93902" lon="1.67229">
        <ele>116.81527709961</ele>
        <time>2020-06-23T20:18:08.127Z</time>
      </trkpt>
      <trkpt lat="44.9391" lon="1.67266">
        <ele>117.35466003418</ele>
        <time>2020-06-23T20:18:15.531Z</time>
      </trkpt>
      <trkpt lat="44.93923" lon="1.67292">
        <ele>117.66359710693</ele>
        <time>2020-06-23T20:18:22.938Z</time>
      </trkpt>
      <trkpt lat="44.93954" lon="1.67331">
        <ele>117.72024536133</ele>
        <time>2020-06-23T20:18:30.352Z</time>
      </trkpt>
      <trkpt lat="44.9398" lon="1.67406">
        <ele>115.95905303955</ele>
        <time>2020-06-23T20:18:37.775Z</time>
      </trkpt>
      <trkpt lat="44.94029" lon="1.6748">
        <ele>115.13543701172</ele>
        <time>2020-06-23T20:18:45.210Z</time>
      </trkpt>
      <trkpt lat="44.94055" lon="1.67548">
        <ele>115.17350006104</ele>
        <time>2020-06-23T20:18:52.654Z</time>
      </trkpt>
      <trkpt lat="44.94092" lon="1.67699">
        <ele>116.44486999512</ele>
        <time>2020-06-23T20:19:00.116Z</time>
      </trkpt>
      <trkpt lat="44.94088" lon="1.67888">
        <ele>114.67558288574</ele>
        <time>2020-06-23T20:19:07.599Z</time>
      </trkpt>
      <trkpt lat="44.94056" lon="1.68049">
        <ele>115.55896759033</ele>
        <time>2020-06-23T20:19:15.101Z</time>
      </trkpt>
      <trkpt lat="44.94067" lon="1.68187">
        <ele>113</ele>
        <time>2020-06-23T20:19:22.619Z</time>
      </trkpt>
      <trkpt lat="44.94151" lon="1.68357">
        <ele>114.76509857178</ele>
        <time>2020-06-23T20:19:30.161Z</time>
      </trkpt>
      <trkpt lat="44.94134" lon="1.68436">
        <ele>115.22638702393</ele>
        <time>2020-06-23T20:19:37.712Z</time>
      </trkpt>
      <trkpt lat="44.9417" lon="1.68521">
        <ele>117.34901428223</ele>
        <time>2020-06-23T20:19:45.274Z</time>
      </trkpt>
      <trkpt lat="44.9417" lon="1.68521">
        <ele>117.34982299805</ele>
        <time>2020-06-23T20:19:52.836Z</time>
      </trkpt>
      <trkpt lat="44.94207" lon="1.68611">
        <ele>120.97631835938</ele>
        <time>2020-06-23T20:20:00.410Z</time>
      </trkpt>
      <trkpt lat="44.94208" lon="1.68611">
        <ele>120.95251464844</ele>
        <time>2020-06-23T20:20:07.984Z</time>
      </trkpt>
      <trkpt lat="44.9419" lon="1.68631">
        <ele>121.05212402344</ele>
        <time>2020-06-23T20:20:15.562Z</time>
      </trkpt>
      <trkpt lat="44.94179" lon="1.6866">
        <ele>120.64791870117</ele>
        <time>2020-06-23T20:20:23.144Z</time>
      </trkpt>
      <trkpt lat="44.94174" lon="1.68674">
        <ele>119.79605865479</ele>
        <time>2020-06-23T20:20:30.727Z</time>
      </trkpt>
      <trkpt lat="44.94169" lon="1.68677">
        <ele>119.47211456299</ele>
        <time>2020-06-23T20:20:38.311Z</time>
      </trkpt>
      <trkpt lat="44.94157" lon="1.68679">
        <ele>118.94420623779</ele>
        <time>2020-06-23T20:20:45.897Z</time>
      </trkpt>
      <trkpt lat="44.94148" lon="1.68678">
        <ele>118.69037628174</ele>
        <time>2020-06-23T20:20:53.485Z</time>
      </trkpt>
      <trkpt lat="44.9413" lon="1.68678">
        <ele>118.47441101074</ele>
        <time>2020-06-23T20:21:01.075Z</time>
      </trkpt>
      <trkpt lat="44.94121" lon="1.68688">
        <ele>118.09001922607</ele>
        <time>2020-06-23T20:21:08.667Z</time>
      </trkpt>
      <trkpt lat="44.9411" lon="1.68703">
        <ele>117.46612548828</ele>
        <time>2020-06-23T20:21:16.262Z</time>
      </trkpt>
      <trkpt lat="44.94103" lon="1.68716">
        <ele>117</ele>
        <time>2020-06-23T20:21:23.859Z</time>
      </trkpt>
      <trkpt lat="44.94091" lon="1.68758">
        <ele>117</ele>
        <time>2020-06-23T20:21:31.461Z</time>
      </trkpt>
      <trkpt lat="44.94069" lon="1.68832">
        <ele>116.85375213623</ele>
        <time>2020-06-23T20:21:39.072Z</time>
      </trkpt>
      <trkpt lat="44.94055" lon="1.68878">
        <ele>115.2488861084</ele>
        <time>2020-06-23T20:21:46.689Z</time>
      </trkpt>
      <trkpt lat="44.94052" lon="1.68896">
        <ele>114.52900695801</ele>
        <time>2020-06-23T20:21:54.308Z</time>
      </trkpt>
      <trkpt lat="44.94049" lon="1.69007">
        <ele>115.39211273193</ele>
        <time>2020-06-23T20:22:01.939Z</time>
      </trkpt>
      <trkpt lat="44.94051" lon="1.69046">
        <ele>116.30395507812</ele>
        <time>2020-06-23T20:22:09.575Z</time>
      </trkpt>
      <trkpt lat="44.94063" lon="1.69074">
        <ele>116.68257141113</ele>
        <time>2020-06-23T20:22:17.214Z</time>
      </trkpt>
      <trkpt lat="44.9407" lon="1.691">
        <ele>116.27657318115</ele>
        <time>2020-06-23T20:22:24.857Z</time>
      </trkpt>
      <trkpt lat="44.94077" lon="1.69147">
        <ele>115.14875793457</ele>
        <time>2020-06-23T20:22:32.505Z</time>
      </trkpt>
      <trkpt lat="44.94078" lon="1.69159">
        <ele>115</ele>
        <time>2020-06-23T20:22:40.154Z</time>
      </trkpt>
      <trkpt lat="44.94083" lon="1.69259">
        <ele>114.50762176514</ele>
        <time>2020-06-23T20:22:47.815Z</time>
      </trkpt>
      <trkpt lat="44.94083" lon="1.69314">
        <ele>114.50762176514</ele>
        <time>2020-06-23T20:22:55.482Z</time>
      </trkpt>
      <trkpt lat="44.9408" lon="1.69333">
        <ele>114.62888336182</ele>
        <time>2020-06-23T20:23:03.151Z</time>
      </trkpt>
      <trkpt lat="44.94074" lon="1.69367">
        <ele>115.13036346436</ele>
        <time>2020-06-23T20:23:10.824Z</time>
      </trkpt>
      <trkpt lat="44.94072" lon="1.69393">
        <ele>115.75425720215</ele>
        <time>2020-06-23T20:23:18.500Z</time>
      </trkpt>
      <trkpt lat="44.94079" lon="1.69471">
        <ele>116.70668029785</ele>
        <time>2020-06-23T20:23:26.185Z</time>
      </trkpt>
      <trkpt lat="44.94084" lon="1.69549">
        <ele>117.48037719727</ele>
        <time>2020-06-23T20:23:33.879Z</time>
      </trkpt>
      <trkpt lat="44.9409" lon="1.69582">
        <ele>117.69789123535</ele>
        <time>2020-06-23T20:23:41.577Z</time>
      </trkpt>
      <trkpt lat="44.94097" lon="1.696">
        <ele>118.04582977295</ele>
        <time>2020-06-23T20:23:49.277Z</time>
      </trkpt>
      <trkpt lat="44.9414" lon="1.69663">
        <ele>118.73356628418</ele>
        <time>2020-06-23T20:23:56.987Z</time>
      </trkpt>
      <trkpt lat="44.94153" lon="1.69689">
        <ele>118.40935516357</ele>
        <time>2020-06-23T20:24:04.701Z</time>
      </trkpt>
      <trkpt lat="44.94164" lon="1.69728">
        <ele>117.26954650879</ele>
        <time>2020-06-23T20:24:12.420Z</time>
      </trkpt>
      <trkpt lat="44.94177" lon="1.69794">
        <ele>117.27087402344</ele>
        <time>2020-06-23T20:24:20.146Z</time>
      </trkpt>
      <trkpt lat="44.9418" lon="1.69827">
        <ele>117.42712402344</ele>
        <time>2020-06-23T20:24:27.876Z</time>
      </trkpt>
      <trkpt lat="44.94179" lon="1.69843">
        <ele>117.59509277344</ele>
        <time>2020-06-23T20:24:35.608Z</time>
      </trkpt>
      <trkpt lat="44.94175" lon="1.69868">
        <ele>117.79906463623</ele>
        <time>2020-06-23T20:24:43.343Z</time>
      </trkpt>
      <trkpt lat="44.94162" lon="1.69919">
        <ele>118.26738739014</ele>
        <time>2020-06-23T20:24:51.084Z</time>
      </trkpt>
      <trkpt lat="44.9414" lon="1.70007">
        <ele>118.51219940186</ele>
        <time>2020-06-23T20:24:58.836Z</time>
      </trkpt>
      <trkpt lat="44.94126" lon="1.7008">
        <ele>117.02353668213</ele>
        <time>2020-06-23T20:25:06.596Z</time>
      </trkpt>
      <trkpt lat="44.94107" lon="1.70184">
        <ele>117.20442199707</ele>
        <time>2020-06-23T20:25:14.368Z</time>
      </trkpt>
      <trkpt lat="44.94092" lon="1.70267">
        <ele>116.27323913574</ele>
        <time>2020-06-23T20:25:22.150Z</time>
      </trkpt>
      <trkpt lat="44.94085" lon="1.70331">
        <ele>115.59963226318</ele>
        <time>2020-06-23T20:25:29.940Z</time>
      </trkpt>
      <trkpt lat="44.94066" lon="1.70443">
        <ele>116.12142944336</ele>
        <time>2020-06-23T20:25:37.743Z</time>
      </trkpt>
      <trkpt lat="44.94061" lon="1.70515">
        <ele>118.33888244629</ele>
        <time>2020-06-23T20:25:45.554Z</time>
      </trkpt>
      <trkpt lat="44.94059" lon="1.70584">
        <ele>118.66650390625</ele>
        <time>2020-06-23T20:25:53.373Z</time>
      </trkpt>
      <trkpt lat="44.94055" lon="1.70637">
        <ele>118.02568054199</ele>
        <time>2020-06-23T20:26:01.198Z</time>
      </trkpt>
      <trkpt lat="44.94058" lon="1.70724">
        <ele>116.09938812256</ele>
        <time>2020-06-23T20:26:09.033Z</time>
      </trkpt>
      <trkpt lat="44.94055" lon="1.70767">
        <ele>115.82831573486</ele>
        <time>2020-06-23T20:26:16.873Z</time>
      </trkpt>
      <trkpt lat="44.94055" lon="1.70804">
        <ele>115.82831573486</ele>
        <time>2020-06-23T20:26:24.717Z</time>
      </trkpt>
      <trkpt lat="44.9406" lon="1.70828">
        <ele>115.8625869751</ele>
        <time>2020-06-23T20:26:32.564Z</time>
      </trkpt>
      <trkpt lat="44.94065" lon="1.70841">
        <ele>115.9585723877</ele>
        <time>2020-06-23T20:26:40.412Z</time>
      </trkpt>
      <trkpt lat="44.94082" lon="1.7089">
        <ele>115.65749359131</ele>
        <time>2020-06-23T20:26:48.267Z</time>
      </trkpt>
      <trkpt lat="44.94089" lon="1.70929">
        <ele>115.57961273193</ele>
        <time>2020-06-23T20:26:56.126Z</time>
      </trkpt>
      <trkpt lat="44.941" lon="1.71032">
        <ele>116.5418548584</ele>
        <time>2020-06-23T20:27:03.997Z</time>
      </trkpt>
      <trkpt lat="44.94107" lon="1.71103">
        <ele>117.39370727539</ele>
        <time>2020-06-23T20:27:11.876Z</time>
      </trkpt>
      <trkpt lat="44.9411" lon="1.71144">
        <ele>117.88562774658</ele>
        <time>2020-06-23T20:27:19.760Z</time>
      </trkpt>
      <trkpt lat="44.94115" lon="1.71168">
        <ele>117.65283966064</ele>
        <time>2020-06-23T20:27:27.647Z</time>
      </trkpt>
      <trkpt lat="44.94128" lon="1.71228">
        <ele>116.35568237305</ele>
        <time>2020-06-23T20:27:35.541Z</time>
      </trkpt>
      <trkpt lat="44.94137" lon="1.7132">
        <ele>119.30286407471</ele>
        <time>2020-06-23T20:27:43.445Z</time>
      </trkpt>
      <trkpt lat="44.94146" lon="1.71394">
        <ele>118.11487579346</ele>
        <time>2020-06-23T20:27:51.358Z</time>
      </trkpt>
      <trkpt lat="44.94157" lon="1.71438">
        <ele>117.96487426758</ele>
        <time>2020-06-23T20:27:59.276Z</time>
      </trkpt>
      <trkpt lat="44.94194" lon="1.71529">
        <ele>117.67880249023</ele>
        <time>2020-06-23T20:28:07.206Z</time>
      </trkpt>
      <trkpt lat="44.94198" lon="1.71545">
        <ele>117.77478790283</ele>
        <time>2020-06-23T20:28:15.138Z</time>
      </trkpt>
      <trkpt lat="44.94199" lon="1.71562">
        <ele>117.79738616943</ele>
        <time>2020-06-23T20:28:23.072Z</time>
      </trkpt>
      <trkpt lat="44.94196" lon="1.71637">
        <ele>116.78955841064</ele>
        <time>2020-06-23T20:28:31.014Z</time>
      </trkpt>
      <trkpt lat="44.94199" lon="1.71731">
        <ele>117.79878234863</ele>
        <time>2020-06-23T20:28:38.967Z</time>
      </trkpt>
      <trkpt lat="44.94201" lon="1.71747">
        <ele>117.72635650635</ele>
        <time>2020-06-23T20:28:46.922Z</time>
      </trkpt>
      <trkpt lat="44.94207" lon="1.71769">
        <ele>117.60637664795</ele>
        <time>2020-06-23T20:28:54.880Z</time>
      </trkpt>
      <trkpt lat="44.94224" lon="1.71809">
        <ele>117.53438568115</ele>
        <time>2020-06-23T20:29:02.843Z</time>
      </trkpt>
      <trkpt lat="44.94254" lon="1.71891">
        <ele>118.11856842041</ele>
        <time>2020-06-23T20:29:10.816Z</time>
      </trkpt>
      <trkpt lat="44.94278" lon="1.71968">
        <ele>117.92249298096</ele>
        <time>2020-06-23T20:29:18.799Z</time>
      </trkpt>
      <trkpt lat="44.94302" lon="1.72051">
        <ele>118.76781463623</ele>
        <time>2020-06-23T20:29:26.792Z</time>
      </trkpt>
      <trkpt lat="44.94329" lon="1.72098">
        <ele>119</ele>
        <time>2020-06-23T20:29:34.792Z</time>
      </trkpt>
      <trkpt lat="44.94429" lon="1.72238">
        <ele>119.0114364624</ele>
        <time>2020-06-23T20:29:42.815Z</time>
      </trkpt>
      <trkpt lat="44.94478" lon="1.72306">
        <ele>119.82730102539</ele>
        <time>2020-06-23T20:29:50.849Z</time>
      </trkpt>
      <trkpt lat="44.94485" lon="1.72318">
        <ele>119.97128295898</ele>
        <time>2020-06-23T20:29:58.884Z</time>
      </trkpt>
      <trkpt lat="44.94487" lon="1.72332">
        <ele>119.86074829102</ele>
        <time>2020-06-23T20:30:06.921Z</time>
      </trkpt>
      <trkpt lat="44.94483" lon="1.72351">
        <ele>119.63278961182</ele>
        <time>2020-06-23T20:30:14.960Z</time>
      </trkpt>
      <trkpt lat="44.94419" lon="1.72483">
        <ele>119.53895568848</ele>
        <time>2020-06-23T20:30:23.017Z</time>
      </trkpt>
      <trkpt lat="44.94337" lon="1.72651">
        <ele>118</ele>
        <time>2020-06-23T20:30:31.098Z</time>
      </trkpt>
      <trkpt lat="44.94378" lon="1.72709">
        <ele>119.37203216553</ele>
        <time>2020-06-23T20:30:39.188Z</time>
      </trkpt>
      <trkpt lat="44.94414" lon="1.72751">
        <ele>120.47896575928</ele>
        <time>2020-06-23T20:30:47.285Z</time>
      </trkpt>
      <trkpt lat="44.94439" lon="1.72774">
        <ele>120.77891540527</ele>
        <time>2020-06-23T20:30:55.387Z</time>
      </trkpt>
      <trkpt lat="44.94466" lon="1.72812">
        <ele>120.79428100586</ele>
        <time>2020-06-23T20:31:03.495Z</time>
      </trkpt>
      <trkpt lat="44.94498" lon="1.72859">
        <ele>120.95080566406</ele>
        <time>2020-06-23T20:31:11.611Z</time>
      </trkpt>
      <trkpt lat="44.94521" lon="1.72891">
        <ele>120.91661834717</ele>
        <time>2020-06-23T20:31:19.732Z</time>
      </trkpt>
      <trkpt lat="44.94519" lon="1.72895">
        <ele>120.84462738037</ele>
        <time>2020-06-23T20:31:27.853Z</time>
      </trkpt>
      <trkpt lat="44.94456" lon="1.73046">
        <ele>119.70582580566</ele>
        <time>2020-06-23T20:31:35.994Z</time>
      </trkpt>
      <trkpt lat="44.94412" lon="1.73148">
        <ele>120.92961883545</ele>
        <time>2020-06-23T20:31:44.149Z</time>
      </trkpt>
      <trkpt lat="44.94379" lon="1.73229">
        <ele>121.96049499512</ele>
        <time>2020-06-23T20:31:52.315Z</time>
      </trkpt>
      <trkpt lat="44.94336" lon="1.73326">
        <ele>122.6946182251</ele>
        <time>2020-06-23T20:32:00.494Z</time>
      </trkpt>
      <trkpt lat="44.94282" lon="1.73463">
        <ele>122</ele>
        <time>2020-06-23T20:32:08.690Z</time>
      </trkpt>
      <trkpt lat="44.94244" lon="1.73545">
        <ele>122.05364990234</ele>
        <time>2020-06-23T20:32:16.897Z</time>
      </trkpt>
      <trkpt lat="44.94183" lon="1.73682">
        <ele>121.29257202148</ele>
        <time>2020-06-23T20:32:25.123Z</time>
      </trkpt>
      <trkpt lat="44.93753" lon="1.7458">
        <ele>125.09657287598</ele>
        <time>2020-06-23T20:32:33.472Z</time>
      </trkpt>
      <trkpt lat="44.93609" lon="1.74873">
        <ele>126.62616729736</ele>
        <time>2020-06-23T20:32:41.861Z</time>
      </trkpt>
      <trkpt lat="44.93572" lon="1.74949">
        <ele>127.58262634277</ele>
        <time>2020-06-23T20:32:50.261Z</time>
      </trkpt>
      <trkpt lat="44.93565" lon="1.74967">
        <ele>127.67861175537</ele>
        <time>2020-06-23T20:32:58.663Z</time>
      </trkpt>
      <trkpt lat="44.93556" lon="1.74997">
        <ele>128.19441223145</ele>
        <time>2020-06-23T20:33:07.069Z</time>
      </trkpt>
      <trkpt lat="44.93547" lon="1.75024">
        <ele>129.05825805664</ele>
        <time>2020-06-23T20:33:15.478Z</time>
      </trkpt>
      <trkpt lat="44.93538" lon="1.75038">
        <ele>129.36079406738</ele>
        <time>2020-06-23T20:33:23.889Z</time>
      </trkpt>
      <trkpt lat="44.93523" lon="1.75052">
        <ele>129.67274475098</ele>
        <time>2020-06-23T20:33:32.303Z</time>
      </trkpt>
      <trkpt lat="44.93507" lon="1.75061">
        <ele>129.72073364258</ele>
        <time>2020-06-23T20:33:40.720Z</time>
      </trkpt>
      <trkpt lat="44.935" lon="1.7507">
        <ele>129.98469543457</ele>
        <time>2020-06-23T20:33:49.139Z</time>
      </trkpt>
      <trkpt lat="44.93494" lon="1.75084">
        <ele>130.98585510254</ele>
        <time>2020-06-23T20:33:57.559Z</time>
      </trkpt>
      <trkpt lat="44.93488" lon="1.75107">
        <ele>132.44911193848</ele>
        <time>2020-06-23T20:34:05.982Z</time>
      </trkpt>
      <trkpt lat="44.93474" lon="1.75152">
        <ele>132.35311889648</ele>
        <time>2020-06-23T20:34:14.411Z</time>
      </trkpt>
      <trkpt lat="44.9346" lon="1.7518">
        <ele>131.91494750977</ele>
        <time>2020-06-23T20:34:22.844Z</time>
      </trkpt>
      <trkpt lat="44.93374" lon="1.75354">
        <ele>133.80171203613</ele>
        <time>2020-06-23T20:34:31.301Z</time>
      </trkpt>
      <trkpt lat="44.93362" lon="1.7538">
        <ele>135.56178283691</ele>
        <time>2020-06-23T20:34:39.761Z</time>
      </trkpt>
      <trkpt lat="44.93352" lon="1.75391">
        <ele>136.47343444824</ele>
        <time>2020-06-23T20:34:48.223Z</time>
      </trkpt>
      <trkpt lat="44.9331" lon="1.75476">
        <ele>139.30049133301</ele>
        <time>2020-06-23T20:34:56.697Z</time>
      </trkpt>
      <trkpt lat="44.93286" lon="1.75526">
        <ele>140.27391052246</ele>
        <time>2020-06-23T20:35:05.178Z</time>
      </trkpt>
      <trkpt lat="44.93293" lon="1.75537">
        <ele>139.85397338867</ele>
        <time>2020-06-23T20:35:13.661Z</time>
      </trkpt>
      <trkpt lat="44.93299" lon="1.75554">
        <ele>139.49403381348</ele>
        <time>2020-06-23T20:35:22.146Z</time>
      </trkpt>
      <trkpt lat="44.933" lon="1.75593">
        <ele>139.54724121094</ele>
        <time>2020-06-23T20:35:30.635Z</time>
      </trkpt>
      <trkpt lat="44.93315" lon="1.75635">
        <ele>138.82736206055</ele>
        <time>2020-06-23T20:35:39.130Z</time>
      </trkpt>
      <trkpt lat="44.93325" lon="1.75655">
        <ele>138.38186645508</ele>
        <time>2020-06-23T20:35:47.627Z</time>
      </trkpt>
      <trkpt lat="44.93332" lon="1.75664">
        <ele>138.47784423828</ele>
        <time>2020-06-23T20:35:56.126Z</time>
      </trkpt>
      <trkpt lat="44.93342" lon="1.75672">
        <ele>138.38186645508</ele>
        <time>2020-06-23T20:36:04.627Z</time>
      </trkpt>
      <trkpt lat="44.93355" lon="1.75678">
        <ele>138.04592895508</ele>
        <time>2020-06-23T20:36:13.130Z</time>
      </trkpt>
      <trkpt lat="44.9338" lon="1.75683">
        <ele>137.6703338623</ele>
        <time>2020-06-23T20:36:21.637Z</time>
      </trkpt>
      <trkpt lat="44.93393" lon="1.75691">
        <ele>138.67816162109</ele>
        <time>2020-06-23T20:36:30.146Z</time>
      </trkpt>
      <trkpt lat="44.93416" lon="1.75711">
        <ele>140.74182128906</ele>
        <time>2020-06-23T20:36:38.660Z</time>
      </trkpt>
      <trkpt lat="44.93448" lon="1.75746">
        <ele>144.05770874023</ele>
        <time>2020-06-23T20:36:47.180Z</time>
      </trkpt>
      <trkpt lat="44.9346" lon="1.75766">
        <ele>145.5704498291</ele>
        <time>2020-06-23T20:36:55.703Z</time>
      </trkpt>
      <trkpt lat="44.93469" lon="1.75794">
        <ele>146.81823730469</ele>
        <time>2020-06-23T20:37:04.230Z</time>
      </trkpt>
      <trkpt lat="44.9348" lon="1.75855">
        <ele>148.99792480469</ele>
        <time>2020-06-23T20:37:12.764Z</time>
      </trkpt>
      <trkpt lat="44.93485" lon="1.75884">
        <ele>149.51383972168</ele>
        <time>2020-06-23T20:37:21.301Z</time>
      </trkpt>
      <trkpt lat="44.93489" lon="1.75898">
        <ele>149.70581054688</ele>
        <time>2020-06-23T20:37:29.840Z</time>
      </trkpt>
      <trkpt lat="44.93493" lon="1.75908">
        <ele>149.84588623047</ele>
        <time>2020-06-23T20:37:38.380Z</time>
      </trkpt>
      <trkpt lat="44.93509" lon="1.75932">
        <ele>150.13383483887</ele>
        <time>2020-06-23T20:37:46.924Z</time>
      </trkpt>
      <trkpt lat="44.9354" lon="1.75963">
        <ele>150.13383483887</ele>
        <time>2020-06-23T20:37:55.474Z</time>
      </trkpt>
      <trkpt lat="44.93564" lon="1.75986">
        <ele>152.06248474121</ele>
        <time>2020-06-23T20:38:04.029Z</time>
      </trkpt>
      <trkpt lat="44.93571" lon="1.75996">
        <ele>152.55851745605</ele>
        <time>2020-06-23T20:38:12.585Z</time>
      </trkpt>
      <trkpt lat="44.93593" lon="1.76052">
        <ele>154.57264709473</ele>
        <time>2020-06-23T20:38:21.148Z</time>
      </trkpt>
      <trkpt lat="44.93609" lon="1.76088">
        <ele>155.64114379883</ele>
        <time>2020-06-23T20:38:29.716Z</time>
      </trkpt>
      <trkpt lat="44.93633" lon="1.76156">
        <ele>156.03921508789</ele>
        <time>2020-06-23T20:38:38.293Z</time>
      </trkpt>
      <trkpt lat="44.9366" lon="1.76254">
        <ele>157.82328796387</ele>
        <time>2020-06-23T20:38:46.882Z</time>
      </trkpt>
      <trkpt lat="44.93662" lon="1.76264">
        <ele>158.08724975586</ele>
        <time>2020-06-23T20:38:55.472Z</time>
      </trkpt>
      <trkpt lat="44.9369" lon="1.76375">
        <ele>161.08674621582</ele>
        <time>2020-06-23T20:39:04.075Z</time>
      </trkpt>
      <trkpt lat="44.93704" lon="1.76446">
        <ele>162</ele>
        <time>2020-06-23T20:39:12.687Z</time>
      </trkpt>
      <trkpt lat="44.93717" lon="1.765">
        <ele>162.67346191406</ele>
        <time>2020-06-23T20:39:21.305Z</time>
      </trkpt>
      <trkpt lat="44.93745" lon="1.76588">
        <ele>165.49911499023</ele>
        <time>2020-06-23T20:39:29.934Z</time>
      </trkpt>
      <trkpt lat="44.93757" lon="1.76623">
        <ele>164.97360229492</ele>
        <time>2020-06-23T20:39:38.568Z</time>
      </trkpt>
      <trkpt lat="44.93763" lon="1.76637">
        <ele>164.87762451172</ele>
        <time>2020-06-23T20:39:47.204Z</time>
      </trkpt>
      <trkpt lat="44.93781" lon="1.76681">
        <ele>164.88423156738</ele>
        <time>2020-06-23T20:39:55.845Z</time>
      </trkpt>
      <trkpt lat="44.93801" lon="1.76723">
        <ele>165</ele>
        <time>2020-06-23T20:40:04.492Z</time>
      </trkpt>
      <trkpt lat="44.93812" lon="1.76743">
        <ele>164.7502746582</ele>
        <time>2020-06-23T20:40:13.142Z</time>
      </trkpt>
      <trkpt lat="44.9382" lon="1.76755">
        <ele>164.17437744141</ele>
        <time>2020-06-23T20:40:21.794Z</time>
      </trkpt>
      <trkpt lat="44.93826" lon="1.76762">
        <ele>163.83842468262</ele>
        <time>2020-06-23T20:40:30.447Z</time>
      </trkpt>
      <trkpt lat="44.93847" lon="1.76775">
        <ele>163.21452331543</ele>
        <time>2020-06-23T20:40:39.104Z</time>
      </trkpt>
      <trkpt lat="44.93872" lon="1.76785">
        <ele>162.73460388184</ele>
        <time>2020-06-23T20:40:47.765Z</time>
      </trkpt>
      <trkpt lat="44.93904" lon="1.76792">
        <ele>163.11863708496</ele>
        <time>2020-06-23T20:40:56.431Z</time>
      </trkpt>
      <trkpt lat="44.93923" lon="1.76799">
        <ele>163.23861694336</ele>
        <time>2020-06-23T20:41:05.100Z</time>
      </trkpt>
      <trkpt lat="44.93958" lon="1.76819">
        <ele>163.14434814453</ele>
        <time>2020-06-23T20:41:13.775Z</time>
      </trkpt>
      <trkpt lat="44.93982" lon="1.76837">
        <ele>163.5916595459</ele>
        <time>2020-06-23T20:41:22.455Z</time>
      </trkpt>
      <trkpt lat="44.94004" lon="1.76867">
        <ele>164.11956787109</ele>
        <time>2020-06-23T20:41:31.139Z</time>
      </trkpt>
      <trkpt lat="44.94019" lon="1.76883">
        <ele>164.49389648438</ele>
        <time>2020-06-23T20:41:39.826Z</time>
      </trkpt>
      <trkpt lat="44.9404" lon="1.76897">
        <ele>164.98342895508</ele>
        <time>2020-06-23T20:41:48.517Z</time>
      </trkpt>
      <trkpt lat="44.94074" lon="1.76921">
        <ele>165.39614868164</ele>
        <time>2020-06-23T20:41:57.214Z</time>
      </trkpt>
      <trkpt lat="44.94083" lon="1.7693">
        <ele>165.61212158203</ele>
        <time>2020-06-23T20:42:05.913Z</time>
      </trkpt>
      <trkpt lat="44.94116" lon="1.7698">
        <ele>166.82150268555</ele>
        <time>2020-06-23T20:42:14.620Z</time>
      </trkpt>
      <trkpt lat="44.94165" lon="1.77069">
        <ele>171.4048614502</ele>
        <time>2020-06-23T20:42:23.340Z</time>
      </trkpt>
      <trkpt lat="44.94181" lon="1.77112">
        <ele>175.35530090332</ele>
        <time>2020-06-23T20:42:32.065Z</time>
      </trkpt>
      <trkpt lat="44.94186" lon="1.77122">
        <ele>176.3751373291</ele>
        <time>2020-06-23T20:42:40.792Z</time>
      </trkpt>
      <trkpt lat="44.94185" lon="1.77127">
        <ele>176.6750793457</ele>
        <time>2020-06-23T20:42:49.519Z</time>
      </trkpt>
      <trkpt lat="44.9419" lon="1.77149">
        <ele>178.70098876953</ele>
        <time>2020-06-23T20:42:58.249Z</time>
      </trkpt>
      <trkpt lat="44.94208" lon="1.77218">
        <ele>185.30087280273</ele>
        <time>2020-06-23T20:43:06.987Z</time>
      </trkpt>
      <trkpt lat="44.94229" lon="1.77315">
        <ele>190.47706604004</ele>
        <time>2020-06-23T20:43:15.737Z</time>
      </trkpt>
      <trkpt lat="44.94241" lon="1.77378">
        <ele>194.13835144043</ele>
        <time>2020-06-23T20:43:24.494Z</time>
      </trkpt>
      <trkpt lat="44.94246" lon="1.77407">
        <ele>195.97583007812</ele>
        <time>2020-06-23T20:43:33.254Z</time>
      </trkpt>
      <trkpt lat="44.94246" lon="1.77431">
        <ele>197.41558837891</ele>
        <time>2020-06-23T20:43:42.017Z</time>
      </trkpt>
      <trkpt lat="44.94243" lon="1.77458">
        <ele>200.42774963379</ele>
        <time>2020-06-23T20:43:50.783Z</time>
      </trkpt>
      <trkpt lat="44.94235" lon="1.77488">
        <ele>205.36338806152</ele>
        <time>2020-06-23T20:43:59.553Z</time>
      </trkpt>
      <trkpt lat="44.9423" lon="1.77501">
        <ele>206.51519775391</ele>
        <time>2020-06-23T20:44:08.325Z</time>
      </trkpt>
      <trkpt lat="44.94225" lon="1.77506">
        <ele>207.49729919434</ele>
        <time>2020-06-23T20:44:17.098Z</time>
      </trkpt>
      <trkpt lat="44.94219" lon="1.77505">
        <ele>208.72109985352</ele>
        <time>2020-06-23T20:44:25.872Z</time>
      </trkpt>
      <trkpt lat="44.94203" lon="1.77493">
        <ele>210.62866210938</ele>
        <time>2020-06-23T20:44:34.648Z</time>
      </trkpt>
      <trkpt lat="44.94164" lon="1.77463">
        <ele>209.61260986328</ele>
        <time>2020-06-23T20:44:43.432Z</time>
      </trkpt>
      <trkpt lat="44.94147" lon="1.77453">
        <ele>209.43263244629</ele>
        <time>2020-06-23T20:44:52.218Z</time>
      </trkpt>
      <trkpt lat="44.94134" lon="1.77452">
        <ele>210.09252929688</ele>
        <time>2020-06-23T20:45:01.007Z</time>
      </trkpt>
      <trkpt lat="44.94127" lon="1.77453">
        <ele>210.63243103027</ele>
        <time>2020-06-23T20:45:09.797Z</time>
      </trkpt>
      <trkpt lat="44.94111" lon="1.77459">
        <ele>209.65281677246</ele>
        <time>2020-06-23T20:45:18.589Z</time>
      </trkpt>
      <trkpt lat="44.94101" lon="1.77467">
        <ele>209.27449035645</ele>
        <time>2020-06-23T20:45:27.383Z</time>
      </trkpt>
      <trkpt lat="44.941" lon="1.7747">
        <ele>209.68241882324</ele>
        <time>2020-06-23T20:45:36.178Z</time>
      </trkpt>
      <trkpt lat="44.94101" lon="1.77485">
        <ele>212.29797363281</ele>
        <time>2020-06-23T20:45:44.974Z</time>
      </trkpt>
      <trkpt lat="44.94104" lon="1.77498">
        <ele>213.92311096191</ele>
        <time>2020-06-23T20:45:53.772Z</time>
      </trkpt>
      <trkpt lat="44.94104" lon="1.77513">
        <ele>215.18290710449</ele>
        <time>2020-06-23T20:46:02.572Z</time>
      </trkpt>
      <trkpt lat="44.94069" lon="1.77621">
        <ele>228.80149841309</ele>
        <time>2020-06-23T20:46:11.385Z</time>
      </trkpt>
      <trkpt lat="44.94064" lon="1.77639">
        <ele>231.63302612305</ele>
        <time>2020-06-23T20:46:20.200Z</time>
      </trkpt>
      <trkpt lat="44.94066" lon="1.77651">
        <ele>233.26475524902</ele>
        <time>2020-06-23T20:46:29.017Z</time>
      </trkpt>
      <trkpt lat="44.94095" lon="1.77691">
        <ele>235.8858795166</ele>
        <time>2020-06-23T20:46:37.840Z</time>
      </trkpt>
      <trkpt lat="44.94107" lon="1.77711">
        <ele>237.22966003418</ele>
        <time>2020-06-23T20:46:46.666Z</time>
      </trkpt>
      <trkpt lat="44.94131" lon="1.77792">
        <ele>241.17568969727</ele>
        <time>2020-06-23T20:46:55.502Z</time>
      </trkpt>
      <trkpt lat="44.9407" lon="1.77811">
        <ele>243.15353393555</ele>
        <time>2020-06-23T20:47:04.348Z</time>
      </trkpt>
      <trkpt lat="44.94046" lon="1.77829">
        <ele>244.05712890625</ele>
        <time>2020-06-23T20:47:13.198Z</time>
      </trkpt>
      <trkpt lat="44.9403" lon="1.77843">
        <ele>244.39219665527</ele>
        <time>2020-06-23T20:47:22.051Z</time>
      </trkpt>
      <trkpt lat="44.94016" lon="1.7786">
        <ele>244.63215637207</ele>
        <time>2020-06-23T20:47:30.907Z</time>
      </trkpt>
      <trkpt lat="44.94004" lon="1.77883">
        <ele>244.31860351562</ele>
        <time>2020-06-23T20:47:39.767Z</time>
      </trkpt>
      <trkpt lat="44.94" lon="1.77896">
        <ele>243.76670837402</ele>
        <time>2020-06-23T20:47:48.628Z</time>
      </trkpt>
      <trkpt lat="44.93988" lon="1.77928">
        <ele>242.27894592285</ele>
        <time>2020-06-23T20:47:57.493Z</time>
      </trkpt>
      <trkpt lat="44.93985" lon="1.77966">
        <ele>242.80378723145</ele>
        <time>2020-06-23T20:48:06.363Z</time>
      </trkpt>
      <trkpt lat="44.93981" lon="1.77985">
        <ele>243.21173095703</ele>
        <time>2020-06-23T20:48:15.235Z</time>
      </trkpt>
      <trkpt lat="44.93969" lon="1.7801">
        <ele>243.24809265137</ele>
        <time>2020-06-23T20:48:24.110Z</time>
      </trkpt>
      <trkpt lat="44.93957" lon="1.7803">
        <ele>243.99534606934</ele>
        <time>2020-06-23T20:48:32.988Z</time>
      </trkpt>
      <trkpt lat="44.93948" lon="1.78051">
        <ele>244.17532348633</ele>
        <time>2020-06-23T20:48:41.869Z</time>
      </trkpt>
      <trkpt lat="44.93931" lon="1.78115">
        <ele>247.20320129395</ele>
        <time>2020-06-23T20:48:50.758Z</time>
      </trkpt>
      <trkpt lat="44.93927" lon="1.78133">
        <ele>248.2582244873</ele>
        <time>2020-06-23T20:48:59.649Z</time>
      </trkpt>
      <trkpt lat="44.93921" lon="1.78148">
        <ele>249.69798278809</ele>
        <time>2020-06-23T20:49:08.542Z</time>
      </trkpt>
      <trkpt lat="44.93877" lon="1.78224">
        <ele>254.44671630859</ele>
        <time>2020-06-23T20:49:17.446Z</time>
      </trkpt>
      <trkpt lat="44.93864" lon="1.78253">
        <ele>255.23986816406</ele>
        <time>2020-06-23T20:49:26.354Z</time>
      </trkpt>
      <trkpt lat="44.93854" lon="1.78288">
        <ele>255.47982788086</ele>
        <time>2020-06-23T20:49:35.266Z</time>
      </trkpt>
      <trkpt lat="44.93846" lon="1.78325">
        <ele>256.67950439453</ele>
        <time>2020-06-23T20:49:44.183Z</time>
      </trkpt>
      <trkpt lat="44.93835" lon="1.7836">
        <ele>257.33938598633</ele>
        <time>2020-06-23T20:49:53.104Z</time>
      </trkpt>
      <trkpt lat="44.93827" lon="1.78379">
        <ele>257.56430053711</ele>
        <time>2020-06-23T20:50:02.028Z</time>
      </trkpt>
      <trkpt lat="44.93803" lon="1.78423">
        <ele>257.02194213867</ele>
        <time>2020-06-23T20:50:10.958Z</time>
      </trkpt>
      <trkpt lat="44.93785" lon="1.78449">
        <ele>255.41841125488</ele>
        <time>2020-06-23T20:50:19.892Z</time>
      </trkpt>
      <trkpt lat="44.93777" lon="1.78458">
        <ele>254.85450744629</ele>
        <time>2020-06-23T20:50:28.828Z</time>
      </trkpt>
      <trkpt lat="44.93764" lon="1.78468">
        <ele>254.48403930664</ele>
        <time>2020-06-23T20:50:37.766Z</time>
      </trkpt>
      <trkpt lat="44.93736" lon="1.78485">
        <ele>254.80798339844</ele>
        <time>2020-06-23T20:50:46.709Z</time>
      </trkpt>
      <trkpt lat="44.93701" lon="1.78517">
        <ele>256.75610351562</ele>
        <time>2020-06-23T20:50:55.659Z</time>
      </trkpt>
      <trkpt lat="44.93682" lon="1.78537">
        <ele>259.03573608398</ele>
        <time>2020-06-23T20:51:04.612Z</time>
      </trkpt>
      <trkpt lat="44.93679" lon="1.78547">
        <ele>259.21011352539</ele>
        <time>2020-06-23T20:51:13.567Z</time>
      </trkpt>
      <trkpt lat="44.93685" lon="1.78595">
        <ele>257.32275390625</ele>
        <time>2020-06-23T20:51:22.527Z</time>
      </trkpt>
      <trkpt lat="44.93686" lon="1.78626">
        <ele>256.87881469727</ele>
        <time>2020-06-23T20:51:31.491Z</time>
      </trkpt>
      <trkpt lat="44.93685" lon="1.78638">
        <ele>256.80682373047</ele>
        <time>2020-06-23T20:51:40.456Z</time>
      </trkpt>
      <trkpt lat="44.93673" lon="1.78748">
        <ele>252.40501403809</ele>
        <time>2020-06-23T20:51:49.434Z</time>
      </trkpt>
      <trkpt lat="44.93677" lon="1.78808">
        <ele>248.81701660156</ele>
        <time>2020-06-23T20:51:58.419Z</time>
      </trkpt>
      <trkpt lat="44.93674" lon="1.78855">
        <ele>248.58850097656</ele>
        <time>2020-06-23T20:52:07.409Z</time>
      </trkpt>
      <trkpt lat="44.9367" lon="1.78906">
        <ele>247.72734069824</ele>
        <time>2020-06-23T20:52:16.405Z</time>
      </trkpt>
      <trkpt lat="44.93669" lon="1.78963">
        <ele>247.33088684082</ele>
        <time>2020-06-23T20:52:25.407Z</time>
      </trkpt>
      <trkpt lat="44.93672" lon="1.78981">
        <ele>245.56718444824</ele>
        <time>2020-06-23T20:52:34.411Z</time>
      </trkpt>
      <trkpt lat="44.9368" lon="1.79012">
        <ele>243.43530273438</ele>
        <time>2020-06-23T20:52:43.419Z</time>
      </trkpt>
      <trkpt lat="44.93692" lon="1.79061">
        <ele>240.3768157959</ele>
        <time>2020-06-23T20:52:52.433Z</time>
      </trkpt>
      <trkpt lat="44.93696" lon="1.79096">
        <ele>238.97747802734</ele>
        <time>2020-06-23T20:53:01.451Z</time>
      </trkpt>
      <trkpt lat="44.93701" lon="1.79147">
        <ele>238.24560546875</ele>
        <time>2020-06-23T20:53:10.475Z</time>
      </trkpt>
      <trkpt lat="44.93702" lon="1.79178">
        <ele>237.08059692383</ele>
        <time>2020-06-23T20:53:19.502Z</time>
      </trkpt>
      <trkpt lat="44.93689" lon="1.79242">
        <ele>234.8253326416</ele>
        <time>2020-06-23T20:53:28.537Z</time>
      </trkpt>
      <trkpt lat="44.93681" lon="1.79291">
        <ele>231.77783203125</ele>
        <time>2020-06-23T20:53:37.578Z</time>
      </trkpt>
      <trkpt lat="44.93672" lon="1.79345">
        <ele>227.72561645508</ele>
        <time>2020-06-23T20:53:46.625Z</time>
      </trkpt>
      <trkpt lat="44.93669" lon="1.79391">
        <ele>223.71354675293</ele>
        <time>2020-06-23T20:53:55.677Z</time>
      </trkpt>
      <trkpt lat="44.93666" lon="1.79445">
        <ele>221.52456665039</ele>
        <time>2020-06-23T20:54:04.735Z</time>
      </trkpt>
      <trkpt lat="44.93661" lon="1.79487">
        <ele>217.45385742188</ele>
        <time>2020-06-23T20:54:13.798Z</time>
      </trkpt>
      <trkpt lat="44.93644" lon="1.79549">
        <ele>215.99269104004</ele>
        <time>2020-06-23T20:54:22.869Z</time>
      </trkpt>
      <trkpt lat="44.93632" lon="1.79609">
        <ele>215.70434570312</ele>
        <time>2020-06-23T20:54:31.947Z</time>
      </trkpt>
      <trkpt lat="44.93624" lon="1.79658">
        <ele>217.03172302246</ele>
        <time>2020-06-23T20:54:41.031Z</time>
      </trkpt>
      <trkpt lat="44.93618" lon="1.7968">
        <ele>216.94332885742</ele>
        <time>2020-06-23T20:54:50.117Z</time>
      </trkpt>
      <trkpt lat="44.93607" lon="1.79708">
        <ele>216.61938476562</ele>
        <time>2020-06-23T20:54:59.207Z</time>
      </trkpt>
      <trkpt lat="44.93584" lon="1.7974">
        <ele>217.83648681641</ele>
        <time>2020-06-23T20:55:08.302Z</time>
      </trkpt>
      <trkpt lat="44.93556" lon="1.79772">
        <ele>216.96195983887</ele>
        <time>2020-06-23T20:55:17.403Z</time>
      </trkpt>
      <trkpt lat="44.93553" lon="1.79765">
        <ele>217.15393066406</ele>
        <time>2020-06-23T20:55:26.505Z</time>
      </trkpt>
      <trkpt lat="44.93552" lon="1.79757">
        <ele>217.08193969727</ele>
        <time>2020-06-23T20:55:35.608Z</time>
      </trkpt>
      <trkpt lat="44.93568" lon="1.79708">
        <ele>215.81901550293</ele>
        <time>2020-06-23T20:55:44.717Z</time>
      </trkpt>
      <trkpt lat="44.93571" lon="1.79685">
        <ele>214.18379211426</ele>
        <time>2020-06-23T20:55:53.829Z</time>
      </trkpt>
      <trkpt lat="44.93565" lon="1.79658">
        <ele>213.49990844727</ele>
        <time>2020-06-23T20:56:02.944Z</time>
      </trkpt>
      <trkpt lat="44.9356" lon="1.79656">
        <ele>213.17596435547</ele>
        <time>2020-06-23T20:56:12.060Z</time>
      </trkpt>
      <trkpt lat="44.93546" lon="1.79645">
        <ele>212.44287109375</ele>
        <time>2020-06-23T20:56:21.178Z</time>
      </trkpt>
      <trkpt lat="44.93518" lon="1.79641">
        <ele>210.81114196777</ele>
        <time>2020-06-23T20:56:30.301Z</time>
      </trkpt>
      <trkpt lat="44.93445" lon="1.79645">
        <ele>206.18132019043</ele>
        <time>2020-06-23T20:56:39.435Z</time>
      </trkpt>
      <trkpt lat="44.93406" lon="1.79647">
        <ele>202.36595153809</ele>
        <time>2020-06-23T20:56:48.576Z</time>
      </trkpt>
      <trkpt lat="44.93392" lon="1.7965">
        <ele>200.9141998291</ele>
        <time>2020-06-23T20:56:57.719Z</time>
      </trkpt>
      <trkpt lat="44.93378" lon="1.79657">
        <ele>199.51530456543</ele>
        <time>2020-06-23T20:57:06.864Z</time>
      </trkpt>
      <trkpt lat="44.93366" lon="1.79668">
        <ele>198.74847412109</ele>
        <time>2020-06-23T20:57:16.011Z</time>
      </trkpt>
      <trkpt lat="44.93361" lon="1.79676">
        <ele>198.5924987793</ele>
        <time>2020-06-23T20:57:25.160Z</time>
      </trkpt>
      <trkpt lat="44.93355" lon="1.79699">
        <ele>198.2445526123</ele>
        <time>2020-06-23T20:57:34.311Z</time>
      </trkpt>
      <trkpt lat="44.93333" lon="1.79784">
        <ele>198.07844543457</ele>
        <time>2020-06-23T20:57:43.473Z</time>
      </trkpt>
      <trkpt lat="44.93317" lon="1.79857">
        <ele>200.21409606934</ele>
        <time>2020-06-23T20:57:52.643Z</time>
      </trkpt>
      <trkpt lat="44.93315" lon="1.79879">
        <ele>200.78999328613</ele>
        <time>2020-06-23T20:58:01.816Z</time>
      </trkpt>
      <trkpt lat="44.93318" lon="1.79907">
        <ele>201.26937866211</ele>
        <time>2020-06-23T20:58:10.992Z</time>
      </trkpt>
      <trkpt lat="44.93332" lon="1.79954">
        <ele>199.42347717285</ele>
        <time>2020-06-23T20:58:20.174Z</time>
      </trkpt>
      <trkpt lat="44.9335" lon="1.80004">
        <ele>197.58390808105</ele>
        <time>2020-06-23T20:58:29.362Z</time>
      </trkpt>
      <trkpt lat="44.93388" lon="1.80113">
        <ele>184.18705749512</ele>
        <time>2020-06-23T20:58:38.564Z</time>
      </trkpt>
      <trkpt lat="44.93391" lon="1.80125">
        <ele>181.55949401855</ele>
        <time>2020-06-23T20:58:47.768Z</time>
      </trkpt>
      <trkpt lat="44.93393" lon="1.80155">
        <ele>176.11239624023</ele>
        <time>2020-06-23T20:58:56.975Z</time>
      </trkpt>
      <trkpt lat="44.93387" lon="1.80173">
        <ele>175.51028442383</ele>
        <time>2020-06-23T20:59:06.184Z</time>
      </trkpt>
      <trkpt lat="44.9338" lon="1.80181">
        <ele>174.74240112305</ele>
        <time>2020-06-23T20:59:15.395Z</time>
      </trkpt>
      <trkpt lat="44.93375" lon="1.80184">
        <ele>174.68241882324</ele>
        <time>2020-06-23T20:59:24.607Z</time>
      </trkpt>
      <trkpt lat="44.9334" lon="1.80197">
        <ele>174.88847351074</ele>
        <time>2020-06-23T20:59:33.824Z</time>
      </trkpt>
      <trkpt lat="44.93332" lon="1.80203">
        <ele>174.77647399902</ele>
        <time>2020-06-23T20:59:43.043Z</time>
      </trkpt>
      <trkpt lat="44.93329" lon="1.80206">
        <ele>174.81246948242</ele>
        <time>2020-06-23T20:59:52.262Z</time>
      </trkpt>
      <trkpt lat="44.93323" lon="1.80234">
        <ele>172.24490356445</ele>
        <time>2020-06-23T21:00:01.485Z</time>
      </trkpt>
      <trkpt lat="44.93322" lon="1.80245">
        <ele>171.53367614746</ele>
        <time>2020-06-23T21:00:10.709Z</time>
      </trkpt>
      <trkpt lat="44.93325" lon="1.80254">
        <ele>170.70581054688</ele>
        <time>2020-06-23T21:00:19.934Z</time>
      </trkpt>
      <trkpt lat="44.93339" lon="1.80274">
        <ele>167.89828491211</ele>
        <time>2020-06-23T21:00:29.162Z</time>
      </trkpt>
      <trkpt lat="44.93342" lon="1.80283">
        <ele>167.07041931152</ele>
        <time>2020-06-23T21:00:38.391Z</time>
      </trkpt>
      <trkpt lat="44.93343" lon="1.803">
        <ele>166.23278808594</ele>
        <time>2020-06-23T21:00:47.622Z</time>
      </trkpt>
      <trkpt lat="44.93335" lon="1.80346">
        <ele>163.1078338623</ele>
        <time>2020-06-23T21:00:56.859Z</time>
      </trkpt>
      <trkpt lat="44.93328" lon="1.80361">
        <ele>161.91189575195</ele>
        <time>2020-06-23T21:01:06.098Z</time>
      </trkpt>
      <trkpt lat="44.933" lon="1.80402">
        <ele>158.3844909668</ele>
        <time>2020-06-23T21:01:15.343Z</time>
      </trkpt>
      <trkpt lat="44.93266" lon="1.80447">
        <ele>158.77207946777</ele>
        <time>2020-06-23T21:01:24.596Z</time>
      </trkpt>
      <trkpt lat="44.93228" lon="1.8049">
        <ele>157.00798034668</ele>
        <time>2020-06-23T21:01:33.857Z</time>
      </trkpt>
      <trkpt lat="44.93191" lon="1.80536">
        <ele>155.4849395752</ele>
        <time>2020-06-23T21:01:43.125Z</time>
      </trkpt>
      <trkpt lat="44.93141" lon="1.8061">
        <ele>152.5083770752</ele>
        <time>2020-06-23T21:01:52.405Z</time>
      </trkpt>
      <trkpt lat="44.93097" lon="1.80665">
        <ele>149.37426757812</ele>
        <time>2020-06-23T21:02:01.694Z</time>
      </trkpt>
      <trkpt lat="44.93051" lon="1.80712">
        <ele>147.65365600586</ele>
        <time>2020-06-23T21:02:10.993Z</time>
      </trkpt>
      <trkpt lat="44.93021" lon="1.80738">
        <ele>145.57040405273</ele>
        <time>2020-06-23T21:02:20.297Z</time>
      </trkpt>
      <trkpt lat="44.92993" lon="1.80758">
        <ele>143.68759155273</ele>
        <time>2020-06-23T21:02:29.606Z</time>
      </trkpt>
      <trkpt lat="44.92955" lon="1.8078">
        <ele>141.95433044434</ele>
        <time>2020-06-23T21:02:38.922Z</time>
      </trkpt>
      <trkpt lat="44.92943" lon="1.80788">
        <ele>141.28244018555</ele>
        <time>2020-06-23T21:02:48.240Z</time>
      </trkpt>
      <trkpt lat="44.92931" lon="1.808">
        <ele>140.41857910156</ele>
        <time>2020-06-23T21:02:57.560Z</time>
      </trkpt>
      <trkpt lat="44.92937" lon="1.80809">
        <ele>140.13063049316</ele>
        <time>2020-06-23T21:03:06.882Z</time>
      </trkpt>
      <trkpt lat="44.92988" lon="1.80876">
        <ele>139.43930053711</ele>
        <time>2020-06-23T21:03:16.215Z</time>
      </trkpt>
      <trkpt lat="44.93025" lon="1.80925">
        <ele>139.62748718262</ele>
        <time>2020-06-23T21:03:25.556Z</time>
      </trkpt>
      <trkpt lat="44.93034" lon="1.80942">
        <ele>139.84344482422</ele>
        <time>2020-06-23T21:03:34.899Z</time>
      </trkpt>
      <trkpt lat="44.93039" lon="1.80961">
        <ele>139.96342468262</ele>
        <time>2020-06-23T21:03:44.245Z</time>
      </trkpt>
      <trkpt lat="44.93041" lon="1.80978">
        <ele>140.02282714844</ele>
        <time>2020-06-23T21:03:53.593Z</time>
      </trkpt>
      <trkpt lat="44.93045" lon="1.81213">
        <ele>138.37590026855</ele>
        <time>2020-06-23T21:04:02.967Z</time>
      </trkpt>
      <trkpt lat="44.93048" lon="1.81296">
        <ele>136.13963317871</ele>
        <time>2020-06-23T21:04:12.351Z</time>
      </trkpt>
      <trkpt lat="44.93053" lon="1.81323">
        <ele>135.41720581055</ele>
        <time>2020-06-23T21:04:21.738Z</time>
      </trkpt>
      <trkpt lat="44.93062" lon="1.81358">
        <ele>134.67959594727</ele>
        <time>2020-06-23T21:04:31.129Z</time>
      </trkpt>
      <trkpt lat="44.93091" lon="1.81429">
        <ele>134.49340820312</ele>
        <time>2020-06-23T21:04:40.530Z</time>
      </trkpt>
      <trkpt lat="44.93109" lon="1.81466">
        <ele>134.01348876953</ele>
        <time>2020-06-23T21:04:49.936Z</time>
      </trkpt>
      <trkpt lat="44.93187" lon="1.81631">
        <ele>136.69078063965</ele>
        <time>2020-06-23T21:04:59.364Z</time>
      </trkpt>
      <trkpt lat="44.93198" lon="1.81662">
        <ele>137.06457519531</ele>
        <time>2020-06-23T21:05:08.796Z</time>
      </trkpt>
      <trkpt lat="44.93201" lon="1.81684">
        <ele>136.78861999512</ele>
        <time>2020-06-23T21:05:18.231Z</time>
      </trkpt>
      <trkpt lat="44.932" lon="1.81709">
        <ele>136.10473632812</ele>
        <time>2020-06-23T21:05:27.669Z</time>
      </trkpt>
      <trkpt lat="44.93183" lon="1.81842">
        <ele>132.35722351074</ele>
        <time>2020-06-23T21:05:37.122Z</time>
      </trkpt>
      <trkpt lat="44.93179" lon="1.8189">
        <ele>131.47756958008</ele>
        <time>2020-06-23T21:05:46.580Z</time>
      </trkpt>
      <trkpt lat="44.93181" lon="1.81915">
        <ele>131.68542480469</ele>
        <time>2020-06-23T21:05:56.041Z</time>
      </trkpt>
      <trkpt lat="44.93187" lon="1.81947">
        <ele>131.75741577148</ele>
        <time>2020-06-23T21:06:05.506Z</time>
      </trkpt>
      <trkpt lat="44.93202" lon="1.81994">
        <ele>131.80952453613</ele>
        <time>2020-06-23T21:06:14.977Z</time>
      </trkpt>
      <trkpt lat="44.93219" lon="1.82033">
        <ele>131.21899414062</ele>
        <time>2020-06-23T21:06:24.453Z</time>
      </trkpt>
      <trkpt lat="44.93242" lon="1.82083">
        <ele>130.70286560059</ele>
        <time>2020-06-23T21:06:33.936Z</time>
      </trkpt>
      <trkpt lat="44.93268" lon="1.82123">
        <ele>130.84683227539</ele>
        <time>2020-06-23T21:06:43.425Z</time>
      </trkpt>
      <trkpt lat="44.93305" lon="1.82166">
        <ele>131.21878051758</ele>
        <time>2020-06-23T21:06:52.922Z</time>
      </trkpt>
      <trkpt lat="44.93388" lon="1.82258">
        <ele>132.23139953613</ele>
        <time>2020-06-23T21:07:02.436Z</time>
      </trkpt>
      <trkpt lat="44.93477" lon="1.82357">
        <ele>132.58079528809</ele>
        <time>2020-06-23T21:07:11.968Z</time>
      </trkpt>
      <trkpt lat="44.93509" lon="1.82388">
        <ele>132.20886230469</ele>
        <time>2020-06-23T21:07:21.506Z</time>
      </trkpt>
      <trkpt lat="44.93567" lon="1.82426">
        <ele>132.94996643066</ele>
        <time>2020-06-23T21:07:31.054Z</time>
      </trkpt>
      <trkpt lat="44.9362" lon="1.8246">
        <ele>134.85765075684</ele>
        <time>2020-06-23T21:07:40.612Z</time>
      </trkpt>
      <trkpt lat="44.93677" lon="1.82499">
        <ele>137.29991149902</ele>
        <time>2020-06-23T21:07:50.180Z</time>
      </trkpt>
      <trkpt lat="44.93725" lon="1.82551">
        <ele>138.7804107666</ele>
        <time>2020-06-23T21:07:59.757Z</time>
      </trkpt>
      <trkpt lat="44.9381" lon="1.82642">
        <ele>142.98590087891</ele>
        <time>2020-06-23T21:08:09.351Z</time>
      </trkpt>
      <trkpt lat="44.9389" lon="1.82724">
        <ele>143.63722229004</ele>
        <time>2020-06-23T21:08:18.961Z</time>
      </trkpt>
      <trkpt lat="44.9392" lon="1.82751">
        <ele>143.89407348633</ele>
        <time>2020-06-23T21:08:28.577Z</time>
      </trkpt>
      <trkpt lat="44.93956" lon="1.82772">
        <ele>146.95355224609</ele>
        <time>2020-06-23T21:08:38.199Z</time>
      </trkpt>
      <trkpt lat="44.93983" lon="1.82785">
        <ele>146.42300415039</ele>
        <time>2020-06-23T21:08:47.826Z</time>
      </trkpt>
      <trkpt lat="44.94002" lon="1.82798">
        <ele>145.13922119141</ele>
        <time>2020-06-23T21:08:57.456Z</time>
      </trkpt>
      <trkpt lat="44.94013" lon="1.82806">
        <ele>144.29936218262</ele>
        <time>2020-06-23T21:09:07.088Z</time>
      </trkpt>
      <trkpt lat="44.94046" lon="1.82838">
        <ele>141.85939025879</ele>
        <time>2020-06-23T21:09:16.727Z</time>
      </trkpt>
      <trkpt lat="44.94087" lon="1.8288">
        <ele>139.80773925781</ele>
        <time>2020-06-23T21:09:26.374Z</time>
      </trkpt>
      <trkpt lat="44.94101" lon="1.82898">
        <ele>138.79989624023</ele>
        <time>2020-06-23T21:09:36.024Z</time>
      </trkpt>
      <trkpt lat="44.94107" lon="1.82911">
        <ele>138.38673400879</ele>
        <time>2020-06-23T21:09:45.675Z</time>
      </trkpt>
      <trkpt lat="44.94117" lon="1.82926">
        <ele>138.74667358398</ele>
        <time>2020-06-23T21:09:55.329Z</time>
      </trkpt>
      <trkpt lat="44.94128" lon="1.82937">
        <ele>139.23767089844</ele>
        <time>2020-06-23T21:10:04.985Z</time>
      </trkpt>
      <trkpt lat="44.94139" lon="1.82945">
        <ele>139.89756774902</ele>
        <time>2020-06-23T21:10:14.643Z</time>
      </trkpt>
      <trkpt lat="44.9418" lon="1.82963">
        <ele>142.3571472168</ele>
        <time>2020-06-23T21:10:24.308Z</time>
      </trkpt>
      <trkpt lat="44.94197" lon="1.82967">
        <ele>144.2014465332</ele>
        <time>2020-06-23T21:10:33.976Z</time>
      </trkpt>
      <trkpt lat="44.94231" lon="1.82965">
        <ele>146.28271484375</ele>
        <time>2020-06-23T21:10:43.649Z</time>
      </trkpt>
      <trkpt lat="44.94277" lon="1.82959">
        <ele>150.71699523926</ele>
        <time>2020-06-23T21:10:53.329Z</time>
      </trkpt>
      <trkpt lat="44.94299" lon="1.82961">
        <ele>153.60920715332</ele>
        <time>2020-06-23T21:11:03.013Z</time>
      </trkpt>
      <trkpt lat="44.94311" lon="1.82967">
        <ele>152.96131896973</ele>
        <time>2020-06-23T21:11:12.699Z</time>
      </trkpt>
      <trkpt lat="44.94325" lon="1.82978">
        <ele>151.19761657715</ele>
        <time>2020-06-23T21:11:22.388Z</time>
      </trkpt>
      <trkpt lat="44.9436" lon="1.83007">
        <ele>148.15365600586</ele>
        <time>2020-06-23T21:11:32.083Z</time>
      </trkpt>
      <trkpt lat="44.94379" lon="1.83017">
        <ele>147.66651916504</ele>
        <time>2020-06-23T21:11:41.781Z</time>
      </trkpt>
      <trkpt lat="44.94402" lon="1.83026">
        <ele>146.53871154785</ele>
        <time>2020-06-23T21:11:51.483Z</time>
      </trkpt>
      <trkpt lat="44.94535" lon="1.83057">
        <ele>145.32727050781</ele>
        <time>2020-06-23T21:12:01.207Z</time>
      </trkpt>
      <trkpt lat="44.94586" lon="1.83068">
        <ele>144.2195892334</ele>
        <time>2020-06-23T21:12:10.939Z</time>
      </trkpt>
      <trkpt lat="44.94604" lon="1.83076">
        <ele>143.56407165527</ele>
        <time>2020-06-23T21:12:20.674Z</time>
      </trkpt>
      <trkpt lat="44.94617" lon="1.83085">
        <ele>143.80403137207</ele>
        <time>2020-06-23T21:12:30.411Z</time>
      </trkpt>
      <trkpt lat="44.94624" lon="1.83092">
        <ele>143.80403137207</ele>
        <time>2020-06-23T21:12:40.150Z</time>
      </trkpt>
      <trkpt lat="44.94635" lon="1.83109">
        <ele>144.35774230957</ele>
        <time>2020-06-23T21:12:49.891Z</time>
      </trkpt>
      <trkpt lat="44.94694" lon="1.83236">
        <ele>141.4227142334</ele>
        <time>2020-06-23T21:12:59.649Z</time>
      </trkpt>
      <trkpt lat="44.94713" lon="1.83273">
        <ele>139.8643951416</ele>
        <time>2020-06-23T21:13:09.413Z</time>
      </trkpt>
      <trkpt lat="44.94733" lon="1.83306">
        <ele>139.732421875</ele>
        <time>2020-06-23T21:13:19.182Z</time>
      </trkpt>
      <trkpt lat="44.94763" lon="1.83346">
        <ele>139.76187133789</ele>
        <time>2020-06-23T21:13:28.957Z</time>
      </trkpt>
      <trkpt lat="44.94788" lon="1.8337">
        <ele>140.46974182129</ele>
        <time>2020-06-23T21:13:38.737Z</time>
      </trkpt>
      <trkpt lat="44.94826" lon="1.83395">
        <ele>143.62963867188</ele>
        <time>2020-06-23T21:13:48.524Z</time>
      </trkpt>
      <trkpt lat="44.94925" lon="1.83462">
        <ele>144.38287353516</ele>
        <time>2020-06-23T21:13:58.328Z</time>
      </trkpt>
      <trkpt lat="44.94975" lon="1.83502">
        <ele>142.00744628906</ele>
        <time>2020-06-23T21:14:08.142Z</time>
      </trkpt>
      <trkpt lat="44.94992" lon="1.83521">
        <ele>140.80764770508</ele>
        <time>2020-06-23T21:14:17.959Z</time>
      </trkpt>
      <trkpt lat="44.94999" lon="1.83532">
        <ele>139.91351318359</ele>
        <time>2020-06-23T21:14:27.778Z</time>
      </trkpt>
      <trkpt lat="44.95004" lon="1.83547">
        <ele>139.0736541748</ele>
        <time>2020-06-23T21:14:37.599Z</time>
      </trkpt>
      <trkpt lat="44.9501" lon="1.8358">
        <ele>137.44424438477</ele>
        <time>2020-06-23T21:14:47.423Z</time>
      </trkpt>
      <trkpt lat="44.95019" lon="1.83653">
        <ele>136.26225280762</ele>
        <time>2020-06-23T21:14:57.256Z</time>
      </trkpt>
      <trkpt lat="44.95049" lon="1.83881">
        <ele>136.60646057129</ele>
        <time>2020-06-23T21:15:07.115Z</time>
      </trkpt>
      <trkpt lat="44.951" lon="1.84298">
        <ele>137.70732116699</ele>
        <time>2020-06-23T21:15:17.022Z</time>
      </trkpt>
      <trkpt lat="44.95154" lon="1.84728">
        <ele>139.29640197754</ele>
        <time>2020-06-23T21:15:26.979Z</time>
      </trkpt>
      <trkpt lat="44.95159" lon="1.84753">
        <ele>139.33706665039</ele>
        <time>2020-06-23T21:15:36.939Z</time>
      </trkpt>
      <trkpt lat="44.95162" lon="1.84762">
        <ele>139.26507568359</ele>
        <time>2020-06-23T21:15:46.900Z</time>
      </trkpt>
      <trkpt lat="44.95183" lon="1.84798">
        <ele>139.40995788574</ele>
        <time>2020-06-23T21:15:56.866Z</time>
      </trkpt>
      <trkpt lat="44.952" lon="1.84826">
        <ele>139.64363098145</ele>
        <time>2020-06-23T21:16:06.836Z</time>
      </trkpt>
      <trkpt lat="44.95217" lon="1.84844">
        <ele>139.71025085449</ele>
        <time>2020-06-23T21:16:16.810Z</time>
      </trkpt>
      <trkpt lat="44.95272" lon="1.84884">
        <ele>140.31585693359</ele>
        <time>2020-06-23T21:16:26.794Z</time>
      </trkpt>
      <trkpt lat="44.95332" lon="1.84929">
        <ele>141.56845092773</ele>
        <time>2020-06-23T21:16:36.789Z</time>
      </trkpt>
      <trkpt lat="44.95352" lon="1.84942">
        <ele>142.22834777832</ele>
        <time>2020-06-23T21:16:46.787Z</time>
      </trkpt>
      <trkpt lat="44.95445" lon="1.84967">
        <ele>144.60244750977</ele>
        <time>2020-06-23T21:16:56.800Z</time>
      </trkpt>
      <trkpt lat="44.95497" lon="1.84979">
        <ele>144.69317626953</ele>
        <time>2020-06-23T21:17:06.822Z</time>
      </trkpt>
      <trkpt lat="44.95504" lon="1.84979">
        <ele>144.77716064453</ele>
        <time>2020-06-23T21:17:16.845Z</time>
      </trkpt>
      <trkpt lat="44.95527" lon="1.84974">
        <ele>145.78590393066</ele>
        <time>2020-06-23T21:17:26.872Z</time>
      </trkpt>
      <trkpt lat="44.95587" lon="1.84953">
        <ele>152.24572753906</ele>
        <time>2020-06-23T21:17:36.909Z</time>
      </trkpt>
      <trkpt lat="44.95622" lon="1.84945">
        <ele>153.56690979004</ele>
        <time>2020-06-23T21:17:46.951Z</time>
      </trkpt>
      <trkpt lat="44.95646" lon="1.84946">
        <ele>153.06298828125</ele>
        <time>2020-06-23T21:17:56.997Z</time>
      </trkpt>
      <trkpt lat="44.95704" lon="1.84959">
        <ele>148.60443115234</ele>
        <time>2020-06-23T21:18:07.052Z</time>
      </trkpt>
      <trkpt lat="44.95757" lon="1.84971">
        <ele>147.45487976074</ele>
        <time>2020-06-23T21:18:17.116Z</time>
      </trkpt>
      <trkpt lat="44.95784" lon="1.84975">
        <ele>147.55540466309</ele>
        <time>2020-06-23T21:18:27.184Z</time>
      </trkpt>
      <trkpt lat="44.95808" lon="1.84975">
        <ele>148.29885864258</ele>
        <time>2020-06-23T21:18:37.256Z</time>
      </trkpt>
      <trkpt lat="44.95829" lon="1.8497">
        <ele>149.82260131836</ele>
        <time>2020-06-23T21:18:47.332Z</time>
      </trkpt>
      <trkpt lat="44.95841" lon="1.84965">
        <ele>151.13038635254</ele>
        <time>2020-06-23T21:18:57.410Z</time>
      </trkpt>
      <trkpt lat="44.95871" lon="1.84947">
        <ele>155.98767089844</ele>
        <time>2020-06-23T21:19:07.493Z</time>
      </trkpt>
      <trkpt lat="44.95903" lon="1.84921">
        <ele>157.14938354492</ele>
        <time>2020-06-23T21:19:17.582Z</time>
      </trkpt>
      <trkpt lat="44.95951" lon="1.8489">
        <ele>153.12622070312</ele>
        <time>2020-06-23T21:19:27.679Z</time>
      </trkpt>
      <trkpt lat="44.96082" lon="1.84815">
        <ele>159.4927520752</ele>
        <time>2020-06-23T21:19:37.799Z</time>
      </trkpt>
      <trkpt lat="44.96169" lon="1.84767">
        <ele>163.47619628906</ele>
        <time>2020-06-23T21:19:47.934Z</time>
      </trkpt>
      <trkpt lat="44.96186" lon="1.8476">
        <ele>160.94462585449</ele>
        <time>2020-06-23T21:19:58.072Z</time>
      </trkpt>
      <trkpt lat="44.96207" lon="1.84755">
        <ele>157.11726379395</ele>
        <time>2020-06-23T21:20:08.213Z</time>
      </trkpt>
      <trkpt lat="44.9627" lon="1.84753">
        <ele>154.10035705566</ele>
        <time>2020-06-23T21:20:18.364Z</time>
      </trkpt>
      <trkpt lat="44.96332" lon="1.84743">
        <ele>154.70175170898</ele>
        <time>2020-06-23T21:20:28.525Z</time>
      </trkpt>
      <trkpt lat="44.96383" lon="1.84731">
        <ele>158.59524536133</ele>
        <time>2020-06-23T21:20:38.694Z</time>
      </trkpt>
      <trkpt lat="44.96437" lon="1.84712">
        <ele>160.97007751465</ele>
        <time>2020-06-23T21:20:48.872Z</time>
      </trkpt>
      <trkpt lat="44.9646" lon="1.84705">
        <ele>158.25703430176</ele>
        <time>2020-06-23T21:20:59.054Z</time>
      </trkpt>
      <trkpt lat="44.96487" lon="1.84702">
        <ele>157.14122009277</ele>
        <time>2020-06-23T21:21:09.240Z</time>
      </trkpt>
      <trkpt lat="44.96585" lon="1.84692">
        <ele>155.92652893066</ele>
        <time>2020-06-23T21:21:19.442Z</time>
      </trkpt>
      <trkpt lat="44.96601" lon="1.84689">
        <ele>155.19465637207</ele>
        <time>2020-06-23T21:21:29.647Z</time>
      </trkpt>
      <trkpt lat="44.96625" lon="1.84681">
        <ele>154.84997558594</ele>
        <time>2020-06-23T21:21:39.856Z</time>
      </trkpt>
      <trkpt lat="44.96672" lon="1.84651">
        <ele>157.61692810059</ele>
        <time>2020-06-23T21:21:50.073Z</time>
      </trkpt>
      <trkpt lat="44.96738" lon="1.846">
        <ele>165.54011535645</ele>
        <time>2020-06-23T21:22:00.302Z</time>
      </trkpt>
      <trkpt lat="44.96763" lon="1.84582">
        <ele>158.65325927734</ele>
        <time>2020-06-23T21:22:10.535Z</time>
      </trkpt>
      <trkpt lat="44.96784" lon="1.84573">
        <ele>152.35430908203</ele>
        <time>2020-06-23T21:22:20.772Z</time>
      </trkpt>
      <trkpt lat="44.96814" lon="1.84565">
        <ele>149.69316101074</ele>
        <time>2020-06-23T21:22:31.014Z</time>
      </trkpt>
      <trkpt lat="44.9688" lon="1.84553">
        <ele>147.03141784668</ele>
        <time>2020-06-23T21:22:41.266Z</time>
      </trkpt>
      <trkpt lat="44.96903" lon="1.84549">
        <ele>147.65531921387</ele>
        <time>2020-06-23T21:22:51.522Z</time>
      </trkpt>
      <trkpt lat="44.96923" lon="1.84542">
        <ele>148.74713134766</ele>
        <time>2020-06-23T21:23:01.781Z</time>
      </trkpt>
      <trkpt lat="44.96941" lon="1.84532">
        <ele>149.45770263672</ele>
        <time>2020-06-23T21:23:12.044Z</time>
      </trkpt>
      <trkpt lat="44.96958" lon="1.84516">
        <ele>150.76361083984</ele>
        <time>2020-06-23T21:23:22.310Z</time>
      </trkpt>
      <trkpt lat="44.96987" lon="1.84482">
        <ele>153.08206176758</ele>
        <time>2020-06-23T21:23:32.582Z</time>
      </trkpt>
      <trkpt lat="44.97" lon="1.84469">
        <ele>154.79777526855</ele>
        <time>2020-06-23T21:23:42.856Z</time>
      </trkpt>
      <trkpt lat="44.97016" lon="1.84458">
        <ele>155.54658508301</ele>
        <time>2020-06-23T21:23:53.133Z</time>
      </trkpt>
      <trkpt lat="44.97034" lon="1.84452">
        <ele>154.17881774902</ele>
        <time>2020-06-23T21:24:03.413Z</time>
      </trkpt>
      <trkpt lat="44.9707" lon="1.84452">
        <ele>152.53846740723</ele>
        <time>2020-06-23T21:24:13.699Z</time>
      </trkpt>
      <trkpt lat="44.97091" lon="1.84447">
        <ele>152.66925048828</ele>
        <time>2020-06-23T21:24:23.988Z</time>
      </trkpt>
      <trkpt lat="44.97105" lon="1.84438">
        <ele>153.29313659668</ele>
        <time>2020-06-23T21:24:34.280Z</time>
      </trkpt>
      <trkpt lat="44.97125" lon="1.84419">
        <ele>155.07438659668</ele>
        <time>2020-06-23T21:24:44.576Z</time>
      </trkpt>
      <trkpt lat="44.97194" lon="1.84336">
        <ele>163.54959106445</ele>
        <time>2020-06-23T21:24:54.886Z</time>
      </trkpt>
      <trkpt lat="44.97283" lon="1.842">
        <ele>167.90850830078</ele>
        <time>2020-06-23T21:25:05.217Z</time>
      </trkpt>
      <trkpt lat="44.97307" lon="1.84158">
        <ele>173.04861450195</ele>
        <time>2020-06-23T21:25:15.554Z</time>
      </trkpt>
      <trkpt lat="44.97301" lon="1.84157">
        <ele>175.32824707031</ele>
        <time>2020-06-23T21:25:25.892Z</time>
      </trkpt>
      <trkpt lat="44.97291" lon="1.84167">
        <ele>175.43124389648</ele>
        <time>2020-06-23T21:25:36.232Z</time>
      </trkpt>
      <trkpt lat="44.97253" lon="1.84202">
        <ele>179.19555664062</ele>
        <time>2020-06-23T21:25:46.580Z</time>
      </trkpt>
      <trkpt lat="44.97236" lon="1.84215">
        <ele>183.15489196777</ele>
        <time>2020-06-23T21:25:56.931Z</time>
      </trkpt>
      <trkpt lat="44.97247" lon="1.84207">
        <ele>180.47933959961</ele>
        <time>2020-06-23T21:26:07.284Z</time>
      </trkpt>
      <trkpt lat="44.97264" lon="1.84191">
        <ele>178.34677124023</ele>
        <time>2020-06-23T21:26:17.640Z</time>
      </trkpt>
      <trkpt lat="44.97293" lon="1.84166">
        <ele>175.38745117188</ele>
        <time>2020-06-23T21:26:28.001Z</time>
      </trkpt>
      <trkpt lat="44.97299" lon="1.84158">
        <ele>175.9281463623</ele>
        <time>2020-06-23T21:26:38.364Z</time>
      </trkpt>
      <trkpt lat="44.97303" lon="1.84157">
        <ele>174.60836791992</ele>
        <time>2020-06-23T21:26:48.727Z</time>
      </trkpt>
      <trkpt lat="44.97307" lon="1.84158">
        <ele>173.04861450195</ele>
        <time>2020-06-23T21:26:59.091Z</time>
      </trkpt>
      <trkpt lat="44.97311" lon="1.84152">
        <ele>173.17204284668</ele>
        <time>2020-06-23T21:27:09.456Z</time>
      </trkpt>
      <trkpt lat="44.97324" lon="1.84134">
        <ele>174.75576782227</ele>
        <time>2020-06-23T21:27:19.824Z</time>
      </trkpt>
      <trkpt lat="44.97353" lon="1.84109">
        <ele>171.20776367188</ele>
        <time>2020-06-23T21:27:30.197Z</time>
      </trkpt>
      <trkpt lat="44.9739" lon="1.84082">
        <ele>167.18870544434</ele>
        <time>2020-06-23T21:27:40.577Z</time>
      </trkpt>
      <trkpt lat="44.97402" lon="1.8408">
        <ele>164.35717773438</ele>
        <time>2020-06-23T21:27:50.959Z</time>
      </trkpt>
      <trkpt lat="44.97404" lon="1.84084">
        <ele>163.4693145752</ele>
        <time>2020-06-23T21:28:01.341Z</time>
      </trkpt>
      <trkpt lat="44.97408" lon="1.8409">
        <ele>161.88558959961</ele>
        <time>2020-06-23T21:28:11.724Z</time>
      </trkpt>
      <trkpt lat="44.97413" lon="1.8409">
        <ele>160.62579345703</ele>
        <time>2020-06-23T21:28:22.108Z</time>
      </trkpt>
      <trkpt lat="44.97441" lon="1.84077">
        <ele>154.81875610352</ele>
        <time>2020-06-23T21:28:32.497Z</time>
      </trkpt>
      <trkpt lat="44.97458" lon="1.84069">
        <ele>151.83932495117</ele>
        <time>2020-06-23T21:28:42.889Z</time>
      </trkpt>
      <trkpt lat="44.97476" lon="1.84064">
        <ele>151.80332946777</ele>
        <time>2020-06-23T21:28:53.284Z</time>
      </trkpt>
      <trkpt lat="44.97529" lon="1.84059">
        <ele>149.04084777832</ele>
        <time>2020-06-23T21:29:03.687Z</time>
      </trkpt>
      <trkpt lat="44.97548" lon="1.84063">
        <ele>145.72242736816</ele>
        <time>2020-06-23T21:29:14.093Z</time>
      </trkpt>
      <trkpt lat="44.976" lon="1.8408">
        <ele>145.85862731934</ele>
        <time>2020-06-23T21:29:24.508Z</time>
      </trkpt>
      <trkpt lat="44.97659" lon="1.84106">
        <ele>145.37640380859</ele>
        <time>2020-06-23T21:29:34.933Z</time>
      </trkpt>
      <trkpt lat="44.97725" lon="1.84132">
        <ele>143.85302734375</ele>
        <time>2020-06-23T21:29:45.369Z</time>
      </trkpt>
      <trkpt lat="44.97752" lon="1.84139">
        <ele>143.60107421875</ele>
        <time>2020-06-23T21:29:55.809Z</time>
      </trkpt>
      <trkpt lat="44.97761" lon="1.8414">
        <ele>143.56507873535</ele>
        <time>2020-06-23T21:30:06.251Z</time>
      </trkpt>
      <trkpt lat="44.97774" lon="1.84138">
        <ele>143.64166259766</ele>
        <time>2020-06-23T21:30:16.695Z</time>
      </trkpt>
      <trkpt lat="44.9779" lon="1.84132">
        <ele>144.12158203125</ele>
        <time>2020-06-23T21:30:27.141Z</time>
      </trkpt>
      <trkpt lat="44.97796" lon="1.84128">
        <ele>144.27314758301</ele>
        <time>2020-06-23T21:30:37.588Z</time>
      </trkpt>
      <trkpt lat="44.97802" lon="1.84121">
        <ele>144.53709411621</ele>
        <time>2020-06-23T21:30:48.037Z</time>
      </trkpt>
      <trkpt lat="44.97803" lon="1.84114">
        <ele>144.8610534668</ele>
        <time>2020-06-23T21:30:58.486Z</time>
      </trkpt>
      <trkpt lat="44.9782" lon="1.84098">
        <ele>145.42495727539</ele>
        <time>2020-06-23T21:31:08.939Z</time>
      </trkpt>
      <trkpt lat="44.97826" lon="1.84087">
        <ele>145.88087463379</ele>
        <time>2020-06-23T21:31:19.393Z</time>
      </trkpt>
      <trkpt lat="44.97834" lon="1.84069">
        <ele>146.52809143066</ele>
        <time>2020-06-23T21:31:29.850Z</time>
      </trkpt>
      <trkpt lat="44.97845" lon="1.84054">
        <ele>146.57608032227</ele>
        <time>2020-06-23T21:31:40.309Z</time>
      </trkpt>
      <trkpt lat="44.97859" lon="1.84038">
        <ele>147.04853820801</ele>
        <time>2020-06-23T21:31:50.771Z</time>
      </trkpt>
      <trkpt lat="44.97884" lon="1.84008">
        <ele>148.20426940918</ele>
        <time>2020-06-23T21:32:01.238Z</time>
      </trkpt>
      <trkpt lat="44.97896" lon="1.83995">
        <ele>148.34414672852</ele>
        <time>2020-06-23T21:32:11.708Z</time>
      </trkpt>
      <trkpt lat="44.97914" lon="1.83975">
        <ele>148.22410583496</ele>
        <time>2020-06-23T21:32:22.181Z</time>
      </trkpt>
      <trkpt lat="44.9792" lon="1.83986">
        <ele>147.94815063477</ele>
        <time>2020-06-23T21:32:32.656Z</time>
      </trkpt>
      <trkpt lat="44.97933" lon="1.84004">
        <ele>147.24032592773</ele>
        <time>2020-06-23T21:32:43.134Z</time>
      </trkpt>
      <trkpt lat="44.97948" lon="1.84024">
        <ele>146.40046691895</ele>
        <time>2020-06-23T21:32:53.615Z</time>
      </trkpt>
      <trkpt lat="44.97962" lon="1.84032">
        <ele>145.87255859375</ele>
        <time>2020-06-23T21:33:04.099Z</time>
      </trkpt>
      <trkpt lat="44.9797" lon="1.84043">
        <ele>145.41662597656</ele>
        <time>2020-06-23T21:33:14.584Z</time>
      </trkpt>
      <trkpt lat="44.97971" lon="1.84044">
        <ele>145.36863708496</ele>
        <time>2020-06-23T19:42:21.000Z</time>
      </trkpt>
      <trkpt lat="44.97971" lon="1.84044">
        <ele>145.36863708496</ele>
        <time>2020-06-23T19:42:21.000Z</time>
      </trkpt>
      <trkpt lat="44.97962" lon="1.84032">
        <ele>145.87255859375</ele>
        <time>2020-06-23T19:42:21.002Z</time>
      </trkpt>
      <trkpt lat="44.97956" lon="1.84028">
        <ele>146.11251831055</ele>
        <time>2020-06-23T19:42:21.005Z</time>
      </trkpt>
      <trkpt lat="44.97948" lon="1.84024">
        <ele>146.40046691895</ele>
        <time>2020-06-23T19:42:21.009Z</time>
      </trkpt>
      <trkpt lat="44.97933" lon="1.84004">
        <ele>147.24032592773</ele>
        <time>2020-06-23T19:42:21.017Z</time>
      </trkpt>
      <trkpt lat="44.9792" lon="1.83986">
        <ele>147.94815063477</ele>
        <time>2020-06-23T19:42:21.028Z</time>
      </trkpt>
      <trkpt lat="44.97914" lon="1.83975">
        <ele>148.22410583496</ele>
        <time>2020-06-23T19:42:21.040Z</time>
      </trkpt>
      <trkpt lat="44.97896" lon="1.83995">
        <ele>148.34414672852</ele>
        <time>2020-06-23T19:42:21.056Z</time>
      </trkpt>
      <trkpt lat="44.9787" lon="1.84025">
        <ele>147.6484375</ele>
        <time>2020-06-23T19:42:21.077Z</time>
      </trkpt>
      <trkpt lat="44.97859" lon="1.84038">
        <ele>147.04853820801</ele>
        <time>2020-06-23T19:42:21.101Z</time>
      </trkpt>
      <trkpt lat="44.97845" lon="1.84054">
        <ele>146.57608032227</ele>
        <time>2020-06-23T19:42:21.127Z</time>
      </trkpt>
      <trkpt lat="44.97834" lon="1.84069">
        <ele>146.52809143066</ele>
        <time>2020-06-23T19:42:21.156Z</time>
      </trkpt>
      <trkpt lat="44.97826" lon="1.84087">
        <ele>145.88087463379</ele>
        <time>2020-06-23T19:42:21.187Z</time>
      </trkpt>
      <trkpt lat="44.9782" lon="1.84098">
        <ele>145.42495727539</ele>
        <time>2020-06-23T19:42:21.220Z</time>
      </trkpt>
      <trkpt lat="44.97816" lon="1.84101">
        <ele>145.33438110352</ele>
        <time>2020-06-23T19:42:21.254Z</time>
      </trkpt>
      <trkpt lat="44.97816" lon="1.84101">
        <ele>145.33436584473</ele>
        <time>2020-06-23T19:42:21.288Z</time>
      </trkpt>
      <trkpt lat="44.97816" lon="1.84101">
        <ele>145.3289642334</ele>
        <time>2020-06-23T19:42:21.322Z</time>
      </trkpt>
      <trkpt lat="44.97792" lon="1.84126">
        <ele>144.41711425781</ele>
        <time>2020-06-23T19:42:21.360Z</time>
      </trkpt>
      <trkpt lat="44.97787" lon="1.84128">
        <ele>144.27755737305</ele>
        <time>2020-06-23T19:42:21.399Z</time>
      </trkpt>
      <trkpt lat="44.97778" lon="1.8413">
        <ele>144.07359313965</ele>
        <time>2020-06-23T19:42:21.440Z</time>
      </trkpt>
      <trkpt lat="44.97753" lon="1.84127">
        <ele>144.03300476074</ele>
        <time>2020-06-23T19:42:21.485Z</time>
      </trkpt>
      <trkpt lat="44.97752" lon="1.8414">
        <ele>143.56507873535</ele>
        <time>2020-06-23T19:42:21.531Z</time>
      </trkpt>
      <trkpt lat="44.9775" lon="1.84167">
        <ele>142.59324645996</ele>
        <time>2020-06-23T19:42:21.580Z</time>
      </trkpt>
      <trkpt lat="44.9775" lon="1.84167">
        <ele>142.59164428711</ele>
        <time>2020-06-23T19:42:21.629Z</time>
      </trkpt>
      <trkpt lat="44.97737" lon="1.84322">
        <ele>142.29391479492</ele>
        <time>2020-06-23T19:42:21.696Z</time>
      </trkpt>
      <trkpt lat="44.97728" lon="1.84401">
        <ele>143.72100830078</ele>
        <time>2020-06-23T19:42:21.772Z</time>
      </trkpt>
      <trkpt lat="44.97722" lon="1.84444">
        <ele>147.82038879395</ele>
        <time>2020-06-23T19:42:21.853Z</time>
      </trkpt>
      <trkpt lat="44.9774" lon="1.84441">
        <ele>150.87986755371</ele>
        <time>2020-06-23T19:42:21.937Z</time>
      </trkpt>
      <trkpt lat="44.97803" lon="1.84435">
        <ele>153.22952270508</ele>
        <time>2020-06-23T19:42:22.031Z</time>
      </trkpt>
      <trkpt lat="44.97814" lon="1.84437">
        <ele>154.82525634766</ele>
        <time>2020-06-23T19:42:22.127Z</time>
      </trkpt>
      <trkpt lat="44.9783" lon="1.84443">
        <ele>157.58416748047</ele>
        <time>2020-06-23T19:42:22.225Z</time>
      </trkpt>
      <trkpt lat="44.9783" lon="1.84443">
        <ele>157.58020019531</ele>
        <time>2020-06-23T19:42:22.323Z</time>
      </trkpt>
      <trkpt lat="44.97831" lon="1.84441">
        <ele>157.12001037598</ele>
        <time>2020-06-23T19:42:22.422Z</time>
      </trkpt>
      <trkpt lat="44.97854" lon="1.84456">
        <ele>161.84199523926</ele>
        <time>2020-06-23T19:42:22.525Z</time>
      </trkpt>
      <trkpt lat="44.97879" lon="1.84485">
        <ele>169.45094299316</ele>
        <time>2020-06-23T19:42:22.633Z</time>
      </trkpt>
      <trkpt lat="44.97893" lon="1.8453">
        <ele>173.19438171387</ele>
        <time>2020-06-23T19:42:22.747Z</time>
      </trkpt>
      <trkpt lat="44.97898" lon="1.84622">
        <ele>181.54202270508</ele>
        <time>2020-06-23T19:42:22.871Z</time>
      </trkpt>
      <trkpt lat="44.97919" lon="1.84651">
        <ele>172.49269104004</ele>
        <time>2020-06-23T19:42:23.000Z</time>
      </trkpt>
      <trkpt lat="44.9792" lon="1.84703">
        <ele>173.09660339355</ele>
        <time>2020-06-23T19:42:23.135Z</time>
      </trkpt>
      <trkpt lat="44.97944" lon="1.84753">
        <ele>163.05996704102</ele>
        <time>2020-06-23T19:42:23.277Z</time>
      </trkpt>
      <trkpt lat="44.97944" lon="1.84753">
        <ele>163.05645751953</ele>
        <time>2020-06-23T19:42:23.419Z</time>
      </trkpt>
      <trkpt lat="44.97967" lon="1.84788">
        <ele>156.8974609375</ele>
        <time>2020-06-23T19:42:23.566Z</time>
      </trkpt>
      <trkpt lat="44.98055" lon="1.84848">
        <ele>149.89181518555</ele>
        <time>2020-06-23T19:42:23.729Z</time>
      </trkpt>
      <trkpt lat="44.98139" lon="1.84893">
        <ele>151.64498901367</ele>
        <time>2020-06-23T19:42:23.906Z</time>
      </trkpt>
      <trkpt lat="44.98139" lon="1.84893">
        <ele>151.64515686035</ele>
        <time>2020-06-23T19:42:24.083Z</time>
      </trkpt>
      <trkpt lat="44.9814" lon="1.84894">
        <ele>151.65043640137</ele>
        <time>2020-06-23T19:42:24.260Z</time>
      </trkpt>
      <trkpt lat="44.9814" lon="1.84894">
        <ele>151.64993286133</ele>
        <time>2020-06-23T19:42:24.437Z</time>
      </trkpt>
      <trkpt lat="44.98187" lon="1.84919">
        <ele>150.90562438965</ele>
        <time>2020-06-23T19:42:24.622Z</time>
      </trkpt>
      <trkpt lat="44.98216" lon="1.84804">
        <ele>143.46855163574</ele>
        <time>2020-06-23T19:42:24.821Z</time>
      </trkpt>
      <trkpt lat="44.98245" lon="1.84732">
        <ele>141.55944824219</ele>
        <time>2020-06-23T19:42:25.029Z</time>
      </trkpt>
      <trkpt lat="44.98267" lon="1.84679">
        <ele>141.28923034668</ele>
        <time>2020-06-23T19:42:25.244Z</time>
      </trkpt>
      <trkpt lat="44.98298" lon="1.84565">
        <ele>143.91592407227</ele>
        <time>2020-06-23T19:42:25.473Z</time>
      </trkpt>
      <trkpt lat="44.98342" lon="1.8451">
        <ele>143.38815307617</ele>
        <time>2020-06-23T19:42:25.712Z</time>
      </trkpt>
      <trkpt lat="44.98388" lon="1.84408">
        <ele>144.57331848145</ele>
        <time>2020-06-23T19:42:25.964Z</time>
      </trkpt>
      <trkpt lat="44.9841" lon="1.84318">
        <ele>144.63056945801</ele>
        <time>2020-06-23T19:42:26.227Z</time>
      </trkpt>
      <trkpt lat="44.98418" lon="1.84253">
        <ele>143.48707580566</ele>
        <time>2020-06-23T19:42:26.498Z</time>
      </trkpt>
      <trkpt lat="44.98429" lon="1.8424">
        <ele>143.34548950195</ele>
        <time>2020-06-23T19:42:26.771Z</time>
      </trkpt>
      <trkpt lat="44.98453" lon="1.84189">
        <ele>143.06228637695</ele>
        <time>2020-06-23T19:42:27.051Z</time>
      </trkpt>
      <trkpt lat="44.98495" lon="1.84157">
        <ele>143.42109680176</ele>
        <time>2020-06-23T19:42:27.339Z</time>
      </trkpt>
      <trkpt lat="44.98523" lon="1.84149">
        <ele>143.85833740234</ele>
        <time>2020-06-23T19:42:27.631Z</time>
      </trkpt>
      <trkpt lat="44.98523" lon="1.84149">
        <ele>143.85864257812</ele>
        <time>2020-06-23T19:42:27.923Z</time>
      </trkpt>
      <trkpt lat="44.98524" lon="1.84149">
        <ele>143.87828063965</ele>
        <time>2020-06-23T19:42:28.215Z</time>
      </trkpt>
      <trkpt lat="44.98524" lon="1.84149">
        <ele>143.87837219238</ele>
        <time>2020-06-23T19:42:28.507Z</time>
      </trkpt>
      <trkpt lat="44.98576" lon="1.84134">
        <ele>145.5186920166</ele>
        <time>2020-06-23T19:42:28.808Z</time>
      </trkpt>
      <trkpt lat="44.98586" lon="1.841">
        <ele>145.87028503418</ele>
        <time>2020-06-23T19:42:29.113Z</time>
      </trkpt>
      <trkpt lat="44.98588" lon="1.84021">
        <ele>144.2385559082</ele>
        <time>2020-06-23T19:42:29.427Z</time>
      </trkpt>
      <trkpt lat="44.98588" lon="1.84021">
        <ele>144.23895263672</ele>
        <time>2020-06-23T19:42:29.741Z</time>
      </trkpt>
      <trkpt lat="44.98582" lon="1.83911">
        <ele>144.87164306641</ele>
        <time>2020-06-23T19:42:30.068Z</time>
      </trkpt>
      <trkpt lat="44.98585" lon="1.83892">
        <ele>145.24534606934</ele>
        <time>2020-06-23T19:42:30.397Z</time>
      </trkpt>
      <trkpt lat="44.98594" lon="1.83884">
        <ele>145.76025390625</ele>
        <time>2020-06-23T19:42:30.727Z</time>
      </trkpt>
      <trkpt lat="44.98739" lon="1.83656">
        <ele>149.00505065918</ele>
        <time>2020-06-23T19:42:31.092Z</time>
      </trkpt>
      <trkpt lat="44.9874" lon="1.83655">
        <ele>149</ele>
        <time>2020-06-23T19:42:31.457Z</time>
      </trkpt>
      <trkpt lat="44.9874" lon="1.83655">
        <ele>149</ele>
        <time>2020-06-23T19:42:31.822Z</time>
      </trkpt>
      <trkpt lat="44.98794" lon="1.8357">
        <ele>149.94624328613</ele>
        <time>2020-06-23T19:42:32.200Z</time>
      </trkpt>
      <trkpt lat="44.98821" lon="1.83599">
        <ele>149.97200012207</ele>
        <time>2020-06-23T19:42:32.584Z</time>
      </trkpt>
      <trkpt lat="44.98954" lon="1.83746">
        <ele>156.37832641602</ele>
        <time>2020-06-23T19:42:32.995Z</time>
      </trkpt>
      <trkpt lat="44.98965" lon="1.83735">
        <ele>156.48928833008</ele>
        <time>2020-06-23T19:42:33.408Z</time>
      </trkpt>
      <trkpt lat="44.9903" lon="1.83658">
        <ele>156.57897949219</ele>
        <time>2020-06-23T19:42:33.835Z</time>
      </trkpt>
      <trkpt lat="44.99063" lon="1.83635">
        <ele>156.29676818848</ele>
        <time>2020-06-23T19:42:34.268Z</time>
      </trkpt>
      <trkpt lat="44.99163" lon="1.83591">
        <ele>155.43101501465</ele>
        <time>2020-06-23T19:42:34.717Z</time>
      </trkpt>
      <trkpt lat="44.99163" lon="1.83591">
        <ele>155.42837524414</ele>
        <time>2020-06-23T19:42:35.166Z</time>
      </trkpt>
      <trkpt lat="44.99164" lon="1.83591">
        <ele>155.35722351074</ele>
        <time>2020-06-23T19:42:35.615Z</time>
      </trkpt>
      <trkpt lat="44.99164" lon="1.83591">
        <ele>155.35733032227</ele>
        <time>2020-06-23T19:42:36.064Z</time>
      </trkpt>
      <trkpt lat="44.99223" lon="1.83565">
        <ele>153.55281066895</ele>
        <time>2020-06-23T19:42:36.523Z</time>
      </trkpt>
      <trkpt lat="44.9928" lon="1.83551">
        <ele>155.71125793457</ele>
        <time>2020-06-23T19:42:36.992Z</time>
      </trkpt>
      <trkpt lat="44.99339" lon="1.83568">
        <ele>155.85380554199</ele>
        <time>2020-06-23T19:42:37.470Z</time>
      </trkpt>
      <trkpt lat="44.99385" lon="1.83597">
        <ele>158.22845458984</ele>
        <time>2020-06-23T19:42:37.956Z</time>
      </trkpt>
      <trkpt lat="44.99603" lon="1.83795">
        <ele>159.46295166016</ele>
        <time>2020-06-23T19:42:38.484Z</time>
      </trkpt>
      <trkpt lat="44.99753" lon="1.83898">
        <ele>152.91784667969</ele>
        <time>2020-06-23T19:42:39.038Z</time>
      </trkpt>
      <trkpt lat="44.9981" lon="1.83943">
        <ele>152.55661010742</ele>
        <time>2020-06-23T19:42:39.603Z</time>
      </trkpt>
      <trkpt lat="44.99865" lon="1.84032">
        <ele>161.56730651855</ele>
        <time>2020-06-23T19:42:40.181Z</time>
      </trkpt>
      <trkpt lat="44.99865" lon="1.84032">
        <ele>161.56700134277</ele>
        <time>2020-06-23T19:42:40.759Z</time>
      </trkpt>
      <trkpt lat="44.99957" lon="1.84238">
        <ele>187.49473571777</ele>
        <time>2020-06-23T19:42:41.365Z</time>
      </trkpt>
      <trkpt lat="44.99957" lon="1.84238">
        <ele>187.49598693848</ele>
        <time>2020-06-23T19:42:41.971Z</time>
      </trkpt>
      <trkpt lat="44.99957" lon="1.8424">
        <ele>187.57748413086</ele>
        <time>2020-06-23T19:42:42.577Z</time>
      </trkpt>
      <trkpt lat="44.99957" lon="1.8424">
        <ele>187.57356262207</ele>
        <time>2020-06-23T19:42:43.183Z</time>
      </trkpt>
      <trkpt lat="45" lon="1.84335">
        <ele>188.9616394043</ele>
        <time>2020-06-23T19:42:43.802Z</time>
      </trkpt>
      <trkpt lat="45" lon="1.84335">
        <ele>188.95780944824</ele>
        <time>2020-06-23T19:42:44.421Z</time>
      </trkpt>
      <trkpt lat="45.00077" lon="1.84523">
        <ele>160.16107177734</ele>
        <time>2020-06-23T19:42:45.065Z</time>
      </trkpt>
      <trkpt lat="45.001" lon="1.84557">
        <ele>157.70568847656</ele>
        <time>2020-06-23T19:42:45.714Z</time>
      </trkpt>
      <trkpt lat="45.00109" lon="1.84598">
        <ele>158.35945129395</ele>
        <time>2020-06-23T19:42:46.368Z</time>
      </trkpt>
      <trkpt lat="45.00107" lon="1.84637">
        <ele>161.47457885742</ele>
        <time>2020-06-23T19:42:47.026Z</time>
      </trkpt>
      <trkpt lat="45.00123" lon="1.84827">
        <ele>165.81285095215</ele>
        <time>2020-06-23T19:42:47.706Z</time>
      </trkpt>
      <trkpt lat="45.00131" lon="1.84847">
        <ele>170.31968688965</ele>
        <time>2020-06-23T19:42:48.389Z</time>
      </trkpt>
      <trkpt lat="45.00232" lon="1.84909">
        <ele>159.17236328125</ele>
        <time>2020-06-23T19:42:49.089Z</time>
      </trkpt>
      <trkpt lat="45.00253" lon="1.84932">
        <ele>155.88987731934</ele>
        <time>2020-06-23T19:42:49.793Z</time>
      </trkpt>
      <trkpt lat="45.00305" lon="1.85025">
        <ele>154.6921081543</ele>
        <time>2020-06-23T19:42:50.511Z</time>
      </trkpt>
      <trkpt lat="45.00336" lon="1.85063">
        <ele>154.73072814941</ele>
        <time>2020-06-23T19:42:51.235Z</time>
      </trkpt>
      <trkpt lat="45.00352" lon="1.85135">
        <ele>156.88034057617</ele>
        <time>2020-06-23T19:42:51.968Z</time>
      </trkpt>
      <trkpt lat="45.0047" lon="1.85275">
        <ele>160.15539550781</ele>
        <time>2020-06-23T19:42:52.726Z</time>
      </trkpt>
      <trkpt lat="45.00491" lon="1.85326">
        <ele>164.90693664551</ele>
        <time>2020-06-23T19:42:53.490Z</time>
      </trkpt>
      <trkpt lat="45.0051" lon="1.85348">
        <ele>166.47738647461</ele>
        <time>2020-06-23T19:42:54.258Z</time>
      </trkpt>
      <trkpt lat="45.0051" lon="1.85348">
        <ele>166.47537231445</ele>
        <time>2020-06-23T19:42:55.026Z</time>
      </trkpt>
      <trkpt lat="45.00526" lon="1.85368">
        <ele>167.71313476562</ele>
        <time>2020-06-23T19:42:55.798Z</time>
      </trkpt>
      <trkpt lat="45.00561" lon="1.8538">
        <ele>166.55584716797</ele>
        <time>2020-06-23T19:42:56.575Z</time>
      </trkpt>
      <trkpt lat="45.00597" lon="1.85387">
        <ele>166.96098327637</ele>
        <time>2020-06-23T19:42:57.358Z</time>
      </trkpt>
      <trkpt lat="45.00597" lon="1.85387">
        <ele>166.96119689941</ele>
        <time>2020-06-23T19:42:58.141Z</time>
      </trkpt>
      <trkpt lat="45.00599" lon="1.85387">
        <ele>166.97621154785</ele>
        <time>2020-06-23T19:42:58.924Z</time>
      </trkpt>
      <trkpt lat="45.00599" lon="1.85387">
        <ele>166.97590637207</ele>
        <time>2020-06-23T19:42:59.707Z</time>
      </trkpt>
      <trkpt lat="45.00723" lon="1.85409">
        <ele>172.49319458008</ele>
        <time>2020-06-23T19:43:00.511Z</time>
      </trkpt>
      <trkpt lat="45.00769" lon="1.85405">
        <ele>172.26550292969</ele>
        <time>2020-06-23T19:43:01.322Z</time>
      </trkpt>
      <trkpt lat="45.00948" lon="1.85414">
        <ele>176.22007751465</ele>
        <time>2020-06-23T19:43:02.162Z</time>
      </trkpt>
      <trkpt lat="45.01038" lon="1.85384">
        <ele>172.31605529785</ele>
        <time>2020-06-23T19:43:03.016Z</time>
      </trkpt>
      <trkpt lat="45.01076" lon="1.85383">
        <ele>172.09858703613</ele>
        <time>2020-06-23T19:43:03.877Z</time>
      </trkpt>
      <trkpt lat="45.01159" lon="1.85395">
        <ele>173.63102722168</ele>
        <time>2020-06-23T19:43:04.751Z</time>
      </trkpt>
      <trkpt lat="45.01226" lon="1.85419">
        <ele>182.09664916992</ele>
        <time>2020-06-23T19:43:05.636Z</time>
      </trkpt>
      <trkpt lat="45.01251" lon="1.85414">
        <ele>189.15075683594</ele>
        <time>2020-06-23T19:43:06.525Z</time>
      </trkpt>
      <trkpt lat="45.01284" lon="1.85383">
        <ele>193.25930786133</ele>
        <time>2020-06-23T19:43:07.420Z</time>
      </trkpt>
      <trkpt lat="45.01305" lon="1.85355">
        <ele>193.41000366211</ele>
        <time>2020-06-23T19:43:08.320Z</time>
      </trkpt>
      <trkpt lat="45.01326" lon="1.85285">
        <ele>182.06997680664</ele>
        <time>2020-06-23T19:43:09.229Z</time>
      </trkpt>
      <trkpt lat="45.01368" lon="1.8526">
        <ele>187.99647521973</ele>
        <time>2020-06-23T19:43:10.145Z</time>
      </trkpt>
      <trkpt lat="45.01447" lon="1.85188">
        <ele>191.6824798584</ele>
        <time>2020-06-23T19:43:11.076Z</time>
      </trkpt>
      <trkpt lat="45.01495" lon="1.85086">
        <ele>186.23596191406</ele>
        <time>2020-06-23T19:43:12.021Z</time>
      </trkpt>
      <trkpt lat="45.01506" lon="1.85073">
        <ele>187.78352355957</ele>
        <time>2020-06-23T19:43:12.968Z</time>
      </trkpt>
      <trkpt lat="45.01506" lon="1.85073">
        <ele>187.78450012207</ele>
        <time>2020-06-23T19:43:13.915Z</time>
      </trkpt>
      <trkpt lat="45.01507" lon="1.85072">
        <ele>187.96220397949</ele>
        <time>2020-06-23T19:43:14.862Z</time>
      </trkpt>
      <trkpt lat="45.01507" lon="1.85072">
        <ele>187.96270751953</ele>
        <time>2020-06-23T19:43:15.809Z</time>
      </trkpt>
      <trkpt lat="45.01587" lon="1.84974">
        <ele>184.95426940918</ele>
        <time>2020-06-23T19:43:16.773Z</time>
      </trkpt>
      <trkpt lat="45.01634" lon="1.84927">
        <ele>180.68609619141</ele>
        <time>2020-06-23T19:43:17.746Z</time>
      </trkpt>
      <trkpt lat="45.01726" lon="1.84873">
        <ele>183.44012451172</ele>
        <time>2020-06-23T19:43:18.735Z</time>
      </trkpt>
      <trkpt lat="45.01808" lon="1.84801">
        <ele>184.29042053223</ele>
        <time>2020-06-23T19:43:19.740Z</time>
      </trkpt>
      <trkpt lat="45.01854" lon="1.8473">
        <ele>180.57206726074</ele>
        <time>2020-06-23T19:43:20.756Z</time>
      </trkpt>
      <trkpt lat="45.01929" lon="1.84547">
        <ele>178.77621459961</ele>
        <time>2020-06-23T19:43:21.796Z</time>
      </trkpt>
      <trkpt lat="45.01946" lon="1.84483">
        <ele>179.03497314453</ele>
        <time>2020-06-23T19:43:22.843Z</time>
      </trkpt>
      <trkpt lat="45.01949" lon="1.84387">
        <ele>175.07684326172</ele>
        <time>2020-06-23T19:43:23.901Z</time>
      </trkpt>
      <trkpt lat="45.01964" lon="1.84334">
        <ele>174.79084777832</ele>
        <time>2020-06-23T19:43:24.966Z</time>
      </trkpt>
      <trkpt lat="45.02039" lon="1.84197">
        <ele>174.70222473145</ele>
        <time>2020-06-23T19:43:26.050Z</time>
      </trkpt>
      <trkpt lat="45.02104" lon="1.8414">
        <ele>175.63461303711</ele>
        <time>2020-06-23T19:43:27.147Z</time>
      </trkpt>
      <trkpt lat="45.02103" lon="1.84097">
        <ele>171.40948486328</ele>
        <time>2020-06-23T19:43:28.249Z</time>
      </trkpt>
      <trkpt lat="45.02109" lon="1.84076">
        <ele>169.16967773438</ele>
        <time>2020-06-23T19:43:29.353Z</time>
      </trkpt>
      <trkpt lat="45.02123" lon="1.84062">
        <ele>168.00979614258</ele>
        <time>2020-06-23T19:43:30.460Z</time>
      </trkpt>
      <trkpt lat="45.02146" lon="1.8406">
        <ele>165.82273864746</ele>
        <time>2020-06-23T19:43:31.571Z</time>
      </trkpt>
      <trkpt lat="45.02187" lon="1.84076">
        <ele>163.73568725586</ele>
        <time>2020-06-23T19:43:32.688Z</time>
      </trkpt>
      <trkpt lat="45.02246" lon="1.84107">
        <ele>158.21125793457</ele>
        <time>2020-06-23T19:43:33.816Z</time>
      </trkpt>
      <trkpt lat="45.02268" lon="1.8413">
        <ele>156.65368652344</ele>
        <time>2020-06-23T19:43:34.948Z</time>
      </trkpt>
      <trkpt lat="45.02298" lon="1.84213">
        <ele>157.17372131348</ele>
        <time>2020-06-23T19:43:36.091Z</time>
      </trkpt>
      <trkpt lat="45.02304" lon="1.84251">
        <ele>157.99499511719</ele>
        <time>2020-06-23T19:43:37.238Z</time>
      </trkpt>
      <trkpt lat="45.02304" lon="1.84251">
        <ele>157.99609375</ele>
        <time>2020-06-23T19:43:38.385Z</time>
      </trkpt>
      <trkpt lat="45.02304" lon="1.84253">
        <ele>158.15277099609</ele>
        <time>2020-06-23T19:43:39.532Z</time>
      </trkpt>
      <trkpt lat="45.02331" lon="1.84426">
        <ele>165.98428344727</ele>
        <time>2020-06-23T19:43:40.699Z</time>
      </trkpt>
      <trkpt lat="45.02331" lon="1.84426">
        <ele>165.98156738281</ele>
        <time>2020-06-23T19:43:41.866Z</time>
      </trkpt>
      <trkpt lat="45.02352" lon="1.84557">
        <ele>170.8009185791</ele>
        <time>2020-06-23T19:43:43.049Z</time>
      </trkpt>
      <trkpt lat="45.02382" lon="1.8465">
        <ele>164.02133178711</ele>
        <time>2020-06-23T19:43:44.243Z</time>
      </trkpt>
      <trkpt lat="45.02428" lon="1.8473">
        <ele>169.15191650391</ele>
        <time>2020-06-23T19:43:45.449Z</time>
      </trkpt>
      <trkpt lat="45.02462" lon="1.84766">
        <ele>166.35009765625</ele>
        <time>2020-06-23T19:43:46.662Z</time>
      </trkpt>
      <trkpt lat="45.02506" lon="1.84848">
        <ele>167.8464050293</ele>
        <time>2020-06-23T19:43:47.886Z</time>
      </trkpt>
      <trkpt lat="45.02552" lon="1.84892">
        <ele>161.25514221191</ele>
        <time>2020-06-23T19:43:49.119Z</time>
      </trkpt>
      <trkpt lat="45.02593" lon="1.84965">
        <ele>164.44915771484</ele>
        <time>2020-06-23T19:43:50.363Z</time>
      </trkpt>
      <trkpt lat="45.02669" lon="1.85056">
        <ele>167.82473754883</ele>
        <time>2020-06-23T19:43:51.623Z</time>
      </trkpt>
      <trkpt lat="45.02816" lon="1.85143">
        <ele>180.3692779541</ele>
        <time>2020-06-23T19:43:52.908Z</time>
      </trkpt>
      <trkpt lat="45.02844" lon="1.8515">
        <ele>183.63888549805</ele>
        <time>2020-06-23T19:43:54.198Z</time>
      </trkpt>
      <trkpt lat="45.02939" lon="1.85126">
        <ele>187.57388305664</ele>
        <time>2020-06-23T19:43:55.503Z</time>
      </trkpt>
      <trkpt lat="45.03013" lon="1.85077">
        <ele>185.4557800293</ele>
        <time>2020-06-23T19:43:56.821Z</time>
      </trkpt>
      <trkpt lat="45.03088" lon="1.84995">
        <ele>174.04800415039</ele>
        <time>2020-06-23T19:43:58.154Z</time>
      </trkpt>
      <trkpt lat="45.032" lon="1.8482">
        <ele>166.82588195801</ele>
        <time>2020-06-23T19:43:59.514Z</time>
      </trkpt>
      <trkpt lat="45.03262" lon="1.84744">
        <ele>166.3443145752</ele>
        <time>2020-06-23T19:44:00.887Z</time>
      </trkpt>
      <trkpt lat="45.0327" lon="1.84732">
        <ele>166.20999145508</ele>
        <time>2020-06-23T19:44:02.262Z</time>
      </trkpt>
      <trkpt lat="45.0327" lon="1.84732">
        <ele>166.21020507812</ele>
        <time>2020-06-23T19:44:03.637Z</time>
      </trkpt>
      <trkpt lat="45.03271" lon="1.8473">
        <ele>166.24182128906</ele>
        <time>2020-06-23T19:44:05.012Z</time>
      </trkpt>
      <trkpt lat="45.03271" lon="1.8473">
        <ele>166.2423248291</ele>
        <time>2020-06-23T19:44:06.387Z</time>
      </trkpt>
      <trkpt lat="45.03368" lon="1.84582">
        <ele>162.59802246094</ele>
        <time>2020-06-23T19:44:07.785Z</time>
      </trkpt>
      <trkpt lat="45.03402" lon="1.84555">
        <ele>163.31024169922</ele>
        <time>2020-06-23T19:44:09.190Z</time>
      </trkpt>
      <trkpt lat="45.03482" lon="1.84533">
        <ele>165.98654174805</ele>
        <time>2020-06-23T19:44:10.608Z</time>
      </trkpt>
      <trkpt lat="45.03482" lon="1.84533">
        <ele>165.98664855957</ele>
        <time>2020-06-23T19:44:12.026Z</time>
      </trkpt>
      <trkpt lat="45.0363" lon="1.84544">
        <ele>165.16441345215</ele>
        <time>2020-06-23T19:44:13.467Z</time>
      </trkpt>
      <trkpt lat="45.03661" lon="1.84563">
        <ele>164.50791931152</ele>
        <time>2020-06-23T19:44:14.914Z</time>
      </trkpt>
      <trkpt lat="45.03661" lon="1.84563">
        <ele>164.50761413574</ele>
        <time>2020-06-23T19:44:16.361Z</time>
      </trkpt>
      <trkpt lat="45.03697" lon="1.84611">
        <ele>164.35345458984</ele>
        <time>2020-06-23T19:44:17.816Z</time>
      </trkpt>
      <trkpt lat="45.03732" lon="1.8471">
        <ele>165.70257568359</ele>
        <time>2020-06-23T19:44:19.283Z</time>
      </trkpt>
      <trkpt lat="45.03803" lon="1.85018">
        <ele>168.17359924316</ele>
        <time>2020-06-23T19:44:20.787Z</time>
      </trkpt>
      <trkpt lat="45.03835" lon="1.85081">
        <ele>169.01495361328</ele>
        <time>2020-06-23T19:44:22.300Z</time>
      </trkpt>
      <trkpt lat="45.03933" lon="1.85232">
        <ele>165.03747558594</ele>
        <time>2020-06-23T19:44:23.836Z</time>
      </trkpt>
      <trkpt lat="45.04001" lon="1.85375">
        <ele>164.14495849609</ele>
        <time>2020-06-23T19:44:25.392Z</time>
      </trkpt>
      <trkpt lat="45.04054" lon="1.85528">
        <ele>162.75868225098</ele>
        <time>2020-06-23T19:44:26.967Z</time>
      </trkpt>
      <trkpt lat="45.04095" lon="1.85726">
        <ele>166.8865814209</ele>
        <time>2020-06-23T19:44:28.565Z</time>
      </trkpt>
      <trkpt lat="45.04108" lon="1.8577">
        <ele>165.53610229492</ele>
        <time>2020-06-23T19:44:30.169Z</time>
      </trkpt>
      <trkpt lat="45.04108" lon="1.8577">
        <ele>165.53530883789</ele>
        <time>2020-06-23T19:44:31.773Z</time>
      </trkpt>
      <trkpt lat="45.04108" lon="1.85772">
        <ele>165.42156982422</ele>
        <time>2020-06-23T19:44:33.377Z</time>
      </trkpt>
      <trkpt lat="45.04108" lon="1.85772">
        <ele>165.42247009277</ele>
        <time>2020-06-23T19:44:34.981Z</time>
      </trkpt>
      <trkpt lat="45.04149" lon="1.85914">
        <ele>165.60009765625</ele>
        <time>2020-06-23T19:44:36.602Z</time>
      </trkpt>
      <trkpt lat="45.04229" lon="1.86048">
        <ele>164.82968139648</ele>
        <time>2020-06-23T19:44:38.243Z</time>
      </trkpt>
      <trkpt lat="45.04279" lon="1.86088">
        <ele>161.24151611328</ele>
        <time>2020-06-23T19:44:39.893Z</time>
      </trkpt>
      <trkpt lat="45.04395" lon="1.86158">
        <ele>161.7559967041</ele>
        <time>2020-06-23T19:44:41.564Z</time>
      </trkpt>
      <trkpt lat="45.04588" lon="1.86305">
        <ele>162.60958862305</ele>
        <time>2020-06-23T19:44:43.270Z</time>
      </trkpt>
      <trkpt lat="45.04611" lon="1.86331">
        <ele>161.20109558105</ele>
        <time>2020-06-23T19:44:44.980Z</time>
      </trkpt>
      <trkpt lat="45.04627" lon="1.86364">
        <ele>159.04222106934</ele>
        <time>2020-06-23T19:44:46.695Z</time>
      </trkpt>
      <trkpt lat="45.04631" lon="1.86416">
        <ele>157.94184875488</ele>
        <time>2020-06-23T19:44:48.416Z</time>
      </trkpt>
      <trkpt lat="45.04622" lon="1.86482">
        <ele>157.59242248535</ele>
        <time>2020-06-23T19:44:50.145Z</time>
      </trkpt>
      <trkpt lat="45.04609" lon="1.86569">
        <ele>162.31932067871</ele>
        <time>2020-06-23T19:44:51.884Z</time>
      </trkpt>
      <trkpt lat="45.04597" lon="1.866">
        <ele>165.4730682373</ele>
        <time>2020-06-23T19:44:53.627Z</time>
      </trkpt>
      <trkpt lat="45.04535" lon="1.86657">
        <ele>166.63832092285</ele>
        <time>2020-06-23T19:44:55.381Z</time>
      </trkpt>
      <trkpt lat="45.04392" lon="1.86731">
        <ele>172.61901855469</ele>
        <time>2020-06-23T19:44:57.160Z</time>
      </trkpt>
      <trkpt lat="45.04332" lon="1.86797">
        <ele>173.03871154785</ele>
        <time>2020-06-23T19:44:58.951Z</time>
      </trkpt>
      <trkpt lat="45.04279" lon="1.86876">
        <ele>169.72734069824</ele>
        <time>2020-06-23T19:45:00.754Z</time>
      </trkpt>
      <trkpt lat="45.04263" lon="1.86935">
        <ele>167.23960876465</ele>
        <time>2020-06-23T19:45:02.565Z</time>
      </trkpt>
      <trkpt lat="45.0427" lon="1.87085">
        <ele>161.0725402832</ele>
        <time>2020-06-23T19:45:04.393Z</time>
      </trkpt>
      <trkpt lat="45.04283" lon="1.87138">
        <ele>160.4546661377</ele>
        <time>2020-06-23T19:45:06.227Z</time>
      </trkpt>
      <trkpt lat="45.04283" lon="1.87138">
        <ele>160.45426940918</ele>
        <time>2020-06-23T19:45:08.061Z</time>
      </trkpt>
      <trkpt lat="45.04319" lon="1.87271">
        <ele>162.25204467773</ele>
        <time>2020-06-23T19:45:09.911Z</time>
      </trkpt>
      <trkpt lat="45.04357" lon="1.87411">
        <ele>165.72746276855</ele>
        <time>2020-06-23T19:45:11.778Z</time>
      </trkpt>
      <trkpt lat="45.04444" lon="1.87741">
        <ele>167.14866638184</ele>
        <time>2020-06-23T19:45:13.685Z</time>
      </trkpt>
      <trkpt lat="45.04444" lon="1.87741">
        <ele>167.14770507812</ele>
        <time>2020-06-23T19:45:15.592Z</time>
      </trkpt>
      <trkpt lat="45.04445" lon="1.87742">
        <ele>167.05615234375</ele>
        <time>2020-06-23T19:45:17.499Z</time>
      </trkpt>
      <trkpt lat="45.04445" lon="1.87742">
        <ele>167.0534362793</ele>
        <time>2020-06-23T19:45:19.406Z</time>
      </trkpt>
      <trkpt lat="45.04457" lon="1.87788">
        <ele>163.40057373047</ele>
        <time>2020-06-23T19:45:21.319Z</time>
      </trkpt>
      <trkpt lat="45.04462" lon="1.87874">
        <ele>160.67279052734</ele>
        <time>2020-06-23T19:45:23.242Z</time>
      </trkpt>
      <trkpt lat="45.04454" lon="1.87932">
        <ele>161.20387268066</ele>
        <time>2020-06-23T19:45:25.171Z</time>
      </trkpt>
      <trkpt lat="45.04419" lon="1.88024">
        <ele>173.62449645996</ele>
        <time>2020-06-23T19:45:27.112Z</time>
      </trkpt>
      <trkpt lat="45.04368" lon="1.88209">
        <ele>166.81314086914</ele>
        <time>2020-06-23T19:45:29.076Z</time>
      </trkpt>
      <trkpt lat="45.0436" lon="1.88271">
        <ele>168.72660827637</ele>
        <time>2020-06-23T19:45:31.047Z</time>
      </trkpt>
      <trkpt lat="45.04345" lon="1.88619">
        <ele>172.45166015625</ele>
        <time>2020-06-23T19:45:33.057Z</time>
      </trkpt>
      <trkpt lat="45.04382" lon="1.88788">
        <ele>169.52806091309</ele>
        <time>2020-06-23T19:45:35.087Z</time>
      </trkpt>
      <trkpt lat="45.044" lon="1.88831">
        <ele>169.08944702148</ele>
        <time>2020-06-23T19:45:37.123Z</time>
      </trkpt>
      <trkpt lat="45.04476" lon="1.88972">
        <ele>166.14402770996</ele>
        <time>2020-06-23T19:45:39.179Z</time>
      </trkpt>
      <trkpt lat="45.04487" lon="1.89037">
        <ele>167.36231994629</ele>
        <time>2020-06-23T19:45:41.243Z</time>
      </trkpt>
      <trkpt lat="45.0449" lon="1.89179">
        <ele>169.80854797363</ele>
        <time>2020-06-23T19:45:43.323Z</time>
      </trkpt>
      <trkpt lat="45.04491" lon="1.89256">
        <ele>167.59196472168</ele>
        <time>2020-06-23T19:45:45.412Z</time>
      </trkpt>
      <trkpt lat="45.04484" lon="1.8931">
        <ele>164.61724853516</ele>
        <time>2020-06-23T19:45:47.507Z</time>
      </trkpt>
      <trkpt lat="45.04333" lon="1.89587">
        <ele>172.31497192383</ele>
        <time>2020-06-23T19:45:49.641Z</time>
      </trkpt>
      <trkpt lat="45.04301" lon="1.89658">
        <ele>167.4588470459</ele>
        <time>2020-06-23T19:45:51.785Z</time>
      </trkpt>
      <trkpt lat="45.04301" lon="1.89658">
        <ele>167.45985412598</ele>
        <time>2020-06-23T19:45:53.929Z</time>
      </trkpt>
      <trkpt lat="45.043" lon="1.89659">
        <ele>167.60502624512</ele>
        <time>2020-06-23T19:45:56.073Z</time>
      </trkpt>
      <trkpt lat="45.043" lon="1.8966">
        <ele>167.60612487793</ele>
        <time>2020-06-23T19:45:58.217Z</time>
      </trkpt>
      <trkpt lat="45.04293" lon="1.89676">
        <ele>166.60359191895</ele>
        <time>2020-06-23T19:46:00.363Z</time>
      </trkpt>
      <trkpt lat="45.04281" lon="1.89742">
        <ele>167.71589660645</ele>
        <time>2020-06-23T19:46:02.517Z</time>
      </trkpt>
      <trkpt lat="45.0424" lon="1.89861">
        <ele>174.82504272461</ele>
        <time>2020-06-23T19:46:04.686Z</time>
      </trkpt>
      <trkpt lat="45.04234" lon="1.90011">
        <ele>167.736328125</ele>
        <time>2020-06-23T19:46:06.872Z</time>
      </trkpt>
      <trkpt lat="45.04237" lon="1.9003">
        <ele>168.71627807617</ele>
        <time>2020-06-23T19:46:09.060Z</time>
      </trkpt>
      <trkpt lat="45.04319" lon="1.90258">
        <ele>174.63375854492</ele>
        <time>2020-06-23T19:46:11.277Z</time>
      </trkpt>
      <trkpt lat="45.04392" lon="1.90395">
        <ele>174.99983215332</ele>
        <time>2020-06-23T19:46:13.514Z</time>
      </trkpt>
      <trkpt lat="45.04426" lon="1.90449">
        <ele>171.72392272949</ele>
        <time>2020-06-23T19:46:15.759Z</time>
      </trkpt>
      <trkpt lat="45.04501" lon="1.90535">
        <ele>166.66273498535</ele>
        <time>2020-06-23T19:46:18.019Z</time>
      </trkpt>
      <trkpt lat="45.04556" lon="1.90626">
        <ele>165.15592956543</ele>
        <time>2020-06-23T19:46:20.293Z</time>
      </trkpt>
      <trkpt lat="45.04556" lon="1.90626">
        <ele>165.15603637695</ele>
        <time>2020-06-23T19:46:22.567Z</time>
      </trkpt>
      <trkpt lat="45.04616" lon="1.90747">
        <ele>167.142578125</ele>
        <time>2020-06-23T19:46:24.858Z</time>
      </trkpt>
      <trkpt lat="45.04677" lon="1.90879">
        <ele>168.77555847168</ele>
        <time>2020-06-23T19:46:27.167Z</time>
      </trkpt>
      <trkpt lat="45.04679" lon="1.91069">
        <ele>173.90983581543</ele>
        <time>2020-06-23T19:46:29.497Z</time>
      </trkpt>
      <trkpt lat="45.04685" lon="1.911">
        <ele>175.50611877441</ele>
        <time>2020-06-23T19:46:31.831Z</time>
      </trkpt>
      <trkpt lat="45.04703" lon="1.9114">
        <ele>177.19160461426</ele>
        <time>2020-06-23T19:46:34.170Z</time>
      </trkpt>
      <trkpt lat="45.04772" lon="1.91286">
        <ele>182.21006774902</ele>
        <time>2020-06-23T19:46:36.529Z</time>
      </trkpt>
      <trkpt lat="45.04803" lon="1.91313">
        <ele>182.65599060059</ele>
        <time>2020-06-23T19:46:38.894Z</time>
      </trkpt>
      <trkpt lat="45.04841" lon="1.91316">
        <ele>184.16206359863</ele>
        <time>2020-06-23T19:46:41.265Z</time>
      </trkpt>
      <trkpt lat="45.05016" lon="1.91287">
        <ele>180.72616577148</ele>
        <time>2020-06-23T19:46:43.664Z</time>
      </trkpt>
      <trkpt lat="45.05016" lon="1.91287">
        <ele>180.72566223145</ele>
        <time>2020-06-23T19:46:46.063Z</time>
      </trkpt>
      <trkpt lat="45.05476" lon="1.91415">
        <ele>184.22229003906</ele>
        <time>2020-06-23T19:46:48.537Z</time>
      </trkpt>
      <trkpt lat="45.05576" lon="1.9143">
        <ele>181.28242492676</ele>
        <time>2020-06-23T19:46:51.027Z</time>
      </trkpt>
      <trkpt lat="45.05668" lon="1.91464">
        <ele>178.576171875</ele>
        <time>2020-06-23T19:46:53.533Z</time>
      </trkpt>
      <trkpt lat="45.05769" lon="1.91513">
        <ele>183.96682739258</ele>
        <time>2020-06-23T19:46:56.056Z</time>
      </trkpt>
      <trkpt lat="45.05769" lon="1.91513">
        <ele>183.96621704102</ele>
        <time>2020-06-23T19:46:58.579Z</time>
      </trkpt>
      <trkpt lat="45.0587" lon="1.91545">
        <ele>181.93612670898</ele>
        <time>2020-06-23T19:47:01.118Z</time>
      </trkpt>
      <trkpt lat="45.05937" lon="1.91578">
        <ele>176.3323059082</ele>
        <time>2020-06-23T19:47:03.669Z</time>
      </trkpt>
      <trkpt lat="45.06003" lon="1.91653">
        <ele>173.70373535156</ele>
        <time>2020-06-23T19:47:06.233Z</time>
      </trkpt>
      <trkpt lat="45.06003" lon="1.91653">
        <ele>173.70359802246</ele>
        <time>2020-06-23T19:47:08.797Z</time>
      </trkpt>
      <trkpt lat="45.06004" lon="1.91654">
        <ele>173.68214416504</ele>
        <time>2020-06-23T19:47:11.361Z</time>
      </trkpt>
      <trkpt lat="45.06004" lon="1.91654">
        <ele>173.68185424805</ele>
        <time>2020-06-23T19:47:13.925Z</time>
      </trkpt>
      <trkpt lat="45.06034" lon="1.91688">
        <ele>173.8205871582</ele>
        <time>2020-06-23T19:47:16.496Z</time>
      </trkpt>
      <trkpt lat="45.06124" lon="1.91749">
        <ele>175.67118835449</ele>
        <time>2020-06-23T19:47:19.083Z</time>
      </trkpt>
      <trkpt lat="45.06187" lon="1.91825">
        <ele>182.55233764648</ele>
        <time>2020-06-23T19:47:21.683Z</time>
      </trkpt>
      <trkpt lat="45.06209" lon="1.91856">
        <ele>182.62956237793</ele>
        <time>2020-06-23T19:47:24.288Z</time>
      </trkpt>
      <trkpt lat="45.06265" lon="1.91917">
        <ele>185.38233947754</ele>
        <time>2020-06-23T19:47:26.904Z</time>
      </trkpt>
      <trkpt lat="45.0636" lon="1.91949">
        <ele>183.99053955078</ele>
        <time>2020-06-23T19:47:29.536Z</time>
      </trkpt>
      <trkpt lat="45.06408" lon="1.91967">
        <ele>183.7568359375</ele>
        <time>2020-06-23T19:47:32.176Z</time>
      </trkpt>
      <trkpt lat="45.06438" lon="1.91993">
        <ele>184.24732971191</ele>
        <time>2020-06-23T19:47:34.821Z</time>
      </trkpt>
      <trkpt lat="45.06441" lon="1.92013">
        <ele>186.3451385498</ele>
        <time>2020-06-23T19:47:37.469Z</time>
      </trkpt>
      <trkpt lat="45.0649" lon="1.92047">
        <ele>187.68388366699</ele>
        <time>2020-06-23T19:47:40.126Z</time>
      </trkpt>
      <trkpt lat="45.06543" lon="1.92099">
        <ele>193.42687988281</ele>
        <time>2020-06-23T19:47:42.793Z</time>
      </trkpt>
      <trkpt lat="45.0656" lon="1.92111">
        <ele>195.55555725098</ele>
        <time>2020-06-23T19:47:45.463Z</time>
      </trkpt>
      <trkpt lat="45.06644" lon="1.92132">
        <ele>200.5877532959</ele>
        <time>2020-06-23T19:47:48.147Z</time>
      </trkpt>
      <trkpt lat="45.06694" lon="1.92132">
        <ele>203.43678283691</ele>
        <time>2020-06-23T19:47:50.838Z</time>
      </trkpt>
      <trkpt lat="45.06768" lon="1.92106">
        <ele>194.58403015137</ele>
        <time>2020-06-23T19:47:53.542Z</time>
      </trkpt>
      <trkpt lat="45.068" lon="1.92086">
        <ele>189.47366333008</ele>
        <time>2020-06-23T19:47:56.251Z</time>
      </trkpt>
      <trkpt lat="45.06858" lon="1.92031">
        <ele>183.92913818359</ele>
        <time>2020-06-23T19:47:58.971Z</time>
      </trkpt>
      <trkpt lat="45.06907" lon="1.92018">
        <ele>182.62763977051</ele>
        <time>2020-06-23T19:48:01.700Z</time>
      </trkpt>
      <trkpt lat="45.06983" lon="1.92037">
        <ele>182.57261657715</ele>
        <time>2020-06-23T19:48:04.441Z</time>
      </trkpt>
      <trkpt lat="45.07049" lon="1.92078">
        <ele>184.08090209961</ele>
        <time>2020-06-23T19:48:07.193Z</time>
      </trkpt>
      <trkpt lat="45.07049" lon="1.92078">
        <ele>184.08070373535</ele>
        <time>2020-06-23T19:48:09.945Z</time>
      </trkpt>
      <trkpt lat="45.07156" lon="1.92159">
        <ele>184.56489562988</ele>
        <time>2020-06-23T19:48:12.717Z</time>
      </trkpt>
      <trkpt lat="45.07193" lon="1.92195">
        <ele>182.81384277344</ele>
        <time>2020-06-23T19:48:15.496Z</time>
      </trkpt>
      <trkpt lat="45.07231" lon="1.92295">
        <ele>185.06094360352</ele>
        <time>2020-06-23T19:48:18.288Z</time>
      </trkpt>
      <trkpt lat="45.07287" lon="1.92375">
        <ele>179.35014343262</ele>
        <time>2020-06-23T19:48:21.093Z</time>
      </trkpt>
      <trkpt lat="45.07307" lon="1.92427">
        <ele>177.75970458984</ele>
        <time>2020-06-23T19:48:23.904Z</time>
      </trkpt>
      <trkpt lat="45.07309" lon="1.9246">
        <ele>176.52426147461</ele>
        <time>2020-06-23T19:48:26.719Z</time>
      </trkpt>
      <trkpt lat="45.07285" lon="1.9249">
        <ele>178.13452148438</ele>
        <time>2020-06-23T19:48:29.539Z</time>
      </trkpt>
      <trkpt lat="45.07285" lon="1.9249">
        <ele>178.13230895996</ele>
        <time>2020-06-23T19:48:32.359Z</time>
      </trkpt>
      <trkpt lat="45.07241" lon="1.92523">
        <ele>188.78396606445</ele>
        <time>2020-06-23T19:48:35.187Z</time>
      </trkpt>
      <trkpt lat="45.07222" lon="1.92548">
        <ele>182.99136352539</ele>
        <time>2020-06-23T19:48:38.019Z</time>
      </trkpt>
      <trkpt lat="45.07208" lon="1.92585">
        <ele>176.9029083252</ele>
        <time>2020-06-23T19:48:40.856Z</time>
      </trkpt>
      <trkpt lat="45.072" lon="1.92643">
        <ele>175.0364074707</ele>
        <time>2020-06-23T19:48:43.700Z</time>
      </trkpt>
      <trkpt lat="45.07116" lon="1.92748">
        <ele>179.05471801758</ele>
        <time>2020-06-23T19:48:46.562Z</time>
      </trkpt>
      <trkpt lat="45.07071" lon="1.9278">
        <ele>186.2427520752</ele>
        <time>2020-06-23T19:48:49.432Z</time>
      </trkpt>
      <trkpt lat="45.07038" lon="1.92793">
        <ele>184.70361328125</ele>
        <time>2020-06-23T19:48:52.307Z</time>
      </trkpt>
      <trkpt lat="45.06917" lon="1.92787">
        <ele>196.66000366211</ele>
        <time>2020-06-23T19:48:55.202Z</time>
      </trkpt>
      <trkpt lat="45.06897" lon="1.9281">
        <ele>190.23664855957</ele>
        <time>2020-06-23T19:48:58.101Z</time>
      </trkpt>
      <trkpt lat="45.06871" lon="1.92868">
        <ele>181.60260009766</ele>
        <time>2020-06-23T19:49:01.008Z</time>
      </trkpt>
      <trkpt lat="45.06838" lon="1.92907">
        <ele>182.90660095215</ele>
        <time>2020-06-23T19:49:03.922Z</time>
      </trkpt>
      <trkpt lat="45.06838" lon="1.92907">
        <ele>182.90447998047</ele>
        <time>2020-06-23T19:49:06.836Z</time>
      </trkpt>
      <trkpt lat="45.0681" lon="1.92954">
        <ele>183.63455200195</ele>
        <time>2020-06-23T19:49:09.757Z</time>
      </trkpt>
      <trkpt lat="45.06791" lon="1.93067">
        <ele>172.90592956543</ele>
        <time>2020-06-23T19:49:12.691Z</time>
      </trkpt>
      <trkpt lat="45.06795" lon="1.93126">
        <ele>174.37425231934</ele>
        <time>2020-06-23T19:49:15.631Z</time>
      </trkpt>
      <trkpt lat="45.06815" lon="1.93273">
        <ele>178.64231872559</ele>
        <time>2020-06-23T19:49:18.588Z</time>
      </trkpt>
      <trkpt lat="45.06815" lon="1.93273">
        <ele>178.64361572266</ele>
        <time>2020-06-23T19:49:21.545Z</time>
      </trkpt>
      <trkpt lat="45.06816" lon="1.93274">
        <ele>178.81204223633</ele>
        <time>2020-06-23T19:49:24.503Z</time>
      </trkpt>
      <trkpt lat="45.06816" lon="1.93274">
        <ele>178.81425476074</ele>
        <time>2020-06-23T19:49:27.461Z</time>
      </trkpt>
      <trkpt lat="45.06829" lon="1.93369">
        <ele>183.40098571777</ele>
        <time>2020-06-23T19:49:30.430Z</time>
      </trkpt>
      <trkpt lat="45.0683" lon="1.93436">
        <ele>183.10057067871</ele>
        <time>2020-06-23T19:49:33.406Z</time>
      </trkpt>
      <trkpt lat="45.06828" lon="1.93444">
        <ele>183.40560913086</ele>
        <time>2020-06-23T19:49:36.383Z</time>
      </trkpt>
      <trkpt lat="45.06828" lon="1.93444">
        <ele>183.40490722656</ele>
        <time>2020-06-23T19:49:39.360Z</time>
      </trkpt>
      <trkpt lat="45.06811" lon="1.93536">
        <ele>180.28179931641</ele>
        <time>2020-06-23T19:49:42.348Z</time>
      </trkpt>
      <trkpt lat="45.06821" lon="1.93575">
        <ele>178.32637023926</ele>
        <time>2020-06-23T19:49:45.341Z</time>
      </trkpt>
      <trkpt lat="45.06895" lon="1.93713">
        <ele>179.52194213867</ele>
        <time>2020-06-23T19:49:48.353Z</time>
      </trkpt>
      <trkpt lat="45.0697" lon="1.93809">
        <ele>177.2198638916</ele>
        <time>2020-06-23T19:49:51.381Z</time>
      </trkpt>
      <trkpt lat="45.07052" lon="1.93962">
        <ele>179.53909301758</ele>
        <time>2020-06-23T19:49:54.431Z</time>
      </trkpt>
      <trkpt lat="45.07077" lon="1.93991">
        <ele>179.41305541992</ele>
        <time>2020-06-23T19:49:57.486Z</time>
      </trkpt>
      <trkpt lat="45.07077" lon="1.93991">
        <ele>179.41265869141</ele>
        <time>2020-06-23T19:50:00.541Z</time>
      </trkpt>
      <trkpt lat="45.071" lon="1.93992">
        <ele>178.34465026855</ele>
        <time>2020-06-23T19:50:03.600Z</time>
      </trkpt>
      <trkpt lat="45.07135" lon="1.93972">
        <ele>176.57302856445</ele>
        <time>2020-06-23T19:50:06.665Z</time>
      </trkpt>
      <trkpt lat="45.072" lon="1.93931">
        <ele>175.71327209473</ele>
        <time>2020-06-23T19:50:09.742Z</time>
      </trkpt>
      <trkpt lat="45.07207" lon="1.93926">
        <ele>175.77763366699</ele>
        <time>2020-06-23T19:50:12.820Z</time>
      </trkpt>
      <trkpt lat="45.07213" lon="1.93921">
        <ele>175.84199523926</ele>
        <time>2020-06-23T19:50:15.899Z</time>
      </trkpt>
      <trkpt lat="45.07306" lon="1.9385">
        <ele>178.30841064453</ele>
        <time>2020-06-23T19:50:18.995Z</time>
      </trkpt>
      <trkpt lat="45.0733" lon="1.93814">
        <ele>177.88362121582</ele>
        <time>2020-06-23T19:50:22.096Z</time>
      </trkpt>
      <trkpt lat="45.07347" lon="1.93756">
        <ele>177.18850708008</ele>
        <time>2020-06-23T19:50:25.205Z</time>
      </trkpt>
      <trkpt lat="45.07376" lon="1.9373">
        <ele>176.87124633789</ele>
        <time>2020-06-23T19:50:28.319Z</time>
      </trkpt>
      <trkpt lat="45.07407" lon="1.9373">
        <ele>176.86669921875</ele>
        <time>2020-06-23T19:50:31.438Z</time>
      </trkpt>
      <trkpt lat="45.07537" lon="1.93707">
        <ele>176.33212280273</ele>
        <time>2020-06-23T19:50:34.578Z</time>
      </trkpt>
      <trkpt lat="45.07622" lon="1.9371">
        <ele>177</ele>
        <time>2020-06-23T19:50:37.732Z</time>
      </trkpt>
      <trkpt lat="45.07685" lon="1.93701">
        <ele>178.40979003906</ele>
        <time>2020-06-23T19:50:40.896Z</time>
      </trkpt>
      <trkpt lat="45.07685" lon="1.93701">
        <ele>178.40998840332</ele>
        <time>2020-06-23T19:50:44.060Z</time>
      </trkpt>
      <trkpt lat="45.07708" lon="1.93696">
        <ele>178.95043945312</ele>
        <time>2020-06-23T19:50:47.227Z</time>
      </trkpt>
      <trkpt lat="45.07708" lon="1.93696">
        <ele>178.95063781738</ele>
        <time>2020-06-23T19:50:50.394Z</time>
      </trkpt>
      <trkpt lat="45.07788" lon="1.93667">
        <ele>178.87989807129</ele>
        <time>2020-06-23T19:50:53.575Z</time>
      </trkpt>
      <trkpt lat="45.07889" lon="1.93661">
        <ele>179.78440856934</ele>
        <time>2020-06-23T19:50:56.772Z</time>
      </trkpt>
      <trkpt lat="45.08101" lon="1.93704">
        <ele>179.86717224121</ele>
        <time>2020-06-23T19:51:00.003Z</time>
      </trkpt>
      <trkpt lat="45.08204" lon="1.93702">
        <ele>181.0007019043</ele>
        <time>2020-06-23T19:51:03.251Z</time>
      </trkpt>
      <trkpt lat="45.08263" lon="1.93701">
        <ele>183.01516723633</ele>
        <time>2020-06-23T19:51:06.508Z</time>
      </trkpt>
      <trkpt lat="45.08343" lon="1.93716">
        <ele>185.65515136719</ele>
        <time>2020-06-23T19:51:09.778Z</time>
      </trkpt>
      <trkpt lat="45.08343" lon="1.93716">
        <ele>185.6566619873</ele>
        <time>2020-06-23T19:51:13.048Z</time>
      </trkpt>
      <trkpt lat="45.08344" lon="1.93717">
        <ele>185.6981048584</ele>
        <time>2020-06-23T19:51:16.318Z</time>
      </trkpt>
      <trkpt lat="45.08344" lon="1.93717">
        <ele>185.69781494141</ele>
        <time>2020-06-23T19:51:19.588Z</time>
      </trkpt>
      <trkpt lat="45.0836" lon="1.9372">
        <ele>186.10185241699</ele>
        <time>2020-06-23T19:51:22.861Z</time>
      </trkpt>
      <trkpt lat="45.0845" lon="1.93744">
        <ele>183.35111999512</ele>
        <time>2020-06-23T19:51:26.148Z</time>
      </trkpt>
      <trkpt lat="45.08529" lon="1.93799">
        <ele>185.11022949219</ele>
        <time>2020-06-23T19:51:29.450Z</time>
      </trkpt>
      <trkpt lat="45.08529" lon="1.93799">
        <ele>185.11022949219</ele>
        <time>2020-06-23T19:51:32.752Z</time>
      </trkpt>
      <trkpt lat="45.08539" lon="1.93806">
        <ele>185.3419342041</ele>
        <time>2020-06-23T19:51:36.055Z</time>
      </trkpt>
      <trkpt lat="45.08551" lon="1.93814">
        <ele>185.74395751953</ele>
        <time>2020-06-23T19:51:39.360Z</time>
      </trkpt>
      <trkpt lat="45.08595" lon="1.93845">
        <ele>186.36390686035</ele>
        <time>2020-06-23T19:51:42.673Z</time>
      </trkpt>
      <trkpt lat="45.08734" lon="1.94013">
        <ele>189.58851623535</ele>
        <time>2020-06-23T19:51:46.016Z</time>
      </trkpt>
      <trkpt lat="45.08734" lon="1.94013">
        <ele>189.58831787109</ele>
        <time>2020-06-23T19:51:49.359Z</time>
      </trkpt>
      <trkpt lat="45.08796" lon="1.94089">
        <ele>190.87699890137</ele>
        <time>2020-06-23T19:51:52.715Z</time>
      </trkpt>
      <trkpt lat="45.08861" lon="1.94181">
        <ele>192.1982421875</ele>
        <time>2020-06-23T19:51:56.085Z</time>
      </trkpt>
      <trkpt lat="45.08954" lon="1.94121">
        <ele>193.04858398438</ele>
        <time>2020-06-23T19:51:59.472Z</time>
      </trkpt>
      <trkpt lat="45.08954" lon="1.94121">
        <ele>193.04853820801</ele>
        <time>2020-06-23T19:52:02.859Z</time>
      </trkpt>
      <trkpt lat="45.08955" lon="1.9412">
        <ele>193.04370117188</ele>
        <time>2020-06-23T19:52:06.246Z</time>
      </trkpt>
      <trkpt lat="45.08955" lon="1.9412">
        <ele>193.04339599609</ele>
        <time>2020-06-23T19:52:09.633Z</time>
      </trkpt>
      <trkpt lat="45.09042" lon="1.94063">
        <ele>190.50283813477</ele>
        <time>2020-06-23T19:52:13.035Z</time>
      </trkpt>
      <trkpt lat="45.09072" lon="1.94045">
        <ele>187.16122436523</ele>
        <time>2020-06-23T19:52:16.443Z</time>
      </trkpt>
      <trkpt lat="45.09112" lon="1.9402">
        <ele>182.6436920166</ele>
        <time>2020-06-23T19:52:19.858Z</time>
      </trkpt>
      <trkpt lat="45.09202" lon="1.93964">
        <ele>185.50343322754</ele>
        <time>2020-06-23T19:52:23.288Z</time>
      </trkpt>
      <trkpt lat="45.09202" lon="1.93964">
        <ele>185.50555419922</ele>
        <time>2020-06-23T19:52:26.718Z</time>
      </trkpt>
      <trkpt lat="45.09203" lon="1.93963">
        <ele>185.67747497559</ele>
        <time>2020-06-23T19:52:30.149Z</time>
      </trkpt>
      <trkpt lat="45.09203" lon="1.93963">
        <ele>185.67587280273</ele>
        <time>2020-06-23T19:52:33.580Z</time>
      </trkpt>
      <trkpt lat="45.09211" lon="1.93958">
        <ele>186.61351013184</ele>
        <time>2020-06-23T19:52:37.012Z</time>
      </trkpt>
      <trkpt lat="45.09246" lon="1.93933">
        <ele>189.67832946777</ele>
        <time>2020-06-23T19:52:40.450Z</time>
      </trkpt>
      <trkpt lat="45.09264" lon="1.93919">
        <ele>190.6695098877</ele>
        <time>2020-06-23T19:52:43.891Z</time>
      </trkpt>
      <trkpt lat="45.09264" lon="1.93919">
        <ele>190.66920471191</ele>
        <time>2020-06-23T19:52:47.333Z</time>
      </trkpt>
      <trkpt lat="45.09288" lon="1.93905">
        <ele>191.90159606934</ele>
        <time>2020-06-23T19:52:50.779Z</time>
      </trkpt>
      <trkpt lat="45.09288" lon="1.93905">
        <ele>191.90203857422</ele>
        <time>2020-06-23T19:52:54.225Z</time>
      </trkpt>
      <trkpt lat="45.09288" lon="1.93905">
        <ele>191.90214538574</ele>
        <time>2020-06-23T19:52:57.671Z</time>
      </trkpt>
      <trkpt lat="45.09289" lon="1.93904">
        <ele>191.99324035645</ele>
        <time>2020-06-23T19:53:01.117Z</time>
      </trkpt>
      <trkpt lat="45.09289" lon="1.93904">
        <ele>191.99214172363</ele>
        <time>2020-06-23T19:53:04.563Z</time>
      </trkpt>
      <trkpt lat="45.09296" lon="1.939">
        <ele>192.14669799805</ele>
        <time>2020-06-23T19:53:08.010Z</time>
      </trkpt>
      <trkpt lat="45.09288" lon="1.93863">
        <ele>193.01068115234</ele>
        <time>2020-06-23T19:53:11.461Z</time>
      </trkpt>
      <trkpt lat="45.09288" lon="1.93848">
        <ele>193.37110900879</ele>
        <time>2020-06-23T19:53:14.914Z</time>
      </trkpt>
      <trkpt lat="45.09287" lon="1.93809">
        <ele>194.10430908203</ele>
        <time>2020-06-23T19:53:18.371Z</time>
      </trkpt>
      <trkpt lat="45.09282" lon="1.93784">
        <ele>194.33601379395</ele>
        <time>2020-06-23T19:53:21.831Z</time>
      </trkpt>
      <trkpt lat="45.09277" lon="1.9376">
        <ele>194.58059692383</ele>
        <time>2020-06-23T19:53:25.294Z</time>
      </trkpt>
      <trkpt lat="45.09277" lon="1.93757">
        <ele>194.60633850098</ele>
        <time>2020-06-23T19:53:28.758Z</time>
      </trkpt>
      <trkpt lat="45.09269" lon="1.9373">
        <ele>194.43804931641</ele>
        <time>2020-06-23T19:53:32.225Z</time>
      </trkpt>
      <trkpt lat="45.09269" lon="1.9373">
        <ele>194.43815612793</ele>
        <time>2020-06-23T19:53:35.692Z</time>
      </trkpt>
      <trkpt lat="45.0926" lon="1.93713">
        <ele>193.94889831543</ele>
        <time>2020-06-23T19:53:39.161Z</time>
      </trkpt>
      <trkpt lat="45.09271" lon="1.93695">
        <ele>193.08874511719</ele>
        <time>2020-06-23T19:53:42.633Z</time>
      </trkpt>
      <trkpt lat="45.09271" lon="1.93695">
        <ele>193.08863830566</ele>
        <time>2020-06-23T19:53:46.105Z</time>
      </trkpt>
      <trkpt lat="45.09275" lon="1.93685">
        <ele>192.52235412598</ele>
        <time>2020-06-23T19:53:49.578Z</time>
      </trkpt>
      <trkpt lat="45.09275" lon="1.93685">
        <ele>192.52226257324</ele>
        <time>2020-06-23T19:53:53.051Z</time>
      </trkpt>
      <trkpt lat="45.09292" lon="1.93654">
        <ele>190.91909790039</ele>
        <time>2020-06-23T19:53:56.529Z</time>
      </trkpt>
      <trkpt lat="45.09299" lon="1.93629">
        <ele>190.37855529785</ele>
        <time>2020-06-23T19:54:00.010Z</time>
      </trkpt>
      <trkpt lat="45.093" lon="1.93554">
        <ele>189</ele>
        <time>2020-06-23T19:54:03.499Z</time>
      </trkpt>
      <trkpt lat="45.093" lon="1.93554">
        <ele>189</ele>
        <time>2020-06-23T19:54:06.988Z</time>
      </trkpt>
      <trkpt lat="45.093" lon="1.93552">
        <ele>189</ele>
        <time>2020-06-23T19:54:10.477Z</time>
      </trkpt>
      <trkpt lat="45.093" lon="1.93552">
        <ele>189</ele>
        <time>2020-06-23T19:54:13.966Z</time>
      </trkpt>
      <trkpt lat="45.09301" lon="1.93476">
        <ele>188.55635070801</ele>
        <time>2020-06-23T19:54:17.464Z</time>
      </trkpt>
      <trkpt lat="45.09314" lon="1.93407">
        <ele>187.49360656738</ele>
        <time>2020-06-23T19:54:20.970Z</time>
      </trkpt>
      <trkpt lat="45.09314" lon="1.93395">
        <ele>187.21022033691</ele>
        <time>2020-06-23T19:54:24.478Z</time>
      </trkpt>
      <trkpt lat="45.09315" lon="1.93328">
        <ele>186</ele>
        <time>2020-06-23T19:54:27.993Z</time>
      </trkpt>
      <trkpt lat="45.0932" lon="1.93303">
        <ele>186.25531005859</ele>
        <time>2020-06-23T19:54:31.511Z</time>
      </trkpt>
      <trkpt lat="45.0932" lon="1.93303">
        <ele>186.25546264648</ele>
        <time>2020-06-23T19:54:35.029Z</time>
      </trkpt>
      <trkpt lat="45.09321" lon="1.93301">
        <ele>186.2798614502</ele>
        <time>2020-06-23T19:54:38.547Z</time>
      </trkpt>
      <trkpt lat="45.09321" lon="1.93301">
        <ele>186.27976989746</ele>
        <time>2020-06-23T19:54:42.065Z</time>
      </trkpt>
      <trkpt lat="45.09331" lon="1.93251">
        <ele>186.87442016602</ele>
        <time>2020-06-23T19:54:45.589Z</time>
      </trkpt>
      <trkpt lat="45.09335" lon="1.93248">
        <ele>186.91302490234</ele>
        <time>2020-06-23T19:54:49.114Z</time>
      </trkpt>
      <trkpt lat="45.09416" lon="1.93276">
        <ele>187</ele>
        <time>2020-06-23T19:54:52.652Z</time>
      </trkpt>
      <trkpt lat="45.09447" lon="1.93288">
        <ele>187</ele>
        <time>2020-06-23T19:54:56.195Z</time>
      </trkpt>
      <trkpt lat="45.09474" lon="1.93313">
        <ele>187</ele>
        <time>2020-06-23T19:54:59.744Z</time>
      </trkpt>
      <trkpt lat="45.09485" lon="1.9336">
        <ele>186.56141662598</ele>
        <time>2020-06-23T19:55:03.298Z</time>
      </trkpt>
      <trkpt lat="45.09495" lon="1.93425">
        <ele>186.21092224121</ele>
        <time>2020-06-23T19:55:06.860Z</time>
      </trkpt>
      <trkpt lat="45.09508" lon="1.93486">
        <ele>186.5751953125</ele>
        <time>2020-06-23T19:55:10.429Z</time>
      </trkpt>
      <trkpt lat="45.09525" lon="1.93517">
        <ele>187.73512268066</ele>
        <time>2020-06-23T19:55:14.002Z</time>
      </trkpt>
      <trkpt lat="45.09537" lon="1.93534">
        <ele>188.49459838867</ele>
        <time>2020-06-23T19:55:17.578Z</time>
      </trkpt>
      <trkpt lat="45.09561" lon="1.93572">
        <ele>189.51124572754</ele>
        <time>2020-06-23T19:55:21.160Z</time>
      </trkpt>
      <trkpt lat="45.09578" lon="1.93602">
        <ele>190.51570129395</ele>
        <time>2020-06-23T19:55:24.746Z</time>
      </trkpt>
      <trkpt lat="45.09582" lon="1.93629">
        <ele>191.69996643066</ele>
        <time>2020-06-23T19:55:28.335Z</time>
      </trkpt>
      <trkpt lat="45.09562" lon="1.93711">
        <ele>193.13330078125</ele>
        <time>2020-06-23T19:55:31.934Z</time>
      </trkpt>
      <trkpt lat="45.09541" lon="1.93767">
        <ele>193</ele>
        <time>2020-06-23T19:55:35.540Z</time>
      </trkpt>
      <trkpt lat="45.09541" lon="1.93767">
        <ele>193</ele>
        <time>2020-06-23T19:55:39.146Z</time>
      </trkpt>
      <trkpt lat="45.0954" lon="1.93769">
        <ele>193</ele>
        <time>2020-06-23T19:55:42.753Z</time>
      </trkpt>
      <trkpt lat="45.0954" lon="1.93769">
        <ele>193</ele>
        <time>2020-06-23T19:55:46.360Z</time>
      </trkpt>
      <trkpt lat="45.09527" lon="1.93804">
        <ele>193</ele>
        <time>2020-06-23T19:55:49.971Z</time>
      </trkpt>
      <trkpt lat="45.09513" lon="1.93848">
        <ele>192.71733093262</ele>
        <time>2020-06-23T19:55:53.588Z</time>
      </trkpt>
      <trkpt lat="45.09523" lon="1.9385">
        <ele>192.69158935547</ele>
        <time>2020-06-23T19:55:57.206Z</time>
      </trkpt>
      <trkpt lat="45.09658" lon="1.93886">
        <ele>191.74607849121</ele>
        <time>2020-06-23T19:56:00.846Z</time>
      </trkpt>
      <trkpt lat="45.0974" lon="1.93912">
        <ele>191.28869628906</ele>
        <time>2020-06-23T19:56:04.500Z</time>
      </trkpt>
      <trkpt lat="45.0974" lon="1.93912">
        <ele>191.2884979248</ele>
        <time>2020-06-23T19:56:08.154Z</time>
      </trkpt>
      <trkpt lat="45.09779" lon="1.9393">
        <ele>190.3359375</ele>
        <time>2020-06-23T19:56:11.814Z</time>
      </trkpt>
      <trkpt lat="45.0979" lon="1.93937">
        <ele>190.07847595215</ele>
        <time>2020-06-23T19:56:15.476Z</time>
      </trkpt>
      <trkpt lat="45.09798" lon="1.93941">
        <ele>189.94912719727</ele>
        <time>2020-06-23T19:56:19.139Z</time>
      </trkpt>
      <trkpt lat="45.09841" lon="1.93963">
        <ele>189.43423461914</ele>
        <time>2020-06-23T19:56:22.810Z</time>
      </trkpt>
      <trkpt lat="45.09896" lon="1.93989">
        <ele>189</ele>
        <time>2020-06-23T19:56:26.490Z</time>
      </trkpt>
      <trkpt lat="45.10005" lon="1.94039">
        <ele>189</ele>
        <time>2020-06-23T19:56:30.188Z</time>
      </trkpt>
      <trkpt lat="45.1005" lon="1.9406">
        <ele>189.3201751709</ele>
        <time>2020-06-23T19:56:33.894Z</time>
      </trkpt>
      <trkpt lat="45.10072" lon="1.94071">
        <ele>189.71432495117</ele>
        <time>2020-06-23T19:56:37.604Z</time>
      </trkpt>
      <trkpt lat="45.10072" lon="1.94071">
        <ele>189.71435546875</ele>
        <time>2020-06-23T19:56:41.314Z</time>
      </trkpt>
      <trkpt lat="45.10073" lon="1.94072">
        <ele>189.74104309082</ele>
        <time>2020-06-23T19:56:45.024Z</time>
      </trkpt>
      <trkpt lat="45.10073" lon="1.94072">
        <ele>189.74133300781</ele>
        <time>2020-06-23T19:56:48.734Z</time>
      </trkpt>
      <trkpt lat="45.10088" lon="1.94079">
        <ele>189.8892364502</ele>
        <time>2020-06-23T19:56:52.446Z</time>
      </trkpt>
      <trkpt lat="45.10176" lon="1.9411">
        <ele>189.37408447266</ele>
        <time>2020-06-23T19:56:56.173Z</time>
      </trkpt>
      <trkpt lat="45.10176" lon="1.9411">
        <ele>189.3738861084</ele>
        <time>2020-06-23T19:56:59.900Z</time>
      </trkpt>
      <trkpt lat="45.10198" lon="1.94134">
        <ele>188.57598876953</ele>
        <time>2020-06-23T19:57:03.631Z</time>
      </trkpt>
      <trkpt lat="45.10278" lon="1.94262">
        <ele>188.81773376465</ele>
        <time>2020-06-23T19:57:07.382Z</time>
      </trkpt>
      <trkpt lat="45.10305" lon="1.94302">
        <ele>189</ele>
        <time>2020-06-23T19:57:11.139Z</time>
      </trkpt>
      <trkpt lat="45.10313" lon="1.94329">
        <ele>188.87518310547</ele>
        <time>2020-06-23T19:57:14.899Z</time>
      </trkpt>
      <trkpt lat="45.1041" lon="1.94326">
        <ele>189.3296661377</ele>
        <time>2020-06-23T19:57:18.675Z</time>
      </trkpt>
      <trkpt lat="45.1046" lon="1.94322">
        <ele>189.99307250977</ele>
        <time>2020-06-23T19:57:22.459Z</time>
      </trkpt>
      <trkpt lat="45.10484" lon="1.94333">
        <ele>190.20204162598</ele>
        <time>2020-06-23T19:57:26.247Z</time>
      </trkpt>
      <trkpt lat="45.10569" lon="1.94399">
        <ele>193.02288818359</ele>
        <time>2020-06-23T19:57:30.050Z</time>
      </trkpt>
      <trkpt lat="45.10655" lon="1.94433">
        <ele>208.09239196777</ele>
        <time>2020-06-23T19:57:33.868Z</time>
      </trkpt>
      <trkpt lat="45.10693" lon="1.94436">
        <ele>213.88499450684</ele>
        <time>2020-06-23T19:57:37.692Z</time>
      </trkpt>
      <trkpt lat="45.10744" lon="1.94426">
        <ele>216.31198120117</ele>
        <time>2020-06-23T19:57:41.524Z</time>
      </trkpt>
      <trkpt lat="45.10892" lon="1.94369">
        <ele>207.78633117676</ele>
        <time>2020-06-23T19:57:45.381Z</time>
      </trkpt>
      <trkpt lat="45.10997" lon="1.94375">
        <ele>202.33242797852</ele>
        <time>2020-06-23T19:57:49.254Z</time>
      </trkpt>
      <trkpt lat="45.11131" lon="1.94411">
        <ele>203.98959350586</ele>
        <time>2020-06-23T19:57:53.149Z</time>
      </trkpt>
      <trkpt lat="45.11131" lon="1.94411">
        <ele>203.99751281738</ele>
        <time>2020-06-23T19:57:57.044Z</time>
      </trkpt>
      <trkpt lat="45.11132" lon="1.94411">
        <ele>204.14045715332</ele>
        <time>2020-06-23T19:58:00.939Z</time>
      </trkpt>
      <trkpt lat="45.11132" lon="1.94411">
        <ele>204.14056396484</ele>
        <time>2020-06-23T19:58:04.834Z</time>
      </trkpt>
      <trkpt lat="45.1114" lon="1.94413">
        <ele>204.81565856934</ele>
        <time>2020-06-23T19:58:08.731Z</time>
      </trkpt>
      <trkpt lat="45.11256" lon="1.94415">
        <ele>205.92747497559</ele>
        <time>2020-06-23T19:58:12.646Z</time>
      </trkpt>
      <trkpt lat="45.113" lon="1.94426">
        <ele>209.10818481445</ele>
        <time>2020-06-23T19:58:16.568Z</time>
      </trkpt>
      <trkpt lat="45.113" lon="1.94426">
        <ele>209.10929870605</ele>
        <time>2020-06-23T19:58:20.490Z</time>
      </trkpt>
      <trkpt lat="45.11441" lon="1.94459">
        <ele>227.96485900879</ele>
        <time>2020-06-23T19:58:24.435Z</time>
      </trkpt>
      <trkpt lat="45.11494" lon="1.94452">
        <ele>229.12953186035</ele>
        <time>2020-06-23T19:58:28.389Z</time>
      </trkpt>
      <trkpt lat="45.11573" lon="1.9441">
        <ele>227.27568054199</ele>
        <time>2020-06-23T19:58:32.356Z</time>
      </trkpt>
      <trkpt lat="45.11611" lon="1.94424">
        <ele>231.83251953125</ele>
        <time>2020-06-23T19:58:36.330Z</time>
      </trkpt>
      <trkpt lat="45.11661" lon="1.94483">
        <ele>238.99130249023</ele>
        <time>2020-06-23T19:58:40.314Z</time>
      </trkpt>
      <trkpt lat="45.11693" lon="1.94565">
        <ele>243.8404083252</ele>
        <time>2020-06-23T19:58:44.309Z</time>
      </trkpt>
      <trkpt lat="45.11719" lon="1.94581">
        <ele>245.33567810059</ele>
        <time>2020-06-23T19:58:48.308Z</time>
      </trkpt>
      <trkpt lat="45.11762" lon="1.94581">
        <ele>253.57405090332</ele>
        <time>2020-06-23T19:58:52.314Z</time>
      </trkpt>
      <trkpt lat="45.11801" lon="1.94611">
        <ele>259.71417236328</ele>
        <time>2020-06-23T19:58:56.327Z</time>
      </trkpt>
      <trkpt lat="45.11816" lon="1.94604">
        <ele>263.31845092773</ele>
        <time>2020-06-23T19:59:00.343Z</time>
      </trkpt>
      <trkpt lat="45.11821" lon="1.9458">
        <ele>268.65365600586</ele>
        <time>2020-06-23T19:59:04.362Z</time>
      </trkpt>
      <trkpt lat="45.11814" lon="1.9455">
        <ele>271.43145751953</ele>
        <time>2020-06-23T19:59:08.384Z</time>
      </trkpt>
      <trkpt lat="45.11736" lon="1.9438">
        <ele>268.33670043945</ele>
        <time>2020-06-23T19:59:12.429Z</time>
      </trkpt>
      <trkpt lat="45.11734" lon="1.94352">
        <ele>268.56838989258</ele>
        <time>2020-06-23T19:59:16.477Z</time>
      </trkpt>
      <trkpt lat="45.11759" lon="1.94326">
        <ele>272.79888916016</ele>
        <time>2020-06-23T19:59:20.530Z</time>
      </trkpt>
      <trkpt lat="45.11815" lon="1.94305">
        <ele>276.82034301758</ele>
        <time>2020-06-23T19:59:24.592Z</time>
      </trkpt>
      <trkpt lat="45.11932" lon="1.94281">
        <ele>286.72137451172</ele>
        <time>2020-06-23T19:59:28.673Z</time>
      </trkpt>
      <trkpt lat="45.11932" lon="1.94281">
        <ele>286.72286987305</ele>
        <time>2020-06-23T19:59:32.754Z</time>
      </trkpt>
      <trkpt lat="45.12022" lon="1.94249">
        <ele>284.81842041016</ele>
        <time>2020-06-23T19:59:36.850Z</time>
      </trkpt>
      <trkpt lat="45.12076" lon="1.94248">
        <ele>285.65515136719</ele>
        <time>2020-06-23T19:59:40.955Z</time>
      </trkpt>
      <trkpt lat="45.12124" lon="1.94267">
        <ele>291.24160766602</ele>
        <time>2020-06-23T19:59:45.068Z</time>
      </trkpt>
      <trkpt lat="45.12162" lon="1.94318">
        <ele>310.39010620117</ele>
        <time>2020-06-23T19:59:49.189Z</time>
      </trkpt>
      <trkpt lat="45.12196" lon="1.94312">
        <ele>310.11981201172</ele>
        <time>2020-06-23T19:59:53.316Z</time>
      </trkpt>
      <trkpt lat="45.12223" lon="1.94285">
        <ele>303.36752319336</ele>
        <time>2020-06-23T19:59:57.448Z</time>
      </trkpt>
      <trkpt lat="45.12223" lon="1.94285">
        <ele>303.36813354492</ele>
        <time>2020-06-23T20:00:01.580Z</time>
      </trkpt>
      <trkpt lat="45.12238" lon="1.9427">
        <ele>299.5830078125</ele>
        <time>2020-06-23T20:00:05.715Z</time>
      </trkpt>
      <trkpt lat="45.12295" lon="1.94274">
        <ele>313.27014160156</ele>
        <time>2020-06-23T20:00:09.859Z</time>
      </trkpt>
      <trkpt lat="45.1231" lon="1.94262">
        <ele>313.05130004883</ele>
        <time>2020-06-23T20:00:14.006Z</time>
      </trkpt>
      <trkpt lat="45.12322" lon="1.9422">
        <ele>310.19360351562</ele>
        <time>2020-06-23T20:00:18.158Z</time>
      </trkpt>
      <trkpt lat="45.12381" lon="1.94145">
        <ele>320.79547119141</ele>
        <time>2020-06-23T20:00:22.323Z</time>
      </trkpt>
      <trkpt lat="45.1239" lon="1.94117">
        <ele>318.14373779297</ele>
        <time>2020-06-23T20:00:26.491Z</time>
      </trkpt>
      <trkpt lat="45.12417" lon="1.94069">
        <ele>315.32800292969</ele>
        <time>2020-06-23T20:00:30.666Z</time>
      </trkpt>
      <trkpt lat="45.12439" lon="1.94048">
        <ele>316.02053833008</ele>
        <time>2020-06-23T20:00:34.845Z</time>
      </trkpt>
      <trkpt lat="45.12469" lon="1.94048">
        <ele>311.07583618164</ele>
        <time>2020-06-23T20:00:39.029Z</time>
      </trkpt>
      <trkpt lat="45.1256" lon="1.9411">
        <ele>289.00942993164</ele>
        <time>2020-06-23T20:00:43.229Z</time>
      </trkpt>
      <trkpt lat="45.12573" lon="1.9416">
        <ele>287.32797241211</ele>
        <time>2020-06-23T20:00:47.435Z</time>
      </trkpt>
      <trkpt lat="45.12555" lon="1.94218">
        <ele>287.01904296875</ele>
        <time>2020-06-23T20:00:51.648Z</time>
      </trkpt>
      <trkpt lat="45.12531" lon="1.94259">
        <ele>288.38772583008</ele>
        <time>2020-06-23T20:00:55.867Z</time>
      </trkpt>
      <trkpt lat="45.12495" lon="1.94297">
        <ele>292.87487792969</ele>
        <time>2020-06-23T20:01:00.094Z</time>
      </trkpt>
      <trkpt lat="45.12491" lon="1.94338">
        <ele>290.79653930664</ele>
        <time>2020-06-23T20:01:04.325Z</time>
      </trkpt>
      <trkpt lat="45.125" lon="1.94371">
        <ele>286.40478515625</ele>
        <time>2020-06-23T20:01:08.560Z</time>
      </trkpt>
      <trkpt lat="45.12531" lon="1.94407">
        <ele>275.03991699219</ele>
        <time>2020-06-23T20:01:12.802Z</time>
      </trkpt>
      <trkpt lat="45.12531" lon="1.94407">
        <ele>275.03732299805</ele>
        <time>2020-06-23T20:01:17.044Z</time>
      </trkpt>
      <trkpt lat="45.12532" lon="1.94408">
        <ele>274.61285400391</ele>
        <time>2020-06-23T20:01:21.286Z</time>
      </trkpt>
      <trkpt lat="45.12532" lon="1.94408">
        <ele>274.60952758789</ele>
        <time>2020-06-23T20:01:25.528Z</time>
      </trkpt>
      <trkpt lat="45.12556" lon="1.94436">
        <ele>267.59994506836</ele>
        <time>2020-06-23T20:01:29.775Z</time>
      </trkpt>
      <trkpt lat="45.12567" lon="1.94466">
        <ele>265.79779052734</ele>
        <time>2020-06-23T20:01:34.026Z</time>
      </trkpt>
      <trkpt lat="45.12559" lon="1.94504">
        <ele>269.9953918457</ele>
        <time>2020-06-23T20:01:38.281Z</time>
      </trkpt>
      <trkpt lat="45.12541" lon="1.94535">
        <ele>271.55328369141</ele>
        <time>2020-06-23T20:01:42.541Z</time>
      </trkpt>
      <trkpt lat="45.12505" lon="1.94551">
        <ele>280.3134765625</ele>
        <time>2020-06-23T20:01:46.807Z</time>
      </trkpt>
      <trkpt lat="45.12501" lon="1.94563">
        <ele>279.92730712891</ele>
        <time>2020-06-23T20:01:51.074Z</time>
      </trkpt>
      <trkpt lat="45.12521" lon="1.94588">
        <ele>273.41552734375</ele>
        <time>2020-06-23T20:01:55.346Z</time>
      </trkpt>
      <trkpt lat="45.12527" lon="1.94617">
        <ele>271.63912963867</ele>
        <time>2020-06-23T20:01:59.621Z</time>
      </trkpt>
      <trkpt lat="45.12514" lon="1.9465">
        <ele>274.12216186523</ele>
        <time>2020-06-23T20:02:03.900Z</time>
      </trkpt>
      <trkpt lat="45.12514" lon="1.9465">
        <ele>274.12023925781</ele>
        <time>2020-06-23T20:02:08.179Z</time>
      </trkpt>
      <trkpt lat="45.12516" lon="1.94688">
        <ele>276.53436279297</ele>
        <time>2020-06-23T20:02:12.463Z</time>
      </trkpt>
      <trkpt lat="45.12572" lon="1.94691">
        <ele>264.841796875</ele>
        <time>2020-06-23T20:02:16.756Z</time>
      </trkpt>
      <trkpt lat="45.12634" lon="1.94712">
        <ele>254.89422607422</ele>
        <time>2020-06-23T20:02:21.059Z</time>
      </trkpt>
      <trkpt lat="45.12665" lon="1.9476">
        <ele>249.37455749512</ele>
        <time>2020-06-23T20:02:25.369Z</time>
      </trkpt>
      <trkpt lat="45.12658" lon="1.94829">
        <ele>250.25648498535</ele>
        <time>2020-06-23T20:02:29.687Z</time>
      </trkpt>
      <trkpt lat="45.12707" lon="1.94865">
        <ele>237.82168579102</ele>
        <time>2020-06-23T20:02:34.014Z</time>
      </trkpt>
      <trkpt lat="45.12711" lon="1.94881">
        <ele>237.01072692871</ele>
        <time>2020-06-23T20:02:38.343Z</time>
      </trkpt>
      <trkpt lat="45.12711" lon="1.94881">
        <ele>237.00862121582</ele>
        <time>2020-06-23T20:02:42.672Z</time>
      </trkpt>
      <trkpt lat="45.12714" lon="1.94897">
        <ele>236.7332611084</ele>
        <time>2020-06-23T20:02:47.003Z</time>
      </trkpt>
      <trkpt lat="45.1275" lon="1.94942">
        <ele>234.08218383789</ele>
        <time>2020-06-23T20:02:51.342Z</time>
      </trkpt>
      <trkpt lat="45.12779" lon="1.95049">
        <ele>239.07890319824</ele>
        <time>2020-06-23T20:02:55.694Z</time>
      </trkpt>
      <trkpt lat="45.12796" lon="1.95073">
        <ele>237.76399230957</ele>
        <time>2020-06-23T20:03:00.049Z</time>
      </trkpt>
      <trkpt lat="45.12841" lon="1.95106">
        <ele>236.48442077637</ele>
        <time>2020-06-23T20:03:04.413Z</time>
      </trkpt>
      <trkpt lat="45.1287" lon="1.95144">
        <ele>235.9952545166</ele>
        <time>2020-06-23T20:03:08.783Z</time>
      </trkpt>
      <trkpt lat="45.12898" lon="1.95163">
        <ele>234.69506835938</ele>
        <time>2020-06-23T20:03:13.158Z</time>
      </trkpt>
      <trkpt lat="45.12953" lon="1.95168">
        <ele>229.75204467773</ele>
        <time>2020-06-23T20:03:17.542Z</time>
      </trkpt>
      <trkpt lat="45.13039" lon="1.95227">
        <ele>230.67422485352</ele>
        <time>2020-06-23T20:03:21.941Z</time>
      </trkpt>
      <trkpt lat="45.13097" lon="1.95232">
        <ele>223.27854919434</ele>
        <time>2020-06-23T20:03:26.349Z</time>
      </trkpt>
      <trkpt lat="45.13139" lon="1.95191">
        <ele>215.96755981445</ele>
        <time>2020-06-23T20:03:30.765Z</time>
      </trkpt>
      <trkpt lat="45.13184" lon="1.9517">
        <ele>211.11117553711</ele>
        <time>2020-06-23T20:03:35.189Z</time>
      </trkpt>
      <trkpt lat="45.1321" lon="1.95161">
        <ele>208.97505187988</ele>
        <time>2020-06-23T20:03:39.617Z</time>
      </trkpt>
      <trkpt lat="45.13264" lon="1.95113">
        <ele>213.54740905762</ele>
        <time>2020-06-23T20:03:44.055Z</time>
      </trkpt>
      <trkpt lat="45.13298" lon="1.95104">
        <ele>212.79940795898</ele>
        <time>2020-06-23T20:03:48.499Z</time>
      </trkpt>
      <trkpt lat="45.13324" lon="1.95096">
        <ele>220.66439819336</ele>
        <time>2020-06-23T20:03:52.947Z</time>
      </trkpt>
      <trkpt lat="45.13324" lon="1.95096">
        <ele>220.66593933105</ele>
        <time>2020-06-23T20:03:57.395Z</time>
      </trkpt>
      <trkpt lat="45.13325" lon="1.95095">
        <ele>220.9875793457</ele>
        <time>2020-06-23T20:04:01.843Z</time>
      </trkpt>
      <trkpt lat="45.13376" lon="1.95078">
        <ele>231.27981567383</ele>
        <time>2020-06-23T20:04:06.300Z</time>
      </trkpt>
      <trkpt lat="45.1339" lon="1.95061">
        <ele>234.99644470215</ele>
        <time>2020-06-23T20:04:10.760Z</time>
      </trkpt>
      <trkpt lat="45.13423" lon="1.94953">
        <ele>234.7511138916</ele>
        <time>2020-06-23T20:04:15.233Z</time>
      </trkpt>
      <trkpt lat="45.13449" lon="1.94903">
        <ele>228.14918518066</ele>
        <time>2020-06-23T20:04:19.713Z</time>
      </trkpt>
      <trkpt lat="45.13466" lon="1.94883">
        <ele>226.96530151367</ele>
        <time>2020-06-23T20:04:24.197Z</time>
      </trkpt>
      <trkpt lat="45.13581" lon="1.9484">
        <ele>221.02142333984</ele>
        <time>2020-06-23T20:04:28.700Z</time>
      </trkpt>
      <trkpt lat="45.13633" lon="1.94848">
        <ele>217.87020874023</ele>
        <time>2020-06-23T20:04:33.211Z</time>
      </trkpt>
      <trkpt lat="45.13683" lon="1.9491">
        <ele>219.12376403809</ele>
        <time>2020-06-23T20:04:37.733Z</time>
      </trkpt>
      <trkpt lat="45.13683" lon="1.9491">
        <ele>219.12226867676</ele>
        <time>2020-06-23T20:04:42.255Z</time>
      </trkpt>
      <trkpt lat="45.13706" lon="1.94974">
        <ele>216.42054748535</ele>
        <time>2020-06-23T20:04:46.785Z</time>
      </trkpt>
      <trkpt lat="45.13758" lon="1.9507">
        <ele>221.52113342285</ele>
        <time>2020-06-23T20:04:51.328Z</time>
      </trkpt>
      <trkpt lat="45.13816" lon="1.95203">
        <ele>220.615234375</ele>
        <time>2020-06-23T20:04:55.889Z</time>
      </trkpt>
      <trkpt lat="45.13845" lon="1.95249">
        <ele>222.79689025879</ele>
        <time>2020-06-23T20:05:00.457Z</time>
      </trkpt>
      <trkpt lat="45.13881" lon="1.95293">
        <ele>226.96072387695</ele>
        <time>2020-06-23T20:05:05.033Z</time>
      </trkpt>
      <trkpt lat="45.13916" lon="1.95308">
        <ele>225.8923034668</ele>
        <time>2020-06-23T20:05:09.615Z</time>
      </trkpt>
      <trkpt lat="45.13916" lon="1.95308">
        <ele>225.89120483398</ele>
        <time>2020-06-23T20:05:14.197Z</time>
      </trkpt>
      <trkpt lat="45.14064" lon="1.95371">
        <ele>226.02008056641</ele>
        <time>2020-06-23T20:05:18.803Z</time>
      </trkpt>
      <trkpt lat="45.14162" lon="1.95452">
        <ele>225.82498168945</ele>
        <time>2020-06-23T20:05:23.428Z</time>
      </trkpt>
      <trkpt lat="45.14194" lon="1.95494">
        <ele>232.56663513184</ele>
        <time>2020-06-23T20:05:28.060Z</time>
      </trkpt>
      <trkpt lat="45.14217" lon="1.95512">
        <ele>232.91261291504</ele>
        <time>2020-06-23T20:05:32.696Z</time>
      </trkpt>
      <trkpt lat="45.14258" lon="1.95521">
        <ele>230.00425720215</ele>
        <time>2020-06-23T20:05:37.338Z</time>
      </trkpt>
      <trkpt lat="45.14258" lon="1.95521">
        <ele>230.00291442871</ele>
        <time>2020-06-23T20:05:41.980Z</time>
      </trkpt>
      <trkpt lat="45.1426" lon="1.95521">
        <ele>229.90368652344</ele>
        <time>2020-06-23T20:05:46.623Z</time>
      </trkpt>
      <trkpt lat="45.1426" lon="1.95521">
        <ele>229.90278625488</ele>
        <time>2020-06-23T20:05:51.266Z</time>
      </trkpt>
      <trkpt lat="45.14283" lon="1.95527">
        <ele>228.44256591797</ele>
        <time>2020-06-23T20:05:55.913Z</time>
      </trkpt>
      <trkpt lat="45.14364" lon="1.95517">
        <ele>224.99546813965</ele>
        <time>2020-06-23T20:06:00.572Z</time>
      </trkpt>
      <trkpt lat="45.1441" lon="1.95478">
        <ele>220.17436218262</ele>
        <time>2020-06-23T20:06:05.240Z</time>
      </trkpt>
      <trkpt lat="45.14442" lon="1.95462">
        <ele>219.93432617188</ele>
        <time>2020-06-23T20:06:09.913Z</time>
      </trkpt>
      <trkpt lat="45.14442" lon="1.95462">
        <ele>219.93432617188</ele>
        <time>2020-06-23T20:06:14.586Z</time>
      </trkpt>
      <trkpt lat="45.1449" lon="1.95437">
        <ele>218.76614379883</ele>
        <time>2020-06-23T20:06:19.268Z</time>
      </trkpt>
      <trkpt lat="45.14606" lon="1.95424">
        <ele>221.61080932617</ele>
        <time>2020-06-23T20:06:23.968Z</time>
      </trkpt>
      <trkpt lat="45.14675" lon="1.95425">
        <ele>230.20367431641</ele>
        <time>2020-06-23T20:06:28.679Z</time>
      </trkpt>
      <trkpt lat="45.14724" lon="1.95409">
        <ele>230.88635253906</ele>
        <time>2020-06-23T20:06:33.398Z</time>
      </trkpt>
      <trkpt lat="45.14724" lon="1.95409">
        <ele>230.88674926758</ele>
        <time>2020-06-23T20:06:38.117Z</time>
      </trkpt>
      <trkpt lat="45.14804" lon="1.95395">
        <ele>232.98536682129</ele>
        <time>2020-06-23T20:06:42.849Z</time>
      </trkpt>
      <trkpt lat="45.14901" lon="1.95353">
        <ele>232.34153747559</ele>
        <time>2020-06-23T20:06:47.598Z</time>
      </trkpt>
      <trkpt lat="45.14953" lon="1.95332">
        <ele>230.68707275391</ele>
        <time>2020-06-23T20:06:52.355Z</time>
      </trkpt>
      <trkpt lat="45.14994" lon="1.95339">
        <ele>231.44441223145</ele>
        <time>2020-06-23T20:06:57.119Z</time>
      </trkpt>
      <trkpt lat="45.14994" lon="1.95339">
        <ele>231.44451904297</ele>
        <time>2020-06-23T20:07:01.883Z</time>
      </trkpt>
      <trkpt lat="45.15015" lon="1.95337">
        <ele>231.54739379883</ele>
        <time>2020-06-23T20:07:06.650Z</time>
      </trkpt>
      <trkpt lat="45.15081" lon="1.95302">
        <ele>230.99287414551</ele>
        <time>2020-06-23T20:07:11.428Z</time>
      </trkpt>
      <trkpt lat="45.1516" lon="1.95299">
        <ele>230.34411621094</ele>
        <time>2020-06-23T20:07:16.219Z</time>
      </trkpt>
      <trkpt lat="45.15175" lon="1.95328">
        <ele>231.96322631836</ele>
        <time>2020-06-23T20:07:21.014Z</time>
      </trkpt>
      <trkpt lat="45.15175" lon="1.95328">
        <ele>231.96281433105</ele>
        <time>2020-06-23T20:07:25.809Z</time>
      </trkpt>
      <trkpt lat="45.15306" lon="1.95325">
        <ele>228.85282897949</ele>
        <time>2020-06-23T20:07:30.625Z</time>
      </trkpt>
      <trkpt lat="45.15373" lon="1.95355">
        <ele>232.99775695801</ele>
        <time>2020-06-23T20:07:35.452Z</time>
      </trkpt>
      <trkpt lat="45.15409" lon="1.95357">
        <ele>229.57032775879</ele>
        <time>2020-06-23T20:07:40.285Z</time>
      </trkpt>
      <trkpt lat="45.15443" lon="1.95374">
        <ele>230.60107421875</ele>
        <time>2020-06-23T20:07:45.124Z</time>
      </trkpt>
      <trkpt lat="45.15483" lon="1.95445">
        <ele>235.5491027832</ele>
        <time>2020-06-23T20:07:49.973Z</time>
      </trkpt>
      <trkpt lat="45.15483" lon="1.95445">
        <ele>235.54981994629</ele>
        <time>2020-06-23T20:07:54.822Z</time>
      </trkpt>
      <trkpt lat="45.15484" lon="1.95447">
        <ele>235.67350769043</ele>
        <time>2020-06-23T20:07:59.671Z</time>
      </trkpt>
      <trkpt lat="45.15484" lon="1.95447">
        <ele>235.67492675781</ele>
        <time>2020-06-23T20:08:04.520Z</time>
      </trkpt>
      <trkpt lat="45.1549" lon="1.95459">
        <ele>236.53717041016</ele>
        <time>2020-06-23T20:08:09.371Z</time>
      </trkpt>
      <trkpt lat="45.15538" lon="1.95527">
        <ele>237.17727661133</ele>
        <time>2020-06-23T20:08:14.233Z</time>
      </trkpt>
      <trkpt lat="45.15603" lon="1.95575">
        <ele>235.06625366211</ele>
        <time>2020-06-23T20:08:19.107Z</time>
      </trkpt>
      <trkpt lat="45.15714" lon="1.95573">
        <ele>227.05149841309</ele>
        <time>2020-06-23T20:08:23.998Z</time>
      </trkpt>
      <trkpt lat="45.15925" lon="1.95528">
        <ele>233.81878662109</ele>
        <time>2020-06-23T20:08:28.924Z</time>
      </trkpt>
      <trkpt lat="45.15984" lon="1.95505">
        <ele>235.8963470459</ele>
        <time>2020-06-23T20:08:33.859Z</time>
      </trkpt>
      <trkpt lat="45.16082" lon="1.95449">
        <ele>245.57356262207</ele>
        <time>2020-06-23T20:08:38.811Z</time>
      </trkpt>
      <trkpt lat="45.16082" lon="1.95449">
        <ele>245.57618713379</ele>
        <time>2020-06-23T20:08:43.763Z</time>
      </trkpt>
      <trkpt lat="45.16124" lon="1.95411">
        <ele>238.66194152832</ele>
        <time>2020-06-23T20:08:48.723Z</time>
      </trkpt>
      <trkpt lat="45.16102" lon="1.95326">
        <ele>233.0104675293</ele>
        <time>2020-06-23T20:08:53.694Z</time>
      </trkpt>
      <trkpt lat="45.16119" lon="1.9531">
        <ele>234.48695373535</ele>
        <time>2020-06-23T20:08:58.668Z</time>
      </trkpt>
      <trkpt lat="45.16237" lon="1.9524">
        <ele>242.55981445312</ele>
        <time>2020-06-23T20:09:03.662Z</time>
      </trkpt>
      <trkpt lat="45.16289" lon="1.95202">
        <ele>248.52612304688</ele>
        <time>2020-06-23T20:09:08.666Z</time>
      </trkpt>
      <trkpt lat="45.1639" lon="1.95093">
        <ele>255.04298400879</ele>
        <time>2020-06-23T20:09:13.690Z</time>
      </trkpt>
      <trkpt lat="45.16418" lon="1.9508">
        <ele>259.26348876953</ele>
        <time>2020-06-23T20:09:18.719Z</time>
      </trkpt>
      <trkpt lat="45.1647" lon="1.95089">
        <ele>263.94723510742</ele>
        <time>2020-06-23T20:09:23.756Z</time>
      </trkpt>
      <trkpt lat="45.16504" lon="1.95117">
        <ele>273.40994262695</ele>
        <time>2020-06-23T20:09:28.799Z</time>
      </trkpt>
      <trkpt lat="45.16516" lon="1.95144">
        <ele>273.36987304688</ele>
        <time>2020-06-23T20:09:33.846Z</time>
      </trkpt>
      <trkpt lat="45.16519" lon="1.95241">
        <ele>265.83013916016</ele>
        <time>2020-06-23T20:09:38.904Z</time>
      </trkpt>
      <trkpt lat="45.16519" lon="1.95241">
        <ele>265.82934570312</ele>
        <time>2020-06-23T20:09:43.962Z</time>
      </trkpt>
      <trkpt lat="45.16519" lon="1.95243">
        <ele>265.70193481445</ele>
        <time>2020-06-23T20:09:49.020Z</time>
      </trkpt>
      <trkpt lat="45.16519" lon="1.95243">
        <ele>265.70074462891</ele>
        <time>2020-06-23T20:09:54.078Z</time>
      </trkpt>
      <trkpt lat="45.1652" lon="1.95269">
        <ele>264.12677001953</ele>
        <time>2020-06-23T20:09:59.139Z</time>
      </trkpt>
      <trkpt lat="45.16531" lon="1.95335">
        <ele>263.03164672852</ele>
        <time>2020-06-23T20:10:04.208Z</time>
      </trkpt>
      <trkpt lat="45.16576" lon="1.95425">
        <ele>253.58963012695</ele>
        <time>2020-06-23T20:10:09.289Z</time>
      </trkpt>
      <trkpt lat="45.16622" lon="1.95475">
        <ele>252.37962341309</ele>
        <time>2020-06-23T20:10:14.380Z</time>
      </trkpt>
      <trkpt lat="45.16649" lon="1.95481">
        <ele>256.31939697266</ele>
        <time>2020-06-23T20:10:19.475Z</time>
      </trkpt>
      <trkpt lat="45.16671" lon="1.95464">
        <ele>260.82476806641</ele>
        <time>2020-06-23T20:10:24.574Z</time>
      </trkpt>
      <trkpt lat="45.16677" lon="1.95429">
        <ele>257.26116943359</ele>
        <time>2020-06-23T20:10:29.677Z</time>
      </trkpt>
      <trkpt lat="45.16682" lon="1.95178">
        <ele>259.66256713867</ele>
        <time>2020-06-23T20:10:34.808Z</time>
      </trkpt>
      <trkpt lat="45.16701" lon="1.95122">
        <ele>259.05786132812</ele>
        <time>2020-06-23T20:10:39.946Z</time>
      </trkpt>
      <trkpt lat="45.16733" lon="1.95086">
        <ele>261.33340454102</ele>
        <time>2020-06-23T20:10:45.091Z</time>
      </trkpt>
      <trkpt lat="45.16771" lon="1.95065">
        <ele>260.48764038086</ele>
        <time>2020-06-23T20:10:50.243Z</time>
      </trkpt>
      <trkpt lat="45.16818" lon="1.95067">
        <ele>256.17736816406</ele>
        <time>2020-06-23T20:10:55.402Z</time>
      </trkpt>
      <trkpt lat="45.16846" lon="1.95087">
        <ele>255.39599609375</ele>
        <time>2020-06-23T20:11:00.566Z</time>
      </trkpt>
      <trkpt lat="45.16875" lon="1.95123">
        <ele>256.52877807617</ele>
        <time>2020-06-23T20:11:05.736Z</time>
      </trkpt>
      <trkpt lat="45.16917" lon="1.95328">
        <ele>264.97158813477</ele>
        <time>2020-06-23T20:11:10.930Z</time>
      </trkpt>
      <trkpt lat="45.16938" lon="1.95354">
        <ele>265.31915283203</ele>
        <time>2020-06-23T20:11:16.129Z</time>
      </trkpt>
      <trkpt lat="45.16957" lon="1.95366">
        <ele>266.55490112305</ele>
        <time>2020-06-23T20:11:21.331Z</time>
      </trkpt>
      <trkpt lat="45.16974" lon="1.95356">
        <ele>269.56756591797</ele>
        <time>2020-06-23T20:11:26.536Z</time>
      </trkpt>
      <trkpt lat="45.17062" lon="1.95243">
        <ele>277.43493652344</ele>
        <time>2020-06-23T20:11:31.760Z</time>
      </trkpt>
      <trkpt lat="45.17099" lon="1.95222">
        <ele>284.37585449219</ele>
        <time>2020-06-23T20:11:36.990Z</time>
      </trkpt>
      <trkpt lat="45.1715" lon="1.95208">
        <ele>299.25988769531</ele>
        <time>2020-06-23T20:11:42.229Z</time>
      </trkpt>
      <trkpt lat="45.17193" lon="1.95216">
        <ele>308.71279907227</ele>
        <time>2020-06-23T20:11:47.475Z</time>
      </trkpt>
      <trkpt lat="45.17241" lon="1.95252">
        <ele>315.32778930664</ele>
        <time>2020-06-23T20:11:52.730Z</time>
      </trkpt>
      <trkpt lat="45.17295" lon="1.95319">
        <ele>325.603515625</ele>
        <time>2020-06-23T20:11:57.996Z</time>
      </trkpt>
      <trkpt lat="45.17302" lon="1.95368">
        <ele>321.84344482422</ele>
        <time>2020-06-23T20:12:03.268Z</time>
      </trkpt>
      <trkpt lat="45.17324" lon="1.95434">
        <ele>326.48342895508</ele>
        <time>2020-06-23T20:12:08.548Z</time>
      </trkpt>
      <trkpt lat="45.17296" lon="1.95497">
        <ele>314.84756469727</ele>
        <time>2020-06-23T20:12:13.836Z</time>
      </trkpt>
      <trkpt lat="45.17285" lon="1.95532">
        <ele>305.8063659668</ele>
        <time>2020-06-23T20:12:19.129Z</time>
      </trkpt>
      <trkpt lat="45.17299" lon="1.95561">
        <ele>308.35986328125</ele>
        <time>2020-06-23T20:12:24.426Z</time>
      </trkpt>
      <trkpt lat="45.1733" lon="1.95581">
        <ele>316.42211914062</ele>
        <time>2020-06-23T20:12:29.728Z</time>
      </trkpt>
      <trkpt lat="45.17365" lon="1.95591">
        <ele>326.47552490234</ele>
        <time>2020-06-23T20:12:35.036Z</time>
      </trkpt>
      <trkpt lat="45.17446" lon="1.95658">
        <ele>341.14395141602</ele>
        <time>2020-06-23T20:12:40.359Z</time>
      </trkpt>
      <trkpt lat="45.17473" lon="1.95728">
        <ele>333.83865356445</ele>
        <time>2020-06-23T20:12:45.691Z</time>
      </trkpt>
      <trkpt lat="45.17512" lon="1.95805">
        <ele>330.97952270508</ele>
        <time>2020-06-23T20:12:51.034Z</time>
      </trkpt>
      <trkpt lat="45.17518" lon="1.95857">
        <ele>322.19943237305</ele>
        <time>2020-06-23T20:12:56.383Z</time>
      </trkpt>
      <trkpt lat="45.17531" lon="1.95888">
        <ele>318.65951538086</ele>
        <time>2020-06-23T20:13:01.736Z</time>
      </trkpt>
      <trkpt lat="45.17541" lon="1.95899">
        <ele>318.86215209961</ele>
        <time>2020-06-23T20:13:07.091Z</time>
      </trkpt>
      <trkpt lat="45.17541" lon="1.95899">
        <ele>318.8623046875</ele>
        <time>2020-06-23T20:13:12.446Z</time>
      </trkpt>
      <trkpt lat="45.17541" lon="1.95899">
        <ele>318.86022949219</ele>
        <time>2020-06-23T20:13:17.801Z</time>
      </trkpt>
      <trkpt lat="45.17549" lon="1.95909">
        <ele>316.89700317383</ele>
        <time>2020-06-23T20:13:23.157Z</time>
      </trkpt>
      <trkpt lat="45.17575" lon="1.95909">
        <ele>311.95397949219</ele>
        <time>2020-06-23T20:13:28.517Z</time>
      </trkpt>
      <trkpt lat="45.176" lon="1.9589">
        <ele>311.40670776367</ele>
        <time>2020-06-23T20:13:33.882Z</time>
      </trkpt>
      <trkpt lat="45.17629" lon="1.95835">
        <ele>327.4075012207</ele>
        <time>2020-06-23T20:13:39.255Z</time>
      </trkpt>
      <trkpt lat="45.17652" lon="1.95806">
        <ele>331.662109375</ele>
        <time>2020-06-23T20:13:44.633Z</time>
      </trkpt>
      <trkpt lat="45.17695" lon="1.95791">
        <ele>326.04544067383</ele>
        <time>2020-06-23T20:13:50.018Z</time>
      </trkpt>
      <trkpt lat="45.17798" lon="1.95681">
        <ele>331.83535766602</ele>
        <time>2020-06-23T20:13:55.423Z</time>
      </trkpt>
      <trkpt lat="45.17813" lon="1.95649">
        <ele>336.71612548828</ele>
        <time>2020-06-23T20:14:00.833Z</time>
      </trkpt>
      <trkpt lat="45.17871" lon="1.95593">
        <ele>330.43081665039</ele>
        <time>2020-06-23T20:14:06.254Z</time>
      </trkpt>
      <trkpt lat="45.1789" lon="1.95508">
        <ele>338.36895751953</ele>
        <time>2020-06-23T20:14:11.685Z</time>
      </trkpt>
      <trkpt lat="45.17885" lon="1.95474">
        <ele>342.15530395508</ele>
        <time>2020-06-23T20:14:17.120Z</time>
      </trkpt>
      <trkpt lat="45.17855" lon="1.95413">
        <ele>353.29339599609</ele>
        <time>2020-06-23T20:14:22.564Z</time>
      </trkpt>
      <trkpt lat="45.178" lon="1.95335">
        <ele>363.47598266602</ele>
        <time>2020-06-23T20:14:28.020Z</time>
      </trkpt>
      <trkpt lat="45.17794" lon="1.95203">
        <ele>370.63681030273</ele>
        <time>2020-06-23T20:14:33.491Z</time>
      </trkpt>
      <trkpt lat="45.17865" lon="1.95087">
        <ele>384.47442626953</ele>
        <time>2020-06-23T20:14:38.979Z</time>
      </trkpt>
      <trkpt lat="45.17905" lon="1.9505">
        <ele>389.44543457031</ele>
        <time>2020-06-23T20:14:44.475Z</time>
      </trkpt>
      <trkpt lat="45.17938" lon="1.94992">
        <ele>400.4001159668</ele>
        <time>2020-06-23T20:14:49.979Z</time>
      </trkpt>
      <trkpt lat="45.17938" lon="1.94992">
        <ele>400.39880371094</ele>
        <time>2020-06-23T20:14:55.483Z</time>
      </trkpt>
      <trkpt lat="45.17942" lon="1.94986">
        <ele>401.53851318359</ele>
        <time>2020-06-23T20:15:00.988Z</time>
      </trkpt>
      <trkpt lat="45.17985" lon="1.94987">
        <ele>398.54348754883</ele>
        <time>2020-06-23T20:15:06.500Z</time>
      </trkpt>
      <trkpt lat="45.18139" lon="1.9493">
        <ele>411.6907043457</ele>
        <time>2020-06-23T20:15:12.038Z</time>
      </trkpt>
      <trkpt lat="45.18154" lon="1.94907">
        <ele>412.82092285156</ele>
        <time>2020-06-23T20:15:17.579Z</time>
      </trkpt>
      <trkpt lat="45.18159" lon="1.9486">
        <ele>415.65286254883</ele>
        <time>2020-06-23T20:15:23.126Z</time>
      </trkpt>
      <trkpt lat="45.18167" lon="1.94836">
        <ele>414.76684570312</ele>
        <time>2020-06-23T20:15:28.676Z</time>
      </trkpt>
      <trkpt lat="45.18187" lon="1.9481">
        <ele>416.96200561523</ele>
        <time>2020-06-23T20:15:34.230Z</time>
      </trkpt>
      <trkpt lat="45.18222" lon="1.9481">
        <ele>417.47012329102</ele>
        <time>2020-06-23T20:15:39.790Z</time>
      </trkpt>
      <trkpt lat="45.18242" lon="1.94825">
        <ele>415.82510375977</ele>
        <time>2020-06-23T20:15:45.353Z</time>
      </trkpt>
      <trkpt lat="45.18252" lon="1.94839">
        <ele>417.56286621094</ele>
        <time>2020-06-23T20:15:50.919Z</time>
      </trkpt>
      <trkpt lat="45.18263" lon="1.94895">
        <ele>423.14944458008</ele>
        <time>2020-06-23T20:15:56.491Z</time>
      </trkpt>
      <trkpt lat="45.18302" lon="1.94922">
        <ele>427.88845825195</ele>
        <time>2020-06-23T20:16:02.070Z</time>
      </trkpt>
      <trkpt lat="45.18425" lon="1.94886">
        <ele>441.17831420898</ele>
        <time>2020-06-23T20:16:07.669Z</time>
      </trkpt>
      <trkpt lat="45.18465" lon="1.94831">
        <ele>445.47283935547</ele>
        <time>2020-06-23T20:16:13.277Z</time>
      </trkpt>
      <trkpt lat="45.1852" lon="1.94773">
        <ele>441.13912963867</ele>
        <time>2020-06-23T20:16:18.896Z</time>
      </trkpt>
      <trkpt lat="45.1856" lon="1.94763">
        <ele>439.46722412109</ele>
        <time>2020-06-23T20:16:24.522Z</time>
      </trkpt>
      <trkpt lat="45.18573" lon="1.9477">
        <ele>438.51467895508</ele>
        <time>2020-06-23T20:16:30.150Z</time>
      </trkpt>
      <trkpt lat="45.18582" lon="1.94783">
        <ele>438.66915893555</ele>
        <time>2020-06-23T20:16:35.780Z</time>
      </trkpt>
      <trkpt lat="45.18588" lon="1.9482">
        <ele>442.2734375</ele>
        <time>2020-06-23T20:16:41.414Z</time>
      </trkpt>
      <trkpt lat="45.18561" lon="1.9491">
        <ele>448.97402954102</ele>
        <time>2020-06-23T20:16:47.059Z</time>
      </trkpt>
      <trkpt lat="45.1856" lon="1.94944">
        <ele>451.36834716797</ele>
        <time>2020-06-23T20:16:52.708Z</time>
      </trkpt>
      <trkpt lat="45.18581" lon="1.95048">
        <ele>457.87246704102</ele>
        <time>2020-06-23T20:16:58.369Z</time>
      </trkpt>
      <trkpt lat="45.18582" lon="1.95059">
        <ele>458.3616027832</ele>
        <time>2020-06-23T20:17:04.032Z</time>
      </trkpt>
      <trkpt lat="45.18568" lon="1.95173">
        <ele>463.92288208008</ele>
        <time>2020-06-23T20:17:09.708Z</time>
      </trkpt>
      <trkpt lat="45.18652" lon="1.95234">
        <ele>465.13409423828</ele>
        <time>2020-06-23T20:17:15.399Z</time>
      </trkpt>
      <trkpt lat="45.18652" lon="1.95234">
        <ele>465.13464355469</ele>
        <time>2020-06-23T20:17:21.090Z</time>
      </trkpt>
      <trkpt lat="45.18652" lon="1.95234">
        <ele>465.13668823242</ele>
        <time>2020-06-23T20:17:26.781Z</time>
      </trkpt>
      <trkpt lat="45.18652" lon="1.95234">
        <ele>465.1369934082</ele>
        <time>2020-06-23T20:17:32.472Z</time>
      </trkpt>
      <trkpt lat="45.18768" lon="1.95321">
        <ele>472.66955566406</ele>
        <time>2020-06-23T20:17:38.184Z</time>
      </trkpt>
      <trkpt lat="45.18791" lon="1.95336">
        <ele>475.01556396484</ele>
        <time>2020-06-23T20:17:43.900Z</time>
      </trkpt>
      <trkpt lat="45.18836" lon="1.9537">
        <ele>479.23843383789</ele>
        <time>2020-06-23T20:17:49.624Z</time>
      </trkpt>
      <trkpt lat="45.18881" lon="1.95403">
        <ele>483.33728027344</ele>
        <time>2020-06-23T20:17:55.356Z</time>
      </trkpt>
      <trkpt lat="45.18897" lon="1.95416">
        <ele>485.18548583984</ele>
        <time>2020-06-23T20:18:01.091Z</time>
      </trkpt>
      <trkpt lat="45.18905" lon="1.95441">
        <ele>487.0471496582</ele>
        <time>2020-06-23T20:18:06.829Z</time>
      </trkpt>
      <trkpt lat="45.18907" lon="1.95531">
        <ele>488.15725708008</ele>
        <time>2020-06-23T20:18:12.577Z</time>
      </trkpt>
      <trkpt lat="45.18915" lon="1.95559">
        <ele>488.96823120117</ele>
        <time>2020-06-23T20:18:18.329Z</time>
      </trkpt>
      <trkpt lat="45.18974" lon="1.95625">
        <ele>495.9524230957</ele>
        <time>2020-06-23T20:18:24.093Z</time>
      </trkpt>
      <trkpt lat="45.18974" lon="1.95625">
        <ele>495.95333862305</ele>
        <time>2020-06-23T20:18:29.857Z</time>
      </trkpt>
      <trkpt lat="45.19048" lon="1.95699">
        <ele>497.53015136719</ele>
        <time>2020-06-23T20:18:35.635Z</time>
      </trkpt>
      <trkpt lat="45.19132" lon="1.9575">
        <ele>490.80325317383</ele>
        <time>2020-06-23T20:18:41.428Z</time>
      </trkpt>
      <trkpt lat="45.19159" lon="1.95755">
        <ele>487.13354492188</ele>
        <time>2020-06-23T20:18:47.225Z</time>
      </trkpt>
      <trkpt lat="45.19237" lon="1.95726">
        <ele>480.13827514648</ele>
        <time>2020-06-23T20:18:53.035Z</time>
      </trkpt>
      <trkpt lat="45.19259" lon="1.95724">
        <ele>478.79956054688</ele>
        <time>2020-06-23T20:18:58.849Z</time>
      </trkpt>
      <trkpt lat="45.19297" lon="1.95735">
        <ele>474.02362060547</ele>
        <time>2020-06-23T20:19:04.669Z</time>
      </trkpt>
      <trkpt lat="45.19327" lon="1.95744">
        <ele>474.46627807617</ele>
        <time>2020-06-23T20:19:10.494Z</time>
      </trkpt>
      <trkpt lat="45.19368" lon="1.95713">
        <ele>472.15780639648</ele>
        <time>2020-06-23T20:19:16.326Z</time>
      </trkpt>
      <trkpt lat="45.19368" lon="1.95713">
        <ele>472.15689086914</ele>
        <time>2020-06-23T20:19:22.158Z</time>
      </trkpt>
      <trkpt lat="45.19368" lon="1.95713">
        <ele>472.14517211914</ele>
        <time>2020-06-23T20:19:27.990Z</time>
      </trkpt>
      <trkpt lat="45.19368" lon="1.95713">
        <ele>472.14144897461</ele>
        <time>2020-06-23T20:19:33.822Z</time>
      </trkpt>
      <trkpt lat="45.19387" lon="1.95699">
        <ele>466.83023071289</ele>
        <time>2020-06-23T20:19:39.658Z</time>
      </trkpt>
      <trkpt lat="45.19434" lon="1.95696">
        <ele>460.6142578125</ele>
        <time>2020-06-23T20:19:45.501Z</time>
      </trkpt>
      <trkpt lat="45.19469" lon="1.95668">
        <ele>461.95071411133</ele>
        <time>2020-06-23T20:19:51.351Z</time>
      </trkpt>
      <trkpt lat="45.19496" lon="1.95667">
        <ele>463.63146972656</ele>
        <time>2020-06-23T20:19:57.205Z</time>
      </trkpt>
      <trkpt lat="45.19543" lon="1.95719">
        <ele>463.92755126953</ele>
        <time>2020-06-23T20:20:03.068Z</time>
      </trkpt>
      <trkpt lat="45.19608" lon="1.95759">
        <ele>463.09234619141</ele>
        <time>2020-06-23T20:20:08.943Z</time>
      </trkpt>
      <trkpt lat="45.19617" lon="1.95773">
        <ele>462.69329833984</ele>
        <time>2020-06-23T20:20:14.820Z</time>
      </trkpt>
      <trkpt lat="45.19642" lon="1.95856">
        <ele>459.94262695312</ele>
        <time>2020-06-23T20:20:20.707Z</time>
      </trkpt>
      <trkpt lat="45.19642" lon="1.95897">
        <ele>457.49685668945</ele>
        <time>2020-06-23T20:20:26.599Z</time>
      </trkpt>
      <trkpt lat="45.19626" lon="1.96056">
        <ele>460.39935302734</ele>
        <time>2020-06-23T20:20:32.509Z</time>
      </trkpt>
      <trkpt lat="45.19626" lon="1.96056">
        <ele>460.37637329102</ele>
        <time>2020-06-23T20:20:38.419Z</time>
      </trkpt>
      <trkpt lat="45.19626" lon="1.96056">
        <ele>460.37567138672</ele>
        <time>2020-06-23T20:20:44.329Z</time>
      </trkpt>
      <trkpt lat="45.19623" lon="1.96081">
        <ele>461.95294189453</ele>
        <time>2020-06-23T20:20:50.242Z</time>
      </trkpt>
      <trkpt lat="45.19661" lon="1.96285">
        <ele>466.52890014648</ele>
        <time>2020-06-23T20:20:56.179Z</time>
      </trkpt>
      <trkpt lat="45.19667" lon="1.96376">
        <ele>468.08767700195</ele>
        <time>2020-06-23T20:21:02.126Z</time>
      </trkpt>
      <trkpt lat="45.19626" lon="1.96483">
        <ele>466.97933959961</ele>
        <time>2020-06-23T20:21:08.087Z</time>
      </trkpt>
      <trkpt lat="45.19621" lon="1.96512">
        <ele>465.17404174805</ele>
        <time>2020-06-23T20:21:14.051Z</time>
      </trkpt>
      <trkpt lat="45.19569" lon="1.9659">
        <ele>459.30557250977</ele>
        <time>2020-06-23T20:21:20.027Z</time>
      </trkpt>
      <trkpt lat="45.19568" lon="1.96591">
        <ele>459.26000976562</ele>
        <time>2020-06-23T20:21:26.003Z</time>
      </trkpt>
      <trkpt lat="45.19568" lon="1.96591">
        <ele>459.25918579102</ele>
        <time>2020-06-23T20:21:31.979Z</time>
      </trkpt>
      <trkpt lat="45.19568" lon="1.96591">
        <ele>459.26190185547</ele>
        <time>2020-06-23T20:21:37.955Z</time>
      </trkpt>
      <trkpt lat="45.19567" lon="1.96592">
        <ele>459.10623168945</ele>
        <time>2020-06-23T20:21:43.932Z</time>
      </trkpt>
      <trkpt lat="45.19557" lon="1.96651">
        <ele>455.07363891602</ele>
        <time>2020-06-23T20:21:49.916Z</time>
      </trkpt>
      <trkpt lat="45.1956" lon="1.96719">
        <ele>450.44641113281</ele>
        <time>2020-06-23T20:21:55.907Z</time>
      </trkpt>
      <trkpt lat="45.19597" lon="1.96771">
        <ele>448.73233032227</ele>
        <time>2020-06-23T20:22:01.907Z</time>
      </trkpt>
      <trkpt lat="45.19575" lon="1.96842">
        <ele>442.22854614258</ele>
        <time>2020-06-23T20:22:07.915Z</time>
      </trkpt>
      <trkpt lat="45.19575" lon="1.96843">
        <ele>442.12738037109</ele>
        <time>2020-06-23T20:22:13.924Z</time>
      </trkpt>
      <trkpt lat="45.19575" lon="1.96843">
        <ele>442.12655639648</ele>
        <time>2020-06-23T20:22:19.933Z</time>
      </trkpt>
      <trkpt lat="45.19575" lon="1.96843">
        <ele>442.13076782227</ele>
        <time>2020-06-23T20:22:25.942Z</time>
      </trkpt>
      <trkpt lat="45.19559" lon="1.96896">
        <ele>435.48446655273</ele>
        <time>2020-06-23T20:22:31.957Z</time>
      </trkpt>
      <trkpt lat="45.19615" lon="1.9693">
        <ele>431.91607666016</ele>
        <time>2020-06-23T20:22:37.982Z</time>
      </trkpt>
      <trkpt lat="45.19664" lon="1.96924">
        <ele>430.32669067383</ele>
        <time>2020-06-23T20:22:44.015Z</time>
      </trkpt>
      <trkpt lat="45.1973" lon="1.969">
        <ele>424.11944580078</ele>
        <time>2020-06-23T20:22:50.059Z</time>
      </trkpt>
      <trkpt lat="45.19717" lon="1.96921">
        <ele>425.34777832031</ele>
        <time>2020-06-23T20:22:56.106Z</time>
      </trkpt>
      <trkpt lat="45.19716" lon="1.96922">
        <ele>425.36721801758</ele>
        <time>2020-06-23T20:23:02.153Z</time>
      </trkpt>
      <trkpt lat="45.19716" lon="1.96922">
        <ele>425.37255859375</ele>
        <time>2020-06-23T20:23:08.200Z</time>
      </trkpt>
      <trkpt lat="45.19716" lon="1.96922">
        <ele>425.37142944336</ele>
        <time>2020-06-23T20:23:14.247Z</time>
      </trkpt>
      <trkpt lat="45.1973" lon="1.969">
        <ele>424.11724853516</ele>
        <time>2020-06-23T20:23:20.297Z</time>
      </trkpt>
      <trkpt lat="45.19757" lon="1.96851">
        <ele>423.78616333008</ele>
        <time>2020-06-23T20:23:26.355Z</time>
      </trkpt>
      <trkpt lat="45.19757" lon="1.96809">
        <ele>427.91705322266</ele>
        <time>2020-06-23T20:23:32.417Z</time>
      </trkpt>
      <trkpt lat="45.19742" lon="1.9675">
        <ele>436.27239990234</ele>
        <time>2020-06-23T20:23:38.486Z</time>
      </trkpt>
      <trkpt lat="45.19743" lon="1.96737">
        <ele>437.85293579102</ele>
        <time>2020-06-23T20:23:44.557Z</time>
      </trkpt>
      <trkpt lat="45.19755" lon="1.96721">
        <ele>437.54400634766</ele>
        <time>2020-06-23T20:23:50.630Z</time>
      </trkpt>
      <trkpt lat="45.19822" lon="1.96701">
        <ele>434.37921142578</ele>
        <time>2020-06-23T20:23:56.714Z</time>
      </trkpt>
      <trkpt lat="45.19845" lon="1.96681">
        <ele>436.45581054688</ele>
        <time>2020-06-23T20:24:02.803Z</time>
      </trkpt>
      <trkpt lat="45.19867" lon="1.9661">
        <ele>445.27795410156</ele>
        <time>2020-06-23T20:24:08.900Z</time>
      </trkpt>
      <trkpt lat="45.19882" lon="1.96588">
        <ele>447.06265258789</ele>
        <time>2020-06-23T20:24:15.001Z</time>
      </trkpt>
      <trkpt lat="45.19909" lon="1.96569">
        <ele>447.18283081055</ele>
        <time>2020-06-23T20:24:21.107Z</time>
      </trkpt>
      <trkpt lat="45.1991" lon="1.96569">
        <ele>447.18771362305</ele>
        <time>2020-06-23T20:24:27.213Z</time>
      </trkpt>
      <trkpt lat="45.1991" lon="1.96569">
        <ele>447.18954467773</ele>
        <time>2020-06-23T20:24:33.319Z</time>
      </trkpt>
      <trkpt lat="45.1991" lon="1.96569">
        <ele>447.18902587891</ele>
        <time>2020-06-23T20:24:39.425Z</time>
      </trkpt>
      <trkpt lat="45.19925" lon="1.96559">
        <ele>447.38623046875</ele>
        <time>2020-06-23T20:24:45.534Z</time>
      </trkpt>
      <trkpt lat="45.1995" lon="1.96528">
        <ele>449.27853393555</ele>
        <time>2020-06-23T20:24:51.648Z</time>
      </trkpt>
      <trkpt lat="45.19962" lon="1.96493">
        <ele>452.64584350586</ele>
        <time>2020-06-23T20:24:57.766Z</time>
      </trkpt>
      <trkpt lat="45.19959" lon="1.96421">
        <ele>453.34185791016</ele>
        <time>2020-06-23T20:25:03.892Z</time>
      </trkpt>
      <trkpt lat="45.1997" lon="1.96374">
        <ele>456.83779907227</ele>
        <time>2020-06-23T20:25:10.024Z</time>
      </trkpt>
      <trkpt lat="45.19996" lon="1.96344">
        <ele>459.79849243164</ele>
        <time>2020-06-23T20:25:16.162Z</time>
      </trkpt>
      <trkpt lat="45.20055" lon="1.96309">
        <ele>464.74694824219</ele>
        <time>2020-06-23T20:25:22.310Z</time>
      </trkpt>
      <trkpt lat="45.20072" lon="1.96321">
        <ele>465.36480712891</ele>
        <time>2020-06-23T20:25:28.461Z</time>
      </trkpt>
      <trkpt lat="45.20096" lon="1.96361">
        <ele>461.27639770508</ele>
        <time>2020-06-23T20:25:34.618Z</time>
      </trkpt>
      <trkpt lat="45.20123" lon="1.96376">
        <ele>462.25469970703</ele>
        <time>2020-06-23T20:25:40.779Z</time>
      </trkpt>
      <trkpt lat="45.20171" lon="1.96383">
        <ele>461.28079223633</ele>
        <time>2020-06-23T20:25:46.948Z</time>
      </trkpt>
      <trkpt lat="45.20237" lon="1.96348">
        <ele>465.84869384766</ele>
        <time>2020-06-23T20:25:53.128Z</time>
      </trkpt>
      <trkpt lat="45.20269" lon="1.9632">
        <ele>463.61392211914</ele>
        <time>2020-06-23T20:25:59.314Z</time>
      </trkpt>
      <trkpt lat="45.2031" lon="1.96181">
        <ele>468.89437866211</ele>
        <time>2020-06-23T20:26:05.517Z</time>
      </trkpt>
      <trkpt lat="45.20334" lon="1.96135">
        <ele>470.98803710938</ele>
        <time>2020-06-23T20:26:11.727Z</time>
      </trkpt>
      <trkpt lat="45.20359" lon="1.9612">
        <ele>471.43109130859</ele>
        <time>2020-06-23T20:26:17.941Z</time>
      </trkpt>
      <trkpt lat="45.20398" lon="1.96124">
        <ele>470.2405090332</ele>
        <time>2020-06-23T20:26:24.161Z</time>
      </trkpt>
      <trkpt lat="45.2047" lon="1.96111">
        <ele>475.21615600586</ele>
        <time>2020-06-23T20:26:30.393Z</time>
      </trkpt>
      <trkpt lat="45.20487" lon="1.9612">
        <ele>475.62875366211</ele>
        <time>2020-06-23T20:26:36.628Z</time>
      </trkpt>
      <trkpt lat="45.20487" lon="1.9612">
        <ele>475.62805175781</ele>
        <time>2020-06-23T20:26:42.863Z</time>
      </trkpt>
      <trkpt lat="45.20492" lon="1.96136">
        <ele>474.1484375</ele>
        <time>2020-06-23T20:26:49.100Z</time>
      </trkpt>
      <trkpt lat="45.20492" lon="1.96136">
        <ele>474.1477355957</ele>
        <time>2020-06-23T20:26:55.337Z</time>
      </trkpt>
      <trkpt lat="45.20495" lon="1.96184">
        <ele>472.13317871094</ele>
        <time>2020-06-23T20:27:01.579Z</time>
      </trkpt>
      <trkpt lat="45.20481" lon="1.96286">
        <ele>473.0158996582</ele>
        <time>2020-06-23T20:27:07.833Z</time>
      </trkpt>
      <trkpt lat="45.20495" lon="1.96337">
        <ele>475.89151000977</ele>
        <time>2020-06-23T20:27:14.093Z</time>
      </trkpt>
      <trkpt lat="45.20496" lon="1.96359">
        <ele>476.4040222168</ele>
        <time>2020-06-23T20:27:20.356Z</time>
      </trkpt>
      <trkpt lat="45.20486" lon="1.96397">
        <ele>473.37899780273</ele>
        <time>2020-06-23T20:27:26.623Z</time>
      </trkpt>
      <trkpt lat="45.20497" lon="1.96561">
        <ele>466.2001953125</ele>
        <time>2020-06-23T20:27:32.909Z</time>
      </trkpt>
      <trkpt lat="45.20497" lon="1.96561">
        <ele>466.19979858398</ele>
        <time>2020-06-23T20:27:39.195Z</time>
      </trkpt>
      <trkpt lat="45.20531" lon="1.96615">
        <ele>466.82659912109</ele>
        <time>2020-06-23T20:27:45.489Z</time>
      </trkpt>
      <trkpt lat="45.20553" lon="1.96629">
        <ele>466.76898193359</ele>
        <time>2020-06-23T20:27:51.787Z</time>
      </trkpt>
      <trkpt lat="45.20581" lon="1.96635">
        <ele>464.68365478516</ele>
        <time>2020-06-23T20:27:58.090Z</time>
      </trkpt>
      <trkpt lat="45.20929" lon="1.96628">
        <ele>474.23736572266</ele>
        <time>2020-06-23T20:28:04.448Z</time>
      </trkpt>
      <trkpt lat="45.20929" lon="1.96628">
        <ele>474.23690795898</ele>
        <time>2020-06-23T20:28:10.806Z</time>
      </trkpt>
      <trkpt lat="45.2093" lon="1.96628">
        <ele>474.23638916016</ele>
        <time>2020-06-23T20:28:17.164Z</time>
      </trkpt>
      <trkpt lat="45.2093" lon="1.96628">
        <ele>474.23638916016</ele>
        <time>2020-06-23T20:28:23.522Z</time>
      </trkpt>
      <trkpt lat="45.20984" lon="1.96627">
        <ele>477.29504394531</ele>
        <time>2020-06-23T20:28:29.889Z</time>
      </trkpt>
      <trkpt lat="45.21051" lon="1.96644">
        <ele>482.03668212891</ele>
        <time>2020-06-23T20:28:36.267Z</time>
      </trkpt>
      <trkpt lat="45.21123" lon="1.96675">
        <ele>485.66217041016</ele>
        <time>2020-06-23T20:28:42.657Z</time>
      </trkpt>
      <trkpt lat="45.2118" lon="1.96726">
        <ele>485.38522338867</ele>
        <time>2020-06-23T20:28:49.058Z</time>
      </trkpt>
      <trkpt lat="45.21199" lon="1.96751">
        <ele>485.15362548828</ele>
        <time>2020-06-23T20:28:55.463Z</time>
      </trkpt>
      <trkpt lat="45.21252" lon="1.96781">
        <ele>485.95318603516</ele>
        <time>2020-06-23T20:29:01.877Z</time>
      </trkpt>
      <trkpt lat="45.21407" lon="1.96848">
        <ele>494.62875366211</ele>
        <time>2020-06-23T20:29:08.317Z</time>
      </trkpt>
      <trkpt lat="45.21434" lon="1.96873">
        <ele>496.81707763672</ele>
        <time>2020-06-23T20:29:14.762Z</time>
      </trkpt>
      <trkpt lat="45.21485" lon="1.96949">
        <ele>492.62145996094</ele>
        <time>2020-06-23T20:29:21.219Z</time>
      </trkpt>
      <trkpt lat="45.21581" lon="1.96997">
        <ele>488.80999755859</ele>
        <time>2020-06-23T20:29:27.692Z</time>
      </trkpt>
      <trkpt lat="45.21589" lon="1.96996">
        <ele>488.81732177734</ele>
        <time>2020-06-23T20:29:34.167Z</time>
      </trkpt>
      <trkpt lat="45.2159" lon="1.96996">
        <ele>488.8176574707</ele>
        <time>2020-06-23T20:29:40.642Z</time>
      </trkpt>
      <trkpt lat="45.2159" lon="1.96996">
        <ele>488.81784057617</ele>
        <time>2020-06-23T20:29:47.117Z</time>
      </trkpt>
      <trkpt lat="45.2159" lon="1.96996">
        <ele>488.81784057617</ele>
        <time>2020-06-23T20:29:53.592Z</time>
      </trkpt>
      <trkpt lat="45.21664" lon="1.96994">
        <ele>488.08432006836</ele>
        <time>2020-06-23T20:30:00.079Z</time>
      </trkpt>
      <trkpt lat="45.21664" lon="1.96994">
        <ele>488.08450317383</ele>
        <time>2020-06-23T20:30:06.566Z</time>
      </trkpt>
      <trkpt lat="45.21723" lon="1.97005">
        <ele>486.28295898438</ele>
        <time>2020-06-23T20:30:13.062Z</time>
      </trkpt>
      <trkpt lat="45.21817" lon="1.97098">
        <ele>479.23904418945</ele>
        <time>2020-06-23T20:30:19.577Z</time>
      </trkpt>
      <trkpt lat="45.21856" lon="1.9712">
        <ele>475.11810302734</ele>
        <time>2020-06-23T20:30:26.098Z</time>
      </trkpt>
      <trkpt lat="45.21985" lon="1.97073">
        <ele>469.29174804688</ele>
        <time>2020-06-23T20:30:32.641Z</time>
      </trkpt>
      <trkpt lat="45.22023" lon="1.97199">
        <ele>467.9296875</ele>
        <time>2020-06-23T20:30:39.199Z</time>
      </trkpt>
      <trkpt lat="45.22026" lon="1.97236">
        <ele>466.78134155273</ele>
        <time>2020-06-23T20:30:45.761Z</time>
      </trkpt>
      <trkpt lat="45.22019" lon="1.9734">
        <ele>461.2522277832</ele>
        <time>2020-06-23T20:30:52.335Z</time>
      </trkpt>
      <trkpt lat="45.22045" lon="1.97391">
        <ele>460.63433837891</ele>
        <time>2020-06-23T20:30:58.916Z</time>
      </trkpt>
      <trkpt lat="45.22032" lon="1.97416">
        <ele>457.91595458984</ele>
        <time>2020-06-23T20:31:05.501Z</time>
      </trkpt>
      <trkpt lat="45.22003" lon="1.97448">
        <ele>455.44442749023</ele>
        <time>2020-06-23T20:31:12.092Z</time>
      </trkpt>
      <trkpt lat="45.21995" lon="1.9747">
        <ele>456.35809326172</ele>
        <time>2020-06-23T20:31:18.685Z</time>
      </trkpt>
      <trkpt lat="45.21995" lon="1.97511">
        <ele>459.81890869141</ele>
        <time>2020-06-23T20:31:25.283Z</time>
      </trkpt>
      <trkpt lat="45.22003" lon="1.97531">
        <ele>462.22604370117</ele>
        <time>2020-06-23T20:31:31.884Z</time>
      </trkpt>
      <trkpt lat="45.22023" lon="1.97551">
        <ele>464.91638183594</ele>
        <time>2020-06-23T20:31:38.489Z</time>
      </trkpt>
      <trkpt lat="45.22085" lon="1.97577">
        <ele>468.98538208008</ele>
        <time>2020-06-23T20:31:45.104Z</time>
      </trkpt>
      <trkpt lat="45.221" lon="1.97614">
        <ele>469.79635620117</ele>
        <time>2020-06-23T20:31:51.724Z</time>
      </trkpt>
      <trkpt lat="45.221" lon="1.97622">
        <ele>469.88510131836</ele>
        <time>2020-06-23T20:31:58.345Z</time>
      </trkpt>
      <trkpt lat="45.221" lon="1.97622">
        <ele>469.89208984375</ele>
        <time>2020-06-23T20:32:04.966Z</time>
      </trkpt>
      <trkpt lat="45.221" lon="1.97622">
        <ele>469.89178466797</ele>
        <time>2020-06-23T20:32:11.587Z</time>
      </trkpt>
      <trkpt lat="45.221" lon="1.97637">
        <ele>470.42248535156</ele>
        <time>2020-06-23T20:32:18.209Z</time>
      </trkpt>
      <trkpt lat="45.22093" lon="1.97664">
        <ele>472.14175415039</ele>
        <time>2020-06-23T20:32:24.835Z</time>
      </trkpt>
      <trkpt lat="45.22021" lon="1.97774">
        <ele>476.56597900391</ele>
        <time>2020-06-23T20:32:31.478Z</time>
      </trkpt>
      <trkpt lat="45.22013" lon="1.97805">
        <ele>478.00250244141</ele>
        <time>2020-06-23T20:32:38.124Z</time>
      </trkpt>
      <trkpt lat="45.22019" lon="1.97848">
        <ele>478.92999267578</ele>
        <time>2020-06-23T20:32:44.775Z</time>
      </trkpt>
      <trkpt lat="45.22027" lon="1.97872">
        <ele>479.70236206055</ele>
        <time>2020-06-23T20:32:51.429Z</time>
      </trkpt>
      <trkpt lat="45.2204" lon="1.97884">
        <ele>480.29449462891</ele>
        <time>2020-06-23T20:32:58.086Z</time>
      </trkpt>
      <trkpt lat="45.22106" lon="1.97915">
        <ele>488.23602294922</ele>
        <time>2020-06-23T20:33:04.754Z</time>
      </trkpt>
      <trkpt lat="45.22134" lon="1.97913">
        <ele>491.53140258789</ele>
        <time>2020-06-23T20:33:11.426Z</time>
      </trkpt>
      <trkpt lat="45.22198" lon="1.97861">
        <ele>497.0373840332</ele>
        <time>2020-06-23T20:33:18.110Z</time>
      </trkpt>
      <trkpt lat="45.222" lon="1.97842">
        <ele>495.72439575195</ele>
        <time>2020-06-23T20:33:24.796Z</time>
      </trkpt>
      <trkpt lat="45.2227" lon="1.97767">
        <ele>494.68389892578</ele>
        <time>2020-06-23T20:33:31.496Z</time>
      </trkpt>
      <trkpt lat="45.22305" lon="1.97697">
        <ele>489.04168701172</ele>
        <time>2020-06-23T20:33:38.206Z</time>
      </trkpt>
      <trkpt lat="45.22353" lon="1.97633">
        <ele>483.26422119141</ele>
        <time>2020-06-23T20:33:44.926Z</time>
      </trkpt>
      <trkpt lat="45.22353" lon="1.97633">
        <ele>483.23861694336</ele>
        <time>2020-06-23T20:33:51.647Z</time>
      </trkpt>
      <trkpt lat="45.22353" lon="1.97633">
        <ele>483.23672485352</ele>
        <time>2020-06-23T20:33:58.368Z</time>
      </trkpt>
      <trkpt lat="45.2238" lon="1.97595">
        <ele>479.12075805664</ele>
        <time>2020-06-23T20:34:05.095Z</time>
      </trkpt>
      <trkpt lat="45.22379" lon="1.97573">
        <ele>476.75814819336</ele>
        <time>2020-06-23T20:34:11.824Z</time>
      </trkpt>
      <trkpt lat="45.22339" lon="1.97505">
        <ele>469.83596801758</ele>
        <time>2020-06-23T20:34:18.563Z</time>
      </trkpt>
      <trkpt lat="45.22341" lon="1.97372">
        <ele>462.01876831055</ele>
        <time>2020-06-23T20:34:25.317Z</time>
      </trkpt>
      <trkpt lat="45.22395" lon="1.972">
        <ele>455</ele>
        <time>2020-06-23T20:34:32.093Z</time>
      </trkpt>
      <trkpt lat="45.22511" lon="1.97034">
        <ele>462.66491699219</ele>
        <time>2020-06-23T20:34:38.895Z</time>
      </trkpt>
      <trkpt lat="45.22534" lon="1.97019">
        <ele>463.38577270508</ele>
        <time>2020-06-23T20:34:45.701Z</time>
      </trkpt>
      <trkpt lat="45.22595" lon="1.97014">
        <ele>461.8955078125</ele>
        <time>2020-06-23T20:34:52.517Z</time>
      </trkpt>
      <trkpt lat="45.22624" lon="1.96993">
        <ele>460.26071166992</ele>
        <time>2020-06-23T20:34:59.338Z</time>
      </trkpt>
      <trkpt lat="45.22675" lon="1.9692">
        <ele>463.16693115234</ele>
        <time>2020-06-23T20:35:06.171Z</time>
      </trkpt>
      <trkpt lat="45.22675" lon="1.9692">
        <ele>463.16650390625</ele>
        <time>2020-06-23T20:35:13.004Z</time>
      </trkpt>
      <trkpt lat="45.22761" lon="1.96855">
        <ele>466.60940551758</ele>
        <time>2020-06-23T20:35:19.852Z</time>
      </trkpt>
      <trkpt lat="45.22782" lon="1.96826">
        <ele>465.4508972168</ele>
        <time>2020-06-23T20:35:26.705Z</time>
      </trkpt>
      <trkpt lat="45.22804" lon="1.96774">
        <ele>468.12542724609</ele>
        <time>2020-06-23T20:35:33.565Z</time>
      </trkpt>
      <trkpt lat="45.22827" lon="1.96752">
        <ele>469.37844848633</ele>
        <time>2020-06-23T20:35:40.429Z</time>
      </trkpt>
      <trkpt lat="45.22827" lon="1.96751">
        <ele>469.36492919922</ele>
        <time>2020-06-23T20:35:47.293Z</time>
      </trkpt>
      <trkpt lat="45.22827" lon="1.96751">
        <ele>469.3645324707</ele>
        <time>2020-06-23T20:35:54.157Z</time>
      </trkpt>
      <trkpt lat="45.22837" lon="1.96741">
        <ele>468.99752807617</ele>
        <time>2020-06-23T20:36:01.023Z</time>
      </trkpt>
      <trkpt lat="45.2286" lon="1.9673">
        <ele>469.61541748047</ele>
        <time>2020-06-23T20:36:07.893Z</time>
      </trkpt>
      <trkpt lat="45.22915" lon="1.96789">
        <ele>469.86724853516</ele>
        <time>2020-06-23T20:36:14.774Z</time>
      </trkpt>
      <trkpt lat="45.22948" lon="1.96797">
        <ele>471.63278198242</ele>
        <time>2020-06-23T20:36:21.660Z</time>
      </trkpt>
      <trkpt lat="45.22969" lon="1.96784">
        <ele>474.00198364258</ele>
        <time>2020-06-23T20:36:28.550Z</time>
      </trkpt>
      <trkpt lat="45.23036" lon="1.96715">
        <ele>483.91250610352</ele>
        <time>2020-06-23T20:36:35.453Z</time>
      </trkpt>
      <trkpt lat="45.23061" lon="1.96713">
        <ele>488.41674804688</ele>
        <time>2020-06-23T20:36:42.360Z</time>
      </trkpt>
      <trkpt lat="45.23089" lon="1.96733">
        <ele>495.47085571289</ele>
        <time>2020-06-23T20:36:49.272Z</time>
      </trkpt>
      <trkpt lat="45.23104" lon="1.96729">
        <ele>498.77905273438</ele>
        <time>2020-06-23T20:36:56.187Z</time>
      </trkpt>
      <trkpt lat="45.23123" lon="1.96711">
        <ele>501.37524414062</ele>
        <time>2020-06-23T20:37:03.105Z</time>
      </trkpt>
      <trkpt lat="45.23172" lon="1.96567">
        <ele>497.37484741211</ele>
        <time>2020-06-23T20:37:10.041Z</time>
      </trkpt>
      <trkpt lat="45.23182" lon="1.96556">
        <ele>497.7610168457</ele>
        <time>2020-06-23T20:37:16.980Z</time>
      </trkpt>
      <trkpt lat="45.23197" lon="1.96552">
        <ele>498.74514770508</ele>
        <time>2020-06-23T20:37:23.921Z</time>
      </trkpt>
      <trkpt lat="45.23249" lon="1.96574">
        <ele>502.7405090332</ele>
        <time>2020-06-23T20:37:30.871Z</time>
      </trkpt>
      <trkpt lat="45.23293" lon="1.96619">
        <ele>505.42587280273</ele>
        <time>2020-06-23T20:37:37.829Z</time>
      </trkpt>
      <trkpt lat="45.23332" lon="1.96603">
        <ele>503.59762573242</ele>
        <time>2020-06-23T20:37:44.794Z</time>
      </trkpt>
      <trkpt lat="45.23361" lon="1.96589">
        <ele>505.97900390625</ele>
        <time>2020-06-23T20:37:51.764Z</time>
      </trkpt>
      <trkpt lat="45.23467" lon="1.96545">
        <ele>505.47570800781</ele>
        <time>2020-06-23T20:37:58.751Z</time>
      </trkpt>
      <trkpt lat="45.23603" lon="1.96538">
        <ele>520.60858154297</ele>
        <time>2020-06-23T20:38:05.760Z</time>
      </trkpt>
      <trkpt lat="45.23654" lon="1.96538">
        <ele>522.13256835938</ele>
        <time>2020-06-23T20:38:12.777Z</time>
      </trkpt>
      <trkpt lat="45.23744" lon="1.96566">
        <ele>531.37310791016</ele>
        <time>2020-06-23T20:38:19.809Z</time>
      </trkpt>
      <trkpt lat="45.23771" lon="1.96582">
        <ele>535.62097167969</ele>
        <time>2020-06-23T20:38:26.846Z</time>
      </trkpt>
      <trkpt lat="45.23772" lon="1.96583">
        <ele>535.685546875</ele>
        <time>2020-06-23T20:38:33.883Z</time>
      </trkpt>
      <trkpt lat="45.23772" lon="1.96583">
        <ele>535.68640136719</ele>
        <time>2020-06-23T20:38:40.920Z</time>
      </trkpt>
      <trkpt lat="45.23794" lon="1.96596">
        <ele>538.92425537109</ele>
        <time>2020-06-23T20:38:47.961Z</time>
      </trkpt>
      <trkpt lat="45.23929" lon="1.96709">
        <ele>545.47692871094</ele>
        <time>2020-06-23T20:38:55.027Z</time>
      </trkpt>
      <trkpt lat="45.23968" lon="1.96631">
        <ele>551.54809570312</ele>
        <time>2020-06-23T20:39:02.104Z</time>
      </trkpt>
      <trkpt lat="45.23968" lon="1.9663">
        <ele>551.54534912109</ele>
        <time>2020-06-23T20:39:09.181Z</time>
      </trkpt>
      <trkpt lat="45.23968" lon="1.9663">
        <ele>551.54553222656</ele>
        <time>2020-06-23T20:39:16.258Z</time>
      </trkpt>
      <trkpt lat="45.24022" lon="1.96523">
        <ele>549.74993896484</ele>
        <time>2020-06-23T20:39:23.350Z</time>
      </trkpt>
      <trkpt lat="45.24022" lon="1.96523">
        <ele>549.75042724609</ele>
        <time>2020-06-23T20:39:30.442Z</time>
      </trkpt>
      <trkpt lat="45.24053" lon="1.96471">
        <ele>545.94720458984</ele>
        <time>2020-06-23T20:39:37.541Z</time>
      </trkpt>
      <trkpt lat="45.24117" lon="1.96447">
        <ele>546.92163085938</ele>
        <time>2020-06-23T20:39:44.651Z</time>
      </trkpt>
      <trkpt lat="45.24177" lon="1.96371">
        <ele>539.75024414062</ele>
        <time>2020-06-23T20:39:51.774Z</time>
      </trkpt>
      <trkpt lat="45.24206" lon="1.96358">
        <ele>537.97381591797</ele>
        <time>2020-06-23T20:39:58.902Z</time>
      </trkpt>
      <trkpt lat="45.24215" lon="1.96346">
        <ele>536.80755615234</ele>
        <time>2020-06-23T20:40:06.032Z</time>
      </trkpt>
      <trkpt lat="45.24218" lon="1.96297">
        <ele>532.43341064453</ele>
        <time>2020-06-23T20:40:13.167Z</time>
      </trkpt>
      <trkpt lat="45.24206" lon="1.96229">
        <ele>526.38488769531</ele>
        <time>2020-06-23T20:40:20.310Z</time>
      </trkpt>
      <trkpt lat="45.24211" lon="1.96193">
        <ele>521.98248291016</ele>
        <time>2020-06-23T20:40:27.457Z</time>
      </trkpt>
      <trkpt lat="45.24229" lon="1.96131">
        <ele>517.92834472656</ele>
        <time>2020-06-23T20:40:34.612Z</time>
      </trkpt>
      <trkpt lat="45.24258" lon="1.96086">
        <ele>516.95159912109</ele>
        <time>2020-06-23T20:40:41.774Z</time>
      </trkpt>
      <trkpt lat="45.2427" lon="1.96045">
        <ele>517.15051269531</ele>
        <time>2020-06-23T20:40:48.941Z</time>
      </trkpt>
      <trkpt lat="45.24252" lon="1.95949">
        <ele>526.71759033203</ele>
        <time>2020-06-23T20:40:56.119Z</time>
      </trkpt>
      <trkpt lat="45.24256" lon="1.95901">
        <ele>531.20629882812</ele>
        <time>2020-06-23T20:41:03.302Z</time>
      </trkpt>
      <trkpt lat="45.24256" lon="1.95901">
        <ele>531.21356201172</ele>
        <time>2020-06-23T20:41:10.486Z</time>
      </trkpt>
      <trkpt lat="45.24256" lon="1.95901">
        <ele>531.21356201172</ele>
        <time>2020-06-23T20:41:17.670Z</time>
      </trkpt>
      <trkpt lat="45.24262" lon="1.95823">
        <ele>531.55053710938</ele>
        <time>2020-06-23T20:41:24.862Z</time>
      </trkpt>
      <trkpt lat="45.24274" lon="1.95777">
        <ele>530.99774169922</ele>
        <time>2020-06-23T20:41:32.060Z</time>
      </trkpt>
      <trkpt lat="45.24258" lon="1.95704">
        <ele>529.06701660156</ele>
        <time>2020-06-23T20:41:39.267Z</time>
      </trkpt>
      <trkpt lat="45.24243" lon="1.95633">
        <ele>527.79608154297</ele>
        <time>2020-06-23T20:41:46.482Z</time>
      </trkpt>
      <trkpt lat="45.24259" lon="1.95443">
        <ele>531.51361083984</ele>
        <time>2020-06-23T20:41:53.719Z</time>
      </trkpt>
      <trkpt lat="45.24353" lon="1.95311">
        <ele>532.22351074219</ele>
        <time>2020-06-23T20:42:00.977Z</time>
      </trkpt>
      <trkpt lat="45.24392" lon="1.95214">
        <ele>537.16302490234</ele>
        <time>2020-06-23T20:42:08.247Z</time>
      </trkpt>
      <trkpt lat="45.24488" lon="1.95121">
        <ele>541.23547363281</ele>
        <time>2020-06-23T20:42:15.536Z</time>
      </trkpt>
      <trkpt lat="45.24565" lon="1.95008">
        <ele>547.33044433594</ele>
        <time>2020-06-23T20:42:22.843Z</time>
      </trkpt>
      <trkpt lat="45.2463" lon="1.94856">
        <ele>544.86553955078</ele>
        <time>2020-06-23T20:42:30.170Z</time>
      </trkpt>
      <trkpt lat="45.2464" lon="1.94824">
        <ele>544.6552734375</ele>
        <time>2020-06-23T20:42:37.501Z</time>
      </trkpt>
      <trkpt lat="45.24639" lon="1.94801">
        <ele>545.67224121094</ele>
        <time>2020-06-23T20:42:44.834Z</time>
      </trkpt>
      <trkpt lat="45.24653" lon="1.94779">
        <ele>547.59020996094</ele>
        <time>2020-06-23T20:42:52.171Z</time>
      </trkpt>
      <trkpt lat="45.2475" lon="1.94741">
        <ele>554.28735351562</ele>
        <time>2020-06-23T20:42:59.524Z</time>
      </trkpt>
      <trkpt lat="45.24788" lon="1.94707">
        <ele>556.47277832031</ele>
        <time>2020-06-23T20:43:06.884Z</time>
      </trkpt>
      <trkpt lat="45.24791" lon="1.94701">
        <ele>556.20074462891</ele>
        <time>2020-06-23T20:43:14.245Z</time>
      </trkpt>
      <trkpt lat="45.24792" lon="1.947">
        <ele>556.17608642578</ele>
        <time>2020-06-23T20:43:21.606Z</time>
      </trkpt>
      <trkpt lat="45.24792" lon="1.947">
        <ele>556.17663574219</ele>
        <time>2020-06-23T20:43:28.967Z</time>
      </trkpt>
      <trkpt lat="45.24817" lon="1.9465">
        <ele>554.91125488281</ele>
        <time>2020-06-23T20:43:36.335Z</time>
      </trkpt>
      <trkpt lat="45.24822" lon="1.94633">
        <ele>554.70532226562</ele>
        <time>2020-06-23T20:43:43.705Z</time>
      </trkpt>
      <trkpt lat="45.24821" lon="1.94595">
        <ele>554.20574951172</ele>
        <time>2020-06-23T20:43:51.079Z</time>
      </trkpt>
      <trkpt lat="45.24814" lon="1.94561">
        <ele>553.78631591797</ele>
        <time>2020-06-23T20:43:58.457Z</time>
      </trkpt>
      <trkpt lat="45.24785" lon="1.94486">
        <ele>554.61114501953</ele>
        <time>2020-06-23T20:44:05.845Z</time>
      </trkpt>
      <trkpt lat="45.24787" lon="1.94423">
        <ele>555.14208984375</ele>
        <time>2020-06-23T20:44:13.240Z</time>
      </trkpt>
      <trkpt lat="45.24754" lon="1.94399">
        <ele>556.82385253906</ele>
        <time>2020-06-23T20:44:20.641Z</time>
      </trkpt>
      <trkpt lat="45.24728" lon="1.94382">
        <ele>558.36883544922</ele>
        <time>2020-06-23T20:44:28.047Z</time>
      </trkpt>
      <trkpt lat="45.24734" lon="1.94351">
        <ele>559.25708007812</ele>
        <time>2020-06-23T20:44:35.456Z</time>
      </trkpt>
      <trkpt lat="45.24753" lon="1.94035">
        <ele>559.51995849609</ele>
        <time>2020-06-23T20:44:42.901Z</time>
      </trkpt>
      <trkpt lat="45.24794" lon="1.93891">
        <ele>558.64916992188</ele>
        <time>2020-06-23T20:44:50.364Z</time>
      </trkpt>
      <trkpt lat="45.24837" lon="1.93619">
        <ele>557.10711669922</ele>
        <time>2020-06-23T20:44:57.858Z</time>
      </trkpt>
      <trkpt lat="45.24837" lon="1.93619">
        <ele>557.10479736328</ele>
        <time>2020-06-23T20:45:05.352Z</time>
      </trkpt>
      <trkpt lat="45.24837" lon="1.93619">
        <ele>557.10400390625</ele>
        <time>2020-06-23T20:45:12.846Z</time>
      </trkpt>
      <trkpt lat="45.24841" lon="1.93597">
        <ele>557</ele>
        <time>2020-06-23T20:45:20.343Z</time>
      </trkpt>
      <trkpt lat="45.24871" lon="1.93512">
        <ele>558.92700195312</ele>
        <time>2020-06-23T20:45:27.851Z</time>
      </trkpt>
      <trkpt lat="45.24883" lon="1.93241">
        <ele>561.14147949219</ele>
        <time>2020-06-23T20:45:35.389Z</time>
      </trkpt>
      <trkpt lat="45.24896" lon="1.93161">
        <ele>562.72314453125</ele>
        <time>2020-06-23T20:45:42.937Z</time>
      </trkpt>
      <trkpt lat="45.25191" lon="1.92584">
        <ele>553.35327148438</ele>
        <time>2020-06-23T20:45:50.565Z</time>
      </trkpt>
      <trkpt lat="45.25191" lon="1.92584">
        <ele>553.35357666016</ele>
        <time>2020-06-23T20:45:58.193Z</time>
      </trkpt>
      <trkpt lat="45.25351" lon="1.92268">
        <ele>558.97674560547</ele>
        <time>2020-06-23T20:46:05.865Z</time>
      </trkpt>
      <trkpt lat="45.254" lon="1.92147">
        <ele>557.27532958984</ele>
        <time>2020-06-23T20:46:13.553Z</time>
      </trkpt>
      <trkpt lat="45.2547" lon="1.9196">
        <ele>555.18841552734</ele>
        <time>2020-06-23T20:46:21.265Z</time>
      </trkpt>
      <trkpt lat="45.25534" lon="1.9183">
        <ele>553.62866210938</ele>
        <time>2020-06-23T20:46:28.995Z</time>
      </trkpt>
      <trkpt lat="45.25534" lon="1.9183">
        <ele>553.63897705078</ele>
        <time>2020-06-23T20:46:36.725Z</time>
      </trkpt>
      <trkpt lat="45.25534" lon="1.91829">
        <ele>553.63928222656</ele>
        <time>2020-06-23T20:46:44.455Z</time>
      </trkpt>
      <trkpt lat="45.25543" lon="1.9181">
        <ele>553.86785888672</ele>
        <time>2020-06-23T20:46:52.187Z</time>
      </trkpt>
      <trkpt lat="45.25726" lon="1.91499">
        <ele>553.59851074219</ele>
        <time>2020-06-23T20:46:59.965Z</time>
      </trkpt>
      <trkpt lat="45.25741" lon="1.91485">
        <ele>552.27667236328</ele>
        <time>2020-06-23T20:47:07.746Z</time>
      </trkpt>
      <trkpt lat="45.25772" lon="1.91473">
        <ele>548.81402587891</ele>
        <time>2020-06-23T20:47:15.532Z</time>
      </trkpt>
      <trkpt lat="45.25795" lon="1.91455">
        <ele>545.51867675781</ele>
        <time>2020-06-23T20:47:23.322Z</time>
      </trkpt>
      <trkpt lat="45.25801" lon="1.91441">
        <ele>543.83868408203</ele>
        <time>2020-06-23T20:47:31.114Z</time>
      </trkpt>
      <trkpt lat="45.25801" lon="1.91441">
        <ele>543.83758544922</ele>
        <time>2020-06-23T20:47:38.906Z</time>
      </trkpt>
      <trkpt lat="45.25805" lon="1.91429">
        <ele>542.42272949219</ele>
        <time>2020-06-23T20:47:46.700Z</time>
      </trkpt>
      <trkpt lat="45.25807" lon="1.91353">
        <ele>534.71844482422</ele>
        <time>2020-06-23T20:47:54.502Z</time>
      </trkpt>
      <trkpt lat="45.25914" lon="1.91157">
        <ele>542.15399169922</ele>
        <time>2020-06-23T20:48:02.332Z</time>
      </trkpt>
      <trkpt lat="45.26171" lon="1.90761">
        <ele>549.26477050781</ele>
        <time>2020-06-23T20:48:10.223Z</time>
      </trkpt>
      <trkpt lat="45.26219" lon="1.90651">
        <ele>547.65362548828</ele>
        <time>2020-06-23T20:48:18.129Z</time>
      </trkpt>
      <trkpt lat="45.26294" lon="1.90591">
        <ele>546.74060058594</ele>
        <time>2020-06-23T20:48:26.048Z</time>
      </trkpt>
      <trkpt lat="45.26336" lon="1.90535">
        <ele>549.86602783203</ele>
        <time>2020-06-23T20:48:33.977Z</time>
      </trkpt>
      <trkpt lat="45.26447" lon="1.90355">
        <ele>554.45056152344</ele>
        <time>2020-06-23T20:48:41.933Z</time>
      </trkpt>
      <trkpt lat="45.26487" lon="1.90251">
        <ele>558.52624511719</ele>
        <time>2020-06-23T20:48:49.902Z</time>
      </trkpt>
      <trkpt lat="45.2652" lon="1.90202">
        <ele>560.53125</ele>
        <time>2020-06-23T20:48:57.879Z</time>
      </trkpt>
      <trkpt lat="45.26528" lon="1.90169">
        <ele>560.55700683594</ele>
        <time>2020-06-23T20:49:05.860Z</time>
      </trkpt>
      <trkpt lat="45.26557" lon="1.90141">
        <ele>562.34503173828</ele>
        <time>2020-06-23T20:49:13.846Z</time>
      </trkpt>
      <trkpt lat="45.26604" lon="1.90066">
        <ele>566.50311279297</ele>
        <time>2020-06-23T20:49:21.844Z</time>
      </trkpt>
      <trkpt lat="45.26604" lon="1.90065">
        <ele>566.49957275391</ele>
        <time>2020-06-23T20:49:29.842Z</time>
      </trkpt>
      <trkpt lat="45.26604" lon="1.90065">
        <ele>566.49957275391</ele>
        <time>2020-06-23T20:49:37.840Z</time>
      </trkpt>
      <trkpt lat="45.26628" lon="1.90026">
        <ele>568.42010498047</ele>
        <time>2020-06-23T20:49:45.844Z</time>
      </trkpt>
      <trkpt lat="45.26684" lon="1.8992">
        <ele>565.52868652344</ele>
        <time>2020-06-23T20:49:53.862Z</time>
      </trkpt>
      <trkpt lat="45.26759" lon="1.8982">
        <ele>561.32696533203</ele>
        <time>2020-06-23T20:50:01.897Z</time>
      </trkpt>
      <trkpt lat="45.26784" lon="1.89705">
        <ele>557.73449707031</ele>
        <time>2020-06-23T20:50:09.946Z</time>
      </trkpt>
      <trkpt lat="45.26792" lon="1.89669">
        <ele>557.19396972656</ele>
        <time>2020-06-23T20:50:17.999Z</time>
      </trkpt>
      <trkpt lat="45.26935" lon="1.89417">
        <ele>550.50250244141</ele>
        <time>2020-06-23T20:50:26.088Z</time>
      </trkpt>
      <trkpt lat="45.26967" lon="1.8937">
        <ele>549.82952880859</ele>
        <time>2020-06-23T20:50:34.185Z</time>
      </trkpt>
      <trkpt lat="45.26999" lon="1.89353">
        <ele>547.85632324219</ele>
        <time>2020-06-23T20:50:42.287Z</time>
      </trkpt>
      <trkpt lat="45.2709" lon="1.89251">
        <ele>545.27917480469</ele>
        <time>2020-06-23T20:50:50.408Z</time>
      </trkpt>
      <trkpt lat="45.27108" lon="1.89177">
        <ele>548.67065429688</ele>
        <time>2020-06-23T20:50:58.538Z</time>
      </trkpt>
      <trkpt lat="45.27146" lon="1.89127">
        <ele>546.20135498047</ele>
        <time>2020-06-23T20:51:06.676Z</time>
      </trkpt>
      <trkpt lat="45.27159" lon="1.89072">
        <ele>547.47576904297</ele>
        <time>2020-06-23T20:51:14.821Z</time>
      </trkpt>
      <trkpt lat="45.27187" lon="1.89005">
        <ele>547.1796875</ele>
        <time>2020-06-23T20:51:22.974Z</time>
      </trkpt>
      <trkpt lat="45.27253" lon="1.88902">
        <ele>540.90600585938</ele>
        <time>2020-06-23T20:51:31.143Z</time>
      </trkpt>
      <trkpt lat="45.27256" lon="1.88843">
        <ele>538.37408447266</ele>
        <time>2020-06-23T20:51:39.319Z</time>
      </trkpt>
      <trkpt lat="45.27278" lon="1.888">
        <ele>534.97467041016</ele>
        <time>2020-06-23T20:51:47.501Z</time>
      </trkpt>
      <trkpt lat="45.2741" lon="1.88749">
        <ele>531.91339111328</ele>
        <time>2020-06-23T20:51:55.705Z</time>
      </trkpt>
      <trkpt lat="45.2741" lon="1.88749">
        <ele>531.91241455078</ele>
        <time>2020-06-23T20:52:03.909Z</time>
      </trkpt>
      <trkpt lat="45.27424" lon="1.88734">
        <ele>529.94610595703</ele>
        <time>2020-06-23T20:52:12.116Z</time>
      </trkpt>
      <trkpt lat="45.27463" lon="1.88548">
        <ele>524.27124023438</ele>
        <time>2020-06-23T20:52:20.345Z</time>
      </trkpt>
      <trkpt lat="45.27465" lon="1.88543">
        <ele>524.21124267578</ele>
        <time>2020-06-23T20:52:28.574Z</time>
      </trkpt>
      <trkpt lat="45.27466" lon="1.88543">
        <ele>524.20367431641</ele>
        <time>2020-06-23T20:52:36.803Z</time>
      </trkpt>
      <trkpt lat="45.27466" lon="1.88543">
        <ele>524.20324707031</ele>
        <time>2020-06-23T20:52:45.032Z</time>
      </trkpt>
      <trkpt lat="45.27491" lon="1.88504">
        <ele>524.19293212891</ele>
        <time>2020-06-23T20:52:53.267Z</time>
      </trkpt>
      <trkpt lat="45.27507" lon="1.88446">
        <ele>524.12060546875</ele>
        <time>2020-06-23T20:53:01.509Z</time>
      </trkpt>
      <trkpt lat="45.27539" lon="1.88399">
        <ele>525.7490234375</ele>
        <time>2020-06-23T20:53:09.759Z</time>
      </trkpt>
      <trkpt lat="45.27543" lon="1.88361">
        <ele>524.86706542969</ele>
        <time>2020-06-23T20:53:18.013Z</time>
      </trkpt>
      <trkpt lat="45.2754" lon="1.88325">
        <ele>523.97894287109</ele>
        <time>2020-06-23T20:53:26.271Z</time>
      </trkpt>
      <trkpt lat="45.27528" lon="1.88243">
        <ele>522.81793212891</ele>
        <time>2020-06-23T20:53:34.539Z</time>
      </trkpt>
      <trkpt lat="45.27537" lon="1.88185">
        <ele>523.54211425781</ele>
        <time>2020-06-23T20:53:42.813Z</time>
      </trkpt>
      <trkpt lat="45.27579" lon="1.88152">
        <ele>523.48193359375</ele>
        <time>2020-06-23T20:53:51.095Z</time>
      </trkpt>
      <trkpt lat="45.27579" lon="1.88152">
        <ele>523.49359130859</ele>
        <time>2020-06-23T20:53:59.377Z</time>
      </trkpt>
      <trkpt lat="45.27579" lon="1.88152">
        <ele>523.49389648438</ele>
        <time>2020-06-23T20:54:07.659Z</time>
      </trkpt>
      <trkpt lat="45.27581" lon="1.88151">
        <ele>523.52685546875</ele>
        <time>2020-06-23T20:54:15.941Z</time>
      </trkpt>
      <trkpt lat="45.27634" lon="1.88122">
        <ele>523.5595703125</ele>
        <time>2020-06-23T20:54:24.232Z</time>
      </trkpt>
      <trkpt lat="45.27688" lon="1.88104">
        <ele>519.87042236328</ele>
        <time>2020-06-23T20:54:32.532Z</time>
      </trkpt>
      <trkpt lat="45.2772" lon="1.88043">
        <ele>515.07196044922</ele>
        <time>2020-06-23T20:54:40.841Z</time>
      </trkpt>
      <trkpt lat="45.27739" lon="1.88026">
        <ele>515.68988037109</ele>
        <time>2020-06-23T20:54:49.154Z</time>
      </trkpt>
      <trkpt lat="45.27795" lon="1.8805">
        <ele>516.17193603516</ele>
        <time>2020-06-23T20:54:57.476Z</time>
      </trkpt>
      <trkpt lat="45.27807" lon="1.88022">
        <ele>519.17388916016</ele>
        <time>2020-06-23T20:55:05.802Z</time>
      </trkpt>
      <trkpt lat="45.27807" lon="1.87995">
        <ele>521.49066162109</ele>
        <time>2020-06-23T20:55:14.131Z</time>
      </trkpt>
      <trkpt lat="45.27768" lon="1.87897">
        <ele>520.99822998047</ele>
        <time>2020-06-23T20:55:22.472Z</time>
      </trkpt>
      <trkpt lat="45.27764" lon="1.87821">
        <ele>518.46490478516</ele>
        <time>2020-06-23T20:55:30.822Z</time>
      </trkpt>
      <trkpt lat="45.27764" lon="1.87821">
        <ele>518.39953613281</ele>
        <time>2020-06-23T20:55:39.172Z</time>
      </trkpt>
      <trkpt lat="45.27764" lon="1.87821">
        <ele>518.40032958984</ele>
        <time>2020-06-23T20:55:47.522Z</time>
      </trkpt>
      <trkpt lat="45.27758" lon="1.87726">
        <ele>510.28024291992</ele>
        <time>2020-06-23T20:55:55.883Z</time>
      </trkpt>
      <trkpt lat="45.2775" lon="1.87696">
        <ele>507.39682006836</ele>
        <time>2020-06-23T20:56:04.247Z</time>
      </trkpt>
      <trkpt lat="45.27731" lon="1.8766">
        <ele>503.32781982422</ele>
        <time>2020-06-23T20:56:12.616Z</time>
      </trkpt>
      <trkpt lat="45.27697" lon="1.8753">
        <ele>493.43737792969</ele>
        <time>2020-06-23T20:56:21.001Z</time>
      </trkpt>
      <trkpt lat="45.27697" lon="1.87517">
        <ele>492.26599121094</ele>
        <time>2020-06-23T20:56:29.388Z</time>
      </trkpt>
      <trkpt lat="45.27717" lon="1.87486">
        <ele>491.00451660156</ele>
        <time>2020-06-23T20:56:37.779Z</time>
      </trkpt>
      <trkpt lat="45.27717" lon="1.87486">
        <ele>491.00399780273</ele>
        <time>2020-06-23T20:56:46.170Z</time>
      </trkpt>
      <trkpt lat="45.27706" lon="1.87448">
        <ele>487.82662963867</ele>
        <time>2020-06-23T20:56:54.566Z</time>
      </trkpt>
      <trkpt lat="45.27703" lon="1.87419">
        <ele>485.66384887695</ele>
        <time>2020-06-23T20:57:02.965Z</time>
      </trkpt>
      <trkpt lat="45.27686" lon="1.87368">
        <ele>484.60162353516</ele>
        <time>2020-06-23T20:57:11.371Z</time>
      </trkpt>
      <trkpt lat="45.27688" lon="1.87354">
        <ele>485.03887939453</ele>
        <time>2020-06-23T20:57:19.778Z</time>
      </trkpt>
      <trkpt lat="45.2773" lon="1.87291">
        <ele>487.98400878906</ele>
        <time>2020-06-23T20:57:28.195Z</time>
      </trkpt>
      <trkpt lat="45.2775" lon="1.8722">
        <ele>491.15002441406</ele>
        <time>2020-06-23T20:57:36.621Z</time>
      </trkpt>
      <trkpt lat="45.27768" lon="1.87192">
        <ele>493.58291625977</ele>
        <time>2020-06-23T20:57:45.051Z</time>
      </trkpt>
      <trkpt lat="45.27779" lon="1.87199">
        <ele>493.91760253906</ele>
        <time>2020-06-23T20:57:53.483Z</time>
      </trkpt>
      <trkpt lat="45.27794" lon="1.87196">
        <ele>494.97314453125</ele>
        <time>2020-06-23T20:58:01.917Z</time>
      </trkpt>
      <trkpt lat="45.27874" lon="1.87143">
        <ele>508.34262084961</ele>
        <time>2020-06-23T20:58:10.365Z</time>
      </trkpt>
      <trkpt lat="45.27947" lon="1.87131">
        <ele>514.30682373047</ele>
        <time>2020-06-23T20:58:18.825Z</time>
      </trkpt>
      <trkpt lat="45.27966" lon="1.87109">
        <ele>516.51800537109</ele>
        <time>2020-06-23T20:58:27.289Z</time>
      </trkpt>
      <trkpt lat="45.27967" lon="1.87108">
        <ele>516.50927734375</ele>
        <time>2020-06-23T20:58:35.753Z</time>
      </trkpt>
      <trkpt lat="45.28059" lon="1.87003">
        <ele>515.06506347656</ele>
        <time>2020-06-23T20:58:44.236Z</time>
      </trkpt>
      <trkpt lat="45.2814" lon="1.86954">
        <ele>515.63793945312</ele>
        <time>2020-06-23T20:58:52.733Z</time>
      </trkpt>
      <trkpt lat="45.28161" lon="1.8695">
        <ele>517.90350341797</ele>
        <time>2020-06-23T20:59:01.234Z</time>
      </trkpt>
      <trkpt lat="45.28224" lon="1.86958">
        <ele>522.39520263672</ele>
        <time>2020-06-23T20:59:09.745Z</time>
      </trkpt>
      <trkpt lat="45.28242" lon="1.86948">
        <ele>525.45880126953</ele>
        <time>2020-06-23T20:59:18.259Z</time>
      </trkpt>
      <trkpt lat="45.28261" lon="1.86927">
        <ele>528.67694091797</ele>
        <time>2020-06-23T20:59:26.777Z</time>
      </trkpt>
      <trkpt lat="45.28316" lon="1.86808">
        <ele>528.94091796875</ele>
        <time>2020-06-23T20:59:35.311Z</time>
      </trkpt>
      <trkpt lat="45.28399" lon="1.86681">
        <ele>531.16857910156</ele>
        <time>2020-06-23T20:59:43.864Z</time>
      </trkpt>
      <trkpt lat="45.28446" lon="1.86627">
        <ele>533.20739746094</ele>
        <time>2020-06-23T20:59:52.427Z</time>
      </trkpt>
      <trkpt lat="45.28462" lon="1.86612">
        <ele>532.70129394531</ele>
        <time>2020-06-23T21:00:00.993Z</time>
      </trkpt>
      <trkpt lat="45.28462" lon="1.86612">
        <ele>532.68463134766</ele>
        <time>2020-06-23T21:00:09.559Z</time>
      </trkpt>
      <trkpt lat="45.28462" lon="1.86612">
        <ele>532.68414306641</ele>
        <time>2020-06-23T21:00:18.125Z</time>
      </trkpt>
      <trkpt lat="45.28487" lon="1.86587">
        <ele>530.10900878906</ele>
        <time>2020-06-23T21:00:26.696Z</time>
      </trkpt>
      <trkpt lat="45.28665" lon="1.8652">
        <ele>525.93786621094</ele>
        <time>2020-06-23T21:00:35.296Z</time>
      </trkpt>
      <trkpt lat="45.28665" lon="1.86506">
        <ele>525.77062988281</ele>
        <time>2020-06-23T21:00:43.898Z</time>
      </trkpt>
      <trkpt lat="45.28684" lon="1.86496">
        <ele>525.43597412109</ele>
        <time>2020-06-23T21:00:52.503Z</time>
      </trkpt>
      <trkpt lat="45.28764" lon="1.86396">
        <ele>523.51940917969</ele>
        <time>2020-06-23T21:01:01.125Z</time>
      </trkpt>
      <trkpt lat="45.28794" lon="1.86382">
        <ele>520.65063476562</ele>
        <time>2020-06-23T21:01:09.752Z</time>
      </trkpt>
      <trkpt lat="45.28884" lon="1.86377">
        <ele>526.67309570312</ele>
        <time>2020-06-23T21:01:18.394Z</time>
      </trkpt>
      <trkpt lat="45.28886" lon="1.86375">
        <ele>526.76873779297</ele>
        <time>2020-06-23T21:01:27.036Z</time>
      </trkpt>
      <trkpt lat="45.28887" lon="1.86375">
        <ele>526.79193115234</ele>
        <time>2020-06-23T21:01:35.678Z</time>
      </trkpt>
      <trkpt lat="45.28887" lon="1.86375">
        <ele>526.79223632812</ele>
        <time>2020-06-23T21:01:44.320Z</time>
      </trkpt>
      <trkpt lat="45.28909" lon="1.86356">
        <ele>527.75433349609</ele>
        <time>2020-06-23T21:01:52.966Z</time>
      </trkpt>
      <trkpt lat="45.2892" lon="1.86327">
        <ele>526.61651611328</ele>
        <time>2020-06-23T21:02:01.616Z</time>
      </trkpt>
      <trkpt lat="45.28923" lon="1.86199">
        <ele>522.63732910156</ele>
        <time>2020-06-23T21:02:10.281Z</time>
      </trkpt>
      <trkpt lat="45.28976" lon="1.86009">
        <ele>519.44262695312</ele>
        <time>2020-06-23T21:02:18.969Z</time>
      </trkpt>
      <trkpt lat="45.28976" lon="1.86009">
        <ele>519.44250488281</ele>
        <time>2020-06-23T21:02:27.657Z</time>
      </trkpt>
      <trkpt lat="45.28995" lon="1.85958">
        <ele>515.84838867188</ele>
        <time>2020-06-23T21:02:36.351Z</time>
      </trkpt>
      <trkpt lat="45.29072" lon="1.85908">
        <ele>511.67016601562</ele>
        <time>2020-06-23T21:02:45.059Z</time>
      </trkpt>
      <trkpt lat="45.29167" lon="1.85773">
        <ele>508.9206237793</ele>
        <time>2020-06-23T21:02:53.788Z</time>
      </trkpt>
      <trkpt lat="45.29281" lon="1.85657">
        <ele>503.78234863281</ele>
        <time>2020-06-23T21:03:02.540Z</time>
      </trkpt>
      <trkpt lat="45.29305" lon="1.85639">
        <ele>503.7600402832</ele>
        <time>2020-06-23T21:03:11.296Z</time>
      </trkpt>
      <trkpt lat="45.29435" lon="1.85595">
        <ele>494.16647338867</ele>
        <time>2020-06-23T21:03:20.073Z</time>
      </trkpt>
      <trkpt lat="45.29472" lon="1.85571">
        <ele>486.76251220703</ele>
        <time>2020-06-23T21:03:28.857Z</time>
      </trkpt>
      <trkpt lat="45.29472" lon="1.85571">
        <ele>486.76123046875</ele>
        <time>2020-06-23T21:03:37.641Z</time>
      </trkpt>
      <trkpt lat="45.29512" lon="1.85545">
        <ele>483.46716308594</ele>
        <time>2020-06-23T21:03:46.432Z</time>
      </trkpt>
      <trkpt lat="45.29592" lon="1.85527">
        <ele>479.86978149414</ele>
        <time>2020-06-23T21:03:55.236Z</time>
      </trkpt>
      <trkpt lat="45.2966" lon="1.85482">
        <ele>478.8469543457</ele>
        <time>2020-06-23T21:04:04.052Z</time>
      </trkpt>
      <trkpt lat="45.29722" lon="1.85468">
        <ele>479.87957763672</ele>
        <time>2020-06-23T21:04:12.878Z</time>
      </trkpt>
      <trkpt lat="45.29774" lon="1.8544">
        <ele>483.67974853516</ele>
        <time>2020-06-23T21:04:21.713Z</time>
      </trkpt>
      <trkpt lat="45.29774" lon="1.85439">
        <ele>483.54183959961</ele>
        <time>2020-06-23T21:04:30.548Z</time>
      </trkpt>
      <trkpt lat="45.29774" lon="1.85439">
        <ele>483.5407409668</ele>
        <time>2020-06-23T21:04:39.383Z</time>
      </trkpt>
      <trkpt lat="45.29821" lon="1.85414">
        <ele>480.06735229492</ele>
        <time>2020-06-23T21:04:48.226Z</time>
      </trkpt>
      <trkpt lat="45.29878" lon="1.8531">
        <ele>467.62228393555</ele>
        <time>2020-06-23T21:04:57.084Z</time>
      </trkpt>
      <trkpt lat="45.30004" lon="1.8523">
        <ele>447.38735961914</ele>
        <time>2020-06-23T21:05:05.964Z</time>
      </trkpt>
      <trkpt lat="45.30026" lon="1.8523">
        <ele>445.58520507812</ele>
        <time>2020-06-23T21:05:14.848Z</time>
      </trkpt>
      <trkpt lat="45.30068" lon="1.85255">
        <ele>445.56274414062</ele>
        <time>2020-06-23T21:05:23.739Z</time>
      </trkpt>
      <trkpt lat="45.30088" lon="1.8531">
        <ele>447.80233764648</ele>
        <time>2020-06-23T21:05:32.637Z</time>
      </trkpt>
      <trkpt lat="45.30094" lon="1.85314">
        <ele>447.44189453125</ele>
        <time>2020-06-23T21:05:41.536Z</time>
      </trkpt>
      <trkpt lat="45.30101" lon="1.85309">
        <ele>446.15466308594</ele>
        <time>2020-06-23T21:05:50.436Z</time>
      </trkpt>
      <trkpt lat="45.30098" lon="1.85217">
        <ele>443.28244018555</ele>
        <time>2020-06-23T21:05:59.346Z</time>
      </trkpt>
      <trkpt lat="45.30074" lon="1.85178">
        <ele>440.55944824219</ele>
        <time>2020-06-23T21:06:08.262Z</time>
      </trkpt>
      <trkpt lat="45.30042" lon="1.8517">
        <ele>439.08883666992</ele>
        <time>2020-06-23T21:06:17.183Z</time>
      </trkpt>
      <trkpt lat="45.30042" lon="1.8517">
        <ele>439.03506469727</ele>
        <time>2020-06-23T21:06:26.105Z</time>
      </trkpt>
      <trkpt lat="45.30005" lon="1.85162">
        <ele>436.05557250977</ele>
        <time>2020-06-23T21:06:35.032Z</time>
      </trkpt>
      <trkpt lat="45.2997" lon="1.85169">
        <ele>435.59619140625</ele>
        <time>2020-06-23T21:06:43.965Z</time>
      </trkpt>
      <trkpt lat="45.29964" lon="1.85138">
        <ele>434.30307006836</ele>
        <time>2020-06-23T21:06:52.902Z</time>
      </trkpt>
      <trkpt lat="45.29929" lon="1.85146">
        <ele>432.76257324219</ele>
        <time>2020-06-23T21:07:01.844Z</time>
      </trkpt>
      <trkpt lat="45.29928" lon="1.85146">
        <ele>432.76623535156</ele>
        <time>2020-06-23T21:07:10.787Z</time>
      </trkpt>
      <trkpt lat="45.29928" lon="1.85146">
        <ele>432.76623535156</ele>
        <time>2020-06-23T21:07:19.730Z</time>
      </trkpt>
      <trkpt lat="45.29881" lon="1.85157">
        <ele>433.26614379883</ele>
        <time>2020-06-23T21:07:28.680Z</time>
      </trkpt>
      <trkpt lat="45.29882" lon="1.85132">
        <ele>432.4342956543</ele>
        <time>2020-06-23T21:07:37.633Z</time>
      </trkpt>
      <trkpt lat="45.29882" lon="1.85131">
        <ele>432.4033203125</ele>
        <time>2020-06-24T14:41:24.000Z</time>
      </trkpt>
      <trkpt lat="45.29882" lon="1.85131">
        <ele>432.4033203125</ele>
        <time>2020-06-24T14:41:24.000Z</time>
      </trkpt>
      <trkpt lat="45.29886" lon="1.85133">
        <ele>432.45129394531</ele>
        <time>2020-06-24T14:41:24.001Z</time>
      </trkpt>
      <trkpt lat="45.29889" lon="1.85132">
        <ele>432.42730712891</ele>
        <time>2020-06-24T14:41:24.002Z</time>
      </trkpt>
      <trkpt lat="45.29933" lon="1.85104">
        <ele>433.81872558594</ele>
        <time>2020-06-24T14:41:24.011Z</time>
      </trkpt>
      <trkpt lat="45.29962" lon="1.85086">
        <ele>437.89804077148</ele>
        <time>2020-06-24T14:41:24.025Z</time>
      </trkpt>
      <trkpt lat="45.29987" lon="1.85073">
        <ele>441.49389648438</ele>
        <time>2020-06-24T14:41:24.043Z</time>
      </trkpt>
      <trkpt lat="45.29994" lon="1.85054">
        <ele>441.64096069336</ele>
        <time>2020-06-24T14:41:24.064Z</time>
      </trkpt>
      <trkpt lat="45.30006" lon="1.85027">
        <ele>443.29000854492</ele>
        <time>2020-06-24T14:41:24.088Z</time>
      </trkpt>
      <trkpt lat="45.30018" lon="1.85006">
        <ele>452.93640136719</ele>
        <time>2020-06-24T14:41:24.115Z</time>
      </trkpt>
      <trkpt lat="45.30031" lon="1.84975">
        <ele>460.26544189453</ele>
        <time>2020-06-24T14:41:24.146Z</time>
      </trkpt>
      <trkpt lat="45.30035" lon="1.84962">
        <ele>462.53826904297</ele>
        <time>2020-06-24T14:41:24.179Z</time>
      </trkpt>
      <trkpt lat="45.30035" lon="1.84961">
        <ele>462.68795776367</ele>
        <time>2020-06-24T14:41:24.212Z</time>
      </trkpt>
      <trkpt lat="45.30041" lon="1.84939">
        <ele>466.71926879883</ele>
        <time>2020-06-24T14:41:24.248Z</time>
      </trkpt>
      <trkpt lat="45.30044" lon="1.84916">
        <ele>469.16687011719</ele>
        <time>2020-06-24T14:41:24.286Z</time>
      </trkpt>
      <trkpt lat="45.30043" lon="1.8489">
        <ele>469.28375244141</ele>
        <time>2020-06-24T14:41:24.327Z</time>
      </trkpt>
      <trkpt lat="45.30039" lon="1.8484">
        <ele>468.22793579102</ele>
        <time>2020-06-24T14:41:24.374Z</time>
      </trkpt>
      <trkpt lat="45.30042" lon="1.84815">
        <ele>470.42984008789</ele>
        <time>2020-06-24T14:41:24.424Z</time>
      </trkpt>
      <trkpt lat="45.30047" lon="1.84788">
        <ele>473.51556396484</ele>
        <time>2020-06-24T14:41:24.477Z</time>
      </trkpt>
      <trkpt lat="45.30049" lon="1.84765">
        <ele>474.51138305664</ele>
        <time>2020-06-24T14:41:24.533Z</time>
      </trkpt>
      <trkpt lat="45.30047" lon="1.8474">
        <ele>474.09146118164</ele>
        <time>2020-06-24T14:41:24.591Z</time>
      </trkpt>
      <trkpt lat="45.30042" lon="1.8471">
        <ele>472.90789794922</ele>
        <time>2020-06-24T14:41:24.653Z</time>
      </trkpt>
      <trkpt lat="45.30019" lon="1.8468">
        <ele>462.20568847656</ele>
        <time>2020-06-24T14:41:24.720Z</time>
      </trkpt>
      <trkpt lat="45.30016" lon="1.84675">
        <ele>460.86190795898</ele>
        <time>2020-06-24T14:41:24.788Z</time>
      </trkpt>
      <trkpt lat="45.30011" lon="1.84659">
        <ele>458.990234375</ele>
        <time>2020-06-24T14:41:24.858Z</time>
      </trkpt>
      <trkpt lat="45.30008" lon="1.84635">
        <ele>457.31155395508</ele>
        <time>2020-06-24T14:41:24.930Z</time>
      </trkpt>
      <trkpt lat="45.30011" lon="1.84611">
        <ele>458.82485961914</ele>
        <time>2020-06-24T14:41:25.005Z</time>
      </trkpt>
      <trkpt lat="45.30022" lon="1.84579">
        <ele>465.27978515625</ele>
        <time>2020-06-24T14:41:25.084Z</time>
      </trkpt>
      <trkpt lat="45.30026" lon="1.84544">
        <ele>462.88244628906</ele>
        <time>2020-06-24T14:41:25.167Z</time>
      </trkpt>
      <trkpt lat="45.30047" lon="1.84496">
        <ele>467.1799621582</ele>
        <time>2020-06-24T14:41:25.257Z</time>
      </trkpt>
      <trkpt lat="45.30092" lon="1.84385">
        <ele>457.32220458984</ele>
        <time>2020-06-24T14:41:25.361Z</time>
      </trkpt>
      <trkpt lat="45.30104" lon="1.84356">
        <ele>453.26226806641</ele>
        <time>2020-06-24T14:41:25.469Z</time>
      </trkpt>
      <trkpt lat="45.30118" lon="1.84331">
        <ele>449.96282958984</ele>
        <time>2020-06-24T14:41:25.580Z</time>
      </trkpt>
      <trkpt lat="45.30132" lon="1.84314">
        <ele>449.30322265625</ele>
        <time>2020-06-24T14:41:25.694Z</time>
      </trkpt>
      <trkpt lat="45.3015" lon="1.84298">
        <ele>449.15924072266</ele>
        <time>2020-06-24T14:41:25.812Z</time>
      </trkpt>
      <trkpt lat="45.30205" lon="1.84269">
        <ele>450.49227905273</ele>
        <time>2020-06-24T14:41:25.939Z</time>
      </trkpt>
      <trkpt lat="45.3023" lon="1.84253">
        <ele>450.15664672852</ele>
        <time>2020-06-24T14:41:26.071Z</time>
      </trkpt>
      <trkpt lat="45.30231" lon="1.84252">
        <ele>450.05770874023</ele>
        <time>2020-06-24T14:41:26.203Z</time>
      </trkpt>
      <trkpt lat="45.30231" lon="1.84251">
        <ele>450.00067138672</ele>
        <time>2020-06-24T14:41:26.335Z</time>
      </trkpt>
      <trkpt lat="45.30242" lon="1.84239">
        <ele>450.56625366211</ele>
        <time>2020-06-24T14:41:26.469Z</time>
      </trkpt>
      <trkpt lat="45.30257" lon="1.84219">
        <ele>451.22613525391</ele>
        <time>2020-06-24T14:41:26.606Z</time>
      </trkpt>
      <trkpt lat="45.303" lon="1.84162">
        <ele>452.1018371582</ele>
        <time>2020-06-24T14:41:26.753Z</time>
      </trkpt>
      <trkpt lat="45.30324" lon="1.84134">
        <ele>453.08584594727</ele>
        <time>2020-06-24T14:41:26.905Z</time>
      </trkpt>
      <trkpt lat="45.30354" lon="1.84094">
        <ele>451.60336303711</ele>
        <time>2020-06-24T14:41:27.063Z</time>
      </trkpt>
      <trkpt lat="45.30375" lon="1.8406">
        <ele>450.07522583008</ele>
        <time>2020-06-24T14:41:27.226Z</time>
      </trkpt>
      <trkpt lat="45.30376" lon="1.8406">
        <ele>450.11120605469</ele>
        <time>2020-06-24T14:41:27.390Z</time>
      </trkpt>
      <trkpt lat="45.30377" lon="1.84061">
        <ele>450.20721435547</ele>
        <time>2020-06-24T14:41:27.554Z</time>
      </trkpt>
      <trkpt lat="45.3038" lon="1.84062">
        <ele>450.37518310547</ele>
        <time>2020-06-24T14:41:27.718Z</time>
      </trkpt>
      <trkpt lat="45.30383" lon="1.8406">
        <ele>450.46734619141</ele>
        <time>2020-06-24T14:41:27.883Z</time>
      </trkpt>
      <trkpt lat="45.30386" lon="1.84051">
        <ele>450.14340209961</ele>
        <time>2020-06-24T14:41:28.049Z</time>
      </trkpt>
      <trkpt lat="45.30382" lon="1.84044">
        <ele>449.43551635742</ele>
        <time>2020-06-24T14:41:28.216Z</time>
      </trkpt>
      <trkpt lat="45.30376" lon="1.84043">
        <ele>449.09140014648</ele>
        <time>2020-06-24T14:41:28.384Z</time>
      </trkpt>
      <trkpt lat="45.30375" lon="1.84045">
        <ele>449.17538452148</ele>
        <time>2020-06-24T14:41:28.552Z</time>
      </trkpt>
      <trkpt lat="45.30361" lon="1.84036">
        <ele>448.1315612793</ele>
        <time>2020-06-24T14:41:28.723Z</time>
      </trkpt>
      <trkpt lat="45.30355" lon="1.84035">
        <ele>447.85559082031</ele>
        <time>2020-06-24T14:41:28.895Z</time>
      </trkpt>
      <trkpt lat="45.30349" lon="1.84013">
        <ele>446.31985473633</ele>
        <time>2020-06-24T14:41:29.069Z</time>
      </trkpt>
      <trkpt lat="45.30349" lon="1.84011">
        <ele>446.20812988281</ele>
        <time>2020-06-24T14:41:29.244Z</time>
      </trkpt>
      <trkpt lat="45.30348" lon="1.84004">
        <ele>445.74395751953</ele>
        <time>2020-06-24T14:41:29.419Z</time>
      </trkpt>
      <trkpt lat="45.30351" lon="1.83992">
        <ele>445.13204956055</ele>
        <time>2020-06-24T14:41:29.596Z</time>
      </trkpt>
      <trkpt lat="45.30397" lon="1.83941">
        <ele>448.97619628906</ele>
        <time>2020-06-24T14:41:29.782Z</time>
      </trkpt>
      <trkpt lat="45.30475" lon="1.83869">
        <ele>455.90924072266</ele>
        <time>2020-06-24T14:41:29.983Z</time>
      </trkpt>
      <trkpt lat="45.30476" lon="1.83869">
        <ele>455.9462890625</ele>
        <time>2020-06-24T14:41:30.184Z</time>
      </trkpt>
      <trkpt lat="45.30486" lon="1.83861">
        <ele>456.48513793945</ele>
        <time>2020-06-24T14:41:30.387Z</time>
      </trkpt>
      <trkpt lat="45.30496" lon="1.83857">
        <ele>457.20501708984</ele>
        <time>2020-06-24T14:41:30.592Z</time>
      </trkpt>
      <trkpt lat="45.30508" lon="1.83858">
        <ele>458.52310180664</ele>
        <time>2020-06-24T14:41:30.799Z</time>
      </trkpt>
      <trkpt lat="45.30522" lon="1.83867">
        <ele>460.46676635742</ele>
        <time>2020-06-24T14:41:31.008Z</time>
      </trkpt>
      <trkpt lat="45.30538" lon="1.83886">
        <ele>463.10632324219</ele>
        <time>2020-06-24T14:41:31.220Z</time>
      </trkpt>
      <trkpt lat="45.30557" lon="1.83913">
        <ele>465.36712646484</ele>
        <time>2020-06-24T14:41:31.437Z</time>
      </trkpt>
      <trkpt lat="45.30567" lon="1.8392">
        <ele>465.72708129883</ele>
        <time>2020-06-24T14:41:31.655Z</time>
      </trkpt>
      <trkpt lat="45.3059" lon="1.83923">
        <ele>466.55493164062</ele>
        <time>2020-06-24T14:41:31.877Z</time>
      </trkpt>
      <trkpt lat="45.3063" lon="1.83922">
        <ele>467.99468994141</ele>
        <time>2020-06-24T14:41:32.106Z</time>
      </trkpt>
      <trkpt lat="45.30631" lon="1.83922">
        <ele>468.10195922852</ele>
        <time>2020-06-24T14:41:32.335Z</time>
      </trkpt>
      <trkpt lat="45.30723" lon="1.83913">
        <ele>474.74685668945</ele>
        <time>2020-06-24T14:41:32.579Z</time>
      </trkpt>
      <trkpt lat="45.30739" lon="1.8391">
        <ele>477.13446044922</ele>
        <time>2020-06-24T14:41:32.825Z</time>
      </trkpt>
      <trkpt lat="45.30749" lon="1.83906">
        <ele>478.55023193359</ele>
        <time>2020-06-24T14:41:33.073Z</time>
      </trkpt>
      <trkpt lat="45.30756" lon="1.83901">
        <ele>479.40618896484</ele>
        <time>2020-06-24T14:41:33.322Z</time>
      </trkpt>
      <trkpt lat="45.3077" lon="1.83899">
        <ele>481.4938659668</ele>
        <time>2020-06-24T14:41:33.573Z</time>
      </trkpt>
      <trkpt lat="45.30817" lon="1.83863">
        <ele>485.13397216797</ele>
        <time>2020-06-24T14:41:33.833Z</time>
      </trkpt>
      <trkpt lat="45.30841" lon="1.83839">
        <ele>485.38031005859</ele>
        <time>2020-06-24T14:41:34.098Z</time>
      </trkpt>
      <trkpt lat="45.30848" lon="1.83828">
        <ele>485.09234619141</ele>
        <time>2020-06-24T14:41:34.364Z</time>
      </trkpt>
      <trkpt lat="45.30868" lon="1.83797">
        <ele>483.38946533203</ele>
        <time>2020-06-24T14:41:34.635Z</time>
      </trkpt>
      <trkpt lat="45.3089" lon="1.83774">
        <ele>482.01876831055</ele>
        <time>2020-06-24T14:41:34.910Z</time>
      </trkpt>
      <trkpt lat="45.30922" lon="1.83746">
        <ele>479.34591674805</ele>
        <time>2020-06-24T14:41:35.191Z</time>
      </trkpt>
      <trkpt lat="45.30952" lon="1.83721">
        <ele>477.70687866211</ele>
        <time>2020-06-24T14:41:35.478Z</time>
      </trkpt>
      <trkpt lat="45.30974" lon="1.83705">
        <ele>476.42950439453</ele>
        <time>2020-06-24T14:41:35.769Z</time>
      </trkpt>
      <trkpt lat="45.30998" lon="1.83692">
        <ele>475.20571899414</ele>
        <time>2020-06-24T14:41:36.064Z</time>
      </trkpt>
      <trkpt lat="45.31008" lon="1.8369">
        <ele>475.06271362305</ele>
        <time>2020-06-24T14:41:36.361Z</time>
      </trkpt>
      <trkpt lat="45.31019" lon="1.83691">
        <ele>475.12268066406</ele>
        <time>2020-06-24T14:41:36.659Z</time>
      </trkpt>
      <trkpt lat="45.3104" lon="1.83707">
        <ele>476.08251953125</ele>
        <time>2020-06-24T14:41:36.961Z</time>
      </trkpt>
      <trkpt lat="45.31052" lon="1.83711">
        <ele>476.81359863281</ele>
        <time>2020-06-24T14:41:37.265Z</time>
      </trkpt>
      <trkpt lat="45.31058" lon="1.8371">
        <ele>477.32949829102</ele>
        <time>2020-06-24T14:41:37.570Z</time>
      </trkpt>
      <trkpt lat="45.31066" lon="1.83703">
        <ele>477.67742919922</ele>
        <time>2020-06-24T14:41:37.877Z</time>
      </trkpt>
      <trkpt lat="45.31074" lon="1.83691">
        <ele>477.72543334961</ele>
        <time>2020-06-24T14:41:38.185Z</time>
      </trkpt>
      <trkpt lat="45.31095" lon="1.83626">
        <ele>476.41903686523</ele>
        <time>2020-06-24T14:41:38.502Z</time>
      </trkpt>
      <trkpt lat="45.31105" lon="1.83605">
        <ele>476.54364013672</ele>
        <time>2020-06-24T14:41:38.821Z</time>
      </trkpt>
      <trkpt lat="45.31131" lon="1.83568">
        <ele>477.62301635742</ele>
        <time>2020-06-24T14:41:39.146Z</time>
      </trkpt>
      <trkpt lat="45.31159" lon="1.83538">
        <ele>474.43154907227</ele>
        <time>2020-06-24T14:41:39.477Z</time>
      </trkpt>
      <trkpt lat="45.31174" lon="1.83526">
        <ele>473.14407348633</ele>
        <time>2020-06-24T14:41:39.811Z</time>
      </trkpt>
      <trkpt lat="45.31204" lon="1.83503">
        <ele>471.12838745117</ele>
        <time>2020-06-24T14:41:40.150Z</time>
      </trkpt>
      <trkpt lat="45.3122" lon="1.83495">
        <ele>469.37945556641</ele>
        <time>2020-06-24T14:41:40.492Z</time>
      </trkpt>
      <trkpt lat="45.3123" lon="1.83491">
        <ele>468.25164794922</ele>
        <time>2020-06-24T14:41:40.836Z</time>
      </trkpt>
      <trkpt lat="45.31238" lon="1.83494">
        <ele>467.42379760742</ele>
        <time>2020-06-24T14:41:41.181Z</time>
      </trkpt>
      <trkpt lat="45.31246" lon="1.83501">
        <ele>466.64392089844</ele>
        <time>2020-06-24T14:41:41.527Z</time>
      </trkpt>
      <trkpt lat="45.31252" lon="1.83514">
        <ele>466.15200805664</ele>
        <time>2020-06-24T14:41:41.875Z</time>
      </trkpt>
      <trkpt lat="45.31253" lon="1.83522">
        <ele>466.14001464844</ele>
        <time>2020-06-24T14:41:42.224Z</time>
      </trkpt>
      <trkpt lat="45.31255" lon="1.83566">
        <ele>468.59097290039</ele>
        <time>2020-06-24T14:41:42.578Z</time>
      </trkpt>
      <trkpt lat="45.31258" lon="1.83591">
        <ele>470.33624267578</ele>
        <time>2020-06-24T14:41:42.935Z</time>
      </trkpt>
      <trkpt lat="45.31263" lon="1.83607">
        <ele>471.03213500977</ele>
        <time>2020-06-24T14:41:43.294Z</time>
      </trkpt>
      <trkpt lat="45.31281" lon="1.83641">
        <ele>471.27209472656</ele>
        <time>2020-06-24T14:41:43.658Z</time>
      </trkpt>
      <trkpt lat="45.31289" lon="1.83649">
        <ele>470.69619750977</ele>
        <time>2020-06-24T14:41:44.023Z</time>
      </trkpt>
      <trkpt lat="45.31291" lon="1.8365">
        <ele>470.45623779297</ele>
        <time>2020-06-24T14:41:44.389Z</time>
      </trkpt>
      <trkpt lat="45.31292" lon="1.8365">
        <ele>470.23846435547</ele>
        <time>2020-06-24T14:41:44.755Z</time>
      </trkpt>
      <trkpt lat="45.31301" lon="1.83651">
        <ele>469.60583496094</ele>
        <time>2020-06-24T14:41:45.122Z</time>
      </trkpt>
      <trkpt lat="45.31309" lon="1.83649">
        <ele>469.50985717773</ele>
        <time>2020-06-24T14:41:45.490Z</time>
      </trkpt>
      <trkpt lat="45.31323" lon="1.83634">
        <ele>468.23806762695</ele>
        <time>2020-06-24T14:41:45.861Z</time>
      </trkpt>
      <trkpt lat="45.31348" lon="1.83597">
        <ele>466.56695556641</ele>
        <time>2020-06-24T14:41:46.238Z</time>
      </trkpt>
      <trkpt lat="45.31372" lon="1.8356">
        <ele>467.44906616211</ele>
        <time>2020-06-24T14:41:46.621Z</time>
      </trkpt>
      <trkpt lat="45.31395" lon="1.83519">
        <ele>470.80087280273</ele>
        <time>2020-06-24T14:41:47.010Z</time>
      </trkpt>
      <trkpt lat="45.31416" lon="1.83476">
        <ele>472.71463012695</ele>
        <time>2020-06-24T14:41:47.405Z</time>
      </trkpt>
      <trkpt lat="45.31451" lon="1.8341">
        <ele>475.18984985352</ele>
        <time>2020-06-24T14:41:47.809Z</time>
      </trkpt>
      <trkpt lat="45.31462" lon="1.83397">
        <ele>475.55535888672</ele>
        <time>2020-06-24T14:41:48.215Z</time>
      </trkpt>
      <trkpt lat="45.31471" lon="1.8339">
        <ele>475.705078125</ele>
        <time>2020-06-24T14:41:48.623Z</time>
      </trkpt>
      <trkpt lat="45.31498" lon="1.83378">
        <ele>476.24496459961</ele>
        <time>2020-06-24T14:41:49.035Z</time>
      </trkpt>
      <trkpt lat="45.31542" lon="1.83362">
        <ele>478.64245605469</ele>
        <time>2020-06-24T14:41:49.455Z</time>
      </trkpt>
      <trkpt lat="45.31573" lon="1.83346">
        <ele>477.77774047852</ele>
        <time>2020-06-24T14:41:49.880Z</time>
      </trkpt>
      <trkpt lat="45.31599" lon="1.83332">
        <ele>477.00985717773</ele>
        <time>2020-06-24T14:41:50.309Z</time>
      </trkpt>
      <trkpt lat="45.31601" lon="1.83321">
        <ele>477.06985473633</ele>
        <time>2020-06-24T14:41:50.740Z</time>
      </trkpt>
      <trkpt lat="45.31607" lon="1.83308">
        <ele>477.00985717773</ele>
        <time>2020-06-24T14:41:51.172Z</time>
      </trkpt>
      <trkpt lat="45.31624" lon="1.833">
        <ele>476.87579345703</ele>
        <time>2020-06-24T14:41:51.607Z</time>
      </trkpt>
      <trkpt lat="45.31638" lon="1.83298">
        <ele>476.22653198242</ele>
        <time>2020-06-24T14:41:52.044Z</time>
      </trkpt>
      <trkpt lat="45.31656" lon="1.83297">
        <ele>474.75076293945</ele>
        <time>2020-06-24T14:41:52.484Z</time>
      </trkpt>
      <trkpt lat="45.31673" lon="1.83293">
        <ele>473.46697998047</ele>
        <time>2020-06-24T14:41:52.927Z</time>
      </trkpt>
      <trkpt lat="45.31712" lon="1.83276">
        <ele>472.40753173828</ele>
        <time>2020-06-24T14:41:53.377Z</time>
      </trkpt>
      <trkpt lat="45.31722" lon="1.83278">
        <ele>471.58352661133</ele>
        <time>2020-06-24T14:41:53.828Z</time>
      </trkpt>
      <trkpt lat="45.31727" lon="1.83282">
        <ele>470.93563842773</ele>
        <time>2020-06-24T14:41:54.280Z</time>
      </trkpt>
      <trkpt lat="45.31734" lon="1.833">
        <ele>469.13595581055</ele>
        <time>2020-06-24T14:41:54.735Z</time>
      </trkpt>
      <trkpt lat="45.31738" lon="1.83314">
        <ele>467.84014892578</ele>
        <time>2020-06-24T14:41:55.191Z</time>
      </trkpt>
      <trkpt lat="45.31744" lon="1.83324">
        <ele>466.92233276367</ele>
        <time>2020-06-24T14:41:55.649Z</time>
      </trkpt>
      <trkpt lat="45.31756" lon="1.83331">
        <ele>466.47842407227</ele>
        <time>2020-06-24T14:41:56.109Z</time>
      </trkpt>
      <trkpt lat="45.31762" lon="1.8333">
        <ele>465.98648071289</ele>
        <time>2020-06-24T14:41:56.570Z</time>
      </trkpt>
      <trkpt lat="45.31776" lon="1.83322">
        <ele>464.52871704102</ele>
        <time>2020-06-24T14:41:57.033Z</time>
      </trkpt>
      <trkpt lat="45.31796" lon="1.83308">
        <ele>463.30380249023</ele>
        <time>2020-06-24T14:41:57.500Z</time>
      </trkpt>
      <trkpt lat="45.31801" lon="1.83306">
        <ele>463.43414306641</ele>
        <time>2020-06-24T14:41:57.968Z</time>
      </trkpt>
      <trkpt lat="45.31818" lon="1.83308">
        <ele>464.4299621582</ele>
        <time>2020-06-24T14:41:58.438Z</time>
      </trkpt>
      <trkpt lat="45.31831" lon="1.83314">
        <ele>465.13784790039</ele>
        <time>2020-06-24T14:41:58.910Z</time>
      </trkpt>
      <trkpt lat="45.31847" lon="1.83324">
        <ele>466.31805419922</ele>
        <time>2020-06-24T14:41:59.385Z</time>
      </trkpt>
      <trkpt lat="45.31864" lon="1.83332">
        <ele>468.77764892578</ele>
        <time>2020-06-24T14:41:59.863Z</time>
      </trkpt>
      <trkpt lat="45.31877" lon="1.83335">
        <ele>470.09744262695</ele>
        <time>2020-06-24T14:42:00.343Z</time>
      </trkpt>
      <trkpt lat="45.31894" lon="1.83332">
        <ele>470.76315307617</ele>
        <time>2020-06-24T14:42:00.826Z</time>
      </trkpt>
      <trkpt lat="45.31911" lon="1.83325">
        <ele>471.67498779297</ele>
        <time>2020-06-24T14:42:01.312Z</time>
      </trkpt>
      <trkpt lat="45.31951" lon="1.83312">
        <ele>473.78775024414</ele>
        <time>2020-06-24T14:42:01.804Z</time>
      </trkpt>
      <trkpt lat="45.3196" lon="1.83308">
        <ele>474.41851806641</ele>
        <time>2020-06-24T14:42:02.298Z</time>
      </trkpt>
      <trkpt lat="45.3197" lon="1.83296">
        <ele>473.82833862305</ele>
        <time>2020-06-24T14:42:02.794Z</time>
      </trkpt>
      <trkpt lat="45.31983" lon="1.83262">
        <ele>470.1809387207</ele>
        <time>2020-06-24T14:42:03.294Z</time>
      </trkpt>
      <trkpt lat="45.31999" lon="1.83227">
        <ele>466.66931152344</ele>
        <time>2020-06-24T14:42:03.799Z</time>
      </trkpt>
      <trkpt lat="45.32013" lon="1.83203">
        <ele>463.2756652832</ele>
        <time>2020-06-24T14:42:04.308Z</time>
      </trkpt>
      <trkpt lat="45.32032" lon="1.8317">
        <ele>461.54794311523</ele>
        <time>2020-06-24T14:42:04.821Z</time>
      </trkpt>
      <trkpt lat="45.32041" lon="1.83156">
        <ele>460.98403930664</ele>
        <time>2020-06-24T14:42:05.337Z</time>
      </trkpt>
      <trkpt lat="45.32059" lon="1.83137">
        <ele>457.90405273438</ele>
        <time>2020-06-24T14:42:05.856Z</time>
      </trkpt>
      <trkpt lat="45.32066" lon="1.83132">
        <ele>456.9801940918</ele>
        <time>2020-06-24T14:42:06.376Z</time>
      </trkpt>
      <trkpt lat="45.32082" lon="1.83125">
        <ele>455.984375</ele>
        <time>2020-06-24T14:42:06.899Z</time>
      </trkpt>
      <trkpt lat="45.3209" lon="1.83124">
        <ele>456.11636352539</ele>
        <time>2020-06-24T14:42:07.423Z</time>
      </trkpt>
      <trkpt lat="45.32093" lon="1.83124">
        <ele>456.19714355469</ele>
        <time>2020-06-24T14:42:07.948Z</time>
      </trkpt>
      <trkpt lat="45.32132" lon="1.8312">
        <ele>456.95114135742</ele>
        <time>2020-06-24T14:42:08.479Z</time>
      </trkpt>
      <trkpt lat="45.32157" lon="1.83117">
        <ele>454.69549560547</ele>
        <time>2020-06-24T14:42:09.014Z</time>
      </trkpt>
      <trkpt lat="45.32207" lon="1.83104">
        <ele>452.18212890625</ele>
        <time>2020-06-24T14:42:09.557Z</time>
      </trkpt>
      <trkpt lat="45.32214" lon="1.83103">
        <ele>452.19131469727</ele>
        <time>2020-06-24T14:42:10.101Z</time>
      </trkpt>
      <trkpt lat="45.32224" lon="1.83105">
        <ele>453.12716674805</ele>
        <time>2020-06-24T14:42:10.647Z</time>
      </trkpt>
      <trkpt lat="45.32236" lon="1.83108">
        <ele>454.35095214844</ele>
        <time>2020-06-24T14:42:11.195Z</time>
      </trkpt>
      <trkpt lat="45.32246" lon="1.83106">
        <ele>454.61489868164</ele>
        <time>2020-06-24T14:42:11.745Z</time>
      </trkpt>
      <trkpt lat="45.32258" lon="1.83097">
        <ele>453.82302856445</ele>
        <time>2020-06-24T14:42:12.297Z</time>
      </trkpt>
      <trkpt lat="45.32276" lon="1.83078">
        <ele>451.71139526367</ele>
        <time>2020-06-24T14:42:12.852Z</time>
      </trkpt>
      <trkpt lat="45.32299" lon="1.83057">
        <ele>447.99172973633</ele>
        <time>2020-06-24T14:42:13.412Z</time>
      </trkpt>
      <trkpt lat="45.32337" lon="1.83039">
        <ele>443.2405090332</ele>
        <time>2020-06-24T14:42:13.978Z</time>
      </trkpt>
      <trkpt lat="45.32378" lon="1.83023">
        <ele>437.8955078125</ele>
        <time>2020-06-24T14:42:14.551Z</time>
      </trkpt>
      <trkpt lat="45.32418" lon="1.83017">
        <ele>431.82824707031</ele>
        <time>2020-06-24T14:42:15.130Z</time>
      </trkpt>
      <trkpt lat="45.32444" lon="1.83017">
        <ele>429.33264160156</ele>
        <time>2020-06-24T14:42:15.713Z</time>
      </trkpt>
      <trkpt lat="45.32457" lon="1.83019">
        <ele>428.61276245117</ele>
        <time>2020-06-24T14:42:16.299Z</time>
      </trkpt>
      <trkpt lat="45.32496" lon="1.83033">
        <ele>428.95129394531</ele>
        <time>2020-06-24T14:42:16.891Z</time>
      </trkpt>
      <trkpt lat="45.32538" lon="1.8304">
        <ele>429.20758056641</ele>
        <time>2020-06-24T14:42:17.490Z</time>
      </trkpt>
      <trkpt lat="45.32568" lon="1.83035">
        <ele>430.06024169922</ele>
        <time>2020-06-24T14:42:18.094Z</time>
      </trkpt>
      <trkpt lat="45.32607" lon="1.83024">
        <ele>432.54165649414</ele>
        <time>2020-06-24T14:42:18.704Z</time>
      </trkpt>
      <trkpt lat="45.32636" lon="1.83015">
        <ele>435.11499023438</ele>
        <time>2020-06-24T14:42:19.319Z</time>
      </trkpt>
      <trkpt lat="45.32642" lon="1.83008">
        <ele>434.91101074219</ele>
        <time>2020-06-24T14:42:19.935Z</time>
      </trkpt>
      <trkpt lat="45.32646" lon="1.83">
        <ele>434.59652709961</ele>
        <time>2020-06-24T14:42:20.552Z</time>
      </trkpt>
      <trkpt lat="45.32648" lon="1.8298">
        <ele>434.47106933594</ele>
        <time>2020-06-24T14:42:21.171Z</time>
      </trkpt>
      <trkpt lat="45.32646" lon="1.82959">
        <ele>434.86700439453</ele>
        <time>2020-06-24T14:42:21.793Z</time>
      </trkpt>
      <trkpt lat="45.32641" lon="1.82941">
        <ele>434.61502075195</ele>
        <time>2020-06-24T14:42:22.417Z</time>
      </trkpt>
      <trkpt lat="45.32633" lon="1.82929">
        <ele>433.60720825195</ele>
        <time>2020-06-24T14:42:23.043Z</time>
      </trkpt>
      <trkpt lat="45.32622" lon="1.8292">
        <ele>431.6462097168</ele>
        <time>2020-06-24T14:42:23.671Z</time>
      </trkpt>
      <trkpt lat="45.32607" lon="1.82918">
        <ele>428.47875976562</ele>
        <time>2020-06-24T14:42:24.301Z</time>
      </trkpt>
      <trkpt lat="45.3259" lon="1.82921">
        <ele>424.69937133789</ele>
        <time>2020-06-24T14:42:24.934Z</time>
      </trkpt>
      <trkpt lat="45.32582" lon="1.82921">
        <ele>422.9716796875</ele>
        <time>2020-06-24T14:42:25.568Z</time>
      </trkpt>
      <trkpt lat="45.32572" lon="1.82916">
        <ele>420.99200439453</ele>
        <time>2020-06-24T14:42:26.204Z</time>
      </trkpt>
      <trkpt lat="45.32568" lon="1.8291">
        <ele>420.34411621094</ele>
        <time>2020-06-24T14:42:26.841Z</time>
      </trkpt>
      <trkpt lat="45.32561" lon="1.82888">
        <ele>420.46365356445</ele>
        <time>2020-06-24T14:42:27.481Z</time>
      </trkpt>
      <trkpt lat="45.32557" lon="1.82855">
        <ele>422.37133789062</ele>
        <time>2020-06-24T14:42:28.124Z</time>
      </trkpt>
      <trkpt lat="45.32557" lon="1.82831">
        <ele>424.35064697266</ele>
        <time>2020-06-24T14:42:28.770Z</time>
      </trkpt>
      <trkpt lat="45.32563" lon="1.82794">
        <ele>423.15414428711</ele>
        <time>2020-06-24T14:42:29.420Z</time>
      </trkpt>
      <trkpt lat="45.32573" lon="1.82764">
        <ele>422.05044555664</ele>
        <time>2020-06-24T14:42:30.074Z</time>
      </trkpt>
      <trkpt lat="45.32582" lon="1.82746">
        <ele>420.97064208984</ele>
        <time>2020-06-24T14:42:30.731Z</time>
      </trkpt>
      <trkpt lat="45.32591" lon="1.82735">
        <ele>420.4958190918</ele>
        <time>2020-06-24T14:42:31.390Z</time>
      </trkpt>
      <trkpt lat="45.32602" lon="1.82724">
        <ele>419.70394897461</ele>
        <time>2020-06-24T14:42:32.051Z</time>
      </trkpt>
      <trkpt lat="45.32628" lon="1.82706">
        <ele>420.65115356445</ele>
        <time>2020-06-24T14:42:32.716Z</time>
      </trkpt>
      <trkpt lat="45.32655" lon="1.82686">
        <ele>418.67492675781</ele>
        <time>2020-06-24T14:42:33.386Z</time>
      </trkpt>
      <trkpt lat="45.32662" lon="1.82676">
        <ele>418.00079345703</ele>
        <time>2020-06-24T14:42:34.058Z</time>
      </trkpt>
      <trkpt lat="45.32673" lon="1.82657">
        <ele>417.26892089844</ele>
        <time>2020-06-24T14:42:34.733Z</time>
      </trkpt>
      <trkpt lat="45.32692" lon="1.82625">
        <ele>414.36990356445</ele>
        <time>2020-06-24T14:42:35.412Z</time>
      </trkpt>
      <trkpt lat="45.32705" lon="1.82612">
        <ele>414.05795288086</ele>
        <time>2020-06-24T14:42:36.094Z</time>
      </trkpt>
      <trkpt lat="45.32717" lon="1.82606">
        <ele>414.0207824707</ele>
        <time>2020-06-24T14:42:36.778Z</time>
      </trkpt>
      <trkpt lat="45.32739" lon="1.82604">
        <ele>411.86114501953</ele>
        <time>2020-06-24T14:42:37.465Z</time>
      </trkpt>
      <trkpt lat="45.32762" lon="1.82609">
        <ele>410.03302001953</ele>
        <time>2020-06-24T14:42:38.156Z</time>
      </trkpt>
      <trkpt lat="45.32771" lon="1.82613">
        <ele>409.60107421875</ele>
        <time>2020-06-24T14:42:38.849Z</time>
      </trkpt>
      <trkpt lat="45.32778" lon="1.8262">
        <ele>410.10501098633</ele>
        <time>2020-06-24T14:42:39.543Z</time>
      </trkpt>
      <trkpt lat="45.32813" lon="1.82665">
        <ele>414.40115356445</ele>
        <time>2020-06-24T14:42:40.245Z</time>
      </trkpt>
      <trkpt lat="45.32834" lon="1.82693">
        <ele>415.96203613281</ele>
        <time>2020-06-24T14:42:40.951Z</time>
      </trkpt>
      <trkpt lat="45.32862" lon="1.82721">
        <ele>416.63391113281</ele>
        <time>2020-06-24T14:42:41.663Z</time>
      </trkpt>
      <trkpt lat="45.32899" lon="1.82757">
        <ele>417.18551635742</ele>
        <time>2020-06-24T14:42:42.382Z</time>
      </trkpt>
      <trkpt lat="45.32911" lon="1.82764">
        <ele>416.66961669922</ele>
        <time>2020-06-24T14:42:43.103Z</time>
      </trkpt>
      <trkpt lat="45.32934" lon="1.82772">
        <ele>414.96588134766</ele>
        <time>2020-06-24T14:42:43.828Z</time>
      </trkpt>
      <trkpt lat="45.32959" lon="1.82781">
        <ele>413.15420532227</ele>
        <time>2020-06-24T14:42:44.557Z</time>
      </trkpt>
      <trkpt lat="45.32982" lon="1.82792">
        <ele>413.15158081055</ele>
        <time>2020-06-24T14:42:45.290Z</time>
      </trkpt>
      <trkpt lat="45.32997" lon="1.82817">
        <ele>415.73114013672</ele>
        <time>2020-06-24T14:42:46.026Z</time>
      </trkpt>
      <trkpt lat="45.33004" lon="1.82827">
        <ele>417.06457519531</ele>
        <time>2020-06-24T14:42:46.764Z</time>
      </trkpt>
      <trkpt lat="45.33011" lon="1.8283">
        <ele>417.3405456543</ele>
        <time>2020-06-24T14:42:47.503Z</time>
      </trkpt>
      <trkpt lat="45.3302" lon="1.82829">
        <ele>416.70465087891</ele>
        <time>2020-06-24T14:42:48.244Z</time>
      </trkpt>
      <trkpt lat="45.33031" lon="1.82822">
        <ele>414.75930786133</ele>
        <time>2020-06-24T14:42:48.987Z</time>
      </trkpt>
      <trkpt lat="45.33095" lon="1.82776">
        <ele>406.54235839844</ele>
        <time>2020-06-24T14:42:49.741Z</time>
      </trkpt>
      <trkpt lat="45.33111" lon="1.82766">
        <ele>405.63049316406</ele>
        <time>2020-06-24T14:42:50.498Z</time>
      </trkpt>
      <trkpt lat="45.33135" lon="1.82758">
        <ele>405.91754150391</ele>
        <time>2020-06-24T14:42:51.259Z</time>
      </trkpt>
      <trkpt lat="45.33164" lon="1.82749">
        <ele>410.88021850586</ele>
        <time>2020-06-24T14:42:52.025Z</time>
      </trkpt>
      <trkpt lat="45.33174" lon="1.82742">
        <ele>412.69192504883</ele>
        <time>2020-06-24T14:42:52.792Z</time>
      </trkpt>
      <trkpt lat="45.3318" lon="1.82733">
        <ele>413.23672485352</ele>
        <time>2020-06-24T14:42:53.561Z</time>
      </trkpt>
      <trkpt lat="45.33184" lon="1.82722">
        <ele>413.00875854492</ele>
        <time>2020-06-24T14:42:54.331Z</time>
      </trkpt>
      <trkpt lat="45.33184" lon="1.82706">
        <ele>411.45413208008</ele>
        <time>2020-06-24T14:42:55.103Z</time>
      </trkpt>
      <trkpt lat="45.33182" lon="1.82691">
        <ele>410.13433837891</ele>
        <time>2020-06-24T14:42:55.877Z</time>
      </trkpt>
      <trkpt lat="45.33181" lon="1.82685">
        <ele>409.37649536133</ele>
        <time>2020-06-24T14:42:56.651Z</time>
      </trkpt>
      <trkpt lat="45.3317" lon="1.82638">
        <ele>402.31652832031</ele>
        <time>2020-06-24T14:42:57.431Z</time>
      </trkpt>
      <trkpt lat="45.33169" lon="1.82624">
        <ele>400.00091552734</ele>
        <time>2020-06-24T14:42:58.213Z</time>
      </trkpt>
      <trkpt lat="45.33172" lon="1.82609">
        <ele>398.46887207031</ele>
        <time>2020-06-24T14:42:58.996Z</time>
      </trkpt>
      <trkpt lat="45.33182" lon="1.82584">
        <ele>395.76934814453</ele>
        <time>2020-06-24T14:42:59.783Z</time>
      </trkpt>
      <trkpt lat="45.33207" lon="1.82534">
        <ele>392.06756591797</ele>
        <time>2020-06-24T14:43:00.576Z</time>
      </trkpt>
      <trkpt lat="45.3322" lon="1.82498">
        <ele>386.68927001953</ele>
        <time>2020-06-24T14:43:01.374Z</time>
      </trkpt>
      <trkpt lat="45.33232" lon="1.8248">
        <ele>385.23187255859</ele>
        <time>2020-06-24T14:43:02.175Z</time>
      </trkpt>
      <trkpt lat="45.33285" lon="1.82414">
        <ele>379.01715087891</ele>
        <time>2020-06-24T14:43:02.987Z</time>
      </trkpt>
      <trkpt lat="45.33312" lon="1.8239">
        <ele>376.49713134766</ele>
        <time>2020-06-24T14:43:03.804Z</time>
      </trkpt>
      <trkpt lat="45.33328" lon="1.82379">
        <ele>375.62127685547</ele>
        <time>2020-06-24T14:43:04.624Z</time>
      </trkpt>
      <trkpt lat="45.33351" lon="1.82369">
        <ele>374.31329345703</ele>
        <time>2020-06-24T14:43:05.448Z</time>
      </trkpt>
      <trkpt lat="45.3338" lon="1.8236">
        <ele>369.6100769043</ele>
        <time>2020-06-24T14:43:06.277Z</time>
      </trkpt>
      <trkpt lat="45.33418" lon="1.82356">
        <ele>360.31701660156</ele>
        <time>2020-06-24T14:43:07.112Z</time>
      </trkpt>
      <trkpt lat="45.3343" lon="1.82358">
        <ele>358.92526245117</ele>
        <time>2020-06-24T14:43:07.949Z</time>
      </trkpt>
      <trkpt lat="45.3344" lon="1.82367">
        <ele>358.99725341797</ele>
        <time>2020-06-24T14:43:08.788Z</time>
      </trkpt>
      <trkpt lat="45.33452" lon="1.82392">
        <ele>361.46884155273</ele>
        <time>2020-06-24T14:43:09.630Z</time>
      </trkpt>
      <trkpt lat="45.33458" lon="1.8241">
        <ele>364.18353271484</ele>
        <time>2020-06-24T14:43:10.474Z</time>
      </trkpt>
      <trkpt lat="45.33464" lon="1.82416">
        <ele>363.91195678711</ele>
        <time>2020-06-24T14:43:11.319Z</time>
      </trkpt>
      <trkpt lat="45.33468" lon="1.82418">
        <ele>364.75180053711</ele>
        <time>2020-06-24T14:43:12.165Z</time>
      </trkpt>
      <trkpt lat="45.33475" lon="1.82416">
        <ele>365.19900512695</ele>
        <time>2020-06-24T14:43:13.012Z</time>
      </trkpt>
      <trkpt lat="45.33485" lon="1.82411">
        <ele>364.41912841797</ele>
        <time>2020-06-24T14:43:13.861Z</time>
      </trkpt>
      <trkpt lat="45.335" lon="1.82396">
        <ele>362.14974975586</ele>
        <time>2020-06-24T14:43:14.713Z</time>
      </trkpt>
      <trkpt lat="45.33539" lon="1.82359">
        <ele>356.4348449707</ele>
        <time>2020-06-24T14:43:15.572Z</time>
      </trkpt>
      <trkpt lat="45.33576" lon="1.82333">
        <ele>350.93640136719</ele>
        <time>2020-06-24T14:43:16.438Z</time>
      </trkpt>
      <trkpt lat="45.33635" lon="1.8231">
        <ele>344.60864257812</ele>
        <time>2020-06-24T14:43:17.314Z</time>
      </trkpt>
      <trkpt lat="45.33653" lon="1.82302">
        <ele>341.75311279297</ele>
        <time>2020-06-24T14:43:18.193Z</time>
      </trkpt>
      <trkpt lat="45.33673" lon="1.82297">
        <ele>339.23352050781</ele>
        <time>2020-06-24T14:43:19.075Z</time>
      </trkpt>
      <trkpt lat="45.33691" lon="1.82297">
        <ele>337.82092285156</ele>
        <time>2020-06-24T14:43:19.960Z</time>
      </trkpt>
      <trkpt lat="45.33703" lon="1.82302">
        <ele>337.98889160156</ele>
        <time>2020-06-24T14:43:20.847Z</time>
      </trkpt>
      <trkpt lat="45.3371" lon="1.82308">
        <ele>338.45681762695</ele>
        <time>2020-06-24T14:43:21.735Z</time>
      </trkpt>
      <trkpt lat="45.33719" lon="1.82328">
        <ele>341.51895141602</ele>
        <time>2020-06-24T14:43:22.626Z</time>
      </trkpt>
      <trkpt lat="45.33729" lon="1.8235">
        <ele>347.34997558594</ele>
        <time>2020-06-24T14:43:23.520Z</time>
      </trkpt>
      <trkpt lat="45.33734" lon="1.82357">
        <ele>349.16168212891</ele>
        <time>2020-06-24T14:43:24.415Z</time>
      </trkpt>
      <trkpt lat="45.33744" lon="1.82364">
        <ele>350.85339355469</ele>
        <time>2020-06-24T14:43:25.312Z</time>
      </trkpt>
      <trkpt lat="45.33752" lon="1.82367">
        <ele>351.48928833008</ele>
        <time>2020-06-24T14:43:26.210Z</time>
      </trkpt>
      <trkpt lat="45.33774" lon="1.82369">
        <ele>351.19976806641</ele>
        <time>2020-06-24T14:43:27.112Z</time>
      </trkpt>
      <trkpt lat="45.33797" lon="1.82363">
        <ele>348.29623413086</ele>
        <time>2020-06-24T14:43:28.017Z</time>
      </trkpt>
      <trkpt lat="45.33834" lon="1.82351">
        <ele>340.99984741211</ele>
        <time>2020-06-24T14:43:28.928Z</time>
      </trkpt>
      <trkpt lat="45.33899" lon="1.82338">
        <ele>333.37756347656</ele>
        <time>2020-06-24T14:43:29.850Z</time>
      </trkpt>
      <trkpt lat="45.33944" lon="1.82331">
        <ele>326.16677856445</ele>
        <time>2020-06-24T14:43:30.779Z</time>
      </trkpt>
      <trkpt lat="45.33972" lon="1.82333">
        <ele>324.86618041992</ele>
        <time>2020-06-24T14:43:31.713Z</time>
      </trkpt>
      <trkpt lat="45.33996" lon="1.82338">
        <ele>327.31408691406</ele>
        <time>2020-06-24T14:43:32.651Z</time>
      </trkpt>
      <trkpt lat="45.34021" lon="1.82346">
        <ele>330.80548095703</ele>
        <time>2020-06-24T14:43:33.593Z</time>
      </trkpt>
      <trkpt lat="45.34038" lon="1.82349">
        <ele>332.38922119141</ele>
        <time>2020-06-24T14:43:34.537Z</time>
      </trkpt>
      <trkpt lat="45.3405" lon="1.82345">
        <ele>331.5881652832</ele>
        <time>2020-06-24T14:43:35.483Z</time>
      </trkpt>
      <trkpt lat="45.34059" lon="1.82337">
        <ele>329.53649902344</ele>
        <time>2020-06-24T14:43:36.431Z</time>
      </trkpt>
      <trkpt lat="45.34073" lon="1.82321">
        <ele>324.65487670898</ele>
        <time>2020-06-24T14:43:37.382Z</time>
      </trkpt>
      <trkpt lat="45.3411" lon="1.82271">
        <ele>313.02484130859</ele>
        <time>2020-06-24T14:43:38.341Z</time>
      </trkpt>
      <trkpt lat="45.34133" lon="1.82228">
        <ele>303.21697998047</ele>
        <time>2020-06-24T14:43:39.306Z</time>
      </trkpt>
      <trkpt lat="45.3414" lon="1.82219">
        <ele>300.31344604492</ele>
        <time>2020-06-24T14:43:40.273Z</time>
      </trkpt>
      <trkpt lat="45.34145" lon="1.82216">
        <ele>298.60974121094</ele>
        <time>2020-06-24T14:43:41.241Z</time>
      </trkpt>
      <trkpt lat="45.34151" lon="1.82217">
        <ele>297.06198120117</ele>
        <time>2020-06-24T14:43:42.210Z</time>
      </trkpt>
      <trkpt lat="45.34157" lon="1.82222">
        <ele>295.94616699219</ele>
        <time>2020-06-24T14:43:43.180Z</time>
      </trkpt>
      <trkpt lat="45.34171" lon="1.82254">
        <ele>297.92260742188</ele>
        <time>2020-06-24T14:43:44.154Z</time>
      </trkpt>
      <trkpt lat="45.34185" lon="1.82277">
        <ele>300.13021850586</ele>
        <time>2020-06-24T14:43:45.131Z</time>
      </trkpt>
      <trkpt lat="45.34203" lon="1.823">
        <ele>301.23403930664</ele>
        <time>2020-06-24T14:43:46.112Z</time>
      </trkpt>
      <trkpt lat="45.34254" lon="1.82335">
        <ele>297.80932617188</ele>
        <time>2020-06-24T14:43:47.102Z</time>
      </trkpt>
      <trkpt lat="45.3428" lon="1.82349">
        <ele>295.6496887207</ele>
        <time>2020-06-24T14:43:48.097Z</time>
      </trkpt>
      <trkpt lat="45.34299" lon="1.82356">
        <ele>292.92944335938</ele>
        <time>2020-06-24T14:43:49.095Z</time>
      </trkpt>
      <trkpt lat="45.34372" lon="1.82386">
        <ele>284.173828125</ele>
        <time>2020-06-24T14:43:50.105Z</time>
      </trkpt>
      <trkpt lat="45.34389" lon="1.82396">
        <ele>284.25238037109</ele>
        <time>2020-06-24T14:43:51.118Z</time>
      </trkpt>
      <trkpt lat="45.34404" lon="1.82411">
        <ele>286.10977172852</ele>
        <time>2020-06-24T14:43:52.134Z</time>
      </trkpt>
      <trkpt lat="45.34411" lon="1.82417">
        <ele>287.94546508789</ele>
        <time>2020-06-24T14:43:53.151Z</time>
      </trkpt>
      <trkpt lat="45.3442" lon="1.82419">
        <ele>288.31741333008</ele>
        <time>2020-06-24T14:43:54.170Z</time>
      </trkpt>
      <trkpt lat="45.34444" lon="1.82414">
        <ele>285.71383666992</ele>
        <time>2020-06-24T14:43:55.193Z</time>
      </trkpt>
      <trkpt lat="45.34456" lon="1.82411">
        <ele>284.23809814453</ele>
        <time>2020-06-24T14:43:56.218Z</time>
      </trkpt>
      <trkpt lat="45.34464" lon="1.82405">
        <ele>282.0227355957</ele>
        <time>2020-06-24T14:43:57.244Z</time>
      </trkpt>
      <trkpt lat="45.3447" lon="1.82395">
        <ele>282.94464111328</ele>
        <time>2020-06-24T14:43:58.271Z</time>
      </trkpt>
      <trkpt lat="45.34472" lon="1.82382">
        <ele>284.06045532227</ele>
        <time>2020-06-24T14:43:59.300Z</time>
      </trkpt>
      <trkpt lat="45.3447" lon="1.82361">
        <ele>285.80017089844</ele>
        <time>2020-06-24T14:44:00.331Z</time>
      </trkpt>
      <trkpt lat="45.34468" lon="1.82358">
        <ele>286.02813720703</ele>
        <time>2020-06-24T14:44:01.363Z</time>
      </trkpt>
      <trkpt lat="45.34438" lon="1.82345">
        <ele>284.56631469727</ele>
        <time>2020-06-24T14:44:02.400Z</time>
      </trkpt>
      <trkpt lat="45.34417" lon="1.8233">
        <ele>283.81045532227</ele>
        <time>2020-06-24T14:44:03.441Z</time>
      </trkpt>
      <trkpt lat="45.34397" lon="1.8231">
        <ele>286.03039550781</ele>
        <time>2020-06-24T14:44:04.486Z</time>
      </trkpt>
      <trkpt lat="45.34379" lon="1.82287">
        <ele>290.56405639648</ele>
        <time>2020-06-24T14:44:05.534Z</time>
      </trkpt>
      <trkpt lat="45.34353" lon="1.8225">
        <ele>293.41958618164</ele>
        <time>2020-06-24T14:44:06.588Z</time>
      </trkpt>
      <trkpt lat="45.34319" lon="1.82194">
        <ele>292.37252807617</ele>
        <time>2020-06-24T14:44:07.651Z</time>
      </trkpt>
      <trkpt lat="45.34312" lon="1.82178">
        <ele>292.38452148438</ele>
        <time>2020-06-24T14:44:08.716Z</time>
      </trkpt>
      <trkpt lat="45.34307" lon="1.82162">
        <ele>293.1022644043</ele>
        <time>2020-06-24T14:44:09.783Z</time>
      </trkpt>
      <trkpt lat="45.34306" lon="1.82145">
        <ele>294.25375366211</ele>
        <time>2020-06-24T14:44:10.852Z</time>
      </trkpt>
      <trkpt lat="45.34313" lon="1.82118">
        <ele>297.57720947266</ele>
        <time>2020-06-24T14:44:11.924Z</time>
      </trkpt>
      <trkpt lat="45.34317" lon="1.82107">
        <ele>299.31692504883</ele>
        <time>2020-06-24T14:44:12.997Z</time>
      </trkpt>
      <trkpt lat="45.34319" lon="1.82101">
        <ele>300.30380249023</ele>
        <time>2020-06-24T14:44:14.071Z</time>
      </trkpt>
      <trkpt lat="45.34365" lon="1.81983">
        <ele>315.38577270508</ele>
        <time>2020-06-24T14:44:15.160Z</time>
      </trkpt>
      <trkpt lat="45.34381" lon="1.81944">
        <ele>312.34616088867</ele>
        <time>2020-06-24T14:44:16.254Z</time>
      </trkpt>
      <trkpt lat="45.34387" lon="1.81936">
        <ele>312.15417480469</ele>
        <time>2020-06-24T14:44:17.350Z</time>
      </trkpt>
      <trkpt lat="45.34398" lon="1.81934">
        <ele>314.84173583984</ele>
        <time>2020-06-24T14:44:18.447Z</time>
      </trkpt>
      <trkpt lat="45.34412" lon="1.81934">
        <ele>318.96490478516</ele>
        <time>2020-06-24T14:44:19.547Z</time>
      </trkpt>
      <trkpt lat="45.34424" lon="1.81931">
        <ele>322.24038696289</ele>
        <time>2020-06-24T14:44:20.649Z</time>
      </trkpt>
      <trkpt lat="45.34436" lon="1.81921">
        <ele>324.08807373047</ele>
        <time>2020-06-24T14:44:21.753Z</time>
      </trkpt>
      <trkpt lat="45.34474" lon="1.81877">
        <ele>322.60263061523</ele>
        <time>2020-06-24T14:44:22.865Z</time>
      </trkpt>
      <trkpt lat="45.34497" lon="1.81856">
        <ele>319.93905639648</ele>
        <time>2020-06-24T14:44:23.981Z</time>
      </trkpt>
      <trkpt lat="45.34511" lon="1.81848">
        <ele>321.61880493164</ele>
        <time>2020-06-24T14:44:25.100Z</time>
      </trkpt>
      <trkpt lat="45.34546" lon="1.81844">
        <ele>329.89743041992</ele>
        <time>2020-06-24T14:44:26.224Z</time>
      </trkpt>
      <trkpt lat="45.34577" lon="1.81839">
        <ele>333.52877807617</ele>
        <time>2020-06-24T14:44:27.353Z</time>
      </trkpt>
      <trkpt lat="45.34582" lon="1.81836">
        <ele>333.99404907227</ele>
        <time>2020-06-24T14:44:28.483Z</time>
      </trkpt>
      <trkpt lat="45.34586" lon="1.81834">
        <ele>334.41665649414</ele>
        <time>2020-06-24T14:44:29.614Z</time>
      </trkpt>
      <trkpt lat="45.34592" lon="1.81827">
        <ele>334.39263916016</ele>
        <time>2020-06-24T14:44:30.746Z</time>
      </trkpt>
      <trkpt lat="45.34594" lon="1.8182">
        <ele>333.69564819336</ele>
        <time>2020-06-24T14:44:31.879Z</time>
      </trkpt>
      <trkpt lat="45.34594" lon="1.81798">
        <ele>331.05609130859</ele>
        <time>2020-06-24T14:44:33.014Z</time>
      </trkpt>
      <trkpt lat="45.34594" lon="1.81784">
        <ele>329.32055664062</ele>
        <time>2020-06-24T14:44:34.151Z</time>
      </trkpt>
      <trkpt lat="45.34596" lon="1.81768">
        <ele>326.92095947266</ele>
        <time>2020-06-24T14:44:35.290Z</time>
      </trkpt>
      <trkpt lat="45.34605" lon="1.81743">
        <ele>324.01745605469</ele>
        <time>2020-06-24T14:44:36.432Z</time>
      </trkpt>
      <trkpt lat="45.34614" lon="1.81726">
        <ele>326.5491027832</ele>
        <time>2020-06-24T14:44:37.576Z</time>
      </trkpt>
      <trkpt lat="45.3462" lon="1.8172">
        <ele>325.81692504883</ele>
        <time>2020-06-24T14:44:38.721Z</time>
      </trkpt>
      <trkpt lat="45.34632" lon="1.81712">
        <ele>322.49847412109</ele>
        <time>2020-06-24T14:44:39.869Z</time>
      </trkpt>
      <trkpt lat="45.34629" lon="1.81698">
        <ele>320.50180053711</ele>
        <time>2020-06-24T14:44:41.018Z</time>
      </trkpt>
      <trkpt lat="45.3463" lon="1.8168">
        <ele>317.29833984375</ele>
        <time>2020-06-24T14:44:42.169Z</time>
      </trkpt>
      <trkpt lat="45.34634" lon="1.81665">
        <ele>314.55578613281</ele>
        <time>2020-06-24T14:44:43.322Z</time>
      </trkpt>
      <trkpt lat="45.34646" lon="1.81632">
        <ele>312.28329467773</ele>
        <time>2020-06-24T14:44:44.479Z</time>
      </trkpt>
      <trkpt lat="45.34648" lon="1.81627">
        <ele>312.23529052734</ele>
        <time>2020-06-24T14:44:45.637Z</time>
      </trkpt>
      <trkpt lat="45.34645" lon="1.81605">
        <ele>313.01516723633</ele>
        <time>2020-06-24T14:44:46.797Z</time>
      </trkpt>
      <trkpt lat="45.34642" lon="1.81584">
        <ele>313.77102661133</ele>
        <time>2020-06-24T14:44:47.960Z</time>
      </trkpt>
      <trkpt lat="45.34638" lon="1.8157">
        <ele>312.42340087891</ele>
        <time>2020-06-24T14:44:49.125Z</time>
      </trkpt>
      <trkpt lat="45.34621" lon="1.81538">
        <ele>314.5048828125</ele>
        <time>2020-06-24T14:44:50.294Z</time>
      </trkpt>
      <trkpt lat="45.34609" lon="1.81515">
        <ele>315.45272827148</ele>
        <time>2020-06-24T14:44:51.466Z</time>
      </trkpt>
      <trkpt lat="45.34602" lon="1.81505">
        <ele>316.29260253906</ele>
        <time>2020-06-24T14:44:52.640Z</time>
      </trkpt>
      <trkpt lat="45.34587" lon="1.81493">
        <ele>318.88415527344</ele>
        <time>2020-06-24T14:44:53.817Z</time>
      </trkpt>
      <trkpt lat="45.34561" lon="1.81487">
        <ele>324.48580932617</ele>
        <time>2020-06-24T14:44:54.998Z</time>
      </trkpt>
      <trkpt lat="45.34549" lon="1.81484">
        <ele>326.86141967773</ele>
        <time>2020-06-24T14:44:56.181Z</time>
      </trkpt>
      <trkpt lat="45.34545" lon="1.81481">
        <ele>327.00604248047</ele>
        <time>2020-06-24T14:44:57.365Z</time>
      </trkpt>
      <trkpt lat="45.34538" lon="1.81477">
        <ele>326.84860229492</ele>
        <time>2020-06-24T14:44:58.550Z</time>
      </trkpt>
      <trkpt lat="45.34528" lon="1.81468">
        <ele>326.17669677734</ele>
        <time>2020-06-24T14:44:59.737Z</time>
      </trkpt>
      <trkpt lat="45.34517" lon="1.81452">
        <ele>324.41299438477</ele>
        <time>2020-06-24T14:45:00.926Z</time>
      </trkpt>
      <trkpt lat="45.34497" lon="1.81405">
        <ele>318.2356262207</ele>
        <time>2020-06-24T14:45:02.121Z</time>
      </trkpt>
      <trkpt lat="45.34489" lon="1.81376">
        <ele>318.5595703125</ele>
        <time>2020-06-24T14:45:03.320Z</time>
      </trkpt>
      <trkpt lat="45.34477" lon="1.81339">
        <ele>319.12347412109</ele>
        <time>2020-06-24T14:45:04.523Z</time>
      </trkpt>
      <trkpt lat="45.34475" lon="1.81332">
        <ele>319.11459350586</ele>
        <time>2020-06-24T14:45:05.727Z</time>
      </trkpt>
      <trkpt lat="45.34456" lon="1.813">
        <ele>318.09338378906</ele>
        <time>2020-06-24T14:45:06.936Z</time>
      </trkpt>
      <trkpt lat="45.34438" lon="1.81277">
        <ele>316.31768798828</ele>
        <time>2020-06-24T14:45:08.149Z</time>
      </trkpt>
      <trkpt lat="45.34436" lon="1.81274">
        <ele>316.07772827148</ele>
        <time>2020-06-24T14:45:09.362Z</time>
      </trkpt>
      <trkpt lat="45.34436" lon="1.81266">
        <ele>315.3098449707</ele>
        <time>2020-06-24T14:45:10.576Z</time>
      </trkpt>
      <trkpt lat="45.34436" lon="1.81249">
        <ele>313.67813110352</ele>
        <time>2020-06-24T14:45:11.792Z</time>
      </trkpt>
      <trkpt lat="45.34435" lon="1.81223">
        <ele>313.63137817383</ele>
        <time>2020-06-24T14:45:13.011Z</time>
      </trkpt>
      <trkpt lat="45.34436" lon="1.81202">
        <ele>313.24951171875</ele>
        <time>2020-06-24T14:45:14.233Z</time>
      </trkpt>
      <trkpt lat="45.3444" lon="1.81176">
        <ele>308.95422363281</ele>
        <time>2020-06-24T14:45:15.458Z</time>
      </trkpt>
      <trkpt lat="45.34443" lon="1.81161">
        <ele>306.32666015625</ele>
        <time>2020-06-24T14:45:16.684Z</time>
      </trkpt>
      <trkpt lat="45.34445" lon="1.81139">
        <ele>305.51788330078</ele>
        <time>2020-06-24T14:45:17.913Z</time>
      </trkpt>
      <trkpt lat="45.3444" lon="1.81094">
        <ele>302.78381347656</ele>
        <time>2020-06-24T14:45:19.147Z</time>
      </trkpt>
      <trkpt lat="45.34435" lon="1.81038">
        <ele>296.78643798828</ele>
        <time>2020-06-24T14:45:20.387Z</time>
      </trkpt>
      <trkpt lat="45.34434" lon="1.81006">
        <ele>293.99090576172</ele>
        <time>2020-06-24T14:45:21.631Z</time>
      </trkpt>
      <trkpt lat="45.34431" lon="1.80989">
        <ele>293.18704223633</ele>
        <time>2020-06-24T14:45:22.877Z</time>
      </trkpt>
      <trkpt lat="45.34428" lon="1.80983">
        <ele>293.24084472656</ele>
        <time>2020-06-24T14:45:24.124Z</time>
      </trkpt>
      <trkpt lat="45.34425" lon="1.80979">
        <ele>293.54080200195</ele>
        <time>2020-06-24T14:45:25.371Z</time>
      </trkpt>
      <trkpt lat="45.34412" lon="1.80973">
        <ele>296.33633422852</ele>
        <time>2020-06-24T14:45:26.621Z</time>
      </trkpt>
      <trkpt lat="45.34405" lon="1.80971">
        <ele>298.00405883789</ele>
        <time>2020-06-24T14:45:27.872Z</time>
      </trkpt>
      <trkpt lat="45.34397" lon="1.80965">
        <ele>299.41983032227</ele>
        <time>2020-06-24T14:45:29.124Z</time>
      </trkpt>
      <trkpt lat="45.34391" lon="1.80954">
        <ele>299.62377929688</ele>
        <time>2020-06-24T14:45:30.378Z</time>
      </trkpt>
      <trkpt lat="45.34386" lon="1.80926">
        <ele>297.30816650391</ele>
        <time>2020-06-24T14:45:31.635Z</time>
      </trkpt>
      <trkpt lat="45.34388" lon="1.809">
        <ele>294.53845214844</ele>
        <time>2020-06-24T14:45:32.895Z</time>
      </trkpt>
      <trkpt lat="45.34394" lon="1.8086">
        <ele>291.61093139648</ele>
        <time>2020-06-24T14:45:34.160Z</time>
      </trkpt>
      <trkpt lat="45.34398" lon="1.80829">
        <ele>289.57171630859</ele>
        <time>2020-06-24T14:45:35.428Z</time>
      </trkpt>
      <trkpt lat="45.34394" lon="1.8081">
        <ele>288.37814331055</ele>
        <time>2020-06-24T14:45:36.698Z</time>
      </trkpt>
      <trkpt lat="45.34384" lon="1.80789">
        <ele>287.16632080078</ele>
        <time>2020-06-24T14:45:37.971Z</time>
      </trkpt>
      <trkpt lat="45.34377" lon="1.80782">
        <ele>286.92694091797</ele>
        <time>2020-06-24T14:45:39.246Z</time>
      </trkpt>
      <trkpt lat="45.34372" lon="1.80778">
        <ele>286.63900756836</ele>
        <time>2020-06-24T14:45:40.521Z</time>
      </trkpt>
      <trkpt lat="45.34362" lon="1.80776">
        <ele>286.85494995117</ele>
        <time>2020-06-24T14:45:41.798Z</time>
      </trkpt>
      <trkpt lat="45.34346" lon="1.8078">
        <ele>288.15075683594</ele>
        <time>2020-06-24T14:45:43.078Z</time>
      </trkpt>
      <trkpt lat="45.3432" lon="1.8079">
        <ele>293.845703125</ele>
        <time>2020-06-24T14:45:44.362Z</time>
      </trkpt>
      <trkpt lat="45.34311" lon="1.80795">
        <ele>296.44924926758</ele>
        <time>2020-06-24T14:45:45.648Z</time>
      </trkpt>
      <trkpt lat="45.34306" lon="1.80798">
        <ele>298.02041625977</ele>
        <time>2020-06-24T14:45:46.934Z</time>
      </trkpt>
      <trkpt lat="45.34297" lon="1.80803">
        <ele>300.60360717773</ele>
        <time>2020-06-24T14:45:48.222Z</time>
      </trkpt>
      <trkpt lat="45.34289" lon="1.80805">
        <ele>303.29113769531</ele>
        <time>2020-06-24T14:45:49.511Z</time>
      </trkpt>
      <trkpt lat="45.34284" lon="1.80804">
        <ele>304.43096923828</ele>
        <time>2020-06-24T14:45:50.801Z</time>
      </trkpt>
      <trkpt lat="45.34278" lon="1.80798">
        <ele>304.64691162109</ele>
        <time>2020-06-24T14:45:52.092Z</time>
      </trkpt>
      <trkpt lat="45.34274" lon="1.80791">
        <ele>304.0710144043</ele>
        <time>2020-06-24T14:45:53.384Z</time>
      </trkpt>
      <trkpt lat="45.34276" lon="1.80771">
        <ele>298.71990966797</ele>
        <time>2020-06-24T14:45:54.679Z</time>
      </trkpt>
      <trkpt lat="45.34281" lon="1.8076">
        <ele>294.70059204102</ele>
        <time>2020-06-24T14:45:55.975Z</time>
      </trkpt>
      <trkpt lat="45.34294" lon="1.80738">
        <ele>285.96743774414</ele>
        <time>2020-06-24T14:45:57.274Z</time>
      </trkpt>
      <trkpt lat="45.34323" lon="1.80701">
        <ele>280.62622070312</ele>
        <time>2020-06-24T14:45:58.580Z</time>
      </trkpt>
      <trkpt lat="45.34329" lon="1.80685">
        <ele>278.93365478516</ele>
        <time>2020-06-24T14:45:59.888Z</time>
      </trkpt>
      <trkpt lat="45.34327" lon="1.80659">
        <ele>275.9821472168</ele>
        <time>2020-06-24T14:46:01.199Z</time>
      </trkpt>
      <trkpt lat="45.34321" lon="1.80635">
        <ele>274.81329345703</ele>
        <time>2020-06-24T14:46:02.512Z</time>
      </trkpt>
      <trkpt lat="45.34312" lon="1.80612">
        <ele>274.18939208984</ele>
        <time>2020-06-24T14:46:03.828Z</time>
      </trkpt>
      <trkpt lat="45.34305" lon="1.806">
        <ele>274.05740356445</ele>
        <time>2020-06-24T14:46:05.146Z</time>
      </trkpt>
      <trkpt lat="45.34284" lon="1.80575">
        <ele>277.70394897461</ele>
        <time>2020-06-24T14:46:06.469Z</time>
      </trkpt>
      <trkpt lat="45.34267" lon="1.80552">
        <ele>279.18902587891</ele>
        <time>2020-06-24T14:46:07.795Z</time>
      </trkpt>
      <trkpt lat="45.34257" lon="1.80534">
        <ele>278.87707519531</ele>
        <time>2020-06-24T14:46:09.124Z</time>
      </trkpt>
      <trkpt lat="45.34242" lon="1.80499">
        <ele>279.89874267578</ele>
        <time>2020-06-24T14:46:10.457Z</time>
      </trkpt>
      <trkpt lat="45.3423" lon="1.80466">
        <ele>278.28842163086</ele>
        <time>2020-06-24T14:46:11.795Z</time>
      </trkpt>
      <trkpt lat="45.34219" lon="1.80444">
        <ele>276.83666992188</ele>
        <time>2020-06-24T14:46:13.136Z</time>
      </trkpt>
      <trkpt lat="45.34203" lon="1.80419">
        <ele>277.32781982422</ele>
        <time>2020-06-24T14:46:14.481Z</time>
      </trkpt>
      <trkpt lat="45.34182" lon="1.80372">
        <ele>274.64630126953</ele>
        <time>2020-06-24T14:46:15.832Z</time>
      </trkpt>
      <trkpt lat="45.34165" lon="1.80336">
        <ele>275.16220092773</ele>
        <time>2020-06-24T14:46:17.188Z</time>
      </trkpt>
      <trkpt lat="45.34152" lon="1.80316">
        <ele>275.23095703125</ele>
        <time>2020-06-24T14:46:18.547Z</time>
      </trkpt>
      <trkpt lat="45.34135" lon="1.80296">
        <ele>274.11514282227</ele>
        <time>2020-06-24T14:46:19.909Z</time>
      </trkpt>
      <trkpt lat="45.34084" lon="1.80224">
        <ele>273.06491088867</ele>
        <time>2020-06-24T14:46:21.283Z</time>
      </trkpt>
      <trkpt lat="45.34047" lon="1.80167">
        <ele>271.25039672852</ele>
        <time>2020-06-24T14:46:22.666Z</time>
      </trkpt>
      <trkpt lat="45.34038" lon="1.80145">
        <ele>269.43475341797</ele>
        <time>2020-06-24T14:46:24.051Z</time>
      </trkpt>
      <trkpt lat="45.3403" lon="1.80116">
        <ele>269.31478881836</ele>
        <time>2020-06-24T14:46:25.440Z</time>
      </trkpt>
      <trkpt lat="45.34031" lon="1.80104">
        <ele>268.95483398438</ele>
        <time>2020-06-24T14:46:26.830Z</time>
      </trkpt>
      <trkpt lat="45.34034" lon="1.80092">
        <ele>268.45092773438</ele>
        <time>2020-06-24T14:46:28.222Z</time>
      </trkpt>
      <trkpt lat="45.34063" lon="1.80048">
        <ele>273.66714477539</ele>
        <time>2020-06-24T14:46:29.621Z</time>
      </trkpt>
      <trkpt lat="45.34071" lon="1.80024">
        <ele>277.79446411133</ele>
        <time>2020-06-24T14:46:31.023Z</time>
      </trkpt>
      <trkpt lat="45.34071" lon="1.79996">
        <ele>279.09133911133</ele>
        <time>2020-06-24T14:46:32.428Z</time>
      </trkpt>
      <trkpt lat="45.34066" lon="1.79967">
        <ele>281.64761352539</ele>
        <time>2020-06-24T14:46:33.836Z</time>
      </trkpt>
      <trkpt lat="45.34055" lon="1.79941">
        <ele>282.89538574219</ele>
        <time>2020-06-24T14:46:35.247Z</time>
      </trkpt>
      <trkpt lat="45.3404" lon="1.79915">
        <ele>283.33831787109</ele>
        <time>2020-06-24T14:46:36.662Z</time>
      </trkpt>
      <trkpt lat="45.34006" lon="1.79867">
        <ele>283.41030883789</ele>
        <time>2020-06-24T14:46:38.085Z</time>
      </trkpt>
      <trkpt lat="45.33988" lon="1.79842">
        <ele>283.98025512695</ele>
        <time>2020-06-24T14:46:39.512Z</time>
      </trkpt>
      <trkpt lat="45.33969" lon="1.7981">
        <ele>286.01812744141</ele>
        <time>2020-06-24T14:46:40.944Z</time>
      </trkpt>
      <trkpt lat="45.33952" lon="1.79775">
        <ele>288.419921875</ele>
        <time>2020-06-24T14:46:42.381Z</time>
      </trkpt>
      <trkpt lat="45.33935" lon="1.79728">
        <ele>292.16635131836</ele>
        <time>2020-06-24T14:46:43.823Z</time>
      </trkpt>
      <trkpt lat="45.33902" lon="1.79621">
        <ele>288.04217529297</ele>
        <time>2020-06-24T14:46:45.279Z</time>
      </trkpt>
      <trkpt lat="45.33897" lon="1.79596">
        <ele>286.2424621582</ele>
        <time>2020-06-24T14:46:46.738Z</time>
      </trkpt>
      <trkpt lat="45.33894" lon="1.79565">
        <ele>286.41918945312</ele>
        <time>2020-06-24T14:46:48.200Z</time>
      </trkpt>
      <trkpt lat="45.33892" lon="1.7954">
        <ele>288.73480224609</ele>
        <time>2020-06-24T14:46:49.665Z</time>
      </trkpt>
      <trkpt lat="45.3389" lon="1.79532">
        <ele>288.96743774414</ele>
        <time>2020-06-24T14:46:51.131Z</time>
      </trkpt>
      <trkpt lat="45.33888" lon="1.79521">
        <ele>289.27471923828</ele>
        <time>2020-06-24T14:46:52.598Z</time>
      </trkpt>
      <trkpt lat="45.3388" lon="1.79493">
        <ele>289.16705322266</ele>
        <time>2020-06-24T14:46:54.069Z</time>
      </trkpt>
      <trkpt lat="45.33854" lon="1.79424">
        <ele>289.07553100586</ele>
        <time>2020-06-24T14:46:55.548Z</time>
      </trkpt>
      <trkpt lat="45.33838" lon="1.79391">
        <ele>286.35974121094</ele>
        <time>2020-06-24T14:46:57.032Z</time>
      </trkpt>
      <trkpt lat="45.33827" lon="1.79375">
        <ele>282.74835205078</ele>
        <time>2020-06-24T14:46:58.518Z</time>
      </trkpt>
      <trkpt lat="45.33807" lon="1.79356">
        <ele>275.2135925293</ele>
        <time>2020-06-24T14:47:00.008Z</time>
      </trkpt>
      <trkpt lat="45.3379" lon="1.79339">
        <ele>271.00476074219</ele>
        <time>2020-06-24T14:47:01.502Z</time>
      </trkpt>
      <trkpt lat="45.33785" lon="1.79331">
        <ele>270.8727722168</ele>
        <time>2020-06-24T14:47:02.997Z</time>
      </trkpt>
      <trkpt lat="45.33783" lon="1.79323">
        <ele>271.28070068359</ele>
        <time>2020-06-24T14:47:04.493Z</time>
      </trkpt>
      <trkpt lat="45.33784" lon="1.79313">
        <ele>271.90698242188</ele>
        <time>2020-06-24T14:47:05.990Z</time>
      </trkpt>
      <trkpt lat="45.33786" lon="1.79307">
        <ele>272.44427490234</ele>
        <time>2020-06-24T14:47:07.488Z</time>
      </trkpt>
      <trkpt lat="45.33807" lon="1.79267">
        <ele>279.59671020508</ele>
        <time>2020-06-24T14:47:08.991Z</time>
      </trkpt>
      <trkpt lat="45.33825" lon="1.79224">
        <ele>283.73837280273</ele>
        <time>2020-06-24T14:47:10.500Z</time>
      </trkpt>
      <trkpt lat="45.33827" lon="1.79216">
        <ele>283.21047973633</ele>
        <time>2020-06-24T14:47:12.010Z</time>
      </trkpt>
      <trkpt lat="45.33823" lon="1.79215">
        <ele>281.61474609375</ele>
        <time>2020-06-24T14:47:13.521Z</time>
      </trkpt>
      <trkpt lat="45.33815" lon="1.79211">
        <ele>278.111328125</ele>
        <time>2020-06-24T14:47:15.033Z</time>
      </trkpt>
      <trkpt lat="45.33795" lon="1.79196">
        <ele>269.58444213867</ele>
        <time>2020-06-24T14:47:16.549Z</time>
      </trkpt>
      <trkpt lat="45.3379" lon="1.79192">
        <ele>269.26257324219</ele>
        <time>2020-06-24T14:47:18.065Z</time>
      </trkpt>
      <trkpt lat="45.33785" lon="1.79187">
        <ele>268.90054321289</ele>
        <time>2020-06-24T14:47:19.582Z</time>
      </trkpt>
      <trkpt lat="45.3378" lon="1.79179">
        <ele>268.0126953125</ele>
        <time>2020-06-24T14:47:21.101Z</time>
      </trkpt>
      <trkpt lat="45.33777" lon="1.79171">
        <ele>266.98086547852</ele>
        <time>2020-06-24T14:47:22.621Z</time>
      </trkpt>
      <trkpt lat="45.33777" lon="1.79163">
        <ele>265.73306274414</ele>
        <time>2020-06-24T14:47:24.142Z</time>
      </trkpt>
      <trkpt lat="45.33785" lon="1.79136">
        <ele>265.1174621582</ele>
        <time>2020-06-24T14:47:25.666Z</time>
      </trkpt>
      <trkpt lat="45.33799" lon="1.79098">
        <ele>258.70150756836</ele>
        <time>2020-06-24T14:47:27.195Z</time>
      </trkpt>
      <trkpt lat="45.33828" lon="1.79034">
        <ele>261.11111450195</ele>
        <time>2020-06-24T14:47:28.732Z</time>
      </trkpt>
      <trkpt lat="45.3383" lon="1.79028">
        <ele>261.58706665039</ele>
        <time>2020-06-24T14:47:30.270Z</time>
      </trkpt>
      <trkpt lat="45.3384" lon="1.78992">
        <ele>260.69555664062</ele>
        <time>2020-06-24T14:47:31.812Z</time>
      </trkpt>
      <trkpt lat="45.33842" lon="1.78961">
        <ele>264.12185668945</ele>
        <time>2020-06-24T14:47:33.358Z</time>
      </trkpt>
      <trkpt lat="45.33839" lon="1.78946">
        <ele>266.0944519043</ele>
        <time>2020-06-24T14:47:34.906Z</time>
      </trkpt>
      <trkpt lat="45.33836" lon="1.78939">
        <ele>267.22229003906</ele>
        <time>2020-06-24T14:47:36.455Z</time>
      </trkpt>
      <trkpt lat="45.33826" lon="1.78926">
        <ele>268.99798583984</ele>
        <time>2020-06-24T14:47:38.006Z</time>
      </trkpt>
      <trkpt lat="45.33809" lon="1.78918">
        <ele>269.40097045898</ele>
        <time>2020-06-24T14:47:39.560Z</time>
      </trkpt>
      <trkpt lat="45.33803" lon="1.78916">
        <ele>269.59292602539</ele>
        <time>2020-06-24T14:47:41.115Z</time>
      </trkpt>
      <trkpt lat="45.33807" lon="1.789">
        <ele>272.21621704102</ele>
        <time>2020-06-24T14:47:42.672Z</time>
      </trkpt>
      <trkpt lat="45.33818" lon="1.78857">
        <ele>277.65130615234</ele>
        <time>2020-06-24T14:47:44.234Z</time>
      </trkpt>
      <trkpt lat="45.33826" lon="1.78802">
        <ele>281.52563476562</ele>
        <time>2020-06-24T14:47:45.802Z</time>
      </trkpt>
      <trkpt lat="45.33827" lon="1.78794">
        <ele>282.2848815918</ele>
        <time>2020-06-24T14:47:47.371Z</time>
      </trkpt>
      <trkpt lat="45.33834" lon="1.78757">
        <ele>282.54763793945</ele>
        <time>2020-06-24T14:47:48.944Z</time>
      </trkpt>
      <trkpt lat="45.33837" lon="1.78749">
        <ele>281.29983520508</ele>
        <time>2020-06-24T14:47:50.518Z</time>
      </trkpt>
      <trkpt lat="45.33864" lon="1.7871">
        <ele>280.72973632812</ele>
        <time>2020-06-24T14:47:52.099Z</time>
      </trkpt>
      <trkpt lat="45.33878" lon="1.78701">
        <ele>278.88204956055</ele>
        <time>2020-06-24T14:47:53.682Z</time>
      </trkpt>
      <trkpt lat="45.33893" lon="1.787">
        <ele>280.02951049805</ele>
        <time>2020-06-24T14:47:55.267Z</time>
      </trkpt>
      <trkpt lat="45.33911" lon="1.78701">
        <ele>282.23715209961</ele>
        <time>2020-06-24T14:47:56.855Z</time>
      </trkpt>
      <trkpt lat="45.33914" lon="1.78699">
        <ele>282.9690246582</ele>
        <time>2020-06-24T14:47:58.444Z</time>
      </trkpt>
      <trkpt lat="45.33934" lon="1.78662">
        <ele>281.31597900391</ele>
        <time>2020-06-24T14:48:00.038Z</time>
      </trkpt>
      <trkpt lat="45.33956" lon="1.78622">
        <ele>282.87451171875</ele>
        <time>2020-06-24T14:48:01.638Z</time>
      </trkpt>
      <trkpt lat="45.33984" lon="1.78577">
        <ele>286.51974487305</ele>
        <time>2020-06-24T14:48:03.245Z</time>
      </trkpt>
      <trkpt lat="45.3402" lon="1.78538">
        <ele>288.95114135742</ele>
        <time>2020-06-24T14:48:04.859Z</time>
      </trkpt>
      <trkpt lat="45.34024" lon="1.78531">
        <ele>288.09927368164</ele>
        <time>2020-06-24T14:48:06.474Z</time>
      </trkpt>
      <trkpt lat="45.34028" lon="1.7851">
        <ele>286.40756225586</ele>
        <time>2020-06-24T14:48:08.091Z</time>
      </trkpt>
      <trkpt lat="45.34028" lon="1.7848">
        <ele>285.48123168945</ele>
        <time>2020-06-24T14:48:09.712Z</time>
      </trkpt>
      <trkpt lat="45.34025" lon="1.78462">
        <ele>286.58013916016</ele>
        <time>2020-06-24T14:48:11.335Z</time>
      </trkpt>
      <trkpt lat="45.34008" lon="1.78392">
        <ele>289.42916870117</ele>
        <time>2020-06-24T14:48:12.966Z</time>
      </trkpt>
      <trkpt lat="45.34008" lon="1.78392">
        <ele>289.4289855957</ele>
        <time>2020-06-24T14:48:14.597Z</time>
      </trkpt>
      <trkpt lat="45.34007" lon="1.78392">
        <ele>289.5690612793</ele>
        <time>2020-06-24T14:48:16.228Z</time>
      </trkpt>
      <trkpt lat="45.33997" lon="1.7835">
        <ele>288.46954345703</ele>
        <time>2020-06-24T14:48:17.864Z</time>
      </trkpt>
      <trkpt lat="45.33994" lon="1.78307">
        <ele>288.24130249023</ele>
        <time>2020-06-24T14:48:19.505Z</time>
      </trkpt>
      <trkpt lat="45.34035" lon="1.78207">
        <ele>287.03686523438</ele>
        <time>2020-06-24T14:48:21.159Z</time>
      </trkpt>
      <trkpt lat="45.34053" lon="1.78192">
        <ele>291.5055847168</ele>
        <time>2020-06-24T14:48:22.817Z</time>
      </trkpt>
      <trkpt lat="45.34109" lon="1.78223">
        <ele>286.63980102539</ele>
        <time>2020-06-24T14:48:24.484Z</time>
      </trkpt>
      <trkpt lat="45.34131" lon="1.78219">
        <ele>287.68862915039</ele>
        <time>2020-06-24T14:48:26.155Z</time>
      </trkpt>
      <trkpt lat="45.34319" lon="1.78035">
        <ele>300.18893432617</ele>
        <time>2020-06-24T14:48:27.862Z</time>
      </trkpt>
      <trkpt lat="45.34357" lon="1.7798">
        <ele>296.87759399414</ele>
        <time>2020-06-24T14:48:29.578Z</time>
      </trkpt>
      <trkpt lat="45.34368" lon="1.77924">
        <ele>296.09902954102</ele>
        <time>2020-06-24T14:48:31.301Z</time>
      </trkpt>
      <trkpt lat="45.3438" lon="1.77791">
        <ele>300.01754760742</ele>
        <time>2020-06-24T14:48:33.039Z</time>
      </trkpt>
      <trkpt lat="45.34413" lon="1.77718">
        <ele>306.22537231445</ele>
        <time>2020-06-24T14:48:34.786Z</time>
      </trkpt>
      <trkpt lat="45.34448" lon="1.77689">
        <ele>300.51751708984</ele>
        <time>2020-06-24T14:48:36.540Z</time>
      </trkpt>
      <trkpt lat="45.34475" lon="1.77657">
        <ele>296.70785522461</ele>
        <time>2020-06-24T14:48:38.300Z</time>
      </trkpt>
      <trkpt lat="45.34475" lon="1.77562">
        <ele>306.14840698242</ele>
        <time>2020-06-24T14:48:40.070Z</time>
      </trkpt>
      <trkpt lat="45.3453" lon="1.7745">
        <ele>319.27310180664</ele>
        <time>2020-06-24T14:48:41.856Z</time>
      </trkpt>
      <trkpt lat="45.34531" lon="1.77338">
        <ele>329.98080444336</ele>
        <time>2020-06-24T14:48:43.654Z</time>
      </trkpt>
      <trkpt lat="45.34542" lon="1.77332">
        <ele>331.93740844727</ele>
        <time>2020-06-24T14:48:45.454Z</time>
      </trkpt>
      <trkpt lat="45.34552" lon="1.77339">
        <ele>332.91168212891</ele>
        <time>2020-06-24T14:48:47.256Z</time>
      </trkpt>
      <trkpt lat="45.34572" lon="1.77386">
        <ele>332.13934326172</ele>
        <time>2020-06-24T14:48:49.064Z</time>
      </trkpt>
      <trkpt lat="45.34579" lon="1.77443">
        <ele>320.48645019531</ele>
        <time>2020-06-24T14:48:50.879Z</time>
      </trkpt>
      <trkpt lat="45.34577" lon="1.77526">
        <ele>308.46029663086</ele>
        <time>2020-06-24T14:48:52.703Z</time>
      </trkpt>
      <trkpt lat="45.34597" lon="1.77524">
        <ele>309.90356445312</ele>
        <time>2020-06-24T14:48:54.530Z</time>
      </trkpt>
      <trkpt lat="45.34661" lon="1.77482">
        <ele>321.70928955078</ele>
        <time>2020-06-24T14:48:56.369Z</time>
      </trkpt>
      <trkpt lat="45.3469" lon="1.77483">
        <ele>321.00131225586</ele>
        <time>2020-06-24T14:48:58.212Z</time>
      </trkpt>
      <trkpt lat="45.34712" lon="1.7751">
        <ele>315.89440917969</ele>
        <time>2020-06-24T14:49:00.060Z</time>
      </trkpt>
      <trkpt lat="45.34727" lon="1.77513">
        <ele>316.80276489258</ele>
        <time>2020-06-24T14:49:01.910Z</time>
      </trkpt>
      <trkpt lat="45.34753" lon="1.77461">
        <ele>324.05569458008</ele>
        <time>2020-06-24T14:49:03.767Z</time>
      </trkpt>
      <trkpt lat="45.3479" lon="1.77424">
        <ele>325.54696655273</ele>
        <time>2020-06-24T14:49:05.632Z</time>
      </trkpt>
      <trkpt lat="45.3484" lon="1.77394">
        <ele>322.99530029297</ele>
        <time>2020-06-24T14:49:07.505Z</time>
      </trkpt>
      <trkpt lat="45.3489" lon="1.77319">
        <ele>323.1321105957</ele>
        <time>2020-06-24T14:49:09.390Z</time>
      </trkpt>
      <trkpt lat="45.3489" lon="1.77319">
        <ele>323.13049316406</ele>
        <time>2020-06-24T14:49:11.275Z</time>
      </trkpt>
      <trkpt lat="45.34901" lon="1.77302">
        <ele>323.48147583008</ele>
        <time>2020-06-24T14:49:13.163Z</time>
      </trkpt>
      <trkpt lat="45.34908" lon="1.77279">
        <ele>324.92318725586</ele>
        <time>2020-06-24T14:49:15.054Z</time>
      </trkpt>
      <trkpt lat="45.34908" lon="1.77255">
        <ele>325.42291259766</ele>
        <time>2020-06-24T14:49:16.947Z</time>
      </trkpt>
      <trkpt lat="45.349" lon="1.77229">
        <ele>326.9577331543</ele>
        <time>2020-06-24T14:49:18.844Z</time>
      </trkpt>
      <trkpt lat="45.349" lon="1.77229">
        <ele>326.96054077148</ele>
        <time>2020-06-24T14:49:20.741Z</time>
      </trkpt>
      <trkpt lat="45.3489" lon="1.77193">
        <ele>331.4787902832</ele>
        <time>2020-06-24T14:49:22.642Z</time>
      </trkpt>
      <trkpt lat="45.34893" lon="1.77172">
        <ele>331.16983032227</ele>
        <time>2020-06-24T14:49:24.545Z</time>
      </trkpt>
      <trkpt lat="45.34957" lon="1.77127">
        <ele>322.39599609375</ele>
        <time>2020-06-24T14:49:26.460Z</time>
      </trkpt>
      <trkpt lat="45.34974" lon="1.77102">
        <ele>323.78634643555</ele>
        <time>2020-06-24T14:49:28.379Z</time>
      </trkpt>
      <trkpt lat="45.3497" lon="1.77063">
        <ele>330.24716186523</ele>
        <time>2020-06-24T14:49:30.302Z</time>
      </trkpt>
      <trkpt lat="45.34956" lon="1.77032">
        <ele>339.07778930664</ele>
        <time>2020-06-24T14:49:32.229Z</time>
      </trkpt>
      <trkpt lat="45.34961" lon="1.77014">
        <ele>342.08993530273</ele>
        <time>2020-06-24T14:49:34.158Z</time>
      </trkpt>
      <trkpt lat="45.3498" lon="1.77009">
        <ele>338.7043762207</ele>
        <time>2020-06-24T14:49:36.090Z</time>
      </trkpt>
      <trkpt lat="45.35018" lon="1.77015">
        <ele>327.61315917969</ele>
        <time>2020-06-24T14:49:38.029Z</time>
      </trkpt>
      <trkpt lat="45.3504" lon="1.77002">
        <ele>324.13760375977</ele>
        <time>2020-06-24T14:49:39.971Z</time>
      </trkpt>
      <trkpt lat="45.35049" lon="1.76986">
        <ele>325.10873413086</ele>
        <time>2020-06-24T14:49:41.916Z</time>
      </trkpt>
      <trkpt lat="45.35087" lon="1.76866">
        <ele>340.61547851562</ele>
        <time>2020-06-24T14:49:43.876Z</time>
      </trkpt>
      <trkpt lat="45.35105" lon="1.76773">
        <ele>358.90921020508</ele>
        <time>2020-06-24T14:49:45.846Z</time>
      </trkpt>
      <trkpt lat="45.3512" lon="1.76763">
        <ele>359.75881958008</ele>
        <time>2020-06-24T14:49:47.819Z</time>
      </trkpt>
      <trkpt lat="45.35192" lon="1.76752">
        <ele>363.86367797852</ele>
        <time>2020-06-24T14:49:49.804Z</time>
      </trkpt>
      <trkpt lat="45.35274" lon="1.76773">
        <ele>352.12292480469</ele>
        <time>2020-06-24T14:49:51.802Z</time>
      </trkpt>
      <trkpt lat="45.35302" lon="1.76739">
        <ele>354.62750244141</ele>
        <time>2020-06-24T14:49:53.806Z</time>
      </trkpt>
      <trkpt lat="45.35308" lon="1.76681">
        <ele>356.76092529297</ele>
        <time>2020-06-24T14:49:55.817Z</time>
      </trkpt>
      <trkpt lat="45.35291" lon="1.76578">
        <ele>361.78707885742</ele>
        <time>2020-06-24T14:49:57.839Z</time>
      </trkpt>
      <trkpt lat="45.35281" lon="1.76549">
        <ele>364.94689941406</ele>
        <time>2020-06-24T14:49:59.865Z</time>
      </trkpt>
      <trkpt lat="45.35241" lon="1.76497">
        <ele>376.67370605469</ele>
        <time>2020-06-24T14:50:01.900Z</time>
      </trkpt>
      <trkpt lat="45.35242" lon="1.76473">
        <ele>379.07534790039</ele>
        <time>2020-06-24T14:50:03.937Z</time>
      </trkpt>
      <trkpt lat="45.35309" lon="1.76444">
        <ele>371.62655639648</ele>
        <time>2020-06-24T14:50:05.986Z</time>
      </trkpt>
      <trkpt lat="45.35332" lon="1.76412">
        <ele>374.12380981445</ele>
        <time>2020-06-24T14:50:08.040Z</time>
      </trkpt>
      <trkpt lat="45.35318" lon="1.76308">
        <ele>379.21878051758</ele>
        <time>2020-06-24T14:50:10.106Z</time>
      </trkpt>
      <trkpt lat="45.35298" lon="1.76264">
        <ele>386.05407714844</ele>
        <time>2020-06-24T14:50:12.178Z</time>
      </trkpt>
      <trkpt lat="45.35298" lon="1.76251">
        <ele>386.98089599609</ele>
        <time>2020-06-24T14:50:14.251Z</time>
      </trkpt>
      <trkpt lat="45.35308" lon="1.76238">
        <ele>385.38470458984</ele>
        <time>2020-06-24T14:50:16.326Z</time>
      </trkpt>
      <trkpt lat="45.35341" lon="1.76223">
        <ele>378.50378417969</ele>
        <time>2020-06-24T14:50:18.407Z</time>
      </trkpt>
      <trkpt lat="45.35349" lon="1.76202">
        <ele>379.07015991211</ele>
        <time>2020-06-24T14:50:20.491Z</time>
      </trkpt>
      <trkpt lat="45.35361" lon="1.76117">
        <ele>387.37838745117</ele>
        <time>2020-06-24T14:50:22.584Z</time>
      </trkpt>
      <trkpt lat="45.35392" lon="1.76078">
        <ele>383.92669677734</ele>
        <time>2020-06-24T14:50:24.684Z</time>
      </trkpt>
      <trkpt lat="45.35419" lon="1.76023">
        <ele>379.2633972168</ele>
        <time>2020-06-24T14:50:26.792Z</time>
      </trkpt>
      <trkpt lat="45.35421" lon="1.75993">
        <ele>383.09939575195</ele>
        <time>2020-06-24T14:50:28.903Z</time>
      </trkpt>
      <trkpt lat="45.35391" lon="1.75931">
        <ele>388.78289794922</ele>
        <time>2020-06-24T14:50:31.023Z</time>
      </trkpt>
      <trkpt lat="45.35391" lon="1.75931">
        <ele>388.78161621094</ele>
        <time>2020-06-24T14:50:33.143Z</time>
      </trkpt>
      <trkpt lat="45.35375" lon="1.759">
        <ele>390.80484008789</ele>
        <time>2020-06-24T14:50:35.267Z</time>
      </trkpt>
      <trkpt lat="45.35302" lon="1.75875">
        <ele>403.21389770508</ele>
        <time>2020-06-24T14:50:37.403Z</time>
      </trkpt>
      <trkpt lat="45.35289" lon="1.75851">
        <ele>402.47772216797</ele>
        <time>2020-06-24T14:50:39.542Z</time>
      </trkpt>
      <trkpt lat="45.35298" lon="1.75824">
        <ele>399.24917602539</ele>
        <time>2020-06-24T14:50:41.685Z</time>
      </trkpt>
      <trkpt lat="45.35337" lon="1.75801">
        <ele>400.76083374023</ele>
        <time>2020-06-24T14:50:43.834Z</time>
      </trkpt>
      <trkpt lat="45.35407" lon="1.75776">
        <ele>398.07305908203</ele>
        <time>2020-06-24T14:50:45.995Z</time>
      </trkpt>
      <trkpt lat="45.3543" lon="1.75742">
        <ele>393.68020629883</ele>
        <time>2020-06-24T14:50:48.161Z</time>
      </trkpt>
      <trkpt lat="45.35429" lon="1.75712">
        <ele>393.63717651367</ele>
        <time>2020-06-24T14:50:50.331Z</time>
      </trkpt>
      <trkpt lat="45.35419" lon="1.75691">
        <ele>395.87307739258</ele>
        <time>2020-06-24T14:50:52.503Z</time>
      </trkpt>
      <trkpt lat="45.35359" lon="1.75647">
        <ele>409.45809936523</ele>
        <time>2020-06-24T14:50:54.686Z</time>
      </trkpt>
      <trkpt lat="45.35347" lon="1.75623">
        <ele>413.35845947266</ele>
        <time>2020-06-24T14:50:56.873Z</time>
      </trkpt>
      <trkpt lat="45.35341" lon="1.7558">
        <ele>413.04235839844</ele>
        <time>2020-06-24T14:50:59.065Z</time>
      </trkpt>
      <trkpt lat="45.35343" lon="1.75507">
        <ele>413.99633789062</ele>
        <time>2020-06-24T14:51:01.265Z</time>
      </trkpt>
      <trkpt lat="45.35333" lon="1.75463">
        <ele>419.68243408203</ele>
        <time>2020-06-24T14:51:03.470Z</time>
      </trkpt>
      <trkpt lat="45.35343" lon="1.75435">
        <ele>419.37924194336</ele>
        <time>2020-06-24T14:51:05.678Z</time>
      </trkpt>
      <trkpt lat="45.35367" lon="1.75418">
        <ele>414.56494140625</ele>
        <time>2020-06-24T14:51:07.891Z</time>
      </trkpt>
      <trkpt lat="45.35378" lon="1.75395">
        <ele>413.033203125</ele>
        <time>2020-06-24T14:51:10.107Z</time>
      </trkpt>
      <trkpt lat="45.35404" lon="1.75214">
        <ele>415.55651855469</ele>
        <time>2020-06-24T14:51:12.344Z</time>
      </trkpt>
      <trkpt lat="45.35404" lon="1.75147">
        <ele>416.33032226562</ele>
        <time>2020-06-24T14:51:14.588Z</time>
      </trkpt>
      <trkpt lat="45.35388" lon="1.75118">
        <ele>417.25714111328</ele>
        <time>2020-06-24T14:51:16.836Z</time>
      </trkpt>
      <trkpt lat="45.35318" lon="1.75109">
        <ele>428.26504516602</ele>
        <time>2020-06-24T14:51:19.096Z</time>
      </trkpt>
      <trkpt lat="45.35251" lon="1.75074">
        <ele>431.82272338867</ele>
        <time>2020-06-24T14:51:21.367Z</time>
      </trkpt>
      <trkpt lat="45.35236" lon="1.75049">
        <ele>432.45953369141</ele>
        <time>2020-06-24T14:51:23.642Z</time>
      </trkpt>
      <trkpt lat="45.35244" lon="1.74998">
        <ele>431.6083984375</ele>
        <time>2020-06-24T14:51:25.923Z</time>
      </trkpt>
      <trkpt lat="45.35257" lon="1.74969">
        <ele>433.27490234375</ele>
        <time>2020-06-24T14:51:28.208Z</time>
      </trkpt>
      <trkpt lat="45.35286" lon="1.74954">
        <ele>433.71090698242</ele>
        <time>2020-06-24T14:51:30.498Z</time>
      </trkpt>
      <trkpt lat="45.35363" lon="1.74937">
        <ele>426.63073730469</ele>
        <time>2020-06-24T14:51:32.800Z</time>
      </trkpt>
      <trkpt lat="45.35378" lon="1.74922">
        <ele>424.46817016602</ele>
        <time>2020-06-24T14:51:35.105Z</time>
      </trkpt>
      <trkpt lat="45.35385" lon="1.7489">
        <ele>426.21560668945</ele>
        <time>2020-06-24T14:51:37.414Z</time>
      </trkpt>
      <trkpt lat="45.35382" lon="1.74819">
        <ele>431.97146606445</ele>
        <time>2020-06-24T14:51:39.731Z</time>
      </trkpt>
      <trkpt lat="45.35372" lon="1.74793">
        <ele>434.06747436523</ele>
        <time>2020-06-24T14:51:42.051Z</time>
      </trkpt>
      <trkpt lat="45.35335" lon="1.7476">
        <ele>441.46914672852</ele>
        <time>2020-06-24T14:51:44.378Z</time>
      </trkpt>
      <trkpt lat="45.3532" lon="1.74725">
        <ele>443.52923583984</ele>
        <time>2020-06-24T14:51:46.710Z</time>
      </trkpt>
      <trkpt lat="45.35318" lon="1.74694">
        <ele>441.41815185547</ele>
        <time>2020-06-24T14:51:49.045Z</time>
      </trkpt>
      <trkpt lat="45.35332" lon="1.74647">
        <ele>441.16836547852</ele>
        <time>2020-06-24T14:51:51.386Z</time>
      </trkpt>
      <trkpt lat="45.35352" lon="1.7463">
        <ele>441.50305175781</ele>
        <time>2020-06-24T14:51:53.731Z</time>
      </trkpt>
      <trkpt lat="45.35384" lon="1.7462">
        <ele>441.69995117188</ele>
        <time>2020-06-24T14:51:56.081Z</time>
      </trkpt>
      <trkpt lat="45.35405" lon="1.74585">
        <ele>443.5231628418</ele>
        <time>2020-06-24T14:51:58.436Z</time>
      </trkpt>
      <trkpt lat="45.35405" lon="1.74585">
        <ele>443.52365112305</ele>
        <time>2020-06-24T14:52:00.791Z</time>
      </trkpt>
      <trkpt lat="45.35437" lon="1.74476">
        <ele>452.79904174805</ele>
        <time>2020-06-24T14:52:03.159Z</time>
      </trkpt>
      <trkpt lat="45.35484" lon="1.7441">
        <ele>455.23010253906</ele>
        <time>2020-06-24T14:52:05.538Z</time>
      </trkpt>
      <trkpt lat="45.35492" lon="1.74373">
        <ele>455.09030151367</ele>
        <time>2020-06-24T14:52:07.921Z</time>
      </trkpt>
      <trkpt lat="45.3549" lon="1.74325">
        <ele>455.67276000977</ele>
        <time>2020-06-24T14:52:10.310Z</time>
      </trkpt>
      <trkpt lat="45.35484" lon="1.74306">
        <ele>456.81945800781</ele>
        <time>2020-06-24T14:52:12.701Z</time>
      </trkpt>
      <trkpt lat="45.35464" lon="1.74286">
        <ele>459.85025024414</ele>
        <time>2020-06-24T14:52:15.096Z</time>
      </trkpt>
      <trkpt lat="45.35405" lon="1.74261">
        <ele>464.69030761719</ele>
        <time>2020-06-24T14:52:17.501Z</time>
      </trkpt>
      <trkpt lat="45.35399" lon="1.74249">
        <ele>465.43688964844</ele>
        <time>2020-06-24T14:52:19.907Z</time>
      </trkpt>
      <trkpt lat="45.35401" lon="1.74218">
        <ele>466.72448730469</ele>
        <time>2020-06-24T14:52:22.317Z</time>
      </trkpt>
      <trkpt lat="45.35418" lon="1.74175">
        <ele>468.63854980469</ele>
        <time>2020-06-24T14:52:24.733Z</time>
      </trkpt>
      <trkpt lat="45.35432" lon="1.74108">
        <ele>472.27087402344</ele>
        <time>2020-06-24T14:52:27.157Z</time>
      </trkpt>
      <trkpt lat="45.35444" lon="1.74086">
        <ele>471.53713989258</ele>
        <time>2020-06-24T14:52:29.584Z</time>
      </trkpt>
      <trkpt lat="45.35488" lon="1.74038">
        <ele>466.05523681641</ele>
        <time>2020-06-24T14:52:32.019Z</time>
      </trkpt>
      <trkpt lat="45.35503" lon="1.74004">
        <ele>464.87368774414</ele>
        <time>2020-06-24T14:52:34.459Z</time>
      </trkpt>
      <trkpt lat="45.35497" lon="1.73941">
        <ele>468.08013916016</ele>
        <time>2020-06-24T14:52:36.906Z</time>
      </trkpt>
      <trkpt lat="45.35502" lon="1.73882">
        <ele>470.82711791992</ele>
        <time>2020-06-24T14:52:39.360Z</time>
      </trkpt>
      <trkpt lat="45.35494" lon="1.73838">
        <ele>472.57098388672</ele>
        <time>2020-06-24T14:52:41.819Z</time>
      </trkpt>
      <trkpt lat="45.35444" lon="1.7379">
        <ele>474.88021850586</ele>
        <time>2020-06-24T14:52:44.288Z</time>
      </trkpt>
      <trkpt lat="45.35434" lon="1.73751">
        <ele>473.9533996582</ele>
        <time>2020-06-24T14:52:46.761Z</time>
      </trkpt>
      <trkpt lat="45.35451" lon="1.73719">
        <ele>474.39630126953</ele>
        <time>2020-06-24T14:52:49.239Z</time>
      </trkpt>
      <trkpt lat="45.35482" lon="1.7371">
        <ele>474.00018310547</ele>
        <time>2020-06-24T14:52:51.722Z</time>
      </trkpt>
      <trkpt lat="45.35496" lon="1.73692">
        <ele>475.23593139648</ele>
        <time>2020-06-24T14:52:54.208Z</time>
      </trkpt>
      <trkpt lat="45.35513" lon="1.73585">
        <ele>478.13577270508</ele>
        <time>2020-06-24T14:52:56.706Z</time>
      </trkpt>
      <trkpt lat="45.35517" lon="1.7356">
        <ele>479.09585571289</ele>
        <time>2020-06-24T14:52:59.207Z</time>
      </trkpt>
      <trkpt lat="45.35697" lon="1.73318">
        <ele>496.0319519043</ele>
        <time>2020-06-24T14:53:01.748Z</time>
      </trkpt>
      <trkpt lat="45.35712" lon="1.73273">
        <ele>496.56866455078</ele>
        <time>2020-06-24T14:53:04.295Z</time>
      </trkpt>
      <trkpt lat="45.35707" lon="1.73221">
        <ele>498.75527954102</ele>
        <time>2020-06-24T14:53:06.847Z</time>
      </trkpt>
      <trkpt lat="45.35707" lon="1.73221">
        <ele>498.75549316406</ele>
        <time>2020-06-24T14:53:09.399Z</time>
      </trkpt>
      <trkpt lat="45.35671" lon="1.73127">
        <ele>502.35699462891</ele>
        <time>2020-06-24T14:53:11.963Z</time>
      </trkpt>
      <trkpt lat="45.35756" lon="1.73036">
        <ele>505.75192260742</ele>
        <time>2020-06-24T14:53:14.544Z</time>
      </trkpt>
      <trkpt lat="45.35825" lon="1.72898">
        <ele>507.7038269043</ele>
        <time>2020-06-24T14:53:17.144Z</time>
      </trkpt>
      <trkpt lat="45.35825" lon="1.72898">
        <ele>507.70413208008</ele>
        <time>2020-06-24T14:53:19.744Z</time>
      </trkpt>
      <trkpt lat="45.35873" lon="1.72806">
        <ele>504.92504882812</ele>
        <time>2020-06-24T14:53:22.357Z</time>
      </trkpt>
      <trkpt lat="45.35931" lon="1.72717">
        <ele>502.68649291992</ele>
        <time>2020-06-24T14:53:24.984Z</time>
      </trkpt>
      <trkpt lat="45.35986" lon="1.72671">
        <ele>505.7633972168</ele>
        <time>2020-06-24T14:53:27.621Z</time>
      </trkpt>
      <trkpt lat="45.36047" lon="1.72643">
        <ele>507.40295410156</ele>
        <time>2020-06-24T14:53:30.269Z</time>
      </trkpt>
      <trkpt lat="45.36047" lon="1.72643">
        <ele>507.40295410156</ele>
        <time>2020-06-24T14:53:32.917Z</time>
      </trkpt>
      <trkpt lat="45.36064" lon="1.72635">
        <ele>507.50042724609</ele>
        <time>2020-06-24T14:53:35.568Z</time>
      </trkpt>
      <trkpt lat="45.36216" lon="1.7253">
        <ele>507.53726196289</ele>
        <time>2020-06-24T14:53:38.246Z</time>
      </trkpt>
      <trkpt lat="45.3625" lon="1.72509">
        <ele>506.68368530273</ele>
        <time>2020-06-24T14:53:40.929Z</time>
      </trkpt>
      <trkpt lat="45.36395" lon="1.72406">
        <ele>500.27838134766</ele>
        <time>2020-06-24T14:53:43.638Z</time>
      </trkpt>
      <trkpt lat="45.36395" lon="1.72406">
        <ele>500.27828979492</ele>
        <time>2020-06-24T14:53:46.348Z</time>
      </trkpt>
      <trkpt lat="45.36411" lon="1.72395">
        <ele>499.73944091797</ele>
        <time>2020-06-24T14:53:49.060Z</time>
      </trkpt>
      <trkpt lat="45.36495" lon="1.72338">
        <ele>498.81619262695</ele>
        <time>2020-06-24T14:53:51.787Z</time>
      </trkpt>
      <trkpt lat="45.36517" lon="1.72311">
        <ele>497.65768432617</ele>
        <time>2020-06-24T14:53:54.519Z</time>
      </trkpt>
      <trkpt lat="45.36534" lon="1.72273">
        <ele>496.62091064453</ele>
        <time>2020-06-24T14:53:57.256Z</time>
      </trkpt>
      <trkpt lat="45.36548" lon="1.72198">
        <ele>496.94046020508</ele>
        <time>2020-06-24T14:54:00.002Z</time>
      </trkpt>
      <trkpt lat="45.36548" lon="1.72198">
        <ele>496.93984985352</ele>
        <time>2020-06-24T14:54:02.748Z</time>
      </trkpt>
      <trkpt lat="45.36568" lon="1.72088">
        <ele>499.96206665039</ele>
        <time>2020-06-24T14:54:05.506Z</time>
      </trkpt>
      <trkpt lat="45.36568" lon="1.72088">
        <ele>499.96206665039</ele>
        <time>2020-06-24T14:54:08.264Z</time>
      </trkpt>
      <trkpt lat="45.36595" lon="1.7194">
        <ele>499.05526733398</ele>
        <time>2020-06-24T14:54:11.040Z</time>
      </trkpt>
      <trkpt lat="45.36637" lon="1.71992">
        <ele>499.24166870117</ele>
        <time>2020-06-24T14:54:13.825Z</time>
      </trkpt>
      <trkpt lat="45.36658" lon="1.72087">
        <ele>503.20349121094</ele>
        <time>2020-06-24T14:54:16.621Z</time>
      </trkpt>
      <trkpt lat="45.3668" lon="1.72116">
        <ele>503.55102539062</ele>
        <time>2020-06-24T14:54:19.422Z</time>
      </trkpt>
      <trkpt lat="45.36782" lon="1.72047">
        <ele>499.81674194336</ele>
        <time>2020-06-24T14:54:22.241Z</time>
      </trkpt>
      <trkpt lat="45.36792" lon="1.72046">
        <ele>499.53475952148</ele>
        <time>2020-06-24T14:54:25.061Z</time>
      </trkpt>
      <trkpt lat="45.36792" lon="1.72046">
        <ele>499.53497314453</ele>
        <time>2020-06-24T14:54:27.881Z</time>
      </trkpt>
      <trkpt lat="45.36879" lon="1.72037">
        <ele>493.49212646484</ele>
        <time>2020-06-24T14:54:30.715Z</time>
      </trkpt>
      <trkpt lat="45.36909" lon="1.72026">
        <ele>490.82803344727</ele>
        <time>2020-06-24T14:54:33.554Z</time>
      </trkpt>
      <trkpt lat="45.36925" lon="1.72004">
        <ele>489.22222900391</ele>
        <time>2020-06-24T14:54:36.397Z</time>
      </trkpt>
      <trkpt lat="45.36935" lon="1.71958">
        <ele>487.47680664062</ele>
        <time>2020-06-24T14:54:39.245Z</time>
      </trkpt>
      <trkpt lat="45.36935" lon="1.71958">
        <ele>487.47698974609</ele>
        <time>2020-06-24T14:54:42.093Z</time>
      </trkpt>
      <trkpt lat="45.36933" lon="1.71951">
        <ele>487.91467285156</ele>
        <time>2020-06-24T14:54:44.942Z</time>
      </trkpt>
      <trkpt lat="45.37162" lon="1.71844">
        <ele>485.01547241211</ele>
        <time>2020-06-24T14:54:47.830Z</time>
      </trkpt>
      <trkpt lat="45.37162" lon="1.71844">
        <ele>485.01586914062</ele>
        <time>2020-06-24T14:54:50.718Z</time>
      </trkpt>
      <trkpt lat="45.37271" lon="1.71819">
        <ele>478.23904418945</ele>
        <time>2020-06-24T14:54:53.623Z</time>
      </trkpt>
      <trkpt lat="45.37271" lon="1.71819">
        <ele>478.24005126953</ele>
        <time>2020-06-24T14:54:56.528Z</time>
      </trkpt>
      <trkpt lat="45.37273" lon="1.71818">
        <ele>477.98461914062</ele>
        <time>2020-06-24T14:54:59.434Z</time>
      </trkpt>
      <trkpt lat="45.37292" lon="1.71807">
        <ele>475.93597412109</ele>
        <time>2020-06-24T14:55:02.343Z</time>
      </trkpt>
      <trkpt lat="45.37402" lon="1.71666">
        <ele>472.7688293457</ele>
        <time>2020-06-24T14:55:05.276Z</time>
      </trkpt>
      <trkpt lat="45.37423" lon="1.71646">
        <ele>470.69769287109</ele>
        <time>2020-06-24T14:55:08.213Z</time>
      </trkpt>
      <trkpt lat="45.37579" lon="1.71662">
        <ele>469.3225402832</ele>
        <time>2020-06-24T14:55:11.175Z</time>
      </trkpt>
      <trkpt lat="45.37698" lon="1.71613">
        <ele>474.85552978516</ele>
        <time>2020-06-24T14:55:14.157Z</time>
      </trkpt>
      <trkpt lat="45.37749" lon="1.71578">
        <ele>478.01718139648</ele>
        <time>2020-06-24T14:55:17.148Z</time>
      </trkpt>
      <trkpt lat="45.37749" lon="1.71578">
        <ele>478.01696777344</ele>
        <time>2020-06-24T14:55:20.139Z</time>
      </trkpt>
      <trkpt lat="45.37827" lon="1.71525">
        <ele>483.62542724609</ele>
        <time>2020-06-24T14:55:23.144Z</time>
      </trkpt>
      <trkpt lat="45.37842" lon="1.71507">
        <ele>484.80560302734</ele>
        <time>2020-06-24T14:55:26.152Z</time>
      </trkpt>
      <trkpt lat="45.37852" lon="1.7148">
        <ele>485.89965820312</ele>
        <time>2020-06-24T14:55:29.163Z</time>
      </trkpt>
      <trkpt lat="45.3785" lon="1.71441">
        <ele>487.60946655273</ele>
        <time>2020-06-24T14:55:32.179Z</time>
      </trkpt>
      <trkpt lat="45.37895" lon="1.7136">
        <ele>490.140625</ele>
        <time>2020-06-24T14:55:35.206Z</time>
      </trkpt>
      <trkpt lat="45.37974" lon="1.71241">
        <ele>489.53689575195</ele>
        <time>2020-06-24T14:55:38.252Z</time>
      </trkpt>
      <trkpt lat="45.38001" lon="1.71134">
        <ele>487.18548583984</ele>
        <time>2020-06-24T14:55:41.310Z</time>
      </trkpt>
      <trkpt lat="45.38014" lon="1.7111">
        <ele>485.65875244141</ele>
        <time>2020-06-24T14:55:44.372Z</time>
      </trkpt>
      <trkpt lat="45.38064" lon="1.71075">
        <ele>480.0244140625</ele>
        <time>2020-06-24T14:55:47.443Z</time>
      </trkpt>
      <trkpt lat="45.38099" lon="1.71001">
        <ele>475.19772338867</ele>
        <time>2020-06-24T14:55:50.524Z</time>
      </trkpt>
      <trkpt lat="45.38108" lon="1.70984">
        <ele>473.92700195312</ele>
        <time>2020-06-24T14:55:53.607Z</time>
      </trkpt>
      <trkpt lat="45.38112" lon="1.7095">
        <ele>472.11434936523</ele>
        <time>2020-06-24T14:55:56.694Z</time>
      </trkpt>
      <trkpt lat="45.38122" lon="1.70752">
        <ele>469.91976928711</ele>
        <time>2020-06-24T14:55:59.804Z</time>
      </trkpt>
      <trkpt lat="45.38137" lon="1.70648">
        <ele>472.56494140625</ele>
        <time>2020-06-24T14:56:02.925Z</time>
      </trkpt>
      <trkpt lat="45.38137" lon="1.70648">
        <ele>472.5651550293</ele>
        <time>2020-06-24T14:56:06.046Z</time>
      </trkpt>
      <trkpt lat="45.3815" lon="1.70556">
        <ele>469.86944580078</ele>
        <time>2020-06-24T14:56:09.178Z</time>
      </trkpt>
      <trkpt lat="45.38196" lon="1.704">
        <ele>460.41674804688</ele>
        <time>2020-06-24T14:56:12.329Z</time>
      </trkpt>
      <trkpt lat="45.38196" lon="1.704">
        <ele>460.41744995117</ele>
        <time>2020-06-24T14:56:15.480Z</time>
      </trkpt>
      <trkpt lat="45.38241" lon="1.70248">
        <ele>458.82760620117</ele>
        <time>2020-06-24T14:56:18.650Z</time>
      </trkpt>
      <trkpt lat="45.38293" lon="1.70115">
        <ele>461.62603759766</ele>
        <time>2020-06-24T14:56:21.837Z</time>
      </trkpt>
      <trkpt lat="45.38306" lon="1.70088">
        <ele>462.181640625</ele>
        <time>2020-06-24T14:56:25.028Z</time>
      </trkpt>
      <trkpt lat="45.38407" lon="1.69956">
        <ele>477.96862792969</ele>
        <time>2020-06-24T14:56:28.241Z</time>
      </trkpt>
      <trkpt lat="45.38424" lon="1.69944">
        <ele>479.77716064453</ele>
        <time>2020-06-24T14:56:31.457Z</time>
      </trkpt>
      <trkpt lat="45.38438" lon="1.69929">
        <ele>483.05853271484</ele>
        <time>2020-06-24T14:56:34.675Z</time>
      </trkpt>
      <trkpt lat="45.38493" lon="1.69658">
        <ele>484.56622314453</ele>
        <time>2020-06-24T14:56:37.925Z</time>
      </trkpt>
      <trkpt lat="45.38498" lon="1.69634">
        <ele>483.39822387695</ele>
        <time>2020-06-24T14:56:41.178Z</time>
      </trkpt>
      <trkpt lat="45.3857" lon="1.69502">
        <ele>471.41906738281</ele>
        <time>2020-06-24T14:56:44.450Z</time>
      </trkpt>
      <trkpt lat="45.38587" lon="1.69459">
        <ele>470.54504394531</ele>
        <time>2020-06-24T14:56:47.727Z</time>
      </trkpt>
      <trkpt lat="45.38616" lon="1.6922">
        <ele>469.95205688477</ele>
        <time>2020-06-24T14:56:51.032Z</time>
      </trkpt>
      <trkpt lat="45.38609" lon="1.69179">
        <ele>470.20950317383</ele>
        <time>2020-06-24T14:56:54.342Z</time>
      </trkpt>
      <trkpt lat="45.38587" lon="1.69134">
        <ele>468.9967956543</ele>
        <time>2020-06-24T14:56:57.658Z</time>
      </trkpt>
      <trkpt lat="45.38585" lon="1.69097">
        <ele>469.57833862305</ele>
        <time>2020-06-24T14:57:00.978Z</time>
      </trkpt>
      <trkpt lat="45.38565" lon="1.69048">
        <ele>469.25653076172</ele>
        <time>2020-06-24T14:57:04.304Z</time>
      </trkpt>
      <trkpt lat="45.3855" lon="1.69034">
        <ele>467.94354248047</ele>
        <time>2020-06-24T14:57:07.633Z</time>
      </trkpt>
      <trkpt lat="45.38506" lon="1.69017">
        <ele>466.51794433594</ele>
        <time>2020-06-24T14:57:10.970Z</time>
      </trkpt>
      <trkpt lat="45.38361" lon="1.68881">
        <ele>473.37112426758</ele>
        <time>2020-06-24T14:57:14.334Z</time>
      </trkpt>
      <trkpt lat="45.3834" lon="1.68846">
        <ele>476.61499023438</ele>
        <time>2020-06-24T14:57:17.703Z</time>
      </trkpt>
      <trkpt lat="45.38243" lon="1.68782">
        <ele>482.89840698242</ele>
        <time>2020-06-24T14:57:21.090Z</time>
      </trkpt>
      <trkpt lat="45.38214" lon="1.68699">
        <ele>485.45693969727</ele>
        <time>2020-06-24T14:57:24.487Z</time>
      </trkpt>
      <trkpt lat="45.38214" lon="1.68699">
        <ele>485.45706176758</ele>
        <time>2020-06-24T14:57:27.884Z</time>
      </trkpt>
      <trkpt lat="45.38217" lon="1.68684">
        <ele>485.5693359375</ele>
        <time>2020-06-24T14:57:31.283Z</time>
      </trkpt>
      <trkpt lat="45.38235" lon="1.68659">
        <ele>485.59991455078</ele>
        <time>2020-06-24T14:57:34.686Z</time>
      </trkpt>
      <trkpt lat="45.38393" lon="1.68557">
        <ele>486.13830566406</ele>
        <time>2020-06-24T14:57:38.117Z</time>
      </trkpt>
      <trkpt lat="45.38402" lon="1.68543">
        <ele>485.4560546875</ele>
        <time>2020-06-24T14:57:41.550Z</time>
      </trkpt>
      <trkpt lat="45.38415" lon="1.68503">
        <ele>484.8069152832</ele>
        <time>2020-06-24T14:57:44.988Z</time>
      </trkpt>
      <trkpt lat="45.38415" lon="1.68503">
        <ele>484.80670166016</ele>
        <time>2020-06-24T14:57:48.426Z</time>
      </trkpt>
      <trkpt lat="45.38438" lon="1.68432">
        <ele>485.29092407227</ele>
        <time>2020-06-24T14:57:51.872Z</time>
      </trkpt>
      <trkpt lat="45.38438" lon="1.68341">
        <ele>486.38507080078</ele>
        <time>2020-06-24T14:57:55.329Z</time>
      </trkpt>
      <trkpt lat="45.38458" lon="1.68259">
        <ele>488.00180053711</ele>
        <time>2020-06-24T14:57:58.795Z</time>
      </trkpt>
      <trkpt lat="45.38455" lon="1.68231">
        <ele>488.65371704102</ele>
        <time>2020-06-24T14:58:02.265Z</time>
      </trkpt>
      <trkpt lat="45.38436" lon="1.68169">
        <ele>488.54516601562</ele>
        <time>2020-06-24T14:58:05.742Z</time>
      </trkpt>
      <trkpt lat="45.38429" lon="1.68122">
        <ele>487.27169799805</ele>
        <time>2020-06-24T14:58:09.225Z</time>
      </trkpt>
      <trkpt lat="45.38426" lon="1.68039">
        <ele>486.12628173828</ele>
        <time>2020-06-24T14:58:12.717Z</time>
      </trkpt>
      <trkpt lat="45.38416" lon="1.67992">
        <ele>483.49438476562</ele>
        <time>2020-06-24T14:58:16.215Z</time>
      </trkpt>
      <trkpt lat="45.38409" lon="1.67978">
        <ele>482.37368774414</ele>
        <time>2020-06-24T14:58:19.714Z</time>
      </trkpt>
      <trkpt lat="45.38437" lon="1.67959">
        <ele>484.35604858398</ele>
        <time>2020-06-24T14:58:23.218Z</time>
      </trkpt>
      <trkpt lat="45.38559" lon="1.67827">
        <ele>487.35818481445</ele>
        <time>2020-06-24T14:58:26.747Z</time>
      </trkpt>
      <trkpt lat="45.38582" lon="1.67784">
        <ele>486.52822875977</ele>
        <time>2020-06-24T14:58:30.282Z</time>
      </trkpt>
      <trkpt lat="45.38582" lon="1.67784">
        <ele>486.5280456543</ele>
        <time>2020-06-24T14:58:33.817Z</time>
      </trkpt>
      <trkpt lat="45.38651" lon="1.67665">
        <ele>482.65374755859</ele>
        <time>2020-06-24T14:58:37.369Z</time>
      </trkpt>
      <trkpt lat="45.38663" lon="1.67651">
        <ele>481.34921264648</ele>
        <time>2020-06-24T14:58:40.924Z</time>
      </trkpt>
      <trkpt lat="45.38663" lon="1.67651">
        <ele>481.35083007812</ele>
        <time>2020-06-24T14:58:44.479Z</time>
      </trkpt>
      <trkpt lat="45.38696" lon="1.67615">
        <ele>477.15283203125</ele>
        <time>2020-06-24T14:58:48.041Z</time>
      </trkpt>
      <trkpt lat="45.38741" lon="1.67583">
        <ele>475.03750610352</ele>
        <time>2020-06-24T14:58:51.611Z</time>
      </trkpt>
      <trkpt lat="45.38793" lon="1.67534">
        <ele>472.02917480469</ele>
        <time>2020-06-24T14:58:55.191Z</time>
      </trkpt>
      <trkpt lat="45.38803" lon="1.67485">
        <ele>470.74996948242</ele>
        <time>2020-06-24T14:58:58.777Z</time>
      </trkpt>
      <trkpt lat="45.38804" lon="1.67412">
        <ele>469.82315063477</ele>
        <time>2020-06-24T14:59:02.371Z</time>
      </trkpt>
      <trkpt lat="45.38818" lon="1.67367">
        <ele>466.83139038086</ele>
        <time>2020-06-24T14:59:05.970Z</time>
      </trkpt>
      <trkpt lat="45.3885" lon="1.67302">
        <ele>464.33755493164</ele>
        <time>2020-06-24T14:59:09.578Z</time>
      </trkpt>
      <trkpt lat="45.38893" lon="1.67272">
        <ele>464.30523681641</ele>
        <time>2020-06-24T14:59:13.194Z</time>
      </trkpt>
      <trkpt lat="45.3902" lon="1.67306">
        <ele>459.00396728516</ele>
        <time>2020-06-24T14:59:16.830Z</time>
      </trkpt>
      <trkpt lat="45.39126" lon="1.67302">
        <ele>456.4108581543</ele>
        <time>2020-06-24T14:59:20.483Z</time>
      </trkpt>
      <trkpt lat="45.39182" lon="1.67281">
        <ele>451.18389892578</ele>
        <time>2020-06-24T14:59:24.146Z</time>
      </trkpt>
      <trkpt lat="45.39206" lon="1.67284">
        <ele>448.99557495117</ele>
        <time>2020-06-24T14:59:27.813Z</time>
      </trkpt>
      <trkpt lat="45.39227" lon="1.67275">
        <ele>448.58847045898</ele>
        <time>2020-06-24T14:59:31.483Z</time>
      </trkpt>
      <trkpt lat="45.39298" lon="1.67152">
        <ele>442.00811767578</ele>
        <time>2020-06-24T14:59:35.171Z</time>
      </trkpt>
      <trkpt lat="45.393" lon="1.67128">
        <ele>442.10568237305</ele>
        <time>2020-06-24T14:59:38.862Z</time>
      </trkpt>
      <trkpt lat="45.39291" lon="1.67085">
        <ele>442.08535766602</ele>
        <time>2020-06-24T14:59:42.558Z</time>
      </trkpt>
      <trkpt lat="45.39295" lon="1.67039">
        <ele>443.72543334961</ele>
        <time>2020-06-24T14:59:46.259Z</time>
      </trkpt>
      <trkpt lat="45.39295" lon="1.67039">
        <ele>443.7272644043</ele>
        <time>2020-06-24T14:59:49.960Z</time>
      </trkpt>
      <trkpt lat="45.39295" lon="1.67036">
        <ele>443.89862060547</ele>
        <time>2020-06-24T14:59:53.661Z</time>
      </trkpt>
      <trkpt lat="45.39289" lon="1.66989">
        <ele>446.49884033203</ele>
        <time>2020-06-24T14:59:57.368Z</time>
      </trkpt>
      <trkpt lat="45.393" lon="1.66953">
        <ele>448.19470214844</ele>
        <time>2020-06-24T15:00:01.079Z</time>
      </trkpt>
      <trkpt lat="45.39315" lon="1.66916">
        <ele>449.28787231445</ele>
        <time>2020-06-24T15:00:04.795Z</time>
      </trkpt>
      <trkpt lat="45.39346" lon="1.66867">
        <ele>444.99285888672</ele>
        <time>2020-06-24T15:00:08.518Z</time>
      </trkpt>
      <trkpt lat="45.39376" lon="1.66753">
        <ele>445.65408325195</ele>
        <time>2020-06-24T15:00:12.255Z</time>
      </trkpt>
      <trkpt lat="45.39432" lon="1.66669">
        <ele>446.59783935547</ele>
        <time>2020-06-24T15:00:16.005Z</time>
      </trkpt>
      <trkpt lat="45.39463" lon="1.66649">
        <ele>447.77258300781</ele>
        <time>2020-06-24T15:00:19.761Z</time>
      </trkpt>
      <trkpt lat="45.39496" lon="1.66655">
        <ele>450.01748657227</ele>
        <time>2020-06-24T15:00:23.522Z</time>
      </trkpt>
      <trkpt lat="45.39509" lon="1.66646">
        <ele>450.55307006836</ele>
        <time>2020-06-24T15:00:27.285Z</time>
      </trkpt>
      <trkpt lat="45.39567" lon="1.66528">
        <ele>453.83871459961</ele>
        <time>2020-06-24T15:00:31.065Z</time>
      </trkpt>
      <trkpt lat="45.3958" lon="1.66455">
        <ele>454.88662719727</ele>
        <time>2020-06-24T15:00:34.853Z</time>
      </trkpt>
      <trkpt lat="45.39579" lon="1.66423">
        <ele>455.33245849609</ele>
        <time>2020-06-24T15:00:38.645Z</time>
      </trkpt>
      <trkpt lat="45.3955" lon="1.6633">
        <ele>454.8923034668</ele>
        <time>2020-06-24T15:00:42.448Z</time>
      </trkpt>
      <trkpt lat="45.39546" lon="1.66299">
        <ele>454.49389648438</ele>
        <time>2020-06-24T15:00:46.255Z</time>
      </trkpt>
      <trkpt lat="45.39546" lon="1.66299">
        <ele>454.49407958984</ele>
        <time>2020-06-24T15:00:50.062Z</time>
      </trkpt>
      <trkpt lat="45.39544" lon="1.66284">
        <ele>454.10168457031</ele>
        <time>2020-06-24T15:00:53.870Z</time>
      </trkpt>
      <trkpt lat="45.39551" lon="1.66176">
        <ele>452.00732421875</ele>
        <time>2020-06-24T15:00:57.691Z</time>
      </trkpt>
      <trkpt lat="45.39574" lon="1.66078">
        <ele>450.98260498047</ele>
        <time>2020-06-24T15:01:01.523Z</time>
      </trkpt>
      <trkpt lat="45.39572" lon="1.66049">
        <ele>449.99517822266</ele>
        <time>2020-06-24T15:01:05.359Z</time>
      </trkpt>
      <trkpt lat="45.39564" lon="1.6603">
        <ele>448.68218994141</ele>
        <time>2020-06-24T15:01:09.197Z</time>
      </trkpt>
      <trkpt lat="45.39528" lon="1.65994">
        <ele>443.89685058594</ele>
        <time>2020-06-24T15:01:13.042Z</time>
      </trkpt>
      <trkpt lat="45.39505" lon="1.65958">
        <ele>444.46807861328</ele>
        <time>2020-06-24T15:01:16.893Z</time>
      </trkpt>
      <trkpt lat="45.39503" lon="1.65955">
        <ele>444.70471191406</ele>
        <time>2020-06-24T15:01:20.744Z</time>
      </trkpt>
      <trkpt lat="45.39503" lon="1.65955">
        <ele>444.70251464844</ele>
        <time>2020-06-24T15:01:24.595Z</time>
      </trkpt>
      <trkpt lat="45.39483" lon="1.65909">
        <ele>447.224609375</ele>
        <time>2020-06-24T15:01:28.452Z</time>
      </trkpt>
      <trkpt lat="45.39462" lon="1.65853">
        <ele>446.38165283203</ele>
        <time>2020-06-24T15:01:32.316Z</time>
      </trkpt>
      <trkpt lat="45.39456" lon="1.65795">
        <ele>442.36145019531</ele>
        <time>2020-06-24T15:01:36.187Z</time>
      </trkpt>
      <trkpt lat="45.39518" lon="1.65677">
        <ele>431.86776733398</ele>
        <time>2020-06-24T15:01:40.074Z</time>
      </trkpt>
      <trkpt lat="45.3953" lon="1.65576">
        <ele>430.85189819336</ele>
        <time>2020-06-24T15:01:43.973Z</time>
      </trkpt>
      <trkpt lat="45.3961" lon="1.65444">
        <ele>431.65594482422</ele>
        <time>2020-06-24T15:01:47.892Z</time>
      </trkpt>
      <trkpt lat="45.39672" lon="1.65363">
        <ele>427.66351318359</ele>
        <time>2020-06-24T15:01:51.824Z</time>
      </trkpt>
      <trkpt lat="45.39667" lon="1.65322">
        <ele>424.75857543945</ele>
        <time>2020-06-24T15:01:55.761Z</time>
      </trkpt>
      <trkpt lat="45.39692" lon="1.65199">
        <ele>417.31140136719</ele>
        <time>2020-06-24T15:01:59.712Z</time>
      </trkpt>
      <trkpt lat="45.39694" lon="1.65115">
        <ele>413.75588989258</ele>
        <time>2020-06-24T15:02:03.673Z</time>
      </trkpt>
      <trkpt lat="45.39686" lon="1.65092">
        <ele>411.95373535156</ele>
        <time>2020-06-24T15:02:07.637Z</time>
      </trkpt>
      <trkpt lat="45.39673" lon="1.65083">
        <ele>410.94967651367</ele>
        <time>2020-06-24T15:02:11.603Z</time>
      </trkpt>
      <trkpt lat="45.39629" lon="1.65084">
        <ele>409.64657592773</ele>
        <time>2020-06-24T15:02:15.576Z</time>
      </trkpt>
      <trkpt lat="45.39623" lon="1.65082">
        <ele>409.07315063477</ele>
        <time>2020-06-24T15:02:19.550Z</time>
      </trkpt>
      <trkpt lat="45.39623" lon="1.65082">
        <ele>409.07244873047</ele>
        <time>2020-06-24T15:02:23.524Z</time>
      </trkpt>
      <trkpt lat="45.39567" lon="1.6507">
        <ele>403.58364868164</ele>
        <time>2020-06-24T15:02:27.507Z</time>
      </trkpt>
      <trkpt lat="45.39558" lon="1.65063">
        <ele>402.83981323242</ele>
        <time>2020-06-24T15:02:31.492Z</time>
      </trkpt>
      <trkpt lat="45.39557" lon="1.65059">
        <ele>402.7497253418</ele>
        <time>2020-06-24T15:02:35.477Z</time>
      </trkpt>
      <trkpt lat="45.39558" lon="1.65006">
        <ele>402.84124755859</ele>
        <time>2020-06-24T15:02:39.468Z</time>
      </trkpt>
      <trkpt lat="45.39558" lon="1.65006">
        <ele>402.84124755859</ele>
        <time>2020-06-24T15:02:43.459Z</time>
      </trkpt>
      <trkpt lat="45.39559" lon="1.64956">
        <ele>402</ele>
        <time>2020-06-24T15:02:47.456Z</time>
      </trkpt>
      <trkpt lat="45.39618" lon="1.64798">
        <ele>404.07452392578</ele>
        <time>2020-06-24T15:02:51.473Z</time>
      </trkpt>
      <trkpt lat="45.39655" lon="1.64678">
        <ele>409.61935424805</ele>
        <time>2020-06-24T15:02:55.505Z</time>
      </trkpt>
      <trkpt lat="45.39656" lon="1.64679">
        <ele>409.50430297852</ele>
        <time>2020-06-24T15:02:59.537Z</time>
      </trkpt>
      <trkpt lat="45.39661" lon="1.6466">
        <ele>410.75210571289</ele>
        <time>2020-06-24T15:03:03.571Z</time>
      </trkpt>
      <trkpt lat="45.39666" lon="1.64627">
        <ele>413.31304931641</ele>
        <time>2020-06-24T15:03:07.609Z</time>
      </trkpt>
      <trkpt lat="45.39675" lon="1.64562">
        <ele>418.4709777832</ele>
        <time>2020-06-24T15:03:11.654Z</time>
      </trkpt>
      <trkpt lat="45.39682" lon="1.64535">
        <ele>420.22009277344</ele>
        <time>2020-06-24T15:03:15.703Z</time>
      </trkpt>
      <trkpt lat="45.39689" lon="1.6452">
        <ele>420.60403442383</ele>
        <time>2020-06-24T15:03:19.754Z</time>
      </trkpt>
      <trkpt lat="45.397" lon="1.64503">
        <ele>420.89199829102</ele>
        <time>2020-06-24T15:03:23.807Z</time>
      </trkpt>
      <trkpt lat="45.3971" lon="1.6449">
        <ele>421.03598022461</ele>
        <time>2020-06-24T15:03:27.862Z</time>
      </trkpt>
      <trkpt lat="45.39723" lon="1.64457">
        <ele>421.01766967773</ele>
        <time>2020-06-24T15:03:31.922Z</time>
      </trkpt>
      <trkpt lat="45.39739" lon="1.64414">
        <ele>421.15249633789</ele>
        <time>2020-06-24T15:03:35.987Z</time>
      </trkpt>
      <trkpt lat="45.39734" lon="1.64411">
        <ele>421.57244873047</ele>
        <time>2020-06-24T15:03:40.053Z</time>
      </trkpt>
      <trkpt lat="45.39697" lon="1.64391">
        <ele>424.76385498047</ele>
        <time>2020-06-24T15:03:44.125Z</time>
      </trkpt>
      <trkpt lat="45.39684" lon="1.64383">
        <ele>426.02362060547</ele>
        <time>2020-06-24T15:03:48.200Z</time>
      </trkpt>
      <trkpt lat="45.39679" lon="1.64378">
        <ele>426.62353515625</ele>
        <time>2020-06-24T15:03:52.276Z</time>
      </trkpt>
      <trkpt lat="45.39675" lon="1.64373">
        <ele>427.16345214844</ele>
        <time>2020-06-24T15:03:56.352Z</time>
      </trkpt>
      <trkpt lat="45.39644" lon="1.64327">
        <ele>431.72973632812</ele>
        <time>2020-06-24T15:04:00.436Z</time>
      </trkpt>
      <trkpt lat="45.39661" lon="1.64324">
        <ele>430.64990234375</ele>
        <time>2020-06-24T15:04:04.522Z</time>
      </trkpt>
      <trkpt lat="45.39678" lon="1.64321">
        <ele>429.57009887695</ele>
        <time>2020-06-24T15:04:08.611Z</time>
      </trkpt>
      <trkpt lat="45.39681" lon="1.64309">
        <ele>430.17144775391</ele>
        <time>2020-06-24T15:04:12.702Z</time>
      </trkpt>
      <trkpt lat="45.39685" lon="1.64303">
        <ele>430.31539916992</ele>
        <time>2020-06-24T15:04:16.793Z</time>
      </trkpt>
      <trkpt lat="45.39712" lon="1.64279">
        <ele>430.98889160156</ele>
        <time>2020-06-24T15:04:20.890Z</time>
      </trkpt>
      <trkpt lat="45.39733" lon="1.64258">
        <ele>432.6448059082</ele>
        <time>2020-06-24T15:04:24.991Z</time>
      </trkpt>
      <trkpt lat="45.39741" lon="1.64247">
        <ele>432.7216796875</ele>
        <time>2020-06-24T15:04:29.093Z</time>
      </trkpt>
      <trkpt lat="45.39755" lon="1.6422">
        <ele>433.43978881836</ele>
        <time>2020-06-24T15:04:33.199Z</time>
      </trkpt>
      <trkpt lat="45.39764" lon="1.64193">
        <ele>434.65774536133</ele>
        <time>2020-06-24T15:04:37.309Z</time>
      </trkpt>
      <trkpt lat="45.3977" lon="1.64162">
        <ele>435.05368041992</ele>
        <time>2020-06-24T15:04:41.422Z</time>
      </trkpt>
      <trkpt lat="45.39775" lon="1.64123">
        <ele>435.57751464844</ele>
        <time>2020-06-24T15:04:45.540Z</time>
      </trkpt>
      <trkpt lat="45.39775" lon="1.64111">
        <ele>436.00942993164</ele>
        <time>2020-06-24T15:04:49.659Z</time>
      </trkpt>
      <trkpt lat="45.39772" lon="1.64093">
        <ele>436.98126220703</ele>
        <time>2020-06-24T15:04:53.780Z</time>
      </trkpt>
      <trkpt lat="45.39769" lon="1.64087">
        <ele>437.52117919922</ele>
        <time>2020-06-24T15:04:57.902Z</time>
      </trkpt>
      <trkpt lat="45.39755" lon="1.64066">
        <ele>439.68014526367</ele>
        <time>2020-06-24T15:05:02.027Z</time>
      </trkpt>
      <trkpt lat="45.39751" lon="1.64044">
        <ele>440.11206054688</ele>
        <time>2020-06-24T15:05:06.155Z</time>
      </trkpt>
      <trkpt lat="45.3975" lon="1.64023">
        <ele>440.22006225586</ele>
        <time>2020-06-24T15:05:10.285Z</time>
      </trkpt>
      <trkpt lat="45.39758" lon="1.63976">
        <ele>437.52435302734</ele>
        <time>2020-06-24T15:05:14.421Z</time>
      </trkpt>
      <trkpt lat="45.39772" lon="1.63931">
        <ele>436.08065795898</ele>
        <time>2020-06-24T15:05:18.562Z</time>
      </trkpt>
      <trkpt lat="45.39806" lon="1.63868">
        <ele>433.8720703125</ele>
        <time>2020-06-24T15:05:22.712Z</time>
      </trkpt>
      <trkpt lat="45.39833" lon="1.63823">
        <ele>434.45556640625</ele>
        <time>2020-06-24T15:05:26.869Z</time>
      </trkpt>
      <trkpt lat="45.3985" lon="1.63799">
        <ele>434.71954345703</ele>
        <time>2020-06-24T15:05:31.030Z</time>
      </trkpt>
      <trkpt lat="45.3986" lon="1.63788">
        <ele>434.9098815918</ele>
        <time>2020-06-24T15:05:35.193Z</time>
      </trkpt>
      <trkpt lat="45.39899" lon="1.63753">
        <ele>436.87673950195</ele>
        <time>2020-06-24T15:05:39.363Z</time>
      </trkpt>
      <trkpt lat="45.39922" lon="1.63727">
        <ele>436.75204467773</ele>
        <time>2020-06-24T15:05:43.538Z</time>
      </trkpt>
      <trkpt lat="45.39949" lon="1.63687">
        <ele>438.2131652832</ele>
        <time>2020-06-24T15:05:47.719Z</time>
      </trkpt>
      <trkpt lat="45.39985" lon="1.6362">
        <ele>439.76672363281</ele>
        <time>2020-06-24T15:05:51.909Z</time>
      </trkpt>
      <trkpt lat="45.39996" lon="1.63602">
        <ele>439.09484863281</ele>
        <time>2020-06-24T15:05:56.102Z</time>
      </trkpt>
      <trkpt lat="45.40014" lon="1.63579">
        <ele>440.09661865234</ele>
        <time>2020-06-24T15:06:00.299Z</time>
      </trkpt>
      <trkpt lat="45.40022" lon="1.63565">
        <ele>440.58276367188</ele>
        <time>2020-06-24T15:06:04.498Z</time>
      </trkpt>
      <trkpt lat="45.40024" lon="1.63552">
        <ele>440.46276855469</ele>
        <time>2020-06-24T15:06:08.699Z</time>
      </trkpt>
      <trkpt lat="45.40026" lon="1.63525">
        <ele>440.08419799805</ele>
        <time>2020-06-24T15:06:12.903Z</time>
      </trkpt>
      <trkpt lat="45.40027" lon="1.63448">
        <ele>436.25018310547</ele>
        <time>2020-06-24T15:06:17.115Z</time>
      </trkpt>
      <trkpt lat="45.40026" lon="1.63416">
        <ele>432.90274047852</ele>
        <time>2020-06-24T15:06:21.331Z</time>
      </trkpt>
      <trkpt lat="45.40021" lon="1.63378">
        <ele>429.33935546875</ele>
        <time>2020-06-24T15:06:25.551Z</time>
      </trkpt>
      <trkpt lat="45.40011" lon="1.63343">
        <ele>427.16427612305</ele>
        <time>2020-06-24T15:06:29.776Z</time>
      </trkpt>
      <trkpt lat="45.39994" lon="1.63308">
        <ele>425.78323364258</ele>
        <time>2020-06-24T15:06:34.005Z</time>
      </trkpt>
      <trkpt lat="45.39981" lon="1.63288">
        <ele>425.43530273438</ele>
        <time>2020-06-24T15:06:38.237Z</time>
      </trkpt>
      <trkpt lat="45.39969" lon="1.63264">
        <ele>424.71542358398</ele>
        <time>2020-06-24T15:06:42.473Z</time>
      </trkpt>
      <trkpt lat="45.39965" lon="1.63251">
        <ele>424.11291503906</ele>
        <time>2020-06-24T15:06:46.710Z</time>
      </trkpt>
      <trkpt lat="45.39959" lon="1.63199">
        <ele>421.82940673828</ele>
        <time>2020-06-24T15:06:50.953Z</time>
      </trkpt>
      <trkpt lat="45.39957" lon="1.63172">
        <ele>420.9055480957</ele>
        <time>2020-06-24T15:06:55.199Z</time>
      </trkpt>
      <trkpt lat="45.39958" lon="1.63135">
        <ele>420.03750610352</ele>
        <time>2020-06-24T15:06:59.450Z</time>
      </trkpt>
      <trkpt lat="45.39961" lon="1.63117">
        <ele>420.3254699707</ele>
        <time>2020-06-24T15:07:03.703Z</time>
      </trkpt>
      <trkpt lat="45.39967" lon="1.63102">
        <ele>420.50805664062</ele>
        <time>2020-06-24T15:07:07.958Z</time>
      </trkpt>
      <trkpt lat="45.39977" lon="1.63093">
        <ele>420.13610839844</ele>
        <time>2020-06-24T15:07:12.214Z</time>
      </trkpt>
      <trkpt lat="45.39997" lon="1.63083">
        <ele>419.72375488281</ele>
        <time>2020-06-24T15:07:16.474Z</time>
      </trkpt>
      <trkpt lat="45.40014" lon="1.63077">
        <ele>419.53179931641</ele>
        <time>2020-06-24T15:07:20.737Z</time>
      </trkpt>
      <trkpt lat="45.40032" lon="1.63067">
        <ele>419.45980834961</ele>
        <time>2020-06-24T15:07:25.003Z</time>
      </trkpt>
      <trkpt lat="45.40046" lon="1.63054">
        <ele>419.44216918945</ele>
        <time>2020-06-24T15:07:29.271Z</time>
      </trkpt>
      <trkpt lat="45.40085" lon="1.6299">
        <ele>418.53372192383</ele>
        <time>2020-06-24T15:07:33.549Z</time>
      </trkpt>
      <trkpt lat="45.40095" lon="1.62973">
        <ele>419.10366821289</ele>
        <time>2020-06-24T15:07:37.829Z</time>
      </trkpt>
      <trkpt lat="45.4015" lon="1.62882">
        <ele>419.87603759766</ele>
        <time>2020-06-24T15:07:42.123Z</time>
      </trkpt>
      <trkpt lat="45.40179" lon="1.62817">
        <ele>421.11694335938</ele>
        <time>2020-06-24T15:07:46.426Z</time>
      </trkpt>
      <trkpt lat="45.40198" lon="1.62781">
        <ele>421.99514770508</ele>
        <time>2020-06-24T15:07:50.734Z</time>
      </trkpt>
      <trkpt lat="45.40223" lon="1.62756">
        <ele>422.79995727539</ele>
        <time>2020-06-24T15:07:55.047Z</time>
      </trkpt>
      <trkpt lat="45.40239" lon="1.62736">
        <ele>423.2392578125</ele>
        <time>2020-06-24T15:07:59.363Z</time>
      </trkpt>
      <trkpt lat="45.40248" lon="1.6272">
        <ele>423.00106811523</ele>
        <time>2020-06-24T15:08:03.681Z</time>
      </trkpt>
      <trkpt lat="45.40269" lon="1.62642">
        <ele>424.16943359375</ele>
        <time>2020-06-24T15:08:08.009Z</time>
      </trkpt>
      <trkpt lat="45.40295" lon="1.62546">
        <ele>427.19097900391</ele>
        <time>2020-06-24T15:08:12.348Z</time>
      </trkpt>
      <trkpt lat="45.40303" lon="1.62526">
        <ele>427.78756713867</ele>
        <time>2020-06-24T15:08:16.690Z</time>
      </trkpt>
      <trkpt lat="45.40321" lon="1.62497">
        <ele>429.08340454102</ele>
        <time>2020-06-24T15:08:21.036Z</time>
      </trkpt>
      <trkpt lat="45.40354" lon="1.62453">
        <ele>428.05575561523</ele>
        <time>2020-06-24T15:08:25.390Z</time>
      </trkpt>
      <trkpt lat="45.40373" lon="1.62424">
        <ele>427.68380737305</ele>
        <time>2020-06-24T15:08:29.748Z</time>
      </trkpt>
      <trkpt lat="45.40383" lon="1.62402">
        <ele>427.17495727539</ele>
        <time>2020-06-24T15:08:34.109Z</time>
      </trkpt>
      <trkpt lat="45.4039" lon="1.62376">
        <ele>427.55889892578</ele>
        <time>2020-06-24T15:08:38.473Z</time>
      </trkpt>
      <trkpt lat="45.40396" lon="1.62336">
        <ele>427.46292114258</ele>
        <time>2020-06-24T15:08:42.842Z</time>
      </trkpt>
      <trkpt lat="45.40406" lon="1.62288">
        <ele>425.11346435547</ele>
        <time>2020-06-24T15:08:47.216Z</time>
      </trkpt>
      <trkpt lat="45.40416" lon="1.62263">
        <ele>424.11508178711</ele>
        <time>2020-06-24T15:08:51.594Z</time>
      </trkpt>
      <trkpt lat="45.40444" lon="1.62203">
        <ele>421.67227172852</ele>
        <time>2020-06-24T15:08:55.980Z</time>
      </trkpt>
      <trkpt lat="45.40495" lon="1.62099">
        <ele>417.29861450195</ele>
        <time>2020-06-24T15:09:00.380Z</time>
      </trkpt>
      <trkpt lat="45.40548" lon="1.61986">
        <ele>419.96405029297</ele>
        <time>2020-06-24T15:09:04.795Z</time>
      </trkpt>
      <trkpt lat="45.40568" lon="1.61957">
        <ele>416.08511352539</ele>
        <time>2020-06-24T15:09:09.215Z</time>
      </trkpt>
      <trkpt lat="45.40622" lon="1.61905">
        <ele>412.23550415039</ele>
        <time>2020-06-24T15:09:13.645Z</time>
      </trkpt>
      <trkpt lat="45.40659" lon="1.61871">
        <ele>405.43740844727</ele>
        <time>2020-06-24T15:09:18.082Z</time>
      </trkpt>
      <trkpt lat="45.40674" lon="1.61851">
        <ele>402.00982666016</ele>
        <time>2020-06-24T15:09:22.523Z</time>
      </trkpt>
      <trkpt lat="45.4069" lon="1.61814">
        <ele>398.77890014648</ele>
        <time>2020-06-24T15:09:26.969Z</time>
      </trkpt>
      <trkpt lat="45.40701" lon="1.61777">
        <ele>396.84017944336</ele>
        <time>2020-06-24T15:09:31.419Z</time>
      </trkpt>
      <trkpt lat="45.40711" lon="1.61732">
        <ele>395.94165039062</ele>
        <time>2020-06-24T15:09:35.874Z</time>
      </trkpt>
      <trkpt lat="45.40715" lon="1.61722">
        <ele>395.6809387207</ele>
        <time>2020-06-24T15:09:40.331Z</time>
      </trkpt>
      <trkpt lat="45.40726" lon="1.61708">
        <ele>394.30465698242</ele>
        <time>2020-06-24T15:09:44.790Z</time>
      </trkpt>
      <trkpt lat="45.40771" lon="1.61665">
        <ele>388.44018554688</ele>
        <time>2020-06-24T15:09:49.258Z</time>
      </trkpt>
      <trkpt lat="45.40791" lon="1.61623">
        <ele>386.0419921875</ele>
        <time>2020-06-24T15:09:53.731Z</time>
      </trkpt>
      <trkpt lat="45.40805" lon="1.61593">
        <ele>386.26507568359</ele>
        <time>2020-06-24T15:09:58.209Z</time>
      </trkpt>
      <trkpt lat="45.40821" lon="1.61551">
        <ele>385.57131958008</ele>
        <time>2020-06-24T15:10:02.692Z</time>
      </trkpt>
      <trkpt lat="45.40823" lon="1.61538">
        <ele>385.35537719727</ele>
        <time>2020-06-24T15:10:07.176Z</time>
      </trkpt>
      <trkpt lat="45.40824" lon="1.61514">
        <ele>385.24737548828</ele>
        <time>2020-06-24T15:10:11.663Z</time>
      </trkpt>
      <trkpt lat="45.40822" lon="1.61445">
        <ele>384.37698364258</ele>
        <time>2020-06-24T15:10:16.158Z</time>
      </trkpt>
      <trkpt lat="45.40821" lon="1.61374">
        <ele>381.58123779297</ele>
        <time>2020-06-24T15:10:20.661Z</time>
      </trkpt>
      <trkpt lat="45.40822" lon="1.61361">
        <ele>380.90936279297</ele>
        <time>2020-06-24T15:10:25.165Z</time>
      </trkpt>
      <trkpt lat="45.40833" lon="1.61315">
        <ele>375.36245727539</ele>
        <time>2020-06-24T15:10:29.675Z</time>
      </trkpt>
      <trkpt lat="45.40846" lon="1.61261">
        <ele>372.0905456543</ele>
        <time>2020-06-24T15:10:34.191Z</time>
      </trkpt>
      <trkpt lat="45.4085" lon="1.61242">
        <ele>370.83074951172</ele>
        <time>2020-06-24T15:10:38.710Z</time>
      </trkpt>
      <trkpt lat="45.40852" lon="1.61219">
        <ele>368.93682861328</ele>
        <time>2020-06-24T15:10:43.231Z</time>
      </trkpt>
      <trkpt lat="45.40851" lon="1.612">
        <ele>367.85104370117</ele>
        <time>2020-06-24T15:10:47.754Z</time>
      </trkpt>
      <trkpt lat="45.40845" lon="1.61182">
        <ele>368.21096801758</ele>
        <time>2020-06-24T15:10:52.280Z</time>
      </trkpt>
      <trkpt lat="45.40838" lon="1.61172">
        <ele>368.63092041016</ele>
        <time>2020-06-24T15:10:56.807Z</time>
      </trkpt>
      <trkpt lat="45.4082" lon="1.61167">
        <ele>369.71072387695</ele>
        <time>2020-06-24T15:11:01.337Z</time>
      </trkpt>
      <trkpt lat="45.40795" lon="1.61168">
        <ele>372.10244750977</ele>
        <time>2020-06-24T15:11:05.871Z</time>
      </trkpt>
      <trkpt lat="45.40784" lon="1.61165">
        <ele>371.05862426758</ele>
        <time>2020-06-24T15:11:10.407Z</time>
      </trkpt>
      <trkpt lat="45.40775" lon="1.61156">
        <ele>369.65487670898</ele>
        <time>2020-06-24T15:11:14.945Z</time>
      </trkpt>
      <trkpt lat="45.4077" lon="1.61146">
        <ele>368.7366027832</ele>
        <time>2020-06-24T15:11:19.484Z</time>
      </trkpt>
      <trkpt lat="45.40758" lon="1.6111">
        <ele>366.41409301758</ele>
        <time>2020-06-24T15:11:24.027Z</time>
      </trkpt>
      <trkpt lat="45.40743" lon="1.61077">
        <ele>361.98681640625</ele>
        <time>2020-06-24T15:11:28.575Z</time>
      </trkpt>
      <trkpt lat="45.40739" lon="1.61061">
        <ele>360.22445678711</ele>
        <time>2020-06-24T15:11:33.125Z</time>
      </trkpt>
      <trkpt lat="45.40739" lon="1.61054">
        <ele>359.63656616211</ele>
        <time>2020-06-24T15:11:37.676Z</time>
      </trkpt>
      <trkpt lat="45.40741" lon="1.61043">
        <ele>358.61672973633</ele>
        <time>2020-06-24T15:11:42.228Z</time>
      </trkpt>
      <trkpt lat="45.40746" lon="1.61035">
        <ele>357.70489501953</ele>
        <time>2020-06-24T15:11:46.781Z</time>
      </trkpt>
      <trkpt lat="45.40755" lon="1.6103">
        <ele>356.85302734375</ele>
        <time>2020-06-24T15:11:51.336Z</time>
      </trkpt>
      <trkpt lat="45.4076" lon="1.61031">
        <ele>356.69705200195</ele>
        <time>2020-06-24T15:11:55.891Z</time>
      </trkpt>
      <trkpt lat="45.40766" lon="1.61034">
        <ele>356.61282348633</ele>
        <time>2020-06-24T15:12:00.447Z</time>
      </trkpt>
      <trkpt lat="45.40787" lon="1.61054">
        <ele>357.26071166992</ele>
        <time>2020-06-24T15:12:05.008Z</time>
      </trkpt>
      <trkpt lat="45.40807" lon="1.61067">
        <ele>358.0397644043</ele>
        <time>2020-06-24T15:12:09.572Z</time>
      </trkpt>
      <trkpt lat="45.40812" lon="1.61068">
        <ele>358.26773071289</ele>
        <time>2020-06-24T15:12:14.137Z</time>
      </trkpt>
      <trkpt lat="45.40819" lon="1.61068">
        <ele>358.43569946289</ele>
        <time>2020-06-24T15:12:18.703Z</time>
      </trkpt>
      <trkpt lat="45.40825" lon="1.61065">
        <ele>358.25573730469</ele>
        <time>2020-06-24T15:12:23.270Z</time>
      </trkpt>
      <trkpt lat="45.40841" lon="1.61049">
        <ele>356.91195678711</ele>
        <time>2020-06-24T15:12:27.840Z</time>
      </trkpt>
      <trkpt lat="45.4085" lon="1.61038">
        <ele>355.94012451172</ele>
        <time>2020-06-24T15:12:32.412Z</time>
      </trkpt>
      <trkpt lat="45.40862" lon="1.61014">
        <ele>355.30004882812</ele>
        <time>2020-06-24T15:12:36.987Z</time>
      </trkpt>
      <trkpt lat="45.40871" lon="1.60986">
        <ele>354.26821899414</ele>
        <time>2020-06-24T15:12:41.566Z</time>
      </trkpt>
      <trkpt lat="45.40885" lon="1.60938">
        <ele>351.11370849609</ele>
        <time>2020-06-24T15:12:46.151Z</time>
      </trkpt>
      <trkpt lat="45.40894" lon="1.60917">
        <ele>349.56594848633</ele>
        <time>2020-06-24T15:12:50.738Z</time>
      </trkpt>
      <trkpt lat="45.40905" lon="1.6091">
        <ele>349.78079223633</ele>
        <time>2020-06-24T15:12:55.327Z</time>
      </trkpt>
      <trkpt lat="45.40919" lon="1.60906">
        <ele>350.42868041992</ele>
        <time>2020-06-24T15:12:59.919Z</time>
      </trkpt>
      <trkpt lat="45.40927" lon="1.60899">
        <ele>350.57266235352</ele>
        <time>2020-06-24T15:13:04.512Z</time>
      </trkpt>
      <trkpt lat="45.40934" lon="1.60891">
        <ele>350.60864257812</ele>
        <time>2020-06-24T15:13:09.107Z</time>
      </trkpt>
      <trkpt lat="45.4094" lon="1.6088">
        <ele>350.44067382812</ele>
        <time>2020-06-24T15:13:13.703Z</time>
      </trkpt>
      <trkpt lat="45.40944" lon="1.60864">
        <ele>351.90698242188</ele>
        <time>2020-06-24T15:13:18.301Z</time>
      </trkpt>
      <trkpt lat="45.40943" lon="1.60839">
        <ele>353.52673339844</ele>
        <time>2020-06-24T15:13:22.902Z</time>
      </trkpt>
      <trkpt lat="45.40937" lon="1.60806">
        <ele>353.62490844727</ele>
        <time>2020-06-24T15:13:27.507Z</time>
      </trkpt>
      <trkpt lat="45.40941" lon="1.60756">
        <ele>353.14498901367</ele>
        <time>2020-06-24T15:13:32.117Z</time>
      </trkpt>
      <trkpt lat="45.40943" lon="1.60744">
        <ele>353.21697998047</ele>
        <time>2020-06-24T15:13:36.729Z</time>
      </trkpt>
      <trkpt lat="45.40951" lon="1.60718">
        <ele>353.61660766602</ele>
        <time>2020-06-24T15:13:41.344Z</time>
      </trkpt>
      <trkpt lat="45.40966" lon="1.6068">
        <ele>351.18084716797</ele>
        <time>2020-06-24T15:13:45.964Z</time>
      </trkpt>
      <trkpt lat="45.41022" lon="1.60528">
        <ele>349.22219848633</ele>
        <time>2020-06-24T15:13:50.603Z</time>
      </trkpt>
      <trkpt lat="45.4104" lon="1.60483">
        <ele>348.05166625977</ele>
        <time>2020-06-24T15:13:55.248Z</time>
      </trkpt>
      <trkpt lat="45.41066" lon="1.60431">
        <ele>346.36248779297</ele>
        <time>2020-06-24T15:13:59.900Z</time>
      </trkpt>
      <trkpt lat="45.41088" lon="1.60401">
        <ele>347.65316772461</ele>
        <time>2020-06-24T15:14:04.557Z</time>
      </trkpt>
      <trkpt lat="45.41112" lon="1.60387">
        <ele>349.02093505859</ele>
        <time>2020-06-24T15:14:09.218Z</time>
      </trkpt>
      <trkpt lat="45.41123" lon="1.60374">
        <ele>351.42388916016</ele>
        <time>2020-06-24T15:14:13.882Z</time>
      </trkpt>
      <trkpt lat="45.41129" lon="1.6035">
        <ele>353.51153564453</ele>
        <time>2020-06-24T15:14:18.548Z</time>
      </trkpt>
      <trkpt lat="45.41133" lon="1.6032">
        <ele>355.13342285156</ele>
        <time>2020-06-24T15:14:23.218Z</time>
      </trkpt>
      <trkpt lat="45.41133" lon="1.60311">
        <ele>354.59069824219</ele>
        <time>2020-06-24T15:14:27.889Z</time>
      </trkpt>
      <trkpt lat="45.41139" lon="1.60294">
        <ele>354.3147277832</ele>
        <time>2020-06-24T15:14:32.562Z</time>
      </trkpt>
      <trkpt lat="45.41168" lon="1.60233">
        <ele>356.08270263672</ele>
        <time>2020-06-24T15:14:37.243Z</time>
      </trkpt>
      <trkpt lat="45.41179" lon="1.60213">
        <ele>357.15051269531</ele>
        <time>2020-06-24T15:14:41.927Z</time>
      </trkpt>
      <trkpt lat="45.41193" lon="1.60196">
        <ele>358.51342773438</ele>
        <time>2020-06-24T15:14:46.614Z</time>
      </trkpt>
      <trkpt lat="45.4121" lon="1.60174">
        <ele>359.40127563477</ele>
        <time>2020-06-24T15:14:51.305Z</time>
      </trkpt>
      <trkpt lat="45.41225" lon="1.60156">
        <ele>359.20819091797</ele>
        <time>2020-06-24T15:14:55.999Z</time>
      </trkpt>
      <trkpt lat="45.4123" lon="1.60143">
        <ele>358.86270141602</ele>
        <time>2020-06-24T15:15:00.695Z</time>
      </trkpt>
      <trkpt lat="45.41244" lon="1.60045">
        <ele>352.83383178711</ele>
        <time>2020-06-24T15:15:05.402Z</time>
      </trkpt>
      <trkpt lat="45.41254" lon="1.60009">
        <ele>350.59884643555</ele>
        <time>2020-06-24T15:15:10.113Z</time>
      </trkpt>
      <trkpt lat="45.41262" lon="1.59989">
        <ele>348.96710205078</ele>
        <time>2020-06-24T15:15:14.827Z</time>
      </trkpt>
      <trkpt lat="45.41272" lon="1.59971">
        <ele>347.93533325195</ele>
        <time>2020-06-24T15:15:19.543Z</time>
      </trkpt>
      <trkpt lat="45.41283" lon="1.59958">
        <ele>347.17660522461</ele>
        <time>2020-06-24T15:15:24.262Z</time>
      </trkpt>
      <trkpt lat="45.41299" lon="1.59945">
        <ele>346.29901123047</ele>
        <time>2020-06-24T15:15:28.984Z</time>
      </trkpt>
      <trkpt lat="45.41341" lon="1.59911">
        <ele>348.64099121094</ele>
        <time>2020-06-24T15:15:33.713Z</time>
      </trkpt>
      <trkpt lat="45.41355" lon="1.59896">
        <ele>349.88024902344</ele>
        <time>2020-06-24T15:15:38.445Z</time>
      </trkpt>
      <trkpt lat="45.41355" lon="1.59891">
        <ele>349.64028930664</ele>
        <time>2020-06-24T15:15:43.178Z</time>
      </trkpt>
      <trkpt lat="45.41353" lon="1.59888">
        <ele>349.13638305664</ele>
        <time>2020-06-24T15:15:47.911Z</time>
      </trkpt>
      <trkpt lat="45.41359" lon="1.59881">
        <ele>349.88024902344</ele>
        <time>2020-06-24T15:15:52.646Z</time>
      </trkpt>
      <trkpt lat="45.41368" lon="1.5986">
        <ele>349.82702636719</ele>
        <time>2020-06-24T15:15:57.383Z</time>
      </trkpt>
      <trkpt lat="45.41384" lon="1.59825">
        <ele>349.97610473633</ele>
        <time>2020-06-24T15:16:02.125Z</time>
      </trkpt>
      <trkpt lat="45.41397" lon="1.59806">
        <ele>351.15270996094</ele>
        <time>2020-06-24T15:16:06.870Z</time>
      </trkpt>
      <trkpt lat="45.41429" lon="1.59771">
        <ele>354.66696166992</ele>
        <time>2020-06-24T15:16:11.621Z</time>
      </trkpt>
      <trkpt lat="45.41471" lon="1.59731">
        <ele>356.75408935547</ele>
        <time>2020-06-24T15:16:16.381Z</time>
      </trkpt>
      <trkpt lat="45.41484" lon="1.59712">
        <ele>358.46978759766</ele>
        <time>2020-06-24T15:16:21.144Z</time>
      </trkpt>
      <trkpt lat="45.41488" lon="1.59699">
        <ele>358.99771118164</ele>
        <time>2020-06-24T15:16:25.908Z</time>
      </trkpt>
      <trkpt lat="45.41488" lon="1.59683">
        <ele>358.99771118164</ele>
        <time>2020-06-24T15:16:30.674Z</time>
      </trkpt>
      <trkpt lat="45.41485" lon="1.59659">
        <ele>358.0100402832</ele>
        <time>2020-06-24T15:16:35.443Z</time>
      </trkpt>
      <trkpt lat="45.41469" lon="1.59606">
        <ele>357.95379638672</ele>
        <time>2020-06-24T15:16:40.218Z</time>
      </trkpt>
      <trkpt lat="45.41469" lon="1.59599">
        <ele>358.20574951172</ele>
        <time>2020-06-24T15:16:44.994Z</time>
      </trkpt>
      <trkpt lat="45.41471" lon="1.59593">
        <ele>358.58969116211</ele>
        <time>2020-06-24T15:16:49.771Z</time>
      </trkpt>
      <trkpt lat="45.41457" lon="1.5958">
        <ele>358.37890625</ele>
        <time>2020-06-24T15:16:54.550Z</time>
      </trkpt>
      <trkpt lat="45.41452" lon="1.59576">
        <ele>358.40289306641</ele>
        <time>2020-06-24T15:16:59.330Z</time>
      </trkpt>
      <trkpt lat="45.41454" lon="1.59569">
        <ele>358.7028503418</ele>
        <time>2020-06-24T15:17:04.111Z</time>
      </trkpt>
      <trkpt lat="45.41454" lon="1.59544">
        <ele>358.88494873047</ele>
        <time>2020-06-24T15:17:08.895Z</time>
      </trkpt>
      <trkpt lat="45.41448" lon="1.59519">
        <ele>358.96893310547</ele>
        <time>2020-06-24T15:17:13.682Z</time>
      </trkpt>
      <trkpt lat="45.41434" lon="1.59474">
        <ele>358.21868896484</ele>
        <time>2020-06-24T15:17:18.475Z</time>
      </trkpt>
      <trkpt lat="45.41432" lon="1.59441">
        <ele>356.2946472168</ele>
        <time>2020-06-24T15:17:23.271Z</time>
      </trkpt>
      <trkpt lat="45.41434" lon="1.59433">
        <ele>356.00668334961</ele>
        <time>2020-06-24T15:17:28.068Z</time>
      </trkpt>
      <trkpt lat="45.41448" lon="1.5939">
        <ele>354.61492919922</ele>
        <time>2020-06-24T15:17:32.871Z</time>
      </trkpt>
      <trkpt lat="45.41461" lon="1.59361">
        <ele>353.41165161133</ele>
        <time>2020-06-24T15:17:37.677Z</time>
      </trkpt>
      <trkpt lat="45.41462" lon="1.59343">
        <ele>352.36782836914</ele>
        <time>2020-06-24T15:17:42.485Z</time>
      </trkpt>
      <trkpt lat="45.41461" lon="1.59327">
        <ele>351.37200927734</ele>
        <time>2020-06-24T15:17:47.295Z</time>
      </trkpt>
      <trkpt lat="45.41443" lon="1.59305">
        <ele>349.08694458008</ele>
        <time>2020-06-24T15:17:52.109Z</time>
      </trkpt>
      <trkpt lat="45.41421" lon="1.59278">
        <ele>346.02743530273</ele>
        <time>2020-06-24T15:17:56.928Z</time>
      </trkpt>
      <trkpt lat="45.41452" lon="1.59227">
        <ele>343.41693115234</ele>
        <time>2020-06-24T15:18:01.754Z</time>
      </trkpt>
      <trkpt lat="45.41489" lon="1.59169">
        <ele>343.40237426758</ele>
        <time>2020-06-24T15:18:06.589Z</time>
      </trkpt>
      <trkpt lat="45.41493" lon="1.59151">
        <ele>343.68069458008</ele>
        <time>2020-06-24T15:18:11.426Z</time>
      </trkpt>
      <trkpt lat="45.41488" lon="1.59134">
        <ele>343.65667724609</ele>
        <time>2020-06-24T15:18:16.265Z</time>
      </trkpt>
      <trkpt lat="45.41467" lon="1.5911">
        <ele>341.28109741211</ele>
        <time>2020-06-24T15:18:21.109Z</time>
      </trkpt>
      <trkpt lat="45.41439" lon="1.59079">
        <ele>338.69638061523</ele>
        <time>2020-06-24T15:18:25.958Z</time>
      </trkpt>
      <trkpt lat="45.4143" lon="1.59066">
        <ele>337.89340209961</ele>
        <time>2020-06-24T15:18:30.809Z</time>
      </trkpt>
      <trkpt lat="45.41426" lon="1.59053">
        <ele>337.16152954102</ele>
        <time>2020-06-24T15:18:35.662Z</time>
      </trkpt>
      <trkpt lat="45.41422" lon="1.5902">
        <ele>336.48358154297</ele>
        <time>2020-06-24T15:18:40.519Z</time>
      </trkpt>
      <trkpt lat="45.41421" lon="1.5898">
        <ele>337.61880493164</ele>
        <time>2020-06-24T15:18:45.380Z</time>
      </trkpt>
      <trkpt lat="45.41421" lon="1.58948">
        <ele>335.31518554688</ele>
        <time>2020-06-24T15:18:50.245Z</time>
      </trkpt>
      <trkpt lat="45.41428" lon="1.5892">
        <ele>337.04125976562</ele>
        <time>2020-06-24T15:18:55.113Z</time>
      </trkpt>
      <trkpt lat="45.41429" lon="1.58913">
        <ele>337.41320800781</ele>
        <time>2020-06-24T15:18:59.982Z</time>
      </trkpt>
      <trkpt lat="45.4143" lon="1.58913">
        <ele>337.70114135742</ele>
        <time>2020-06-24T15:19:04.851Z</time>
      </trkpt>
      <trkpt lat="45.41443" lon="1.58867">
        <ele>337.97915649414</ele>
        <time>2020-06-24T15:19:09.726Z</time>
      </trkpt>
      <trkpt lat="45.4145" lon="1.58831">
        <ele>335.50756835938</ele>
        <time>2020-06-24T15:19:14.605Z</time>
      </trkpt>
      <trkpt lat="45.41452" lon="1.58809">
        <ele>333.83474731445</ele>
        <time>2020-06-24T15:19:19.486Z</time>
      </trkpt>
      <trkpt lat="45.41451" lon="1.58792">
        <ele>331.49340820312</ele>
        <time>2020-06-24T15:19:24.369Z</time>
      </trkpt>
      <trkpt lat="45.4146" lon="1.58777">
        <ele>331.06149291992</ele>
        <time>2020-06-24T15:19:29.255Z</time>
      </trkpt>
      <trkpt lat="45.41492" lon="1.5873">
        <ele>330.64300537109</ele>
        <time>2020-06-24T15:19:34.148Z</time>
      </trkpt>
      <trkpt lat="45.41527" lon="1.58682">
        <ele>330.84085083008</ele>
        <time>2020-06-24T15:19:39.049Z</time>
      </trkpt>
      <trkpt lat="45.41549" lon="1.58649">
        <ele>331.63116455078</ele>
        <time>2020-06-24T15:19:43.955Z</time>
      </trkpt>
      <trkpt lat="45.41563" lon="1.58616">
        <ele>326.98794555664</ele>
        <time>2020-06-24T15:19:48.865Z</time>
      </trkpt>
      <trkpt lat="45.41572" lon="1.58588">
        <ele>323.27752685547</ele>
        <time>2020-06-24T15:19:53.779Z</time>
      </trkpt>
      <trkpt lat="45.41587" lon="1.58525">
        <ele>320.44357299805</ele>
        <time>2020-06-24T15:19:58.700Z</time>
      </trkpt>
      <trkpt lat="45.41601" lon="1.58492">
        <ele>318.43698120117</ele>
        <time>2020-06-24T15:20:03.626Z</time>
      </trkpt>
      <trkpt lat="45.41619" lon="1.58464">
        <ele>318.23001098633</ele>
        <time>2020-06-24T15:20:08.556Z</time>
      </trkpt>
      <trkpt lat="45.41636" lon="1.58446">
        <ele>314.7141418457</ele>
        <time>2020-06-24T15:20:13.489Z</time>
      </trkpt>
      <trkpt lat="45.41671" lon="1.58414">
        <ele>306.67211914062</ele>
        <time>2020-06-24T15:20:18.429Z</time>
      </trkpt>
      <trkpt lat="45.41693" lon="1.58393">
        <ele>301.84051513672</ele>
        <time>2020-06-24T15:20:23.373Z</time>
      </trkpt>
      <trkpt lat="45.41709" lon="1.58371">
        <ele>298.64617919922</ele>
        <time>2020-06-24T15:20:28.321Z</time>
      </trkpt>
      <trkpt lat="45.41746" lon="1.5829">
        <ele>297.24935913086</ele>
        <time>2020-06-24T15:20:33.280Z</time>
      </trkpt>
      <trkpt lat="45.41758" lon="1.5825">
        <ele>299.21704101562</ele>
        <time>2020-06-24T15:20:38.243Z</time>
      </trkpt>
      <trkpt lat="45.4177" lon="1.58178">
        <ele>302.28897094727</ele>
        <time>2020-06-24T15:20:43.215Z</time>
      </trkpt>
      <trkpt lat="45.41775" lon="1.58143">
        <ele>303.62719726562</ele>
        <time>2020-06-24T15:20:48.191Z</time>
      </trkpt>
      <trkpt lat="45.41781" lon="1.58123">
        <ele>303.83486938477</ele>
        <time>2020-06-24T15:20:53.169Z</time>
      </trkpt>
      <trkpt lat="45.41796" lon="1.58096">
        <ele>304.44674682617</ele>
        <time>2020-06-24T15:20:58.151Z</time>
      </trkpt>
      <trkpt lat="45.41807" lon="1.58086">
        <ele>304.53137207031</ele>
        <time>2020-06-24T15:21:03.135Z</time>
      </trkpt>
      <trkpt lat="45.41825" lon="1.58074">
        <ele>304.9475402832</ele>
        <time>2020-06-24T15:21:08.122Z</time>
      </trkpt>
      <trkpt lat="45.41839" lon="1.5807">
        <ele>305.4514465332</ele>
        <time>2020-06-24T15:21:13.112Z</time>
      </trkpt>
      <trkpt lat="45.41857" lon="1.5807">
        <ele>306.0993347168</ele>
        <time>2020-06-24T15:21:18.105Z</time>
      </trkpt>
      <trkpt lat="45.41893" lon="1.58071">
        <ele>307.06018066406</ele>
        <time>2020-06-24T15:21:23.103Z</time>
      </trkpt>
      <trkpt lat="45.41919" lon="1.58072">
        <ele>307.34811401367</ele>
        <time>2020-06-24T15:21:28.106Z</time>
      </trkpt>
      <trkpt lat="45.41938" lon="1.58069">
        <ele>307.64807128906</ele>
        <time>2020-06-24T15:21:33.112Z</time>
      </trkpt>
      <trkpt lat="45.41958" lon="1.58058">
        <ele>307.31747436523</ele>
        <time>2020-06-24T15:21:38.121Z</time>
      </trkpt>
      <trkpt lat="45.41976" lon="1.58051">
        <ele>308.48440551758</ele>
        <time>2020-06-24T15:21:43.133Z</time>
      </trkpt>
      <trkpt lat="45.42016" lon="1.58042">
        <ele>311.62789916992</ele>
        <time>2020-06-24T15:21:48.151Z</time>
      </trkpt>
      <trkpt lat="45.42063" lon="1.58032">
        <ele>316.2815246582</ele>
        <time>2020-06-24T15:21:53.177Z</time>
      </trkpt>
      <trkpt lat="45.42077" lon="1.5803">
        <ele>317.93725585938</ele>
        <time>2020-06-24T15:21:58.205Z</time>
      </trkpt>
      <trkpt lat="45.42176" lon="1.58031">
        <ele>327.80169677734</ele>
        <time>2020-06-24T15:22:03.249Z</time>
      </trkpt>
      <trkpt lat="45.42268" lon="1.58056">
        <ele>335.15478515625</ele>
        <time>2020-06-24T15:22:08.308Z</time>
      </trkpt>
      <trkpt lat="45.42292" lon="1.58063">
        <ele>336.59454345703</ele>
        <time>2020-06-24T15:22:13.371Z</time>
      </trkpt>
      <trkpt lat="45.42312" lon="1.58063">
        <ele>337.0217590332</ele>
        <time>2020-06-24T15:22:18.437Z</time>
      </trkpt>
      <trkpt lat="45.42321" lon="1.58058">
        <ele>337.09375</ele>
        <time>2020-06-24T15:22:23.505Z</time>
      </trkpt>
      <trkpt lat="45.42337" lon="1.58038">
        <ele>337.62167358398</ele>
        <time>2020-06-24T15:22:28.576Z</time>
      </trkpt>
      <trkpt lat="45.42359" lon="1.58025">
        <ele>339.25912475586</ele>
        <time>2020-06-24T15:22:33.651Z</time>
      </trkpt>
      <trkpt lat="45.42373" lon="1.58013">
        <ele>341.39477539062</ele>
        <time>2020-06-24T15:22:38.729Z</time>
      </trkpt>
      <trkpt lat="45.42371" lon="1.57994">
        <ele>343.3264465332</ele>
        <time>2020-06-24T15:22:43.809Z</time>
      </trkpt>
      <trkpt lat="45.42371" lon="1.57943">
        <ele>346.80062866211</ele>
        <time>2020-06-24T15:22:48.895Z</time>
      </trkpt>
      <trkpt lat="45.42368" lon="1.57888">
        <ele>349.31695556641</ele>
        <time>2020-06-24T15:22:53.987Z</time>
      </trkpt>
      <trkpt lat="45.42365" lon="1.57865">
        <ele>349.40881347656</ele>
        <time>2020-06-24T15:22:59.081Z</time>
      </trkpt>
      <trkpt lat="45.42362" lon="1.5781">
        <ele>349.43530273438</ele>
        <time>2020-06-24T15:23:04.182Z</time>
      </trkpt>
      <trkpt lat="45.42366" lon="1.57622">
        <ele>339.87438964844</ele>
        <time>2020-06-24T15:23:09.304Z</time>
      </trkpt>
      <trkpt lat="45.42368" lon="1.57548">
        <ele>340.27822875977</ele>
        <time>2020-06-24T15:23:14.434Z</time>
      </trkpt>
      <trkpt lat="45.42369" lon="1.57497">
        <ele>341.65802001953</ele>
        <time>2020-06-24T15:23:19.570Z</time>
      </trkpt>
      <trkpt lat="45.42367" lon="1.57476">
        <ele>341.95300292969</ele>
        <time>2020-06-24T15:23:24.708Z</time>
      </trkpt>
      <trkpt lat="45.42356" lon="1.57421">
        <ele>341.76727294922</ele>
        <time>2020-06-24T15:23:29.853Z</time>
      </trkpt>
      <trkpt lat="45.42354" lon="1.57399">
        <ele>342.00723266602</ele>
        <time>2020-06-24T15:23:35.000Z</time>
      </trkpt>
      <trkpt lat="45.42358" lon="1.57359">
        <ele>343.10778808594</ele>
        <time>2020-06-24T15:23:40.152Z</time>
      </trkpt>
      <trkpt lat="45.42376" lon="1.57305">
        <ele>345.10455322266</ele>
        <time>2020-06-24T15:23:45.311Z</time>
      </trkpt>
      <trkpt lat="45.42386" lon="1.57272">
        <ele>345.31924438477</ele>
        <time>2020-06-24T15:23:50.474Z</time>
      </trkpt>
      <trkpt lat="45.42398" lon="1.57224">
        <ele>345.20834350586</ele>
        <time>2020-06-24T15:23:55.642Z</time>
      </trkpt>
      <trkpt lat="45.42404" lon="1.57206">
        <ele>345.49630737305</ele>
        <time>2020-06-24T15:24:00.813Z</time>
      </trkpt>
      <trkpt lat="45.4241" lon="1.57199">
        <ele>345.91622924805</ele>
        <time>2020-06-24T15:24:05.985Z</time>
      </trkpt>
      <trkpt lat="45.42416" lon="1.57193">
        <ele>346.34817504883</ele>
        <time>2020-06-24T15:24:11.158Z</time>
      </trkpt>
      <trkpt lat="45.42417" lon="1.57193">
        <ele>346.43215942383</ele>
        <time>2020-06-24T15:24:16.331Z</time>
      </trkpt>
      <trkpt lat="45.42418" lon="1.57193">
        <ele>346.51614379883</ele>
        <time>2020-06-24T15:24:21.504Z</time>
      </trkpt>
      <trkpt lat="45.42419" lon="1.57193">
        <ele>346.60012817383</ele>
        <time>2020-06-24T15:24:26.678Z</time>
      </trkpt>
      <trkpt lat="45.42421" lon="1.57192">
        <ele>346.75610351562</ele>
        <time>2020-06-24T15:24:31.852Z</time>
      </trkpt>
      <trkpt lat="45.42422" lon="1.5719">
        <ele>346.76361083984</ele>
        <time>2020-06-24T15:24:37.026Z</time>
      </trkpt>
      <trkpt lat="45.42423" lon="1.57185">
        <ele>346.49966430664</ele>
        <time>2020-06-24T15:24:42.201Z</time>
      </trkpt>
      <trkpt lat="45.42422" lon="1.57182">
        <ele>346.28369140625</ele>
        <time>2020-06-24T15:24:47.376Z</time>
      </trkpt>
      <trkpt lat="45.42421" lon="1.57181">
        <ele>346.18771362305</ele>
        <time>2020-06-24T15:24:52.551Z</time>
      </trkpt>
      <trkpt lat="45.42423" lon="1.57158">
        <ele>344.87991333008</ele>
        <time>2020-06-24T15:24:57.729Z</time>
      </trkpt>
      <trkpt lat="45.42429" lon="1.57144">
        <ele>344.34240722656</ele>
        <time>2020-06-24T15:25:02.909Z</time>
      </trkpt>
      <trkpt lat="45.42437" lon="1.57117">
        <ele>343.05880737305</ele>
        <time>2020-06-24T15:25:08.092Z</time>
      </trkpt>
      <trkpt lat="45.42445" lon="1.57079">
        <ele>339.3154296875</ele>
        <time>2020-06-24T15:25:13.280Z</time>
      </trkpt>
      <trkpt lat="45.42448" lon="1.57057">
        <ele>337.94900512695</ele>
        <time>2020-06-24T15:25:18.470Z</time>
      </trkpt>
      <trkpt lat="45.42453" lon="1.57002">
        <ele>331.44375610352</ele>
        <time>2020-06-24T15:25:23.666Z</time>
      </trkpt>
      <trkpt lat="45.42456" lon="1.56973">
        <ele>328.97152709961</ele>
        <time>2020-06-24T15:25:28.866Z</time>
      </trkpt>
      <trkpt lat="45.42484" lon="1.56972">
        <ele>327.6999206543</ele>
        <time>2020-06-24T15:25:34.070Z</time>
      </trkpt>
      <trkpt lat="45.42551" lon="1.56967">
        <ele>325.84811401367</ele>
        <time>2020-06-24T15:25:39.285Z</time>
      </trkpt>
      <trkpt lat="45.42568" lon="1.56965">
        <ele>326.80795288086</ele>
        <time>2020-06-24T15:25:44.503Z</time>
      </trkpt>
      <trkpt lat="45.42576" lon="1.56958">
        <ele>326.45999145508</ele>
        <time>2020-06-24T15:25:49.722Z</time>
      </trkpt>
      <trkpt lat="45.42581" lon="1.56934">
        <ele>323.65246582031</ele>
        <time>2020-06-24T15:25:54.944Z</time>
      </trkpt>
      <trkpt lat="45.42582" lon="1.5691">
        <ele>322.01818847656</ele>
        <time>2020-06-24T15:26:00.169Z</time>
      </trkpt>
      <trkpt lat="45.42583" lon="1.56897">
        <ele>321.06466674805</ele>
        <time>2020-06-24T15:26:05.395Z</time>
      </trkpt>
      <trkpt lat="45.42589" lon="1.56875">
        <ele>319.48092651367</ele>
        <time>2020-06-24T15:26:10.624Z</time>
      </trkpt>
      <trkpt lat="45.42595" lon="1.56854">
        <ele>317.40466308594</ele>
        <time>2020-06-24T15:26:15.855Z</time>
      </trkpt>
      <trkpt lat="45.42598" lon="1.56849">
        <ele>316.78076171875</ele>
        <time>2020-06-24T15:26:21.087Z</time>
      </trkpt>
      <trkpt lat="45.42596" lon="1.56845">
        <ele>315.96490478516</ele>
        <time>2020-06-24T15:26:26.320Z</time>
      </trkpt>
      <trkpt lat="45.42595" lon="1.5684">
        <ele>315.05307006836</ele>
        <time>2020-06-24T15:26:31.553Z</time>
      </trkpt>
      <trkpt lat="45.42595" lon="1.56828">
        <ele>313.0373840332</ele>
        <time>2020-06-24T15:26:36.787Z</time>
      </trkpt>
      <trkpt lat="45.42599" lon="1.56818">
        <ele>311.64562988281</ele>
        <time>2020-06-24T15:26:42.023Z</time>
      </trkpt>
      <trkpt lat="45.42608" lon="1.56806">
        <ele>310.98635864258</ele>
        <time>2020-06-24T15:26:47.261Z</time>
      </trkpt>
      <trkpt lat="45.42632" lon="1.56772">
        <ele>305.20764160156</ele>
        <time>2020-06-24T15:26:52.504Z</time>
      </trkpt>
      <trkpt lat="45.42633" lon="1.56772">
        <ele>305.34909057617</ele>
        <time>2020-06-24T15:26:57.747Z</time>
      </trkpt>
      <trkpt lat="45.42634" lon="1.56772">
        <ele>305.51705932617</ele>
        <time>2020-06-24T15:27:02.991Z</time>
      </trkpt>
      <trkpt lat="45.42637" lon="1.56771">
        <ele>305.82901000977</ele>
        <time>2020-06-24T15:27:08.235Z</time>
      </trkpt>
      <trkpt lat="45.42639" lon="1.56769">
        <ele>305.78100585938</ele>
        <time>2020-06-24T15:27:13.479Z</time>
      </trkpt>
      <trkpt lat="45.4264" lon="1.56762">
        <ele>304.6051940918</ele>
        <time>2020-06-24T15:27:18.724Z</time>
      </trkpt>
      <trkpt lat="45.42637" lon="1.56755">
        <ele>302.75750732422</ele>
        <time>2020-06-24T15:27:23.970Z</time>
      </trkpt>
      <trkpt lat="45.42641" lon="1.56697">
        <ele>295.9157409668</ele>
        <time>2020-06-24T15:27:29.223Z</time>
      </trkpt>
      <trkpt lat="45.42643" lon="1.56639">
        <ele>292.95935058594</ele>
        <time>2020-06-24T15:27:34.482Z</time>
      </trkpt>
      <trkpt lat="45.42643" lon="1.56632">
        <ele>293.71520996094</ele>
        <time>2020-06-24T15:27:39.742Z</time>
      </trkpt>
      <trkpt lat="45.4264" lon="1.56632">
        <ele>293.53524780273</ele>
        <time>2020-06-24T15:27:45.003Z</time>
      </trkpt>
      <trkpt lat="45.42625" lon="1.56628">
        <ele>293.92489624023</ele>
        <time>2020-06-24T15:27:50.266Z</time>
      </trkpt>
      <trkpt lat="45.42608" lon="1.56622">
        <ele>295.59259033203</ele>
        <time>2020-06-24T15:27:55.532Z</time>
      </trkpt>
      <trkpt lat="45.42596" lon="1.56618">
        <ele>296.67166137695</ele>
        <time>2020-06-24T15:28:00.800Z</time>
      </trkpt>
      <trkpt lat="45.4259" lon="1.56615">
        <ele>297.28356933594</ele>
        <time>2020-06-24T15:28:06.069Z</time>
      </trkpt>
      <trkpt lat="45.42574" lon="1.56604">
        <ele>299.31121826172</ele>
        <time>2020-06-24T15:28:11.341Z</time>
      </trkpt>
      <trkpt lat="45.42559" lon="1.5659">
        <ele>301.69882202148</ele>
        <time>2020-06-24T15:28:16.615Z</time>
      </trkpt>
      <trkpt lat="45.42544" lon="1.56577">
        <ele>303.43612670898</ele>
        <time>2020-06-24T15:28:21.892Z</time>
      </trkpt>
      <trkpt lat="45.42492" lon="1.56541">
        <ele>304.1227722168</ele>
        <time>2020-06-24T15:28:27.179Z</time>
      </trkpt>
      <trkpt lat="45.42444" lon="1.56508">
        <ele>304.36929321289</ele>
        <time>2020-06-24T15:28:32.474Z</time>
      </trkpt>
      <trkpt lat="45.42411" lon="1.56487">
        <ele>304.11734008789</ele>
        <time>2020-06-24T15:28:37.775Z</time>
      </trkpt>
      <trkpt lat="45.42383" lon="1.56463">
        <ele>306.70138549805</ele>
        <time>2020-06-24T15:28:43.081Z</time>
      </trkpt>
      <trkpt lat="45.42366" lon="1.56447">
        <ele>307.18313598633</ele>
        <time>2020-06-24T15:28:48.390Z</time>
      </trkpt>
      <trkpt lat="45.42351" lon="1.56437">
        <ele>306.64321899414</ele>
        <time>2020-06-24T15:28:53.702Z</time>
      </trkpt>
      <trkpt lat="45.4232" lon="1.56425">
        <ele>304.10659790039</ele>
        <time>2020-06-24T15:28:59.019Z</time>
      </trkpt>
      <trkpt lat="45.42293" lon="1.56418">
        <ele>304.25680541992</ele>
        <time>2020-06-24T15:29:04.341Z</time>
      </trkpt>
      <trkpt lat="45.42276" lon="1.56421">
        <ele>304.31677246094</ele>
        <time>2020-06-24T15:29:09.665Z</time>
      </trkpt>
      <trkpt lat="45.42254" lon="1.56439">
        <ele>303.71688842773</ele>
        <time>2020-06-24T15:29:14.993Z</time>
      </trkpt>
      <trkpt lat="45.42226" lon="1.56471">
        <ele>299.66937255859</ele>
        <time>2020-06-24T15:29:20.327Z</time>
      </trkpt>
      <trkpt lat="45.42212" lon="1.56491">
        <ele>299.16058349609</ele>
        <time>2020-06-24T15:29:25.664Z</time>
      </trkpt>
      <trkpt lat="45.422" lon="1.56525">
        <ele>304.41571044922</ele>
        <time>2020-06-24T15:29:31.006Z</time>
      </trkpt>
      <trkpt lat="45.4219" lon="1.56558">
        <ele>307.23440551758</ele>
        <time>2020-06-24T15:29:36.352Z</time>
      </trkpt>
      <trkpt lat="45.42175" lon="1.56589">
        <ele>310.56625366211</ele>
        <time>2020-06-24T15:29:41.702Z</time>
      </trkpt>
      <trkpt lat="45.4217" lon="1.56606">
        <ele>313.38635253906</ele>
        <time>2020-06-24T15:29:47.054Z</time>
      </trkpt>
      <trkpt lat="45.42161" lon="1.56615">
        <ele>312.73846435547</ele>
        <time>2020-06-24T15:29:52.408Z</time>
      </trkpt>
      <trkpt lat="45.4213" lon="1.56644">
        <ele>311.20330810547</ele>
        <time>2020-06-24T15:29:57.768Z</time>
      </trkpt>
      <trkpt lat="45.42111" lon="1.56657">
        <ele>310.44232177734</ele>
        <time>2020-06-24T15:30:03.131Z</time>
      </trkpt>
      <trkpt lat="45.42083" lon="1.56672">
        <ele>310.56231689453</ele>
        <time>2020-06-24T15:30:08.499Z</time>
      </trkpt>
      <trkpt lat="45.4203" lon="1.56693">
        <ele>308.24563598633</ele>
        <time>2020-06-24T15:30:13.876Z</time>
      </trkpt>
      <trkpt lat="45.42008" lon="1.56699">
        <ele>309.93969726562</ele>
        <time>2020-06-24T15:30:19.256Z</time>
      </trkpt>
      <trkpt lat="45.41985" lon="1.56708">
        <ele>306.94021606445</ele>
        <time>2020-06-24T15:30:24.640Z</time>
      </trkpt>
      <trkpt lat="45.41961" lon="1.56715">
        <ele>305.23675537109</ele>
        <time>2020-06-24T15:30:30.028Z</time>
      </trkpt>
    </trkseg>
  </trk>
</gpx>